<?xml version="1.0" encoding="UTF-8" standalone="no" ?>
<gpx xmlns="http://www.topografix.com/GPX/1/1" xmlns:xsi="http://www.w3.org/2001/XMLSchema-instance" xsi:schemaLocation="http://www.topografix.com/GPX/1/1 http://www.topografix.com/GPX/1/1/gpx.xsd" version="1.1" creator="VisuGPX - https://www.visugpx.com">
  <metadata>
    <name>2017-08-06 06:14:57 Jour</name>
    <desc><![CDATA[3eme jour en bikepacking sur la French Divide 2017]]></desc>
  </metadata>
  <trk>
    <name><![CDATA[2017-08-06 06:14:57 Jour]]></name>
    <trkseg>
      <trkpt lat="49.55497" lon="4.05388">
        <ele>27.05</ele>
        <time>2017-08-06T04:14:57Z</time>
      </trkpt>
      <trkpt lat="49.55498" lon="4.05373">
        <ele>29.94</ele>
        <time>2017-08-06T04:15:07Z</time>
      </trkpt>
      <trkpt lat="49.55498" lon="4.05373">
        <ele>29.94</ele>
        <time>2017-08-06T04:15:08Z</time>
      </trkpt>
      <trkpt lat="49.55498" lon="4.05372">
        <ele>33.78</ele>
        <time>2017-08-06T04:15:11Z</time>
      </trkpt>
      <trkpt lat="49.55498" lon="4.05372">
        <ele>37.15</ele>
        <time>2017-08-06T04:15:14Z</time>
      </trkpt>
      <trkpt lat="49.55498" lon="4.05372">
        <ele>40.99</ele>
        <time>2017-08-06T04:15:18Z</time>
      </trkpt>
      <trkpt lat="49.55499" lon="4.05372">
        <ele>44.84</ele>
        <time>2017-08-06T04:15:22Z</time>
      </trkpt>
      <trkpt lat="49.55498" lon="4.05374">
        <ele>48.2</ele>
        <time>2017-08-06T04:15:26Z</time>
      </trkpt>
      <trkpt lat="49.55497" lon="4.05376">
        <ele>51.09</ele>
        <time>2017-08-06T04:15:30Z</time>
      </trkpt>
      <trkpt lat="49.55496" lon="4.05377">
        <ele>53.97</ele>
        <time>2017-08-06T04:15:33Z</time>
      </trkpt>
      <trkpt lat="49.55496" lon="4.05377">
        <ele>53.97</ele>
        <time>2017-08-06T04:15:34Z</time>
      </trkpt>
      <trkpt lat="49.55495" lon="4.05378">
        <ele>57.82</ele>
        <time>2017-08-06T04:15:39Z</time>
      </trkpt>
      <trkpt lat="49.55495" lon="4.05379">
        <ele>61.18</ele>
        <time>2017-08-06T04:15:45Z</time>
      </trkpt>
      <trkpt lat="49.55495" lon="4.05379">
        <ele>64.55</ele>
        <time>2017-08-06T04:15:52Z</time>
      </trkpt>
      <trkpt lat="49.55495" lon="4.05379">
        <ele>67.91</ele>
        <time>2017-08-06T04:16:00Z</time>
      </trkpt>
      <trkpt lat="49.55495" lon="4.05379">
        <ele>70.79</ele>
        <time>2017-08-06T04:16:09Z</time>
      </trkpt>
      <trkpt lat="49.55494" lon="4.05378">
        <ele>74.16</ele>
        <time>2017-08-06T04:16:21Z</time>
      </trkpt>
      <trkpt lat="49.55493" lon="4.05378">
        <ele>77.04</ele>
        <time>2017-08-06T04:16:39Z</time>
      </trkpt>
      <trkpt lat="49.55492" lon="4.05382">
        <ele>79.93</ele>
        <time>2017-08-06T04:17:16Z</time>
      </trkpt>
      <trkpt lat="49.55492" lon="4.05382">
        <ele>79.93</ele>
        <time>2017-08-06T04:17:48Z</time>
      </trkpt>
      <trkpt lat="49.55492" lon="4.05383">
        <ele>79.93</ele>
        <time>2017-08-06T04:18:08Z</time>
      </trkpt>
      <trkpt lat="49.55489" lon="4.05383">
        <ele>79.93</ele>
        <time>2017-08-06T04:18:18Z</time>
      </trkpt>
      <trkpt lat="49.55489" lon="4.05387">
        <ele>79.93</ele>
        <time>2017-08-06T04:18:47Z</time>
      </trkpt>
      <trkpt lat="49.55488" lon="4.05387">
        <ele>79.93</ele>
        <time>2017-08-06T04:19:18Z</time>
      </trkpt>
      <trkpt lat="49.55483" lon="4.05379">
        <ele>79.93</ele>
        <time>2017-08-06T04:19:36Z</time>
      </trkpt>
      <trkpt lat="49.55484" lon="4.05378">
        <ele>79.93</ele>
        <time>2017-08-06T04:19:44Z</time>
      </trkpt>
      <trkpt lat="49.55465" lon="4.05355">
        <ele>80.41</ele>
        <time>2017-08-06T04:19:57Z</time>
      </trkpt>
      <trkpt lat="49.55456" lon="4.05346">
        <ele>81.37</ele>
        <time>2017-08-06T04:20:03Z</time>
      </trkpt>
      <trkpt lat="49.55451" lon="4.05345">
        <ele>81.37</ele>
        <time>2017-08-06T04:20:06Z</time>
      </trkpt>
      <trkpt lat="49.55445" lon="4.05381">
        <ele>81.85</ele>
        <time>2017-08-06T04:20:18Z</time>
      </trkpt>
      <trkpt lat="49.5544" lon="4.05441">
        <ele>82.81</ele>
        <time>2017-08-06T04:20:35Z</time>
      </trkpt>
      <trkpt lat="49.55438" lon="4.055">
        <ele>83.77</ele>
        <time>2017-08-06T04:20:55Z</time>
      </trkpt>
      <trkpt lat="49.55439" lon="4.05499">
        <ele>83.77</ele>
        <time>2017-08-06T04:21:18Z</time>
      </trkpt>
      <trkpt lat="49.55439" lon="4.05498">
        <ele>83.77</ele>
        <time>2017-08-06T04:21:57Z</time>
      </trkpt>
      <trkpt lat="49.55438" lon="4.05505">
        <ele>83.77</ele>
        <time>2017-08-06T04:22:28Z</time>
      </trkpt>
      <trkpt lat="49.55435" lon="4.0557">
        <ele>84.25</ele>
        <time>2017-08-06T04:22:47Z</time>
      </trkpt>
      <trkpt lat="49.55431" lon="4.05637">
        <ele>86.18</ele>
        <time>2017-08-06T04:23:07Z</time>
      </trkpt>
      <trkpt lat="49.55428" lon="4.05703">
        <ele>88.1</ele>
        <time>2017-08-06T04:23:29Z</time>
      </trkpt>
      <trkpt lat="49.55427" lon="4.05714">
        <ele>88.58</ele>
        <time>2017-08-06T04:23:39Z</time>
      </trkpt>
      <trkpt lat="49.55427" lon="4.05716">
        <ele>88.58</ele>
        <time>2017-08-06T04:23:40Z</time>
      </trkpt>
      <trkpt lat="49.55424" lon="4.05764">
        <ele>90.5</ele>
        <time>2017-08-06T04:23:56Z</time>
      </trkpt>
      <trkpt lat="49.55409" lon="4.05814">
        <ele>91.46</ele>
        <time>2017-08-06T04:24:15Z</time>
      </trkpt>
      <trkpt lat="49.55393" lon="4.0586">
        <ele>93.39</ele>
        <time>2017-08-06T04:24:33Z</time>
      </trkpt>
      <trkpt lat="49.55376" lon="4.05905">
        <ele>94.83</ele>
        <time>2017-08-06T04:24:52Z</time>
      </trkpt>
      <trkpt lat="49.55365" lon="4.05935">
        <ele>95.31</ele>
        <time>2017-08-06T04:25:05Z</time>
      </trkpt>
      <trkpt lat="49.5536" lon="4.05949">
        <ele>96.75</ele>
        <time>2017-08-06T04:25:11Z</time>
      </trkpt>
      <trkpt lat="49.55342" lon="4.05999">
        <ele>97.23</ele>
        <time>2017-08-06T04:25:30Z</time>
      </trkpt>
      <trkpt lat="49.55322" lon="4.06051">
        <ele>98.19</ele>
        <time>2017-08-06T04:25:49Z</time>
      </trkpt>
      <trkpt lat="49.55303" lon="4.061">
        <ele>98.67</ele>
        <time>2017-08-06T04:26:05Z</time>
      </trkpt>
      <trkpt lat="49.55279" lon="4.0617">
        <ele>99.15</ele>
        <time>2017-08-06T04:26:22Z</time>
      </trkpt>
      <trkpt lat="49.55245" lon="4.06262">
        <ele>100.11</ele>
        <time>2017-08-06T04:26:43Z</time>
      </trkpt>
      <trkpt lat="49.55211" lon="4.06353">
        <ele>100.11</ele>
        <time>2017-08-06T04:27:00Z</time>
      </trkpt>
      <trkpt lat="49.55184" lon="4.06421">
        <ele>100.6</ele>
        <time>2017-08-06T04:27:16Z</time>
      </trkpt>
      <trkpt lat="49.55179" lon="4.06436">
        <ele>100.11</ele>
        <time>2017-08-06T04:27:22Z</time>
      </trkpt>
      <trkpt lat="49.55177" lon="4.06437">
        <ele>100.11</ele>
        <time>2017-08-06T04:27:23Z</time>
      </trkpt>
      <trkpt lat="49.55176" lon="4.06437">
        <ele>100.11</ele>
        <time>2017-08-06T04:27:24Z</time>
      </trkpt>
      <trkpt lat="49.55174" lon="4.06435">
        <ele>100.11</ele>
        <time>2017-08-06T04:27:25Z</time>
      </trkpt>
      <trkpt lat="49.55172" lon="4.06434">
        <ele>100.11</ele>
        <time>2017-08-06T04:27:26Z</time>
      </trkpt>
      <trkpt lat="49.55171" lon="4.06433">
        <ele>100.11</ele>
        <time>2017-08-06T04:27:27Z</time>
      </trkpt>
      <trkpt lat="49.55144" lon="4.06415">
        <ele>103</ele>
        <time>2017-08-06T04:27:42Z</time>
      </trkpt>
      <trkpt lat="49.55111" lon="4.06393">
        <ele>104.92</ele>
        <time>2017-08-06T04:28:00Z</time>
      </trkpt>
      <trkpt lat="49.55071" lon="4.06366">
        <ele>106.36</ele>
        <time>2017-08-06T04:28:18Z</time>
      </trkpt>
      <trkpt lat="49.55018" lon="4.06331">
        <ele>106.36</ele>
        <time>2017-08-06T04:28:35Z</time>
      </trkpt>
      <trkpt lat="49.54975" lon="4.06304">
        <ele>106.36</ele>
        <time>2017-08-06T04:28:48Z</time>
      </trkpt>
      <trkpt lat="49.54924" lon="4.0627">
        <ele>106.36</ele>
        <time>2017-08-06T04:29:02Z</time>
      </trkpt>
      <trkpt lat="49.5485" lon="4.06219">
        <ele>105.88</ele>
        <time>2017-08-06T04:29:22Z</time>
      </trkpt>
      <trkpt lat="49.54803" lon="4.06188">
        <ele>105.88</ele>
        <time>2017-08-06T04:29:36Z</time>
      </trkpt>
      <trkpt lat="49.54801" lon="4.06189">
        <ele>105.88</ele>
        <time>2017-08-06T04:29:37Z</time>
      </trkpt>
      <trkpt lat="49.54799" lon="4.06192">
        <ele>106.36</ele>
        <time>2017-08-06T04:29:38Z</time>
      </trkpt>
      <trkpt lat="49.54798" lon="4.06196">
        <ele>105.88</ele>
        <time>2017-08-06T04:29:39Z</time>
      </trkpt>
      <trkpt lat="49.54797" lon="4.06201">
        <ele>105.88</ele>
        <time>2017-08-06T04:29:40Z</time>
      </trkpt>
      <trkpt lat="49.54777" lon="4.0628">
        <ele>106.84</ele>
        <time>2017-08-06T04:29:58Z</time>
      </trkpt>
      <trkpt lat="49.54752" lon="4.06371">
        <ele>107.32</ele>
        <time>2017-08-06T04:30:17Z</time>
      </trkpt>
      <trkpt lat="49.54728" lon="4.06436">
        <ele>107.32</ele>
        <time>2017-08-06T04:30:30Z</time>
      </trkpt>
      <trkpt lat="49.54726" lon="4.06441">
        <ele>107.32</ele>
        <time>2017-08-06T04:30:31Z</time>
      </trkpt>
      <trkpt lat="49.54704" lon="4.06513">
        <ele>106.36</ele>
        <time>2017-08-06T04:30:43Z</time>
      </trkpt>
      <trkpt lat="49.54682" lon="4.06595">
        <ele>105.4</ele>
        <time>2017-08-06T04:30:54Z</time>
      </trkpt>
      <trkpt lat="49.54659" lon="4.06681">
        <ele>105.4</ele>
        <time>2017-08-06T04:31:06Z</time>
      </trkpt>
      <trkpt lat="49.54657" lon="4.06689">
        <ele>105.4</ele>
        <time>2017-08-06T04:31:07Z</time>
      </trkpt>
      <trkpt lat="49.54629" lon="4.06794">
        <ele>105.4</ele>
        <time>2017-08-06T04:31:22Z</time>
      </trkpt>
      <trkpt lat="49.5459" lon="4.0693">
        <ele>105.4</ele>
        <time>2017-08-06T04:31:42Z</time>
      </trkpt>
      <trkpt lat="49.54542" lon="4.07113">
        <ele>104.44</ele>
        <time>2017-08-06T04:32:05Z</time>
      </trkpt>
      <trkpt lat="49.54499" lon="4.07269">
        <ele>103</ele>
        <time>2017-08-06T04:32:24Z</time>
      </trkpt>
      <trkpt lat="49.54466" lon="4.07395">
        <ele>103</ele>
        <time>2017-08-06T04:32:42Z</time>
      </trkpt>
      <trkpt lat="49.54459" lon="4.07426">
        <ele>104.44</ele>
        <time>2017-08-06T04:32:48Z</time>
      </trkpt>
      <trkpt lat="49.54453" lon="4.07448">
        <ele>104.44</ele>
        <time>2017-08-06T04:33:00Z</time>
      </trkpt>
      <trkpt lat="49.54453" lon="4.0745">
        <ele>104.44</ele>
        <time>2017-08-06T04:33:01Z</time>
      </trkpt>
      <trkpt lat="49.54452" lon="4.07452">
        <ele>104.44</ele>
        <time>2017-08-06T04:33:02Z</time>
      </trkpt>
      <trkpt lat="49.54451" lon="4.07454">
        <ele>104.44</ele>
        <time>2017-08-06T04:33:03Z</time>
      </trkpt>
      <trkpt lat="49.54451" lon="4.07455">
        <ele>104.92</ele>
        <time>2017-08-06T04:33:04Z</time>
      </trkpt>
      <trkpt lat="49.5445" lon="4.07457">
        <ele>104.92</ele>
        <time>2017-08-06T04:33:05Z</time>
      </trkpt>
      <trkpt lat="49.54449" lon="4.07459">
        <ele>104.92</ele>
        <time>2017-08-06T04:33:06Z</time>
      </trkpt>
      <trkpt lat="49.54449" lon="4.07461">
        <ele>104.92</ele>
        <time>2017-08-06T04:33:07Z</time>
      </trkpt>
      <trkpt lat="49.54448" lon="4.07463">
        <ele>104.92</ele>
        <time>2017-08-06T04:33:08Z</time>
      </trkpt>
      <trkpt lat="49.54447" lon="4.07466">
        <ele>104.92</ele>
        <time>2017-08-06T04:33:09Z</time>
      </trkpt>
      <trkpt lat="49.54447" lon="4.07469">
        <ele>104.92</ele>
        <time>2017-08-06T04:33:10Z</time>
      </trkpt>
      <trkpt lat="49.54446" lon="4.07473">
        <ele>104.92</ele>
        <time>2017-08-06T04:33:11Z</time>
      </trkpt>
      <trkpt lat="49.54445" lon="4.07476">
        <ele>104.92</ele>
        <time>2017-08-06T04:33:12Z</time>
      </trkpt>
      <trkpt lat="49.54444" lon="4.0748">
        <ele>104.92</ele>
        <time>2017-08-06T04:33:13Z</time>
      </trkpt>
      <trkpt lat="49.54425" lon="4.07551">
        <ele>104.92</ele>
        <time>2017-08-06T04:33:28Z</time>
      </trkpt>
      <trkpt lat="49.54407" lon="4.07616">
        <ele>104.92</ele>
        <time>2017-08-06T04:33:40Z</time>
      </trkpt>
      <trkpt lat="49.54391" lon="4.07679">
        <ele>104.92</ele>
        <time>2017-08-06T04:33:50Z</time>
      </trkpt>
      <trkpt lat="49.54368" lon="4.07768">
        <ele>103.48</ele>
        <time>2017-08-06T04:34:03Z</time>
      </trkpt>
      <trkpt lat="49.54353" lon="4.07816">
        <ele>103</ele>
        <time>2017-08-06T04:34:10Z</time>
      </trkpt>
      <trkpt lat="49.54351" lon="4.07824">
        <ele>102.52</ele>
        <time>2017-08-06T04:34:11Z</time>
      </trkpt>
      <trkpt lat="49.54349" lon="4.0783">
        <ele>102.52</ele>
        <time>2017-08-06T04:34:12Z</time>
      </trkpt>
      <trkpt lat="49.54347" lon="4.07838">
        <ele>102.52</ele>
        <time>2017-08-06T04:34:13Z</time>
      </trkpt>
      <trkpt lat="49.54345" lon="4.07844">
        <ele>102.04</ele>
        <time>2017-08-06T04:34:14Z</time>
      </trkpt>
      <trkpt lat="49.54342" lon="4.07851">
        <ele>102.04</ele>
        <time>2017-08-06T04:34:15Z</time>
      </trkpt>
      <trkpt lat="49.54339" lon="4.07858">
        <ele>102.04</ele>
        <time>2017-08-06T04:34:16Z</time>
      </trkpt>
      <trkpt lat="49.54315" lon="4.07913">
        <ele>99.63</ele>
        <time>2017-08-06T04:34:23Z</time>
      </trkpt>
      <trkpt lat="49.54301" lon="4.07936">
        <ele>98.19</ele>
        <time>2017-08-06T04:34:26Z</time>
      </trkpt>
      <trkpt lat="49.54297" lon="4.07945">
        <ele>98.19</ele>
        <time>2017-08-06T04:34:27Z</time>
      </trkpt>
      <trkpt lat="49.54293" lon="4.07954">
        <ele>97.23</ele>
        <time>2017-08-06T04:34:28Z</time>
      </trkpt>
      <trkpt lat="49.54277" lon="4.07981">
        <ele>97.23</ele>
        <time>2017-08-06T04:34:32Z</time>
      </trkpt>
      <trkpt lat="49.54273" lon="4.07987">
        <ele>97.23</ele>
        <time>2017-08-06T04:34:33Z</time>
      </trkpt>
      <trkpt lat="49.54269" lon="4.07991">
        <ele>97.23</ele>
        <time>2017-08-06T04:34:34Z</time>
      </trkpt>
      <trkpt lat="49.54264" lon="4.07995">
        <ele>96.75</ele>
        <time>2017-08-06T04:34:35Z</time>
      </trkpt>
      <trkpt lat="49.54259" lon="4.07999">
        <ele>96.75</ele>
        <time>2017-08-06T04:34:36Z</time>
      </trkpt>
      <trkpt lat="49.54253" lon="4.08003">
        <ele>96.75</ele>
        <time>2017-08-06T04:34:37Z</time>
      </trkpt>
      <trkpt lat="49.54198" lon="4.08088">
        <ele>96.27</ele>
        <time>2017-08-06T04:34:51Z</time>
      </trkpt>
      <trkpt lat="49.54147" lon="4.08194">
        <ele>95.31</ele>
        <time>2017-08-06T04:35:09Z</time>
      </trkpt>
      <trkpt lat="49.54108" lon="4.08273">
        <ele>91.94</ele>
        <time>2017-08-06T04:35:19Z</time>
      </trkpt>
      <trkpt lat="49.54065" lon="4.08363">
        <ele>88.58</ele>
        <time>2017-08-06T04:35:29Z</time>
      </trkpt>
      <trkpt lat="49.54008" lon="4.08501">
        <ele>86.66</ele>
        <time>2017-08-06T04:35:44Z</time>
      </trkpt>
      <trkpt lat="49.53965" lon="4.08615">
        <ele>85.69</ele>
        <time>2017-08-06T04:36:00Z</time>
      </trkpt>
      <trkpt lat="49.53946" lon="4.08658">
        <ele>85.21</ele>
        <time>2017-08-06T04:36:10Z</time>
      </trkpt>
      <trkpt lat="49.53908" lon="4.08655">
        <ele>84.25</ele>
        <time>2017-08-06T04:36:23Z</time>
      </trkpt>
      <trkpt lat="49.53904" lon="4.0865">
        <ele>84.25</ele>
        <time>2017-08-06T04:36:27Z</time>
      </trkpt>
      <trkpt lat="49.53903" lon="4.08646">
        <ele>84.25</ele>
        <time>2017-08-06T04:36:28Z</time>
      </trkpt>
      <trkpt lat="49.53902" lon="4.0864">
        <ele>84.25</ele>
        <time>2017-08-06T04:36:30Z</time>
      </trkpt>
      <trkpt lat="49.53899" lon="4.0864">
        <ele>84.25</ele>
        <time>2017-08-06T04:36:31Z</time>
      </trkpt>
      <trkpt lat="49.53892" lon="4.08639">
        <ele>83.29</ele>
        <time>2017-08-06T04:36:34Z</time>
      </trkpt>
      <trkpt lat="49.5389" lon="4.08636">
        <ele>83.29</ele>
        <time>2017-08-06T04:36:35Z</time>
      </trkpt>
      <trkpt lat="49.5389" lon="4.08632">
        <ele>82.81</ele>
        <time>2017-08-06T04:36:36Z</time>
      </trkpt>
      <trkpt lat="49.53889" lon="4.08628">
        <ele>82.81</ele>
        <time>2017-08-06T04:36:37Z</time>
      </trkpt>
      <trkpt lat="49.53888" lon="4.08624">
        <ele>82.81</ele>
        <time>2017-08-06T04:36:38Z</time>
      </trkpt>
      <trkpt lat="49.53887" lon="4.08621">
        <ele>82.81</ele>
        <time>2017-08-06T04:36:39Z</time>
      </trkpt>
      <trkpt lat="49.53885" lon="4.08618">
        <ele>82.81</ele>
        <time>2017-08-06T04:36:40Z</time>
      </trkpt>
      <trkpt lat="49.53884" lon="4.08616">
        <ele>82.81</ele>
        <time>2017-08-06T04:36:50Z</time>
      </trkpt>
      <trkpt lat="49.53884" lon="4.08613">
        <ele>82.33</ele>
        <time>2017-08-06T04:36:52Z</time>
      </trkpt>
      <trkpt lat="49.53884" lon="4.08611">
        <ele>82.33</ele>
        <time>2017-08-06T04:36:53Z</time>
      </trkpt>
      <trkpt lat="49.53873" lon="4.08567">
        <ele>80.89</ele>
        <time>2017-08-06T04:37:02Z</time>
      </trkpt>
      <trkpt lat="49.53857" lon="4.08535">
        <ele>79.45</ele>
        <time>2017-08-06T04:37:07Z</time>
      </trkpt>
      <trkpt lat="49.53824" lon="4.0849">
        <ele>76.56</ele>
        <time>2017-08-06T04:37:14Z</time>
      </trkpt>
      <trkpt lat="49.53817" lon="4.08484">
        <ele>76.08</ele>
        <time>2017-08-06T04:37:15Z</time>
      </trkpt>
      <trkpt lat="49.53811" lon="4.0848">
        <ele>75.6</ele>
        <time>2017-08-06T04:37:16Z</time>
      </trkpt>
      <trkpt lat="49.53804" lon="4.08476">
        <ele>75.12</ele>
        <time>2017-08-06T04:37:17Z</time>
      </trkpt>
      <trkpt lat="49.53797" lon="4.08473">
        <ele>75.12</ele>
        <time>2017-08-06T04:37:18Z</time>
      </trkpt>
      <trkpt lat="49.53789" lon="4.08472">
        <ele>74.64</ele>
        <time>2017-08-06T04:37:19Z</time>
      </trkpt>
      <trkpt lat="49.53782" lon="4.08472">
        <ele>74.16</ele>
        <time>2017-08-06T04:37:20Z</time>
      </trkpt>
      <trkpt lat="49.53775" lon="4.08474">
        <ele>74.16</ele>
        <time>2017-08-06T04:37:21Z</time>
      </trkpt>
      <trkpt lat="49.53768" lon="4.08477">
        <ele>74.16</ele>
        <time>2017-08-06T04:37:22Z</time>
      </trkpt>
      <trkpt lat="49.53761" lon="4.0848">
        <ele>74.16</ele>
        <time>2017-08-06T04:37:23Z</time>
      </trkpt>
      <trkpt lat="49.53687" lon="4.08534">
        <ele>73.68</ele>
        <time>2017-08-06T04:37:36Z</time>
      </trkpt>
      <trkpt lat="49.53621" lon="4.08606">
        <ele>75.12</ele>
        <time>2017-08-06T04:37:53Z</time>
      </trkpt>
      <trkpt lat="49.53583" lon="4.08675">
        <ele>77.52</ele>
        <time>2017-08-06T04:38:11Z</time>
      </trkpt>
      <trkpt lat="49.53551" lon="4.0874">
        <ele>80.41</ele>
        <time>2017-08-06T04:38:34Z</time>
      </trkpt>
      <trkpt lat="49.53517" lon="4.08791">
        <ele>82.81</ele>
        <time>2017-08-06T04:38:57Z</time>
      </trkpt>
      <trkpt lat="49.5348" lon="4.08826">
        <ele>85.21</ele>
        <time>2017-08-06T04:39:19Z</time>
      </trkpt>
      <trkpt lat="49.53444" lon="4.08857">
        <ele>87.62</ele>
        <time>2017-08-06T04:39:41Z</time>
      </trkpt>
      <trkpt lat="49.53408" lon="4.08888">
        <ele>89.06</ele>
        <time>2017-08-06T04:40:02Z</time>
      </trkpt>
      <trkpt lat="49.53369" lon="4.08915">
        <ele>90.5</ele>
        <time>2017-08-06T04:40:20Z</time>
      </trkpt>
      <trkpt lat="49.53327" lon="4.08931">
        <ele>91.94</ele>
        <time>2017-08-06T04:40:38Z</time>
      </trkpt>
      <trkpt lat="49.53274" lon="4.08944">
        <ele>93.39</ele>
        <time>2017-08-06T04:40:58Z</time>
      </trkpt>
      <trkpt lat="49.53213" lon="4.08956">
        <ele>93.39</ele>
        <time>2017-08-06T04:41:15Z</time>
      </trkpt>
      <trkpt lat="49.5317" lon="4.0896">
        <ele>91.94</ele>
        <time>2017-08-06T04:41:25Z</time>
      </trkpt>
      <trkpt lat="49.5308" lon="4.08958">
        <ele>88.58</ele>
        <time>2017-08-06T04:41:40Z</time>
      </trkpt>
      <trkpt lat="49.52965" lon="4.08981">
        <ele>87.14</ele>
        <time>2017-08-06T04:41:56Z</time>
      </trkpt>
      <trkpt lat="49.52884" lon="4.09036">
        <ele>86.18</ele>
        <time>2017-08-06T04:42:10Z</time>
      </trkpt>
      <trkpt lat="49.52823" lon="4.09081">
        <ele>82.81</ele>
        <time>2017-08-06T04:42:19Z</time>
      </trkpt>
      <trkpt lat="49.52763" lon="4.09126">
        <ele>79.93</ele>
        <time>2017-08-06T04:42:27Z</time>
      </trkpt>
      <trkpt lat="49.52682" lon="4.09173">
        <ele>76.56</ele>
        <time>2017-08-06T04:42:37Z</time>
      </trkpt>
      <trkpt lat="49.52555" lon="4.09195">
        <ele>74.16</ele>
        <time>2017-08-06T04:42:53Z</time>
      </trkpt>
      <trkpt lat="49.52471" lon="4.09251">
        <ele>74.16</ele>
        <time>2017-08-06T04:43:07Z</time>
      </trkpt>
      <trkpt lat="49.52423" lon="4.09269">
        <ele>75.12</ele>
        <time>2017-08-06T04:43:17Z</time>
      </trkpt>
      <trkpt lat="49.52374" lon="4.09267">
        <ele>77.04</ele>
        <time>2017-08-06T04:43:32Z</time>
      </trkpt>
      <trkpt lat="49.52338" lon="4.09262">
        <ele>78.48</ele>
        <time>2017-08-06T04:43:48Z</time>
      </trkpt>
      <trkpt lat="49.52299" lon="4.09256">
        <ele>80.89</ele>
        <time>2017-08-06T04:44:07Z</time>
      </trkpt>
      <trkpt lat="49.52262" lon="4.09247">
        <ele>83.77</ele>
        <time>2017-08-06T04:44:26Z</time>
      </trkpt>
      <trkpt lat="49.5223" lon="4.09236">
        <ele>86.66</ele>
        <time>2017-08-06T04:44:45Z</time>
      </trkpt>
      <trkpt lat="49.52197" lon="4.09228">
        <ele>89.06</ele>
        <time>2017-08-06T04:45:04Z</time>
      </trkpt>
      <trkpt lat="49.52163" lon="4.09224">
        <ele>91.46</ele>
        <time>2017-08-06T04:45:28Z</time>
      </trkpt>
      <trkpt lat="49.52138" lon="4.09224">
        <ele>93.39</ele>
        <time>2017-08-06T04:45:44Z</time>
      </trkpt>
      <trkpt lat="49.52106" lon="4.09231">
        <ele>95.31</ele>
        <time>2017-08-06T04:46:04Z</time>
      </trkpt>
      <trkpt lat="49.52074" lon="4.09245">
        <ele>97.23</ele>
        <time>2017-08-06T04:46:23Z</time>
      </trkpt>
      <trkpt lat="49.52041" lon="4.09257">
        <ele>98.67</ele>
        <time>2017-08-06T04:46:40Z</time>
      </trkpt>
      <trkpt lat="49.5199" lon="4.09261">
        <ele>99.15</ele>
        <time>2017-08-06T04:47:00Z</time>
      </trkpt>
      <trkpt lat="49.51935" lon="4.0926">
        <ele>100.11</ele>
        <time>2017-08-06T04:47:18Z</time>
      </trkpt>
      <trkpt lat="49.51874" lon="4.09263">
        <ele>101.08</ele>
        <time>2017-08-06T04:47:37Z</time>
      </trkpt>
      <trkpt lat="49.51805" lon="4.09277">
        <ele>102.52</ele>
        <time>2017-08-06T04:47:59Z</time>
      </trkpt>
      <trkpt lat="49.51755" lon="4.0929">
        <ele>103.96</ele>
        <time>2017-08-06T04:48:17Z</time>
      </trkpt>
      <trkpt lat="49.51705" lon="4.09295">
        <ele>105.4</ele>
        <time>2017-08-06T04:48:35Z</time>
      </trkpt>
      <trkpt lat="49.51655" lon="4.09279">
        <ele>106.84</ele>
        <time>2017-08-06T04:48:54Z</time>
      </trkpt>
      <trkpt lat="49.51594" lon="4.0925">
        <ele>105.88</ele>
        <time>2017-08-06T04:49:10Z</time>
      </trkpt>
      <trkpt lat="49.51589" lon="4.09247">
        <ele>105.88</ele>
        <time>2017-08-06T04:49:11Z</time>
      </trkpt>
      <trkpt lat="49.51583" lon="4.09245">
        <ele>105.4</ele>
        <time>2017-08-06T04:49:12Z</time>
      </trkpt>
      <trkpt lat="49.51577" lon="4.09243">
        <ele>105.4</ele>
        <time>2017-08-06T04:49:13Z</time>
      </trkpt>
      <trkpt lat="49.51572" lon="4.09241">
        <ele>104.92</ele>
        <time>2017-08-06T04:49:14Z</time>
      </trkpt>
      <trkpt lat="49.51513" lon="4.09201">
        <ele>102.04</ele>
        <time>2017-08-06T04:49:23Z</time>
      </trkpt>
      <trkpt lat="49.51467" lon="4.09161">
        <ele>98.67</ele>
        <time>2017-08-06T04:49:29Z</time>
      </trkpt>
      <trkpt lat="49.5139" lon="4.0911">
        <ele>95.79</ele>
        <time>2017-08-06T04:49:38Z</time>
      </trkpt>
      <trkpt lat="49.5126" lon="4.09049">
        <ele>93.87</ele>
        <time>2017-08-06T04:49:54Z</time>
      </trkpt>
      <trkpt lat="49.51162" lon="4.09009">
        <ele>95.31</ele>
        <time>2017-08-06T04:50:10Z</time>
      </trkpt>
      <trkpt lat="49.51116" lon="4.08996">
        <ele>96.75</ele>
        <time>2017-08-06T04:50:24Z</time>
      </trkpt>
      <trkpt lat="49.51051" lon="4.08981">
        <ele>95.79</ele>
        <time>2017-08-06T04:50:39Z</time>
      </trkpt>
      <trkpt lat="49.50981" lon="4.0896">
        <ele>91.94</ele>
        <time>2017-08-06T04:50:51Z</time>
      </trkpt>
      <trkpt lat="49.50904" lon="4.08942">
        <ele>88.58</ele>
        <time>2017-08-06T04:51:02Z</time>
      </trkpt>
      <trkpt lat="49.50838" lon="4.08932">
        <ele>85.21</ele>
        <time>2017-08-06T04:51:10Z</time>
      </trkpt>
      <trkpt lat="49.50787" lon="4.08915">
        <ele>81.85</ele>
        <time>2017-08-06T04:51:16Z</time>
      </trkpt>
      <trkpt lat="49.50748" lon="4.089">
        <ele>81.37</ele>
        <time>2017-08-06T04:51:25Z</time>
      </trkpt>
      <trkpt lat="49.50737" lon="4.0886">
        <ele>80.89</ele>
        <time>2017-08-06T04:51:35Z</time>
      </trkpt>
      <trkpt lat="49.50736" lon="4.08842">
        <ele>81.37</ele>
        <time>2017-08-06T04:51:42Z</time>
      </trkpt>
      <trkpt lat="49.50736" lon="4.0884">
        <ele>81.37</ele>
        <time>2017-08-06T04:51:43Z</time>
      </trkpt>
      <trkpt lat="49.50735" lon="4.08838">
        <ele>81.37</ele>
        <time>2017-08-06T04:51:44Z</time>
      </trkpt>
      <trkpt lat="49.50734" lon="4.08836">
        <ele>81.37</ele>
        <time>2017-08-06T04:51:45Z</time>
      </trkpt>
      <trkpt lat="49.50732" lon="4.08837">
        <ele>81.37</ele>
        <time>2017-08-06T04:51:46Z</time>
      </trkpt>
      <trkpt lat="49.5073" lon="4.08839">
        <ele>81.37</ele>
        <time>2017-08-06T04:51:47Z</time>
      </trkpt>
      <trkpt lat="49.50724" lon="4.08842">
        <ele>81.37</ele>
        <time>2017-08-06T04:51:51Z</time>
      </trkpt>
      <trkpt lat="49.50713" lon="4.08842">
        <ele>81.37</ele>
        <time>2017-08-06T04:52:02Z</time>
      </trkpt>
      <trkpt lat="49.50711" lon="4.08845">
        <ele>81.37</ele>
        <time>2017-08-06T04:52:07Z</time>
      </trkpt>
      <trkpt lat="49.50703" lon="4.0888">
        <ele>80.89</ele>
        <time>2017-08-06T04:52:29Z</time>
      </trkpt>
      <trkpt lat="49.50701" lon="4.08886">
        <ele>80.89</ele>
        <time>2017-08-06T04:52:44Z</time>
      </trkpt>
      <trkpt lat="49.50691" lon="4.08871">
        <ele>80.41</ele>
        <time>2017-08-06T04:52:59Z</time>
      </trkpt>
      <trkpt lat="49.50689" lon="4.08865">
        <ele>80.41</ele>
        <time>2017-08-06T04:53:04Z</time>
      </trkpt>
      <trkpt lat="49.50688" lon="4.08859">
        <ele>80.41</ele>
        <time>2017-08-06T04:53:08Z</time>
      </trkpt>
      <trkpt lat="49.50688" lon="4.08846">
        <ele>80.41</ele>
        <time>2017-08-06T04:53:23Z</time>
      </trkpt>
      <trkpt lat="49.50689" lon="4.08823">
        <ele>80.41</ele>
        <time>2017-08-06T04:53:39Z</time>
      </trkpt>
      <trkpt lat="49.50699" lon="4.0882">
        <ele>81.85</ele>
        <time>2017-08-06T04:53:51Z</time>
      </trkpt>
      <trkpt lat="49.50702" lon="4.08821">
        <ele>81.85</ele>
        <time>2017-08-06T04:53:54Z</time>
      </trkpt>
      <trkpt lat="49.50705" lon="4.08825">
        <ele>81.85</ele>
        <time>2017-08-06T04:54:07Z</time>
      </trkpt>
      <trkpt lat="49.50706" lon="4.08831">
        <ele>81.85</ele>
        <time>2017-08-06T04:54:31Z</time>
      </trkpt>
      <trkpt lat="49.5071" lon="4.08844">
        <ele>81.85</ele>
        <time>2017-08-06T04:54:41Z</time>
      </trkpt>
      <trkpt lat="49.50718" lon="4.08846">
        <ele>82.33</ele>
        <time>2017-08-06T04:54:58Z</time>
      </trkpt>
      <trkpt lat="49.50732" lon="4.08837">
        <ele>82.33</ele>
        <time>2017-08-06T04:55:08Z</time>
      </trkpt>
      <trkpt lat="49.50732" lon="4.08834">
        <ele>82.33</ele>
        <time>2017-08-06T04:55:09Z</time>
      </trkpt>
      <trkpt lat="49.50732" lon="4.08831">
        <ele>82.33</ele>
        <time>2017-08-06T04:55:10Z</time>
      </trkpt>
      <trkpt lat="49.50732" lon="4.08827">
        <ele>82.33</ele>
        <time>2017-08-06T04:55:11Z</time>
      </trkpt>
      <trkpt lat="49.50732" lon="4.08824">
        <ele>82.33</ele>
        <time>2017-08-06T04:55:12Z</time>
      </trkpt>
      <trkpt lat="49.50732" lon="4.08821">
        <ele>82.33</ele>
        <time>2017-08-06T04:55:13Z</time>
      </trkpt>
      <trkpt lat="49.50731" lon="4.08817">
        <ele>82.33</ele>
        <time>2017-08-06T04:55:14Z</time>
      </trkpt>
      <trkpt lat="49.50731" lon="4.08813">
        <ele>82.33</ele>
        <time>2017-08-06T04:55:15Z</time>
      </trkpt>
      <trkpt lat="49.50722" lon="4.08751">
        <ele>82.33</ele>
        <time>2017-08-06T04:55:31Z</time>
      </trkpt>
      <trkpt lat="49.50721" lon="4.08681">
        <ele>82.81</ele>
        <time>2017-08-06T04:55:46Z</time>
      </trkpt>
      <trkpt lat="49.50726" lon="4.08613">
        <ele>83.29</ele>
        <time>2017-08-06T04:56:00Z</time>
      </trkpt>
      <trkpt lat="49.50734" lon="4.08521">
        <ele>83.77</ele>
        <time>2017-08-06T04:56:19Z</time>
      </trkpt>
      <trkpt lat="49.50744" lon="4.08439">
        <ele>84.25</ele>
        <time>2017-08-06T04:56:34Z</time>
      </trkpt>
      <trkpt lat="49.50754" lon="4.08358">
        <ele>85.21</ele>
        <time>2017-08-06T04:56:50Z</time>
      </trkpt>
      <trkpt lat="49.50759" lon="4.0827">
        <ele>86.18</ele>
        <time>2017-08-06T04:57:08Z</time>
      </trkpt>
      <trkpt lat="49.50756" lon="4.08257">
        <ele>86.18</ele>
        <time>2017-08-06T04:57:11Z</time>
      </trkpt>
      <trkpt lat="49.50752" lon="4.08255">
        <ele>86.18</ele>
        <time>2017-08-06T04:57:12Z</time>
      </trkpt>
      <trkpt lat="49.50748" lon="4.08255">
        <ele>86.18</ele>
        <time>2017-08-06T04:57:13Z</time>
      </trkpt>
      <trkpt lat="49.50745" lon="4.08254">
        <ele>86.18</ele>
        <time>2017-08-06T04:57:14Z</time>
      </trkpt>
      <trkpt lat="49.5074" lon="4.08254">
        <ele>84.73</ele>
        <time>2017-08-06T04:57:15Z</time>
      </trkpt>
      <trkpt lat="49.50672" lon="4.0826">
        <ele>81.37</ele>
        <time>2017-08-06T04:57:27Z</time>
      </trkpt>
      <trkpt lat="49.50573" lon="4.08273">
        <ele>78.97</ele>
        <time>2017-08-06T04:57:43Z</time>
      </trkpt>
      <trkpt lat="49.50562" lon="4.08276">
        <ele>78.97</ele>
        <time>2017-08-06T04:57:45Z</time>
      </trkpt>
      <trkpt lat="49.50557" lon="4.08277">
        <ele>78.97</ele>
        <time>2017-08-06T04:57:46Z</time>
      </trkpt>
      <trkpt lat="49.5049" lon="4.08294">
        <ele>78.97</ele>
        <time>2017-08-06T04:58:01Z</time>
      </trkpt>
      <trkpt lat="49.50438" lon="4.08292">
        <ele>79.45</ele>
        <time>2017-08-06T04:58:15Z</time>
      </trkpt>
      <trkpt lat="49.50382" lon="4.08271">
        <ele>80.89</ele>
        <time>2017-08-06T04:58:33Z</time>
      </trkpt>
      <trkpt lat="49.50344" lon="4.08227">
        <ele>81.85</ele>
        <time>2017-08-06T04:58:51Z</time>
      </trkpt>
      <trkpt lat="49.50324" lon="4.08179">
        <ele>84.25</ele>
        <time>2017-08-06T04:59:08Z</time>
      </trkpt>
      <trkpt lat="49.50302" lon="4.08125">
        <ele>85.21</ele>
        <time>2017-08-06T04:59:28Z</time>
      </trkpt>
      <trkpt lat="49.50283" lon="4.08072">
        <ele>86.18</ele>
        <time>2017-08-06T04:59:46Z</time>
      </trkpt>
      <trkpt lat="49.50259" lon="4.08011">
        <ele>87.14</ele>
        <time>2017-08-06T05:00:04Z</time>
      </trkpt>
      <trkpt lat="49.50236" lon="4.07966">
        <ele>88.58</ele>
        <time>2017-08-06T05:00:22Z</time>
      </trkpt>
      <trkpt lat="49.50214" lon="4.07965">
        <ele>90.02</ele>
        <time>2017-08-06T05:00:36Z</time>
      </trkpt>
      <trkpt lat="49.50184" lon="4.07973">
        <ele>91.94</ele>
        <time>2017-08-06T05:00:55Z</time>
      </trkpt>
      <trkpt lat="49.50156" lon="4.07978">
        <ele>93.87</ele>
        <time>2017-08-06T05:01:12Z</time>
      </trkpt>
      <trkpt lat="49.50128" lon="4.07985">
        <ele>96.27</ele>
        <time>2017-08-06T05:01:30Z</time>
      </trkpt>
      <trkpt lat="49.50098" lon="4.07991">
        <ele>98.19</ele>
        <time>2017-08-06T05:01:49Z</time>
      </trkpt>
      <trkpt lat="49.50064" lon="4.07999">
        <ele>100.11</ele>
        <time>2017-08-06T05:02:09Z</time>
      </trkpt>
      <trkpt lat="49.50027" lon="4.08007">
        <ele>101.08</ele>
        <time>2017-08-06T05:02:27Z</time>
      </trkpt>
      <trkpt lat="49.50001" lon="4.08011">
        <ele>101.56</ele>
        <time>2017-08-06T05:02:42Z</time>
      </trkpt>
      <trkpt lat="49.50003" lon="4.0801">
        <ele>101.56</ele>
        <time>2017-08-06T05:02:56Z</time>
      </trkpt>
      <trkpt lat="49.50004" lon="4.0801">
        <ele>101.56</ele>
        <time>2017-08-06T05:03:33Z</time>
      </trkpt>
      <trkpt lat="49.50004" lon="4.08011">
        <ele>101.56</ele>
        <time>2017-08-06T05:04:00Z</time>
      </trkpt>
      <trkpt lat="49.50005" lon="4.08011">
        <ele>101.56</ele>
        <time>2017-08-06T05:04:33Z</time>
      </trkpt>
      <trkpt lat="49.50004" lon="4.08011">
        <ele>101.56</ele>
        <time>2017-08-06T05:04:53Z</time>
      </trkpt>
      <trkpt lat="49.50004" lon="4.0801">
        <ele>101.56</ele>
        <time>2017-08-06T05:05:19Z</time>
      </trkpt>
      <trkpt lat="49.4999" lon="4.08014">
        <ele>101.56</ele>
        <time>2017-08-06T05:05:28Z</time>
      </trkpt>
      <trkpt lat="49.49988" lon="4.08014">
        <ele>101.56</ele>
        <time>2017-08-06T05:05:29Z</time>
      </trkpt>
      <trkpt lat="49.49947" lon="4.08024">
        <ele>101.56</ele>
        <time>2017-08-06T05:05:43Z</time>
      </trkpt>
      <trkpt lat="49.49903" lon="4.08034">
        <ele>100.11</ele>
        <time>2017-08-06T05:05:54Z</time>
      </trkpt>
      <trkpt lat="49.49817" lon="4.08052">
        <ele>96.75</ele>
        <time>2017-08-06T05:06:10Z</time>
      </trkpt>
      <trkpt lat="49.49775" lon="4.08062">
        <ele>93.39</ele>
        <time>2017-08-06T05:06:16Z</time>
      </trkpt>
      <trkpt lat="49.49742" lon="4.08068">
        <ele>90.02</ele>
        <time>2017-08-06T05:06:20Z</time>
      </trkpt>
      <trkpt lat="49.49698" lon="4.08077">
        <ele>86.66</ele>
        <time>2017-08-06T05:06:25Z</time>
      </trkpt>
      <trkpt lat="49.49662" lon="4.08086">
        <ele>83.29</ele>
        <time>2017-08-06T05:06:29Z</time>
      </trkpt>
      <trkpt lat="49.49653" lon="4.08088">
        <ele>83.29</ele>
        <time>2017-08-06T05:06:30Z</time>
      </trkpt>
      <trkpt lat="49.49587" lon="4.08102">
        <ele>83.29</ele>
        <time>2017-08-06T05:06:39Z</time>
      </trkpt>
      <trkpt lat="49.49571" lon="4.08106">
        <ele>86.18</ele>
        <time>2017-08-06T05:06:43Z</time>
      </trkpt>
      <trkpt lat="49.4955" lon="4.0811">
        <ele>89.06</ele>
        <time>2017-08-06T05:06:55Z</time>
      </trkpt>
      <trkpt lat="49.49519" lon="4.08118">
        <ele>91.94</ele>
        <time>2017-08-06T05:07:14Z</time>
      </trkpt>
      <trkpt lat="49.49484" lon="4.08126">
        <ele>93.39</ele>
        <time>2017-08-06T05:07:35Z</time>
      </trkpt>
      <trkpt lat="49.49442" lon="4.08135">
        <ele>93.87</ele>
        <time>2017-08-06T05:07:52Z</time>
      </trkpt>
      <trkpt lat="49.49393" lon="4.08145">
        <ele>94.35</ele>
        <time>2017-08-06T05:08:08Z</time>
      </trkpt>
      <trkpt lat="49.4933" lon="4.0816">
        <ele>92.42</ele>
        <time>2017-08-06T05:08:23Z</time>
      </trkpt>
      <trkpt lat="49.49315" lon="4.08163">
        <ele>91.94</ele>
        <time>2017-08-06T05:08:26Z</time>
      </trkpt>
      <trkpt lat="49.49311" lon="4.08163">
        <ele>91.46</ele>
        <time>2017-08-06T05:08:27Z</time>
      </trkpt>
      <trkpt lat="49.49264" lon="4.08174">
        <ele>88.1</ele>
        <time>2017-08-06T05:08:35Z</time>
      </trkpt>
      <trkpt lat="49.49227" lon="4.08182">
        <ele>84.73</ele>
        <time>2017-08-06T05:08:40Z</time>
      </trkpt>
      <trkpt lat="49.49185" lon="4.0819">
        <ele>81.37</ele>
        <time>2017-08-06T05:08:45Z</time>
      </trkpt>
      <trkpt lat="49.4916" lon="4.08195">
        <ele>80.41</ele>
        <time>2017-08-06T05:08:48Z</time>
      </trkpt>
      <trkpt lat="49.49113" lon="4.08207">
        <ele>81.85</ele>
        <time>2017-08-06T05:08:55Z</time>
      </trkpt>
      <trkpt lat="49.49109" lon="4.08209">
        <ele>82.33</ele>
        <time>2017-08-06T05:08:56Z</time>
      </trkpt>
      <trkpt lat="49.49072" lon="4.08234">
        <ele>84.25</ele>
        <time>2017-08-06T05:09:09Z</time>
      </trkpt>
      <trkpt lat="49.49046" lon="4.08253">
        <ele>85.69</ele>
        <time>2017-08-06T05:09:24Z</time>
      </trkpt>
      <trkpt lat="49.49017" lon="4.08272">
        <ele>88.1</ele>
        <time>2017-08-06T05:09:43Z</time>
      </trkpt>
      <trkpt lat="49.48994" lon="4.08288">
        <ele>90.02</ele>
        <time>2017-08-06T05:09:59Z</time>
      </trkpt>
      <trkpt lat="49.4899" lon="4.08291">
        <ele>90.5</ele>
        <time>2017-08-06T05:10:02Z</time>
      </trkpt>
      <trkpt lat="49.48969" lon="4.08308">
        <ele>92.9</ele>
        <time>2017-08-06T05:10:18Z</time>
      </trkpt>
      <trkpt lat="49.48943" lon="4.08326">
        <ele>94.83</ele>
        <time>2017-08-06T05:10:36Z</time>
      </trkpt>
      <trkpt lat="49.48919" lon="4.08344">
        <ele>97.23</ele>
        <time>2017-08-06T05:10:53Z</time>
      </trkpt>
      <trkpt lat="49.48902" lon="4.08357">
        <ele>99.15</ele>
        <time>2017-08-06T05:11:05Z</time>
      </trkpt>
      <trkpt lat="49.489" lon="4.08357">
        <ele>99.15</ele>
        <time>2017-08-06T05:11:06Z</time>
      </trkpt>
      <trkpt lat="49.48899" lon="4.08357">
        <ele>99.15</ele>
        <time>2017-08-06T05:11:07Z</time>
      </trkpt>
      <trkpt lat="49.48897" lon="4.08358">
        <ele>99.63</ele>
        <time>2017-08-06T05:11:08Z</time>
      </trkpt>
      <trkpt lat="49.48896" lon="4.08359">
        <ele>99.63</ele>
        <time>2017-08-06T05:11:09Z</time>
      </trkpt>
      <trkpt lat="49.48867" lon="4.08379">
        <ele>101.56</ele>
        <time>2017-08-06T05:11:27Z</time>
      </trkpt>
      <trkpt lat="49.48837" lon="4.08399">
        <ele>103.48</ele>
        <time>2017-08-06T05:11:44Z</time>
      </trkpt>
      <trkpt lat="49.48801" lon="4.08425">
        <ele>104.92</ele>
        <time>2017-08-06T05:12:03Z</time>
      </trkpt>
      <trkpt lat="49.48765" lon="4.08451">
        <ele>106.36</ele>
        <time>2017-08-06T05:12:19Z</time>
      </trkpt>
      <trkpt lat="49.48724" lon="4.08481">
        <ele>107.32</ele>
        <time>2017-08-06T05:12:36Z</time>
      </trkpt>
      <trkpt lat="49.48665" lon="4.08524">
        <ele>107.32</ele>
        <time>2017-08-06T05:12:54Z</time>
      </trkpt>
      <trkpt lat="49.4862" lon="4.08594">
        <ele>107.32</ele>
        <time>2017-08-06T05:13:10Z</time>
      </trkpt>
      <trkpt lat="49.4857" lon="4.08675">
        <ele>105.88</ele>
        <time>2017-08-06T05:13:28Z</time>
      </trkpt>
      <trkpt lat="49.48527" lon="4.08745">
        <ele>107.81</ele>
        <time>2017-08-06T05:13:47Z</time>
      </trkpt>
      <trkpt lat="49.48489" lon="4.08808">
        <ele>108.29</ele>
        <time>2017-08-06T05:14:03Z</time>
      </trkpt>
      <trkpt lat="49.48486" lon="4.08813">
        <ele>108.29</ele>
        <time>2017-08-06T05:14:04Z</time>
      </trkpt>
      <trkpt lat="49.48483" lon="4.08817">
        <ele>108.29</ele>
        <time>2017-08-06T05:14:05Z</time>
      </trkpt>
      <trkpt lat="49.48419" lon="4.08919">
        <ele>105.88</ele>
        <time>2017-08-06T05:14:24Z</time>
      </trkpt>
      <trkpt lat="49.48395" lon="4.08956">
        <ele>105.88</ele>
        <time>2017-08-06T05:14:32Z</time>
      </trkpt>
      <trkpt lat="49.48392" lon="4.08956">
        <ele>105.88</ele>
        <time>2017-08-06T05:14:33Z</time>
      </trkpt>
      <trkpt lat="49.48389" lon="4.08953">
        <ele>105.88</ele>
        <time>2017-08-06T05:14:34Z</time>
      </trkpt>
      <trkpt lat="49.48387" lon="4.0895">
        <ele>105.88</ele>
        <time>2017-08-06T05:14:35Z</time>
      </trkpt>
      <trkpt lat="49.48385" lon="4.08947">
        <ele>105.88</ele>
        <time>2017-08-06T05:14:36Z</time>
      </trkpt>
      <trkpt lat="49.48336" lon="4.08883">
        <ele>108.29</ele>
        <time>2017-08-06T05:14:57Z</time>
      </trkpt>
      <trkpt lat="49.48296" lon="4.08834">
        <ele>108.77</ele>
        <time>2017-08-06T05:15:14Z</time>
      </trkpt>
      <trkpt lat="49.48241" lon="4.08765">
        <ele>110.21</ele>
        <time>2017-08-06T05:15:35Z</time>
      </trkpt>
      <trkpt lat="49.48217" lon="4.08741">
        <ele>111.17</ele>
        <time>2017-08-06T05:15:45Z</time>
      </trkpt>
      <trkpt lat="49.48214" lon="4.08743">
        <ele>111.17</ele>
        <time>2017-08-06T05:15:46Z</time>
      </trkpt>
      <trkpt lat="49.48184" lon="4.08799">
        <ele>111.17</ele>
        <time>2017-08-06T05:15:59Z</time>
      </trkpt>
      <trkpt lat="49.48141" lon="4.08887">
        <ele>111.17</ele>
        <time>2017-08-06T05:16:18Z</time>
      </trkpt>
      <trkpt lat="49.48104" lon="4.08961">
        <ele>111.65</ele>
        <time>2017-08-06T05:16:34Z</time>
      </trkpt>
      <trkpt lat="49.48054" lon="4.09063">
        <ele>111.65</ele>
        <time>2017-08-06T05:16:52Z</time>
      </trkpt>
      <trkpt lat="49.4799" lon="4.09194">
        <ele>111.65</ele>
        <time>2017-08-06T05:17:13Z</time>
      </trkpt>
      <trkpt lat="49.47957" lon="4.0926">
        <ele>111.65</ele>
        <time>2017-08-06T05:17:26Z</time>
      </trkpt>
      <trkpt lat="49.47955" lon="4.09265">
        <ele>110.21</ele>
        <time>2017-08-06T05:17:27Z</time>
      </trkpt>
      <trkpt lat="49.47952" lon="4.09271">
        <ele>110.21</ele>
        <time>2017-08-06T05:17:28Z</time>
      </trkpt>
      <trkpt lat="49.47908" lon="4.09361">
        <ele>107.32</ele>
        <time>2017-08-06T05:17:44Z</time>
      </trkpt>
      <trkpt lat="49.47893" lon="4.09394">
        <ele>105.88</ele>
        <time>2017-08-06T05:17:48Z</time>
      </trkpt>
      <trkpt lat="49.47877" lon="4.09424">
        <ele>104.44</ele>
        <time>2017-08-06T05:17:53Z</time>
      </trkpt>
      <trkpt lat="49.47874" lon="4.09428">
        <ele>103.96</ele>
        <time>2017-08-06T05:17:54Z</time>
      </trkpt>
      <trkpt lat="49.47869" lon="4.09431">
        <ele>103.48</ele>
        <time>2017-08-06T05:17:55Z</time>
      </trkpt>
      <trkpt lat="49.47864" lon="4.09431">
        <ele>103.48</ele>
        <time>2017-08-06T05:17:56Z</time>
      </trkpt>
      <trkpt lat="49.47859" lon="4.0943">
        <ele>102.52</ele>
        <time>2017-08-06T05:17:57Z</time>
      </trkpt>
      <trkpt lat="49.47853" lon="4.09429">
        <ele>102.52</ele>
        <time>2017-08-06T05:17:58Z</time>
      </trkpt>
      <trkpt lat="49.47805" lon="4.09415">
        <ele>98.67</ele>
        <time>2017-08-06T05:18:05Z</time>
      </trkpt>
      <trkpt lat="49.47797" lon="4.09413">
        <ele>98.67</ele>
        <time>2017-08-06T05:18:06Z</time>
      </trkpt>
      <trkpt lat="49.47763" lon="4.09411">
        <ele>96.75</ele>
        <time>2017-08-06T05:18:10Z</time>
      </trkpt>
      <trkpt lat="49.47755" lon="4.09414">
        <ele>96.27</ele>
        <time>2017-08-06T05:18:11Z</time>
      </trkpt>
      <trkpt lat="49.47747" lon="4.0942">
        <ele>95.79</ele>
        <time>2017-08-06T05:18:12Z</time>
      </trkpt>
      <trkpt lat="49.4774" lon="4.09427">
        <ele>95.31</ele>
        <time>2017-08-06T05:18:13Z</time>
      </trkpt>
      <trkpt lat="49.47733" lon="4.09436">
        <ele>94.83</ele>
        <time>2017-08-06T05:18:14Z</time>
      </trkpt>
      <trkpt lat="49.47728" lon="4.09447">
        <ele>94.35</ele>
        <time>2017-08-06T05:18:15Z</time>
      </trkpt>
      <trkpt lat="49.47723" lon="4.09459">
        <ele>94.35</ele>
        <time>2017-08-06T05:18:16Z</time>
      </trkpt>
      <trkpt lat="49.47719" lon="4.09472">
        <ele>93.39</ele>
        <time>2017-08-06T05:18:17Z</time>
      </trkpt>
      <trkpt lat="49.47716" lon="4.09485">
        <ele>92.9</ele>
        <time>2017-08-06T05:18:18Z</time>
      </trkpt>
      <trkpt lat="49.47713" lon="4.09498">
        <ele>92.42</ele>
        <time>2017-08-06T05:18:19Z</time>
      </trkpt>
      <trkpt lat="49.47712" lon="4.09511">
        <ele>91.46</ele>
        <time>2017-08-06T05:18:20Z</time>
      </trkpt>
      <trkpt lat="49.47712" lon="4.09524">
        <ele>90.98</ele>
        <time>2017-08-06T05:18:21Z</time>
      </trkpt>
      <trkpt lat="49.47714" lon="4.09537">
        <ele>90.5</ele>
        <time>2017-08-06T05:18:22Z</time>
      </trkpt>
      <trkpt lat="49.47718" lon="4.09549">
        <ele>90.02</ele>
        <time>2017-08-06T05:18:23Z</time>
      </trkpt>
      <trkpt lat="49.47723" lon="4.09561">
        <ele>89.54</ele>
        <time>2017-08-06T05:18:24Z</time>
      </trkpt>
      <trkpt lat="49.4773" lon="4.0957">
        <ele>89.06</ele>
        <time>2017-08-06T05:18:25Z</time>
      </trkpt>
      <trkpt lat="49.47737" lon="4.09579">
        <ele>89.06</ele>
        <time>2017-08-06T05:18:26Z</time>
      </trkpt>
      <trkpt lat="49.47744" lon="4.09587">
        <ele>88.58</ele>
        <time>2017-08-06T05:18:27Z</time>
      </trkpt>
      <trkpt lat="49.47751" lon="4.09593">
        <ele>88.1</ele>
        <time>2017-08-06T05:18:28Z</time>
      </trkpt>
      <trkpt lat="49.47759" lon="4.09599">
        <ele>88.1</ele>
        <time>2017-08-06T05:18:29Z</time>
      </trkpt>
      <trkpt lat="49.4785" lon="4.09672">
        <ele>85.21</ele>
        <time>2017-08-06T05:18:42Z</time>
      </trkpt>
      <trkpt lat="49.47856" lon="4.0968">
        <ele>84.25</ele>
        <time>2017-08-06T05:18:43Z</time>
      </trkpt>
      <trkpt lat="49.47862" lon="4.09689">
        <ele>83.29</ele>
        <time>2017-08-06T05:18:44Z</time>
      </trkpt>
      <trkpt lat="49.47866" lon="4.097">
        <ele>82.81</ele>
        <time>2017-08-06T05:18:45Z</time>
      </trkpt>
      <trkpt lat="49.47869" lon="4.09712">
        <ele>82.33</ele>
        <time>2017-08-06T05:18:46Z</time>
      </trkpt>
      <trkpt lat="49.4787" lon="4.09726">
        <ele>81.37</ele>
        <time>2017-08-06T05:18:47Z</time>
      </trkpt>
      <trkpt lat="49.47868" lon="4.09739">
        <ele>80.41</ele>
        <time>2017-08-06T05:18:48Z</time>
      </trkpt>
      <trkpt lat="49.47864" lon="4.0975">
        <ele>79.93</ele>
        <time>2017-08-06T05:18:49Z</time>
      </trkpt>
      <trkpt lat="49.47858" lon="4.0976">
        <ele>79.45</ele>
        <time>2017-08-06T05:18:50Z</time>
      </trkpt>
      <trkpt lat="49.4785" lon="4.09766">
        <ele>78.48</ele>
        <time>2017-08-06T05:18:51Z</time>
      </trkpt>
      <trkpt lat="49.47841" lon="4.0977">
        <ele>77.52</ele>
        <time>2017-08-06T05:18:52Z</time>
      </trkpt>
      <trkpt lat="49.47832" lon="4.09772">
        <ele>77.04</ele>
        <time>2017-08-06T05:18:53Z</time>
      </trkpt>
      <trkpt lat="49.47821" lon="4.09771">
        <ele>76.56</ele>
        <time>2017-08-06T05:18:54Z</time>
      </trkpt>
      <trkpt lat="49.47813" lon="4.09769">
        <ele>76.56</ele>
        <time>2017-08-06T05:18:55Z</time>
      </trkpt>
      <trkpt lat="49.47804" lon="4.09766">
        <ele>75.6</ele>
        <time>2017-08-06T05:18:56Z</time>
      </trkpt>
      <trkpt lat="49.47794" lon="4.09762">
        <ele>75.12</ele>
        <time>2017-08-06T05:18:57Z</time>
      </trkpt>
      <trkpt lat="49.47733" lon="4.09738">
        <ele>71.76</ele>
        <time>2017-08-06T05:19:04Z</time>
      </trkpt>
      <trkpt lat="49.47676" lon="4.09723">
        <ele>69.35</ele>
        <time>2017-08-06T05:19:12Z</time>
      </trkpt>
      <trkpt lat="49.47672" lon="4.09724">
        <ele>69.35</ele>
        <time>2017-08-06T05:19:13Z</time>
      </trkpt>
      <trkpt lat="49.47668" lon="4.09727">
        <ele>69.83</ele>
        <time>2017-08-06T05:19:14Z</time>
      </trkpt>
      <trkpt lat="49.47665" lon="4.0973">
        <ele>69.35</ele>
        <time>2017-08-06T05:19:15Z</time>
      </trkpt>
      <trkpt lat="49.47661" lon="4.09733">
        <ele>69.35</ele>
        <time>2017-08-06T05:19:16Z</time>
      </trkpt>
      <trkpt lat="49.47633" lon="4.09766">
        <ele>66.95</ele>
        <time>2017-08-06T05:19:22Z</time>
      </trkpt>
      <trkpt lat="49.47603" lon="4.09818">
        <ele>64.07</ele>
        <time>2017-08-06T05:19:28Z</time>
      </trkpt>
      <trkpt lat="49.47594" lon="4.09838">
        <ele>63.58</ele>
        <time>2017-08-06T05:19:30Z</time>
      </trkpt>
      <trkpt lat="49.4759" lon="4.09848">
        <ele>62.62</ele>
        <time>2017-08-06T05:19:31Z</time>
      </trkpt>
      <trkpt lat="49.4757" lon="4.09964">
        <ele>62.14</ele>
        <time>2017-08-06T05:19:42Z</time>
      </trkpt>
      <trkpt lat="49.47566" lon="4.10078">
        <ele>62.62</ele>
        <time>2017-08-06T05:19:56Z</time>
      </trkpt>
      <trkpt lat="49.47564" lon="4.1019">
        <ele>62.62</ele>
        <time>2017-08-06T05:20:10Z</time>
      </trkpt>
      <trkpt lat="49.47545" lon="4.10305">
        <ele>62.62</ele>
        <time>2017-08-06T05:20:27Z</time>
      </trkpt>
      <trkpt lat="49.47541" lon="4.10321">
        <ele>63.58</ele>
        <time>2017-08-06T05:20:30Z</time>
      </trkpt>
      <trkpt lat="49.47524" lon="4.10432">
        <ele>63.58</ele>
        <time>2017-08-06T05:20:47Z</time>
      </trkpt>
      <trkpt lat="49.47533" lon="4.10583">
        <ele>62.62</ele>
        <time>2017-08-06T05:21:06Z</time>
      </trkpt>
      <trkpt lat="49.47541" lon="4.1073">
        <ele>62.14</ele>
        <time>2017-08-06T05:21:25Z</time>
      </trkpt>
      <trkpt lat="49.47538" lon="4.10759">
        <ele>62.14</ele>
        <time>2017-08-06T05:21:29Z</time>
      </trkpt>
      <trkpt lat="49.47504" lon="4.10859">
        <ele>62.14</ele>
        <time>2017-08-06T05:21:44Z</time>
      </trkpt>
      <trkpt lat="49.47463" lon="4.10962">
        <ele>62.14</ele>
        <time>2017-08-06T05:22:01Z</time>
      </trkpt>
      <trkpt lat="49.47458" lon="4.10973">
        <ele>62.14</ele>
        <time>2017-08-06T05:22:03Z</time>
      </trkpt>
      <trkpt lat="49.47454" lon="4.10977">
        <ele>62.14</ele>
        <time>2017-08-06T05:22:04Z</time>
      </trkpt>
      <trkpt lat="49.4745" lon="4.10979">
        <ele>62.14</ele>
        <time>2017-08-06T05:22:05Z</time>
      </trkpt>
      <trkpt lat="49.47447" lon="4.1098">
        <ele>62.14</ele>
        <time>2017-08-06T05:22:06Z</time>
      </trkpt>
      <trkpt lat="49.47442" lon="4.10982">
        <ele>62.14</ele>
        <time>2017-08-06T05:22:07Z</time>
      </trkpt>
      <trkpt lat="49.47393" lon="4.10991">
        <ele>63.58</ele>
        <time>2017-08-06T05:22:19Z</time>
      </trkpt>
      <trkpt lat="49.47389" lon="4.10993">
        <ele>63.58</ele>
        <time>2017-08-06T05:22:20Z</time>
      </trkpt>
      <trkpt lat="49.47385" lon="4.10996">
        <ele>63.58</ele>
        <time>2017-08-06T05:22:21Z</time>
      </trkpt>
      <trkpt lat="49.47373" lon="4.11009">
        <ele>63.58</ele>
        <time>2017-08-06T05:22:24Z</time>
      </trkpt>
      <trkpt lat="49.47311" lon="4.11102">
        <ele>63.58</ele>
        <time>2017-08-06T05:22:42Z</time>
      </trkpt>
      <trkpt lat="49.47299" lon="4.1112">
        <ele>63.58</ele>
        <time>2017-08-06T05:22:46Z</time>
      </trkpt>
      <trkpt lat="49.47295" lon="4.11123">
        <ele>63.58</ele>
        <time>2017-08-06T05:22:47Z</time>
      </trkpt>
      <trkpt lat="49.47292" lon="4.11126">
        <ele>63.58</ele>
        <time>2017-08-06T05:22:48Z</time>
      </trkpt>
      <trkpt lat="49.47288" lon="4.11128">
        <ele>63.58</ele>
        <time>2017-08-06T05:22:49Z</time>
      </trkpt>
      <trkpt lat="49.47284" lon="4.1113">
        <ele>63.58</ele>
        <time>2017-08-06T05:22:50Z</time>
      </trkpt>
      <trkpt lat="49.47281" lon="4.11131">
        <ele>63.58</ele>
        <time>2017-08-06T05:22:51Z</time>
      </trkpt>
      <trkpt lat="49.47247" lon="4.11116">
        <ele>64.07</ele>
        <time>2017-08-06T05:23:03Z</time>
      </trkpt>
      <trkpt lat="49.47206" lon="4.1108">
        <ele>64.07</ele>
        <time>2017-08-06T05:23:16Z</time>
      </trkpt>
      <trkpt lat="49.4719" lon="4.11068">
        <ele>63.1</ele>
        <time>2017-08-06T05:23:20Z</time>
      </trkpt>
      <trkpt lat="49.47185" lon="4.11066">
        <ele>63.1</ele>
        <time>2017-08-06T05:23:21Z</time>
      </trkpt>
      <trkpt lat="49.4718" lon="4.11064">
        <ele>63.1</ele>
        <time>2017-08-06T05:23:22Z</time>
      </trkpt>
      <trkpt lat="49.47155" lon="4.11064">
        <ele>62.62</ele>
        <time>2017-08-06T05:23:27Z</time>
      </trkpt>
      <trkpt lat="49.47101" lon="4.11093">
        <ele>64.07</ele>
        <time>2017-08-06T05:23:40Z</time>
      </trkpt>
      <trkpt lat="49.47098" lon="4.11095">
        <ele>64.07</ele>
        <time>2017-08-06T05:23:41Z</time>
      </trkpt>
      <trkpt lat="49.47081" lon="4.11107">
        <ele>65.03</ele>
        <time>2017-08-06T05:23:49Z</time>
      </trkpt>
      <trkpt lat="49.47081" lon="4.11109">
        <ele>65.03</ele>
        <time>2017-08-06T05:23:50Z</time>
      </trkpt>
      <trkpt lat="49.47081" lon="4.1111">
        <ele>65.03</ele>
        <time>2017-08-06T05:23:51Z</time>
      </trkpt>
      <trkpt lat="49.47084" lon="4.1111">
        <ele>65.51</ele>
        <time>2017-08-06T05:23:52Z</time>
      </trkpt>
      <trkpt lat="49.47086" lon="4.11109">
        <ele>65.51</ele>
        <time>2017-08-06T05:23:53Z</time>
      </trkpt>
      <trkpt lat="49.47089" lon="4.1111">
        <ele>65.51</ele>
        <time>2017-08-06T05:23:55Z</time>
      </trkpt>
      <trkpt lat="49.47092" lon="4.11112">
        <ele>65.51</ele>
        <time>2017-08-06T05:23:56Z</time>
      </trkpt>
      <trkpt lat="49.47094" lon="4.11115">
        <ele>64.07</ele>
        <time>2017-08-06T05:23:57Z</time>
      </trkpt>
      <trkpt lat="49.47096" lon="4.1112">
        <ele>64.07</ele>
        <time>2017-08-06T05:23:58Z</time>
      </trkpt>
      <trkpt lat="49.47098" lon="4.11126">
        <ele>63.1</ele>
        <time>2017-08-06T05:23:59Z</time>
      </trkpt>
      <trkpt lat="49.47099" lon="4.11131">
        <ele>63.1</ele>
        <time>2017-08-06T05:24:00Z</time>
      </trkpt>
      <trkpt lat="49.47099" lon="4.11136">
        <ele>63.1</ele>
        <time>2017-08-06T05:24:01Z</time>
      </trkpt>
      <trkpt lat="49.471" lon="4.11154">
        <ele>62.62</ele>
        <time>2017-08-06T05:24:06Z</time>
      </trkpt>
      <trkpt lat="49.47098" lon="4.11155">
        <ele>62.62</ele>
        <time>2017-08-06T05:24:07Z</time>
      </trkpt>
      <trkpt lat="49.47098" lon="4.11144">
        <ele>62.62</ele>
        <time>2017-08-06T05:24:12Z</time>
      </trkpt>
      <trkpt lat="49.47098" lon="4.11141">
        <ele>62.62</ele>
        <time>2017-08-06T05:24:13Z</time>
      </trkpt>
      <trkpt lat="49.47093" lon="4.11106">
        <ele>64.55</ele>
        <time>2017-08-06T05:24:25Z</time>
      </trkpt>
      <trkpt lat="49.47092" lon="4.11106">
        <ele>65.03</ele>
        <time>2017-08-06T05:24:26Z</time>
      </trkpt>
      <trkpt lat="49.4709" lon="4.11107">
        <ele>65.03</ele>
        <time>2017-08-06T05:24:27Z</time>
      </trkpt>
      <trkpt lat="49.47089" lon="4.11107">
        <ele>65.03</ele>
        <time>2017-08-06T05:24:28Z</time>
      </trkpt>
      <trkpt lat="49.47087" lon="4.11107">
        <ele>65.03</ele>
        <time>2017-08-06T05:24:29Z</time>
      </trkpt>
      <trkpt lat="49.47085" lon="4.11106">
        <ele>65.03</ele>
        <time>2017-08-06T05:24:30Z</time>
      </trkpt>
      <trkpt lat="49.47057" lon="4.1112">
        <ele>65.99</ele>
        <time>2017-08-06T05:24:43Z</time>
      </trkpt>
      <trkpt lat="49.47038" lon="4.11133">
        <ele>65.99</ele>
        <time>2017-08-06T05:24:51Z</time>
      </trkpt>
      <trkpt lat="49.47037" lon="4.11132">
        <ele>65.99</ele>
        <time>2017-08-06T05:24:52Z</time>
      </trkpt>
      <trkpt lat="49.47035" lon="4.11129">
        <ele>65.99</ele>
        <time>2017-08-06T05:24:53Z</time>
      </trkpt>
      <trkpt lat="49.47033" lon="4.11125">
        <ele>64.55</ele>
        <time>2017-08-06T05:24:54Z</time>
      </trkpt>
      <trkpt lat="49.47033" lon="4.11119">
        <ele>64.07</ele>
        <time>2017-08-06T05:24:55Z</time>
      </trkpt>
      <trkpt lat="49.47033" lon="4.11113">
        <ele>64.07</ele>
        <time>2017-08-06T05:24:56Z</time>
      </trkpt>
      <trkpt lat="49.47033" lon="4.11107">
        <ele>63.58</ele>
        <time>2017-08-06T05:24:57Z</time>
      </trkpt>
      <trkpt lat="49.47032" lon="4.111">
        <ele>63.58</ele>
        <time>2017-08-06T05:24:58Z</time>
      </trkpt>
      <trkpt lat="49.47032" lon="4.11092">
        <ele>63.1</ele>
        <time>2017-08-06T05:24:59Z</time>
      </trkpt>
      <trkpt lat="49.4703" lon="4.11085">
        <ele>63.1</ele>
        <time>2017-08-06T05:25:00Z</time>
      </trkpt>
      <trkpt lat="49.47028" lon="4.11079">
        <ele>63.1</ele>
        <time>2017-08-06T05:25:01Z</time>
      </trkpt>
      <trkpt lat="49.47026" lon="4.11072">
        <ele>62.62</ele>
        <time>2017-08-06T05:25:02Z</time>
      </trkpt>
      <trkpt lat="49.47024" lon="4.11065">
        <ele>62.62</ele>
        <time>2017-08-06T05:25:03Z</time>
      </trkpt>
      <trkpt lat="49.47015" lon="4.11031">
        <ele>62.62</ele>
        <time>2017-08-06T05:25:08Z</time>
      </trkpt>
      <trkpt lat="49.4701" lon="4.11018">
        <ele>62.62</ele>
        <time>2017-08-06T05:25:10Z</time>
      </trkpt>
      <trkpt lat="49.47008" lon="4.11011">
        <ele>62.62</ele>
        <time>2017-08-06T05:25:11Z</time>
      </trkpt>
      <trkpt lat="49.47006" lon="4.11006">
        <ele>62.62</ele>
        <time>2017-08-06T05:25:12Z</time>
      </trkpt>
      <trkpt lat="49.46997" lon="4.10983">
        <ele>62.62</ele>
        <time>2017-08-06T05:25:16Z</time>
      </trkpt>
      <trkpt lat="49.46994" lon="4.10978">
        <ele>62.62</ele>
        <time>2017-08-06T05:25:17Z</time>
      </trkpt>
      <trkpt lat="49.46989" lon="4.10968">
        <ele>62.62</ele>
        <time>2017-08-06T05:25:19Z</time>
      </trkpt>
      <trkpt lat="49.46977" lon="4.10944">
        <ele>62.62</ele>
        <time>2017-08-06T05:25:24Z</time>
      </trkpt>
      <trkpt lat="49.46962" lon="4.10913">
        <ele>62.62</ele>
        <time>2017-08-06T05:25:30Z</time>
      </trkpt>
      <trkpt lat="49.46959" lon="4.10908">
        <ele>62.62</ele>
        <time>2017-08-06T05:25:31Z</time>
      </trkpt>
      <trkpt lat="49.46945" lon="4.10881">
        <ele>62.14</ele>
        <time>2017-08-06T05:25:36Z</time>
      </trkpt>
      <trkpt lat="49.46941" lon="4.10876">
        <ele>62.14</ele>
        <time>2017-08-06T05:25:37Z</time>
      </trkpt>
      <trkpt lat="49.46916" lon="4.1083">
        <ele>62.14</ele>
        <time>2017-08-06T05:25:46Z</time>
      </trkpt>
      <trkpt lat="49.46907" lon="4.10816">
        <ele>62.14</ele>
        <time>2017-08-06T05:25:49Z</time>
      </trkpt>
      <trkpt lat="49.46865" lon="4.10742">
        <ele>62.14</ele>
        <time>2017-08-06T05:26:05Z</time>
      </trkpt>
      <trkpt lat="49.46834" lon="4.10704">
        <ele>62.14</ele>
        <time>2017-08-06T05:26:16Z</time>
      </trkpt>
      <trkpt lat="49.46794" lon="4.1064">
        <ele>61.66</ele>
        <time>2017-08-06T05:26:30Z</time>
      </trkpt>
      <trkpt lat="49.46772" lon="4.10607">
        <ele>61.66</ele>
        <time>2017-08-06T05:26:38Z</time>
      </trkpt>
      <trkpt lat="49.46764" lon="4.10589">
        <ele>61.66</ele>
        <time>2017-08-06T05:26:41Z</time>
      </trkpt>
      <trkpt lat="49.46722" lon="4.10522">
        <ele>61.66</ele>
        <time>2017-08-06T05:26:55Z</time>
      </trkpt>
      <trkpt lat="49.46688" lon="4.10471">
        <ele>61.66</ele>
        <time>2017-08-06T05:27:08Z</time>
      </trkpt>
      <trkpt lat="49.46659" lon="4.10427">
        <ele>61.66</ele>
        <time>2017-08-06T05:27:19Z</time>
      </trkpt>
      <trkpt lat="49.46642" lon="4.104">
        <ele>63.1</ele>
        <time>2017-08-06T05:27:29Z</time>
      </trkpt>
      <trkpt lat="49.46616" lon="4.10361">
        <ele>63.1</ele>
        <time>2017-08-06T05:27:41Z</time>
      </trkpt>
      <trkpt lat="49.46592" lon="4.10323">
        <ele>63.1</ele>
        <time>2017-08-06T05:27:54Z</time>
      </trkpt>
      <trkpt lat="49.46592" lon="4.1032">
        <ele>63.1</ele>
        <time>2017-08-06T05:27:55Z</time>
      </trkpt>
      <trkpt lat="49.46592" lon="4.10316">
        <ele>63.1</ele>
        <time>2017-08-06T05:27:56Z</time>
      </trkpt>
      <trkpt lat="49.4659" lon="4.10312">
        <ele>63.1</ele>
        <time>2017-08-06T05:27:57Z</time>
      </trkpt>
      <trkpt lat="49.46589" lon="4.10309">
        <ele>63.1</ele>
        <time>2017-08-06T05:27:58Z</time>
      </trkpt>
      <trkpt lat="49.46587" lon="4.10305">
        <ele>63.1</ele>
        <time>2017-08-06T05:27:59Z</time>
      </trkpt>
      <trkpt lat="49.46563" lon="4.10268">
        <ele>63.1</ele>
        <time>2017-08-06T05:28:10Z</time>
      </trkpt>
      <trkpt lat="49.46548" lon="4.10247">
        <ele>63.1</ele>
        <time>2017-08-06T05:28:17Z</time>
      </trkpt>
      <trkpt lat="49.46517" lon="4.10201">
        <ele>63.1</ele>
        <time>2017-08-06T05:28:31Z</time>
      </trkpt>
      <trkpt lat="49.46483" lon="4.1015">
        <ele>63.1</ele>
        <time>2017-08-06T05:28:45Z</time>
      </trkpt>
      <trkpt lat="49.46431" lon="4.10075">
        <ele>63.1</ele>
        <time>2017-08-06T05:29:05Z</time>
      </trkpt>
      <trkpt lat="49.46382" lon="4.10022">
        <ele>63.1</ele>
        <time>2017-08-06T05:29:22Z</time>
      </trkpt>
      <trkpt lat="49.46346" lon="4.0999">
        <ele>63.1</ele>
        <time>2017-08-06T05:29:35Z</time>
      </trkpt>
      <trkpt lat="49.46295" lon="4.09964">
        <ele>63.1</ele>
        <time>2017-08-06T05:29:52Z</time>
      </trkpt>
      <trkpt lat="49.46242" lon="4.09943">
        <ele>63.1</ele>
        <time>2017-08-06T05:30:07Z</time>
      </trkpt>
      <trkpt lat="49.46192" lon="4.09928">
        <ele>63.1</ele>
        <time>2017-08-06T05:30:22Z</time>
      </trkpt>
      <trkpt lat="49.46152" lon="4.09917">
        <ele>63.1</ele>
        <time>2017-08-06T05:30:34Z</time>
      </trkpt>
      <trkpt lat="49.46105" lon="4.09904">
        <ele>63.1</ele>
        <time>2017-08-06T05:30:47Z</time>
      </trkpt>
      <trkpt lat="49.46056" lon="4.09891">
        <ele>62.14</ele>
        <time>2017-08-06T05:31:01Z</time>
      </trkpt>
      <trkpt lat="49.46013" lon="4.09879">
        <ele>62.14</ele>
        <time>2017-08-06T05:31:14Z</time>
      </trkpt>
      <trkpt lat="49.45969" lon="4.09866">
        <ele>62.14</ele>
        <time>2017-08-06T05:31:27Z</time>
      </trkpt>
      <trkpt lat="49.45915" lon="4.09851">
        <ele>62.14</ele>
        <time>2017-08-06T05:31:43Z</time>
      </trkpt>
      <trkpt lat="49.45854" lon="4.0983">
        <ele>62.14</ele>
        <time>2017-08-06T05:32:00Z</time>
      </trkpt>
      <trkpt lat="49.45806" lon="4.09813">
        <ele>61.66</ele>
        <time>2017-08-06T05:32:16Z</time>
      </trkpt>
      <trkpt lat="49.45778" lon="4.09806">
        <ele>61.66</ele>
        <time>2017-08-06T05:32:28Z</time>
      </trkpt>
      <trkpt lat="49.45764" lon="4.09805">
        <ele>62.14</ele>
        <time>2017-08-06T05:32:38Z</time>
      </trkpt>
      <trkpt lat="49.45763" lon="4.098">
        <ele>62.14</ele>
        <time>2017-08-06T05:33:06Z</time>
      </trkpt>
      <trkpt lat="49.45762" lon="4.09803">
        <ele>62.14</ele>
        <time>2017-08-06T05:33:38Z</time>
      </trkpt>
      <trkpt lat="49.45761" lon="4.09804">
        <ele>62.14</ele>
        <time>2017-08-06T05:34:14Z</time>
      </trkpt>
      <trkpt lat="49.45759" lon="4.09802">
        <ele>62.14</ele>
        <time>2017-08-06T05:34:23Z</time>
      </trkpt>
      <trkpt lat="49.45756" lon="4.09799">
        <ele>62.14</ele>
        <time>2017-08-06T05:34:25Z</time>
      </trkpt>
      <trkpt lat="49.45711" lon="4.09789">
        <ele>62.14</ele>
        <time>2017-08-06T05:34:39Z</time>
      </trkpt>
      <trkpt lat="49.4565" lon="4.09769">
        <ele>62.14</ele>
        <time>2017-08-06T05:34:54Z</time>
      </trkpt>
      <trkpt lat="49.4559" lon="4.09751">
        <ele>62.14</ele>
        <time>2017-08-06T05:35:07Z</time>
      </trkpt>
      <trkpt lat="49.45505" lon="4.09726">
        <ele>62.14</ele>
        <time>2017-08-06T05:35:24Z</time>
      </trkpt>
      <trkpt lat="49.45426" lon="4.09704">
        <ele>62.14</ele>
        <time>2017-08-06T05:35:40Z</time>
      </trkpt>
      <trkpt lat="49.45342" lon="4.09678">
        <ele>62.14</ele>
        <time>2017-08-06T05:35:57Z</time>
      </trkpt>
      <trkpt lat="49.45261" lon="4.09654">
        <ele>62.14</ele>
        <time>2017-08-06T05:36:13Z</time>
      </trkpt>
      <trkpt lat="49.45182" lon="4.09631">
        <ele>62.14</ele>
        <time>2017-08-06T05:36:30Z</time>
      </trkpt>
      <trkpt lat="49.45093" lon="4.09607">
        <ele>62.14</ele>
        <time>2017-08-06T05:36:48Z</time>
      </trkpt>
      <trkpt lat="49.45068" lon="4.096">
        <ele>62.14</ele>
        <time>2017-08-06T05:36:53Z</time>
      </trkpt>
      <trkpt lat="49.45063" lon="4.09599">
        <ele>62.14</ele>
        <time>2017-08-06T05:36:54Z</time>
      </trkpt>
      <trkpt lat="49.4502" lon="4.09587">
        <ele>62.14</ele>
        <time>2017-08-06T05:37:03Z</time>
      </trkpt>
      <trkpt lat="49.44928" lon="4.09559">
        <ele>62.14</ele>
        <time>2017-08-06T05:37:22Z</time>
      </trkpt>
      <trkpt lat="49.44882" lon="4.09546">
        <ele>62.14</ele>
        <time>2017-08-06T05:37:32Z</time>
      </trkpt>
      <trkpt lat="49.44817" lon="4.09537">
        <ele>61.66</ele>
        <time>2017-08-06T05:37:47Z</time>
      </trkpt>
      <trkpt lat="49.44811" lon="4.09538">
        <ele>61.66</ele>
        <time>2017-08-06T05:37:48Z</time>
      </trkpt>
      <trkpt lat="49.44752" lon="4.09532">
        <ele>60.7</ele>
        <time>2017-08-06T05:38:01Z</time>
      </trkpt>
      <trkpt lat="49.44736" lon="4.09524">
        <ele>61.18</ele>
        <time>2017-08-06T05:38:09Z</time>
      </trkpt>
      <trkpt lat="49.44733" lon="4.09522">
        <ele>61.18</ele>
        <time>2017-08-06T05:38:22Z</time>
      </trkpt>
      <trkpt lat="49.44719" lon="4.09513">
        <ele>61.18</ele>
        <time>2017-08-06T05:38:33Z</time>
      </trkpt>
      <trkpt lat="49.44683" lon="4.09476">
        <ele>61.18</ele>
        <time>2017-08-06T05:38:49Z</time>
      </trkpt>
      <trkpt lat="49.44643" lon="4.09436">
        <ele>61.18</ele>
        <time>2017-08-06T05:39:04Z</time>
      </trkpt>
      <trkpt lat="49.44583" lon="4.09419">
        <ele>60.7</ele>
        <time>2017-08-06T05:39:20Z</time>
      </trkpt>
      <trkpt lat="49.44523" lon="4.09441">
        <ele>60.7</ele>
        <time>2017-08-06T05:39:35Z</time>
      </trkpt>
      <trkpt lat="49.44478" lon="4.09457">
        <ele>60.7</ele>
        <time>2017-08-06T05:39:48Z</time>
      </trkpt>
      <trkpt lat="49.44441" lon="4.09447">
        <ele>60.7</ele>
        <time>2017-08-06T05:40:00Z</time>
      </trkpt>
      <trkpt lat="49.44409" lon="4.09406">
        <ele>60.7</ele>
        <time>2017-08-06T05:40:11Z</time>
      </trkpt>
      <trkpt lat="49.44379" lon="4.09351">
        <ele>60.7</ele>
        <time>2017-08-06T05:40:23Z</time>
      </trkpt>
      <trkpt lat="49.44375" lon="4.09338">
        <ele>60.7</ele>
        <time>2017-08-06T05:40:25Z</time>
      </trkpt>
      <trkpt lat="49.44349" lon="4.09284">
        <ele>60.22</ele>
        <time>2017-08-06T05:40:34Z</time>
      </trkpt>
      <trkpt lat="49.44304" lon="4.09196">
        <ele>60.22</ele>
        <time>2017-08-06T05:40:48Z</time>
      </trkpt>
      <trkpt lat="49.44279" lon="4.09138">
        <ele>60.22</ele>
        <time>2017-08-06T05:40:59Z</time>
      </trkpt>
      <trkpt lat="49.44263" lon="4.09085">
        <ele>60.22</ele>
        <time>2017-08-06T05:41:09Z</time>
      </trkpt>
      <trkpt lat="49.44245" lon="4.09002">
        <ele>60.22</ele>
        <time>2017-08-06T05:41:22Z</time>
      </trkpt>
      <trkpt lat="49.44227" lon="4.08905">
        <ele>60.22</ele>
        <time>2017-08-06T05:41:37Z</time>
      </trkpt>
      <trkpt lat="49.44212" lon="4.08821">
        <ele>60.22</ele>
        <time>2017-08-06T05:41:50Z</time>
      </trkpt>
      <trkpt lat="49.44197" lon="4.08717">
        <ele>60.7</ele>
        <time>2017-08-06T05:42:06Z</time>
      </trkpt>
      <trkpt lat="49.44182" lon="4.08631">
        <ele>60.7</ele>
        <time>2017-08-06T05:42:20Z</time>
      </trkpt>
      <trkpt lat="49.44166" lon="4.0854">
        <ele>60.7</ele>
        <time>2017-08-06T05:42:35Z</time>
      </trkpt>
      <trkpt lat="49.44157" lon="4.08466">
        <ele>60.7</ele>
        <time>2017-08-06T05:42:48Z</time>
      </trkpt>
      <trkpt lat="49.44156" lon="4.08377">
        <ele>60.7</ele>
        <time>2017-08-06T05:43:03Z</time>
      </trkpt>
      <trkpt lat="49.44158" lon="4.08357">
        <ele>60.7</ele>
        <time>2017-08-06T05:43:06Z</time>
      </trkpt>
      <trkpt lat="49.44162" lon="4.08319">
        <ele>60.7</ele>
        <time>2017-08-06T05:43:12Z</time>
      </trkpt>
      <trkpt lat="49.44163" lon="4.08313">
        <ele>60.7</ele>
        <time>2017-08-06T05:43:13Z</time>
      </trkpt>
      <trkpt lat="49.44164" lon="4.08306">
        <ele>60.22</ele>
        <time>2017-08-06T05:43:14Z</time>
      </trkpt>
      <trkpt lat="49.44165" lon="4.08299">
        <ele>60.22</ele>
        <time>2017-08-06T05:43:15Z</time>
      </trkpt>
      <trkpt lat="49.44167" lon="4.08293">
        <ele>60.22</ele>
        <time>2017-08-06T05:43:16Z</time>
      </trkpt>
      <trkpt lat="49.44169" lon="4.08287">
        <ele>60.22</ele>
        <time>2017-08-06T05:43:17Z</time>
      </trkpt>
      <trkpt lat="49.44171" lon="4.08274">
        <ele>60.22</ele>
        <time>2017-08-06T05:43:19Z</time>
      </trkpt>
      <trkpt lat="49.44172" lon="4.08267">
        <ele>60.22</ele>
        <time>2017-08-06T05:43:20Z</time>
      </trkpt>
      <trkpt lat="49.44184" lon="4.08194">
        <ele>60.22</ele>
        <time>2017-08-06T05:43:32Z</time>
      </trkpt>
      <trkpt lat="49.44195" lon="4.08119">
        <ele>60.7</ele>
        <time>2017-08-06T05:43:44Z</time>
      </trkpt>
      <trkpt lat="49.44201" lon="4.08078">
        <ele>60.7</ele>
        <time>2017-08-06T05:43:50Z</time>
      </trkpt>
      <trkpt lat="49.44205" lon="4.08044">
        <ele>60.7</ele>
        <time>2017-08-06T05:43:55Z</time>
      </trkpt>
      <trkpt lat="49.44206" lon="4.07999">
        <ele>60.7</ele>
        <time>2017-08-06T05:44:01Z</time>
      </trkpt>
      <trkpt lat="49.44206" lon="4.0797">
        <ele>60.7</ele>
        <time>2017-08-06T05:44:05Z</time>
      </trkpt>
      <trkpt lat="49.44206" lon="4.07964">
        <ele>60.7</ele>
        <time>2017-08-06T05:44:06Z</time>
      </trkpt>
      <trkpt lat="49.44205" lon="4.07957">
        <ele>60.7</ele>
        <time>2017-08-06T05:44:07Z</time>
      </trkpt>
      <trkpt lat="49.44195" lon="4.07884">
        <ele>60.7</ele>
        <time>2017-08-06T05:44:19Z</time>
      </trkpt>
      <trkpt lat="49.44181" lon="4.07828">
        <ele>60.7</ele>
        <time>2017-08-06T05:44:30Z</time>
      </trkpt>
      <trkpt lat="49.44166" lon="4.07766">
        <ele>60.7</ele>
        <time>2017-08-06T05:44:41Z</time>
      </trkpt>
      <trkpt lat="49.4416" lon="4.07687">
        <ele>60.7</ele>
        <time>2017-08-06T05:44:54Z</time>
      </trkpt>
      <trkpt lat="49.44165" lon="4.07626">
        <ele>60.7</ele>
        <time>2017-08-06T05:45:04Z</time>
      </trkpt>
      <trkpt lat="49.44168" lon="4.0754">
        <ele>60.7</ele>
        <time>2017-08-06T05:45:17Z</time>
      </trkpt>
      <trkpt lat="49.44174" lon="4.07482">
        <ele>60.7</ele>
        <time>2017-08-06T05:45:27Z</time>
      </trkpt>
      <trkpt lat="49.44185" lon="4.07415">
        <ele>60.7</ele>
        <time>2017-08-06T05:45:39Z</time>
      </trkpt>
      <trkpt lat="49.44192" lon="4.0734">
        <ele>60.7</ele>
        <time>2017-08-06T05:45:51Z</time>
      </trkpt>
      <trkpt lat="49.44198" lon="4.07276">
        <ele>60.7</ele>
        <time>2017-08-06T05:46:02Z</time>
      </trkpt>
      <trkpt lat="49.44205" lon="4.07236">
        <ele>60.7</ele>
        <time>2017-08-06T05:46:08Z</time>
      </trkpt>
      <trkpt lat="49.44214" lon="4.07177">
        <ele>61.18</ele>
        <time>2017-08-06T05:46:18Z</time>
      </trkpt>
      <trkpt lat="49.44223" lon="4.07089">
        <ele>61.18</ele>
        <time>2017-08-06T05:46:32Z</time>
      </trkpt>
      <trkpt lat="49.44224" lon="4.0707">
        <ele>61.18</ele>
        <time>2017-08-06T05:46:35Z</time>
      </trkpt>
      <trkpt lat="49.44226" lon="4.07064">
        <ele>61.18</ele>
        <time>2017-08-06T05:46:36Z</time>
      </trkpt>
      <trkpt lat="49.44227" lon="4.07057">
        <ele>61.18</ele>
        <time>2017-08-06T05:46:37Z</time>
      </trkpt>
      <trkpt lat="49.44237" lon="4.0698">
        <ele>61.18</ele>
        <time>2017-08-06T05:46:50Z</time>
      </trkpt>
      <trkpt lat="49.44244" lon="4.06921">
        <ele>61.18</ele>
        <time>2017-08-06T05:47:00Z</time>
      </trkpt>
      <trkpt lat="49.44251" lon="4.06858">
        <ele>61.18</ele>
        <time>2017-08-06T05:47:11Z</time>
      </trkpt>
      <trkpt lat="49.44256" lon="4.06781">
        <ele>61.18</ele>
        <time>2017-08-06T05:47:23Z</time>
      </trkpt>
      <trkpt lat="49.44254" lon="4.06706">
        <ele>61.18</ele>
        <time>2017-08-06T05:47:34Z</time>
      </trkpt>
      <trkpt lat="49.44252" lon="4.06651">
        <ele>61.18</ele>
        <time>2017-08-06T05:47:42Z</time>
      </trkpt>
      <trkpt lat="49.44252" lon="4.06628">
        <ele>61.18</ele>
        <time>2017-08-06T05:47:45Z</time>
      </trkpt>
      <trkpt lat="49.44257" lon="4.06533">
        <ele>60.22</ele>
        <time>2017-08-06T05:47:58Z</time>
      </trkpt>
      <trkpt lat="49.44258" lon="4.06502">
        <ele>60.22</ele>
        <time>2017-08-06T05:48:02Z</time>
      </trkpt>
      <trkpt lat="49.44261" lon="4.06397">
        <ele>60.22</ele>
        <time>2017-08-06T05:48:17Z</time>
      </trkpt>
      <trkpt lat="49.44261" lon="4.0639">
        <ele>60.22</ele>
        <time>2017-08-06T05:48:18Z</time>
      </trkpt>
      <trkpt lat="49.44261" lon="4.06383">
        <ele>60.22</ele>
        <time>2017-08-06T05:48:19Z</time>
      </trkpt>
      <trkpt lat="49.44261" lon="4.06376">
        <ele>60.22</ele>
        <time>2017-08-06T05:48:20Z</time>
      </trkpt>
      <trkpt lat="49.44263" lon="4.06261">
        <ele>60.22</ele>
        <time>2017-08-06T05:48:37Z</time>
      </trkpt>
      <trkpt lat="49.44265" lon="4.06175">
        <ele>60.22</ele>
        <time>2017-08-06T05:48:50Z</time>
      </trkpt>
      <trkpt lat="49.44261" lon="4.06129">
        <ele>62.14</ele>
        <time>2017-08-06T05:49:00Z</time>
      </trkpt>
      <trkpt lat="49.44259" lon="4.0609">
        <ele>64.55</ele>
        <time>2017-08-06T05:49:15Z</time>
      </trkpt>
      <trkpt lat="49.44263" lon="4.06062">
        <ele>61.18</ele>
        <time>2017-08-06T05:49:18Z</time>
      </trkpt>
      <trkpt lat="49.44264" lon="4.06052">
        <ele>61.18</ele>
        <time>2017-08-06T05:49:19Z</time>
      </trkpt>
      <trkpt lat="49.44266" lon="4.06034">
        <ele>60.7</ele>
        <time>2017-08-06T05:49:21Z</time>
      </trkpt>
      <trkpt lat="49.44266" lon="4.06002">
        <ele>60.7</ele>
        <time>2017-08-06T05:49:25Z</time>
      </trkpt>
      <trkpt lat="49.44268" lon="4.05952">
        <ele>60.7</ele>
        <time>2017-08-06T05:49:34Z</time>
      </trkpt>
      <trkpt lat="49.44272" lon="4.05863">
        <ele>60.7</ele>
        <time>2017-08-06T05:49:50Z</time>
      </trkpt>
      <trkpt lat="49.44273" lon="4.05805">
        <ele>60.7</ele>
        <time>2017-08-06T05:50:01Z</time>
      </trkpt>
      <trkpt lat="49.44276" lon="4.05724">
        <ele>60.7</ele>
        <time>2017-08-06T05:50:15Z</time>
      </trkpt>
      <trkpt lat="49.44279" lon="4.05617">
        <ele>60.7</ele>
        <time>2017-08-06T05:50:32Z</time>
      </trkpt>
      <trkpt lat="49.44283" lon="4.05517">
        <ele>60.7</ele>
        <time>2017-08-06T05:50:49Z</time>
      </trkpt>
      <trkpt lat="49.44285" lon="4.05443">
        <ele>60.7</ele>
        <time>2017-08-06T05:51:02Z</time>
      </trkpt>
      <trkpt lat="49.44288" lon="4.05345">
        <ele>60.7</ele>
        <time>2017-08-06T05:51:18Z</time>
      </trkpt>
      <trkpt lat="49.44293" lon="4.05277">
        <ele>60.7</ele>
        <time>2017-08-06T05:51:30Z</time>
      </trkpt>
      <trkpt lat="49.44296" lon="4.05206">
        <ele>60.7</ele>
        <time>2017-08-06T05:51:42Z</time>
      </trkpt>
      <trkpt lat="49.443" lon="4.05111">
        <ele>60.7</ele>
        <time>2017-08-06T05:51:57Z</time>
      </trkpt>
      <trkpt lat="49.44297" lon="4.05015">
        <ele>60.7</ele>
        <time>2017-08-06T05:52:12Z</time>
      </trkpt>
      <trkpt lat="49.44288" lon="4.04938">
        <ele>60.7</ele>
        <time>2017-08-06T05:52:25Z</time>
      </trkpt>
      <trkpt lat="49.44274" lon="4.04858">
        <ele>60.7</ele>
        <time>2017-08-06T05:52:40Z</time>
      </trkpt>
      <trkpt lat="49.44257" lon="4.04792">
        <ele>60.7</ele>
        <time>2017-08-06T05:52:52Z</time>
      </trkpt>
      <trkpt lat="49.44245" lon="4.0474">
        <ele>60.7</ele>
        <time>2017-08-06T05:53:02Z</time>
      </trkpt>
      <trkpt lat="49.44224" lon="4.04682">
        <ele>60.22</ele>
        <time>2017-08-06T05:53:14Z</time>
      </trkpt>
      <trkpt lat="49.44192" lon="4.04625">
        <ele>60.22</ele>
        <time>2017-08-06T05:53:29Z</time>
      </trkpt>
      <trkpt lat="49.44164" lon="4.04591">
        <ele>59.74</ele>
        <time>2017-08-06T05:53:41Z</time>
      </trkpt>
      <trkpt lat="49.44132" lon="4.0456">
        <ele>59.74</ele>
        <time>2017-08-06T05:53:53Z</time>
      </trkpt>
      <trkpt lat="49.44121" lon="4.04549">
        <ele>59.74</ele>
        <time>2017-08-06T05:53:58Z</time>
      </trkpt>
      <trkpt lat="49.44118" lon="4.04548">
        <ele>59.74</ele>
        <time>2017-08-06T05:53:59Z</time>
      </trkpt>
      <trkpt lat="49.44116" lon="4.04546">
        <ele>59.74</ele>
        <time>2017-08-06T05:54:00Z</time>
      </trkpt>
      <trkpt lat="49.44077" lon="4.04527">
        <ele>59.74</ele>
        <time>2017-08-06T05:54:13Z</time>
      </trkpt>
      <trkpt lat="49.44039" lon="4.04508">
        <ele>59.74</ele>
        <time>2017-08-06T05:54:24Z</time>
      </trkpt>
      <trkpt lat="49.43979" lon="4.0448">
        <ele>59.74</ele>
        <time>2017-08-06T05:54:40Z</time>
      </trkpt>
      <trkpt lat="49.43949" lon="4.04467">
        <ele>59.74</ele>
        <time>2017-08-06T05:54:52Z</time>
      </trkpt>
      <trkpt lat="49.43917" lon="4.04449">
        <ele>59.74</ele>
        <time>2017-08-06T05:55:04Z</time>
      </trkpt>
      <trkpt lat="49.43874" lon="4.0443">
        <ele>59.74</ele>
        <time>2017-08-06T05:55:19Z</time>
      </trkpt>
      <trkpt lat="49.43832" lon="4.0441">
        <ele>59.26</ele>
        <time>2017-08-06T05:55:32Z</time>
      </trkpt>
      <trkpt lat="49.43829" lon="4.04408">
        <ele>59.26</ele>
        <time>2017-08-06T05:55:33Z</time>
      </trkpt>
      <trkpt lat="49.43826" lon="4.04406">
        <ele>59.26</ele>
        <time>2017-08-06T05:55:34Z</time>
      </trkpt>
      <trkpt lat="49.43824" lon="4.04405">
        <ele>59.26</ele>
        <time>2017-08-06T05:55:35Z</time>
      </trkpt>
      <trkpt lat="49.43821" lon="4.04404">
        <ele>59.26</ele>
        <time>2017-08-06T05:55:36Z</time>
      </trkpt>
      <trkpt lat="49.43819" lon="4.04403">
        <ele>59.26</ele>
        <time>2017-08-06T05:55:37Z</time>
      </trkpt>
      <trkpt lat="49.43817" lon="4.04402">
        <ele>59.26</ele>
        <time>2017-08-06T05:55:38Z</time>
      </trkpt>
      <trkpt lat="49.43814" lon="4.04401">
        <ele>59.26</ele>
        <time>2017-08-06T05:55:39Z</time>
      </trkpt>
      <trkpt lat="49.43778" lon="4.04385">
        <ele>59.26</ele>
        <time>2017-08-06T05:55:50Z</time>
      </trkpt>
      <trkpt lat="49.4374" lon="4.04366">
        <ele>59.26</ele>
        <time>2017-08-06T05:56:02Z</time>
      </trkpt>
      <trkpt lat="49.43696" lon="4.04345">
        <ele>59.26</ele>
        <time>2017-08-06T05:56:15Z</time>
      </trkpt>
      <trkpt lat="49.43646" lon="4.04319">
        <ele>58.78</ele>
        <time>2017-08-06T05:56:28Z</time>
      </trkpt>
      <trkpt lat="49.43581" lon="4.0429">
        <ele>58.78</ele>
        <time>2017-08-06T05:56:45Z</time>
      </trkpt>
      <trkpt lat="49.43531" lon="4.04266">
        <ele>58.78</ele>
        <time>2017-08-06T05:56:58Z</time>
      </trkpt>
      <trkpt lat="49.43483" lon="4.04245">
        <ele>58.78</ele>
        <time>2017-08-06T05:57:11Z</time>
      </trkpt>
      <trkpt lat="49.43458" lon="4.04234">
        <ele>58.78</ele>
        <time>2017-08-06T05:57:18Z</time>
      </trkpt>
      <trkpt lat="49.43456" lon="4.04232">
        <ele>58.78</ele>
        <time>2017-08-06T05:57:19Z</time>
      </trkpt>
      <trkpt lat="49.43453" lon="4.0423">
        <ele>58.78</ele>
        <time>2017-08-06T05:57:20Z</time>
      </trkpt>
      <trkpt lat="49.43451" lon="4.04229">
        <ele>58.78</ele>
        <time>2017-08-06T05:57:21Z</time>
      </trkpt>
      <trkpt lat="49.43448" lon="4.04228">
        <ele>58.78</ele>
        <time>2017-08-06T05:57:22Z</time>
      </trkpt>
      <trkpt lat="49.43445" lon="4.04226">
        <ele>58.78</ele>
        <time>2017-08-06T05:57:23Z</time>
      </trkpt>
      <trkpt lat="49.43442" lon="4.04225">
        <ele>58.78</ele>
        <time>2017-08-06T05:57:24Z</time>
      </trkpt>
      <trkpt lat="49.43404" lon="4.04207">
        <ele>58.78</ele>
        <time>2017-08-06T05:57:36Z</time>
      </trkpt>
      <trkpt lat="49.4337" lon="4.04194">
        <ele>58.78</ele>
        <time>2017-08-06T05:57:46Z</time>
      </trkpt>
      <trkpt lat="49.43322" lon="4.04175">
        <ele>58.3</ele>
        <time>2017-08-06T05:57:59Z</time>
      </trkpt>
      <trkpt lat="49.43274" lon="4.04149">
        <ele>58.3</ele>
        <time>2017-08-06T05:58:11Z</time>
      </trkpt>
      <trkpt lat="49.43212" lon="4.04116">
        <ele>58.3</ele>
        <time>2017-08-06T05:58:26Z</time>
      </trkpt>
      <trkpt lat="49.43159" lon="4.04097">
        <ele>57.82</ele>
        <time>2017-08-06T05:58:40Z</time>
      </trkpt>
      <trkpt lat="49.43132" lon="4.04076">
        <ele>57.82</ele>
        <time>2017-08-06T05:58:51Z</time>
      </trkpt>
      <trkpt lat="49.43129" lon="4.04073">
        <ele>57.82</ele>
        <time>2017-08-06T05:59:15Z</time>
      </trkpt>
      <trkpt lat="49.43129" lon="4.04073">
        <ele>57.82</ele>
        <time>2017-08-06T05:59:38Z</time>
      </trkpt>
      <trkpt lat="49.4313" lon="4.0407">
        <ele>57.82</ele>
        <time>2017-08-06T06:00:07Z</time>
      </trkpt>
      <trkpt lat="49.43131" lon="4.04074">
        <ele>57.82</ele>
        <time>2017-08-06T06:00:35Z</time>
      </trkpt>
      <trkpt lat="49.43129" lon="4.04074">
        <ele>57.82</ele>
        <time>2017-08-06T06:00:42Z</time>
      </trkpt>
      <trkpt lat="49.43127" lon="4.04074">
        <ele>57.82</ele>
        <time>2017-08-06T06:00:43Z</time>
      </trkpt>
      <trkpt lat="49.43098" lon="4.04063">
        <ele>57.82</ele>
        <time>2017-08-06T06:00:55Z</time>
      </trkpt>
      <trkpt lat="49.43043" lon="4.04039">
        <ele>59.26</ele>
        <time>2017-08-06T06:01:13Z</time>
      </trkpt>
      <trkpt lat="49.43041" lon="4.04039">
        <ele>58.78</ele>
        <time>2017-08-06T06:01:14Z</time>
      </trkpt>
      <trkpt lat="49.43007" lon="4.04033">
        <ele>61.66</ele>
        <time>2017-08-06T06:01:31Z</time>
      </trkpt>
      <trkpt lat="49.43002" lon="4.04024">
        <ele>62.14</ele>
        <time>2017-08-06T06:01:41Z</time>
      </trkpt>
      <trkpt lat="49.43" lon="4.04023">
        <ele>62.14</ele>
        <time>2017-08-06T06:01:42Z</time>
      </trkpt>
      <trkpt lat="49.42998" lon="4.04023">
        <ele>62.14</ele>
        <time>2017-08-06T06:01:43Z</time>
      </trkpt>
      <trkpt lat="49.42996" lon="4.04022">
        <ele>62.14</ele>
        <time>2017-08-06T06:01:44Z</time>
      </trkpt>
      <trkpt lat="49.42994" lon="4.0402">
        <ele>62.14</ele>
        <time>2017-08-06T06:01:45Z</time>
      </trkpt>
      <trkpt lat="49.4299" lon="4.04016">
        <ele>62.14</ele>
        <time>2017-08-06T06:01:46Z</time>
      </trkpt>
      <trkpt lat="49.42976" lon="4.04005">
        <ele>58.3</ele>
        <time>2017-08-06T06:01:49Z</time>
      </trkpt>
      <trkpt lat="49.42964" lon="4.03997">
        <ele>57.82</ele>
        <time>2017-08-06T06:01:51Z</time>
      </trkpt>
      <trkpt lat="49.42898" lon="4.03962">
        <ele>57.34</ele>
        <time>2017-08-06T06:02:05Z</time>
      </trkpt>
      <trkpt lat="49.42826" lon="4.0392">
        <ele>57.34</ele>
        <time>2017-08-06T06:02:24Z</time>
      </trkpt>
      <trkpt lat="49.42773" lon="4.03884">
        <ele>57.34</ele>
        <time>2017-08-06T06:02:39Z</time>
      </trkpt>
      <trkpt lat="49.42718" lon="4.03846">
        <ele>57.34</ele>
        <time>2017-08-06T06:02:55Z</time>
      </trkpt>
      <trkpt lat="49.42669" lon="4.03811">
        <ele>57.34</ele>
        <time>2017-08-06T06:03:10Z</time>
      </trkpt>
      <trkpt lat="49.42603" lon="4.03765">
        <ele>56.86</ele>
        <time>2017-08-06T06:03:29Z</time>
      </trkpt>
      <trkpt lat="49.42534" lon="4.03717">
        <ele>56.86</ele>
        <time>2017-08-06T06:03:48Z</time>
      </trkpt>
      <trkpt lat="49.42471" lon="4.03673">
        <ele>56.86</ele>
        <time>2017-08-06T06:04:07Z</time>
      </trkpt>
      <trkpt lat="49.42414" lon="4.03633">
        <ele>56.86</ele>
        <time>2017-08-06T06:04:24Z</time>
      </trkpt>
      <trkpt lat="49.42368" lon="4.03602">
        <ele>56.86</ele>
        <time>2017-08-06T06:04:37Z</time>
      </trkpt>
      <trkpt lat="49.42302" lon="4.03558">
        <ele>56.86</ele>
        <time>2017-08-06T06:04:55Z</time>
      </trkpt>
      <trkpt lat="49.42239" lon="4.03517">
        <ele>56.86</ele>
        <time>2017-08-06T06:05:13Z</time>
      </trkpt>
      <trkpt lat="49.42185" lon="4.03476">
        <ele>56.86</ele>
        <time>2017-08-06T06:05:29Z</time>
      </trkpt>
      <trkpt lat="49.42118" lon="4.03428">
        <ele>56.86</ele>
        <time>2017-08-06T06:05:46Z</time>
      </trkpt>
      <trkpt lat="49.42039" lon="4.03371">
        <ele>56.37</ele>
        <time>2017-08-06T06:06:06Z</time>
      </trkpt>
      <trkpt lat="49.41988" lon="4.03337">
        <ele>56.37</ele>
        <time>2017-08-06T06:06:20Z</time>
      </trkpt>
      <trkpt lat="49.41939" lon="4.03302">
        <ele>56.37</ele>
        <time>2017-08-06T06:06:34Z</time>
      </trkpt>
      <trkpt lat="49.41898" lon="4.03272">
        <ele>58.3</ele>
        <time>2017-08-06T06:06:49Z</time>
      </trkpt>
      <trkpt lat="49.41868" lon="4.03253">
        <ele>58.78</ele>
        <time>2017-08-06T06:07:01Z</time>
      </trkpt>
      <trkpt lat="49.41859" lon="4.03247">
        <ele>57.34</ele>
        <time>2017-08-06T06:07:03Z</time>
      </trkpt>
      <trkpt lat="49.41799" lon="4.03206">
        <ele>54.93</ele>
        <time>2017-08-06T06:07:15Z</time>
      </trkpt>
      <trkpt lat="49.41725" lon="4.0315">
        <ele>54.45</ele>
        <time>2017-08-06T06:07:32Z</time>
      </trkpt>
      <trkpt lat="49.41676" lon="4.03089">
        <ele>54.45</ele>
        <time>2017-08-06T06:07:48Z</time>
      </trkpt>
      <trkpt lat="49.41636" lon="4.03016">
        <ele>54.45</ele>
        <time>2017-08-06T06:08:04Z</time>
      </trkpt>
      <trkpt lat="49.41592" lon="4.02935">
        <ele>54.45</ele>
        <time>2017-08-06T06:08:21Z</time>
      </trkpt>
      <trkpt lat="49.41558" lon="4.02873">
        <ele>54.45</ele>
        <time>2017-08-06T06:08:35Z</time>
      </trkpt>
      <trkpt lat="49.4155" lon="4.02866">
        <ele>54.45</ele>
        <time>2017-08-06T06:08:38Z</time>
      </trkpt>
      <trkpt lat="49.41546" lon="4.02866">
        <ele>54.45</ele>
        <time>2017-08-06T06:08:39Z</time>
      </trkpt>
      <trkpt lat="49.41544" lon="4.02869">
        <ele>54.45</ele>
        <time>2017-08-06T06:08:40Z</time>
      </trkpt>
      <trkpt lat="49.41542" lon="4.02871">
        <ele>54.45</ele>
        <time>2017-08-06T06:08:41Z</time>
      </trkpt>
      <trkpt lat="49.4154" lon="4.02874">
        <ele>54.45</ele>
        <time>2017-08-06T06:08:42Z</time>
      </trkpt>
      <trkpt lat="49.41527" lon="4.0289">
        <ele>55.41</ele>
        <time>2017-08-06T06:08:49Z</time>
      </trkpt>
      <trkpt lat="49.41493" lon="4.02904">
        <ele>55.41</ele>
        <time>2017-08-06T06:09:01Z</time>
      </trkpt>
      <trkpt lat="49.41471" lon="4.02879">
        <ele>55.41</ele>
        <time>2017-08-06T06:09:10Z</time>
      </trkpt>
      <trkpt lat="49.41435" lon="4.02822">
        <ele>55.89</ele>
        <time>2017-08-06T06:09:25Z</time>
      </trkpt>
      <trkpt lat="49.41403" lon="4.0277">
        <ele>55.89</ele>
        <time>2017-08-06T06:09:39Z</time>
      </trkpt>
      <trkpt lat="49.41378" lon="4.02714">
        <ele>56.37</ele>
        <time>2017-08-06T06:09:52Z</time>
      </trkpt>
      <trkpt lat="49.41345" lon="4.02697">
        <ele>56.37</ele>
        <time>2017-08-06T06:10:03Z</time>
      </trkpt>
      <trkpt lat="49.41315" lon="4.02737">
        <ele>57.34</ele>
        <time>2017-08-06T06:10:17Z</time>
      </trkpt>
      <trkpt lat="49.41292" lon="4.02765">
        <ele>59.26</ele>
        <time>2017-08-06T06:10:33Z</time>
      </trkpt>
      <trkpt lat="49.41291" lon="4.02764">
        <ele>59.26</ele>
        <time>2017-08-06T06:10:49Z</time>
      </trkpt>
      <trkpt lat="49.41292" lon="4.02765">
        <ele>59.26</ele>
        <time>2017-08-06T06:11:21Z</time>
      </trkpt>
      <trkpt lat="49.41294" lon="4.02766">
        <ele>59.26</ele>
        <time>2017-08-06T06:11:25Z</time>
      </trkpt>
      <trkpt lat="49.41295" lon="4.02765">
        <ele>59.26</ele>
        <time>2017-08-06T06:11:26Z</time>
      </trkpt>
      <trkpt lat="49.41296" lon="4.02763">
        <ele>59.26</ele>
        <time>2017-08-06T06:11:27Z</time>
      </trkpt>
      <trkpt lat="49.41306" lon="4.0275">
        <ele>58.3</ele>
        <time>2017-08-06T06:11:31Z</time>
      </trkpt>
      <trkpt lat="49.41334" lon="4.02715">
        <ele>56.86</ele>
        <time>2017-08-06T06:11:39Z</time>
      </trkpt>
      <trkpt lat="49.41365" lon="4.02699">
        <ele>56.37</ele>
        <time>2017-08-06T06:11:49Z</time>
      </trkpt>
      <trkpt lat="49.4137" lon="4.02704">
        <ele>56.37</ele>
        <time>2017-08-06T06:11:55Z</time>
      </trkpt>
      <trkpt lat="49.41371" lon="4.02705">
        <ele>56.37</ele>
        <time>2017-08-06T06:11:56Z</time>
      </trkpt>
      <trkpt lat="49.41372" lon="4.02706">
        <ele>56.37</ele>
        <time>2017-08-06T06:11:57Z</time>
      </trkpt>
      <trkpt lat="49.41371" lon="4.02708">
        <ele>56.37</ele>
        <time>2017-08-06T06:11:58Z</time>
      </trkpt>
      <trkpt lat="49.4137" lon="4.02707">
        <ele>56.37</ele>
        <time>2017-08-06T06:11:59Z</time>
      </trkpt>
      <trkpt lat="49.41365" lon="4.02698">
        <ele>56.37</ele>
        <time>2017-08-06T06:12:02Z</time>
      </trkpt>
      <trkpt lat="49.41353" lon="4.02689">
        <ele>56.37</ele>
        <time>2017-08-06T06:12:07Z</time>
      </trkpt>
      <trkpt lat="49.4135" lon="4.02691">
        <ele>56.37</ele>
        <time>2017-08-06T06:12:08Z</time>
      </trkpt>
      <trkpt lat="49.41348" lon="4.02693">
        <ele>56.37</ele>
        <time>2017-08-06T06:12:09Z</time>
      </trkpt>
      <trkpt lat="49.41315" lon="4.02736">
        <ele>56.37</ele>
        <time>2017-08-06T06:12:24Z</time>
      </trkpt>
      <trkpt lat="49.4129" lon="4.02768">
        <ele>59.26</ele>
        <time>2017-08-06T06:12:38Z</time>
      </trkpt>
      <trkpt lat="49.41264" lon="4.02788">
        <ele>59.74</ele>
        <time>2017-08-06T06:12:51Z</time>
      </trkpt>
      <trkpt lat="49.41229" lon="4.02816">
        <ele>61.18</ele>
        <time>2017-08-06T06:13:08Z</time>
      </trkpt>
      <trkpt lat="49.41194" lon="4.02849">
        <ele>62.14</ele>
        <time>2017-08-06T06:13:27Z</time>
      </trkpt>
      <trkpt lat="49.41158" lon="4.02886">
        <ele>63.58</ele>
        <time>2017-08-06T06:13:47Z</time>
      </trkpt>
      <trkpt lat="49.41124" lon="4.0292">
        <ele>65.03</ele>
        <time>2017-08-06T06:14:06Z</time>
      </trkpt>
      <trkpt lat="49.41104" lon="4.0294">
        <ele>66.47</ele>
        <time>2017-08-06T06:14:21Z</time>
      </trkpt>
      <trkpt lat="49.41104" lon="4.0294">
        <ele>66.95</ele>
        <time>2017-08-06T06:14:43Z</time>
      </trkpt>
      <trkpt lat="49.41105" lon="4.0294">
        <ele>66.95</ele>
        <time>2017-08-06T06:15:15Z</time>
      </trkpt>
      <trkpt lat="49.41104" lon="4.0294">
        <ele>66.95</ele>
        <time>2017-08-06T06:15:38Z</time>
      </trkpt>
      <trkpt lat="49.41105" lon="4.02942">
        <ele>66.95</ele>
        <time>2017-08-06T06:16:11Z</time>
      </trkpt>
      <trkpt lat="49.41104" lon="4.02941">
        <ele>66.95</ele>
        <time>2017-08-06T06:16:30Z</time>
      </trkpt>
      <trkpt lat="49.41104" lon="4.0294">
        <ele>66.95</ele>
        <time>2017-08-06T06:16:52Z</time>
      </trkpt>
      <trkpt lat="49.41102" lon="4.02941">
        <ele>66.95</ele>
        <time>2017-08-06T06:17:14Z</time>
      </trkpt>
      <trkpt lat="49.41101" lon="4.02942">
        <ele>66.95</ele>
        <time>2017-08-06T06:17:39Z</time>
      </trkpt>
      <trkpt lat="49.41102" lon="4.02941">
        <ele>66.95</ele>
        <time>2017-08-06T06:18:05Z</time>
      </trkpt>
      <trkpt lat="49.41103" lon="4.02942">
        <ele>66.95</ele>
        <time>2017-08-06T06:18:27Z</time>
      </trkpt>
      <trkpt lat="49.41103" lon="4.02941">
        <ele>66.95</ele>
        <time>2017-08-06T06:18:56Z</time>
      </trkpt>
      <trkpt lat="49.41103" lon="4.0294">
        <ele>66.95</ele>
        <time>2017-08-06T06:19:21Z</time>
      </trkpt>
      <trkpt lat="49.41102" lon="4.02942">
        <ele>66.95</ele>
        <time>2017-08-06T06:19:48Z</time>
      </trkpt>
      <trkpt lat="49.41101" lon="4.02942">
        <ele>66.95</ele>
        <time>2017-08-06T06:20:19Z</time>
      </trkpt>
      <trkpt lat="49.41102" lon="4.0294">
        <ele>66.95</ele>
        <time>2017-08-06T06:20:44Z</time>
      </trkpt>
      <trkpt lat="49.41102" lon="4.02941">
        <ele>66.95</ele>
        <time>2017-08-06T06:21:11Z</time>
      </trkpt>
      <trkpt lat="49.41102" lon="4.02941">
        <ele>67.43</ele>
        <time>2017-08-06T06:21:39Z</time>
      </trkpt>
      <trkpt lat="49.41102" lon="4.02943">
        <ele>67.43</ele>
        <time>2017-08-06T06:22:03Z</time>
      </trkpt>
      <trkpt lat="49.41102" lon="4.02944">
        <ele>67.43</ele>
        <time>2017-08-06T06:22:28Z</time>
      </trkpt>
      <trkpt lat="49.41101" lon="4.02943">
        <ele>67.43</ele>
        <time>2017-08-06T06:22:57Z</time>
      </trkpt>
      <trkpt lat="49.41102" lon="4.02944">
        <ele>67.43</ele>
        <time>2017-08-06T06:23:25Z</time>
      </trkpt>
      <trkpt lat="49.41101" lon="4.02942">
        <ele>67.43</ele>
        <time>2017-08-06T06:23:53Z</time>
      </trkpt>
      <trkpt lat="49.41102" lon="4.02942">
        <ele>67.43</ele>
        <time>2017-08-06T06:24:20Z</time>
      </trkpt>
      <trkpt lat="49.41101" lon="4.02941">
        <ele>66.95</ele>
        <time>2017-08-06T06:24:47Z</time>
      </trkpt>
      <trkpt lat="49.41102" lon="4.0294">
        <ele>66.95</ele>
        <time>2017-08-06T06:25:21Z</time>
      </trkpt>
      <trkpt lat="49.41102" lon="4.02941">
        <ele>66.95</ele>
        <time>2017-08-06T06:25:43Z</time>
      </trkpt>
      <trkpt lat="49.41101" lon="4.02942">
        <ele>66.95</ele>
        <time>2017-08-06T06:26:06Z</time>
      </trkpt>
      <trkpt lat="49.41103" lon="4.02941">
        <ele>67.43</ele>
        <time>2017-08-06T06:26:22Z</time>
      </trkpt>
      <trkpt lat="49.41103" lon="4.02941">
        <ele>67.43</ele>
        <time>2017-08-06T06:26:35Z</time>
      </trkpt>
      <trkpt lat="49.41085" lon="4.02958">
        <ele>68.87</ele>
        <time>2017-08-06T06:26:49Z</time>
      </trkpt>
      <trkpt lat="49.41065" lon="4.02977">
        <ele>70.31</ele>
        <time>2017-08-06T06:27:03Z</time>
      </trkpt>
      <trkpt lat="49.41045" lon="4.02995">
        <ele>71.27</ele>
        <time>2017-08-06T06:27:17Z</time>
      </trkpt>
      <trkpt lat="49.41043" lon="4.02997">
        <ele>71.76</ele>
        <time>2017-08-06T06:27:18Z</time>
      </trkpt>
      <trkpt lat="49.41042" lon="4.02998">
        <ele>71.76</ele>
        <time>2017-08-06T06:27:19Z</time>
      </trkpt>
      <trkpt lat="49.41041" lon="4.02999">
        <ele>71.76</ele>
        <time>2017-08-06T06:27:20Z</time>
      </trkpt>
      <trkpt lat="49.41039" lon="4.03001">
        <ele>71.76</ele>
        <time>2017-08-06T06:27:21Z</time>
      </trkpt>
      <trkpt lat="49.41015" lon="4.03023">
        <ele>74.16</ele>
        <time>2017-08-06T06:27:38Z</time>
      </trkpt>
      <trkpt lat="49.40997" lon="4.0304">
        <ele>75.6</ele>
        <time>2017-08-06T06:27:52Z</time>
      </trkpt>
      <trkpt lat="49.40976" lon="4.03063">
        <ele>78</ele>
        <time>2017-08-06T06:28:08Z</time>
      </trkpt>
      <trkpt lat="49.40955" lon="4.03081">
        <ele>79.45</ele>
        <time>2017-08-06T06:28:22Z</time>
      </trkpt>
      <trkpt lat="49.40927" lon="4.03103">
        <ele>80.41</ele>
        <time>2017-08-06T06:28:39Z</time>
      </trkpt>
      <trkpt lat="49.4089" lon="4.0313">
        <ele>81.85</ele>
        <time>2017-08-06T06:28:59Z</time>
      </trkpt>
      <trkpt lat="49.4084" lon="4.03169">
        <ele>82.81</ele>
        <time>2017-08-06T06:29:22Z</time>
      </trkpt>
      <trkpt lat="49.40788" lon="4.03203">
        <ele>82.81</ele>
        <time>2017-08-06T06:29:39Z</time>
      </trkpt>
      <trkpt lat="49.40764" lon="4.03206">
        <ele>81.85</ele>
        <time>2017-08-06T06:29:44Z</time>
      </trkpt>
      <trkpt lat="49.40672" lon="4.0321">
        <ele>79.45</ele>
        <time>2017-08-06T06:30:02Z</time>
      </trkpt>
      <trkpt lat="49.40577" lon="4.03215">
        <ele>76.08</ele>
        <time>2017-08-06T06:30:17Z</time>
      </trkpt>
      <trkpt lat="49.40484" lon="4.03218">
        <ele>73.68</ele>
        <time>2017-08-06T06:30:31Z</time>
      </trkpt>
      <trkpt lat="49.40388" lon="4.03222">
        <ele>70.79</ele>
        <time>2017-08-06T06:30:46Z</time>
      </trkpt>
      <trkpt lat="49.40295" lon="4.03226">
        <ele>69.35</ele>
        <time>2017-08-06T06:31:04Z</time>
      </trkpt>
      <trkpt lat="49.40257" lon="4.03227">
        <ele>70.79</ele>
        <time>2017-08-06T06:31:13Z</time>
      </trkpt>
      <trkpt lat="49.40212" lon="4.0323">
        <ele>71.27</ele>
        <time>2017-08-06T06:31:27Z</time>
      </trkpt>
      <trkpt lat="49.40167" lon="4.03232">
        <ele>72.24</ele>
        <time>2017-08-06T06:31:41Z</time>
      </trkpt>
      <trkpt lat="49.40122" lon="4.03234">
        <ele>72.72</ele>
        <time>2017-08-06T06:31:56Z</time>
      </trkpt>
      <trkpt lat="49.40083" lon="4.03236">
        <ele>73.68</ele>
        <time>2017-08-06T06:32:09Z</time>
      </trkpt>
      <trkpt lat="49.40022" lon="4.03239">
        <ele>73.68</ele>
        <time>2017-08-06T06:32:25Z</time>
      </trkpt>
      <trkpt lat="49.39977" lon="4.03241">
        <ele>73.68</ele>
        <time>2017-08-06T06:32:36Z</time>
      </trkpt>
      <trkpt lat="49.39973" lon="4.03241">
        <ele>73.68</ele>
        <time>2017-08-06T06:32:37Z</time>
      </trkpt>
      <trkpt lat="49.39947" lon="4.03243">
        <ele>73.68</ele>
        <time>2017-08-06T06:32:43Z</time>
      </trkpt>
      <trkpt lat="49.39943" lon="4.03243">
        <ele>73.68</ele>
        <time>2017-08-06T06:32:44Z</time>
      </trkpt>
      <trkpt lat="49.39938" lon="4.03243">
        <ele>73.68</ele>
        <time>2017-08-06T06:32:45Z</time>
      </trkpt>
      <trkpt lat="49.39934" lon="4.03241">
        <ele>73.68</ele>
        <time>2017-08-06T06:32:46Z</time>
      </trkpt>
      <trkpt lat="49.3993" lon="4.03237">
        <ele>73.68</ele>
        <time>2017-08-06T06:32:47Z</time>
      </trkpt>
      <trkpt lat="49.39926" lon="4.03235">
        <ele>72.72</ele>
        <time>2017-08-06T06:32:48Z</time>
      </trkpt>
      <trkpt lat="49.39921" lon="4.03234">
        <ele>72.72</ele>
        <time>2017-08-06T06:32:49Z</time>
      </trkpt>
      <trkpt lat="49.39842" lon="4.03203">
        <ele>71.76</ele>
        <time>2017-08-06T06:33:06Z</time>
      </trkpt>
      <trkpt lat="49.39732" lon="4.03159">
        <ele>70.31</ele>
        <time>2017-08-06T06:33:28Z</time>
      </trkpt>
      <trkpt lat="49.39639" lon="4.03121">
        <ele>68.39</ele>
        <time>2017-08-06T06:33:46Z</time>
      </trkpt>
      <trkpt lat="49.39539" lon="4.03083">
        <ele>65.99</ele>
        <time>2017-08-06T06:34:04Z</time>
      </trkpt>
      <trkpt lat="49.39418" lon="4.03034">
        <ele>63.58</ele>
        <time>2017-08-06T06:34:25Z</time>
      </trkpt>
      <trkpt lat="49.39339" lon="4.03002">
        <ele>63.58</ele>
        <time>2017-08-06T06:34:43Z</time>
      </trkpt>
      <trkpt lat="49.39281" lon="4.02979">
        <ele>65.03</ele>
        <time>2017-08-06T06:35:00Z</time>
      </trkpt>
      <trkpt lat="49.39224" lon="4.02957">
        <ele>65.51</ele>
        <time>2017-08-06T06:35:19Z</time>
      </trkpt>
      <trkpt lat="49.39153" lon="4.02928">
        <ele>65.99</ele>
        <time>2017-08-06T06:35:39Z</time>
      </trkpt>
      <trkpt lat="49.39064" lon="4.02891">
        <ele>65.03</ele>
        <time>2017-08-06T06:35:59Z</time>
      </trkpt>
      <trkpt lat="49.38971" lon="4.02853">
        <ele>64.07</ele>
        <time>2017-08-06T06:36:19Z</time>
      </trkpt>
      <trkpt lat="49.38887" lon="4.02828">
        <ele>61.66</ele>
        <time>2017-08-06T06:36:36Z</time>
      </trkpt>
      <trkpt lat="49.38825" lon="4.02815">
        <ele>58.78</ele>
        <time>2017-08-06T06:36:45Z</time>
      </trkpt>
      <trkpt lat="49.38741" lon="4.02797">
        <ele>58.3</ele>
        <time>2017-08-06T06:37:00Z</time>
      </trkpt>
      <trkpt lat="49.38716" lon="4.02789">
        <ele>58.3</ele>
        <time>2017-08-06T06:37:06Z</time>
      </trkpt>
      <trkpt lat="49.38715" lon="4.02784">
        <ele>58.3</ele>
        <time>2017-08-06T06:37:07Z</time>
      </trkpt>
      <trkpt lat="49.38716" lon="4.0278">
        <ele>58.3</ele>
        <time>2017-08-06T06:37:08Z</time>
      </trkpt>
      <trkpt lat="49.38717" lon="4.02775">
        <ele>58.3</ele>
        <time>2017-08-06T06:37:09Z</time>
      </trkpt>
      <trkpt lat="49.38718" lon="4.0277">
        <ele>58.3</ele>
        <time>2017-08-06T06:37:10Z</time>
      </trkpt>
      <trkpt lat="49.38731" lon="4.02711">
        <ele>58.3</ele>
        <time>2017-08-06T06:37:22Z</time>
      </trkpt>
      <trkpt lat="49.38731" lon="4.02711">
        <ele>58.3</ele>
        <time>2017-08-06T06:37:32Z</time>
      </trkpt>
      <trkpt lat="49.38731" lon="4.02711">
        <ele>58.3</ele>
        <time>2017-08-06T06:38:07Z</time>
      </trkpt>
      <trkpt lat="49.38731" lon="4.02709">
        <ele>58.3</ele>
        <time>2017-08-06T06:38:14Z</time>
      </trkpt>
      <trkpt lat="49.38732" lon="4.02706">
        <ele>58.3</ele>
        <time>2017-08-06T06:38:15Z</time>
      </trkpt>
      <trkpt lat="49.38742" lon="4.02647">
        <ele>58.3</ele>
        <time>2017-08-06T06:38:27Z</time>
      </trkpt>
      <trkpt lat="49.38749" lon="4.02543">
        <ele>58.3</ele>
        <time>2017-08-06T06:38:43Z</time>
      </trkpt>
      <trkpt lat="49.38752" lon="4.02458">
        <ele>58.3</ele>
        <time>2017-08-06T06:38:57Z</time>
      </trkpt>
      <trkpt lat="49.3875" lon="4.02453">
        <ele>57.82</ele>
        <time>2017-08-06T06:38:58Z</time>
      </trkpt>
      <trkpt lat="49.38746" lon="4.02448">
        <ele>57.34</ele>
        <time>2017-08-06T06:38:59Z</time>
      </trkpt>
      <trkpt lat="49.38742" lon="4.02444">
        <ele>57.34</ele>
        <time>2017-08-06T06:39:00Z</time>
      </trkpt>
      <trkpt lat="49.38737" lon="4.02441">
        <ele>57.34</ele>
        <time>2017-08-06T06:39:01Z</time>
      </trkpt>
      <trkpt lat="49.38632" lon="4.0237">
        <ele>56.37</ele>
        <time>2017-08-06T06:39:23Z</time>
      </trkpt>
      <trkpt lat="49.38549" lon="4.0232">
        <ele>55.89</ele>
        <time>2017-08-06T06:39:41Z</time>
      </trkpt>
      <trkpt lat="49.38518" lon="4.02354">
        <ele>55.89</ele>
        <time>2017-08-06T06:39:51Z</time>
      </trkpt>
      <trkpt lat="49.38475" lon="4.0238">
        <ele>55.89</ele>
        <time>2017-08-06T06:40:02Z</time>
      </trkpt>
      <trkpt lat="49.38471" lon="4.02381">
        <ele>55.89</ele>
        <time>2017-08-06T06:40:03Z</time>
      </trkpt>
      <trkpt lat="49.38467" lon="4.02381">
        <ele>55.89</ele>
        <time>2017-08-06T06:40:04Z</time>
      </trkpt>
      <trkpt lat="49.38462" lon="4.02382">
        <ele>55.89</ele>
        <time>2017-08-06T06:40:05Z</time>
      </trkpt>
      <trkpt lat="49.38458" lon="4.02382">
        <ele>55.89</ele>
        <time>2017-08-06T06:40:06Z</time>
      </trkpt>
      <trkpt lat="49.38454" lon="4.02382">
        <ele>55.89</ele>
        <time>2017-08-06T06:40:07Z</time>
      </trkpt>
      <trkpt lat="49.38444" lon="4.0238">
        <ele>55.89</ele>
        <time>2017-08-06T06:40:09Z</time>
      </trkpt>
      <trkpt lat="49.3844" lon="4.02378">
        <ele>55.89</ele>
        <time>2017-08-06T06:40:10Z</time>
      </trkpt>
      <trkpt lat="49.38423" lon="4.02368">
        <ele>55.89</ele>
        <time>2017-08-06T06:40:14Z</time>
      </trkpt>
      <trkpt lat="49.3842" lon="4.02364">
        <ele>55.89</ele>
        <time>2017-08-06T06:40:15Z</time>
      </trkpt>
      <trkpt lat="49.38383" lon="4.02317">
        <ele>57.34</ele>
        <time>2017-08-06T06:40:27Z</time>
      </trkpt>
      <trkpt lat="49.38375" lon="4.0231">
        <ele>57.34</ele>
        <time>2017-08-06T06:40:31Z</time>
      </trkpt>
      <trkpt lat="49.38374" lon="4.02312">
        <ele>57.34</ele>
        <time>2017-08-06T06:40:32Z</time>
      </trkpt>
      <trkpt lat="49.38373" lon="4.02317">
        <ele>57.34</ele>
        <time>2017-08-06T06:40:33Z</time>
      </trkpt>
      <trkpt lat="49.38373" lon="4.0232">
        <ele>57.34</ele>
        <time>2017-08-06T06:40:34Z</time>
      </trkpt>
      <trkpt lat="49.38374" lon="4.02324">
        <ele>57.34</ele>
        <time>2017-08-06T06:40:35Z</time>
      </trkpt>
      <trkpt lat="49.38375" lon="4.02326">
        <ele>57.34</ele>
        <time>2017-08-06T06:40:36Z</time>
      </trkpt>
      <trkpt lat="49.38376" lon="4.02328">
        <ele>57.34</ele>
        <time>2017-08-06T06:40:37Z</time>
      </trkpt>
      <trkpt lat="49.38377" lon="4.02327">
        <ele>55.89</ele>
        <time>2017-08-06T06:40:49Z</time>
      </trkpt>
      <trkpt lat="49.38377" lon="4.02322">
        <ele>55.89</ele>
        <time>2017-08-06T06:40:57Z</time>
      </trkpt>
      <trkpt lat="49.38376" lon="4.02319">
        <ele>55.89</ele>
        <time>2017-08-06T06:40:58Z</time>
      </trkpt>
      <trkpt lat="49.38375" lon="4.02318">
        <ele>55.89</ele>
        <time>2017-08-06T06:40:59Z</time>
      </trkpt>
      <trkpt lat="49.38373" lon="4.02317">
        <ele>55.89</ele>
        <time>2017-08-06T06:41:00Z</time>
      </trkpt>
      <trkpt lat="49.38372" lon="4.02315">
        <ele>55.89</ele>
        <time>2017-08-06T06:41:01Z</time>
      </trkpt>
      <trkpt lat="49.3837" lon="4.02312">
        <ele>55.89</ele>
        <time>2017-08-06T06:41:02Z</time>
      </trkpt>
      <trkpt lat="49.3837" lon="4.02309">
        <ele>55.89</ele>
        <time>2017-08-06T06:41:03Z</time>
      </trkpt>
      <trkpt lat="49.3837" lon="4.02306">
        <ele>55.89</ele>
        <time>2017-08-06T06:41:04Z</time>
      </trkpt>
      <trkpt lat="49.3837" lon="4.02302">
        <ele>55.89</ele>
        <time>2017-08-06T06:41:05Z</time>
      </trkpt>
      <trkpt lat="49.38369" lon="4.02299">
        <ele>55.89</ele>
        <time>2017-08-06T06:41:06Z</time>
      </trkpt>
      <trkpt lat="49.38367" lon="4.02296">
        <ele>55.89</ele>
        <time>2017-08-06T06:41:07Z</time>
      </trkpt>
      <trkpt lat="49.38364" lon="4.02293">
        <ele>55.89</ele>
        <time>2017-08-06T06:41:08Z</time>
      </trkpt>
      <trkpt lat="49.38362" lon="4.02291">
        <ele>55.89</ele>
        <time>2017-08-06T06:41:09Z</time>
      </trkpt>
      <trkpt lat="49.38359" lon="4.02289">
        <ele>55.89</ele>
        <time>2017-08-06T06:41:10Z</time>
      </trkpt>
      <trkpt lat="49.38355" lon="4.02287">
        <ele>55.89</ele>
        <time>2017-08-06T06:41:11Z</time>
      </trkpt>
      <trkpt lat="49.38344" lon="4.02284">
        <ele>55.89</ele>
        <time>2017-08-06T06:41:14Z</time>
      </trkpt>
      <trkpt lat="49.38338" lon="4.02283">
        <ele>55.89</ele>
        <time>2017-08-06T06:41:15Z</time>
      </trkpt>
      <trkpt lat="49.38257" lon="4.02291">
        <ele>55.89</ele>
        <time>2017-08-06T06:41:33Z</time>
      </trkpt>
      <trkpt lat="49.38193" lon="4.02264">
        <ele>56.37</ele>
        <time>2017-08-06T06:41:48Z</time>
      </trkpt>
      <trkpt lat="49.38137" lon="4.02227">
        <ele>57.82</ele>
        <time>2017-08-06T06:42:03Z</time>
      </trkpt>
      <trkpt lat="49.3809" lon="4.02214">
        <ele>59.26</ele>
        <time>2017-08-06T06:42:18Z</time>
      </trkpt>
      <trkpt lat="49.3807" lon="4.02219">
        <ele>59.74</ele>
        <time>2017-08-06T06:42:31Z</time>
      </trkpt>
      <trkpt lat="49.38048" lon="4.02248">
        <ele>59.74</ele>
        <time>2017-08-06T06:42:43Z</time>
      </trkpt>
      <trkpt lat="49.38046" lon="4.02253">
        <ele>60.22</ele>
        <time>2017-08-06T06:42:45Z</time>
      </trkpt>
      <trkpt lat="49.38045" lon="4.02257">
        <ele>60.22</ele>
        <time>2017-08-06T06:42:46Z</time>
      </trkpt>
      <trkpt lat="49.38039" lon="4.0228">
        <ele>60.22</ele>
        <time>2017-08-06T06:42:55Z</time>
      </trkpt>
      <trkpt lat="49.38042" lon="4.02271">
        <ele>60.22</ele>
        <time>2017-08-06T06:43:02Z</time>
      </trkpt>
      <trkpt lat="49.38045" lon="4.02258">
        <ele>60.22</ele>
        <time>2017-08-06T06:43:07Z</time>
      </trkpt>
      <trkpt lat="49.38047" lon="4.02247">
        <ele>60.7</ele>
        <time>2017-08-06T06:43:10Z</time>
      </trkpt>
      <trkpt lat="49.38039" lon="4.02237">
        <ele>60.7</ele>
        <time>2017-08-06T06:43:15Z</time>
      </trkpt>
      <trkpt lat="49.38035" lon="4.02236">
        <ele>60.7</ele>
        <time>2017-08-06T06:43:16Z</time>
      </trkpt>
      <trkpt lat="49.38034" lon="4.02236">
        <ele>60.7</ele>
        <time>2017-08-06T06:43:17Z</time>
      </trkpt>
      <trkpt lat="49.38033" lon="4.02235">
        <ele>60.7</ele>
        <time>2017-08-06T06:43:18Z</time>
      </trkpt>
      <trkpt lat="49.38031" lon="4.02234">
        <ele>60.7</ele>
        <time>2017-08-06T06:43:19Z</time>
      </trkpt>
      <trkpt lat="49.3803" lon="4.02233">
        <ele>60.7</ele>
        <time>2017-08-06T06:43:20Z</time>
      </trkpt>
      <trkpt lat="49.38024" lon="4.02226">
        <ele>60.7</ele>
        <time>2017-08-06T06:43:25Z</time>
      </trkpt>
      <trkpt lat="49.38024" lon="4.02222">
        <ele>60.7</ele>
        <time>2017-08-06T06:43:26Z</time>
      </trkpt>
      <trkpt lat="49.38024" lon="4.02219">
        <ele>60.7</ele>
        <time>2017-08-06T06:43:27Z</time>
      </trkpt>
      <trkpt lat="49.38025" lon="4.02215">
        <ele>60.7</ele>
        <time>2017-08-06T06:43:28Z</time>
      </trkpt>
      <trkpt lat="49.38025" lon="4.02211">
        <ele>60.7</ele>
        <time>2017-08-06T06:43:29Z</time>
      </trkpt>
      <trkpt lat="49.38025" lon="4.02207">
        <ele>60.7</ele>
        <time>2017-08-06T06:43:30Z</time>
      </trkpt>
      <trkpt lat="49.38025" lon="4.02204">
        <ele>60.7</ele>
        <time>2017-08-06T06:43:31Z</time>
      </trkpt>
      <trkpt lat="49.38025" lon="4.02202">
        <ele>60.7</ele>
        <time>2017-08-06T06:43:32Z</time>
      </trkpt>
      <trkpt lat="49.38024" lon="4.02199">
        <ele>60.7</ele>
        <time>2017-08-06T06:43:33Z</time>
      </trkpt>
      <trkpt lat="49.38022" lon="4.02195">
        <ele>60.7</ele>
        <time>2017-08-06T06:43:34Z</time>
      </trkpt>
      <trkpt lat="49.3802" lon="4.02193">
        <ele>60.7</ele>
        <time>2017-08-06T06:43:35Z</time>
      </trkpt>
      <trkpt lat="49.38018" lon="4.02191">
        <ele>60.7</ele>
        <time>2017-08-06T06:43:36Z</time>
      </trkpt>
      <trkpt lat="49.37979" lon="4.02175">
        <ele>61.18</ele>
        <time>2017-08-06T06:43:49Z</time>
      </trkpt>
      <trkpt lat="49.37916" lon="4.02166">
        <ele>63.1</ele>
        <time>2017-08-06T06:44:08Z</time>
      </trkpt>
      <trkpt lat="49.37871" lon="4.02161">
        <ele>65.51</ele>
        <time>2017-08-06T06:44:25Z</time>
      </trkpt>
      <trkpt lat="49.37825" lon="4.02151">
        <ele>66.95</ele>
        <time>2017-08-06T06:44:43Z</time>
      </trkpt>
      <trkpt lat="49.37793" lon="4.02123">
        <ele>68.39</ele>
        <time>2017-08-06T06:44:58Z</time>
      </trkpt>
      <trkpt lat="49.37769" lon="4.02063">
        <ele>69.35</ele>
        <time>2017-08-06T06:45:16Z</time>
      </trkpt>
      <trkpt lat="49.37745" lon="4.02007">
        <ele>69.83</ele>
        <time>2017-08-06T06:45:30Z</time>
      </trkpt>
      <trkpt lat="49.37742" lon="4.02002">
        <ele>69.83</ele>
        <time>2017-08-06T06:45:32Z</time>
      </trkpt>
      <trkpt lat="49.37739" lon="4.02004">
        <ele>69.83</ele>
        <time>2017-08-06T06:45:33Z</time>
      </trkpt>
      <trkpt lat="49.37738" lon="4.02007">
        <ele>70.31</ele>
        <time>2017-08-06T06:45:34Z</time>
      </trkpt>
      <trkpt lat="49.37737" lon="4.02011">
        <ele>70.31</ele>
        <time>2017-08-06T06:45:35Z</time>
      </trkpt>
      <trkpt lat="49.37738" lon="4.02013">
        <ele>70.31</ele>
        <time>2017-08-06T06:45:36Z</time>
      </trkpt>
      <trkpt lat="49.37738" lon="4.02017">
        <ele>70.31</ele>
        <time>2017-08-06T06:45:37Z</time>
      </trkpt>
      <trkpt lat="49.37738" lon="4.02019">
        <ele>70.31</ele>
        <time>2017-08-06T06:45:38Z</time>
      </trkpt>
      <trkpt lat="49.37739" lon="4.02021">
        <ele>70.31</ele>
        <time>2017-08-06T06:45:39Z</time>
      </trkpt>
      <trkpt lat="49.37737" lon="4.02026">
        <ele>70.31</ele>
        <time>2017-08-06T06:45:47Z</time>
      </trkpt>
      <trkpt lat="49.37708" lon="4.02049">
        <ele>70.31</ele>
        <time>2017-08-06T06:46:01Z</time>
      </trkpt>
      <trkpt lat="49.37704" lon="4.02043">
        <ele>70.31</ele>
        <time>2017-08-06T06:46:05Z</time>
      </trkpt>
      <trkpt lat="49.37698" lon="4.02029">
        <ele>70.31</ele>
        <time>2017-08-06T06:46:11Z</time>
      </trkpt>
      <trkpt lat="49.37697" lon="4.02027">
        <ele>70.31</ele>
        <time>2017-08-06T06:46:12Z</time>
      </trkpt>
      <trkpt lat="49.37695" lon="4.02026">
        <ele>70.31</ele>
        <time>2017-08-06T06:46:13Z</time>
      </trkpt>
      <trkpt lat="49.37695" lon="4.02028">
        <ele>70.31</ele>
        <time>2017-08-06T06:46:22Z</time>
      </trkpt>
      <trkpt lat="49.37702" lon="4.02035">
        <ele>70.31</ele>
        <time>2017-08-06T06:46:33Z</time>
      </trkpt>
      <trkpt lat="49.37707" lon="4.02045">
        <ele>70.31</ele>
        <time>2017-08-06T06:46:39Z</time>
      </trkpt>
      <trkpt lat="49.37733" lon="4.02025">
        <ele>70.31</ele>
        <time>2017-08-06T06:46:53Z</time>
      </trkpt>
      <trkpt lat="49.37739" lon="4.01992">
        <ele>70.31</ele>
        <time>2017-08-06T06:47:04Z</time>
      </trkpt>
      <trkpt lat="49.37714" lon="4.01925">
        <ele>70.79</ele>
        <time>2017-08-06T06:47:20Z</time>
      </trkpt>
      <trkpt lat="49.37678" lon="4.01842">
        <ele>70.79</ele>
        <time>2017-08-06T06:47:36Z</time>
      </trkpt>
      <trkpt lat="49.37658" lon="4.01796">
        <ele>71.76</ele>
        <time>2017-08-06T06:47:45Z</time>
      </trkpt>
      <trkpt lat="49.37655" lon="4.01792">
        <ele>71.76</ele>
        <time>2017-08-06T06:47:46Z</time>
      </trkpt>
      <trkpt lat="49.37586" lon="4.01702">
        <ele>70.31</ele>
        <time>2017-08-06T06:48:04Z</time>
      </trkpt>
      <trkpt lat="49.37518" lon="4.01619">
        <ele>69.35</ele>
        <time>2017-08-06T06:48:20Z</time>
      </trkpt>
      <trkpt lat="49.37449" lon="4.01534">
        <ele>66.95</ele>
        <time>2017-08-06T06:48:35Z</time>
      </trkpt>
      <trkpt lat="49.37413" lon="4.01488">
        <ele>66.95</ele>
        <time>2017-08-06T06:48:43Z</time>
      </trkpt>
      <trkpt lat="49.37369" lon="4.01434">
        <ele>66.95</ele>
        <time>2017-08-06T06:48:55Z</time>
      </trkpt>
      <trkpt lat="49.37317" lon="4.01372">
        <ele>69.35</ele>
        <time>2017-08-06T06:49:11Z</time>
      </trkpt>
      <trkpt lat="49.37298" lon="4.01347">
        <ele>71.27</ele>
        <time>2017-08-06T06:49:17Z</time>
      </trkpt>
      <trkpt lat="49.37295" lon="4.01343">
        <ele>71.27</ele>
        <time>2017-08-06T06:49:18Z</time>
      </trkpt>
      <trkpt lat="49.3724" lon="4.01277">
        <ele>71.27</ele>
        <time>2017-08-06T06:49:37Z</time>
      </trkpt>
      <trkpt lat="49.37196" lon="4.01223">
        <ele>73.2</ele>
        <time>2017-08-06T06:49:53Z</time>
      </trkpt>
      <trkpt lat="49.37139" lon="4.01163">
        <ele>73.2</ele>
        <time>2017-08-06T06:50:08Z</time>
      </trkpt>
      <trkpt lat="49.3713" lon="4.01152">
        <ele>71.76</ele>
        <time>2017-08-06T06:50:10Z</time>
      </trkpt>
      <trkpt lat="49.37037" lon="4.01053">
        <ele>70.31</ele>
        <time>2017-08-06T06:50:28Z</time>
      </trkpt>
      <trkpt lat="49.36954" lon="4.00964">
        <ele>69.35</ele>
        <time>2017-08-06T06:50:44Z</time>
      </trkpt>
      <trkpt lat="49.36862" lon="4.00865">
        <ele>68.87</ele>
        <time>2017-08-06T06:51:04Z</time>
      </trkpt>
      <trkpt lat="49.36828" lon="4.00829">
        <ele>70.31</ele>
        <time>2017-08-06T06:51:13Z</time>
      </trkpt>
      <trkpt lat="49.36764" lon="4.0076">
        <ele>71.76</ele>
        <time>2017-08-06T06:51:32Z</time>
      </trkpt>
      <trkpt lat="49.36715" lon="4.00706">
        <ele>73.2</ele>
        <time>2017-08-06T06:51:50Z</time>
      </trkpt>
      <trkpt lat="49.36652" lon="4.00638">
        <ele>74.64</ele>
        <time>2017-08-06T06:52:12Z</time>
      </trkpt>
      <trkpt lat="49.36605" lon="4.00588">
        <ele>76.08</ele>
        <time>2017-08-06T06:52:30Z</time>
      </trkpt>
      <trkpt lat="49.36562" lon="4.00542">
        <ele>77.52</ele>
        <time>2017-08-06T06:52:47Z</time>
      </trkpt>
      <trkpt lat="49.36498" lon="4.00473">
        <ele>78</ele>
        <time>2017-08-06T06:53:09Z</time>
      </trkpt>
      <trkpt lat="49.36438" lon="4.0041">
        <ele>78.48</ele>
        <time>2017-08-06T06:53:27Z</time>
      </trkpt>
      <trkpt lat="49.36381" lon="4.00347">
        <ele>78.97</ele>
        <time>2017-08-06T06:53:44Z</time>
      </trkpt>
      <trkpt lat="49.36327" lon="4.00269">
        <ele>79.45</ele>
        <time>2017-08-06T06:54:00Z</time>
      </trkpt>
      <trkpt lat="49.3626" lon="4.00156">
        <ele>79.45</ele>
        <time>2017-08-06T06:54:18Z</time>
      </trkpt>
      <trkpt lat="49.36193" lon="4.00045">
        <ele>79.45</ele>
        <time>2017-08-06T06:54:36Z</time>
      </trkpt>
      <trkpt lat="49.36126" lon="3.99937">
        <ele>79.45</ele>
        <time>2017-08-06T06:54:54Z</time>
      </trkpt>
      <trkpt lat="49.36113" lon="3.99916">
        <ele>79.45</ele>
        <time>2017-08-06T06:54:58Z</time>
      </trkpt>
      <trkpt lat="49.3611" lon="3.99911">
        <ele>79.45</ele>
        <time>2017-08-06T06:54:59Z</time>
      </trkpt>
      <trkpt lat="49.36107" lon="3.99905">
        <ele>79.45</ele>
        <time>2017-08-06T06:55:00Z</time>
      </trkpt>
      <trkpt lat="49.36071" lon="3.99845">
        <ele>79.45</ele>
        <time>2017-08-06T06:55:12Z</time>
      </trkpt>
      <trkpt lat="49.36039" lon="3.99748">
        <ele>79.45</ele>
        <time>2017-08-06T06:55:26Z</time>
      </trkpt>
      <trkpt lat="49.36009" lon="3.99603">
        <ele>79.45</ele>
        <time>2017-08-06T06:55:45Z</time>
      </trkpt>
      <trkpt lat="49.3598" lon="3.99462">
        <ele>79.93</ele>
        <time>2017-08-06T06:56:05Z</time>
      </trkpt>
      <trkpt lat="49.35961" lon="3.99382">
        <ele>79.93</ele>
        <time>2017-08-06T06:56:20Z</time>
      </trkpt>
      <trkpt lat="49.35962" lon="3.99367">
        <ele>79.93</ele>
        <time>2017-08-06T06:56:23Z</time>
      </trkpt>
      <trkpt lat="49.35964" lon="3.99364">
        <ele>79.93</ele>
        <time>2017-08-06T06:56:24Z</time>
      </trkpt>
      <trkpt lat="49.35967" lon="3.99363">
        <ele>79.93</ele>
        <time>2017-08-06T06:56:25Z</time>
      </trkpt>
      <trkpt lat="49.3597" lon="3.99362">
        <ele>79.93</ele>
        <time>2017-08-06T06:56:26Z</time>
      </trkpt>
      <trkpt lat="49.35973" lon="3.99362">
        <ele>79.93</ele>
        <time>2017-08-06T06:56:27Z</time>
      </trkpt>
      <trkpt lat="49.35994" lon="3.99348">
        <ele>79.93</ele>
        <time>2017-08-06T06:56:36Z</time>
      </trkpt>
      <trkpt lat="49.35988" lon="3.99345">
        <ele>79.93</ele>
        <time>2017-08-06T06:56:49Z</time>
      </trkpt>
      <trkpt lat="49.35987" lon="3.99346">
        <ele>79.93</ele>
        <time>2017-08-06T06:56:50Z</time>
      </trkpt>
      <trkpt lat="49.35982" lon="3.9935">
        <ele>79.93</ele>
        <time>2017-08-06T06:57:08Z</time>
      </trkpt>
      <trkpt lat="49.35984" lon="3.9935">
        <ele>80.41</ele>
        <time>2017-08-06T06:57:42Z</time>
      </trkpt>
      <trkpt lat="49.35984" lon="3.99349">
        <ele>80.41</ele>
        <time>2017-08-06T06:58:15Z</time>
      </trkpt>
      <trkpt lat="49.35985" lon="3.99348">
        <ele>80.41</ele>
        <time>2017-08-06T06:58:48Z</time>
      </trkpt>
      <trkpt lat="49.35985" lon="3.9935">
        <ele>80.41</ele>
        <time>2017-08-06T06:59:13Z</time>
      </trkpt>
      <trkpt lat="49.35984" lon="3.9935">
        <ele>80.89</ele>
        <time>2017-08-06T06:59:40Z</time>
      </trkpt>
      <trkpt lat="49.35983" lon="3.9935">
        <ele>80.89</ele>
        <time>2017-08-06T07:00:15Z</time>
      </trkpt>
      <trkpt lat="49.35983" lon="3.9935">
        <ele>80.89</ele>
        <time>2017-08-06T07:00:43Z</time>
      </trkpt>
      <trkpt lat="49.35985" lon="3.99349">
        <ele>80.89</ele>
        <time>2017-08-06T07:01:07Z</time>
      </trkpt>
      <trkpt lat="49.35988" lon="3.99347">
        <ele>80.89</ele>
        <time>2017-08-06T07:01:12Z</time>
      </trkpt>
      <trkpt lat="49.35991" lon="3.99345">
        <ele>80.89</ele>
        <time>2017-08-06T07:01:15Z</time>
      </trkpt>
      <trkpt lat="49.35992" lon="3.99345">
        <ele>80.89</ele>
        <time>2017-08-06T07:01:16Z</time>
      </trkpt>
      <trkpt lat="49.35993" lon="3.99349">
        <ele>80.89</ele>
        <time>2017-08-06T07:01:28Z</time>
      </trkpt>
      <trkpt lat="49.3599" lon="3.99353">
        <ele>80.89</ele>
        <time>2017-08-06T07:01:34Z</time>
      </trkpt>
      <trkpt lat="49.35989" lon="3.99353">
        <ele>80.89</ele>
        <time>2017-08-06T07:01:35Z</time>
      </trkpt>
      <trkpt lat="49.35955" lon="3.99361">
        <ele>80.89</ele>
        <time>2017-08-06T07:01:47Z</time>
      </trkpt>
      <trkpt lat="49.3592" lon="3.99351">
        <ele>79.45</ele>
        <time>2017-08-06T07:01:55Z</time>
      </trkpt>
      <trkpt lat="49.35842" lon="3.99334">
        <ele>79.45</ele>
        <time>2017-08-06T07:02:12Z</time>
      </trkpt>
      <trkpt lat="49.35785" lon="3.9932">
        <ele>79.45</ele>
        <time>2017-08-06T07:02:25Z</time>
      </trkpt>
      <trkpt lat="49.35772" lon="3.99318">
        <ele>79.45</ele>
        <time>2017-08-06T07:02:28Z</time>
      </trkpt>
      <trkpt lat="49.35767" lon="3.99316">
        <ele>79.45</ele>
        <time>2017-08-06T07:02:29Z</time>
      </trkpt>
      <trkpt lat="49.35721" lon="3.99303">
        <ele>79.45</ele>
        <time>2017-08-06T07:02:41Z</time>
      </trkpt>
      <trkpt lat="49.35719" lon="3.99299">
        <ele>79.45</ele>
        <time>2017-08-06T07:02:42Z</time>
      </trkpt>
      <trkpt lat="49.35718" lon="3.99294">
        <ele>79.45</ele>
        <time>2017-08-06T07:02:43Z</time>
      </trkpt>
      <trkpt lat="49.35717" lon="3.9929">
        <ele>79.45</ele>
        <time>2017-08-06T07:02:44Z</time>
      </trkpt>
      <trkpt lat="49.35717" lon="3.99284">
        <ele>79.45</ele>
        <time>2017-08-06T07:02:45Z</time>
      </trkpt>
      <trkpt lat="49.35716" lon="3.99279">
        <ele>79.45</ele>
        <time>2017-08-06T07:02:46Z</time>
      </trkpt>
      <trkpt lat="49.35715" lon="3.99273">
        <ele>79.45</ele>
        <time>2017-08-06T07:02:47Z</time>
      </trkpt>
      <trkpt lat="49.35705" lon="3.99169">
        <ele>81.37</ele>
        <time>2017-08-06T07:03:05Z</time>
      </trkpt>
      <trkpt lat="49.35697" lon="3.99074">
        <ele>82.33</ele>
        <time>2017-08-06T07:03:21Z</time>
      </trkpt>
      <trkpt lat="49.3569" lon="3.9898">
        <ele>83.29</ele>
        <time>2017-08-06T07:03:39Z</time>
      </trkpt>
      <trkpt lat="49.35682" lon="3.98886">
        <ele>84.25</ele>
        <time>2017-08-06T07:03:58Z</time>
      </trkpt>
      <trkpt lat="49.35668" lon="3.98801">
        <ele>85.21</ele>
        <time>2017-08-06T07:04:16Z</time>
      </trkpt>
      <trkpt lat="49.35613" lon="3.98769">
        <ele>85.69</ele>
        <time>2017-08-06T07:04:31Z</time>
      </trkpt>
      <trkpt lat="49.35515" lon="3.98719">
        <ele>85.69</ele>
        <time>2017-08-06T07:04:52Z</time>
      </trkpt>
      <trkpt lat="49.35485" lon="3.98704">
        <ele>84.73</ele>
        <time>2017-08-06T07:04:58Z</time>
      </trkpt>
      <trkpt lat="49.35383" lon="3.98646">
        <ele>83.29</ele>
        <time>2017-08-06T07:05:17Z</time>
      </trkpt>
      <trkpt lat="49.35281" lon="3.98565">
        <ele>81.37</ele>
        <time>2017-08-06T07:05:36Z</time>
      </trkpt>
      <trkpt lat="49.35162" lon="3.98464">
        <ele>79.45</ele>
        <time>2017-08-06T07:05:55Z</time>
      </trkpt>
      <trkpt lat="49.35048" lon="3.98367">
        <ele>76.08</ele>
        <time>2017-08-06T07:06:11Z</time>
      </trkpt>
      <trkpt lat="49.34969" lon="3.98298">
        <ele>73.68</ele>
        <time>2017-08-06T07:06:22Z</time>
      </trkpt>
      <trkpt lat="49.34963" lon="3.9829">
        <ele>73.2</ele>
        <time>2017-08-06T07:06:23Z</time>
      </trkpt>
      <trkpt lat="49.34918" lon="3.98223">
        <ele>69.83</ele>
        <time>2017-08-06T07:06:30Z</time>
      </trkpt>
      <trkpt lat="49.34868" lon="3.98159">
        <ele>66.95</ele>
        <time>2017-08-06T07:06:37Z</time>
      </trkpt>
      <trkpt lat="49.34804" lon="3.98104">
        <ele>66.47</ele>
        <time>2017-08-06T07:06:46Z</time>
      </trkpt>
      <trkpt lat="49.34768" lon="3.98075">
        <ele>65.99</ele>
        <time>2017-08-06T07:06:53Z</time>
      </trkpt>
      <trkpt lat="49.34711" lon="3.98025">
        <ele>63.1</ele>
        <time>2017-08-06T07:07:04Z</time>
      </trkpt>
      <trkpt lat="49.34653" lon="3.97981">
        <ele>63.1</ele>
        <time>2017-08-06T07:07:20Z</time>
      </trkpt>
      <trkpt lat="49.34591" lon="3.97934">
        <ele>64.55</ele>
        <time>2017-08-06T07:07:37Z</time>
      </trkpt>
      <trkpt lat="49.34541" lon="3.97897">
        <ele>65.99</ele>
        <time>2017-08-06T07:07:55Z</time>
      </trkpt>
      <trkpt lat="49.34512" lon="3.97871">
        <ele>66.95</ele>
        <time>2017-08-06T07:08:08Z</time>
      </trkpt>
      <trkpt lat="49.34471" lon="3.97833">
        <ele>66.95</ele>
        <time>2017-08-06T07:08:21Z</time>
      </trkpt>
      <trkpt lat="49.34428" lon="3.9779">
        <ele>66.95</ele>
        <time>2017-08-06T07:08:34Z</time>
      </trkpt>
      <trkpt lat="49.34421" lon="3.97788">
        <ele>66.95</ele>
        <time>2017-08-06T07:08:36Z</time>
      </trkpt>
      <trkpt lat="49.34375" lon="3.97814">
        <ele>67.91</ele>
        <time>2017-08-06T07:08:52Z</time>
      </trkpt>
      <trkpt lat="49.34326" lon="3.97845">
        <ele>69.83</ele>
        <time>2017-08-06T07:09:11Z</time>
      </trkpt>
      <trkpt lat="49.34299" lon="3.97901">
        <ele>70.31</ele>
        <time>2017-08-06T07:09:24Z</time>
      </trkpt>
      <trkpt lat="49.34265" lon="3.97973">
        <ele>70.79</ele>
        <time>2017-08-06T07:09:38Z</time>
      </trkpt>
      <trkpt lat="49.3422" lon="3.98073">
        <ele>70.79</ele>
        <time>2017-08-06T07:09:54Z</time>
      </trkpt>
      <trkpt lat="49.3418" lon="3.98165">
        <ele>70.79</ele>
        <time>2017-08-06T07:10:09Z</time>
      </trkpt>
      <trkpt lat="49.34148" lon="3.98235">
        <ele>71.27</ele>
        <time>2017-08-06T07:10:21Z</time>
      </trkpt>
      <trkpt lat="49.34121" lon="3.98299">
        <ele>71.76</ele>
        <time>2017-08-06T07:10:32Z</time>
      </trkpt>
      <trkpt lat="49.34082" lon="3.98386">
        <ele>72.24</ele>
        <time>2017-08-06T07:10:47Z</time>
      </trkpt>
      <trkpt lat="49.34077" lon="3.98398">
        <ele>72.24</ele>
        <time>2017-08-06T07:10:49Z</time>
      </trkpt>
      <trkpt lat="49.34066" lon="3.98417">
        <ele>72.72</ele>
        <time>2017-08-06T07:10:55Z</time>
      </trkpt>
      <trkpt lat="49.34064" lon="3.98417">
        <ele>72.72</ele>
        <time>2017-08-06T07:10:56Z</time>
      </trkpt>
      <trkpt lat="49.34061" lon="3.98415">
        <ele>72.72</ele>
        <time>2017-08-06T07:10:57Z</time>
      </trkpt>
      <trkpt lat="49.3406" lon="3.98414">
        <ele>72.72</ele>
        <time>2017-08-06T07:10:58Z</time>
      </trkpt>
      <trkpt lat="49.34058" lon="3.98411">
        <ele>72.72</ele>
        <time>2017-08-06T07:10:59Z</time>
      </trkpt>
      <trkpt lat="49.34016" lon="3.98349">
        <ele>72.72</ele>
        <time>2017-08-06T07:11:15Z</time>
      </trkpt>
      <trkpt lat="49.33965" lon="3.9827">
        <ele>72.72</ele>
        <time>2017-08-06T07:11:32Z</time>
      </trkpt>
      <trkpt lat="49.3391" lon="3.98185">
        <ele>73.2</ele>
        <time>2017-08-06T07:11:50Z</time>
      </trkpt>
      <trkpt lat="49.33837" lon="3.98074">
        <ele>74.16</ele>
        <time>2017-08-06T07:12:14Z</time>
      </trkpt>
      <trkpt lat="49.33775" lon="3.97972">
        <ele>74.16</ele>
        <time>2017-08-06T07:12:32Z</time>
      </trkpt>
      <trkpt lat="49.3371" lon="3.97865">
        <ele>74.16</ele>
        <time>2017-08-06T07:12:53Z</time>
      </trkpt>
      <trkpt lat="49.33656" lon="3.97775">
        <ele>75.6</ele>
        <time>2017-08-06T07:13:13Z</time>
      </trkpt>
      <trkpt lat="49.33612" lon="3.97701">
        <ele>76.08</ele>
        <time>2017-08-06T07:13:30Z</time>
      </trkpt>
      <trkpt lat="49.3358" lon="3.97649">
        <ele>77.04</ele>
        <time>2017-08-06T07:13:42Z</time>
      </trkpt>
      <trkpt lat="49.33537" lon="3.97577">
        <ele>78</ele>
        <time>2017-08-06T07:13:58Z</time>
      </trkpt>
      <trkpt lat="49.33477" lon="3.97478">
        <ele>78.97</ele>
        <time>2017-08-06T07:14:19Z</time>
      </trkpt>
      <trkpt lat="49.33414" lon="3.97367">
        <ele>78.97</ele>
        <time>2017-08-06T07:14:38Z</time>
      </trkpt>
      <trkpt lat="49.33366" lon="3.97245">
        <ele>78.97</ele>
        <time>2017-08-06T07:14:57Z</time>
      </trkpt>
      <trkpt lat="49.33326" lon="3.97134">
        <ele>78.97</ele>
        <time>2017-08-06T07:15:16Z</time>
      </trkpt>
      <trkpt lat="49.3329" lon="3.97038">
        <ele>78.97</ele>
        <time>2017-08-06T07:15:31Z</time>
      </trkpt>
      <trkpt lat="49.33241" lon="3.96908">
        <ele>78.97</ele>
        <time>2017-08-06T07:15:51Z</time>
      </trkpt>
      <trkpt lat="49.332" lon="3.96798">
        <ele>78.97</ele>
        <time>2017-08-06T07:16:08Z</time>
      </trkpt>
      <trkpt lat="49.33162" lon="3.96696">
        <ele>79.93</ele>
        <time>2017-08-06T07:16:26Z</time>
      </trkpt>
      <trkpt lat="49.33132" lon="3.96614">
        <ele>81.37</ele>
        <time>2017-08-06T07:16:44Z</time>
      </trkpt>
      <trkpt lat="49.33101" lon="3.96533">
        <ele>83.29</ele>
        <time>2017-08-06T07:17:03Z</time>
      </trkpt>
      <trkpt lat="49.33081" lon="3.96474">
        <ele>85.69</ele>
        <time>2017-08-06T07:17:22Z</time>
      </trkpt>
      <trkpt lat="49.33079" lon="3.96421">
        <ele>86.66</ele>
        <time>2017-08-06T07:17:35Z</time>
      </trkpt>
      <trkpt lat="49.33058" lon="3.96384">
        <ele>87.14</ele>
        <time>2017-08-06T07:17:44Z</time>
      </trkpt>
      <trkpt lat="49.33057" lon="3.96378">
        <ele>87.14</ele>
        <time>2017-08-06T07:17:45Z</time>
      </trkpt>
      <trkpt lat="49.33046" lon="3.96324">
        <ele>84.73</ele>
        <time>2017-08-06T07:17:52Z</time>
      </trkpt>
      <trkpt lat="49.33026" lon="3.9616">
        <ele>82.33</ele>
        <time>2017-08-06T07:18:09Z</time>
      </trkpt>
      <trkpt lat="49.33007" lon="3.96014">
        <ele>82.33</ele>
        <time>2017-08-06T07:18:25Z</time>
      </trkpt>
      <trkpt lat="49.32987" lon="3.95865">
        <ele>83.77</ele>
        <time>2017-08-06T07:18:44Z</time>
      </trkpt>
      <trkpt lat="49.32966" lon="3.95701">
        <ele>84.25</ele>
        <time>2017-08-06T07:19:05Z</time>
      </trkpt>
      <trkpt lat="49.32959" lon="3.95556">
        <ele>85.21</ele>
        <time>2017-08-06T07:19:25Z</time>
      </trkpt>
      <trkpt lat="49.32964" lon="3.95417">
        <ele>85.69</ele>
        <time>2017-08-06T07:19:46Z</time>
      </trkpt>
      <trkpt lat="49.32965" lon="3.95286">
        <ele>86.66</ele>
        <time>2017-08-06T07:20:07Z</time>
      </trkpt>
      <trkpt lat="49.3296" lon="3.95152">
        <ele>87.62</ele>
        <time>2017-08-06T07:20:29Z</time>
      </trkpt>
      <trkpt lat="49.3295" lon="3.95046">
        <ele>89.54</ele>
        <time>2017-08-06T07:20:48Z</time>
      </trkpt>
      <trkpt lat="49.32938" lon="3.94924">
        <ele>91.46</ele>
        <time>2017-08-06T07:21:12Z</time>
      </trkpt>
      <trkpt lat="49.32929" lon="3.9484">
        <ele>92.42</ele>
        <time>2017-08-06T07:21:29Z</time>
      </trkpt>
      <trkpt lat="49.32919" lon="3.9476">
        <ele>93.87</ele>
        <time>2017-08-06T07:21:46Z</time>
      </trkpt>
      <trkpt lat="49.32905" lon="3.947">
        <ele>95.31</ele>
        <time>2017-08-06T07:22:00Z</time>
      </trkpt>
      <trkpt lat="49.32887" lon="3.94642">
        <ele>97.71</ele>
        <time>2017-08-06T07:22:17Z</time>
      </trkpt>
      <trkpt lat="49.32875" lon="3.94602">
        <ele>99.15</ele>
        <time>2017-08-06T07:22:31Z</time>
      </trkpt>
      <trkpt lat="49.32858" lon="3.94541">
        <ele>101.08</ele>
        <time>2017-08-06T07:22:49Z</time>
      </trkpt>
      <trkpt lat="49.32841" lon="3.94482">
        <ele>103.48</ele>
        <time>2017-08-06T07:23:07Z</time>
      </trkpt>
      <trkpt lat="49.32826" lon="3.94426">
        <ele>105.88</ele>
        <time>2017-08-06T07:23:24Z</time>
      </trkpt>
      <trkpt lat="49.3281" lon="3.94368">
        <ele>107.32</ele>
        <time>2017-08-06T07:23:41Z</time>
      </trkpt>
      <trkpt lat="49.32803" lon="3.94352">
        <ele>107.32</ele>
        <time>2017-08-06T07:23:46Z</time>
      </trkpt>
      <trkpt lat="49.32801" lon="3.94351">
        <ele>107.32</ele>
        <time>2017-08-06T07:23:47Z</time>
      </trkpt>
      <trkpt lat="49.32799" lon="3.94349">
        <ele>107.81</ele>
        <time>2017-08-06T07:23:48Z</time>
      </trkpt>
      <trkpt lat="49.32796" lon="3.94347">
        <ele>107.81</ele>
        <time>2017-08-06T07:23:49Z</time>
      </trkpt>
      <trkpt lat="49.32795" lon="3.94345">
        <ele>107.81</ele>
        <time>2017-08-06T07:23:50Z</time>
      </trkpt>
      <trkpt lat="49.32794" lon="3.94344">
        <ele>107.81</ele>
        <time>2017-08-06T07:23:51Z</time>
      </trkpt>
      <trkpt lat="49.3278" lon="3.94324">
        <ele>108.29</ele>
        <time>2017-08-06T07:23:59Z</time>
      </trkpt>
      <trkpt lat="49.32777" lon="3.94324">
        <ele>108.29</ele>
        <time>2017-08-06T07:24:00Z</time>
      </trkpt>
      <trkpt lat="49.32775" lon="3.94325">
        <ele>108.29</ele>
        <time>2017-08-06T07:24:01Z</time>
      </trkpt>
      <trkpt lat="49.32771" lon="3.94339">
        <ele>108.29</ele>
        <time>2017-08-06T07:24:09Z</time>
      </trkpt>
      <trkpt lat="49.32773" lon="3.94336">
        <ele>108.29</ele>
        <time>2017-08-06T07:24:29Z</time>
      </trkpt>
      <trkpt lat="49.32769" lon="3.94337">
        <ele>108.29</ele>
        <time>2017-08-06T07:25:02Z</time>
      </trkpt>
      <trkpt lat="49.32772" lon="3.94334">
        <ele>108.29</ele>
        <time>2017-08-06T07:25:36Z</time>
      </trkpt>
      <trkpt lat="49.32775" lon="3.94334">
        <ele>108.29</ele>
        <time>2017-08-06T07:26:06Z</time>
      </trkpt>
      <trkpt lat="49.32768" lon="3.94337">
        <ele>108.29</ele>
        <time>2017-08-06T07:26:39Z</time>
      </trkpt>
      <trkpt lat="49.32771" lon="3.94331">
        <ele>108.29</ele>
        <time>2017-08-06T07:27:14Z</time>
      </trkpt>
      <trkpt lat="49.32766" lon="3.94335">
        <ele>108.29</ele>
        <time>2017-08-06T07:27:51Z</time>
      </trkpt>
      <trkpt lat="49.32771" lon="3.94335">
        <ele>108.29</ele>
        <time>2017-08-06T07:28:31Z</time>
      </trkpt>
      <trkpt lat="49.32769" lon="3.94337">
        <ele>108.29</ele>
        <time>2017-08-06T07:29:00Z</time>
      </trkpt>
      <trkpt lat="49.32773" lon="3.94333">
        <ele>108.29</ele>
        <time>2017-08-06T07:29:37Z</time>
      </trkpt>
      <trkpt lat="49.32771" lon="3.94332">
        <ele>108.77</ele>
        <time>2017-08-06T07:30:12Z</time>
      </trkpt>
      <trkpt lat="49.32772" lon="3.94328">
        <ele>108.77</ele>
        <time>2017-08-06T07:30:38Z</time>
      </trkpt>
      <trkpt lat="49.32773" lon="3.94327">
        <ele>108.77</ele>
        <time>2017-08-06T07:30:39Z</time>
      </trkpt>
      <trkpt lat="49.32776" lon="3.94326">
        <ele>108.77</ele>
        <time>2017-08-06T07:30:42Z</time>
      </trkpt>
      <trkpt lat="49.32776" lon="3.94314">
        <ele>108.77</ele>
        <time>2017-08-06T07:30:46Z</time>
      </trkpt>
      <trkpt lat="49.3279" lon="3.94281">
        <ele>108.77</ele>
        <time>2017-08-06T07:30:56Z</time>
      </trkpt>
      <trkpt lat="49.32793" lon="3.94279">
        <ele>108.77</ele>
        <time>2017-08-06T07:30:57Z</time>
      </trkpt>
      <trkpt lat="49.32794" lon="3.94277">
        <ele>108.77</ele>
        <time>2017-08-06T07:30:58Z</time>
      </trkpt>
      <trkpt lat="49.32796" lon="3.94273">
        <ele>108.77</ele>
        <time>2017-08-06T07:30:59Z</time>
      </trkpt>
      <trkpt lat="49.32798" lon="3.94268">
        <ele>108.77</ele>
        <time>2017-08-06T07:31:00Z</time>
      </trkpt>
      <trkpt lat="49.32798" lon="3.94264">
        <ele>108.77</ele>
        <time>2017-08-06T07:31:01Z</time>
      </trkpt>
      <trkpt lat="49.32799" lon="3.94259">
        <ele>108.77</ele>
        <time>2017-08-06T07:31:02Z</time>
      </trkpt>
      <trkpt lat="49.328" lon="3.94254">
        <ele>108.77</ele>
        <time>2017-08-06T07:31:03Z</time>
      </trkpt>
      <trkpt lat="49.328" lon="3.94249">
        <ele>108.77</ele>
        <time>2017-08-06T07:31:04Z</time>
      </trkpt>
      <trkpt lat="49.32794" lon="3.94172">
        <ele>109.73</ele>
        <time>2017-08-06T07:31:20Z</time>
      </trkpt>
      <trkpt lat="49.32786" lon="3.94076">
        <ele>109.73</ele>
        <time>2017-08-06T07:31:34Z</time>
      </trkpt>
      <trkpt lat="49.32784" lon="3.94034">
        <ele>108.29</ele>
        <time>2017-08-06T07:31:39Z</time>
      </trkpt>
      <trkpt lat="49.32787" lon="3.93871">
        <ele>106.36</ele>
        <time>2017-08-06T07:31:56Z</time>
      </trkpt>
      <trkpt lat="49.3279" lon="3.9378">
        <ele>104.92</ele>
        <time>2017-08-06T07:32:05Z</time>
      </trkpt>
      <trkpt lat="49.32796" lon="3.93712">
        <ele>103.96</ele>
        <time>2017-08-06T07:32:12Z</time>
      </trkpt>
      <trkpt lat="49.328" lon="3.93694">
        <ele>103.48</ele>
        <time>2017-08-06T07:32:14Z</time>
      </trkpt>
      <trkpt lat="49.32804" lon="3.93677">
        <ele>103.48</ele>
        <time>2017-08-06T07:32:16Z</time>
      </trkpt>
      <trkpt lat="49.32814" lon="3.93639">
        <ele>103.48</ele>
        <time>2017-08-06T07:32:21Z</time>
      </trkpt>
      <trkpt lat="49.32814" lon="3.93632">
        <ele>103.48</ele>
        <time>2017-08-06T07:32:22Z</time>
      </trkpt>
      <trkpt lat="49.32813" lon="3.93625">
        <ele>103.48</ele>
        <time>2017-08-06T07:32:23Z</time>
      </trkpt>
      <trkpt lat="49.32811" lon="3.93618">
        <ele>103.48</ele>
        <time>2017-08-06T07:32:24Z</time>
      </trkpt>
      <trkpt lat="49.32808" lon="3.93614">
        <ele>103.48</ele>
        <time>2017-08-06T07:32:25Z</time>
      </trkpt>
      <trkpt lat="49.32805" lon="3.9361">
        <ele>103.48</ele>
        <time>2017-08-06T07:32:26Z</time>
      </trkpt>
      <trkpt lat="49.32802" lon="3.93606">
        <ele>103.48</ele>
        <time>2017-08-06T07:32:27Z</time>
      </trkpt>
      <trkpt lat="49.32792" lon="3.93595">
        <ele>103.48</ele>
        <time>2017-08-06T07:32:30Z</time>
      </trkpt>
      <trkpt lat="49.32789" lon="3.93592">
        <ele>103.48</ele>
        <time>2017-08-06T07:32:31Z</time>
      </trkpt>
      <trkpt lat="49.32786" lon="3.93588">
        <ele>103.48</ele>
        <time>2017-08-06T07:32:32Z</time>
      </trkpt>
      <trkpt lat="49.32749" lon="3.93541">
        <ele>103.48</ele>
        <time>2017-08-06T07:32:45Z</time>
      </trkpt>
      <trkpt lat="49.32718" lon="3.93497">
        <ele>105.4</ele>
        <time>2017-08-06T07:32:57Z</time>
      </trkpt>
      <trkpt lat="49.32689" lon="3.93457">
        <ele>105.4</ele>
        <time>2017-08-06T07:33:08Z</time>
      </trkpt>
      <trkpt lat="49.32665" lon="3.93421">
        <ele>105.4</ele>
        <time>2017-08-06T07:33:18Z</time>
      </trkpt>
      <trkpt lat="49.32629" lon="3.93378">
        <ele>105.4</ele>
        <time>2017-08-06T07:33:30Z</time>
      </trkpt>
      <trkpt lat="49.3262" lon="3.93364">
        <ele>105.4</ele>
        <time>2017-08-06T07:33:33Z</time>
      </trkpt>
      <trkpt lat="49.32579" lon="3.93315">
        <ele>105.4</ele>
        <time>2017-08-06T07:33:45Z</time>
      </trkpt>
      <trkpt lat="49.32535" lon="3.93306">
        <ele>106.84</ele>
        <time>2017-08-06T07:34:00Z</time>
      </trkpt>
      <trkpt lat="49.32498" lon="3.9328">
        <ele>108.77</ele>
        <time>2017-08-06T07:34:15Z</time>
      </trkpt>
      <trkpt lat="49.32446" lon="3.93227">
        <ele>108.77</ele>
        <time>2017-08-06T07:34:34Z</time>
      </trkpt>
      <trkpt lat="49.32401" lon="3.93181">
        <ele>109.25</ele>
        <time>2017-08-06T07:34:48Z</time>
      </trkpt>
      <trkpt lat="49.32345" lon="3.9314">
        <ele>110.21</ele>
        <time>2017-08-06T07:35:06Z</time>
      </trkpt>
      <trkpt lat="49.32311" lon="3.9313">
        <ele>111.17</ele>
        <time>2017-08-06T07:35:20Z</time>
      </trkpt>
      <trkpt lat="49.32269" lon="3.93123">
        <ele>113.09</ele>
        <time>2017-08-06T07:35:37Z</time>
      </trkpt>
      <trkpt lat="49.32233" lon="3.93108">
        <ele>115.01</ele>
        <time>2017-08-06T07:35:54Z</time>
      </trkpt>
      <trkpt lat="49.32198" lon="3.93076">
        <ele>117.42</ele>
        <time>2017-08-06T07:36:14Z</time>
      </trkpt>
      <trkpt lat="49.32168" lon="3.93047">
        <ele>119.34</ele>
        <time>2017-08-06T07:36:33Z</time>
      </trkpt>
      <trkpt lat="49.32147" lon="3.93026">
        <ele>121.26</ele>
        <time>2017-08-06T07:36:46Z</time>
      </trkpt>
      <trkpt lat="49.32121" lon="3.92999">
        <ele>122.71</ele>
        <time>2017-08-06T07:37:03Z</time>
      </trkpt>
      <trkpt lat="49.32113" lon="3.9299">
        <ele>123.67</ele>
        <time>2017-08-06T07:37:09Z</time>
      </trkpt>
      <trkpt lat="49.32111" lon="3.92989">
        <ele>123.67</ele>
        <time>2017-08-06T07:37:10Z</time>
      </trkpt>
      <trkpt lat="49.32109" lon="3.92988">
        <ele>123.67</ele>
        <time>2017-08-06T07:37:11Z</time>
      </trkpt>
      <trkpt lat="49.32108" lon="3.92988">
        <ele>124.15</ele>
        <time>2017-08-06T07:37:12Z</time>
      </trkpt>
      <trkpt lat="49.32106" lon="3.92988">
        <ele>124.15</ele>
        <time>2017-08-06T07:37:13Z</time>
      </trkpt>
      <trkpt lat="49.32093" lon="3.93">
        <ele>125.11</ele>
        <time>2017-08-06T07:37:24Z</time>
      </trkpt>
      <trkpt lat="49.32073" lon="3.93029">
        <ele>127.03</ele>
        <time>2017-08-06T07:37:39Z</time>
      </trkpt>
      <trkpt lat="49.32057" lon="3.93053">
        <ele>127.99</ele>
        <time>2017-08-06T07:37:52Z</time>
      </trkpt>
      <trkpt lat="49.32043" lon="3.93067">
        <ele>130.88</ele>
        <time>2017-08-06T07:38:05Z</time>
      </trkpt>
      <trkpt lat="49.32039" lon="3.93073">
        <ele>131.84</ele>
        <time>2017-08-06T07:38:10Z</time>
      </trkpt>
      <trkpt lat="49.32027" lon="3.93087">
        <ele>132.8</ele>
        <time>2017-08-06T07:38:18Z</time>
      </trkpt>
      <trkpt lat="49.32024" lon="3.93091">
        <ele>132.8</ele>
        <time>2017-08-06T07:38:19Z</time>
      </trkpt>
      <trkpt lat="49.32022" lon="3.93093">
        <ele>132.8</ele>
        <time>2017-08-06T07:38:20Z</time>
      </trkpt>
      <trkpt lat="49.3202" lon="3.93095">
        <ele>133.28</ele>
        <time>2017-08-06T07:38:21Z</time>
      </trkpt>
      <trkpt lat="49.32018" lon="3.93097">
        <ele>133.28</ele>
        <time>2017-08-06T07:38:22Z</time>
      </trkpt>
      <trkpt lat="49.32017" lon="3.93099">
        <ele>133.28</ele>
        <time>2017-08-06T07:38:23Z</time>
      </trkpt>
      <trkpt lat="49.32015" lon="3.93101">
        <ele>133.28</ele>
        <time>2017-08-06T07:38:24Z</time>
      </trkpt>
      <trkpt lat="49.32014" lon="3.93103">
        <ele>133.28</ele>
        <time>2017-08-06T07:38:25Z</time>
      </trkpt>
      <trkpt lat="49.32013" lon="3.93105">
        <ele>133.28</ele>
        <time>2017-08-06T07:38:26Z</time>
      </trkpt>
      <trkpt lat="49.32011" lon="3.93107">
        <ele>133.76</ele>
        <time>2017-08-06T07:38:27Z</time>
      </trkpt>
      <trkpt lat="49.32" lon="3.93125">
        <ele>135.2</ele>
        <time>2017-08-06T07:38:37Z</time>
      </trkpt>
      <trkpt lat="49.31998" lon="3.93128">
        <ele>135.68</ele>
        <time>2017-08-06T07:38:39Z</time>
      </trkpt>
      <trkpt lat="49.31997" lon="3.9313">
        <ele>136.16</ele>
        <time>2017-08-06T07:38:40Z</time>
      </trkpt>
      <trkpt lat="49.31995" lon="3.93131">
        <ele>136.16</ele>
        <time>2017-08-06T07:38:41Z</time>
      </trkpt>
      <trkpt lat="49.31994" lon="3.93133">
        <ele>136.16</ele>
        <time>2017-08-06T07:38:42Z</time>
      </trkpt>
      <trkpt lat="49.31993" lon="3.93135">
        <ele>137.13</ele>
        <time>2017-08-06T07:38:43Z</time>
      </trkpt>
      <trkpt lat="49.31992" lon="3.93138">
        <ele>137.13</ele>
        <time>2017-08-06T07:38:44Z</time>
      </trkpt>
      <trkpt lat="49.3199" lon="3.93141">
        <ele>137.61</ele>
        <time>2017-08-06T07:38:46Z</time>
      </trkpt>
      <trkpt lat="49.31989" lon="3.93143">
        <ele>137.61</ele>
        <time>2017-08-06T07:38:47Z</time>
      </trkpt>
      <trkpt lat="49.3197" lon="3.93166">
        <ele>140.49</ele>
        <time>2017-08-06T07:39:02Z</time>
      </trkpt>
      <trkpt lat="49.31969" lon="3.93167">
        <ele>140.49</ele>
        <time>2017-08-06T07:39:03Z</time>
      </trkpt>
      <trkpt lat="49.31957" lon="3.93181">
        <ele>142.41</ele>
        <time>2017-08-06T07:39:12Z</time>
      </trkpt>
      <trkpt lat="49.31956" lon="3.93183">
        <ele>143.37</ele>
        <time>2017-08-06T07:39:13Z</time>
      </trkpt>
      <trkpt lat="49.31954" lon="3.93187">
        <ele>143.37</ele>
        <time>2017-08-06T07:39:15Z</time>
      </trkpt>
      <trkpt lat="49.31952" lon="3.93188">
        <ele>143.85</ele>
        <time>2017-08-06T07:39:16Z</time>
      </trkpt>
      <trkpt lat="49.31951" lon="3.93189">
        <ele>143.85</ele>
        <time>2017-08-06T07:39:17Z</time>
      </trkpt>
      <trkpt lat="49.3195" lon="3.93191">
        <ele>143.85</ele>
        <time>2017-08-06T07:39:18Z</time>
      </trkpt>
      <trkpt lat="49.31949" lon="3.93192">
        <ele>143.85</ele>
        <time>2017-08-06T07:39:19Z</time>
      </trkpt>
      <trkpt lat="49.31948" lon="3.93194">
        <ele>144.34</ele>
        <time>2017-08-06T07:39:20Z</time>
      </trkpt>
      <trkpt lat="49.31936" lon="3.9321">
        <ele>145.3</ele>
        <time>2017-08-06T07:39:31Z</time>
      </trkpt>
      <trkpt lat="49.31921" lon="3.93232">
        <ele>147.7</ele>
        <time>2017-08-06T07:39:44Z</time>
      </trkpt>
      <trkpt lat="49.31915" lon="3.93239">
        <ele>148.18</ele>
        <time>2017-08-06T07:39:49Z</time>
      </trkpt>
      <trkpt lat="49.31907" lon="3.93248">
        <ele>149.14</ele>
        <time>2017-08-06T07:39:56Z</time>
      </trkpt>
      <trkpt lat="49.31906" lon="3.93249">
        <ele>149.62</ele>
        <time>2017-08-06T07:39:57Z</time>
      </trkpt>
      <trkpt lat="49.31904" lon="3.9325">
        <ele>149.62</ele>
        <time>2017-08-06T07:39:58Z</time>
      </trkpt>
      <trkpt lat="49.31892" lon="3.93266">
        <ele>152.03</ele>
        <time>2017-08-06T07:40:09Z</time>
      </trkpt>
      <trkpt lat="49.31875" lon="3.9329">
        <ele>155.39</ele>
        <time>2017-08-06T07:40:21Z</time>
      </trkpt>
      <trkpt lat="49.31869" lon="3.93302">
        <ele>156.83</ele>
        <time>2017-08-06T07:40:28Z</time>
      </trkpt>
      <trkpt lat="49.31869" lon="3.93305">
        <ele>157.31</ele>
        <time>2017-08-06T07:40:29Z</time>
      </trkpt>
      <trkpt lat="49.31865" lon="3.93323">
        <ele>159.72</ele>
        <time>2017-08-06T07:40:38Z</time>
      </trkpt>
      <trkpt lat="49.31862" lon="3.93351">
        <ele>162.12</ele>
        <time>2017-08-06T07:40:51Z</time>
      </trkpt>
      <trkpt lat="49.31858" lon="3.9339">
        <ele>164.04</ele>
        <time>2017-08-06T07:41:04Z</time>
      </trkpt>
      <trkpt lat="49.31858" lon="3.93393">
        <ele>164.04</ele>
        <time>2017-08-06T07:41:05Z</time>
      </trkpt>
      <trkpt lat="49.31858" lon="3.93396">
        <ele>164.04</ele>
        <time>2017-08-06T07:41:06Z</time>
      </trkpt>
      <trkpt lat="49.31858" lon="3.93399">
        <ele>164.04</ele>
        <time>2017-08-06T07:41:07Z</time>
      </trkpt>
      <trkpt lat="49.31858" lon="3.93401">
        <ele>165</ele>
        <time>2017-08-06T07:41:08Z</time>
      </trkpt>
      <trkpt lat="49.31858" lon="3.93404">
        <ele>165</ele>
        <time>2017-08-06T07:41:09Z</time>
      </trkpt>
      <trkpt lat="49.31858" lon="3.93406">
        <ele>165</ele>
        <time>2017-08-06T07:41:10Z</time>
      </trkpt>
      <trkpt lat="49.31858" lon="3.93424">
        <ele>166.45</ele>
        <time>2017-08-06T07:41:17Z</time>
      </trkpt>
      <trkpt lat="49.31859" lon="3.93427">
        <ele>166.45</ele>
        <time>2017-08-06T07:41:18Z</time>
      </trkpt>
      <trkpt lat="49.31859" lon="3.93429">
        <ele>166.45</ele>
        <time>2017-08-06T07:41:19Z</time>
      </trkpt>
      <trkpt lat="49.31859" lon="3.93431">
        <ele>167.41</ele>
        <time>2017-08-06T07:41:20Z</time>
      </trkpt>
      <trkpt lat="49.3186" lon="3.93434">
        <ele>167.41</ele>
        <time>2017-08-06T07:41:21Z</time>
      </trkpt>
      <trkpt lat="49.3186" lon="3.93436">
        <ele>167.89</ele>
        <time>2017-08-06T07:41:22Z</time>
      </trkpt>
      <trkpt lat="49.3186" lon="3.93438">
        <ele>167.89</ele>
        <time>2017-08-06T07:41:23Z</time>
      </trkpt>
      <trkpt lat="49.3186" lon="3.9344">
        <ele>168.37</ele>
        <time>2017-08-06T07:41:24Z</time>
      </trkpt>
      <trkpt lat="49.3186" lon="3.93444">
        <ele>168.37</ele>
        <time>2017-08-06T07:41:26Z</time>
      </trkpt>
      <trkpt lat="49.31857" lon="3.93461">
        <ele>169.81</ele>
        <time>2017-08-06T07:41:38Z</time>
      </trkpt>
      <trkpt lat="49.31851" lon="3.93487">
        <ele>172.21</ele>
        <time>2017-08-06T07:41:56Z</time>
      </trkpt>
      <trkpt lat="49.31844" lon="3.93511">
        <ele>175.1</ele>
        <time>2017-08-06T07:42:12Z</time>
      </trkpt>
      <trkpt lat="49.31834" lon="3.93533">
        <ele>177.02</ele>
        <time>2017-08-06T07:42:28Z</time>
      </trkpt>
      <trkpt lat="49.31827" lon="3.93542">
        <ele>178.46</ele>
        <time>2017-08-06T07:42:38Z</time>
      </trkpt>
      <trkpt lat="49.31823" lon="3.93545">
        <ele>178.46</ele>
        <time>2017-08-06T07:42:52Z</time>
      </trkpt>
      <trkpt lat="49.31823" lon="3.93549">
        <ele>178.94</ele>
        <time>2017-08-06T07:43:16Z</time>
      </trkpt>
      <trkpt lat="49.31819" lon="3.93544">
        <ele>178.94</ele>
        <time>2017-08-06T07:43:22Z</time>
      </trkpt>
      <trkpt lat="49.31817" lon="3.9354">
        <ele>178.94</ele>
        <time>2017-08-06T07:43:24Z</time>
      </trkpt>
      <trkpt lat="49.31816" lon="3.93538">
        <ele>178.94</ele>
        <time>2017-08-06T07:43:25Z</time>
      </trkpt>
      <trkpt lat="49.31814" lon="3.93536">
        <ele>178.94</ele>
        <time>2017-08-06T07:43:26Z</time>
      </trkpt>
      <trkpt lat="49.31812" lon="3.93535">
        <ele>178.94</ele>
        <time>2017-08-06T07:43:27Z</time>
      </trkpt>
      <trkpt lat="49.31811" lon="3.93534">
        <ele>178.94</ele>
        <time>2017-08-06T07:43:28Z</time>
      </trkpt>
      <trkpt lat="49.31809" lon="3.93532">
        <ele>178.94</ele>
        <time>2017-08-06T07:43:29Z</time>
      </trkpt>
      <trkpt lat="49.31808" lon="3.9353">
        <ele>178.94</ele>
        <time>2017-08-06T07:43:30Z</time>
      </trkpt>
      <trkpt lat="49.31788" lon="3.93504">
        <ele>180.38</ele>
        <time>2017-08-06T07:43:41Z</time>
      </trkpt>
      <trkpt lat="49.31755" lon="3.93472">
        <ele>180.38</ele>
        <time>2017-08-06T07:43:55Z</time>
      </trkpt>
      <trkpt lat="49.31724" lon="3.93455">
        <ele>181.83</ele>
        <time>2017-08-06T07:44:07Z</time>
      </trkpt>
      <trkpt lat="49.31685" lon="3.93436">
        <ele>182.31</ele>
        <time>2017-08-06T07:44:21Z</time>
      </trkpt>
      <trkpt lat="49.31641" lon="3.9343">
        <ele>183.27</ele>
        <time>2017-08-06T07:44:34Z</time>
      </trkpt>
      <trkpt lat="49.31605" lon="3.93423">
        <ele>184.23</ele>
        <time>2017-08-06T07:44:46Z</time>
      </trkpt>
      <trkpt lat="49.31559" lon="3.93412">
        <ele>185.19</ele>
        <time>2017-08-06T07:45:00Z</time>
      </trkpt>
      <trkpt lat="49.31518" lon="3.93402">
        <ele>185.67</ele>
        <time>2017-08-06T07:45:11Z</time>
      </trkpt>
      <trkpt lat="49.31489" lon="3.93401">
        <ele>185.67</ele>
        <time>2017-08-06T07:45:18Z</time>
      </trkpt>
      <trkpt lat="49.31467" lon="3.93397">
        <ele>185.67</ele>
        <time>2017-08-06T07:45:23Z</time>
      </trkpt>
      <trkpt lat="49.31463" lon="3.93396">
        <ele>185.67</ele>
        <time>2017-08-06T07:45:24Z</time>
      </trkpt>
      <trkpt lat="49.31454" lon="3.93394">
        <ele>185.67</ele>
        <time>2017-08-06T07:45:26Z</time>
      </trkpt>
      <trkpt lat="49.3145" lon="3.93393">
        <ele>185.67</ele>
        <time>2017-08-06T07:45:27Z</time>
      </trkpt>
      <trkpt lat="49.31419" lon="3.93387">
        <ele>185.67</ele>
        <time>2017-08-06T07:45:34Z</time>
      </trkpt>
      <trkpt lat="49.31414" lon="3.93386">
        <ele>185.67</ele>
        <time>2017-08-06T07:45:35Z</time>
      </trkpt>
      <trkpt lat="49.31396" lon="3.93382">
        <ele>185.67</ele>
        <time>2017-08-06T07:45:39Z</time>
      </trkpt>
      <trkpt lat="49.31391" lon="3.93381">
        <ele>185.67</ele>
        <time>2017-08-06T07:45:40Z</time>
      </trkpt>
      <trkpt lat="49.31386" lon="3.93379">
        <ele>185.67</ele>
        <time>2017-08-06T07:45:41Z</time>
      </trkpt>
      <trkpt lat="49.31381" lon="3.93378">
        <ele>185.67</ele>
        <time>2017-08-06T07:45:42Z</time>
      </trkpt>
      <trkpt lat="49.31377" lon="3.93377">
        <ele>185.67</ele>
        <time>2017-08-06T07:45:43Z</time>
      </trkpt>
      <trkpt lat="49.31372" lon="3.93377">
        <ele>185.67</ele>
        <time>2017-08-06T07:45:44Z</time>
      </trkpt>
      <trkpt lat="49.31368" lon="3.93376">
        <ele>185.67</ele>
        <time>2017-08-06T07:45:45Z</time>
      </trkpt>
      <trkpt lat="49.31364" lon="3.93375">
        <ele>185.67</ele>
        <time>2017-08-06T07:45:46Z</time>
      </trkpt>
      <trkpt lat="49.3136" lon="3.93374">
        <ele>185.67</ele>
        <time>2017-08-06T07:45:47Z</time>
      </trkpt>
      <trkpt lat="49.31357" lon="3.93374">
        <ele>185.67</ele>
        <time>2017-08-06T07:45:48Z</time>
      </trkpt>
      <trkpt lat="49.31353" lon="3.93373">
        <ele>185.67</ele>
        <time>2017-08-06T07:45:49Z</time>
      </trkpt>
      <trkpt lat="49.31341" lon="3.93373">
        <ele>185.67</ele>
        <time>2017-08-06T07:45:52Z</time>
      </trkpt>
      <trkpt lat="49.31337" lon="3.93373">
        <ele>185.67</ele>
        <time>2017-08-06T07:45:53Z</time>
      </trkpt>
      <trkpt lat="49.31298" lon="3.93375">
        <ele>185.67</ele>
        <time>2017-08-06T07:46:03Z</time>
      </trkpt>
      <trkpt lat="49.31282" lon="3.93378">
        <ele>185.67</ele>
        <time>2017-08-06T07:46:07Z</time>
      </trkpt>
      <trkpt lat="49.31278" lon="3.93377">
        <ele>185.67</ele>
        <time>2017-08-06T07:46:08Z</time>
      </trkpt>
      <trkpt lat="49.31273" lon="3.93377">
        <ele>185.67</ele>
        <time>2017-08-06T07:46:09Z</time>
      </trkpt>
      <trkpt lat="49.31269" lon="3.93377">
        <ele>185.67</ele>
        <time>2017-08-06T07:46:10Z</time>
      </trkpt>
      <trkpt lat="49.31265" lon="3.93376">
        <ele>185.67</ele>
        <time>2017-08-06T07:46:11Z</time>
      </trkpt>
      <trkpt lat="49.31261" lon="3.93376">
        <ele>185.67</ele>
        <time>2017-08-06T07:46:12Z</time>
      </trkpt>
      <trkpt lat="49.31258" lon="3.93375">
        <ele>185.67</ele>
        <time>2017-08-06T07:46:13Z</time>
      </trkpt>
      <trkpt lat="49.31254" lon="3.93374">
        <ele>185.67</ele>
        <time>2017-08-06T07:46:14Z</time>
      </trkpt>
      <trkpt lat="49.31251" lon="3.93375">
        <ele>186.15</ele>
        <time>2017-08-06T07:46:15Z</time>
      </trkpt>
      <trkpt lat="49.31246" lon="3.93375">
        <ele>186.15</ele>
        <time>2017-08-06T07:46:16Z</time>
      </trkpt>
      <trkpt lat="49.31203" lon="3.93372">
        <ele>186.15</ele>
        <time>2017-08-06T07:46:27Z</time>
      </trkpt>
      <trkpt lat="49.31155" lon="3.93373">
        <ele>187.59</ele>
        <time>2017-08-06T07:46:40Z</time>
      </trkpt>
      <trkpt lat="49.31111" lon="3.93375">
        <ele>188.56</ele>
        <time>2017-08-06T07:46:53Z</time>
      </trkpt>
      <trkpt lat="49.31061" lon="3.93374">
        <ele>189.52</ele>
        <time>2017-08-06T07:47:09Z</time>
      </trkpt>
      <trkpt lat="49.31012" lon="3.93373">
        <ele>190.48</ele>
        <time>2017-08-06T07:47:23Z</time>
      </trkpt>
      <trkpt lat="49.30963" lon="3.93375">
        <ele>191.44</ele>
        <time>2017-08-06T07:47:37Z</time>
      </trkpt>
      <trkpt lat="49.30933" lon="3.93374">
        <ele>191.92</ele>
        <time>2017-08-06T07:47:45Z</time>
      </trkpt>
      <trkpt lat="49.30908" lon="3.93375">
        <ele>191.92</ele>
        <time>2017-08-06T07:47:51Z</time>
      </trkpt>
      <trkpt lat="49.30904" lon="3.93375">
        <ele>191.92</ele>
        <time>2017-08-06T07:47:52Z</time>
      </trkpt>
      <trkpt lat="49.309" lon="3.93376">
        <ele>191.92</ele>
        <time>2017-08-06T07:47:53Z</time>
      </trkpt>
      <trkpt lat="49.30896" lon="3.93376">
        <ele>192.4</ele>
        <time>2017-08-06T07:47:54Z</time>
      </trkpt>
      <trkpt lat="49.30892" lon="3.93376">
        <ele>192.4</ele>
        <time>2017-08-06T07:47:55Z</time>
      </trkpt>
      <trkpt lat="49.30888" lon="3.93377">
        <ele>192.4</ele>
        <time>2017-08-06T07:47:56Z</time>
      </trkpt>
      <trkpt lat="49.30884" lon="3.93377">
        <ele>192.4</ele>
        <time>2017-08-06T07:47:57Z</time>
      </trkpt>
      <trkpt lat="49.3088" lon="3.93377">
        <ele>192.4</ele>
        <time>2017-08-06T07:47:58Z</time>
      </trkpt>
      <trkpt lat="49.30877" lon="3.93377">
        <ele>192.4</ele>
        <time>2017-08-06T07:47:59Z</time>
      </trkpt>
      <trkpt lat="49.30846" lon="3.93376">
        <ele>192.4</ele>
        <time>2017-08-06T07:48:06Z</time>
      </trkpt>
      <trkpt lat="49.30837" lon="3.93374">
        <ele>192.4</ele>
        <time>2017-08-06T07:48:08Z</time>
      </trkpt>
      <trkpt lat="49.30795" lon="3.93375">
        <ele>192.4</ele>
        <time>2017-08-06T07:48:17Z</time>
      </trkpt>
      <trkpt lat="49.3079" lon="3.93376">
        <ele>192.4</ele>
        <time>2017-08-06T07:48:18Z</time>
      </trkpt>
      <trkpt lat="49.30785" lon="3.93376">
        <ele>192.4</ele>
        <time>2017-08-06T07:48:19Z</time>
      </trkpt>
      <trkpt lat="49.3078" lon="3.93376">
        <ele>192.4</ele>
        <time>2017-08-06T07:48:20Z</time>
      </trkpt>
      <trkpt lat="49.30775" lon="3.93374">
        <ele>192.4</ele>
        <time>2017-08-06T07:48:21Z</time>
      </trkpt>
      <trkpt lat="49.30771" lon="3.93372">
        <ele>192.4</ele>
        <time>2017-08-06T07:48:22Z</time>
      </trkpt>
      <trkpt lat="49.30765" lon="3.9337">
        <ele>192.4</ele>
        <time>2017-08-06T07:48:23Z</time>
      </trkpt>
      <trkpt lat="49.30761" lon="3.93369">
        <ele>192.4</ele>
        <time>2017-08-06T07:48:24Z</time>
      </trkpt>
      <trkpt lat="49.30757" lon="3.93367">
        <ele>192.4</ele>
        <time>2017-08-06T07:48:25Z</time>
      </trkpt>
      <trkpt lat="49.30753" lon="3.93365">
        <ele>192.4</ele>
        <time>2017-08-06T07:48:26Z</time>
      </trkpt>
      <trkpt lat="49.30744" lon="3.93359">
        <ele>192.4</ele>
        <time>2017-08-06T07:48:28Z</time>
      </trkpt>
      <trkpt lat="49.30733" lon="3.93347">
        <ele>192.4</ele>
        <time>2017-08-06T07:48:31Z</time>
      </trkpt>
      <trkpt lat="49.30729" lon="3.93342">
        <ele>192.4</ele>
        <time>2017-08-06T07:48:32Z</time>
      </trkpt>
      <trkpt lat="49.30725" lon="3.93339">
        <ele>192.4</ele>
        <time>2017-08-06T07:48:33Z</time>
      </trkpt>
      <trkpt lat="49.30721" lon="3.93335">
        <ele>192.4</ele>
        <time>2017-08-06T07:48:34Z</time>
      </trkpt>
      <trkpt lat="49.30717" lon="3.93331">
        <ele>192.4</ele>
        <time>2017-08-06T07:48:35Z</time>
      </trkpt>
      <trkpt lat="49.30713" lon="3.93326">
        <ele>192.4</ele>
        <time>2017-08-06T07:48:36Z</time>
      </trkpt>
      <trkpt lat="49.30666" lon="3.93269">
        <ele>192.4</ele>
        <time>2017-08-06T07:48:48Z</time>
      </trkpt>
      <trkpt lat="49.30645" lon="3.93244">
        <ele>192.4</ele>
        <time>2017-08-06T07:48:53Z</time>
      </trkpt>
      <trkpt lat="49.30631" lon="3.9323">
        <ele>192.4</ele>
        <time>2017-08-06T07:48:56Z</time>
      </trkpt>
      <trkpt lat="49.30627" lon="3.93224">
        <ele>192.4</ele>
        <time>2017-08-06T07:48:57Z</time>
      </trkpt>
      <trkpt lat="49.30623" lon="3.93218">
        <ele>190.96</ele>
        <time>2017-08-06T07:48:58Z</time>
      </trkpt>
      <trkpt lat="49.30602" lon="3.93195">
        <ele>190.96</ele>
        <time>2017-08-06T07:49:03Z</time>
      </trkpt>
      <trkpt lat="49.30586" lon="3.93178">
        <ele>190.96</ele>
        <time>2017-08-06T07:49:07Z</time>
      </trkpt>
      <trkpt lat="49.30582" lon="3.93172">
        <ele>190.96</ele>
        <time>2017-08-06T07:49:08Z</time>
      </trkpt>
      <trkpt lat="49.30579" lon="3.93169">
        <ele>190.96</ele>
        <time>2017-08-06T07:49:09Z</time>
      </trkpt>
      <trkpt lat="49.3054" lon="3.93155">
        <ele>190.96</ele>
        <time>2017-08-06T07:49:18Z</time>
      </trkpt>
      <trkpt lat="49.30535" lon="3.93156">
        <ele>190.96</ele>
        <time>2017-08-06T07:49:19Z</time>
      </trkpt>
      <trkpt lat="49.30518" lon="3.93159">
        <ele>190.96</ele>
        <time>2017-08-06T07:49:23Z</time>
      </trkpt>
      <trkpt lat="49.30514" lon="3.9316">
        <ele>190.96</ele>
        <time>2017-08-06T07:49:24Z</time>
      </trkpt>
      <trkpt lat="49.30509" lon="3.93161">
        <ele>190.96</ele>
        <time>2017-08-06T07:49:25Z</time>
      </trkpt>
      <trkpt lat="49.30496" lon="3.93163">
        <ele>190.96</ele>
        <time>2017-08-06T07:49:28Z</time>
      </trkpt>
      <trkpt lat="49.30466" lon="3.93168">
        <ele>190.96</ele>
        <time>2017-08-06T07:49:35Z</time>
      </trkpt>
      <trkpt lat="49.30461" lon="3.93168">
        <ele>190.96</ele>
        <time>2017-08-06T07:49:36Z</time>
      </trkpt>
      <trkpt lat="49.30452" lon="3.93169">
        <ele>190.96</ele>
        <time>2017-08-06T07:49:38Z</time>
      </trkpt>
      <trkpt lat="49.30444" lon="3.93171">
        <ele>190.96</ele>
        <time>2017-08-06T07:49:40Z</time>
      </trkpt>
      <trkpt lat="49.30439" lon="3.9317">
        <ele>190.96</ele>
        <time>2017-08-06T07:49:41Z</time>
      </trkpt>
      <trkpt lat="49.30426" lon="3.93168">
        <ele>190.96</ele>
        <time>2017-08-06T07:49:44Z</time>
      </trkpt>
      <trkpt lat="49.30422" lon="3.93168">
        <ele>190.96</ele>
        <time>2017-08-06T07:49:45Z</time>
      </trkpt>
      <trkpt lat="49.30417" lon="3.93169">
        <ele>190.96</ele>
        <time>2017-08-06T07:49:46Z</time>
      </trkpt>
      <trkpt lat="49.30413" lon="3.9317">
        <ele>190.96</ele>
        <time>2017-08-06T07:49:47Z</time>
      </trkpt>
      <trkpt lat="49.30408" lon="3.93172">
        <ele>190.96</ele>
        <time>2017-08-06T07:49:48Z</time>
      </trkpt>
      <trkpt lat="49.30403" lon="3.93173">
        <ele>190.96</ele>
        <time>2017-08-06T07:49:49Z</time>
      </trkpt>
      <trkpt lat="49.30393" lon="3.93175">
        <ele>190.96</ele>
        <time>2017-08-06T07:49:51Z</time>
      </trkpt>
      <trkpt lat="49.30349" lon="3.93172">
        <ele>191.92</ele>
        <time>2017-08-06T07:50:02Z</time>
      </trkpt>
      <trkpt lat="49.3032" lon="3.93162">
        <ele>193.36</ele>
        <time>2017-08-06T07:50:13Z</time>
      </trkpt>
      <trkpt lat="49.3029" lon="3.93143">
        <ele>195.28</ele>
        <time>2017-08-06T07:50:26Z</time>
      </trkpt>
      <trkpt lat="49.30268" lon="3.93124">
        <ele>196.73</ele>
        <time>2017-08-06T07:50:36Z</time>
      </trkpt>
      <trkpt lat="49.30233" lon="3.931">
        <ele>195.28</ele>
        <time>2017-08-06T07:50:45Z</time>
      </trkpt>
      <trkpt lat="49.30224" lon="3.93095">
        <ele>195.28</ele>
        <time>2017-08-06T07:50:47Z</time>
      </trkpt>
      <trkpt lat="49.30195" lon="3.93086">
        <ele>194.8</ele>
        <time>2017-08-06T07:50:53Z</time>
      </trkpt>
      <trkpt lat="49.3019" lon="3.93085">
        <ele>194.32</ele>
        <time>2017-08-06T07:50:54Z</time>
      </trkpt>
      <trkpt lat="49.30181" lon="3.93083">
        <ele>194.32</ele>
        <time>2017-08-06T07:50:56Z</time>
      </trkpt>
      <trkpt lat="49.30176" lon="3.93083">
        <ele>194.32</ele>
        <time>2017-08-06T07:50:57Z</time>
      </trkpt>
      <trkpt lat="49.30171" lon="3.93084">
        <ele>194.32</ele>
        <time>2017-08-06T07:50:58Z</time>
      </trkpt>
      <trkpt lat="49.30162" lon="3.93089">
        <ele>194.32</ele>
        <time>2017-08-06T07:51:00Z</time>
      </trkpt>
      <trkpt lat="49.30157" lon="3.93092">
        <ele>194.32</ele>
        <time>2017-08-06T07:51:01Z</time>
      </trkpt>
      <trkpt lat="49.30153" lon="3.93096">
        <ele>193.84</ele>
        <time>2017-08-06T07:51:02Z</time>
      </trkpt>
      <trkpt lat="49.30146" lon="3.93104">
        <ele>193.84</ele>
        <time>2017-08-06T07:51:04Z</time>
      </trkpt>
      <trkpt lat="49.30141" lon="3.93105">
        <ele>193.84</ele>
        <time>2017-08-06T07:51:05Z</time>
      </trkpt>
      <trkpt lat="49.30137" lon="3.93104">
        <ele>193.84</ele>
        <time>2017-08-06T07:51:06Z</time>
      </trkpt>
      <trkpt lat="49.30134" lon="3.93101">
        <ele>193.84</ele>
        <time>2017-08-06T07:51:07Z</time>
      </trkpt>
      <trkpt lat="49.3013" lon="3.93097">
        <ele>193.36</ele>
        <time>2017-08-06T07:51:08Z</time>
      </trkpt>
      <trkpt lat="49.30127" lon="3.93092">
        <ele>193.36</ele>
        <time>2017-08-06T07:51:09Z</time>
      </trkpt>
      <trkpt lat="49.30124" lon="3.93087">
        <ele>193.36</ele>
        <time>2017-08-06T07:51:10Z</time>
      </trkpt>
      <trkpt lat="49.3012" lon="3.93082">
        <ele>193.36</ele>
        <time>2017-08-06T07:51:11Z</time>
      </trkpt>
      <trkpt lat="49.30116" lon="3.93077">
        <ele>193.36</ele>
        <time>2017-08-06T07:51:12Z</time>
      </trkpt>
      <trkpt lat="49.30113" lon="3.93072">
        <ele>193.36</ele>
        <time>2017-08-06T07:51:13Z</time>
      </trkpt>
      <trkpt lat="49.30097" lon="3.93051">
        <ele>193.36</ele>
        <time>2017-08-06T07:51:18Z</time>
      </trkpt>
      <trkpt lat="49.30095" lon="3.93045">
        <ele>193.36</ele>
        <time>2017-08-06T07:51:19Z</time>
      </trkpt>
      <trkpt lat="49.30092" lon="3.9304">
        <ele>193.36</ele>
        <time>2017-08-06T07:51:20Z</time>
      </trkpt>
      <trkpt lat="49.30091" lon="3.93033">
        <ele>193.36</ele>
        <time>2017-08-06T07:51:21Z</time>
      </trkpt>
      <trkpt lat="49.30089" lon="3.93027">
        <ele>193.36</ele>
        <time>2017-08-06T07:51:22Z</time>
      </trkpt>
      <trkpt lat="49.30077" lon="3.92941">
        <ele>191.44</ele>
        <time>2017-08-06T07:51:33Z</time>
      </trkpt>
      <trkpt lat="49.30076" lon="3.92931">
        <ele>190.48</ele>
        <time>2017-08-06T07:51:34Z</time>
      </trkpt>
      <trkpt lat="49.30074" lon="3.92921">
        <ele>190.48</ele>
        <time>2017-08-06T07:51:35Z</time>
      </trkpt>
      <trkpt lat="49.30066" lon="3.92883">
        <ele>190.48</ele>
        <time>2017-08-06T07:51:39Z</time>
      </trkpt>
      <trkpt lat="49.30064" lon="3.92876">
        <ele>190.48</ele>
        <time>2017-08-06T07:51:40Z</time>
      </trkpt>
      <trkpt lat="49.30062" lon="3.92871">
        <ele>190.48</ele>
        <time>2017-08-06T07:51:41Z</time>
      </trkpt>
      <trkpt lat="49.3006" lon="3.92868">
        <ele>190.48</ele>
        <time>2017-08-06T07:51:42Z</time>
      </trkpt>
      <trkpt lat="49.30059" lon="3.92866">
        <ele>190.48</ele>
        <time>2017-08-06T07:51:43Z</time>
      </trkpt>
      <trkpt lat="49.30059" lon="3.92863">
        <ele>190.48</ele>
        <time>2017-08-06T07:51:44Z</time>
      </trkpt>
      <trkpt lat="49.30058" lon="3.92858">
        <ele>191.92</ele>
        <time>2017-08-06T07:51:47Z</time>
      </trkpt>
      <trkpt lat="49.30045" lon="3.92833">
        <ele>190.48</ele>
        <time>2017-08-06T07:51:54Z</time>
      </trkpt>
      <trkpt lat="49.30023" lon="3.92793">
        <ele>189.04</ele>
        <time>2017-08-06T07:52:04Z</time>
      </trkpt>
      <trkpt lat="49.30013" lon="3.92782">
        <ele>188.08</ele>
        <time>2017-08-06T07:52:08Z</time>
      </trkpt>
      <trkpt lat="49.3001" lon="3.92783">
        <ele>188.08</ele>
        <time>2017-08-06T07:52:10Z</time>
      </trkpt>
      <trkpt lat="49.30005" lon="3.92803">
        <ele>183.75</ele>
        <time>2017-08-06T07:52:15Z</time>
      </trkpt>
      <trkpt lat="49.29999" lon="3.9282">
        <ele>180.87</ele>
        <time>2017-08-06T07:52:19Z</time>
      </trkpt>
      <trkpt lat="49.29996" lon="3.9282">
        <ele>180.87</ele>
        <time>2017-08-06T07:52:20Z</time>
      </trkpt>
      <trkpt lat="49.29987" lon="3.92815">
        <ele>178.46</ele>
        <time>2017-08-06T07:52:25Z</time>
      </trkpt>
      <trkpt lat="49.29986" lon="3.92814">
        <ele>178.46</ele>
        <time>2017-08-06T07:52:26Z</time>
      </trkpt>
      <trkpt lat="49.29986" lon="3.92812">
        <ele>177.5</ele>
        <time>2017-08-06T07:52:27Z</time>
      </trkpt>
      <trkpt lat="49.29984" lon="3.92804">
        <ele>177.02</ele>
        <time>2017-08-06T07:52:29Z</time>
      </trkpt>
      <trkpt lat="49.29982" lon="3.928">
        <ele>176.06</ele>
        <time>2017-08-06T07:52:30Z</time>
      </trkpt>
      <trkpt lat="49.2997" lon="3.92783">
        <ele>172.21</ele>
        <time>2017-08-06T07:52:33Z</time>
      </trkpt>
      <trkpt lat="49.29966" lon="3.92777">
        <ele>170.77</ele>
        <time>2017-08-06T07:52:34Z</time>
      </trkpt>
      <trkpt lat="49.29961" lon="3.92765">
        <ele>170.29</ele>
        <time>2017-08-06T07:52:36Z</time>
      </trkpt>
      <trkpt lat="49.2996" lon="3.92758">
        <ele>168.85</ele>
        <time>2017-08-06T07:52:37Z</time>
      </trkpt>
      <trkpt lat="49.29959" lon="3.92749">
        <ele>167.41</ele>
        <time>2017-08-06T07:52:38Z</time>
      </trkpt>
      <trkpt lat="49.29954" lon="3.92719">
        <ele>164.04</ele>
        <time>2017-08-06T07:52:41Z</time>
      </trkpt>
      <trkpt lat="49.29949" lon="3.92688">
        <ele>161.16</ele>
        <time>2017-08-06T07:52:44Z</time>
      </trkpt>
      <trkpt lat="49.29938" lon="3.92659">
        <ele>159.24</ele>
        <time>2017-08-06T07:52:47Z</time>
      </trkpt>
      <trkpt lat="49.29934" lon="3.92651">
        <ele>158.27</ele>
        <time>2017-08-06T07:52:48Z</time>
      </trkpt>
      <trkpt lat="49.29927" lon="3.92644">
        <ele>157.31</ele>
        <time>2017-08-06T07:52:49Z</time>
      </trkpt>
      <trkpt lat="49.2992" lon="3.92638">
        <ele>156.35</ele>
        <time>2017-08-06T07:52:50Z</time>
      </trkpt>
      <trkpt lat="49.29912" lon="3.92634">
        <ele>155.39</ele>
        <time>2017-08-06T07:52:51Z</time>
      </trkpt>
      <trkpt lat="49.29904" lon="3.92631">
        <ele>154.43</ele>
        <time>2017-08-06T07:52:52Z</time>
      </trkpt>
      <trkpt lat="49.29873" lon="3.9261">
        <ele>152.03</ele>
        <time>2017-08-06T07:52:56Z</time>
      </trkpt>
      <trkpt lat="49.29867" lon="3.92603">
        <ele>151.06</ele>
        <time>2017-08-06T07:52:57Z</time>
      </trkpt>
      <trkpt lat="49.29841" lon="3.92569">
        <ele>149.14</ele>
        <time>2017-08-06T07:53:02Z</time>
      </trkpt>
      <trkpt lat="49.29834" lon="3.92561">
        <ele>148.66</ele>
        <time>2017-08-06T07:53:09Z</time>
      </trkpt>
      <trkpt lat="49.29832" lon="3.92561">
        <ele>148.66</ele>
        <time>2017-08-06T07:53:12Z</time>
      </trkpt>
      <trkpt lat="49.29831" lon="3.92564">
        <ele>148.66</ele>
        <time>2017-08-06T07:53:14Z</time>
      </trkpt>
      <trkpt lat="49.29831" lon="3.92579">
        <ele>149.14</ele>
        <time>2017-08-06T07:53:24Z</time>
      </trkpt>
      <trkpt lat="49.29831" lon="3.92581">
        <ele>149.14</ele>
        <time>2017-08-06T07:53:25Z</time>
      </trkpt>
      <trkpt lat="49.29829" lon="3.92583">
        <ele>150.1</ele>
        <time>2017-08-06T07:53:29Z</time>
      </trkpt>
      <trkpt lat="49.29829" lon="3.92582">
        <ele>150.1</ele>
        <time>2017-08-06T07:53:30Z</time>
      </trkpt>
      <trkpt lat="49.29833" lon="3.92563">
        <ele>150.1</ele>
        <time>2017-08-06T07:53:36Z</time>
      </trkpt>
      <trkpt lat="49.29832" lon="3.92561">
        <ele>148.66</ele>
        <time>2017-08-06T07:53:38Z</time>
      </trkpt>
      <trkpt lat="49.29832" lon="3.92558">
        <ele>148.66</ele>
        <time>2017-08-06T07:53:59Z</time>
      </trkpt>
      <trkpt lat="49.29831" lon="3.92554">
        <ele>148.66</ele>
        <time>2017-08-06T07:54:05Z</time>
      </trkpt>
      <trkpt lat="49.29829" lon="3.92551">
        <ele>148.66</ele>
        <time>2017-08-06T07:54:06Z</time>
      </trkpt>
      <trkpt lat="49.29826" lon="3.92549">
        <ele>148.18</ele>
        <time>2017-08-06T07:54:07Z</time>
      </trkpt>
      <trkpt lat="49.29798" lon="3.92561">
        <ele>145.78</ele>
        <time>2017-08-06T07:54:16Z</time>
      </trkpt>
      <trkpt lat="49.29755" lon="3.92591">
        <ele>143.85</ele>
        <time>2017-08-06T07:54:27Z</time>
      </trkpt>
      <trkpt lat="49.2975" lon="3.92594">
        <ele>143.85</ele>
        <time>2017-08-06T07:54:28Z</time>
      </trkpt>
      <trkpt lat="49.29706" lon="3.92629">
        <ele>141.45</ele>
        <time>2017-08-06T07:54:41Z</time>
      </trkpt>
      <trkpt lat="49.29697" lon="3.92644">
        <ele>141.45</ele>
        <time>2017-08-06T07:54:47Z</time>
      </trkpt>
      <trkpt lat="49.29694" lon="3.92645">
        <ele>141.45</ele>
        <time>2017-08-06T07:54:48Z</time>
      </trkpt>
      <trkpt lat="49.29691" lon="3.92643">
        <ele>141.45</ele>
        <time>2017-08-06T07:54:49Z</time>
      </trkpt>
      <trkpt lat="49.29689" lon="3.9264">
        <ele>141.45</ele>
        <time>2017-08-06T07:54:50Z</time>
      </trkpt>
      <trkpt lat="49.29688" lon="3.92635">
        <ele>140.97</ele>
        <time>2017-08-06T07:54:51Z</time>
      </trkpt>
      <trkpt lat="49.29687" lon="3.92632">
        <ele>140.97</ele>
        <time>2017-08-06T07:54:52Z</time>
      </trkpt>
      <trkpt lat="49.29685" lon="3.92626">
        <ele>140.97</ele>
        <time>2017-08-06T07:54:54Z</time>
      </trkpt>
      <trkpt lat="49.29682" lon="3.92626">
        <ele>140.97</ele>
        <time>2017-08-06T07:54:55Z</time>
      </trkpt>
      <trkpt lat="49.29681" lon="3.92627">
        <ele>140.97</ele>
        <time>2017-08-06T07:54:56Z</time>
      </trkpt>
      <trkpt lat="49.2968" lon="3.9263">
        <ele>140.97</ele>
        <time>2017-08-06T07:54:57Z</time>
      </trkpt>
      <trkpt lat="49.29681" lon="3.92633">
        <ele>140.97</ele>
        <time>2017-08-06T07:54:58Z</time>
      </trkpt>
      <trkpt lat="49.2968" lon="3.92636">
        <ele>140.97</ele>
        <time>2017-08-06T07:54:59Z</time>
      </trkpt>
      <trkpt lat="49.29679" lon="3.92638">
        <ele>140.97</ele>
        <time>2017-08-06T07:55:00Z</time>
      </trkpt>
      <trkpt lat="49.29678" lon="3.92641">
        <ele>140.97</ele>
        <time>2017-08-06T07:55:01Z</time>
      </trkpt>
      <trkpt lat="49.29676" lon="3.92643">
        <ele>140.97</ele>
        <time>2017-08-06T07:55:02Z</time>
      </trkpt>
      <trkpt lat="49.29673" lon="3.92646">
        <ele>140.97</ele>
        <time>2017-08-06T07:55:03Z</time>
      </trkpt>
      <trkpt lat="49.29671" lon="3.9265">
        <ele>140.97</ele>
        <time>2017-08-06T07:55:04Z</time>
      </trkpt>
      <trkpt lat="49.29669" lon="3.92654">
        <ele>140.97</ele>
        <time>2017-08-06T07:55:05Z</time>
      </trkpt>
      <trkpt lat="49.29654" lon="3.92684">
        <ele>138.57</ele>
        <time>2017-08-06T07:55:10Z</time>
      </trkpt>
      <trkpt lat="49.29651" lon="3.92692">
        <ele>137.61</ele>
        <time>2017-08-06T07:55:11Z</time>
      </trkpt>
      <trkpt lat="49.29639" lon="3.92731">
        <ele>135.68</ele>
        <time>2017-08-06T07:55:15Z</time>
      </trkpt>
      <trkpt lat="49.29621" lon="3.92771">
        <ele>132.8</ele>
        <time>2017-08-06T07:55:19Z</time>
      </trkpt>
      <trkpt lat="49.29616" lon="3.9278">
        <ele>132.8</ele>
        <time>2017-08-06T07:55:20Z</time>
      </trkpt>
      <trkpt lat="49.29613" lon="3.92789">
        <ele>132.32</ele>
        <time>2017-08-06T07:55:21Z</time>
      </trkpt>
      <trkpt lat="49.29603" lon="3.92815">
        <ele>130.88</ele>
        <time>2017-08-06T07:55:26Z</time>
      </trkpt>
      <trkpt lat="49.296" lon="3.92815">
        <ele>130.4</ele>
        <time>2017-08-06T07:55:27Z</time>
      </trkpt>
      <trkpt lat="49.29598" lon="3.92814">
        <ele>130.4</ele>
        <time>2017-08-06T07:55:28Z</time>
      </trkpt>
      <trkpt lat="49.29595" lon="3.92812">
        <ele>130.4</ele>
        <time>2017-08-06T07:55:29Z</time>
      </trkpt>
      <trkpt lat="49.29592" lon="3.92809">
        <ele>130.4</ele>
        <time>2017-08-06T07:55:30Z</time>
      </trkpt>
      <trkpt lat="49.29577" lon="3.92804">
        <ele>129.92</ele>
        <time>2017-08-06T07:55:34Z</time>
      </trkpt>
      <trkpt lat="49.29573" lon="3.92805">
        <ele>129.92</ele>
        <time>2017-08-06T07:55:35Z</time>
      </trkpt>
      <trkpt lat="49.29568" lon="3.92806">
        <ele>129.92</ele>
        <time>2017-08-06T07:55:36Z</time>
      </trkpt>
      <trkpt lat="49.29564" lon="3.92808">
        <ele>129.92</ele>
        <time>2017-08-06T07:55:37Z</time>
      </trkpt>
      <trkpt lat="49.29559" lon="3.92811">
        <ele>129.92</ele>
        <time>2017-08-06T07:55:38Z</time>
      </trkpt>
      <trkpt lat="49.29555" lon="3.92814">
        <ele>129.43</ele>
        <time>2017-08-06T07:55:39Z</time>
      </trkpt>
      <trkpt lat="49.29549" lon="3.92818">
        <ele>129.43</ele>
        <time>2017-08-06T07:55:40Z</time>
      </trkpt>
      <trkpt lat="49.29504" lon="3.92839">
        <ele>127.99</ele>
        <time>2017-08-06T07:55:48Z</time>
      </trkpt>
      <trkpt lat="49.29497" lon="3.92839">
        <ele>127.51</ele>
        <time>2017-08-06T07:55:49Z</time>
      </trkpt>
      <trkpt lat="49.2949" lon="3.92835">
        <ele>127.03</ele>
        <time>2017-08-06T07:55:50Z</time>
      </trkpt>
      <trkpt lat="49.29457" lon="3.92822">
        <ele>125.11</ele>
        <time>2017-08-06T07:55:56Z</time>
      </trkpt>
      <trkpt lat="49.29429" lon="3.92811">
        <ele>121.74</ele>
        <time>2017-08-06T07:56:01Z</time>
      </trkpt>
      <trkpt lat="49.29398" lon="3.92802">
        <ele>118.86</ele>
        <time>2017-08-06T07:56:06Z</time>
      </trkpt>
      <trkpt lat="49.29394" lon="3.92801">
        <ele>118.38</ele>
        <time>2017-08-06T07:56:07Z</time>
      </trkpt>
      <trkpt lat="49.29391" lon="3.92798">
        <ele>117.9</ele>
        <time>2017-08-06T07:56:08Z</time>
      </trkpt>
      <trkpt lat="49.29389" lon="3.92794">
        <ele>117.9</ele>
        <time>2017-08-06T07:56:09Z</time>
      </trkpt>
      <trkpt lat="49.29387" lon="3.92788">
        <ele>117.9</ele>
        <time>2017-08-06T07:56:10Z</time>
      </trkpt>
      <trkpt lat="49.29386" lon="3.92782">
        <ele>117.9</ele>
        <time>2017-08-06T07:56:11Z</time>
      </trkpt>
      <trkpt lat="49.29385" lon="3.92775">
        <ele>117.42</ele>
        <time>2017-08-06T07:56:12Z</time>
      </trkpt>
      <trkpt lat="49.29377" lon="3.92724">
        <ele>116.46</ele>
        <time>2017-08-06T07:56:19Z</time>
      </trkpt>
      <trkpt lat="49.29376" lon="3.92716">
        <ele>115.98</ele>
        <time>2017-08-06T07:56:20Z</time>
      </trkpt>
      <trkpt lat="49.29374" lon="3.92708">
        <ele>115.98</ele>
        <time>2017-08-06T07:56:21Z</time>
      </trkpt>
      <trkpt lat="49.29372" lon="3.927">
        <ele>115.98</ele>
        <time>2017-08-06T07:56:22Z</time>
      </trkpt>
      <trkpt lat="49.2937" lon="3.92692">
        <ele>115.98</ele>
        <time>2017-08-06T07:56:23Z</time>
      </trkpt>
      <trkpt lat="49.29369" lon="3.92683">
        <ele>115.5</ele>
        <time>2017-08-06T07:56:24Z</time>
      </trkpt>
      <trkpt lat="49.29364" lon="3.92665">
        <ele>115.5</ele>
        <time>2017-08-06T07:56:26Z</time>
      </trkpt>
      <trkpt lat="49.2935" lon="3.92617">
        <ele>114.05</ele>
        <time>2017-08-06T07:56:32Z</time>
      </trkpt>
      <trkpt lat="49.29348" lon="3.92609">
        <ele>114.05</ele>
        <time>2017-08-06T07:56:33Z</time>
      </trkpt>
      <trkpt lat="49.29339" lon="3.92579">
        <ele>113.09</ele>
        <time>2017-08-06T07:56:37Z</time>
      </trkpt>
      <trkpt lat="49.29337" lon="3.92571">
        <ele>112.61</ele>
        <time>2017-08-06T07:56:38Z</time>
      </trkpt>
      <trkpt lat="49.29291" lon="3.92432">
        <ele>109.73</ele>
        <time>2017-08-06T07:56:55Z</time>
      </trkpt>
      <trkpt lat="49.29263" lon="3.92352">
        <ele>108.77</ele>
        <time>2017-08-06T07:57:07Z</time>
      </trkpt>
      <trkpt lat="49.29259" lon="3.92345">
        <ele>108.77</ele>
        <time>2017-08-06T07:57:08Z</time>
      </trkpt>
      <trkpt lat="49.29257" lon="3.92341">
        <ele>108.77</ele>
        <time>2017-08-06T07:57:09Z</time>
      </trkpt>
      <trkpt lat="49.29253" lon="3.92336">
        <ele>108.77</ele>
        <time>2017-08-06T07:57:10Z</time>
      </trkpt>
      <trkpt lat="49.2925" lon="3.92331">
        <ele>108.29</ele>
        <time>2017-08-06T07:57:11Z</time>
      </trkpt>
      <trkpt lat="49.29247" lon="3.92325">
        <ele>108.29</ele>
        <time>2017-08-06T07:57:12Z</time>
      </trkpt>
      <trkpt lat="49.29243" lon="3.92319">
        <ele>108.29</ele>
        <time>2017-08-06T07:57:13Z</time>
      </trkpt>
      <trkpt lat="49.29209" lon="3.92257">
        <ele>106.84</ele>
        <time>2017-08-06T07:57:23Z</time>
      </trkpt>
      <trkpt lat="49.29194" lon="3.92225">
        <ele>106.84</ele>
        <time>2017-08-06T07:57:28Z</time>
      </trkpt>
      <trkpt lat="49.29191" lon="3.92218">
        <ele>106.36</ele>
        <time>2017-08-06T07:57:29Z</time>
      </trkpt>
      <trkpt lat="49.29158" lon="3.92114">
        <ele>104.44</ele>
        <time>2017-08-06T07:57:43Z</time>
      </trkpt>
      <trkpt lat="49.29147" lon="3.92082">
        <ele>104.44</ele>
        <time>2017-08-06T07:57:48Z</time>
      </trkpt>
      <trkpt lat="49.29127" lon="3.92023">
        <ele>103</ele>
        <time>2017-08-06T07:57:57Z</time>
      </trkpt>
      <trkpt lat="49.29122" lon="3.92008">
        <ele>103</ele>
        <time>2017-08-06T07:57:59Z</time>
      </trkpt>
      <trkpt lat="49.2912" lon="3.92002">
        <ele>103</ele>
        <time>2017-08-06T07:58:00Z</time>
      </trkpt>
      <trkpt lat="49.29117" lon="3.91995">
        <ele>103</ele>
        <time>2017-08-06T07:58:01Z</time>
      </trkpt>
      <trkpt lat="49.29115" lon="3.91988">
        <ele>103</ele>
        <time>2017-08-06T07:58:02Z</time>
      </trkpt>
      <trkpt lat="49.29113" lon="3.91981">
        <ele>103</ele>
        <time>2017-08-06T07:58:03Z</time>
      </trkpt>
      <trkpt lat="49.29111" lon="3.91973">
        <ele>103</ele>
        <time>2017-08-06T07:58:04Z</time>
      </trkpt>
      <trkpt lat="49.29069" lon="3.91885">
        <ele>101.56</ele>
        <time>2017-08-06T07:58:18Z</time>
      </trkpt>
      <trkpt lat="49.29042" lon="3.91842">
        <ele>99.15</ele>
        <time>2017-08-06T07:58:25Z</time>
      </trkpt>
      <trkpt lat="49.29033" lon="3.91829">
        <ele>98.19</ele>
        <time>2017-08-06T07:58:28Z</time>
      </trkpt>
      <trkpt lat="49.2903" lon="3.91825">
        <ele>97.71</ele>
        <time>2017-08-06T07:58:29Z</time>
      </trkpt>
      <trkpt lat="49.29026" lon="3.91821">
        <ele>97.71</ele>
        <time>2017-08-06T07:58:30Z</time>
      </trkpt>
      <trkpt lat="49.28978" lon="3.91791">
        <ele>94.35</ele>
        <time>2017-08-06T07:58:38Z</time>
      </trkpt>
      <trkpt lat="49.28922" lon="3.91749">
        <ele>93.39</ele>
        <time>2017-08-06T07:58:50Z</time>
      </trkpt>
      <trkpt lat="49.28919" lon="3.91744">
        <ele>93.39</ele>
        <time>2017-08-06T07:58:53Z</time>
      </trkpt>
      <trkpt lat="49.28919" lon="3.91742">
        <ele>93.39</ele>
        <time>2017-08-06T07:58:54Z</time>
      </trkpt>
      <trkpt lat="49.2892" lon="3.91741">
        <ele>93.39</ele>
        <time>2017-08-06T07:59:04Z</time>
      </trkpt>
      <trkpt lat="49.2892" lon="3.91743">
        <ele>93.39</ele>
        <time>2017-08-06T07:59:29Z</time>
      </trkpt>
      <trkpt lat="49.28916" lon="3.91727">
        <ele>93.39</ele>
        <time>2017-08-06T07:59:47Z</time>
      </trkpt>
      <trkpt lat="49.28917" lon="3.91661">
        <ele>93.39</ele>
        <time>2017-08-06T08:00:00Z</time>
      </trkpt>
      <trkpt lat="49.28921" lon="3.91583">
        <ele>95.79</ele>
        <time>2017-08-06T08:00:17Z</time>
      </trkpt>
      <trkpt lat="49.28925" lon="3.91565">
        <ele>95.79</ele>
        <time>2017-08-06T08:00:22Z</time>
      </trkpt>
      <trkpt lat="49.28929" lon="3.91495">
        <ele>96.27</ele>
        <time>2017-08-06T08:00:37Z</time>
      </trkpt>
      <trkpt lat="49.28933" lon="3.91467">
        <ele>94.83</ele>
        <time>2017-08-06T08:00:41Z</time>
      </trkpt>
      <trkpt lat="49.28942" lon="3.91387">
        <ele>92.42</ele>
        <time>2017-08-06T08:00:51Z</time>
      </trkpt>
      <trkpt lat="49.28939" lon="3.91287">
        <ele>90.98</ele>
        <time>2017-08-06T08:01:03Z</time>
      </trkpt>
      <trkpt lat="49.28932" lon="3.91204">
        <ele>89.54</ele>
        <time>2017-08-06T08:01:13Z</time>
      </trkpt>
      <trkpt lat="49.28932" lon="3.91196">
        <ele>89.54</ele>
        <time>2017-08-06T08:01:14Z</time>
      </trkpt>
      <trkpt lat="49.28919" lon="3.91058">
        <ele>86.66</ele>
        <time>2017-08-06T08:01:31Z</time>
      </trkpt>
      <trkpt lat="49.28908" lon="3.9092">
        <ele>83.77</ele>
        <time>2017-08-06T08:01:45Z</time>
      </trkpt>
      <trkpt lat="49.28897" lon="3.90784">
        <ele>80.41</ele>
        <time>2017-08-06T08:01:57Z</time>
      </trkpt>
      <trkpt lat="49.28895" lon="3.9075">
        <ele>79.93</ele>
        <time>2017-08-06T08:02:00Z</time>
      </trkpt>
      <trkpt lat="49.28894" lon="3.90738">
        <ele>79.93</ele>
        <time>2017-08-06T08:02:01Z</time>
      </trkpt>
      <trkpt lat="49.28892" lon="3.90694">
        <ele>78.97</ele>
        <time>2017-08-06T08:02:05Z</time>
      </trkpt>
      <trkpt lat="49.28884" lon="3.9057">
        <ele>77.04</ele>
        <time>2017-08-06T08:02:17Z</time>
      </trkpt>
      <trkpt lat="49.28872" lon="3.90488">
        <ele>76.56</ele>
        <time>2017-08-06T08:02:25Z</time>
      </trkpt>
      <trkpt lat="49.28838" lon="3.90341">
        <ele>75.6</ele>
        <time>2017-08-06T08:02:41Z</time>
      </trkpt>
      <trkpt lat="49.28834" lon="3.902">
        <ele>75.12</ele>
        <time>2017-08-06T08:02:56Z</time>
      </trkpt>
      <trkpt lat="49.28841" lon="3.90154">
        <ele>74.64</ele>
        <time>2017-08-06T08:03:01Z</time>
      </trkpt>
      <trkpt lat="49.28869" lon="3.90037">
        <ele>74.64</ele>
        <time>2017-08-06T08:03:16Z</time>
      </trkpt>
      <trkpt lat="49.2887" lon="3.9003">
        <ele>74.64</ele>
        <time>2017-08-06T08:03:17Z</time>
      </trkpt>
      <trkpt lat="49.28871" lon="3.90022">
        <ele>74.64</ele>
        <time>2017-08-06T08:03:18Z</time>
      </trkpt>
      <trkpt lat="49.28871" lon="3.90014">
        <ele>74.64</ele>
        <time>2017-08-06T08:03:19Z</time>
      </trkpt>
      <trkpt lat="49.28871" lon="3.89997">
        <ele>74.64</ele>
        <time>2017-08-06T08:03:21Z</time>
      </trkpt>
      <trkpt lat="49.28855" lon="3.8987">
        <ele>74.64</ele>
        <time>2017-08-06T08:03:37Z</time>
      </trkpt>
      <trkpt lat="49.28836" lon="3.89767">
        <ele>74.64</ele>
        <time>2017-08-06T08:03:55Z</time>
      </trkpt>
      <trkpt lat="49.28823" lon="3.89695">
        <ele>76.08</ele>
        <time>2017-08-06T08:04:10Z</time>
      </trkpt>
      <trkpt lat="49.28805" lon="3.8959">
        <ele>77.52</ele>
        <time>2017-08-06T08:04:33Z</time>
      </trkpt>
      <trkpt lat="49.28797" lon="3.89539">
        <ele>78</ele>
        <time>2017-08-06T08:04:45Z</time>
      </trkpt>
      <trkpt lat="49.28783" lon="3.89493">
        <ele>78.48</ele>
        <time>2017-08-06T08:04:57Z</time>
      </trkpt>
      <trkpt lat="49.28751" lon="3.89477">
        <ele>78.48</ele>
        <time>2017-08-06T08:05:06Z</time>
      </trkpt>
      <trkpt lat="49.28737" lon="3.89471">
        <ele>77.52</ele>
        <time>2017-08-06T08:05:09Z</time>
      </trkpt>
      <trkpt lat="49.28658" lon="3.89436">
        <ele>74.64</ele>
        <time>2017-08-06T08:05:23Z</time>
      </trkpt>
      <trkpt lat="49.28581" lon="3.89403">
        <ele>73.2</ele>
        <time>2017-08-06T08:05:35Z</time>
      </trkpt>
      <trkpt lat="49.28501" lon="3.89371">
        <ele>70.79</ele>
        <time>2017-08-06T08:05:47Z</time>
      </trkpt>
      <trkpt lat="49.28494" lon="3.89368">
        <ele>70.79</ele>
        <time>2017-08-06T08:05:48Z</time>
      </trkpt>
      <trkpt lat="49.28456" lon="3.89352">
        <ele>70.79</ele>
        <time>2017-08-06T08:05:55Z</time>
      </trkpt>
      <trkpt lat="49.28452" lon="3.89349">
        <ele>70.79</ele>
        <time>2017-08-06T08:05:56Z</time>
      </trkpt>
      <trkpt lat="49.28448" lon="3.89346">
        <ele>70.79</ele>
        <time>2017-08-06T08:05:57Z</time>
      </trkpt>
      <trkpt lat="49.28443" lon="3.89343">
        <ele>70.79</ele>
        <time>2017-08-06T08:05:58Z</time>
      </trkpt>
      <trkpt lat="49.28439" lon="3.89341">
        <ele>70.79</ele>
        <time>2017-08-06T08:05:59Z</time>
      </trkpt>
      <trkpt lat="49.28434" lon="3.89339">
        <ele>70.79</ele>
        <time>2017-08-06T08:06:00Z</time>
      </trkpt>
      <trkpt lat="49.2836" lon="3.89308">
        <ele>70.31</ele>
        <time>2017-08-06T08:06:15Z</time>
      </trkpt>
      <trkpt lat="49.2826" lon="3.89265">
        <ele>69.83</ele>
        <time>2017-08-06T08:06:33Z</time>
      </trkpt>
      <trkpt lat="49.28187" lon="3.89235">
        <ele>69.35</ele>
        <time>2017-08-06T08:06:46Z</time>
      </trkpt>
      <trkpt lat="49.28092" lon="3.89195">
        <ele>69.35</ele>
        <time>2017-08-06T08:07:04Z</time>
      </trkpt>
      <trkpt lat="49.27999" lon="3.89155">
        <ele>68.87</ele>
        <time>2017-08-06T08:07:22Z</time>
      </trkpt>
      <trkpt lat="49.27927" lon="3.89126">
        <ele>68.87</ele>
        <time>2017-08-06T08:07:36Z</time>
      </trkpt>
      <trkpt lat="49.27866" lon="3.891">
        <ele>70.79</ele>
        <time>2017-08-06T08:07:51Z</time>
      </trkpt>
      <trkpt lat="49.27823" lon="3.89084">
        <ele>71.27</ele>
        <time>2017-08-06T08:08:04Z</time>
      </trkpt>
      <trkpt lat="49.27798" lon="3.89075">
        <ele>71.27</ele>
        <time>2017-08-06T08:08:11Z</time>
      </trkpt>
      <trkpt lat="49.2779" lon="3.89071">
        <ele>71.27</ele>
        <time>2017-08-06T08:08:13Z</time>
      </trkpt>
      <trkpt lat="49.27749" lon="3.89054">
        <ele>71.27</ele>
        <time>2017-08-06T08:08:23Z</time>
      </trkpt>
      <trkpt lat="49.27744" lon="3.89054">
        <ele>71.27</ele>
        <time>2017-08-06T08:08:24Z</time>
      </trkpt>
      <trkpt lat="49.27679" lon="3.89055">
        <ele>71.27</ele>
        <time>2017-08-06T08:08:41Z</time>
      </trkpt>
      <trkpt lat="49.27678" lon="3.89053">
        <ele>71.27</ele>
        <time>2017-08-06T08:08:42Z</time>
      </trkpt>
      <trkpt lat="49.27678" lon="3.8905">
        <ele>71.27</ele>
        <time>2017-08-06T08:08:43Z</time>
      </trkpt>
      <trkpt lat="49.27678" lon="3.89047">
        <ele>71.27</ele>
        <time>2017-08-06T08:08:44Z</time>
      </trkpt>
      <trkpt lat="49.27678" lon="3.89044">
        <ele>71.27</ele>
        <time>2017-08-06T08:08:45Z</time>
      </trkpt>
      <trkpt lat="49.27678" lon="3.89041">
        <ele>71.27</ele>
        <time>2017-08-06T08:08:46Z</time>
      </trkpt>
      <trkpt lat="49.27678" lon="3.89038">
        <ele>71.27</ele>
        <time>2017-08-06T08:08:47Z</time>
      </trkpt>
      <trkpt lat="49.27677" lon="3.89034">
        <ele>71.27</ele>
        <time>2017-08-06T08:08:48Z</time>
      </trkpt>
      <trkpt lat="49.27678" lon="3.89029">
        <ele>71.27</ele>
        <time>2017-08-06T08:08:49Z</time>
      </trkpt>
      <trkpt lat="49.27677" lon="3.8898">
        <ele>71.27</ele>
        <time>2017-08-06T08:09:00Z</time>
      </trkpt>
      <trkpt lat="49.27673" lon="3.88978">
        <ele>71.27</ele>
        <time>2017-08-06T08:09:01Z</time>
      </trkpt>
      <trkpt lat="49.2767" lon="3.88979">
        <ele>71.27</ele>
        <time>2017-08-06T08:09:02Z</time>
      </trkpt>
      <trkpt lat="49.27622" lon="3.88981">
        <ele>71.76</ele>
        <time>2017-08-06T08:09:16Z</time>
      </trkpt>
      <trkpt lat="49.27609" lon="3.8898">
        <ele>71.76</ele>
        <time>2017-08-06T08:09:20Z</time>
      </trkpt>
      <trkpt lat="49.27606" lon="3.88977">
        <ele>72.24</ele>
        <time>2017-08-06T08:09:21Z</time>
      </trkpt>
      <trkpt lat="49.27604" lon="3.88973">
        <ele>72.24</ele>
        <time>2017-08-06T08:09:22Z</time>
      </trkpt>
      <trkpt lat="49.27604" lon="3.88969">
        <ele>72.24</ele>
        <time>2017-08-06T08:09:23Z</time>
      </trkpt>
      <trkpt lat="49.27603" lon="3.88965">
        <ele>72.24</ele>
        <time>2017-08-06T08:09:24Z</time>
      </trkpt>
      <trkpt lat="49.27601" lon="3.8896">
        <ele>72.24</ele>
        <time>2017-08-06T08:09:25Z</time>
      </trkpt>
      <trkpt lat="49.27599" lon="3.88957">
        <ele>72.24</ele>
        <time>2017-08-06T08:09:26Z</time>
      </trkpt>
      <trkpt lat="49.27596" lon="3.88955">
        <ele>72.24</ele>
        <time>2017-08-06T08:09:27Z</time>
      </trkpt>
      <trkpt lat="49.27593" lon="3.88954">
        <ele>72.24</ele>
        <time>2017-08-06T08:09:28Z</time>
      </trkpt>
      <trkpt lat="49.2759" lon="3.88953">
        <ele>72.72</ele>
        <time>2017-08-06T08:09:29Z</time>
      </trkpt>
      <trkpt lat="49.27554" lon="3.88954">
        <ele>73.68</ele>
        <time>2017-08-06T08:09:43Z</time>
      </trkpt>
      <trkpt lat="49.27534" lon="3.88949">
        <ele>74.16</ele>
        <time>2017-08-06T08:09:53Z</time>
      </trkpt>
      <trkpt lat="49.27536" lon="3.88953">
        <ele>74.16</ele>
        <time>2017-08-06T08:10:02Z</time>
      </trkpt>
      <trkpt lat="49.27537" lon="3.88951">
        <ele>74.64</ele>
        <time>2017-08-06T08:10:21Z</time>
      </trkpt>
      <trkpt lat="49.2754" lon="3.88947">
        <ele>74.64</ele>
        <time>2017-08-06T08:10:40Z</time>
      </trkpt>
      <trkpt lat="49.27546" lon="3.88947">
        <ele>74.64</ele>
        <time>2017-08-06T08:10:55Z</time>
      </trkpt>
      <trkpt lat="49.27547" lon="3.88947">
        <ele>74.64</ele>
        <time>2017-08-06T08:11:02Z</time>
      </trkpt>
      <trkpt lat="49.27545" lon="3.8894">
        <ele>74.64</ele>
        <time>2017-08-06T08:11:12Z</time>
      </trkpt>
      <trkpt lat="49.2754" lon="3.8894">
        <ele>74.64</ele>
        <time>2017-08-06T08:11:33Z</time>
      </trkpt>
      <trkpt lat="49.27532" lon="3.88939">
        <ele>74.64</ele>
        <time>2017-08-06T08:12:04Z</time>
      </trkpt>
      <trkpt lat="49.27527" lon="3.88943">
        <ele>74.64</ele>
        <time>2017-08-06T08:12:32Z</time>
      </trkpt>
      <trkpt lat="49.27524" lon="3.88948">
        <ele>74.64</ele>
        <time>2017-08-06T08:12:56Z</time>
      </trkpt>
      <trkpt lat="49.2752" lon="3.88943">
        <ele>74.64</ele>
        <time>2017-08-06T08:13:22Z</time>
      </trkpt>
      <trkpt lat="49.27519" lon="3.88947">
        <ele>74.64</ele>
        <time>2017-08-06T08:13:50Z</time>
      </trkpt>
      <trkpt lat="49.27525" lon="3.88947">
        <ele>74.64</ele>
        <time>2017-08-06T08:14:17Z</time>
      </trkpt>
      <trkpt lat="49.27521" lon="3.88944">
        <ele>74.64</ele>
        <time>2017-08-06T08:14:42Z</time>
      </trkpt>
      <trkpt lat="49.27523" lon="3.88957">
        <ele>74.64</ele>
        <time>2017-08-06T08:15:00Z</time>
      </trkpt>
      <trkpt lat="49.27525" lon="3.88954">
        <ele>74.16</ele>
        <time>2017-08-06T08:15:18Z</time>
      </trkpt>
      <trkpt lat="49.27522" lon="3.88956">
        <ele>74.16</ele>
        <time>2017-08-06T08:15:41Z</time>
      </trkpt>
      <trkpt lat="49.2752" lon="3.88956">
        <ele>74.16</ele>
        <time>2017-08-06T08:16:07Z</time>
      </trkpt>
      <trkpt lat="49.27527" lon="3.88974">
        <ele>74.16</ele>
        <time>2017-08-06T08:16:33Z</time>
      </trkpt>
      <trkpt lat="49.27536" lon="3.8897">
        <ele>74.16</ele>
        <time>2017-08-06T08:16:57Z</time>
      </trkpt>
      <trkpt lat="49.27531" lon="3.88973">
        <ele>74.16</ele>
        <time>2017-08-06T08:17:20Z</time>
      </trkpt>
      <trkpt lat="49.27531" lon="3.88956">
        <ele>74.16</ele>
        <time>2017-08-06T08:17:42Z</time>
      </trkpt>
      <trkpt lat="49.27533" lon="3.88952">
        <ele>74.16</ele>
        <time>2017-08-06T08:18:11Z</time>
      </trkpt>
      <trkpt lat="49.27533" lon="3.88948">
        <ele>74.16</ele>
        <time>2017-08-06T08:18:45Z</time>
      </trkpt>
      <trkpt lat="49.27538" lon="3.88939">
        <ele>74.16</ele>
        <time>2017-08-06T08:19:12Z</time>
      </trkpt>
      <trkpt lat="49.27541" lon="3.88946">
        <ele>74.16</ele>
        <time>2017-08-06T08:19:38Z</time>
      </trkpt>
      <trkpt lat="49.27545" lon="3.88946">
        <ele>74.16</ele>
        <time>2017-08-06T08:19:55Z</time>
      </trkpt>
      <trkpt lat="49.2755" lon="3.88946">
        <ele>74.16</ele>
        <time>2017-08-06T08:20:16Z</time>
      </trkpt>
      <trkpt lat="49.27553" lon="3.88947">
        <ele>74.16</ele>
        <time>2017-08-06T08:20:36Z</time>
      </trkpt>
      <trkpt lat="49.27546" lon="3.88961">
        <ele>74.64</ele>
        <time>2017-08-06T08:21:11Z</time>
      </trkpt>
      <trkpt lat="49.27542" lon="3.88957">
        <ele>74.64</ele>
        <time>2017-08-06T08:21:50Z</time>
      </trkpt>
      <trkpt lat="49.27539" lon="3.88961">
        <ele>74.64</ele>
        <time>2017-08-06T08:22:34Z</time>
      </trkpt>
      <trkpt lat="49.27541" lon="3.88952">
        <ele>75.12</ele>
        <time>2017-08-06T08:23:05Z</time>
      </trkpt>
      <trkpt lat="49.27538" lon="3.88955">
        <ele>75.12</ele>
        <time>2017-08-06T08:23:44Z</time>
      </trkpt>
      <trkpt lat="49.27537" lon="3.88953">
        <ele>74.64</ele>
        <time>2017-08-06T08:24:13Z</time>
      </trkpt>
      <trkpt lat="49.27538" lon="3.88953">
        <ele>74.64</ele>
        <time>2017-08-06T08:24:54Z</time>
      </trkpt>
      <trkpt lat="49.27535" lon="3.88952">
        <ele>74.64</ele>
        <time>2017-08-06T08:25:27Z</time>
      </trkpt>
      <trkpt lat="49.27532" lon="3.88956">
        <ele>74.16</ele>
        <time>2017-08-06T08:26:08Z</time>
      </trkpt>
      <trkpt lat="49.27535" lon="3.88958">
        <ele>74.16</ele>
        <time>2017-08-06T08:26:51Z</time>
      </trkpt>
      <trkpt lat="49.27537" lon="3.88959">
        <ele>74.16</ele>
        <time>2017-08-06T08:27:22Z</time>
      </trkpt>
      <trkpt lat="49.27537" lon="3.88962">
        <ele>73.68</ele>
        <time>2017-08-06T08:27:56Z</time>
      </trkpt>
      <trkpt lat="49.27538" lon="3.8897">
        <ele>73.68</ele>
        <time>2017-08-06T08:28:32Z</time>
      </trkpt>
      <trkpt lat="49.27536" lon="3.88967">
        <ele>73.68</ele>
        <time>2017-08-06T08:29:02Z</time>
      </trkpt>
      <trkpt lat="49.27536" lon="3.88966">
        <ele>73.68</ele>
        <time>2017-08-06T08:29:31Z</time>
      </trkpt>
      <trkpt lat="49.2753" lon="3.88963">
        <ele>73.68</ele>
        <time>2017-08-06T08:30:08Z</time>
      </trkpt>
      <trkpt lat="49.2753" lon="3.8896">
        <ele>73.68</ele>
        <time>2017-08-06T08:30:37Z</time>
      </trkpt>
      <trkpt lat="49.27535" lon="3.88962">
        <ele>73.2</ele>
        <time>2017-08-06T08:31:20Z</time>
      </trkpt>
      <trkpt lat="49.27536" lon="3.88964">
        <ele>73.68</ele>
        <time>2017-08-06T08:31:59Z</time>
      </trkpt>
      <trkpt lat="49.27542" lon="3.88968">
        <ele>73.68</ele>
        <time>2017-08-06T08:32:38Z</time>
      </trkpt>
      <trkpt lat="49.27544" lon="3.88967">
        <ele>73.68</ele>
        <time>2017-08-06T08:33:10Z</time>
      </trkpt>
      <trkpt lat="49.27543" lon="3.88966">
        <ele>74.16</ele>
        <time>2017-08-06T08:33:43Z</time>
      </trkpt>
      <trkpt lat="49.27543" lon="3.88962">
        <ele>74.16</ele>
        <time>2017-08-06T08:34:23Z</time>
      </trkpt>
      <trkpt lat="49.27541" lon="3.88967">
        <ele>74.16</ele>
        <time>2017-08-06T08:35:06Z</time>
      </trkpt>
      <trkpt lat="49.27546" lon="3.88955">
        <ele>74.16</ele>
        <time>2017-08-06T08:35:48Z</time>
      </trkpt>
      <trkpt lat="49.27542" lon="3.88953">
        <ele>74.16</ele>
        <time>2017-08-06T08:36:33Z</time>
      </trkpt>
      <trkpt lat="49.27534" lon="3.88952">
        <ele>74.16</ele>
        <time>2017-08-06T08:37:13Z</time>
      </trkpt>
      <trkpt lat="49.27536" lon="3.88948">
        <ele>74.16</ele>
        <time>2017-08-06T08:37:49Z</time>
      </trkpt>
      <trkpt lat="49.27538" lon="3.88951">
        <ele>74.16</ele>
        <time>2017-08-06T08:38:24Z</time>
      </trkpt>
      <trkpt lat="49.27546" lon="3.88945">
        <ele>74.16</ele>
        <time>2017-08-06T08:38:55Z</time>
      </trkpt>
      <trkpt lat="49.27545" lon="3.88947">
        <ele>74.16</ele>
        <time>2017-08-06T08:39:24Z</time>
      </trkpt>
      <trkpt lat="49.27541" lon="3.88946">
        <ele>74.16</ele>
        <time>2017-08-06T08:39:31Z</time>
      </trkpt>
      <trkpt lat="49.2755" lon="3.88954">
        <ele>74.16</ele>
        <time>2017-08-06T08:39:38Z</time>
      </trkpt>
      <trkpt lat="49.2755" lon="3.88958">
        <ele>74.16</ele>
        <time>2017-08-06T08:39:39Z</time>
      </trkpt>
      <trkpt lat="49.27549" lon="3.8896">
        <ele>74.16</ele>
        <time>2017-08-06T08:39:40Z</time>
      </trkpt>
      <trkpt lat="49.27548" lon="3.88961">
        <ele>74.16</ele>
        <time>2017-08-06T08:39:41Z</time>
      </trkpt>
      <trkpt lat="49.27546" lon="3.8896">
        <ele>74.16</ele>
        <time>2017-08-06T08:39:42Z</time>
      </trkpt>
      <trkpt lat="49.27546" lon="3.88957">
        <ele>74.16</ele>
        <time>2017-08-06T08:39:43Z</time>
      </trkpt>
      <trkpt lat="49.27545" lon="3.88955">
        <ele>74.16</ele>
        <time>2017-08-06T08:39:44Z</time>
      </trkpt>
      <trkpt lat="49.27545" lon="3.88951">
        <ele>74.16</ele>
        <time>2017-08-06T08:39:45Z</time>
      </trkpt>
      <trkpt lat="49.27543" lon="3.8893">
        <ele>74.16</ele>
        <time>2017-08-06T08:39:51Z</time>
      </trkpt>
      <trkpt lat="49.2754" lon="3.88938">
        <ele>74.16</ele>
        <time>2017-08-06T08:39:57Z</time>
      </trkpt>
      <trkpt lat="49.2754" lon="3.88941">
        <ele>74.16</ele>
        <time>2017-08-06T08:39:58Z</time>
      </trkpt>
      <trkpt lat="49.27535" lon="3.88986">
        <ele>74.16</ele>
        <time>2017-08-06T08:40:10Z</time>
      </trkpt>
      <trkpt lat="49.27496" lon="3.88989">
        <ele>75.12</ele>
        <time>2017-08-06T08:40:24Z</time>
      </trkpt>
      <trkpt lat="49.27452" lon="3.88992">
        <ele>76.56</ele>
        <time>2017-08-06T08:40:41Z</time>
      </trkpt>
      <trkpt lat="49.27398" lon="3.88996">
        <ele>78.48</ele>
        <time>2017-08-06T08:41:01Z</time>
      </trkpt>
      <trkpt lat="49.2736" lon="3.88999">
        <ele>79.93</ele>
        <time>2017-08-06T08:41:15Z</time>
      </trkpt>
      <trkpt lat="49.27321" lon="3.89001">
        <ele>82.33</ele>
        <time>2017-08-06T08:41:32Z</time>
      </trkpt>
      <trkpt lat="49.27296" lon="3.89003">
        <ele>85.21</ele>
        <time>2017-08-06T08:41:48Z</time>
      </trkpt>
      <trkpt lat="49.2729" lon="3.88999">
        <ele>85.69</ele>
        <time>2017-08-06T08:41:59Z</time>
      </trkpt>
      <trkpt lat="49.27289" lon="3.88997">
        <ele>85.69</ele>
        <time>2017-08-06T08:42:07Z</time>
      </trkpt>
      <trkpt lat="49.27287" lon="3.88997">
        <ele>85.69</ele>
        <time>2017-08-06T08:42:08Z</time>
      </trkpt>
      <trkpt lat="49.27285" lon="3.88998">
        <ele>85.69</ele>
        <time>2017-08-06T08:42:09Z</time>
      </trkpt>
      <trkpt lat="49.27284" lon="3.89001">
        <ele>85.69</ele>
        <time>2017-08-06T08:42:10Z</time>
      </trkpt>
      <trkpt lat="49.27283" lon="3.89003">
        <ele>85.69</ele>
        <time>2017-08-06T08:42:11Z</time>
      </trkpt>
      <trkpt lat="49.27282" lon="3.89006">
        <ele>85.69</ele>
        <time>2017-08-06T08:42:12Z</time>
      </trkpt>
      <trkpt lat="49.27282" lon="3.89009">
        <ele>85.69</ele>
        <time>2017-08-06T08:42:13Z</time>
      </trkpt>
      <trkpt lat="49.27281" lon="3.89013">
        <ele>85.69</ele>
        <time>2017-08-06T08:42:14Z</time>
      </trkpt>
      <trkpt lat="49.27281" lon="3.89017">
        <ele>85.69</ele>
        <time>2017-08-06T08:42:15Z</time>
      </trkpt>
      <trkpt lat="49.2728" lon="3.8902">
        <ele>85.69</ele>
        <time>2017-08-06T08:42:16Z</time>
      </trkpt>
      <trkpt lat="49.27279" lon="3.89024">
        <ele>85.69</ele>
        <time>2017-08-06T08:42:17Z</time>
      </trkpt>
      <trkpt lat="49.27279" lon="3.89027">
        <ele>85.69</ele>
        <time>2017-08-06T08:42:18Z</time>
      </trkpt>
      <trkpt lat="49.27276" lon="3.89046">
        <ele>85.69</ele>
        <time>2017-08-06T08:42:23Z</time>
      </trkpt>
      <trkpt lat="49.27274" lon="3.89049">
        <ele>85.69</ele>
        <time>2017-08-06T08:42:24Z</time>
      </trkpt>
      <trkpt lat="49.27272" lon="3.89051">
        <ele>86.18</ele>
        <time>2017-08-06T08:42:25Z</time>
      </trkpt>
      <trkpt lat="49.27227" lon="3.89087">
        <ele>88.1</ele>
        <time>2017-08-06T08:42:44Z</time>
      </trkpt>
      <trkpt lat="49.27185" lon="3.89123">
        <ele>90.02</ele>
        <time>2017-08-06T08:43:02Z</time>
      </trkpt>
      <trkpt lat="49.27147" lon="3.89157">
        <ele>91.94</ele>
        <time>2017-08-06T08:43:18Z</time>
      </trkpt>
      <trkpt lat="49.27098" lon="3.89196">
        <ele>93.39</ele>
        <time>2017-08-06T08:43:37Z</time>
      </trkpt>
      <trkpt lat="49.27032" lon="3.89243">
        <ele>93.87</ele>
        <time>2017-08-06T08:43:56Z</time>
      </trkpt>
      <trkpt lat="49.26967" lon="3.89285">
        <ele>94.35</ele>
        <time>2017-08-06T08:44:12Z</time>
      </trkpt>
      <trkpt lat="49.269" lon="3.8933">
        <ele>94.35</ele>
        <time>2017-08-06T08:44:28Z</time>
      </trkpt>
      <trkpt lat="49.26811" lon="3.89388">
        <ele>95.31</ele>
        <time>2017-08-06T08:44:48Z</time>
      </trkpt>
      <trkpt lat="49.26772" lon="3.89409">
        <ele>95.79</ele>
        <time>2017-08-06T08:44:57Z</time>
      </trkpt>
      <trkpt lat="49.26768" lon="3.8941">
        <ele>96.27</ele>
        <time>2017-08-06T08:44:58Z</time>
      </trkpt>
      <trkpt lat="49.26713" lon="3.89428">
        <ele>97.71</ele>
        <time>2017-08-06T08:45:14Z</time>
      </trkpt>
      <trkpt lat="49.26663" lon="3.89447">
        <ele>100.11</ele>
        <time>2017-08-06T08:45:32Z</time>
      </trkpt>
      <trkpt lat="49.2662" lon="3.89462">
        <ele>102.52</ele>
        <time>2017-08-06T08:45:51Z</time>
      </trkpt>
      <trkpt lat="49.26582" lon="3.89475">
        <ele>104.92</ele>
        <time>2017-08-06T08:46:08Z</time>
      </trkpt>
      <trkpt lat="49.2654" lon="3.89493">
        <ele>106.84</ele>
        <time>2017-08-06T08:46:27Z</time>
      </trkpt>
      <trkpt lat="49.26506" lon="3.89501">
        <ele>108.29</ele>
        <time>2017-08-06T08:46:42Z</time>
      </trkpt>
      <trkpt lat="49.2646" lon="3.89519">
        <ele>110.69</ele>
        <time>2017-08-06T08:47:03Z</time>
      </trkpt>
      <trkpt lat="49.26424" lon="3.89538">
        <ele>110.69</ele>
        <time>2017-08-06T08:47:16Z</time>
      </trkpt>
      <trkpt lat="49.26389" lon="3.8956">
        <ele>109.25</ele>
        <time>2017-08-06T08:47:24Z</time>
      </trkpt>
      <trkpt lat="49.2634" lon="3.89599">
        <ele>105.88</ele>
        <time>2017-08-06T08:47:32Z</time>
      </trkpt>
      <trkpt lat="49.26307" lon="3.89628">
        <ele>102.52</ele>
        <time>2017-08-06T08:47:36Z</time>
      </trkpt>
      <trkpt lat="49.2627" lon="3.8966">
        <ele>98.19</ele>
        <time>2017-08-06T08:47:40Z</time>
      </trkpt>
      <trkpt lat="49.26239" lon="3.89686">
        <ele>94.83</ele>
        <time>2017-08-06T08:47:43Z</time>
      </trkpt>
      <trkpt lat="49.26217" lon="3.89701">
        <ele>92.9</ele>
        <time>2017-08-06T08:47:45Z</time>
      </trkpt>
      <trkpt lat="49.26205" lon="3.89706">
        <ele>91.94</ele>
        <time>2017-08-06T08:47:46Z</time>
      </trkpt>
      <trkpt lat="49.26193" lon="3.89709">
        <ele>91.46</ele>
        <time>2017-08-06T08:47:47Z</time>
      </trkpt>
      <trkpt lat="49.26181" lon="3.89709">
        <ele>90.98</ele>
        <time>2017-08-06T08:47:48Z</time>
      </trkpt>
      <trkpt lat="49.26169" lon="3.89709">
        <ele>90.98</ele>
        <time>2017-08-06T08:47:49Z</time>
      </trkpt>
      <trkpt lat="49.26053" lon="3.89698">
        <ele>90.02</ele>
        <time>2017-08-06T08:48:00Z</time>
      </trkpt>
      <trkpt lat="49.26045" lon="3.89701">
        <ele>90.98</ele>
        <time>2017-08-06T08:48:01Z</time>
      </trkpt>
      <trkpt lat="49.26037" lon="3.89704">
        <ele>91.46</ele>
        <time>2017-08-06T08:48:02Z</time>
      </trkpt>
      <trkpt lat="49.25988" lon="3.89737">
        <ele>94.35</ele>
        <time>2017-08-06T08:48:10Z</time>
      </trkpt>
      <trkpt lat="49.25949" lon="3.89776">
        <ele>96.27</ele>
        <time>2017-08-06T08:48:22Z</time>
      </trkpt>
      <trkpt lat="49.25904" lon="3.89821">
        <ele>99.63</ele>
        <time>2017-08-06T08:48:42Z</time>
      </trkpt>
      <trkpt lat="49.25865" lon="3.89857">
        <ele>102.52</ele>
        <time>2017-08-06T08:49:01Z</time>
      </trkpt>
      <trkpt lat="49.25827" lon="3.89885">
        <ele>104.44</ele>
        <time>2017-08-06T08:49:19Z</time>
      </trkpt>
      <trkpt lat="49.2579" lon="3.8991">
        <ele>106.36</ele>
        <time>2017-08-06T08:49:35Z</time>
      </trkpt>
      <trkpt lat="49.2574" lon="3.8994">
        <ele>107.81</ele>
        <time>2017-08-06T08:49:54Z</time>
      </trkpt>
      <trkpt lat="49.25693" lon="3.89968">
        <ele>109.73</ele>
        <time>2017-08-06T08:50:12Z</time>
      </trkpt>
      <trkpt lat="49.25643" lon="3.89999">
        <ele>110.21</ele>
        <time>2017-08-06T08:50:28Z</time>
      </trkpt>
      <trkpt lat="49.25573" lon="3.90039">
        <ele>110.69</ele>
        <time>2017-08-06T08:50:47Z</time>
      </trkpt>
      <trkpt lat="49.25497" lon="3.90076">
        <ele>110.69</ele>
        <time>2017-08-06T08:51:04Z</time>
      </trkpt>
      <trkpt lat="49.25478" lon="3.90085">
        <ele>108.77</ele>
        <time>2017-08-06T08:51:07Z</time>
      </trkpt>
      <trkpt lat="49.25376" lon="3.90131">
        <ele>105.4</ele>
        <time>2017-08-06T08:51:21Z</time>
      </trkpt>
      <trkpt lat="49.25314" lon="3.90162">
        <ele>103</ele>
        <time>2017-08-06T08:51:29Z</time>
      </trkpt>
      <trkpt lat="49.25307" lon="3.90169">
        <ele>103</ele>
        <time>2017-08-06T08:51:30Z</time>
      </trkpt>
      <trkpt lat="49.25301" lon="3.90178">
        <ele>103</ele>
        <time>2017-08-06T08:51:31Z</time>
      </trkpt>
      <trkpt lat="49.25296" lon="3.90187">
        <ele>102.52</ele>
        <time>2017-08-06T08:51:32Z</time>
      </trkpt>
      <trkpt lat="49.25292" lon="3.90199">
        <ele>102.52</ele>
        <time>2017-08-06T08:51:33Z</time>
      </trkpt>
      <trkpt lat="49.25289" lon="3.90212">
        <ele>102.52</ele>
        <time>2017-08-06T08:51:34Z</time>
      </trkpt>
      <trkpt lat="49.25288" lon="3.90222">
        <ele>102.52</ele>
        <time>2017-08-06T08:51:35Z</time>
      </trkpt>
      <trkpt lat="49.25287" lon="3.90235">
        <ele>102.04</ele>
        <time>2017-08-06T08:51:36Z</time>
      </trkpt>
      <trkpt lat="49.25251" lon="3.9039">
        <ele>100.6</ele>
        <time>2017-08-06T08:51:49Z</time>
      </trkpt>
      <trkpt lat="49.2518" lon="3.90512">
        <ele>99.63</ele>
        <time>2017-08-06T08:52:03Z</time>
      </trkpt>
      <trkpt lat="49.25167" lon="3.90532">
        <ele>99.63</ele>
        <time>2017-08-06T08:52:06Z</time>
      </trkpt>
      <trkpt lat="49.25148" lon="3.90554">
        <ele>99.15</ele>
        <time>2017-08-06T08:52:10Z</time>
      </trkpt>
      <trkpt lat="49.25099" lon="3.90601">
        <ele>98.19</ele>
        <time>2017-08-06T08:52:20Z</time>
      </trkpt>
      <trkpt lat="49.25094" lon="3.90608">
        <ele>98.19</ele>
        <time>2017-08-06T08:52:21Z</time>
      </trkpt>
      <trkpt lat="49.25072" lon="3.90655">
        <ele>97.23</ele>
        <time>2017-08-06T08:52:27Z</time>
      </trkpt>
      <trkpt lat="49.25068" lon="3.90661">
        <ele>97.23</ele>
        <time>2017-08-06T08:52:28Z</time>
      </trkpt>
      <trkpt lat="49.25064" lon="3.90667">
        <ele>97.23</ele>
        <time>2017-08-06T08:52:29Z</time>
      </trkpt>
      <trkpt lat="49.2506" lon="3.90672">
        <ele>97.23</ele>
        <time>2017-08-06T08:52:30Z</time>
      </trkpt>
      <trkpt lat="49.25057" lon="3.90674">
        <ele>97.23</ele>
        <time>2017-08-06T08:52:31Z</time>
      </trkpt>
      <trkpt lat="49.25054" lon="3.90676">
        <ele>97.23</ele>
        <time>2017-08-06T08:52:32Z</time>
      </trkpt>
      <trkpt lat="49.2505" lon="3.90678">
        <ele>97.23</ele>
        <time>2017-08-06T08:52:33Z</time>
      </trkpt>
      <trkpt lat="49.25038" lon="3.90681">
        <ele>97.23</ele>
        <time>2017-08-06T08:52:37Z</time>
      </trkpt>
      <trkpt lat="49.25035" lon="3.90677">
        <ele>97.23</ele>
        <time>2017-08-06T08:52:38Z</time>
      </trkpt>
      <trkpt lat="49.25034" lon="3.90673">
        <ele>97.23</ele>
        <time>2017-08-06T08:52:39Z</time>
      </trkpt>
      <trkpt lat="49.25013" lon="3.90581">
        <ele>98.67</ele>
        <time>2017-08-06T08:52:56Z</time>
      </trkpt>
      <trkpt lat="49.25011" lon="3.90492">
        <ele>99.15</ele>
        <time>2017-08-06T08:53:13Z</time>
      </trkpt>
      <trkpt lat="49.2501" lon="3.90427">
        <ele>99.63</ele>
        <time>2017-08-06T08:53:26Z</time>
      </trkpt>
      <trkpt lat="49.24998" lon="3.90339">
        <ele>100.6</ele>
        <time>2017-08-06T08:53:42Z</time>
      </trkpt>
      <trkpt lat="49.2498" lon="3.90237">
        <ele>101.08</ele>
        <time>2017-08-06T08:54:00Z</time>
      </trkpt>
      <trkpt lat="49.24956" lon="3.90149">
        <ele>102.04</ele>
        <time>2017-08-06T08:54:17Z</time>
      </trkpt>
      <trkpt lat="49.24934" lon="3.90061">
        <ele>103.48</ele>
        <time>2017-08-06T08:54:34Z</time>
      </trkpt>
      <trkpt lat="49.24915" lon="3.90033">
        <ele>103.96</ele>
        <time>2017-08-06T08:54:43Z</time>
      </trkpt>
      <trkpt lat="49.24892" lon="3.89997">
        <ele>104.44</ele>
        <time>2017-08-06T08:54:54Z</time>
      </trkpt>
      <trkpt lat="49.24863" lon="3.89939">
        <ele>105.88</ele>
        <time>2017-08-06T08:55:09Z</time>
      </trkpt>
      <trkpt lat="49.24831" lon="3.89871">
        <ele>106.84</ele>
        <time>2017-08-06T08:55:26Z</time>
      </trkpt>
      <trkpt lat="49.24796" lon="3.898">
        <ele>108.29</ele>
        <time>2017-08-06T08:55:43Z</time>
      </trkpt>
      <trkpt lat="49.24755" lon="3.89712">
        <ele>109.25</ele>
        <time>2017-08-06T08:56:01Z</time>
      </trkpt>
      <trkpt lat="49.24712" lon="3.89625">
        <ele>110.69</ele>
        <time>2017-08-06T08:56:20Z</time>
      </trkpt>
      <trkpt lat="49.24684" lon="3.89565">
        <ele>112.13</ele>
        <time>2017-08-06T08:56:35Z</time>
      </trkpt>
      <trkpt lat="49.24659" lon="3.89521">
        <ele>113.57</ele>
        <time>2017-08-06T08:56:49Z</time>
      </trkpt>
      <trkpt lat="49.24635" lon="3.89475">
        <ele>115.5</ele>
        <time>2017-08-06T08:57:05Z</time>
      </trkpt>
      <trkpt lat="49.24614" lon="3.89432">
        <ele>116.46</ele>
        <time>2017-08-06T08:57:19Z</time>
      </trkpt>
      <trkpt lat="49.24593" lon="3.8939">
        <ele>117.9</ele>
        <time>2017-08-06T08:57:33Z</time>
      </trkpt>
      <trkpt lat="49.24572" lon="3.89338">
        <ele>120.3</ele>
        <time>2017-08-06T08:57:49Z</time>
      </trkpt>
      <trkpt lat="49.24558" lon="3.89286">
        <ele>122.22</ele>
        <time>2017-08-06T08:58:05Z</time>
      </trkpt>
      <trkpt lat="49.24555" lon="3.89271">
        <ele>122.71</ele>
        <time>2017-08-06T08:58:10Z</time>
      </trkpt>
      <trkpt lat="49.24556" lon="3.89269">
        <ele>122.71</ele>
        <time>2017-08-06T08:58:11Z</time>
      </trkpt>
      <trkpt lat="49.24558" lon="3.89269">
        <ele>122.71</ele>
        <time>2017-08-06T08:58:12Z</time>
      </trkpt>
      <trkpt lat="49.2456" lon="3.89269">
        <ele>122.71</ele>
        <time>2017-08-06T08:58:13Z</time>
      </trkpt>
      <trkpt lat="49.24566" lon="3.89276">
        <ele>122.71</ele>
        <time>2017-08-06T08:58:22Z</time>
      </trkpt>
      <trkpt lat="49.24567" lon="3.89275">
        <ele>122.71</ele>
        <time>2017-08-06T08:58:54Z</time>
      </trkpt>
      <trkpt lat="49.24569" lon="3.89265">
        <ele>122.71</ele>
        <time>2017-08-06T08:59:32Z</time>
      </trkpt>
      <trkpt lat="49.24568" lon="3.89267">
        <ele>122.71</ele>
        <time>2017-08-06T08:59:59Z</time>
      </trkpt>
      <trkpt lat="49.24567" lon="3.89263">
        <ele>122.71</ele>
        <time>2017-08-06T09:00:02Z</time>
      </trkpt>
      <trkpt lat="49.24554" lon="3.89259">
        <ele>123.19</ele>
        <time>2017-08-06T09:00:14Z</time>
      </trkpt>
      <trkpt lat="49.24541" lon="3.89238">
        <ele>125.59</ele>
        <time>2017-08-06T09:00:27Z</time>
      </trkpt>
      <trkpt lat="49.24528" lon="3.8921">
        <ele>127.03</ele>
        <time>2017-08-06T09:00:42Z</time>
      </trkpt>
      <trkpt lat="49.2451" lon="3.89176">
        <ele>129.43</ele>
        <time>2017-08-06T09:01:00Z</time>
      </trkpt>
      <trkpt lat="49.24491" lon="3.89139">
        <ele>131.84</ele>
        <time>2017-08-06T09:01:16Z</time>
      </trkpt>
      <trkpt lat="49.24473" lon="3.89103">
        <ele>134.72</ele>
        <time>2017-08-06T09:01:34Z</time>
      </trkpt>
      <trkpt lat="49.24459" lon="3.89074">
        <ele>137.13</ele>
        <time>2017-08-06T09:01:49Z</time>
      </trkpt>
      <trkpt lat="49.24443" lon="3.89047">
        <ele>139.05</ele>
        <time>2017-08-06T09:02:05Z</time>
      </trkpt>
      <trkpt lat="49.24424" lon="3.89019">
        <ele>141.45</ele>
        <time>2017-08-06T09:02:22Z</time>
      </trkpt>
      <trkpt lat="49.24407" lon="3.88991">
        <ele>143.37</ele>
        <time>2017-08-06T09:02:37Z</time>
      </trkpt>
      <trkpt lat="49.24392" lon="3.88965">
        <ele>145.78</ele>
        <time>2017-08-06T09:02:52Z</time>
      </trkpt>
      <trkpt lat="49.24375" lon="3.88937">
        <ele>149.14</ele>
        <time>2017-08-06T09:03:08Z</time>
      </trkpt>
      <trkpt lat="49.24364" lon="3.88902">
        <ele>152.03</ele>
        <time>2017-08-06T09:03:25Z</time>
      </trkpt>
      <trkpt lat="49.24362" lon="3.88885">
        <ele>152.99</ele>
        <time>2017-08-06T09:03:38Z</time>
      </trkpt>
      <trkpt lat="49.24361" lon="3.88881">
        <ele>153.47</ele>
        <time>2017-08-06T09:04:01Z</time>
      </trkpt>
      <trkpt lat="49.24361" lon="3.88881">
        <ele>153.47</ele>
        <time>2017-08-06T09:04:27Z</time>
      </trkpt>
      <trkpt lat="49.24362" lon="3.88882">
        <ele>153.47</ele>
        <time>2017-08-06T09:04:52Z</time>
      </trkpt>
      <trkpt lat="49.24361" lon="3.8888">
        <ele>153.47</ele>
        <time>2017-08-06T09:05:03Z</time>
      </trkpt>
      <trkpt lat="49.24361" lon="3.88878">
        <ele>153.47</ele>
        <time>2017-08-06T09:05:04Z</time>
      </trkpt>
      <trkpt lat="49.24361" lon="3.88876">
        <ele>153.47</ele>
        <time>2017-08-06T09:05:05Z</time>
      </trkpt>
      <trkpt lat="49.2436" lon="3.88874">
        <ele>153.47</ele>
        <time>2017-08-06T09:05:06Z</time>
      </trkpt>
      <trkpt lat="49.2436" lon="3.88871">
        <ele>153.95</ele>
        <time>2017-08-06T09:05:07Z</time>
      </trkpt>
      <trkpt lat="49.24359" lon="3.8887">
        <ele>153.95</ele>
        <time>2017-08-06T09:05:08Z</time>
      </trkpt>
      <trkpt lat="49.24359" lon="3.88867">
        <ele>154.43</ele>
        <time>2017-08-06T09:05:09Z</time>
      </trkpt>
      <trkpt lat="49.24359" lon="3.88865">
        <ele>154.43</ele>
        <time>2017-08-06T09:05:10Z</time>
      </trkpt>
      <trkpt lat="49.24358" lon="3.88862">
        <ele>154.43</ele>
        <time>2017-08-06T09:05:11Z</time>
      </trkpt>
      <trkpt lat="49.24358" lon="3.8886">
        <ele>154.91</ele>
        <time>2017-08-06T09:05:12Z</time>
      </trkpt>
      <trkpt lat="49.24357" lon="3.88858">
        <ele>154.91</ele>
        <time>2017-08-06T09:05:13Z</time>
      </trkpt>
      <trkpt lat="49.24357" lon="3.88856">
        <ele>155.39</ele>
        <time>2017-08-06T09:05:14Z</time>
      </trkpt>
      <trkpt lat="49.24357" lon="3.88854">
        <ele>155.39</ele>
        <time>2017-08-06T09:05:15Z</time>
      </trkpt>
      <trkpt lat="49.24353" lon="3.88836">
        <ele>156.83</ele>
        <time>2017-08-06T09:05:24Z</time>
      </trkpt>
      <trkpt lat="49.24353" lon="3.88834">
        <ele>156.83</ele>
        <time>2017-08-06T09:05:25Z</time>
      </trkpt>
      <trkpt lat="49.24352" lon="3.88832">
        <ele>157.31</ele>
        <time>2017-08-06T09:05:26Z</time>
      </trkpt>
      <trkpt lat="49.24352" lon="3.8883">
        <ele>157.31</ele>
        <time>2017-08-06T09:05:27Z</time>
      </trkpt>
      <trkpt lat="49.24351" lon="3.88828">
        <ele>157.31</ele>
        <time>2017-08-06T09:05:28Z</time>
      </trkpt>
      <trkpt lat="49.24351" lon="3.88826">
        <ele>157.79</ele>
        <time>2017-08-06T09:05:29Z</time>
      </trkpt>
      <trkpt lat="49.24351" lon="3.88823">
        <ele>157.79</ele>
        <time>2017-08-06T09:05:30Z</time>
      </trkpt>
      <trkpt lat="49.24345" lon="3.88788">
        <ele>160.68</ele>
        <time>2017-08-06T09:05:46Z</time>
      </trkpt>
      <trkpt lat="49.24339" lon="3.88745">
        <ele>163.56</ele>
        <time>2017-08-06T09:06:05Z</time>
      </trkpt>
      <trkpt lat="49.24334" lon="3.88711">
        <ele>166.45</ele>
        <time>2017-08-06T09:06:21Z</time>
      </trkpt>
      <trkpt lat="49.24327" lon="3.88676">
        <ele>168.85</ele>
        <time>2017-08-06T09:06:37Z</time>
      </trkpt>
      <trkpt lat="49.24315" lon="3.88643">
        <ele>171.25</ele>
        <time>2017-08-06T09:06:53Z</time>
      </trkpt>
      <trkpt lat="49.24298" lon="3.88615">
        <ele>174.14</ele>
        <time>2017-08-06T09:07:09Z</time>
      </trkpt>
      <trkpt lat="49.24277" lon="3.8859">
        <ele>177.5</ele>
        <time>2017-08-06T09:07:27Z</time>
      </trkpt>
      <trkpt lat="49.24252" lon="3.88575">
        <ele>180.38</ele>
        <time>2017-08-06T09:07:45Z</time>
      </trkpt>
      <trkpt lat="49.24223" lon="3.8857">
        <ele>181.83</ele>
        <time>2017-08-06T09:08:02Z</time>
      </trkpt>
      <trkpt lat="49.24187" lon="3.88571">
        <ele>184.23</ele>
        <time>2017-08-06T09:08:20Z</time>
      </trkpt>
      <trkpt lat="49.24154" lon="3.88573">
        <ele>186.63</ele>
        <time>2017-08-06T09:08:39Z</time>
      </trkpt>
      <trkpt lat="49.24119" lon="3.88576">
        <ele>189.52</ele>
        <time>2017-08-06T09:08:59Z</time>
      </trkpt>
      <trkpt lat="49.24087" lon="3.88578">
        <ele>190.96</ele>
        <time>2017-08-06T09:09:17Z</time>
      </trkpt>
      <trkpt lat="49.24058" lon="3.88578">
        <ele>192.4</ele>
        <time>2017-08-06T09:09:33Z</time>
      </trkpt>
      <trkpt lat="49.24021" lon="3.88566">
        <ele>194.8</ele>
        <time>2017-08-06T09:09:52Z</time>
      </trkpt>
      <trkpt lat="49.23989" lon="3.88536">
        <ele>197.21</ele>
        <time>2017-08-06T09:10:13Z</time>
      </trkpt>
      <trkpt lat="49.23968" lon="3.88496">
        <ele>199.61</ele>
        <time>2017-08-06T09:10:32Z</time>
      </trkpt>
      <trkpt lat="49.23951" lon="3.88458">
        <ele>202.01</ele>
        <time>2017-08-06T09:10:49Z</time>
      </trkpt>
      <trkpt lat="49.23928" lon="3.88409">
        <ele>203.46</ele>
        <time>2017-08-06T09:11:06Z</time>
      </trkpt>
      <trkpt lat="49.23897" lon="3.88369">
        <ele>203.94</ele>
        <time>2017-08-06T09:11:20Z</time>
      </trkpt>
      <trkpt lat="49.23894" lon="3.8837">
        <ele>203.94</ele>
        <time>2017-08-06T09:11:21Z</time>
      </trkpt>
      <trkpt lat="49.23892" lon="3.88373">
        <ele>203.94</ele>
        <time>2017-08-06T09:11:22Z</time>
      </trkpt>
      <trkpt lat="49.23891" lon="3.88377">
        <ele>203.94</ele>
        <time>2017-08-06T09:11:23Z</time>
      </trkpt>
      <trkpt lat="49.2389" lon="3.88381">
        <ele>203.94</ele>
        <time>2017-08-06T09:11:24Z</time>
      </trkpt>
      <trkpt lat="49.2389" lon="3.88385">
        <ele>203.94</ele>
        <time>2017-08-06T09:11:25Z</time>
      </trkpt>
      <trkpt lat="49.23895" lon="3.88461">
        <ele>204.42</ele>
        <time>2017-08-06T09:11:42Z</time>
      </trkpt>
      <trkpt lat="49.23898" lon="3.88547">
        <ele>204.42</ele>
        <time>2017-08-06T09:11:58Z</time>
      </trkpt>
      <trkpt lat="49.23901" lon="3.88612">
        <ele>204.9</ele>
        <time>2017-08-06T09:12:11Z</time>
      </trkpt>
      <trkpt lat="49.23906" lon="3.8872">
        <ele>206.34</ele>
        <time>2017-08-06T09:12:33Z</time>
      </trkpt>
      <trkpt lat="49.2391" lon="3.88797">
        <ele>206.34</ele>
        <time>2017-08-06T09:12:48Z</time>
      </trkpt>
      <trkpt lat="49.23912" lon="3.88868">
        <ele>206.34</ele>
        <time>2017-08-06T09:12:59Z</time>
      </trkpt>
      <trkpt lat="49.23911" lon="3.88875">
        <ele>206.34</ele>
        <time>2017-08-06T09:13:00Z</time>
      </trkpt>
      <trkpt lat="49.2391" lon="3.88888">
        <ele>206.34</ele>
        <time>2017-08-06T09:13:02Z</time>
      </trkpt>
      <trkpt lat="49.23909" lon="3.88893">
        <ele>206.34</ele>
        <time>2017-08-06T09:13:03Z</time>
      </trkpt>
      <trkpt lat="49.23889" lon="3.88924">
        <ele>206.82</ele>
        <time>2017-08-06T09:13:13Z</time>
      </trkpt>
      <trkpt lat="49.23857" lon="3.88947">
        <ele>207.78</ele>
        <time>2017-08-06T09:13:27Z</time>
      </trkpt>
      <trkpt lat="49.23814" lon="3.88981">
        <ele>208.74</ele>
        <time>2017-08-06T09:13:45Z</time>
      </trkpt>
      <trkpt lat="49.23787" lon="3.89008">
        <ele>209.22</ele>
        <time>2017-08-06T09:13:57Z</time>
      </trkpt>
      <trkpt lat="49.23745" lon="3.89039">
        <ele>209.22</ele>
        <time>2017-08-06T09:14:11Z</time>
      </trkpt>
      <trkpt lat="49.23691" lon="3.89077">
        <ele>208.26</ele>
        <time>2017-08-06T09:14:27Z</time>
      </trkpt>
      <trkpt lat="49.23644" lon="3.89116">
        <ele>207.78</ele>
        <time>2017-08-06T09:14:41Z</time>
      </trkpt>
      <trkpt lat="49.23596" lon="3.8915">
        <ele>207.78</ele>
        <time>2017-08-06T09:14:54Z</time>
      </trkpt>
      <trkpt lat="49.23555" lon="3.89178">
        <ele>207.3</ele>
        <time>2017-08-06T09:15:07Z</time>
      </trkpt>
      <trkpt lat="49.23552" lon="3.89183">
        <ele>206.82</ele>
        <time>2017-08-06T09:15:09Z</time>
      </trkpt>
      <trkpt lat="49.23551" lon="3.89187">
        <ele>206.82</ele>
        <time>2017-08-06T09:15:10Z</time>
      </trkpt>
      <trkpt lat="49.23551" lon="3.89191">
        <ele>206.82</ele>
        <time>2017-08-06T09:15:11Z</time>
      </trkpt>
      <trkpt lat="49.23552" lon="3.89194">
        <ele>206.82</ele>
        <time>2017-08-06T09:15:12Z</time>
      </trkpt>
      <trkpt lat="49.23553" lon="3.89198">
        <ele>206.82</ele>
        <time>2017-08-06T09:15:13Z</time>
      </trkpt>
      <trkpt lat="49.23554" lon="3.89203">
        <ele>206.82</ele>
        <time>2017-08-06T09:15:14Z</time>
      </trkpt>
      <trkpt lat="49.2357" lon="3.89255">
        <ele>206.82</ele>
        <time>2017-08-06T09:15:28Z</time>
      </trkpt>
      <trkpt lat="49.23588" lon="3.89316">
        <ele>208.26</ele>
        <time>2017-08-06T09:15:42Z</time>
      </trkpt>
      <trkpt lat="49.23609" lon="3.89371">
        <ele>208.26</ele>
        <time>2017-08-06T09:15:52Z</time>
      </trkpt>
      <trkpt lat="49.23611" lon="3.89376">
        <ele>208.26</ele>
        <time>2017-08-06T09:15:53Z</time>
      </trkpt>
      <trkpt lat="49.23623" lon="3.89415">
        <ele>208.26</ele>
        <time>2017-08-06T09:16:00Z</time>
      </trkpt>
      <trkpt lat="49.23625" lon="3.89421">
        <ele>208.26</ele>
        <time>2017-08-06T09:16:01Z</time>
      </trkpt>
      <trkpt lat="49.23636" lon="3.89473">
        <ele>208.26</ele>
        <time>2017-08-06T09:16:11Z</time>
      </trkpt>
      <trkpt lat="49.23638" lon="3.89482">
        <ele>208.26</ele>
        <time>2017-08-06T09:16:14Z</time>
      </trkpt>
      <trkpt lat="49.23635" lon="3.89493">
        <ele>206.82</ele>
        <time>2017-08-06T09:16:26Z</time>
      </trkpt>
      <trkpt lat="49.23634" lon="3.89489">
        <ele>206.82</ele>
        <time>2017-08-06T09:16:33Z</time>
      </trkpt>
      <trkpt lat="49.23634" lon="3.89487">
        <ele>206.82</ele>
        <time>2017-08-06T09:16:34Z</time>
      </trkpt>
      <trkpt lat="49.23633" lon="3.89485">
        <ele>206.82</ele>
        <time>2017-08-06T09:16:35Z</time>
      </trkpt>
      <trkpt lat="49.23633" lon="3.89482">
        <ele>206.82</ele>
        <time>2017-08-06T09:16:36Z</time>
      </trkpt>
      <trkpt lat="49.23632" lon="3.89478">
        <ele>206.82</ele>
        <time>2017-08-06T09:16:37Z</time>
      </trkpt>
      <trkpt lat="49.23631" lon="3.89474">
        <ele>206.82</ele>
        <time>2017-08-06T09:16:38Z</time>
      </trkpt>
      <trkpt lat="49.23618" lon="3.89419">
        <ele>206.82</ele>
        <time>2017-08-06T09:16:51Z</time>
      </trkpt>
      <trkpt lat="49.23606" lon="3.89382">
        <ele>206.82</ele>
        <time>2017-08-06T09:17:03Z</time>
      </trkpt>
      <trkpt lat="49.23605" lon="3.8938">
        <ele>206.82</ele>
        <time>2017-08-06T09:17:04Z</time>
      </trkpt>
      <trkpt lat="49.23602" lon="3.89371">
        <ele>206.82</ele>
        <time>2017-08-06T09:17:09Z</time>
      </trkpt>
      <trkpt lat="49.23601" lon="3.89369">
        <ele>206.82</ele>
        <time>2017-08-06T09:17:10Z</time>
      </trkpt>
      <trkpt lat="49.236" lon="3.89366">
        <ele>206.82</ele>
        <time>2017-08-06T09:17:11Z</time>
      </trkpt>
      <trkpt lat="49.236" lon="3.89361">
        <ele>207.3</ele>
        <time>2017-08-06T09:17:23Z</time>
      </trkpt>
      <trkpt lat="49.23598" lon="3.89362">
        <ele>207.78</ele>
        <time>2017-08-06T09:17:48Z</time>
      </trkpt>
      <trkpt lat="49.23599" lon="3.89364">
        <ele>207.3</ele>
        <time>2017-08-06T09:17:49Z</time>
      </trkpt>
      <trkpt lat="49.236" lon="3.89367">
        <ele>207.78</ele>
        <time>2017-08-06T09:17:50Z</time>
      </trkpt>
      <trkpt lat="49.23602" lon="3.8937">
        <ele>207.78</ele>
        <time>2017-08-06T09:17:51Z</time>
      </trkpt>
      <trkpt lat="49.23603" lon="3.89373">
        <ele>207.78</ele>
        <time>2017-08-06T09:17:52Z</time>
      </trkpt>
      <trkpt lat="49.23605" lon="3.89377">
        <ele>207.78</ele>
        <time>2017-08-06T09:17:53Z</time>
      </trkpt>
      <trkpt lat="49.23625" lon="3.89436">
        <ele>207.78</ele>
        <time>2017-08-06T09:18:05Z</time>
      </trkpt>
      <trkpt lat="49.23628" lon="3.8945">
        <ele>207.78</ele>
        <time>2017-08-06T09:18:08Z</time>
      </trkpt>
      <trkpt lat="49.23629" lon="3.89454">
        <ele>207.78</ele>
        <time>2017-08-06T09:18:09Z</time>
      </trkpt>
      <trkpt lat="49.2363" lon="3.89459">
        <ele>207.78</ele>
        <time>2017-08-06T09:18:10Z</time>
      </trkpt>
      <trkpt lat="49.23631" lon="3.89463">
        <ele>207.78</ele>
        <time>2017-08-06T09:18:11Z</time>
      </trkpt>
      <trkpt lat="49.23632" lon="3.89469">
        <ele>207.78</ele>
        <time>2017-08-06T09:18:12Z</time>
      </trkpt>
      <trkpt lat="49.23638" lon="3.89499">
        <ele>206.82</ele>
        <time>2017-08-06T09:18:17Z</time>
      </trkpt>
      <trkpt lat="49.23645" lon="3.89538">
        <ele>204.42</ele>
        <time>2017-08-06T09:18:22Z</time>
      </trkpt>
      <trkpt lat="49.23646" lon="3.89554">
        <ele>204.42</ele>
        <time>2017-08-06T09:18:24Z</time>
      </trkpt>
      <trkpt lat="49.23647" lon="3.89573">
        <ele>203.46</ele>
        <time>2017-08-06T09:18:26Z</time>
      </trkpt>
      <trkpt lat="49.23646" lon="3.89591">
        <ele>201.53</ele>
        <time>2017-08-06T09:18:28Z</time>
      </trkpt>
      <trkpt lat="49.23645" lon="3.896">
        <ele>201.05</ele>
        <time>2017-08-06T09:18:29Z</time>
      </trkpt>
      <trkpt lat="49.23645" lon="3.8961">
        <ele>200.09</ele>
        <time>2017-08-06T09:18:30Z</time>
      </trkpt>
      <trkpt lat="49.23645" lon="3.8962">
        <ele>199.61</ele>
        <time>2017-08-06T09:18:31Z</time>
      </trkpt>
      <trkpt lat="49.23645" lon="3.89632">
        <ele>198.17</ele>
        <time>2017-08-06T09:18:32Z</time>
      </trkpt>
      <trkpt lat="49.23646" lon="3.89645">
        <ele>197.21</ele>
        <time>2017-08-06T09:18:33Z</time>
      </trkpt>
      <trkpt lat="49.23647" lon="3.89657">
        <ele>195.77</ele>
        <time>2017-08-06T09:18:34Z</time>
      </trkpt>
      <trkpt lat="49.23653" lon="3.89698">
        <ele>191.44</ele>
        <time>2017-08-06T09:18:37Z</time>
      </trkpt>
      <trkpt lat="49.23657" lon="3.89725">
        <ele>189.04</ele>
        <time>2017-08-06T09:18:39Z</time>
      </trkpt>
      <trkpt lat="49.23657" lon="3.89738">
        <ele>188.56</ele>
        <time>2017-08-06T09:18:40Z</time>
      </trkpt>
      <trkpt lat="49.23658" lon="3.89751">
        <ele>187.59</ele>
        <time>2017-08-06T09:18:41Z</time>
      </trkpt>
      <trkpt lat="49.23659" lon="3.89762">
        <ele>187.59</ele>
        <time>2017-08-06T09:18:42Z</time>
      </trkpt>
      <trkpt lat="49.23659" lon="3.89773">
        <ele>186.63</ele>
        <time>2017-08-06T09:18:43Z</time>
      </trkpt>
      <trkpt lat="49.2366" lon="3.89814">
        <ele>184.71</ele>
        <time>2017-08-06T09:18:47Z</time>
      </trkpt>
      <trkpt lat="49.2366" lon="3.89885">
        <ele>180.87</ele>
        <time>2017-08-06T09:18:54Z</time>
      </trkpt>
      <trkpt lat="49.23661" lon="3.89896">
        <ele>179.9</ele>
        <time>2017-08-06T09:18:55Z</time>
      </trkpt>
      <trkpt lat="49.23661" lon="3.89908">
        <ele>179.9</ele>
        <time>2017-08-06T09:18:56Z</time>
      </trkpt>
      <trkpt lat="49.23665" lon="3.89968">
        <ele>177.02</ele>
        <time>2017-08-06T09:19:01Z</time>
      </trkpt>
      <trkpt lat="49.23666" lon="3.89989">
        <ele>175.58</ele>
        <time>2017-08-06T09:19:03Z</time>
      </trkpt>
      <trkpt lat="49.23667" lon="3.9">
        <ele>175.1</ele>
        <time>2017-08-06T09:19:04Z</time>
      </trkpt>
      <trkpt lat="49.23675" lon="3.90046">
        <ele>172.69</ele>
        <time>2017-08-06T09:19:08Z</time>
      </trkpt>
      <trkpt lat="49.23677" lon="3.90057">
        <ele>171.73</ele>
        <time>2017-08-06T09:19:09Z</time>
      </trkpt>
      <trkpt lat="49.23682" lon="3.90102">
        <ele>168.85</ele>
        <time>2017-08-06T09:19:13Z</time>
      </trkpt>
      <trkpt lat="49.23683" lon="3.90182">
        <ele>165.96</ele>
        <time>2017-08-06T09:19:20Z</time>
      </trkpt>
      <trkpt lat="49.23681" lon="3.9023">
        <ele>164.52</ele>
        <time>2017-08-06T09:19:24Z</time>
      </trkpt>
      <trkpt lat="49.2368" lon="3.90241">
        <ele>163.56</ele>
        <time>2017-08-06T09:19:25Z</time>
      </trkpt>
      <trkpt lat="49.23676" lon="3.90252">
        <ele>163.56</ele>
        <time>2017-08-06T09:19:26Z</time>
      </trkpt>
      <trkpt lat="49.23672" lon="3.90261">
        <ele>163.08</ele>
        <time>2017-08-06T09:19:27Z</time>
      </trkpt>
      <trkpt lat="49.23657" lon="3.90291">
        <ele>161.16</ele>
        <time>2017-08-06T09:19:30Z</time>
      </trkpt>
      <trkpt lat="49.23608" lon="3.90382">
        <ele>158.27</ele>
        <time>2017-08-06T09:19:39Z</time>
      </trkpt>
      <trkpt lat="49.23596" lon="3.90415">
        <ele>157.31</ele>
        <time>2017-08-06T09:19:42Z</time>
      </trkpt>
      <trkpt lat="49.23591" lon="3.90428">
        <ele>156.83</ele>
        <time>2017-08-06T09:19:43Z</time>
      </trkpt>
      <trkpt lat="49.23584" lon="3.90449">
        <ele>155.39</ele>
        <time>2017-08-06T09:19:45Z</time>
      </trkpt>
      <trkpt lat="49.23581" lon="3.90462">
        <ele>154.91</ele>
        <time>2017-08-06T09:19:46Z</time>
      </trkpt>
      <trkpt lat="49.23579" lon="3.90473">
        <ele>154.91</ele>
        <time>2017-08-06T09:19:47Z</time>
      </trkpt>
      <trkpt lat="49.23573" lon="3.90532">
        <ele>152.51</ele>
        <time>2017-08-06T09:19:52Z</time>
      </trkpt>
      <trkpt lat="49.23571" lon="3.90542">
        <ele>152.51</ele>
        <time>2017-08-06T09:19:53Z</time>
      </trkpt>
      <trkpt lat="49.23563" lon="3.90568">
        <ele>155.39</ele>
        <time>2017-08-06T09:19:58Z</time>
      </trkpt>
      <trkpt lat="49.23551" lon="3.90588">
        <ele>157.31</ele>
        <time>2017-08-06T09:20:09Z</time>
      </trkpt>
      <trkpt lat="49.23544" lon="3.90604">
        <ele>158.75</ele>
        <time>2017-08-06T09:20:22Z</time>
      </trkpt>
      <trkpt lat="49.23543" lon="3.90604">
        <ele>158.75</ele>
        <time>2017-08-06T09:20:47Z</time>
      </trkpt>
      <trkpt lat="49.23543" lon="3.90603">
        <ele>158.75</ele>
        <time>2017-08-06T09:21:08Z</time>
      </trkpt>
      <trkpt lat="49.23543" lon="3.90602">
        <ele>159.24</ele>
        <time>2017-08-06T09:21:34Z</time>
      </trkpt>
      <trkpt lat="49.23542" lon="3.90602">
        <ele>159.24</ele>
        <time>2017-08-06T09:21:54Z</time>
      </trkpt>
      <trkpt lat="49.2354" lon="3.90603">
        <ele>159.24</ele>
        <time>2017-08-06T09:22:08Z</time>
      </trkpt>
      <trkpt lat="49.23513" lon="3.90627">
        <ele>156.83</ele>
        <time>2017-08-06T09:22:18Z</time>
      </trkpt>
      <trkpt lat="49.23495" lon="3.90642">
        <ele>155.39</ele>
        <time>2017-08-06T09:22:21Z</time>
      </trkpt>
      <trkpt lat="49.23449" lon="3.90684">
        <ele>152.51</ele>
        <time>2017-08-06T09:22:28Z</time>
      </trkpt>
      <trkpt lat="49.23443" lon="3.9069">
        <ele>152.03</ele>
        <time>2017-08-06T09:22:29Z</time>
      </trkpt>
      <trkpt lat="49.23436" lon="3.90696">
        <ele>152.03</ele>
        <time>2017-08-06T09:22:30Z</time>
      </trkpt>
      <trkpt lat="49.2343" lon="3.90702">
        <ele>151.06</ele>
        <time>2017-08-06T09:22:31Z</time>
      </trkpt>
      <trkpt lat="49.23423" lon="3.90708">
        <ele>151.06</ele>
        <time>2017-08-06T09:22:32Z</time>
      </trkpt>
      <trkpt lat="49.23417" lon="3.90713">
        <ele>151.06</ele>
        <time>2017-08-06T09:22:33Z</time>
      </trkpt>
      <trkpt lat="49.23411" lon="3.9072">
        <ele>150.58</ele>
        <time>2017-08-06T09:22:34Z</time>
      </trkpt>
      <trkpt lat="49.23405" lon="3.90726">
        <ele>150.58</ele>
        <time>2017-08-06T09:22:35Z</time>
      </trkpt>
      <trkpt lat="49.23394" lon="3.90738">
        <ele>150.1</ele>
        <time>2017-08-06T09:22:37Z</time>
      </trkpt>
      <trkpt lat="49.23388" lon="3.90744">
        <ele>150.1</ele>
        <time>2017-08-06T09:22:38Z</time>
      </trkpt>
      <trkpt lat="49.23383" lon="3.9075">
        <ele>149.62</ele>
        <time>2017-08-06T09:22:39Z</time>
      </trkpt>
      <trkpt lat="49.23378" lon="3.90757">
        <ele>149.62</ele>
        <time>2017-08-06T09:22:40Z</time>
      </trkpt>
      <trkpt lat="49.23372" lon="3.90763">
        <ele>149.14</ele>
        <time>2017-08-06T09:22:41Z</time>
      </trkpt>
      <trkpt lat="49.23367" lon="3.90768">
        <ele>149.14</ele>
        <time>2017-08-06T09:22:42Z</time>
      </trkpt>
      <trkpt lat="49.23353" lon="3.90785">
        <ele>148.66</ele>
        <time>2017-08-06T09:22:47Z</time>
      </trkpt>
      <trkpt lat="49.23354" lon="3.90787">
        <ele>148.66</ele>
        <time>2017-08-06T09:22:57Z</time>
      </trkpt>
      <trkpt lat="49.23355" lon="3.90791">
        <ele>148.66</ele>
        <time>2017-08-06T09:23:00Z</time>
      </trkpt>
      <trkpt lat="49.23356" lon="3.90793">
        <ele>148.66</ele>
        <time>2017-08-06T09:23:01Z</time>
      </trkpt>
      <trkpt lat="49.23358" lon="3.90796">
        <ele>148.18</ele>
        <time>2017-08-06T09:23:02Z</time>
      </trkpt>
      <trkpt lat="49.23361" lon="3.90799">
        <ele>148.18</ele>
        <time>2017-08-06T09:23:03Z</time>
      </trkpt>
      <trkpt lat="49.23365" lon="3.90801">
        <ele>147.7</ele>
        <time>2017-08-06T09:23:04Z</time>
      </trkpt>
      <trkpt lat="49.23368" lon="3.90805">
        <ele>147.7</ele>
        <time>2017-08-06T09:23:05Z</time>
      </trkpt>
      <trkpt lat="49.23393" lon="3.90832">
        <ele>143.85</ele>
        <time>2017-08-06T09:23:10Z</time>
      </trkpt>
      <trkpt lat="49.23417" lon="3.90861">
        <ele>140.49</ele>
        <time>2017-08-06T09:23:14Z</time>
      </trkpt>
      <trkpt lat="49.23436" lon="3.90883">
        <ele>137.13</ele>
        <time>2017-08-06T09:23:18Z</time>
      </trkpt>
      <trkpt lat="49.2344" lon="3.90888">
        <ele>136.16</ele>
        <time>2017-08-06T09:23:19Z</time>
      </trkpt>
      <trkpt lat="49.23442" lon="3.90894">
        <ele>135.68</ele>
        <time>2017-08-06T09:23:20Z</time>
      </trkpt>
      <trkpt lat="49.23443" lon="3.90899">
        <ele>135.2</ele>
        <time>2017-08-06T09:23:21Z</time>
      </trkpt>
      <trkpt lat="49.23442" lon="3.90906">
        <ele>135.2</ele>
        <time>2017-08-06T09:23:22Z</time>
      </trkpt>
      <trkpt lat="49.23441" lon="3.90912">
        <ele>134.24</ele>
        <time>2017-08-06T09:23:23Z</time>
      </trkpt>
      <trkpt lat="49.23439" lon="3.90919">
        <ele>134.24</ele>
        <time>2017-08-06T09:23:24Z</time>
      </trkpt>
      <trkpt lat="49.23439" lon="3.90927">
        <ele>133.76</ele>
        <time>2017-08-06T09:23:25Z</time>
      </trkpt>
      <trkpt lat="49.23441" lon="3.90937">
        <ele>133.28</ele>
        <time>2017-08-06T09:23:26Z</time>
      </trkpt>
      <trkpt lat="49.23442" lon="3.90945">
        <ele>133.28</ele>
        <time>2017-08-06T09:23:27Z</time>
      </trkpt>
      <trkpt lat="49.23445" lon="3.90953">
        <ele>132.32</ele>
        <time>2017-08-06T09:23:28Z</time>
      </trkpt>
      <trkpt lat="49.23468" lon="3.91014">
        <ele>128.95</ele>
        <time>2017-08-06T09:23:35Z</time>
      </trkpt>
      <trkpt lat="49.23469" lon="3.9102">
        <ele>128.95</ele>
        <time>2017-08-06T09:23:36Z</time>
      </trkpt>
      <trkpt lat="49.23469" lon="3.91026">
        <ele>128.95</ele>
        <time>2017-08-06T09:23:37Z</time>
      </trkpt>
      <trkpt lat="49.23468" lon="3.9103">
        <ele>128.47</ele>
        <time>2017-08-06T09:23:38Z</time>
      </trkpt>
      <trkpt lat="49.23466" lon="3.91034">
        <ele>128.47</ele>
        <time>2017-08-06T09:23:39Z</time>
      </trkpt>
      <trkpt lat="49.23464" lon="3.91036">
        <ele>128.47</ele>
        <time>2017-08-06T09:23:40Z</time>
      </trkpt>
      <trkpt lat="49.2346" lon="3.9104">
        <ele>128.47</ele>
        <time>2017-08-06T09:23:41Z</time>
      </trkpt>
      <trkpt lat="49.23457" lon="3.91043">
        <ele>127.99</ele>
        <time>2017-08-06T09:23:42Z</time>
      </trkpt>
      <trkpt lat="49.23454" lon="3.91047">
        <ele>127.99</ele>
        <time>2017-08-06T09:23:43Z</time>
      </trkpt>
      <trkpt lat="49.23448" lon="3.91053">
        <ele>127.99</ele>
        <time>2017-08-06T09:23:45Z</time>
      </trkpt>
      <trkpt lat="49.23444" lon="3.91056">
        <ele>127.99</ele>
        <time>2017-08-06T09:23:46Z</time>
      </trkpt>
      <trkpt lat="49.23441" lon="3.91058">
        <ele>127.99</ele>
        <time>2017-08-06T09:23:47Z</time>
      </trkpt>
      <trkpt lat="49.23437" lon="3.91059">
        <ele>127.99</ele>
        <time>2017-08-06T09:23:48Z</time>
      </trkpt>
      <trkpt lat="49.23434" lon="3.91058">
        <ele>127.99</ele>
        <time>2017-08-06T09:23:49Z</time>
      </trkpt>
      <trkpt lat="49.23431" lon="3.91057">
        <ele>127.99</ele>
        <time>2017-08-06T09:23:50Z</time>
      </trkpt>
      <trkpt lat="49.23429" lon="3.91056">
        <ele>127.99</ele>
        <time>2017-08-06T09:23:51Z</time>
      </trkpt>
      <trkpt lat="49.23427" lon="3.91056">
        <ele>129.43</ele>
        <time>2017-08-06T09:23:52Z</time>
      </trkpt>
      <trkpt lat="49.23425" lon="3.91055">
        <ele>129.43</ele>
        <time>2017-08-06T09:23:53Z</time>
      </trkpt>
      <trkpt lat="49.23423" lon="3.91055">
        <ele>129.43</ele>
        <time>2017-08-06T09:23:54Z</time>
      </trkpt>
      <trkpt lat="49.23421" lon="3.91055">
        <ele>129.92</ele>
        <time>2017-08-06T09:23:55Z</time>
      </trkpt>
      <trkpt lat="49.23419" lon="3.91055">
        <ele>129.92</ele>
        <time>2017-08-06T09:23:56Z</time>
      </trkpt>
      <trkpt lat="49.23402" lon="3.91064">
        <ele>131.84</ele>
        <time>2017-08-06T09:24:07Z</time>
      </trkpt>
      <trkpt lat="49.23373" lon="3.91091">
        <ele>133.76</ele>
        <time>2017-08-06T09:24:24Z</time>
      </trkpt>
      <trkpt lat="49.23345" lon="3.9112">
        <ele>135.2</ele>
        <time>2017-08-06T09:24:40Z</time>
      </trkpt>
      <trkpt lat="49.23315" lon="3.91142">
        <ele>138.09</ele>
        <time>2017-08-06T09:24:57Z</time>
      </trkpt>
      <trkpt lat="49.23289" lon="3.91148">
        <ele>140.01</ele>
        <time>2017-08-06T09:25:12Z</time>
      </trkpt>
      <trkpt lat="49.23257" lon="3.91145">
        <ele>142.41</ele>
        <time>2017-08-06T09:25:29Z</time>
      </trkpt>
      <trkpt lat="49.23224" lon="3.9114">
        <ele>144.82</ele>
        <time>2017-08-06T09:25:47Z</time>
      </trkpt>
      <trkpt lat="49.23193" lon="3.91142">
        <ele>147.22</ele>
        <time>2017-08-06T09:26:04Z</time>
      </trkpt>
      <trkpt lat="49.2317" lon="3.91142">
        <ele>148.66</ele>
        <time>2017-08-06T09:26:17Z</time>
      </trkpt>
      <trkpt lat="49.2317" lon="3.9114">
        <ele>149.14</ele>
        <time>2017-08-06T09:26:18Z</time>
      </trkpt>
      <trkpt lat="49.2317" lon="3.91137">
        <ele>149.14</ele>
        <time>2017-08-06T09:26:19Z</time>
      </trkpt>
      <trkpt lat="49.2317" lon="3.91135">
        <ele>149.62</ele>
        <time>2017-08-06T09:26:20Z</time>
      </trkpt>
      <trkpt lat="49.23171" lon="3.91132">
        <ele>149.62</ele>
        <time>2017-08-06T09:26:21Z</time>
      </trkpt>
      <trkpt lat="49.23171" lon="3.91129">
        <ele>149.62</ele>
        <time>2017-08-06T09:26:22Z</time>
      </trkpt>
      <trkpt lat="49.23171" lon="3.91126">
        <ele>149.62</ele>
        <time>2017-08-06T09:26:23Z</time>
      </trkpt>
      <trkpt lat="49.23172" lon="3.91124">
        <ele>149.62</ele>
        <time>2017-08-06T09:26:24Z</time>
      </trkpt>
      <trkpt lat="49.2318" lon="3.91076">
        <ele>151.54</ele>
        <time>2017-08-06T09:26:41Z</time>
      </trkpt>
      <trkpt lat="49.23191" lon="3.9104">
        <ele>152.99</ele>
        <time>2017-08-06T09:26:56Z</time>
      </trkpt>
      <trkpt lat="49.23193" lon="3.91002">
        <ele>156.35</ele>
        <time>2017-08-06T09:27:11Z</time>
      </trkpt>
      <trkpt lat="49.23193" lon="3.90969">
        <ele>158.75</ele>
        <time>2017-08-06T09:27:25Z</time>
      </trkpt>
      <trkpt lat="49.23195" lon="3.90937">
        <ele>161.16</ele>
        <time>2017-08-06T09:27:39Z</time>
      </trkpt>
      <trkpt lat="49.23196" lon="3.90925">
        <ele>163.08</ele>
        <time>2017-08-06T09:27:51Z</time>
      </trkpt>
      <trkpt lat="49.23201" lon="3.90896">
        <ele>165</ele>
        <time>2017-08-06T09:28:10Z</time>
      </trkpt>
      <trkpt lat="49.232" lon="3.90877">
        <ele>166.45</ele>
        <time>2017-08-06T09:28:27Z</time>
      </trkpt>
      <trkpt lat="49.23197" lon="3.90852">
        <ele>168.37</ele>
        <time>2017-08-06T09:28:43Z</time>
      </trkpt>
      <trkpt lat="49.23199" lon="3.90848">
        <ele>169.33</ele>
        <time>2017-08-06T09:28:58Z</time>
      </trkpt>
      <trkpt lat="49.23195" lon="3.90827">
        <ele>172.21</ele>
        <time>2017-08-06T09:29:15Z</time>
      </trkpt>
      <trkpt lat="49.23191" lon="3.90812">
        <ele>174.14</ele>
        <time>2017-08-06T09:29:28Z</time>
      </trkpt>
      <trkpt lat="49.23186" lon="3.90789">
        <ele>177.02</ele>
        <time>2017-08-06T09:29:45Z</time>
      </trkpt>
      <trkpt lat="49.2318" lon="3.90773">
        <ele>178.46</ele>
        <time>2017-08-06T09:29:59Z</time>
      </trkpt>
      <trkpt lat="49.2318" lon="3.90771">
        <ele>178.46</ele>
        <time>2017-08-06T09:30:00Z</time>
      </trkpt>
      <trkpt lat="49.23179" lon="3.90767">
        <ele>178.94</ele>
        <time>2017-08-06T09:30:13Z</time>
      </trkpt>
      <trkpt lat="49.23179" lon="3.90768">
        <ele>178.94</ele>
        <time>2017-08-06T09:30:44Z</time>
      </trkpt>
      <trkpt lat="49.23178" lon="3.90767">
        <ele>178.46</ele>
        <time>2017-08-06T09:31:07Z</time>
      </trkpt>
      <trkpt lat="49.23179" lon="3.90764">
        <ele>178.46</ele>
        <time>2017-08-06T09:31:33Z</time>
      </trkpt>
      <trkpt lat="49.23178" lon="3.90764">
        <ele>178.46</ele>
        <time>2017-08-06T09:31:58Z</time>
      </trkpt>
      <trkpt lat="49.23178" lon="3.90762">
        <ele>178.46</ele>
        <time>2017-08-06T09:32:13Z</time>
      </trkpt>
      <trkpt lat="49.23178" lon="3.90761">
        <ele>178.46</ele>
        <time>2017-08-06T09:32:14Z</time>
      </trkpt>
      <trkpt lat="49.23178" lon="3.90759">
        <ele>178.46</ele>
        <time>2017-08-06T09:32:15Z</time>
      </trkpt>
      <trkpt lat="49.23179" lon="3.90756">
        <ele>178.94</ele>
        <time>2017-08-06T09:32:20Z</time>
      </trkpt>
      <trkpt lat="49.23179" lon="3.90753">
        <ele>178.94</ele>
        <time>2017-08-06T09:32:22Z</time>
      </trkpt>
      <trkpt lat="49.23179" lon="3.90751">
        <ele>178.94</ele>
        <time>2017-08-06T09:32:23Z</time>
      </trkpt>
      <trkpt lat="49.23179" lon="3.90748">
        <ele>178.46</ele>
        <time>2017-08-06T09:32:24Z</time>
      </trkpt>
      <trkpt lat="49.23178" lon="3.90746">
        <ele>178.46</ele>
        <time>2017-08-06T09:32:25Z</time>
      </trkpt>
      <trkpt lat="49.23178" lon="3.90744">
        <ele>178.46</ele>
        <time>2017-08-06T09:32:26Z</time>
      </trkpt>
      <trkpt lat="49.23178" lon="3.90742">
        <ele>178.46</ele>
        <time>2017-08-06T09:32:27Z</time>
      </trkpt>
      <trkpt lat="49.23173" lon="3.90723">
        <ele>179.9</ele>
        <time>2017-08-06T09:32:38Z</time>
      </trkpt>
      <trkpt lat="49.23173" lon="3.90725">
        <ele>179.9</ele>
        <time>2017-08-06T09:33:04Z</time>
      </trkpt>
      <trkpt lat="49.23166" lon="3.90706">
        <ele>180.38</ele>
        <time>2017-08-06T09:33:16Z</time>
      </trkpt>
      <trkpt lat="49.23161" lon="3.90695">
        <ele>181.35</ele>
        <time>2017-08-06T09:33:21Z</time>
      </trkpt>
      <trkpt lat="49.2316" lon="3.90693">
        <ele>181.35</ele>
        <time>2017-08-06T09:33:22Z</time>
      </trkpt>
      <trkpt lat="49.2316" lon="3.90691">
        <ele>181.35</ele>
        <time>2017-08-06T09:33:23Z</time>
      </trkpt>
      <trkpt lat="49.2316" lon="3.90689">
        <ele>181.35</ele>
        <time>2017-08-06T09:33:24Z</time>
      </trkpt>
      <trkpt lat="49.23159" lon="3.90687">
        <ele>181.35</ele>
        <time>2017-08-06T09:33:25Z</time>
      </trkpt>
      <trkpt lat="49.23149" lon="3.90658">
        <ele>182.79</ele>
        <time>2017-08-06T09:33:39Z</time>
      </trkpt>
      <trkpt lat="49.23149" lon="3.90654">
        <ele>182.79</ele>
        <time>2017-08-06T09:33:41Z</time>
      </trkpt>
      <trkpt lat="49.23148" lon="3.90652">
        <ele>182.79</ele>
        <time>2017-08-06T09:33:42Z</time>
      </trkpt>
      <trkpt lat="49.23148" lon="3.9065">
        <ele>183.27</ele>
        <time>2017-08-06T09:33:43Z</time>
      </trkpt>
      <trkpt lat="49.23147" lon="3.90648">
        <ele>183.27</ele>
        <time>2017-08-06T09:33:44Z</time>
      </trkpt>
      <trkpt lat="49.23147" lon="3.90646">
        <ele>183.75</ele>
        <time>2017-08-06T09:33:45Z</time>
      </trkpt>
      <trkpt lat="49.23146" lon="3.90644">
        <ele>183.75</ele>
        <time>2017-08-06T09:33:46Z</time>
      </trkpt>
      <trkpt lat="49.23145" lon="3.90614">
        <ele>186.63</ele>
        <time>2017-08-06T09:33:59Z</time>
      </trkpt>
      <trkpt lat="49.23145" lon="3.90584">
        <ele>190</ele>
        <time>2017-08-06T09:34:12Z</time>
      </trkpt>
      <trkpt lat="49.23144" lon="3.9058">
        <ele>190.48</ele>
        <time>2017-08-06T09:34:23Z</time>
      </trkpt>
      <trkpt lat="49.23144" lon="3.90578">
        <ele>190.48</ele>
        <time>2017-08-06T09:34:24Z</time>
      </trkpt>
      <trkpt lat="49.23143" lon="3.90555">
        <ele>192.88</ele>
        <time>2017-08-06T09:34:39Z</time>
      </trkpt>
      <trkpt lat="49.2314" lon="3.9052">
        <ele>194.8</ele>
        <time>2017-08-06T09:35:00Z</time>
      </trkpt>
      <trkpt lat="49.23142" lon="3.90491">
        <ele>197.69</ele>
        <time>2017-08-06T09:35:18Z</time>
      </trkpt>
      <trkpt lat="49.23143" lon="3.90484">
        <ele>198.17</ele>
        <time>2017-08-06T09:35:23Z</time>
      </trkpt>
      <trkpt lat="49.23144" lon="3.90483">
        <ele>198.65</ele>
        <time>2017-08-06T09:35:24Z</time>
      </trkpt>
      <trkpt lat="49.23144" lon="3.90481">
        <ele>198.17</ele>
        <time>2017-08-06T09:35:25Z</time>
      </trkpt>
      <trkpt lat="49.23145" lon="3.90479">
        <ele>198.17</ele>
        <time>2017-08-06T09:35:26Z</time>
      </trkpt>
      <trkpt lat="49.23144" lon="3.90467">
        <ele>199.61</ele>
        <time>2017-08-06T09:35:34Z</time>
      </trkpt>
      <trkpt lat="49.23145" lon="3.90453">
        <ele>200.09</ele>
        <time>2017-08-06T09:35:49Z</time>
      </trkpt>
      <trkpt lat="49.23147" lon="3.9045">
        <ele>200.09</ele>
        <time>2017-08-06T09:36:18Z</time>
      </trkpt>
      <trkpt lat="49.23145" lon="3.90438">
        <ele>200.09</ele>
        <time>2017-08-06T09:36:36Z</time>
      </trkpt>
      <trkpt lat="49.23138" lon="3.90397">
        <ele>201.05</ele>
        <time>2017-08-06T09:36:50Z</time>
      </trkpt>
      <trkpt lat="49.23128" lon="3.90341">
        <ele>202.49</ele>
        <time>2017-08-06T09:37:10Z</time>
      </trkpt>
      <trkpt lat="49.23121" lon="3.90296">
        <ele>203.94</ele>
        <time>2017-08-06T09:37:26Z</time>
      </trkpt>
      <trkpt lat="49.23108" lon="3.90245">
        <ele>205.86</ele>
        <time>2017-08-06T09:37:45Z</time>
      </trkpt>
      <trkpt lat="49.23095" lon="3.90206">
        <ele>208.26</ele>
        <time>2017-08-06T09:38:00Z</time>
      </trkpt>
      <trkpt lat="49.23083" lon="3.90167">
        <ele>209.7</ele>
        <time>2017-08-06T09:38:18Z</time>
      </trkpt>
      <trkpt lat="49.23071" lon="3.90132">
        <ele>212.11</ele>
        <time>2017-08-06T09:38:34Z</time>
      </trkpt>
      <trkpt lat="49.23057" lon="3.90097">
        <ele>214.99</ele>
        <time>2017-08-06T09:38:51Z</time>
      </trkpt>
      <trkpt lat="49.23047" lon="3.90073">
        <ele>217.88</ele>
        <time>2017-08-06T09:39:03Z</time>
      </trkpt>
      <trkpt lat="49.23035" lon="3.90046">
        <ele>220.76</ele>
        <time>2017-08-06T09:39:17Z</time>
      </trkpt>
      <trkpt lat="49.23024" lon="3.90017">
        <ele>223.64</ele>
        <time>2017-08-06T09:39:31Z</time>
      </trkpt>
      <trkpt lat="49.23022" lon="3.9001">
        <ele>224.12</ele>
        <time>2017-08-06T09:39:35Z</time>
      </trkpt>
      <trkpt lat="49.23021" lon="3.90008">
        <ele>224.61</ele>
        <time>2017-08-06T09:39:36Z</time>
      </trkpt>
      <trkpt lat="49.2302" lon="3.90006">
        <ele>224.61</ele>
        <time>2017-08-06T09:39:37Z</time>
      </trkpt>
      <trkpt lat="49.2302" lon="3.90005">
        <ele>224.61</ele>
        <time>2017-08-06T09:39:38Z</time>
      </trkpt>
      <trkpt lat="49.23019" lon="3.90003">
        <ele>225.09</ele>
        <time>2017-08-06T09:39:39Z</time>
      </trkpt>
      <trkpt lat="49.23018" lon="3.90001">
        <ele>225.09</ele>
        <time>2017-08-06T09:39:40Z</time>
      </trkpt>
      <trkpt lat="49.23011" lon="3.89977">
        <ele>227.01</ele>
        <time>2017-08-06T09:39:52Z</time>
      </trkpt>
      <trkpt lat="49.23009" lon="3.89974">
        <ele>227.49</ele>
        <time>2017-08-06T09:39:54Z</time>
      </trkpt>
      <trkpt lat="49.23008" lon="3.89973">
        <ele>227.49</ele>
        <time>2017-08-06T09:39:55Z</time>
      </trkpt>
      <trkpt lat="49.23005" lon="3.89974">
        <ele>227.49</ele>
        <time>2017-08-06T09:40:07Z</time>
      </trkpt>
      <trkpt lat="49.23004" lon="3.89976">
        <ele>227.49</ele>
        <time>2017-08-06T09:40:31Z</time>
      </trkpt>
      <trkpt lat="49.23004" lon="3.89975">
        <ele>227.49</ele>
        <time>2017-08-06T09:40:53Z</time>
      </trkpt>
      <trkpt lat="49.23006" lon="3.89974">
        <ele>227.49</ele>
        <time>2017-08-06T09:41:24Z</time>
      </trkpt>
      <trkpt lat="49.23005" lon="3.89976">
        <ele>227.49</ele>
        <time>2017-08-06T09:41:47Z</time>
      </trkpt>
      <trkpt lat="49.23004" lon="3.89972">
        <ele>227.49</ele>
        <time>2017-08-06T09:42:09Z</time>
      </trkpt>
      <trkpt lat="49.23004" lon="3.8997">
        <ele>227.49</ele>
        <time>2017-08-06T09:42:10Z</time>
      </trkpt>
      <trkpt lat="49.23003" lon="3.89968">
        <ele>227.49</ele>
        <time>2017-08-06T09:42:11Z</time>
      </trkpt>
      <trkpt lat="49.23002" lon="3.89966">
        <ele>227.49</ele>
        <time>2017-08-06T09:42:12Z</time>
      </trkpt>
      <trkpt lat="49.23" lon="3.89964">
        <ele>227.49</ele>
        <time>2017-08-06T09:42:13Z</time>
      </trkpt>
      <trkpt lat="49.22999" lon="3.89963">
        <ele>227.49</ele>
        <time>2017-08-06T09:42:14Z</time>
      </trkpt>
      <trkpt lat="49.22967" lon="3.89948">
        <ele>226.05</ele>
        <time>2017-08-06T09:42:25Z</time>
      </trkpt>
      <trkpt lat="49.22941" lon="3.89944">
        <ele>225.57</ele>
        <time>2017-08-06T09:42:33Z</time>
      </trkpt>
      <trkpt lat="49.22937" lon="3.89944">
        <ele>224.61</ele>
        <time>2017-08-06T09:42:42Z</time>
      </trkpt>
      <trkpt lat="49.22939" lon="3.89945">
        <ele>224.61</ele>
        <time>2017-08-06T09:42:43Z</time>
      </trkpt>
      <trkpt lat="49.22974" lon="3.89953">
        <ele>226.05</ele>
        <time>2017-08-06T09:42:59Z</time>
      </trkpt>
      <trkpt lat="49.22996" lon="3.89962">
        <ele>226.53</ele>
        <time>2017-08-06T09:43:08Z</time>
      </trkpt>
      <trkpt lat="49.22998" lon="3.8996">
        <ele>227.01</ele>
        <time>2017-08-06T09:43:09Z</time>
      </trkpt>
      <trkpt lat="49.22999" lon="3.89958">
        <ele>227.01</ele>
        <time>2017-08-06T09:43:10Z</time>
      </trkpt>
      <trkpt lat="49.22999" lon="3.89955">
        <ele>227.01</ele>
        <time>2017-08-06T09:43:11Z</time>
      </trkpt>
      <trkpt lat="49.22998" lon="3.89953">
        <ele>227.01</ele>
        <time>2017-08-06T09:43:12Z</time>
      </trkpt>
      <trkpt lat="49.22998" lon="3.89951">
        <ele>227.01</ele>
        <time>2017-08-06T09:43:13Z</time>
      </trkpt>
      <trkpt lat="49.22997" lon="3.89949">
        <ele>227.49</ele>
        <time>2017-08-06T09:43:14Z</time>
      </trkpt>
      <trkpt lat="49.22996" lon="3.89947">
        <ele>227.49</ele>
        <time>2017-08-06T09:43:15Z</time>
      </trkpt>
      <trkpt lat="49.22994" lon="3.89942">
        <ele>227.97</ele>
        <time>2017-08-06T09:43:18Z</time>
      </trkpt>
      <trkpt lat="49.22993" lon="3.8994">
        <ele>227.97</ele>
        <time>2017-08-06T09:43:19Z</time>
      </trkpt>
      <trkpt lat="49.22976" lon="3.89914">
        <ele>229.41</ele>
        <time>2017-08-06T09:43:32Z</time>
      </trkpt>
      <trkpt lat="49.22949" lon="3.89861">
        <ele>230.37</ele>
        <time>2017-08-06T09:43:50Z</time>
      </trkpt>
      <trkpt lat="49.22922" lon="3.89816">
        <ele>231.33</ele>
        <time>2017-08-06T09:44:05Z</time>
      </trkpt>
      <trkpt lat="49.22888" lon="3.89757">
        <ele>231.33</ele>
        <time>2017-08-06T09:44:21Z</time>
      </trkpt>
      <trkpt lat="49.22871" lon="3.89708">
        <ele>231.81</ele>
        <time>2017-08-06T09:44:33Z</time>
      </trkpt>
      <trkpt lat="49.22851" lon="3.89667">
        <ele>231.81</ele>
        <time>2017-08-06T09:44:44Z</time>
      </trkpt>
      <trkpt lat="49.22822" lon="3.89664">
        <ele>231.81</ele>
        <time>2017-08-06T09:44:53Z</time>
      </trkpt>
      <trkpt lat="49.2278" lon="3.89669">
        <ele>231.81</ele>
        <time>2017-08-06T09:45:04Z</time>
      </trkpt>
      <trkpt lat="49.22707" lon="3.89674">
        <ele>230.37</ele>
        <time>2017-08-06T09:45:22Z</time>
      </trkpt>
      <trkpt lat="49.22638" lon="3.89681">
        <ele>230.37</ele>
        <time>2017-08-06T09:45:40Z</time>
      </trkpt>
      <trkpt lat="49.22578" lon="3.89686">
        <ele>230.37</ele>
        <time>2017-08-06T09:45:55Z</time>
      </trkpt>
      <trkpt lat="49.2257" lon="3.89688">
        <ele>230.37</ele>
        <time>2017-08-06T09:45:57Z</time>
      </trkpt>
      <trkpt lat="49.22566" lon="3.89688">
        <ele>230.37</ele>
        <time>2017-08-06T09:45:58Z</time>
      </trkpt>
      <trkpt lat="49.22514" lon="3.89695">
        <ele>230.37</ele>
        <time>2017-08-06T09:46:12Z</time>
      </trkpt>
      <trkpt lat="49.22444" lon="3.8972">
        <ele>229.89</ele>
        <time>2017-08-06T09:46:29Z</time>
      </trkpt>
      <trkpt lat="49.22414" lon="3.89731">
        <ele>229.41</ele>
        <time>2017-08-06T09:46:36Z</time>
      </trkpt>
      <trkpt lat="49.2241" lon="3.89732">
        <ele>229.41</ele>
        <time>2017-08-06T09:46:37Z</time>
      </trkpt>
      <trkpt lat="49.22402" lon="3.89736">
        <ele>228.93</ele>
        <time>2017-08-06T09:46:39Z</time>
      </trkpt>
      <trkpt lat="49.22355" lon="3.89755">
        <ele>228.93</ele>
        <time>2017-08-06T09:46:52Z</time>
      </trkpt>
      <trkpt lat="49.22341" lon="3.89763">
        <ele>230.37</ele>
        <time>2017-08-06T09:46:56Z</time>
      </trkpt>
      <trkpt lat="49.22337" lon="3.89766">
        <ele>230.37</ele>
        <time>2017-08-06T09:46:57Z</time>
      </trkpt>
      <trkpt lat="49.22284" lon="3.89794">
        <ele>230.37</ele>
        <time>2017-08-06T09:47:12Z</time>
      </trkpt>
      <trkpt lat="49.2224" lon="3.8982">
        <ele>231.33</ele>
        <time>2017-08-06T09:47:27Z</time>
      </trkpt>
      <trkpt lat="49.22202" lon="3.89863">
        <ele>231.33</ele>
        <time>2017-08-06T09:47:40Z</time>
      </trkpt>
      <trkpt lat="49.22167" lon="3.89915">
        <ele>230.37</ele>
        <time>2017-08-06T09:47:52Z</time>
      </trkpt>
      <trkpt lat="49.2216" lon="3.89924">
        <ele>230.37</ele>
        <time>2017-08-06T09:47:54Z</time>
      </trkpt>
      <trkpt lat="49.22157" lon="3.89929">
        <ele>230.37</ele>
        <time>2017-08-06T09:47:55Z</time>
      </trkpt>
      <trkpt lat="49.22154" lon="3.89934">
        <ele>230.37</ele>
        <time>2017-08-06T09:47:56Z</time>
      </trkpt>
      <trkpt lat="49.22122" lon="3.89984">
        <ele>229.89</ele>
        <time>2017-08-06T09:48:06Z</time>
      </trkpt>
      <trkpt lat="49.22119" lon="3.89989">
        <ele>229.41</ele>
        <time>2017-08-06T09:48:07Z</time>
      </trkpt>
      <trkpt lat="49.22108" lon="3.90004">
        <ele>229.41</ele>
        <time>2017-08-06T09:48:10Z</time>
      </trkpt>
      <trkpt lat="49.22104" lon="3.90008">
        <ele>229.41</ele>
        <time>2017-08-06T09:48:11Z</time>
      </trkpt>
      <trkpt lat="49.22079" lon="3.9005">
        <ele>228.45</ele>
        <time>2017-08-06T09:48:18Z</time>
      </trkpt>
      <trkpt lat="49.22076" lon="3.90058">
        <ele>227.97</ele>
        <time>2017-08-06T09:48:19Z</time>
      </trkpt>
      <trkpt lat="49.22073" lon="3.90066">
        <ele>227.97</ele>
        <time>2017-08-06T09:48:20Z</time>
      </trkpt>
      <trkpt lat="49.22071" lon="3.90075">
        <ele>227.01</ele>
        <time>2017-08-06T09:48:21Z</time>
      </trkpt>
      <trkpt lat="49.2207" lon="3.90086">
        <ele>227.01</ele>
        <time>2017-08-06T09:48:22Z</time>
      </trkpt>
      <trkpt lat="49.22069" lon="3.90096">
        <ele>226.05</ele>
        <time>2017-08-06T09:48:23Z</time>
      </trkpt>
      <trkpt lat="49.2206" lon="3.90159">
        <ele>222.68</ele>
        <time>2017-08-06T09:48:28Z</time>
      </trkpt>
      <trkpt lat="49.22056" lon="3.90172">
        <ele>221.24</ele>
        <time>2017-08-06T09:48:29Z</time>
      </trkpt>
      <trkpt lat="49.22038" lon="3.90232">
        <ele>217.88</ele>
        <time>2017-08-06T09:48:33Z</time>
      </trkpt>
      <trkpt lat="49.22022" lon="3.90299">
        <ele>213.55</ele>
        <time>2017-08-06T09:48:37Z</time>
      </trkpt>
      <trkpt lat="49.22004" lon="3.90365">
        <ele>209.7</ele>
        <time>2017-08-06T09:48:41Z</time>
      </trkpt>
      <trkpt lat="49.21989" lon="3.90417">
        <ele>205.86</ele>
        <time>2017-08-06T09:48:44Z</time>
      </trkpt>
      <trkpt lat="49.21984" lon="3.90433">
        <ele>205.86</ele>
        <time>2017-08-06T09:48:45Z</time>
      </trkpt>
      <trkpt lat="49.21978" lon="3.90449">
        <ele>204.42</ele>
        <time>2017-08-06T09:48:46Z</time>
      </trkpt>
      <trkpt lat="49.21971" lon="3.90464">
        <ele>203.94</ele>
        <time>2017-08-06T09:48:47Z</time>
      </trkpt>
      <trkpt lat="49.21962" lon="3.90477">
        <ele>202.98</ele>
        <time>2017-08-06T09:48:48Z</time>
      </trkpt>
      <trkpt lat="49.21953" lon="3.90488">
        <ele>202.98</ele>
        <time>2017-08-06T09:48:49Z</time>
      </trkpt>
      <trkpt lat="49.21944" lon="3.905">
        <ele>202.49</ele>
        <time>2017-08-06T09:48:50Z</time>
      </trkpt>
      <trkpt lat="49.21926" lon="3.90523">
        <ele>201.53</ele>
        <time>2017-08-06T09:48:52Z</time>
      </trkpt>
      <trkpt lat="49.21895" lon="3.90563">
        <ele>200.09</ele>
        <time>2017-08-06T09:48:57Z</time>
      </trkpt>
      <trkpt lat="49.21852" lon="3.9061">
        <ele>199.61</ele>
        <time>2017-08-06T09:49:08Z</time>
      </trkpt>
      <trkpt lat="49.21778" lon="3.90702">
        <ele>198.17</ele>
        <time>2017-08-06T09:49:24Z</time>
      </trkpt>
      <trkpt lat="49.21703" lon="3.90789">
        <ele>197.21</ele>
        <time>2017-08-06T09:49:40Z</time>
      </trkpt>
      <trkpt lat="49.21634" lon="3.90891">
        <ele>197.21</ele>
        <time>2017-08-06T09:49:59Z</time>
      </trkpt>
      <trkpt lat="49.2158" lon="3.90969">
        <ele>197.21</ele>
        <time>2017-08-06T09:50:14Z</time>
      </trkpt>
      <trkpt lat="49.2154" lon="3.91032">
        <ele>198.17</ele>
        <time>2017-08-06T09:50:26Z</time>
      </trkpt>
      <trkpt lat="49.21516" lon="3.91075">
        <ele>198.17</ele>
        <time>2017-08-06T09:50:36Z</time>
      </trkpt>
      <trkpt lat="49.21479" lon="3.91147">
        <ele>198.65</ele>
        <time>2017-08-06T09:50:51Z</time>
      </trkpt>
      <trkpt lat="49.21467" lon="3.9117">
        <ele>199.13</ele>
        <time>2017-08-06T09:50:56Z</time>
      </trkpt>
      <trkpt lat="49.21416" lon="3.91269">
        <ele>198.17</ele>
        <time>2017-08-06T09:51:13Z</time>
      </trkpt>
      <trkpt lat="49.21392" lon="3.91315">
        <ele>197.69</ele>
        <time>2017-08-06T09:51:20Z</time>
      </trkpt>
      <trkpt lat="49.21389" lon="3.91322">
        <ele>197.69</ele>
        <time>2017-08-06T09:51:21Z</time>
      </trkpt>
      <trkpt lat="49.21387" lon="3.9133">
        <ele>197.69</ele>
        <time>2017-08-06T09:51:22Z</time>
      </trkpt>
      <trkpt lat="49.2138" lon="3.91351">
        <ele>197.69</ele>
        <time>2017-08-06T09:51:25Z</time>
      </trkpt>
      <trkpt lat="49.21375" lon="3.91363">
        <ele>197.69</ele>
        <time>2017-08-06T09:51:27Z</time>
      </trkpt>
      <trkpt lat="49.21363" lon="3.91399">
        <ele>197.69</ele>
        <time>2017-08-06T09:51:33Z</time>
      </trkpt>
      <trkpt lat="49.21357" lon="3.91416">
        <ele>197.69</ele>
        <time>2017-08-06T09:51:36Z</time>
      </trkpt>
      <trkpt lat="49.21319" lon="3.91526">
        <ele>197.69</ele>
        <time>2017-08-06T09:51:54Z</time>
      </trkpt>
      <trkpt lat="49.21317" lon="3.91533">
        <ele>197.69</ele>
        <time>2017-08-06T09:51:55Z</time>
      </trkpt>
      <trkpt lat="49.21312" lon="3.91545">
        <ele>197.69</ele>
        <time>2017-08-06T09:51:57Z</time>
      </trkpt>
      <trkpt lat="49.21288" lon="3.91606">
        <ele>198.65</ele>
        <time>2017-08-06T09:52:07Z</time>
      </trkpt>
      <trkpt lat="49.21277" lon="3.91628">
        <ele>198.65</ele>
        <time>2017-08-06T09:52:11Z</time>
      </trkpt>
      <trkpt lat="49.21263" lon="3.91648">
        <ele>198.65</ele>
        <time>2017-08-06T09:52:15Z</time>
      </trkpt>
      <trkpt lat="49.21247" lon="3.91666">
        <ele>198.65</ele>
        <time>2017-08-06T09:52:19Z</time>
      </trkpt>
      <trkpt lat="49.21243" lon="3.91672">
        <ele>198.65</ele>
        <time>2017-08-06T09:52:20Z</time>
      </trkpt>
      <trkpt lat="49.21231" lon="3.91689">
        <ele>197.69</ele>
        <time>2017-08-06T09:52:23Z</time>
      </trkpt>
      <trkpt lat="49.21172" lon="3.9175">
        <ele>194.8</ele>
        <time>2017-08-06T09:52:35Z</time>
      </trkpt>
      <trkpt lat="49.21166" lon="3.91756">
        <ele>194.8</ele>
        <time>2017-08-06T09:52:36Z</time>
      </trkpt>
      <trkpt lat="49.21134" lon="3.91791">
        <ele>191.44</ele>
        <time>2017-08-06T09:52:41Z</time>
      </trkpt>
      <trkpt lat="49.2112" lon="3.91805">
        <ele>190.48</ele>
        <time>2017-08-06T09:52:43Z</time>
      </trkpt>
      <trkpt lat="49.21072" lon="3.9184">
        <ele>190</ele>
        <time>2017-08-06T09:52:50Z</time>
      </trkpt>
      <trkpt lat="49.21066" lon="3.91845">
        <ele>190</ele>
        <time>2017-08-06T09:52:51Z</time>
      </trkpt>
      <trkpt lat="49.21" lon="3.91884">
        <ele>190.96</ele>
        <time>2017-08-06T09:53:04Z</time>
      </trkpt>
      <trkpt lat="49.20996" lon="3.91887">
        <ele>190.96</ele>
        <time>2017-08-06T09:53:05Z</time>
      </trkpt>
      <trkpt lat="49.20983" lon="3.91894">
        <ele>190.96</ele>
        <time>2017-08-06T09:53:08Z</time>
      </trkpt>
      <trkpt lat="49.20978" lon="3.91898">
        <ele>190.96</ele>
        <time>2017-08-06T09:53:09Z</time>
      </trkpt>
      <trkpt lat="49.20973" lon="3.91902">
        <ele>190.96</ele>
        <time>2017-08-06T09:53:10Z</time>
      </trkpt>
      <trkpt lat="49.20965" lon="3.91908">
        <ele>190.96</ele>
        <time>2017-08-06T09:53:12Z</time>
      </trkpt>
      <trkpt lat="49.20961" lon="3.9191">
        <ele>190.96</ele>
        <time>2017-08-06T09:53:13Z</time>
      </trkpt>
      <trkpt lat="49.20952" lon="3.91914">
        <ele>190.96</ele>
        <time>2017-08-06T09:53:15Z</time>
      </trkpt>
      <trkpt lat="49.20897" lon="3.91953">
        <ele>190.96</ele>
        <time>2017-08-06T09:53:29Z</time>
      </trkpt>
      <trkpt lat="49.20849" lon="3.92005">
        <ele>190.48</ele>
        <time>2017-08-06T09:53:41Z</time>
      </trkpt>
      <trkpt lat="49.20809" lon="3.92054">
        <ele>187.11</ele>
        <time>2017-08-06T09:53:52Z</time>
      </trkpt>
      <trkpt lat="49.20793" lon="3.92083">
        <ele>188.08</ele>
        <time>2017-08-06T09:54:04Z</time>
      </trkpt>
      <trkpt lat="49.20774" lon="3.92118">
        <ele>189.52</ele>
        <time>2017-08-06T09:54:19Z</time>
      </trkpt>
      <trkpt lat="49.20753" lon="3.92163">
        <ele>190.96</ele>
        <time>2017-08-06T09:54:36Z</time>
      </trkpt>
      <trkpt lat="49.20732" lon="3.92211">
        <ele>192.88</ele>
        <time>2017-08-06T09:54:55Z</time>
      </trkpt>
      <trkpt lat="49.20715" lon="3.92254">
        <ele>195.28</ele>
        <time>2017-08-06T09:55:12Z</time>
      </trkpt>
      <trkpt lat="49.20695" lon="3.92296">
        <ele>197.21</ele>
        <time>2017-08-06T09:55:30Z</time>
      </trkpt>
      <trkpt lat="49.20677" lon="3.9234">
        <ele>198.65</ele>
        <time>2017-08-06T09:55:46Z</time>
      </trkpt>
      <trkpt lat="49.20662" lon="3.92374">
        <ele>200.09</ele>
        <time>2017-08-06T09:55:59Z</time>
      </trkpt>
      <trkpt lat="49.20642" lon="3.92417">
        <ele>201.53</ele>
        <time>2017-08-06T09:56:15Z</time>
      </trkpt>
      <trkpt lat="49.20616" lon="3.92455">
        <ele>202.49</ele>
        <time>2017-08-06T09:56:29Z</time>
      </trkpt>
      <trkpt lat="49.20588" lon="3.92496">
        <ele>202.98</ele>
        <time>2017-08-06T09:56:44Z</time>
      </trkpt>
      <trkpt lat="49.20574" lon="3.92555">
        <ele>203.94</ele>
        <time>2017-08-06T09:56:59Z</time>
      </trkpt>
      <trkpt lat="49.20565" lon="3.92603">
        <ele>205.86</ele>
        <time>2017-08-06T09:57:11Z</time>
      </trkpt>
      <trkpt lat="49.20594" lon="3.92638">
        <ele>206.82</ele>
        <time>2017-08-06T09:57:25Z</time>
      </trkpt>
      <trkpt lat="49.20606" lon="3.92652">
        <ele>206.82</ele>
        <time>2017-08-06T09:57:35Z</time>
      </trkpt>
      <trkpt lat="49.20607" lon="3.92651">
        <ele>206.82</ele>
        <time>2017-08-06T09:58:14Z</time>
      </trkpt>
      <trkpt lat="49.20607" lon="3.92652">
        <ele>206.82</ele>
        <time>2017-08-06T09:58:16Z</time>
      </trkpt>
      <trkpt lat="49.20619" lon="3.92666">
        <ele>205.38</ele>
        <time>2017-08-06T09:58:22Z</time>
      </trkpt>
      <trkpt lat="49.20649" lon="3.927">
        <ele>202.49</ele>
        <time>2017-08-06T09:58:31Z</time>
      </trkpt>
      <trkpt lat="49.20673" lon="3.92727">
        <ele>198.17</ele>
        <time>2017-08-06T09:58:38Z</time>
      </trkpt>
      <trkpt lat="49.20675" lon="3.92731">
        <ele>197.69</ele>
        <time>2017-08-06T09:58:39Z</time>
      </trkpt>
      <trkpt lat="49.2067" lon="3.92759">
        <ele>198.65</ele>
        <time>2017-08-06T09:58:48Z</time>
      </trkpt>
      <trkpt lat="49.20662" lon="3.92777">
        <ele>200.57</ele>
        <time>2017-08-06T09:58:57Z</time>
      </trkpt>
      <trkpt lat="49.20657" lon="3.92791">
        <ele>201.05</ele>
        <time>2017-08-06T09:59:04Z</time>
      </trkpt>
      <trkpt lat="49.20655" lon="3.92799">
        <ele>202.01</ele>
        <time>2017-08-06T09:59:07Z</time>
      </trkpt>
      <trkpt lat="49.20647" lon="3.92819">
        <ele>203.46</ele>
        <time>2017-08-06T09:59:17Z</time>
      </trkpt>
      <trkpt lat="49.20643" lon="3.92824">
        <ele>203.94</ele>
        <time>2017-08-06T09:59:20Z</time>
      </trkpt>
      <trkpt lat="49.20631" lon="3.92841">
        <ele>205.38</ele>
        <time>2017-08-06T09:59:30Z</time>
      </trkpt>
      <trkpt lat="49.20627" lon="3.92847">
        <ele>205.86</ele>
        <time>2017-08-06T09:59:33Z</time>
      </trkpt>
      <trkpt lat="49.20616" lon="3.92878">
        <ele>206.82</ele>
        <time>2017-08-06T09:59:46Z</time>
      </trkpt>
      <trkpt lat="49.20615" lon="3.92879">
        <ele>206.82</ele>
        <time>2017-08-06T09:59:57Z</time>
      </trkpt>
      <trkpt lat="49.20615" lon="3.92879">
        <ele>206.82</ele>
        <time>2017-08-06T10:00:09Z</time>
      </trkpt>
      <trkpt lat="49.20596" lon="3.92916">
        <ele>207.78</ele>
        <time>2017-08-06T10:00:26Z</time>
      </trkpt>
      <trkpt lat="49.20589" lon="3.92921">
        <ele>208.74</ele>
        <time>2017-08-06T10:00:31Z</time>
      </trkpt>
      <trkpt lat="49.20576" lon="3.9293">
        <ele>210.67</ele>
        <time>2017-08-06T10:00:41Z</time>
      </trkpt>
      <trkpt lat="49.20567" lon="3.92938">
        <ele>211.63</ele>
        <time>2017-08-06T10:00:49Z</time>
      </trkpt>
      <trkpt lat="49.20561" lon="3.92944">
        <ele>212.59</ele>
        <time>2017-08-06T10:00:55Z</time>
      </trkpt>
      <trkpt lat="49.20558" lon="3.92946">
        <ele>213.07</ele>
        <time>2017-08-06T10:00:57Z</time>
      </trkpt>
      <trkpt lat="49.20551" lon="3.92961">
        <ele>214.51</ele>
        <time>2017-08-06T10:01:06Z</time>
      </trkpt>
      <trkpt lat="49.2054" lon="3.92973">
        <ele>215.95</ele>
        <time>2017-08-06T10:01:16Z</time>
      </trkpt>
      <trkpt lat="49.20539" lon="3.92977">
        <ele>216.43</ele>
        <time>2017-08-06T10:01:18Z</time>
      </trkpt>
      <trkpt lat="49.20526" lon="3.92991">
        <ele>217.88</ele>
        <time>2017-08-06T10:01:29Z</time>
      </trkpt>
      <trkpt lat="49.20516" lon="3.93002">
        <ele>218.84</ele>
        <time>2017-08-06T10:01:38Z</time>
      </trkpt>
      <trkpt lat="49.20511" lon="3.93005">
        <ele>219.32</ele>
        <time>2017-08-06T10:01:41Z</time>
      </trkpt>
      <trkpt lat="49.20506" lon="3.93009">
        <ele>219.8</ele>
        <time>2017-08-06T10:01:45Z</time>
      </trkpt>
      <trkpt lat="49.2048" lon="3.93022">
        <ele>220.76</ele>
        <time>2017-08-06T10:02:01Z</time>
      </trkpt>
      <trkpt lat="49.20476" lon="3.93023">
        <ele>220.76</ele>
        <time>2017-08-06T10:02:03Z</time>
      </trkpt>
      <trkpt lat="49.20479" lon="3.93011">
        <ele>221.72</ele>
        <time>2017-08-06T10:02:12Z</time>
      </trkpt>
      <trkpt lat="49.20483" lon="3.93004">
        <ele>222.2</ele>
        <time>2017-08-06T10:02:15Z</time>
      </trkpt>
      <trkpt lat="49.20495" lon="3.9297">
        <ele>224.12</ele>
        <time>2017-08-06T10:02:30Z</time>
      </trkpt>
      <trkpt lat="49.20491" lon="3.92926">
        <ele>226.05</ele>
        <time>2017-08-06T10:02:48Z</time>
      </trkpt>
      <trkpt lat="49.2048" lon="3.92894">
        <ele>227.01</ele>
        <time>2017-08-06T10:03:00Z</time>
      </trkpt>
      <trkpt lat="49.20474" lon="3.92887">
        <ele>227.01</ele>
        <time>2017-08-06T10:03:04Z</time>
      </trkpt>
      <trkpt lat="49.20459" lon="3.92885">
        <ele>228.93</ele>
        <time>2017-08-06T10:03:14Z</time>
      </trkpt>
      <trkpt lat="49.20444" lon="3.92895">
        <ele>230.37</ele>
        <time>2017-08-06T10:03:25Z</time>
      </trkpt>
      <trkpt lat="49.20423" lon="3.92904">
        <ele>228.93</ele>
        <time>2017-08-06T10:03:33Z</time>
      </trkpt>
      <trkpt lat="49.20412" lon="3.92941">
        <ele>227.49</ele>
        <time>2017-08-06T10:03:39Z</time>
      </trkpt>
      <trkpt lat="49.20413" lon="3.92978">
        <ele>224.12</ele>
        <time>2017-08-06T10:03:45Z</time>
      </trkpt>
      <trkpt lat="49.20413" lon="3.92991">
        <ele>222.68</ele>
        <time>2017-08-06T10:03:48Z</time>
      </trkpt>
      <trkpt lat="49.20406" lon="3.92986">
        <ele>221.24</ele>
        <time>2017-08-06T10:03:56Z</time>
      </trkpt>
      <trkpt lat="49.20405" lon="3.92984">
        <ele>221.24</ele>
        <time>2017-08-06T10:03:57Z</time>
      </trkpt>
      <trkpt lat="49.204" lon="3.92973">
        <ele>221.24</ele>
        <time>2017-08-06T10:04:01Z</time>
      </trkpt>
      <trkpt lat="49.20394" lon="3.9295">
        <ele>222.2</ele>
        <time>2017-08-06T10:04:09Z</time>
      </trkpt>
      <trkpt lat="49.20392" lon="3.92936">
        <ele>222.2</ele>
        <time>2017-08-06T10:04:13Z</time>
      </trkpt>
      <trkpt lat="49.20388" lon="3.92876">
        <ele>222.68</ele>
        <time>2017-08-06T10:04:26Z</time>
      </trkpt>
      <trkpt lat="49.2038" lon="3.92844">
        <ele>219.8</ele>
        <time>2017-08-06T10:04:30Z</time>
      </trkpt>
      <trkpt lat="49.20369" lon="3.92799">
        <ele>216.43</ele>
        <time>2017-08-06T10:04:35Z</time>
      </trkpt>
      <trkpt lat="49.20362" lon="3.92769">
        <ele>214.51</ele>
        <time>2017-08-06T10:04:39Z</time>
      </trkpt>
      <trkpt lat="49.20358" lon="3.9276">
        <ele>214.03</ele>
        <time>2017-08-06T10:04:41Z</time>
      </trkpt>
      <trkpt lat="49.20356" lon="3.92758">
        <ele>213.07</ele>
        <time>2017-08-06T10:04:42Z</time>
      </trkpt>
      <trkpt lat="49.20353" lon="3.92758">
        <ele>213.07</ele>
        <time>2017-08-06T10:04:43Z</time>
      </trkpt>
      <trkpt lat="49.2035" lon="3.9276">
        <ele>213.07</ele>
        <time>2017-08-06T10:04:44Z</time>
      </trkpt>
      <trkpt lat="49.20347" lon="3.92761">
        <ele>212.59</ele>
        <time>2017-08-06T10:04:45Z</time>
      </trkpt>
      <trkpt lat="49.20294" lon="3.92799">
        <ele>211.63</ele>
        <time>2017-08-06T10:04:59Z</time>
      </trkpt>
      <trkpt lat="49.20254" lon="3.92823">
        <ele>213.55</ele>
        <time>2017-08-06T10:05:13Z</time>
      </trkpt>
      <trkpt lat="49.20217" lon="3.92846">
        <ele>214.03</ele>
        <time>2017-08-06T10:05:29Z</time>
      </trkpt>
      <trkpt lat="49.20212" lon="3.92847">
        <ele>214.03</ele>
        <time>2017-08-06T10:05:32Z</time>
      </trkpt>
      <trkpt lat="49.20205" lon="3.92852">
        <ele>214.03</ele>
        <time>2017-08-06T10:05:36Z</time>
      </trkpt>
      <trkpt lat="49.20203" lon="3.9285">
        <ele>214.51</ele>
        <time>2017-08-06T10:05:37Z</time>
      </trkpt>
      <trkpt lat="49.20203" lon="3.92849">
        <ele>214.51</ele>
        <time>2017-08-06T10:05:38Z</time>
      </trkpt>
      <trkpt lat="49.20202" lon="3.92847">
        <ele>214.51</ele>
        <time>2017-08-06T10:05:39Z</time>
      </trkpt>
      <trkpt lat="49.20201" lon="3.92844">
        <ele>214.51</ele>
        <time>2017-08-06T10:05:40Z</time>
      </trkpt>
      <trkpt lat="49.20199" lon="3.92841">
        <ele>214.51</ele>
        <time>2017-08-06T10:05:41Z</time>
      </trkpt>
      <trkpt lat="49.20173" lon="3.92828">
        <ele>215.47</ele>
        <time>2017-08-06T10:05:55Z</time>
      </trkpt>
      <trkpt lat="49.20149" lon="3.92829">
        <ele>216.91</ele>
        <time>2017-08-06T10:06:08Z</time>
      </trkpt>
      <trkpt lat="49.20129" lon="3.92836">
        <ele>218.84</ele>
        <time>2017-08-06T10:06:20Z</time>
      </trkpt>
      <trkpt lat="49.20126" lon="3.92836">
        <ele>218.84</ele>
        <time>2017-08-06T10:06:22Z</time>
      </trkpt>
      <trkpt lat="49.20125" lon="3.92835">
        <ele>219.32</ele>
        <time>2017-08-06T10:06:23Z</time>
      </trkpt>
      <trkpt lat="49.20123" lon="3.92835">
        <ele>219.32</ele>
        <time>2017-08-06T10:06:24Z</time>
      </trkpt>
      <trkpt lat="49.20122" lon="3.92836">
        <ele>219.8</ele>
        <time>2017-08-06T10:06:25Z</time>
      </trkpt>
      <trkpt lat="49.20121" lon="3.92837">
        <ele>219.8</ele>
        <time>2017-08-06T10:06:26Z</time>
      </trkpt>
      <trkpt lat="49.20119" lon="3.92838">
        <ele>219.8</ele>
        <time>2017-08-06T10:06:27Z</time>
      </trkpt>
      <trkpt lat="49.20118" lon="3.92838">
        <ele>219.8</ele>
        <time>2017-08-06T10:06:28Z</time>
      </trkpt>
      <trkpt lat="49.20116" lon="3.92837">
        <ele>220.28</ele>
        <time>2017-08-06T10:06:29Z</time>
      </trkpt>
      <trkpt lat="49.20115" lon="3.92838">
        <ele>220.28</ele>
        <time>2017-08-06T10:06:30Z</time>
      </trkpt>
      <trkpt lat="49.20113" lon="3.92839">
        <ele>220.28</ele>
        <time>2017-08-06T10:06:31Z</time>
      </trkpt>
      <trkpt lat="49.20112" lon="3.9284">
        <ele>220.28</ele>
        <time>2017-08-06T10:06:32Z</time>
      </trkpt>
      <trkpt lat="49.20111" lon="3.92841">
        <ele>220.76</ele>
        <time>2017-08-06T10:06:33Z</time>
      </trkpt>
      <trkpt lat="49.20109" lon="3.92841">
        <ele>220.76</ele>
        <time>2017-08-06T10:06:34Z</time>
      </trkpt>
      <trkpt lat="49.20108" lon="3.9284">
        <ele>220.76</ele>
        <time>2017-08-06T10:06:35Z</time>
      </trkpt>
      <trkpt lat="49.20106" lon="3.9284">
        <ele>220.76</ele>
        <time>2017-08-06T10:06:36Z</time>
      </trkpt>
      <trkpt lat="49.20104" lon="3.92841">
        <ele>221.24</ele>
        <time>2017-08-06T10:06:37Z</time>
      </trkpt>
      <trkpt lat="49.20103" lon="3.92843">
        <ele>221.24</ele>
        <time>2017-08-06T10:06:38Z</time>
      </trkpt>
      <trkpt lat="49.20102" lon="3.92843">
        <ele>221.24</ele>
        <time>2017-08-06T10:06:39Z</time>
      </trkpt>
      <trkpt lat="49.20101" lon="3.92843">
        <ele>221.24</ele>
        <time>2017-08-06T10:06:40Z</time>
      </trkpt>
      <trkpt lat="49.20099" lon="3.92842">
        <ele>221.72</ele>
        <time>2017-08-06T10:06:41Z</time>
      </trkpt>
      <trkpt lat="49.20097" lon="3.92842">
        <ele>221.72</ele>
        <time>2017-08-06T10:06:42Z</time>
      </trkpt>
      <trkpt lat="49.20096" lon="3.92843">
        <ele>221.72</ele>
        <time>2017-08-06T10:06:43Z</time>
      </trkpt>
      <trkpt lat="49.20095" lon="3.92844">
        <ele>221.72</ele>
        <time>2017-08-06T10:06:44Z</time>
      </trkpt>
      <trkpt lat="49.20094" lon="3.92845">
        <ele>222.2</ele>
        <time>2017-08-06T10:06:45Z</time>
      </trkpt>
      <trkpt lat="49.20092" lon="3.92846">
        <ele>222.2</ele>
        <time>2017-08-06T10:06:46Z</time>
      </trkpt>
      <trkpt lat="49.20091" lon="3.92845">
        <ele>222.2</ele>
        <time>2017-08-06T10:06:47Z</time>
      </trkpt>
      <trkpt lat="49.20089" lon="3.92846">
        <ele>222.68</ele>
        <time>2017-08-06T10:06:48Z</time>
      </trkpt>
      <trkpt lat="49.20088" lon="3.92846">
        <ele>222.68</ele>
        <time>2017-08-06T10:06:49Z</time>
      </trkpt>
      <trkpt lat="49.20086" lon="3.92848">
        <ele>223.16</ele>
        <time>2017-08-06T10:06:50Z</time>
      </trkpt>
      <trkpt lat="49.20085" lon="3.9285">
        <ele>223.16</ele>
        <time>2017-08-06T10:06:51Z</time>
      </trkpt>
      <trkpt lat="49.20084" lon="3.92851">
        <ele>223.64</ele>
        <time>2017-08-06T10:06:52Z</time>
      </trkpt>
      <trkpt lat="49.20083" lon="3.92853">
        <ele>223.64</ele>
        <time>2017-08-06T10:06:53Z</time>
      </trkpt>
      <trkpt lat="49.20082" lon="3.92856">
        <ele>224.12</ele>
        <time>2017-08-06T10:06:54Z</time>
      </trkpt>
      <trkpt lat="49.20081" lon="3.92858">
        <ele>224.12</ele>
        <time>2017-08-06T10:06:55Z</time>
      </trkpt>
      <trkpt lat="49.2008" lon="3.9286">
        <ele>224.61</ele>
        <time>2017-08-06T10:06:56Z</time>
      </trkpt>
      <trkpt lat="49.20079" lon="3.92862">
        <ele>224.61</ele>
        <time>2017-08-06T10:06:57Z</time>
      </trkpt>
      <trkpt lat="49.20078" lon="3.92863">
        <ele>225.09</ele>
        <time>2017-08-06T10:06:58Z</time>
      </trkpt>
      <trkpt lat="49.20077" lon="3.92865">
        <ele>225.09</ele>
        <time>2017-08-06T10:06:59Z</time>
      </trkpt>
      <trkpt lat="49.20076" lon="3.92867">
        <ele>225.09</ele>
        <time>2017-08-06T10:07:00Z</time>
      </trkpt>
      <trkpt lat="49.20076" lon="3.92869">
        <ele>225.57</ele>
        <time>2017-08-06T10:07:01Z</time>
      </trkpt>
      <trkpt lat="49.20075" lon="3.9287">
        <ele>225.57</ele>
        <time>2017-08-06T10:07:02Z</time>
      </trkpt>
      <trkpt lat="49.20073" lon="3.92871">
        <ele>225.57</ele>
        <time>2017-08-06T10:07:03Z</time>
      </trkpt>
      <trkpt lat="49.20072" lon="3.92872">
        <ele>226.05</ele>
        <time>2017-08-06T10:07:04Z</time>
      </trkpt>
      <trkpt lat="49.20071" lon="3.92874">
        <ele>226.05</ele>
        <time>2017-08-06T10:07:05Z</time>
      </trkpt>
      <trkpt lat="49.2007" lon="3.92876">
        <ele>226.53</ele>
        <time>2017-08-06T10:07:06Z</time>
      </trkpt>
      <trkpt lat="49.20069" lon="3.92878">
        <ele>226.53</ele>
        <time>2017-08-06T10:07:07Z</time>
      </trkpt>
      <trkpt lat="49.20068" lon="3.92878">
        <ele>226.53</ele>
        <time>2017-08-06T10:07:08Z</time>
      </trkpt>
      <trkpt lat="49.20067" lon="3.92879">
        <ele>227.01</ele>
        <time>2017-08-06T10:07:09Z</time>
      </trkpt>
      <trkpt lat="49.20065" lon="3.9288">
        <ele>227.01</ele>
        <time>2017-08-06T10:07:10Z</time>
      </trkpt>
      <trkpt lat="49.20064" lon="3.92882">
        <ele>227.01</ele>
        <time>2017-08-06T10:07:11Z</time>
      </trkpt>
      <trkpt lat="49.20046" lon="3.92893">
        <ele>228.45</ele>
        <time>2017-08-06T10:07:24Z</time>
      </trkpt>
      <trkpt lat="49.2002" lon="3.92903">
        <ele>229.89</ele>
        <time>2017-08-06T10:07:40Z</time>
      </trkpt>
      <trkpt lat="49.20013" lon="3.92908">
        <ele>230.85</ele>
        <time>2017-08-06T10:07:45Z</time>
      </trkpt>
      <trkpt lat="49.2001" lon="3.92912">
        <ele>230.85</ele>
        <time>2017-08-06T10:07:47Z</time>
      </trkpt>
      <trkpt lat="49.2001" lon="3.92914">
        <ele>230.85</ele>
        <time>2017-08-06T10:07:48Z</time>
      </trkpt>
      <trkpt lat="49.20009" lon="3.92918">
        <ele>231.81</ele>
        <time>2017-08-06T10:07:50Z</time>
      </trkpt>
      <trkpt lat="49.20008" lon="3.92919">
        <ele>231.81</ele>
        <time>2017-08-06T10:07:51Z</time>
      </trkpt>
      <trkpt lat="49.20007" lon="3.92921">
        <ele>231.81</ele>
        <time>2017-08-06T10:07:52Z</time>
      </trkpt>
      <trkpt lat="49.20006" lon="3.92924">
        <ele>232.3</ele>
        <time>2017-08-06T10:07:53Z</time>
      </trkpt>
      <trkpt lat="49.20006" lon="3.92926">
        <ele>232.3</ele>
        <time>2017-08-06T10:07:54Z</time>
      </trkpt>
      <trkpt lat="49.20005" lon="3.92927">
        <ele>232.3</ele>
        <time>2017-08-06T10:07:55Z</time>
      </trkpt>
      <trkpt lat="49.20004" lon="3.92929">
        <ele>232.3</ele>
        <time>2017-08-06T10:07:56Z</time>
      </trkpt>
      <trkpt lat="49.20003" lon="3.92931">
        <ele>232.3</ele>
        <time>2017-08-06T10:07:57Z</time>
      </trkpt>
      <trkpt lat="49.20002" lon="3.92933">
        <ele>232.78</ele>
        <time>2017-08-06T10:07:58Z</time>
      </trkpt>
      <trkpt lat="49.20001" lon="3.92934">
        <ele>232.78</ele>
        <time>2017-08-06T10:07:59Z</time>
      </trkpt>
      <trkpt lat="49.2" lon="3.92936">
        <ele>232.78</ele>
        <time>2017-08-06T10:08:00Z</time>
      </trkpt>
      <trkpt lat="49.19999" lon="3.92937">
        <ele>232.78</ele>
        <time>2017-08-06T10:08:01Z</time>
      </trkpt>
      <trkpt lat="49.19998" lon="3.92939">
        <ele>233.26</ele>
        <time>2017-08-06T10:08:02Z</time>
      </trkpt>
      <trkpt lat="49.19997" lon="3.9294">
        <ele>233.26</ele>
        <time>2017-08-06T10:08:03Z</time>
      </trkpt>
      <trkpt lat="49.19995" lon="3.92941">
        <ele>233.26</ele>
        <time>2017-08-06T10:08:04Z</time>
      </trkpt>
      <trkpt lat="49.19993" lon="3.92941">
        <ele>233.26</ele>
        <time>2017-08-06T10:08:05Z</time>
      </trkpt>
      <trkpt lat="49.1996" lon="3.92942">
        <ele>233.74</ele>
        <time>2017-08-06T10:08:20Z</time>
      </trkpt>
      <trkpt lat="49.19929" lon="3.92968">
        <ele>234.7</ele>
        <time>2017-08-06T10:08:36Z</time>
      </trkpt>
      <trkpt lat="49.19918" lon="3.93003">
        <ele>235.18</ele>
        <time>2017-08-06T10:08:48Z</time>
      </trkpt>
      <trkpt lat="49.19919" lon="3.93014">
        <ele>233.74</ele>
        <time>2017-08-06T10:08:57Z</time>
      </trkpt>
      <trkpt lat="49.1992" lon="3.93017">
        <ele>233.74</ele>
        <time>2017-08-06T10:08:58Z</time>
      </trkpt>
      <trkpt lat="49.19921" lon="3.9302">
        <ele>233.26</ele>
        <time>2017-08-06T10:08:59Z</time>
      </trkpt>
      <trkpt lat="49.19922" lon="3.93025">
        <ele>233.26</ele>
        <time>2017-08-06T10:09:00Z</time>
      </trkpt>
      <trkpt lat="49.19923" lon="3.9303">
        <ele>232.3</ele>
        <time>2017-08-06T10:09:01Z</time>
      </trkpt>
      <trkpt lat="49.19923" lon="3.93035">
        <ele>232.3</ele>
        <time>2017-08-06T10:09:02Z</time>
      </trkpt>
      <trkpt lat="49.19914" lon="3.93042">
        <ele>231.33</ele>
        <time>2017-08-06T10:09:05Z</time>
      </trkpt>
      <trkpt lat="49.19889" lon="3.93044">
        <ele>231.33</ele>
        <time>2017-08-06T10:09:17Z</time>
      </trkpt>
      <trkpt lat="49.19848" lon="3.93056">
        <ele>233.26</ele>
        <time>2017-08-06T10:09:33Z</time>
      </trkpt>
      <trkpt lat="49.1981" lon="3.93064">
        <ele>233.74</ele>
        <time>2017-08-06T10:09:49Z</time>
      </trkpt>
      <trkpt lat="49.19784" lon="3.93065">
        <ele>235.18</ele>
        <time>2017-08-06T10:10:02Z</time>
      </trkpt>
      <trkpt lat="49.19763" lon="3.93057">
        <ele>237.1</ele>
        <time>2017-08-06T10:10:16Z</time>
      </trkpt>
      <trkpt lat="49.19755" lon="3.93046">
        <ele>238.06</ele>
        <time>2017-08-06T10:10:23Z</time>
      </trkpt>
      <trkpt lat="49.19747" lon="3.93041">
        <ele>238.06</ele>
        <time>2017-08-06T10:10:28Z</time>
      </trkpt>
      <trkpt lat="49.19721" lon="3.93014">
        <ele>239.51</ele>
        <time>2017-08-06T10:10:43Z</time>
      </trkpt>
      <trkpt lat="49.19699" lon="3.92994">
        <ele>239.51</ele>
        <time>2017-08-06T10:10:53Z</time>
      </trkpt>
      <trkpt lat="49.19697" lon="3.92995">
        <ele>239.51</ele>
        <time>2017-08-06T10:10:54Z</time>
      </trkpt>
      <trkpt lat="49.19695" lon="3.92996">
        <ele>240.47</ele>
        <time>2017-08-06T10:10:55Z</time>
      </trkpt>
      <trkpt lat="49.19693" lon="3.92998">
        <ele>240.47</ele>
        <time>2017-08-06T10:10:56Z</time>
      </trkpt>
      <trkpt lat="49.19692" lon="3.92999">
        <ele>240.47</ele>
        <time>2017-08-06T10:10:57Z</time>
      </trkpt>
      <trkpt lat="49.1969" lon="3.93">
        <ele>240.47</ele>
        <time>2017-08-06T10:10:58Z</time>
      </trkpt>
      <trkpt lat="49.19689" lon="3.93002">
        <ele>240.95</ele>
        <time>2017-08-06T10:10:59Z</time>
      </trkpt>
      <trkpt lat="49.19688" lon="3.93003">
        <ele>240.47</ele>
        <time>2017-08-06T10:11:13Z</time>
      </trkpt>
      <trkpt lat="49.19689" lon="3.93001">
        <ele>240.47</ele>
        <time>2017-08-06T10:11:31Z</time>
      </trkpt>
      <trkpt lat="49.19691" lon="3.92985">
        <ele>240.47</ele>
        <time>2017-08-06T10:11:40Z</time>
      </trkpt>
      <trkpt lat="49.19688" lon="3.92981">
        <ele>239.51</ele>
        <time>2017-08-06T10:11:42Z</time>
      </trkpt>
      <trkpt lat="49.19686" lon="3.92979">
        <ele>239.51</ele>
        <time>2017-08-06T10:11:43Z</time>
      </trkpt>
      <trkpt lat="49.19684" lon="3.92977">
        <ele>239.51</ele>
        <time>2017-08-06T10:11:44Z</time>
      </trkpt>
      <trkpt lat="49.19651" lon="3.92972">
        <ele>239.51</ele>
        <time>2017-08-06T10:11:56Z</time>
      </trkpt>
      <trkpt lat="49.1963" lon="3.92977">
        <ele>240.95</ele>
        <time>2017-08-06T10:12:04Z</time>
      </trkpt>
      <trkpt lat="49.1959" lon="3.92985">
        <ele>240.95</ele>
        <time>2017-08-06T10:12:18Z</time>
      </trkpt>
      <trkpt lat="49.19554" lon="3.92985">
        <ele>241.91</ele>
        <time>2017-08-06T10:12:31Z</time>
      </trkpt>
      <trkpt lat="49.195" lon="3.92975">
        <ele>241.91</ele>
        <time>2017-08-06T10:12:45Z</time>
      </trkpt>
      <trkpt lat="49.19467" lon="3.92974">
        <ele>242.87</ele>
        <time>2017-08-06T10:12:58Z</time>
      </trkpt>
      <trkpt lat="49.1942" lon="3.92971">
        <ele>243.35</ele>
        <time>2017-08-06T10:13:14Z</time>
      </trkpt>
      <trkpt lat="49.19395" lon="3.92975">
        <ele>243.83</ele>
        <time>2017-08-06T10:13:23Z</time>
      </trkpt>
      <trkpt lat="49.19384" lon="3.92976">
        <ele>244.31</ele>
        <time>2017-08-06T10:13:27Z</time>
      </trkpt>
      <trkpt lat="49.19351" lon="3.92975">
        <ele>245.27</ele>
        <time>2017-08-06T10:13:41Z</time>
      </trkpt>
      <trkpt lat="49.19317" lon="3.92978">
        <ele>245.27</ele>
        <time>2017-08-06T10:13:53Z</time>
      </trkpt>
      <trkpt lat="49.19286" lon="3.92975">
        <ele>245.75</ele>
        <time>2017-08-06T10:14:05Z</time>
      </trkpt>
      <trkpt lat="49.19277" lon="3.92968">
        <ele>245.75</ele>
        <time>2017-08-06T10:14:09Z</time>
      </trkpt>
      <trkpt lat="49.19266" lon="3.92967">
        <ele>245.75</ele>
        <time>2017-08-06T10:14:13Z</time>
      </trkpt>
      <trkpt lat="49.19231" lon="3.92958">
        <ele>245.75</ele>
        <time>2017-08-06T10:14:24Z</time>
      </trkpt>
      <trkpt lat="49.19203" lon="3.92946">
        <ele>245.75</ele>
        <time>2017-08-06T10:14:33Z</time>
      </trkpt>
      <trkpt lat="49.19176" lon="3.92935">
        <ele>245.75</ele>
        <time>2017-08-06T10:14:41Z</time>
      </trkpt>
      <trkpt lat="49.19158" lon="3.92903">
        <ele>242.87</ele>
        <time>2017-08-06T10:14:49Z</time>
      </trkpt>
      <trkpt lat="49.1914" lon="3.92878">
        <ele>241.43</ele>
        <time>2017-08-06T10:14:54Z</time>
      </trkpt>
      <trkpt lat="49.1912" lon="3.92852">
        <ele>240.47</ele>
        <time>2017-08-06T10:14:59Z</time>
      </trkpt>
      <trkpt lat="49.19101" lon="3.92837">
        <ele>239.99</ele>
        <time>2017-08-06T10:15:04Z</time>
      </trkpt>
      <trkpt lat="49.19096" lon="3.92823">
        <ele>239.99</ele>
        <time>2017-08-06T10:15:08Z</time>
      </trkpt>
      <trkpt lat="49.19071" lon="3.92779">
        <ele>239.99</ele>
        <time>2017-08-06T10:15:20Z</time>
      </trkpt>
      <trkpt lat="49.19051" lon="3.92743">
        <ele>240.95</ele>
        <time>2017-08-06T10:15:30Z</time>
      </trkpt>
      <trkpt lat="49.19032" lon="3.92707">
        <ele>241.91</ele>
        <time>2017-08-06T10:15:40Z</time>
      </trkpt>
      <trkpt lat="49.19025" lon="3.927">
        <ele>242.39</ele>
        <time>2017-08-06T10:15:43Z</time>
      </trkpt>
      <trkpt lat="49.18999" lon="3.9265">
        <ele>243.35</ele>
        <time>2017-08-06T10:15:57Z</time>
      </trkpt>
      <trkpt lat="49.18996" lon="3.92645">
        <ele>243.83</ele>
        <time>2017-08-06T10:15:59Z</time>
      </trkpt>
      <trkpt lat="49.18982" lon="3.92616">
        <ele>244.79</ele>
        <time>2017-08-06T10:16:09Z</time>
      </trkpt>
      <trkpt lat="49.18978" lon="3.9261">
        <ele>244.79</ele>
        <time>2017-08-06T10:16:12Z</time>
      </trkpt>
      <trkpt lat="49.18958" lon="3.92572">
        <ele>245.27</ele>
        <time>2017-08-06T10:16:25Z</time>
      </trkpt>
      <trkpt lat="49.18932" lon="3.92545">
        <ele>246.72</ele>
        <time>2017-08-06T10:16:38Z</time>
      </trkpt>
      <trkpt lat="49.18904" lon="3.92516">
        <ele>247.68</ele>
        <time>2017-08-06T10:16:51Z</time>
      </trkpt>
      <trkpt lat="49.18879" lon="3.92494">
        <ele>247.68</ele>
        <time>2017-08-06T10:17:03Z</time>
      </trkpt>
      <trkpt lat="49.18856" lon="3.92466">
        <ele>247.68</ele>
        <time>2017-08-06T10:17:14Z</time>
      </trkpt>
      <trkpt lat="49.1884" lon="3.92447">
        <ele>247.68</ele>
        <time>2017-08-06T10:17:23Z</time>
      </trkpt>
      <trkpt lat="49.18832" lon="3.92437">
        <ele>248.16</ele>
        <time>2017-08-06T10:17:28Z</time>
      </trkpt>
      <trkpt lat="49.18824" lon="3.92432">
        <ele>248.16</ele>
        <time>2017-08-06T10:17:32Z</time>
      </trkpt>
      <trkpt lat="49.18818" lon="3.92429">
        <ele>248.16</ele>
        <time>2017-08-06T10:17:35Z</time>
      </trkpt>
      <trkpt lat="49.18804" lon="3.9242">
        <ele>248.16</ele>
        <time>2017-08-06T10:17:41Z</time>
      </trkpt>
      <trkpt lat="49.18772" lon="3.92412">
        <ele>248.16</ele>
        <time>2017-08-06T10:17:52Z</time>
      </trkpt>
      <trkpt lat="49.18734" lon="3.92404">
        <ele>248.16</ele>
        <time>2017-08-06T10:18:04Z</time>
      </trkpt>
      <trkpt lat="49.18693" lon="3.92432">
        <ele>248.16</ele>
        <time>2017-08-06T10:18:15Z</time>
      </trkpt>
      <trkpt lat="49.18648" lon="3.9247">
        <ele>248.16</ele>
        <time>2017-08-06T10:18:27Z</time>
      </trkpt>
      <trkpt lat="49.18634" lon="3.92483">
        <ele>248.16</ele>
        <time>2017-08-06T10:18:31Z</time>
      </trkpt>
      <trkpt lat="49.18597" lon="3.92517">
        <ele>248.16</ele>
        <time>2017-08-06T10:18:42Z</time>
      </trkpt>
      <trkpt lat="49.18565" lon="3.92549">
        <ele>248.64</ele>
        <time>2017-08-06T10:18:52Z</time>
      </trkpt>
      <trkpt lat="49.18531" lon="3.92579">
        <ele>249.6</ele>
        <time>2017-08-06T10:19:03Z</time>
      </trkpt>
      <trkpt lat="49.18501" lon="3.9259">
        <ele>249.6</ele>
        <time>2017-08-06T10:19:13Z</time>
      </trkpt>
      <trkpt lat="49.18468" lon="3.92606">
        <ele>250.56</ele>
        <time>2017-08-06T10:19:25Z</time>
      </trkpt>
      <trkpt lat="49.18442" lon="3.9263">
        <ele>251.04</ele>
        <time>2017-08-06T10:19:36Z</time>
      </trkpt>
      <trkpt lat="49.18422" lon="3.92652">
        <ele>251.52</ele>
        <time>2017-08-06T10:19:45Z</time>
      </trkpt>
      <trkpt lat="49.18393" lon="3.92672">
        <ele>252.48</ele>
        <time>2017-08-06T10:19:56Z</time>
      </trkpt>
      <trkpt lat="49.18354" lon="3.92694">
        <ele>252.96</ele>
        <time>2017-08-06T10:20:09Z</time>
      </trkpt>
      <trkpt lat="49.18319" lon="3.92706">
        <ele>253.44</ele>
        <time>2017-08-06T10:20:21Z</time>
      </trkpt>
      <trkpt lat="49.1828" lon="3.92729">
        <ele>253.93</ele>
        <time>2017-08-06T10:20:34Z</time>
      </trkpt>
      <trkpt lat="49.1823" lon="3.92761">
        <ele>254.89</ele>
        <time>2017-08-06T10:20:51Z</time>
      </trkpt>
      <trkpt lat="49.18186" lon="3.92781">
        <ele>255.85</ele>
        <time>2017-08-06T10:21:05Z</time>
      </trkpt>
      <trkpt lat="49.1814" lon="3.92803">
        <ele>256.33</ele>
        <time>2017-08-06T10:21:19Z</time>
      </trkpt>
      <trkpt lat="49.18109" lon="3.9282">
        <ele>256.33</ele>
        <time>2017-08-06T10:21:29Z</time>
      </trkpt>
      <trkpt lat="49.18091" lon="3.92829">
        <ele>256.81</ele>
        <time>2017-08-06T10:21:36Z</time>
      </trkpt>
      <trkpt lat="49.1809" lon="3.92828">
        <ele>256.81</ele>
        <time>2017-08-06T10:21:44Z</time>
      </trkpt>
      <trkpt lat="49.18091" lon="3.92826">
        <ele>256.81</ele>
        <time>2017-08-06T10:21:46Z</time>
      </trkpt>
      <trkpt lat="49.18092" lon="3.92824">
        <ele>256.81</ele>
        <time>2017-08-06T10:21:47Z</time>
      </trkpt>
      <trkpt lat="49.18085" lon="3.92815">
        <ele>256.81</ele>
        <time>2017-08-06T10:21:53Z</time>
      </trkpt>
      <trkpt lat="49.18054" lon="3.92773">
        <ele>257.29</ele>
        <time>2017-08-06T10:22:05Z</time>
      </trkpt>
      <trkpt lat="49.18024" lon="3.92734">
        <ele>257.29</ele>
        <time>2017-08-06T10:22:17Z</time>
      </trkpt>
      <trkpt lat="49.17984" lon="3.92687">
        <ele>255.85</ele>
        <time>2017-08-06T10:22:30Z</time>
      </trkpt>
      <trkpt lat="49.1794" lon="3.92655">
        <ele>255.85</ele>
        <time>2017-08-06T10:22:42Z</time>
      </trkpt>
      <trkpt lat="49.17896" lon="3.9262">
        <ele>255.85</ele>
        <time>2017-08-06T10:22:55Z</time>
      </trkpt>
      <trkpt lat="49.1786" lon="3.92595">
        <ele>255.85</ele>
        <time>2017-08-06T10:23:08Z</time>
      </trkpt>
      <trkpt lat="49.17821" lon="3.92569">
        <ele>257.77</ele>
        <time>2017-08-06T10:23:21Z</time>
      </trkpt>
      <trkpt lat="49.17782" lon="3.92538">
        <ele>259.21</ele>
        <time>2017-08-06T10:23:36Z</time>
      </trkpt>
      <trkpt lat="49.17744" lon="3.9251">
        <ele>259.69</ele>
        <time>2017-08-06T10:23:51Z</time>
      </trkpt>
      <trkpt lat="49.17729" lon="3.92497">
        <ele>260.17</ele>
        <time>2017-08-06T10:23:58Z</time>
      </trkpt>
      <trkpt lat="49.17729" lon="3.92495">
        <ele>260.17</ele>
        <time>2017-08-06T10:23:59Z</time>
      </trkpt>
      <trkpt lat="49.17728" lon="3.92491">
        <ele>260.17</ele>
        <time>2017-08-06T10:24:01Z</time>
      </trkpt>
      <trkpt lat="49.17727" lon="3.92489">
        <ele>260.65</ele>
        <time>2017-08-06T10:24:02Z</time>
      </trkpt>
      <trkpt lat="49.17726" lon="3.92486">
        <ele>260.65</ele>
        <time>2017-08-06T10:24:03Z</time>
      </trkpt>
      <trkpt lat="49.17725" lon="3.92483">
        <ele>260.65</ele>
        <time>2017-08-06T10:24:04Z</time>
      </trkpt>
      <trkpt lat="49.17723" lon="3.92479">
        <ele>260.65</ele>
        <time>2017-08-06T10:24:05Z</time>
      </trkpt>
      <trkpt lat="49.17722" lon="3.92476">
        <ele>260.65</ele>
        <time>2017-08-06T10:24:06Z</time>
      </trkpt>
      <trkpt lat="49.1772" lon="3.92472">
        <ele>260.65</ele>
        <time>2017-08-06T10:24:07Z</time>
      </trkpt>
      <trkpt lat="49.17717" lon="3.92467">
        <ele>260.65</ele>
        <time>2017-08-06T10:24:09Z</time>
      </trkpt>
      <trkpt lat="49.17716" lon="3.92464">
        <ele>260.65</ele>
        <time>2017-08-06T10:24:10Z</time>
      </trkpt>
      <trkpt lat="49.17715" lon="3.92461">
        <ele>260.65</ele>
        <time>2017-08-06T10:24:11Z</time>
      </trkpt>
      <trkpt lat="49.1771" lon="3.92446">
        <ele>260.65</ele>
        <time>2017-08-06T10:24:16Z</time>
      </trkpt>
      <trkpt lat="49.17708" lon="3.92445">
        <ele>261.14</ele>
        <time>2017-08-06T10:24:17Z</time>
      </trkpt>
      <trkpt lat="49.17704" lon="3.92445">
        <ele>261.14</ele>
        <time>2017-08-06T10:24:19Z</time>
      </trkpt>
      <trkpt lat="49.17677" lon="3.92449">
        <ele>262.1</ele>
        <time>2017-08-06T10:24:32Z</time>
      </trkpt>
      <trkpt lat="49.17645" lon="3.92404">
        <ele>262.1</ele>
        <time>2017-08-06T10:24:46Z</time>
      </trkpt>
      <trkpt lat="49.17596" lon="3.92328">
        <ele>260.65</ele>
        <time>2017-08-06T10:25:00Z</time>
      </trkpt>
      <trkpt lat="49.1754" lon="3.92239">
        <ele>259.21</ele>
        <time>2017-08-06T10:25:14Z</time>
      </trkpt>
      <trkpt lat="49.17521" lon="3.92205">
        <ele>258.25</ele>
        <time>2017-08-06T10:25:19Z</time>
      </trkpt>
      <trkpt lat="49.17516" lon="3.92199">
        <ele>257.77</ele>
        <time>2017-08-06T10:25:20Z</time>
      </trkpt>
      <trkpt lat="49.17511" lon="3.92195">
        <ele>257.77</ele>
        <time>2017-08-06T10:25:21Z</time>
      </trkpt>
      <trkpt lat="49.17507" lon="3.92193">
        <ele>257.77</ele>
        <time>2017-08-06T10:25:22Z</time>
      </trkpt>
      <trkpt lat="49.17502" lon="3.92191">
        <ele>257.77</ele>
        <time>2017-08-06T10:25:23Z</time>
      </trkpt>
      <trkpt lat="49.17497" lon="3.92189">
        <ele>257.77</ele>
        <time>2017-08-06T10:25:24Z</time>
      </trkpt>
      <trkpt lat="49.17493" lon="3.92188">
        <ele>257.77</ele>
        <time>2017-08-06T10:25:25Z</time>
      </trkpt>
      <trkpt lat="49.17488" lon="3.92188">
        <ele>257.77</ele>
        <time>2017-08-06T10:25:26Z</time>
      </trkpt>
      <trkpt lat="49.17475" lon="3.92186">
        <ele>257.77</ele>
        <time>2017-08-06T10:25:29Z</time>
      </trkpt>
      <trkpt lat="49.1747" lon="3.92184">
        <ele>257.77</ele>
        <time>2017-08-06T10:25:30Z</time>
      </trkpt>
      <trkpt lat="49.17423" lon="3.92165">
        <ele>257.77</ele>
        <time>2017-08-06T10:25:41Z</time>
      </trkpt>
      <trkpt lat="49.17418" lon="3.92164">
        <ele>257.77</ele>
        <time>2017-08-06T10:25:42Z</time>
      </trkpt>
      <trkpt lat="49.17404" lon="3.92159">
        <ele>259.21</ele>
        <time>2017-08-06T10:25:45Z</time>
      </trkpt>
      <trkpt lat="49.17324" lon="3.92127">
        <ele>259.69</ele>
        <time>2017-08-06T10:26:01Z</time>
      </trkpt>
      <trkpt lat="49.17315" lon="3.92122">
        <ele>259.69</ele>
        <time>2017-08-06T10:26:03Z</time>
      </trkpt>
      <trkpt lat="49.1724" lon="3.92079">
        <ele>259.21</ele>
        <time>2017-08-06T10:26:19Z</time>
      </trkpt>
      <trkpt lat="49.17231" lon="3.92074">
        <ele>259.21</ele>
        <time>2017-08-06T10:26:21Z</time>
      </trkpt>
      <trkpt lat="49.17227" lon="3.92071">
        <ele>259.21</ele>
        <time>2017-08-06T10:26:22Z</time>
      </trkpt>
      <trkpt lat="49.17167" lon="3.92039">
        <ele>259.21</ele>
        <time>2017-08-06T10:26:36Z</time>
      </trkpt>
      <trkpt lat="49.17163" lon="3.92038">
        <ele>259.21</ele>
        <time>2017-08-06T10:26:37Z</time>
      </trkpt>
      <trkpt lat="49.17146" lon="3.92037">
        <ele>259.21</ele>
        <time>2017-08-06T10:26:41Z</time>
      </trkpt>
      <trkpt lat="49.17142" lon="3.92039">
        <ele>259.21</ele>
        <time>2017-08-06T10:26:42Z</time>
      </trkpt>
      <trkpt lat="49.17138" lon="3.92041">
        <ele>259.21</ele>
        <time>2017-08-06T10:26:43Z</time>
      </trkpt>
      <trkpt lat="49.17134" lon="3.92045">
        <ele>259.21</ele>
        <time>2017-08-06T10:26:44Z</time>
      </trkpt>
      <trkpt lat="49.17131" lon="3.92048">
        <ele>259.21</ele>
        <time>2017-08-06T10:26:45Z</time>
      </trkpt>
      <trkpt lat="49.17124" lon="3.92056">
        <ele>259.21</ele>
        <time>2017-08-06T10:26:47Z</time>
      </trkpt>
      <trkpt lat="49.17122" lon="3.9206">
        <ele>259.21</ele>
        <time>2017-08-06T10:26:48Z</time>
      </trkpt>
      <trkpt lat="49.17082" lon="3.92143">
        <ele>259.21</ele>
        <time>2017-08-06T10:27:03Z</time>
      </trkpt>
      <trkpt lat="49.17067" lon="3.92174">
        <ele>259.21</ele>
        <time>2017-08-06T10:27:07Z</time>
      </trkpt>
      <trkpt lat="49.17064" lon="3.92182">
        <ele>258.25</ele>
        <time>2017-08-06T10:27:08Z</time>
      </trkpt>
      <trkpt lat="49.17052" lon="3.92208">
        <ele>257.77</ele>
        <time>2017-08-06T10:27:11Z</time>
      </trkpt>
      <trkpt lat="49.17048" lon="3.92217">
        <ele>257.29</ele>
        <time>2017-08-06T10:27:12Z</time>
      </trkpt>
      <trkpt lat="49.16985" lon="3.92346">
        <ele>254.41</ele>
        <time>2017-08-06T10:27:25Z</time>
      </trkpt>
      <trkpt lat="49.16932" lon="3.92448">
        <ele>252.48</ele>
        <time>2017-08-06T10:27:36Z</time>
      </trkpt>
      <trkpt lat="49.1691" lon="3.92473">
        <ele>252.48</ele>
        <time>2017-08-06T10:27:43Z</time>
      </trkpt>
      <trkpt lat="49.16912" lon="3.92474">
        <ele>252.48</ele>
        <time>2017-08-06T10:27:46Z</time>
      </trkpt>
      <trkpt lat="49.16913" lon="3.92473">
        <ele>252.48</ele>
        <time>2017-08-06T10:27:47Z</time>
      </trkpt>
      <trkpt lat="49.16915" lon="3.92471">
        <ele>252.48</ele>
        <time>2017-08-06T10:27:48Z</time>
      </trkpt>
      <trkpt lat="49.16916" lon="3.9247">
        <ele>252.48</ele>
        <time>2017-08-06T10:27:49Z</time>
      </trkpt>
      <trkpt lat="49.16917" lon="3.92468">
        <ele>252.48</ele>
        <time>2017-08-06T10:27:50Z</time>
      </trkpt>
      <trkpt lat="49.16919" lon="3.92466">
        <ele>252.48</ele>
        <time>2017-08-06T10:27:51Z</time>
      </trkpt>
      <trkpt lat="49.16921" lon="3.92464">
        <ele>252.48</ele>
        <time>2017-08-06T10:27:52Z</time>
      </trkpt>
      <trkpt lat="49.1695" lon="3.92432">
        <ele>252.48</ele>
        <time>2017-08-06T10:28:03Z</time>
      </trkpt>
      <trkpt lat="49.16952" lon="3.92433">
        <ele>252.48</ele>
        <time>2017-08-06T10:28:04Z</time>
      </trkpt>
      <trkpt lat="49.16954" lon="3.92437">
        <ele>252.48</ele>
        <time>2017-08-06T10:28:05Z</time>
      </trkpt>
      <trkpt lat="49.16955" lon="3.9244">
        <ele>252.48</ele>
        <time>2017-08-06T10:28:06Z</time>
      </trkpt>
      <trkpt lat="49.16957" lon="3.92444">
        <ele>252.48</ele>
        <time>2017-08-06T10:28:07Z</time>
      </trkpt>
      <trkpt lat="49.1698" lon="3.92466">
        <ele>252.48</ele>
        <time>2017-08-06T10:28:17Z</time>
      </trkpt>
      <trkpt lat="49.16988" lon="3.92471">
        <ele>252.48</ele>
        <time>2017-08-06T10:28:26Z</time>
      </trkpt>
      <trkpt lat="49.16991" lon="3.92472">
        <ele>253.93</ele>
        <time>2017-08-06T10:28:59Z</time>
      </trkpt>
      <trkpt lat="49.16991" lon="3.92472">
        <ele>253.93</ele>
        <time>2017-08-06T10:29:13Z</time>
      </trkpt>
      <trkpt lat="49.1699" lon="3.92474">
        <ele>253.93</ele>
        <time>2017-08-06T10:29:45Z</time>
      </trkpt>
      <trkpt lat="49.16992" lon="3.9247">
        <ele>254.41</ele>
        <time>2017-08-06T10:30:23Z</time>
      </trkpt>
      <trkpt lat="49.16992" lon="3.92471">
        <ele>254.41</ele>
        <time>2017-08-06T10:30:51Z</time>
      </trkpt>
      <trkpt lat="49.16991" lon="3.9247">
        <ele>254.41</ele>
        <time>2017-08-06T10:31:18Z</time>
      </trkpt>
      <trkpt lat="49.1699" lon="3.92471">
        <ele>254.89</ele>
        <time>2017-08-06T10:31:45Z</time>
      </trkpt>
      <trkpt lat="49.16992" lon="3.92471">
        <ele>254.89</ele>
        <time>2017-08-06T10:32:15Z</time>
      </trkpt>
      <trkpt lat="49.16993" lon="3.92477">
        <ele>254.89</ele>
        <time>2017-08-06T10:32:31Z</time>
      </trkpt>
      <trkpt lat="49.17012" lon="3.92508">
        <ele>255.37</ele>
        <time>2017-08-06T10:32:42Z</time>
      </trkpt>
      <trkpt lat="49.1703" lon="3.92556">
        <ele>255.37</ele>
        <time>2017-08-06T10:32:54Z</time>
      </trkpt>
      <trkpt lat="49.1705" lon="3.9261">
        <ele>256.33</ele>
        <time>2017-08-06T10:33:07Z</time>
      </trkpt>
      <trkpt lat="49.1707" lon="3.9267">
        <ele>257.29</ele>
        <time>2017-08-06T10:33:21Z</time>
      </trkpt>
      <trkpt lat="49.17094" lon="3.92734">
        <ele>257.77</ele>
        <time>2017-08-06T10:33:37Z</time>
      </trkpt>
      <trkpt lat="49.17096" lon="3.92738">
        <ele>258.25</ele>
        <time>2017-08-06T10:33:38Z</time>
      </trkpt>
      <trkpt lat="49.17111" lon="3.92778">
        <ele>258.73</ele>
        <time>2017-08-06T10:33:48Z</time>
      </trkpt>
      <trkpt lat="49.17125" lon="3.9281">
        <ele>258.73</ele>
        <time>2017-08-06T10:33:57Z</time>
      </trkpt>
      <trkpt lat="49.17126" lon="3.92812">
        <ele>258.73</ele>
        <time>2017-08-06T10:33:58Z</time>
      </trkpt>
      <trkpt lat="49.17127" lon="3.92815">
        <ele>258.73</ele>
        <time>2017-08-06T10:33:59Z</time>
      </trkpt>
      <trkpt lat="49.17129" lon="3.92817">
        <ele>258.73</ele>
        <time>2017-08-06T10:34:00Z</time>
      </trkpt>
      <trkpt lat="49.17129" lon="3.9282">
        <ele>258.73</ele>
        <time>2017-08-06T10:34:01Z</time>
      </trkpt>
      <trkpt lat="49.17131" lon="3.92824">
        <ele>259.21</ele>
        <time>2017-08-06T10:34:04Z</time>
      </trkpt>
      <trkpt lat="49.17133" lon="3.92828">
        <ele>259.69</ele>
        <time>2017-08-06T10:34:16Z</time>
      </trkpt>
      <trkpt lat="49.17133" lon="3.92839">
        <ele>259.69</ele>
        <time>2017-08-06T10:34:38Z</time>
      </trkpt>
      <trkpt lat="49.17133" lon="3.92843">
        <ele>259.69</ele>
        <time>2017-08-06T10:35:25Z</time>
      </trkpt>
      <trkpt lat="49.17134" lon="3.92842">
        <ele>260.17</ele>
        <time>2017-08-06T10:35:48Z</time>
      </trkpt>
      <trkpt lat="49.17131" lon="3.9284">
        <ele>260.17</ele>
        <time>2017-08-06T10:38:27Z</time>
      </trkpt>
      <trkpt lat="49.17131" lon="3.9284">
        <ele>260.17</ele>
        <time>2017-08-06T10:38:28Z</time>
      </trkpt>
      <trkpt lat="49.17129" lon="3.9284">
        <ele>260.17</ele>
        <time>2017-08-06T10:38:36Z</time>
      </trkpt>
      <trkpt lat="49.17139" lon="3.92844">
        <ele>260.17</ele>
        <time>2017-08-06T10:38:50Z</time>
      </trkpt>
      <trkpt lat="49.17141" lon="3.92848">
        <ele>260.65</ele>
        <time>2017-08-06T10:39:01Z</time>
      </trkpt>
      <trkpt lat="49.17143" lon="3.92851">
        <ele>260.65</ele>
        <time>2017-08-06T10:39:03Z</time>
      </trkpt>
      <trkpt lat="49.17157" lon="3.9287">
        <ele>260.65</ele>
        <time>2017-08-06T10:39:11Z</time>
      </trkpt>
      <trkpt lat="49.17156" lon="3.9287">
        <ele>260.65</ele>
        <time>2017-08-06T10:39:13Z</time>
      </trkpt>
      <trkpt lat="49.17154" lon="3.92868">
        <ele>260.65</ele>
        <time>2017-08-06T10:39:15Z</time>
      </trkpt>
      <trkpt lat="49.17154" lon="3.92867">
        <ele>260.65</ele>
        <time>2017-08-06T10:39:16Z</time>
      </trkpt>
      <trkpt lat="49.17142" lon="3.92848">
        <ele>260.65</ele>
        <time>2017-08-06T10:39:24Z</time>
      </trkpt>
      <trkpt lat="49.1714" lon="3.92847">
        <ele>260.65</ele>
        <time>2017-08-06T10:39:25Z</time>
      </trkpt>
      <trkpt lat="49.17138" lon="3.92849">
        <ele>260.65</ele>
        <time>2017-08-06T10:39:30Z</time>
      </trkpt>
      <trkpt lat="49.17135" lon="3.92849">
        <ele>260.65</ele>
        <time>2017-08-06T10:39:44Z</time>
      </trkpt>
      <trkpt lat="49.17136" lon="3.92849">
        <ele>260.65</ele>
        <time>2017-08-06T10:39:59Z</time>
      </trkpt>
      <trkpt lat="49.17132" lon="3.92853">
        <ele>260.65</ele>
        <time>2017-08-06T10:40:01Z</time>
      </trkpt>
      <trkpt lat="49.17105" lon="3.92883">
        <ele>260.65</ele>
        <time>2017-08-06T10:40:12Z</time>
      </trkpt>
      <trkpt lat="49.17071" lon="3.92922">
        <ele>259.69</ele>
        <time>2017-08-06T10:40:24Z</time>
      </trkpt>
      <trkpt lat="49.17046" lon="3.92945">
        <ele>259.69</ele>
        <time>2017-08-06T10:40:35Z</time>
      </trkpt>
      <trkpt lat="49.17027" lon="3.92967">
        <ele>259.21</ele>
        <time>2017-08-06T10:40:46Z</time>
      </trkpt>
      <trkpt lat="49.17019" lon="3.92975">
        <ele>259.21</ele>
        <time>2017-08-06T10:40:50Z</time>
      </trkpt>
      <trkpt lat="49.17018" lon="3.92978">
        <ele>259.21</ele>
        <time>2017-08-06T10:40:51Z</time>
      </trkpt>
      <trkpt lat="49.17016" lon="3.92981">
        <ele>258.73</ele>
        <time>2017-08-06T10:40:52Z</time>
      </trkpt>
      <trkpt lat="49.17013" lon="3.92983">
        <ele>258.73</ele>
        <time>2017-08-06T10:40:53Z</time>
      </trkpt>
      <trkpt lat="49.17011" lon="3.92986">
        <ele>258.73</ele>
        <time>2017-08-06T10:40:54Z</time>
      </trkpt>
      <trkpt lat="49.1701" lon="3.92988">
        <ele>258.73</ele>
        <time>2017-08-06T10:40:55Z</time>
      </trkpt>
      <trkpt lat="49.17008" lon="3.92991">
        <ele>258.73</ele>
        <time>2017-08-06T10:40:56Z</time>
      </trkpt>
      <trkpt lat="49.16985" lon="3.93018">
        <ele>258.73</ele>
        <time>2017-08-06T10:41:06Z</time>
      </trkpt>
      <trkpt lat="49.16948" lon="3.93055">
        <ele>258.73</ele>
        <time>2017-08-06T10:41:20Z</time>
      </trkpt>
      <trkpt lat="49.16917" lon="3.93091">
        <ele>260.17</ele>
        <time>2017-08-06T10:41:32Z</time>
      </trkpt>
      <trkpt lat="49.16887" lon="3.93114">
        <ele>260.65</ele>
        <time>2017-08-06T10:41:44Z</time>
      </trkpt>
      <trkpt lat="49.16855" lon="3.93149">
        <ele>261.14</ele>
        <time>2017-08-06T10:41:59Z</time>
      </trkpt>
      <trkpt lat="49.16833" lon="3.93176">
        <ele>261.14</ele>
        <time>2017-08-06T10:42:10Z</time>
      </trkpt>
      <trkpt lat="49.168" lon="3.93214">
        <ele>261.14</ele>
        <time>2017-08-06T10:42:23Z</time>
      </trkpt>
      <trkpt lat="49.16765" lon="3.93253">
        <ele>261.14</ele>
        <time>2017-08-06T10:42:36Z</time>
      </trkpt>
      <trkpt lat="49.16713" lon="3.93309">
        <ele>261.14</ele>
        <time>2017-08-06T10:42:50Z</time>
      </trkpt>
      <trkpt lat="49.16687" lon="3.93337">
        <ele>259.69</ele>
        <time>2017-08-06T10:42:56Z</time>
      </trkpt>
      <trkpt lat="49.16622" lon="3.93409">
        <ele>258.73</ele>
        <time>2017-08-06T10:43:10Z</time>
      </trkpt>
      <trkpt lat="49.16619" lon="3.93413">
        <ele>258.73</ele>
        <time>2017-08-06T10:43:11Z</time>
      </trkpt>
      <trkpt lat="49.16547" lon="3.93462">
        <ele>258.73</ele>
        <time>2017-08-06T10:43:26Z</time>
      </trkpt>
      <trkpt lat="49.16525" lon="3.93471">
        <ele>258.25</ele>
        <time>2017-08-06T10:43:30Z</time>
      </trkpt>
      <trkpt lat="49.16519" lon="3.93471">
        <ele>258.25</ele>
        <time>2017-08-06T10:43:31Z</time>
      </trkpt>
      <trkpt lat="49.16405" lon="3.93493">
        <ele>255.85</ele>
        <time>2017-08-06T10:43:49Z</time>
      </trkpt>
      <trkpt lat="49.16327" lon="3.93542">
        <ele>255.85</ele>
        <time>2017-08-06T10:44:03Z</time>
      </trkpt>
      <trkpt lat="49.16273" lon="3.93581">
        <ele>255.85</ele>
        <time>2017-08-06T10:44:15Z</time>
      </trkpt>
      <trkpt lat="49.16264" lon="3.93587">
        <ele>255.85</ele>
        <time>2017-08-06T10:44:17Z</time>
      </trkpt>
      <trkpt lat="49.16259" lon="3.93591">
        <ele>255.85</ele>
        <time>2017-08-06T10:44:18Z</time>
      </trkpt>
      <trkpt lat="49.16254" lon="3.93596">
        <ele>255.85</ele>
        <time>2017-08-06T10:44:19Z</time>
      </trkpt>
      <trkpt lat="49.1625" lon="3.936">
        <ele>255.85</ele>
        <time>2017-08-06T10:44:20Z</time>
      </trkpt>
      <trkpt lat="49.16245" lon="3.93604">
        <ele>255.85</ele>
        <time>2017-08-06T10:44:21Z</time>
      </trkpt>
      <trkpt lat="49.16231" lon="3.93617">
        <ele>255.85</ele>
        <time>2017-08-06T10:44:24Z</time>
      </trkpt>
      <trkpt lat="49.16217" lon="3.93625">
        <ele>255.85</ele>
        <time>2017-08-06T10:44:27Z</time>
      </trkpt>
      <trkpt lat="49.16212" lon="3.93626">
        <ele>255.85</ele>
        <time>2017-08-06T10:44:28Z</time>
      </trkpt>
      <trkpt lat="49.16206" lon="3.93626">
        <ele>255.37</ele>
        <time>2017-08-06T10:44:29Z</time>
      </trkpt>
      <trkpt lat="49.16199" lon="3.93626">
        <ele>254.89</ele>
        <time>2017-08-06T10:44:30Z</time>
      </trkpt>
      <trkpt lat="49.16191" lon="3.93625">
        <ele>254.89</ele>
        <time>2017-08-06T10:44:31Z</time>
      </trkpt>
      <trkpt lat="49.16095" lon="3.9361">
        <ele>253.93</ele>
        <time>2017-08-06T10:44:46Z</time>
      </trkpt>
      <trkpt lat="49.16024" lon="3.93602">
        <ele>255.37</ele>
        <time>2017-08-06T10:45:00Z</time>
      </trkpt>
      <trkpt lat="49.15968" lon="3.93596">
        <ele>257.29</ele>
        <time>2017-08-06T10:45:15Z</time>
      </trkpt>
      <trkpt lat="49.15918" lon="3.93573">
        <ele>258.73</ele>
        <time>2017-08-06T10:45:31Z</time>
      </trkpt>
      <trkpt lat="49.15873" lon="3.93524">
        <ele>258.73</ele>
        <time>2017-08-06T10:45:46Z</time>
      </trkpt>
      <trkpt lat="49.15867" lon="3.93515">
        <ele>258.73</ele>
        <time>2017-08-06T10:45:48Z</time>
      </trkpt>
      <trkpt lat="49.1586" lon="3.93507">
        <ele>258.73</ele>
        <time>2017-08-06T10:45:50Z</time>
      </trkpt>
      <trkpt lat="49.15851" lon="3.935">
        <ele>258.73</ele>
        <time>2017-08-06T10:45:52Z</time>
      </trkpt>
      <trkpt lat="49.15841" lon="3.93497">
        <ele>258.73</ele>
        <time>2017-08-06T10:45:54Z</time>
      </trkpt>
      <trkpt lat="49.15836" lon="3.93497">
        <ele>258.73</ele>
        <time>2017-08-06T10:45:55Z</time>
      </trkpt>
      <trkpt lat="49.15826" lon="3.93497">
        <ele>258.73</ele>
        <time>2017-08-06T10:45:57Z</time>
      </trkpt>
      <trkpt lat="49.15822" lon="3.93498">
        <ele>258.73</ele>
        <time>2017-08-06T10:45:58Z</time>
      </trkpt>
      <trkpt lat="49.15818" lon="3.93499">
        <ele>258.73</ele>
        <time>2017-08-06T10:45:59Z</time>
      </trkpt>
      <trkpt lat="49.15793" lon="3.93505">
        <ele>258.73</ele>
        <time>2017-08-06T10:46:04Z</time>
      </trkpt>
      <trkpt lat="49.15777" lon="3.93507">
        <ele>257.29</ele>
        <time>2017-08-06T10:46:07Z</time>
      </trkpt>
      <trkpt lat="49.15737" lon="3.93519">
        <ele>256.81</ele>
        <time>2017-08-06T10:46:15Z</time>
      </trkpt>
      <trkpt lat="49.15732" lon="3.93522">
        <ele>256.81</ele>
        <time>2017-08-06T10:46:16Z</time>
      </trkpt>
      <trkpt lat="49.15728" lon="3.93526">
        <ele>256.81</ele>
        <time>2017-08-06T10:46:17Z</time>
      </trkpt>
      <trkpt lat="49.15723" lon="3.9353">
        <ele>256.81</ele>
        <time>2017-08-06T10:46:18Z</time>
      </trkpt>
      <trkpt lat="49.15718" lon="3.93533">
        <ele>256.81</ele>
        <time>2017-08-06T10:46:19Z</time>
      </trkpt>
      <trkpt lat="49.15714" lon="3.93536">
        <ele>256.81</ele>
        <time>2017-08-06T10:46:20Z</time>
      </trkpt>
      <trkpt lat="49.15709" lon="3.9354">
        <ele>256.81</ele>
        <time>2017-08-06T10:46:21Z</time>
      </trkpt>
      <trkpt lat="49.15705" lon="3.93544">
        <ele>256.81</ele>
        <time>2017-08-06T10:46:22Z</time>
      </trkpt>
      <trkpt lat="49.15637" lon="3.93606">
        <ele>256.33</ele>
        <time>2017-08-06T10:46:37Z</time>
      </trkpt>
      <trkpt lat="49.15594" lon="3.93686">
        <ele>255.85</ele>
        <time>2017-08-06T10:46:50Z</time>
      </trkpt>
      <trkpt lat="49.1554" lon="3.93789">
        <ele>255.37</ele>
        <time>2017-08-06T10:47:05Z</time>
      </trkpt>
      <trkpt lat="49.15488" lon="3.93894">
        <ele>255.37</ele>
        <time>2017-08-06T10:47:20Z</time>
      </trkpt>
      <trkpt lat="49.15485" lon="3.93902">
        <ele>255.37</ele>
        <time>2017-08-06T10:47:21Z</time>
      </trkpt>
      <trkpt lat="49.1547" lon="3.9394">
        <ele>255.37</ele>
        <time>2017-08-06T10:47:29Z</time>
      </trkpt>
      <trkpt lat="49.15461" lon="3.93959">
        <ele>256.81</ele>
        <time>2017-08-06T10:47:37Z</time>
      </trkpt>
      <trkpt lat="49.15438" lon="3.9396">
        <ele>256.81</ele>
        <time>2017-08-06T10:47:43Z</time>
      </trkpt>
      <trkpt lat="49.15434" lon="3.93959">
        <ele>256.81</ele>
        <time>2017-08-06T10:47:44Z</time>
      </trkpt>
      <trkpt lat="49.15423" lon="3.93956">
        <ele>255.37</ele>
        <time>2017-08-06T10:47:47Z</time>
      </trkpt>
      <trkpt lat="49.15401" lon="3.93885">
        <ele>253.93</ele>
        <time>2017-08-06T10:47:59Z</time>
      </trkpt>
      <trkpt lat="49.154" lon="3.93882">
        <ele>253.93</ele>
        <time>2017-08-06T10:48:00Z</time>
      </trkpt>
      <trkpt lat="49.15398" lon="3.93881">
        <ele>253.93</ele>
        <time>2017-08-06T10:48:01Z</time>
      </trkpt>
      <trkpt lat="49.15397" lon="3.93883">
        <ele>253.93</ele>
        <time>2017-08-06T10:48:02Z</time>
      </trkpt>
      <trkpt lat="49.15397" lon="3.93886">
        <ele>253.93</ele>
        <time>2017-08-06T10:48:03Z</time>
      </trkpt>
      <trkpt lat="49.15397" lon="3.93888">
        <ele>253.93</ele>
        <time>2017-08-06T10:48:04Z</time>
      </trkpt>
      <trkpt lat="49.15393" lon="3.93891">
        <ele>253.93</ele>
        <time>2017-08-06T10:48:14Z</time>
      </trkpt>
      <trkpt lat="49.15391" lon="3.93894">
        <ele>253.93</ele>
        <time>2017-08-06T10:48:20Z</time>
      </trkpt>
      <trkpt lat="49.15382" lon="3.93914">
        <ele>253.93</ele>
        <time>2017-08-06T10:48:30Z</time>
      </trkpt>
      <trkpt lat="49.15379" lon="3.93919">
        <ele>254.89</ele>
        <time>2017-08-06T10:48:32Z</time>
      </trkpt>
      <trkpt lat="49.15353" lon="3.93954">
        <ele>255.85</ele>
        <time>2017-08-06T10:48:45Z</time>
      </trkpt>
      <trkpt lat="49.15329" lon="3.93985">
        <ele>256.33</ele>
        <time>2017-08-06T10:48:55Z</time>
      </trkpt>
      <trkpt lat="49.15301" lon="3.9402">
        <ele>257.29</ele>
        <time>2017-08-06T10:49:09Z</time>
      </trkpt>
      <trkpt lat="49.15273" lon="3.94054">
        <ele>257.77</ele>
        <time>2017-08-06T10:49:21Z</time>
      </trkpt>
      <trkpt lat="49.15243" lon="3.94093">
        <ele>258.25</ele>
        <time>2017-08-06T10:49:33Z</time>
      </trkpt>
      <trkpt lat="49.15218" lon="3.94127">
        <ele>258.25</ele>
        <time>2017-08-06T10:49:42Z</time>
      </trkpt>
      <trkpt lat="49.15202" lon="3.94116">
        <ele>258.25</ele>
        <time>2017-08-06T10:49:49Z</time>
      </trkpt>
      <trkpt lat="49.15201" lon="3.94111">
        <ele>258.25</ele>
        <time>2017-08-06T10:49:50Z</time>
      </trkpt>
      <trkpt lat="49.15198" lon="3.94073">
        <ele>258.25</ele>
        <time>2017-08-06T10:49:56Z</time>
      </trkpt>
      <trkpt lat="49.15189" lon="3.94012">
        <ele>256.81</ele>
        <time>2017-08-06T10:50:07Z</time>
      </trkpt>
      <trkpt lat="49.15197" lon="3.93943">
        <ele>256.33</ele>
        <time>2017-08-06T10:50:19Z</time>
      </trkpt>
      <trkpt lat="49.15211" lon="3.93889">
        <ele>255.37</ele>
        <time>2017-08-06T10:50:30Z</time>
      </trkpt>
      <trkpt lat="49.15213" lon="3.93887">
        <ele>255.37</ele>
        <time>2017-08-06T10:50:31Z</time>
      </trkpt>
      <trkpt lat="49.15247" lon="3.93863">
        <ele>255.37</ele>
        <time>2017-08-06T10:50:44Z</time>
      </trkpt>
      <trkpt lat="49.15258" lon="3.93846">
        <ele>254.89</ele>
        <time>2017-08-06T10:50:48Z</time>
      </trkpt>
      <trkpt lat="49.15264" lon="3.93826">
        <ele>253.44</ele>
        <time>2017-08-06T10:50:51Z</time>
      </trkpt>
      <trkpt lat="49.15276" lon="3.93788">
        <ele>252.96</ele>
        <time>2017-08-06T10:51:00Z</time>
      </trkpt>
      <trkpt lat="49.15275" lon="3.93773">
        <ele>252</ele>
        <time>2017-08-06T10:51:05Z</time>
      </trkpt>
      <trkpt lat="49.15269" lon="3.93755">
        <ele>252</ele>
        <time>2017-08-06T10:51:10Z</time>
      </trkpt>
      <trkpt lat="49.1523" lon="3.93755">
        <ele>252</ele>
        <time>2017-08-06T10:51:22Z</time>
      </trkpt>
      <trkpt lat="49.15209" lon="3.93762">
        <ele>252</ele>
        <time>2017-08-06T10:51:31Z</time>
      </trkpt>
      <trkpt lat="49.15181" lon="3.9377">
        <ele>251.52</ele>
        <time>2017-08-06T10:51:40Z</time>
      </trkpt>
      <trkpt lat="49.15165" lon="3.93774">
        <ele>250.08</ele>
        <time>2017-08-06T10:51:43Z</time>
      </trkpt>
      <trkpt lat="49.15141" lon="3.93785">
        <ele>247.68</ele>
        <time>2017-08-06T10:51:47Z</time>
      </trkpt>
      <trkpt lat="49.15114" lon="3.93802">
        <ele>244.79</ele>
        <time>2017-08-06T10:51:54Z</time>
      </trkpt>
      <trkpt lat="49.15095" lon="3.93815">
        <ele>241.91</ele>
        <time>2017-08-06T10:51:58Z</time>
      </trkpt>
      <trkpt lat="49.15088" lon="3.93822">
        <ele>240.95</ele>
        <time>2017-08-06T10:52:00Z</time>
      </trkpt>
      <trkpt lat="49.15085" lon="3.93825">
        <ele>239.99</ele>
        <time>2017-08-06T10:52:01Z</time>
      </trkpt>
      <trkpt lat="49.15065" lon="3.93829">
        <ele>237.1</ele>
        <time>2017-08-06T10:52:05Z</time>
      </trkpt>
      <trkpt lat="49.15045" lon="3.9383">
        <ele>232.78</ele>
        <time>2017-08-06T10:52:10Z</time>
      </trkpt>
      <trkpt lat="49.15024" lon="3.93841">
        <ele>228.93</ele>
        <time>2017-08-06T10:52:15Z</time>
      </trkpt>
      <trkpt lat="49.15009" lon="3.93853">
        <ele>227.01</ele>
        <time>2017-08-06T10:52:18Z</time>
      </trkpt>
      <trkpt lat="49.14991" lon="3.93868">
        <ele>224.61</ele>
        <time>2017-08-06T10:52:22Z</time>
      </trkpt>
      <trkpt lat="49.14962" lon="3.93908">
        <ele>220.76</ele>
        <time>2017-08-06T10:52:30Z</time>
      </trkpt>
      <trkpt lat="49.14949" lon="3.93925">
        <ele>218.84</ele>
        <time>2017-08-06T10:52:34Z</time>
      </trkpt>
      <trkpt lat="49.14947" lon="3.93928">
        <ele>218.84</ele>
        <time>2017-08-06T10:52:35Z</time>
      </trkpt>
      <trkpt lat="49.14937" lon="3.93942">
        <ele>217.4</ele>
        <time>2017-08-06T10:52:38Z</time>
      </trkpt>
      <trkpt lat="49.14929" lon="3.9395">
        <ele>215.95</ele>
        <time>2017-08-06T10:52:40Z</time>
      </trkpt>
      <trkpt lat="49.14903" lon="3.93985">
        <ele>214.51</ele>
        <time>2017-08-06T10:52:50Z</time>
      </trkpt>
      <trkpt lat="49.14882" lon="3.94036">
        <ele>215.95</ele>
        <time>2017-08-06T10:53:03Z</time>
      </trkpt>
      <trkpt lat="49.14872" lon="3.9409">
        <ele>216.43</ele>
        <time>2017-08-06T10:53:16Z</time>
      </trkpt>
      <trkpt lat="49.14866" lon="3.94146">
        <ele>217.4</ele>
        <time>2017-08-06T10:53:30Z</time>
      </trkpt>
      <trkpt lat="49.14859" lon="3.94198">
        <ele>218.36</ele>
        <time>2017-08-06T10:53:44Z</time>
      </trkpt>
      <trkpt lat="49.14853" lon="3.94235">
        <ele>218.36</ele>
        <time>2017-08-06T10:53:53Z</time>
      </trkpt>
      <trkpt lat="49.14851" lon="3.94237">
        <ele>218.36</ele>
        <time>2017-08-06T10:53:54Z</time>
      </trkpt>
      <trkpt lat="49.14849" lon="3.94239">
        <ele>218.36</ele>
        <time>2017-08-06T10:53:55Z</time>
      </trkpt>
      <trkpt lat="49.14838" lon="3.94251">
        <ele>217.4</ele>
        <time>2017-08-06T10:53:59Z</time>
      </trkpt>
      <trkpt lat="49.1481" lon="3.94338">
        <ele>215.95</ele>
        <time>2017-08-06T10:54:14Z</time>
      </trkpt>
      <trkpt lat="49.14782" lon="3.94438">
        <ele>214.99</ele>
        <time>2017-08-06T10:54:29Z</time>
      </trkpt>
      <trkpt lat="49.14752" lon="3.94552">
        <ele>211.63</ele>
        <time>2017-08-06T10:54:44Z</time>
      </trkpt>
      <trkpt lat="49.14745" lon="3.94581">
        <ele>210.19</ele>
        <time>2017-08-06T10:54:47Z</time>
      </trkpt>
      <trkpt lat="49.14744" lon="3.94589">
        <ele>209.7</ele>
        <time>2017-08-06T10:54:48Z</time>
      </trkpt>
      <trkpt lat="49.14742" lon="3.94595">
        <ele>209.7</ele>
        <time>2017-08-06T10:54:49Z</time>
      </trkpt>
      <trkpt lat="49.14738" lon="3.946">
        <ele>209.7</ele>
        <time>2017-08-06T10:54:50Z</time>
      </trkpt>
      <trkpt lat="49.14733" lon="3.94603">
        <ele>209.7</ele>
        <time>2017-08-06T10:54:51Z</time>
      </trkpt>
      <trkpt lat="49.14729" lon="3.94605">
        <ele>209.7</ele>
        <time>2017-08-06T10:54:52Z</time>
      </trkpt>
      <trkpt lat="49.14724" lon="3.94606">
        <ele>209.7</ele>
        <time>2017-08-06T10:54:53Z</time>
      </trkpt>
      <trkpt lat="49.14689" lon="3.94618">
        <ele>208.74</ele>
        <time>2017-08-06T10:54:59Z</time>
      </trkpt>
      <trkpt lat="49.14684" lon="3.94619">
        <ele>208.74</ele>
        <time>2017-08-06T10:55:00Z</time>
      </trkpt>
      <trkpt lat="49.14621" lon="3.94642">
        <ele>204.9</ele>
        <time>2017-08-06T10:55:10Z</time>
      </trkpt>
      <trkpt lat="49.14594" lon="3.94648">
        <ele>201.53</ele>
        <time>2017-08-06T10:55:13Z</time>
      </trkpt>
      <trkpt lat="49.14586" lon="3.94648">
        <ele>200.09</ele>
        <time>2017-08-06T10:55:14Z</time>
      </trkpt>
      <trkpt lat="49.14578" lon="3.94645">
        <ele>199.13</ele>
        <time>2017-08-06T10:55:15Z</time>
      </trkpt>
      <trkpt lat="49.14571" lon="3.94641">
        <ele>198.17</ele>
        <time>2017-08-06T10:55:16Z</time>
      </trkpt>
      <trkpt lat="49.14564" lon="3.94637">
        <ele>197.69</ele>
        <time>2017-08-06T10:55:17Z</time>
      </trkpt>
      <trkpt lat="49.14559" lon="3.94632">
        <ele>197.69</ele>
        <time>2017-08-06T10:55:18Z</time>
      </trkpt>
      <trkpt lat="49.14554" lon="3.94628">
        <ele>197.69</ele>
        <time>2017-08-06T10:55:19Z</time>
      </trkpt>
      <trkpt lat="49.14543" lon="3.94625">
        <ele>197.21</ele>
        <time>2017-08-06T10:55:22Z</time>
      </trkpt>
      <trkpt lat="49.14541" lon="3.94628">
        <ele>196.73</ele>
        <time>2017-08-06T10:55:23Z</time>
      </trkpt>
      <trkpt lat="49.14539" lon="3.94631">
        <ele>197.21</ele>
        <time>2017-08-06T10:55:24Z</time>
      </trkpt>
      <trkpt lat="49.14537" lon="3.94637">
        <ele>197.21</ele>
        <time>2017-08-06T10:55:25Z</time>
      </trkpt>
      <trkpt lat="49.14536" lon="3.94642">
        <ele>197.21</ele>
        <time>2017-08-06T10:55:26Z</time>
      </trkpt>
      <trkpt lat="49.14519" lon="3.94717">
        <ele>194.32</ele>
        <time>2017-08-06T10:55:36Z</time>
      </trkpt>
      <trkpt lat="49.14516" lon="3.94725">
        <ele>194.32</ele>
        <time>2017-08-06T10:55:37Z</time>
      </trkpt>
      <trkpt lat="49.14511" lon="3.94731">
        <ele>193.36</ele>
        <time>2017-08-06T10:55:38Z</time>
      </trkpt>
      <trkpt lat="49.14505" lon="3.94735">
        <ele>192.88</ele>
        <time>2017-08-06T10:55:39Z</time>
      </trkpt>
      <trkpt lat="49.14498" lon="3.94734">
        <ele>192.4</ele>
        <time>2017-08-06T10:55:40Z</time>
      </trkpt>
      <trkpt lat="49.14491" lon="3.94732">
        <ele>191.92</ele>
        <time>2017-08-06T10:55:41Z</time>
      </trkpt>
      <trkpt lat="49.14483" lon="3.9473">
        <ele>191.92</ele>
        <time>2017-08-06T10:55:42Z</time>
      </trkpt>
      <trkpt lat="49.14434" lon="3.94714">
        <ele>188.08</ele>
        <time>2017-08-06T10:55:48Z</time>
      </trkpt>
      <trkpt lat="49.14425" lon="3.94713">
        <ele>187.59</ele>
        <time>2017-08-06T10:55:49Z</time>
      </trkpt>
      <trkpt lat="49.14415" lon="3.94714">
        <ele>186.63</ele>
        <time>2017-08-06T10:55:50Z</time>
      </trkpt>
      <trkpt lat="49.14373" lon="3.94718">
        <ele>182.79</ele>
        <time>2017-08-06T10:55:54Z</time>
      </trkpt>
      <trkpt lat="49.14331" lon="3.94724">
        <ele>181.35</ele>
        <time>2017-08-06T10:55:58Z</time>
      </trkpt>
      <trkpt lat="49.14322" lon="3.94727">
        <ele>181.35</ele>
        <time>2017-08-06T10:55:59Z</time>
      </trkpt>
      <trkpt lat="49.14312" lon="3.94733">
        <ele>181.35</ele>
        <time>2017-08-06T10:56:00Z</time>
      </trkpt>
      <trkpt lat="49.14304" lon="3.94741">
        <ele>180.87</ele>
        <time>2017-08-06T10:56:01Z</time>
      </trkpt>
      <trkpt lat="49.14297" lon="3.94749">
        <ele>180.87</ele>
        <time>2017-08-06T10:56:02Z</time>
      </trkpt>
      <trkpt lat="49.14276" lon="3.94776">
        <ele>180.38</ele>
        <time>2017-08-06T10:56:05Z</time>
      </trkpt>
      <trkpt lat="49.14269" lon="3.94783">
        <ele>180.38</ele>
        <time>2017-08-06T10:56:06Z</time>
      </trkpt>
      <trkpt lat="49.14262" lon="3.94788">
        <ele>180.38</ele>
        <time>2017-08-06T10:56:07Z</time>
      </trkpt>
      <trkpt lat="49.14254" lon="3.94792">
        <ele>180.38</ele>
        <time>2017-08-06T10:56:08Z</time>
      </trkpt>
      <trkpt lat="49.14248" lon="3.94794">
        <ele>181.83</ele>
        <time>2017-08-06T10:56:09Z</time>
      </trkpt>
      <trkpt lat="49.14238" lon="3.94798">
        <ele>182.79</ele>
        <time>2017-08-06T10:56:11Z</time>
      </trkpt>
      <trkpt lat="49.14234" lon="3.94798">
        <ele>182.79</ele>
        <time>2017-08-06T10:56:12Z</time>
      </trkpt>
      <trkpt lat="49.1423" lon="3.94799">
        <ele>183.27</ele>
        <time>2017-08-06T10:56:13Z</time>
      </trkpt>
      <trkpt lat="49.14228" lon="3.948">
        <ele>183.75</ele>
        <time>2017-08-06T10:56:14Z</time>
      </trkpt>
      <trkpt lat="49.14226" lon="3.94801">
        <ele>183.75</ele>
        <time>2017-08-06T10:56:15Z</time>
      </trkpt>
      <trkpt lat="49.14224" lon="3.94802">
        <ele>184.23</ele>
        <time>2017-08-06T10:56:16Z</time>
      </trkpt>
      <trkpt lat="49.14223" lon="3.94803">
        <ele>184.23</ele>
        <time>2017-08-06T10:56:17Z</time>
      </trkpt>
      <trkpt lat="49.14221" lon="3.94804">
        <ele>184.71</ele>
        <time>2017-08-06T10:56:18Z</time>
      </trkpt>
      <trkpt lat="49.14196" lon="3.94823">
        <ele>187.11</ele>
        <time>2017-08-06T10:56:34Z</time>
      </trkpt>
      <trkpt lat="49.14174" lon="3.94841">
        <ele>189.04</ele>
        <time>2017-08-06T10:56:50Z</time>
      </trkpt>
      <trkpt lat="49.14154" lon="3.94861">
        <ele>192.4</ele>
        <time>2017-08-06T10:57:06Z</time>
      </trkpt>
      <trkpt lat="49.14137" lon="3.9488">
        <ele>194.32</ele>
        <time>2017-08-06T10:57:20Z</time>
      </trkpt>
      <trkpt lat="49.1411" lon="3.94901">
        <ele>196.25</ele>
        <time>2017-08-06T10:57:38Z</time>
      </trkpt>
      <trkpt lat="49.14081" lon="3.94918">
        <ele>197.21</ele>
        <time>2017-08-06T10:57:53Z</time>
      </trkpt>
      <trkpt lat="49.14046" lon="3.94937">
        <ele>198.65</ele>
        <time>2017-08-06T10:58:08Z</time>
      </trkpt>
      <trkpt lat="49.14017" lon="3.94956">
        <ele>200.09</ele>
        <time>2017-08-06T10:58:21Z</time>
      </trkpt>
      <trkpt lat="49.13989" lon="3.94956">
        <ele>200.57</ele>
        <time>2017-08-06T10:58:32Z</time>
      </trkpt>
      <trkpt lat="49.13959" lon="3.94957">
        <ele>199.13</ele>
        <time>2017-08-06T10:58:41Z</time>
      </trkpt>
      <trkpt lat="49.13922" lon="3.9497">
        <ele>199.13</ele>
        <time>2017-08-06T10:58:52Z</time>
      </trkpt>
      <trkpt lat="49.13918" lon="3.94973">
        <ele>200.09</ele>
        <time>2017-08-06T10:58:54Z</time>
      </trkpt>
      <trkpt lat="49.13896" lon="3.94992">
        <ele>201.05</ele>
        <time>2017-08-06T10:59:05Z</time>
      </trkpt>
      <trkpt lat="49.13881" lon="3.95006">
        <ele>202.49</ele>
        <time>2017-08-06T10:59:14Z</time>
      </trkpt>
      <trkpt lat="49.13859" lon="3.95027">
        <ele>203.94</ele>
        <time>2017-08-06T10:59:26Z</time>
      </trkpt>
      <trkpt lat="49.13853" lon="3.9503">
        <ele>204.42</ele>
        <time>2017-08-06T10:59:29Z</time>
      </trkpt>
      <trkpt lat="49.13846" lon="3.95035">
        <ele>204.9</ele>
        <time>2017-08-06T10:59:34Z</time>
      </trkpt>
      <trkpt lat="49.1384" lon="3.95029">
        <ele>205.38</ele>
        <time>2017-08-06T10:59:39Z</time>
      </trkpt>
      <trkpt lat="49.13818" lon="3.95004">
        <ele>205.86</ele>
        <time>2017-08-06T10:59:53Z</time>
      </trkpt>
      <trkpt lat="49.13813" lon="3.94996">
        <ele>206.34</ele>
        <time>2017-08-06T10:59:56Z</time>
      </trkpt>
      <trkpt lat="49.13802" lon="3.94978">
        <ele>207.3</ele>
        <time>2017-08-06T11:00:06Z</time>
      </trkpt>
      <trkpt lat="49.1379" lon="3.9496">
        <ele>207.3</ele>
        <time>2017-08-06T11:00:28Z</time>
      </trkpt>
      <trkpt lat="49.13789" lon="3.94955">
        <ele>206.82</ele>
        <time>2017-08-06T11:00:45Z</time>
      </trkpt>
      <trkpt lat="49.13792" lon="3.94953">
        <ele>208.26</ele>
        <time>2017-08-06T11:01:21Z</time>
      </trkpt>
      <trkpt lat="49.13781" lon="3.94936">
        <ele>208.26</ele>
        <time>2017-08-06T11:01:39Z</time>
      </trkpt>
      <trkpt lat="49.13777" lon="3.94931">
        <ele>208.74</ele>
        <time>2017-08-06T11:01:53Z</time>
      </trkpt>
      <trkpt lat="49.1377" lon="3.9492">
        <ele>209.7</ele>
        <time>2017-08-06T11:02:00Z</time>
      </trkpt>
      <trkpt lat="49.13764" lon="3.9491">
        <ele>209.7</ele>
        <time>2017-08-06T11:02:05Z</time>
      </trkpt>
      <trkpt lat="49.13758" lon="3.94896">
        <ele>208.74</ele>
        <time>2017-08-06T11:02:17Z</time>
      </trkpt>
      <trkpt lat="49.13755" lon="3.94886">
        <ele>208.74</ele>
        <time>2017-08-06T11:02:44Z</time>
      </trkpt>
      <trkpt lat="49.13762" lon="3.94887">
        <ele>208.74</ele>
        <time>2017-08-06T11:03:22Z</time>
      </trkpt>
      <trkpt lat="49.13758" lon="3.94889">
        <ele>210.67</ele>
        <time>2017-08-06T11:03:56Z</time>
      </trkpt>
      <trkpt lat="49.13753" lon="3.94896">
        <ele>211.15</ele>
        <time>2017-08-06T11:04:12Z</time>
      </trkpt>
      <trkpt lat="49.13752" lon="3.94898">
        <ele>211.15</ele>
        <time>2017-08-06T11:04:33Z</time>
      </trkpt>
      <trkpt lat="49.13755" lon="3.94897">
        <ele>211.63</ele>
        <time>2017-08-06T11:05:16Z</time>
      </trkpt>
      <trkpt lat="49.13754" lon="3.94899">
        <ele>212.11</ele>
        <time>2017-08-06T11:05:50Z</time>
      </trkpt>
      <trkpt lat="49.13751" lon="3.94895">
        <ele>212.11</ele>
        <time>2017-08-06T11:06:14Z</time>
      </trkpt>
      <trkpt lat="49.13745" lon="3.94885">
        <ele>213.07</ele>
        <time>2017-08-06T11:06:27Z</time>
      </trkpt>
      <trkpt lat="49.13744" lon="3.94882">
        <ele>213.07</ele>
        <time>2017-08-06T11:06:30Z</time>
      </trkpt>
      <trkpt lat="49.1374" lon="3.94874">
        <ele>213.55</ele>
        <time>2017-08-06T11:06:34Z</time>
      </trkpt>
      <trkpt lat="49.13728" lon="3.9485">
        <ele>214.99</ele>
        <time>2017-08-06T11:06:45Z</time>
      </trkpt>
      <trkpt lat="49.13714" lon="3.94835">
        <ele>216.43</ele>
        <time>2017-08-06T11:06:55Z</time>
      </trkpt>
      <trkpt lat="49.137" lon="3.94815">
        <ele>216.91</ele>
        <time>2017-08-06T11:07:05Z</time>
      </trkpt>
      <trkpt lat="49.13689" lon="3.948">
        <ele>217.88</ele>
        <time>2017-08-06T11:07:16Z</time>
      </trkpt>
      <trkpt lat="49.13685" lon="3.94792">
        <ele>218.36</ele>
        <time>2017-08-06T11:07:29Z</time>
      </trkpt>
      <trkpt lat="49.13683" lon="3.94788">
        <ele>218.36</ele>
        <time>2017-08-06T11:07:35Z</time>
      </trkpt>
      <trkpt lat="49.13677" lon="3.94777">
        <ele>218.36</ele>
        <time>2017-08-06T11:07:50Z</time>
      </trkpt>
      <trkpt lat="49.13677" lon="3.94775">
        <ele>218.36</ele>
        <time>2017-08-06T11:08:04Z</time>
      </trkpt>
      <trkpt lat="49.13673" lon="3.94772">
        <ele>218.36</ele>
        <time>2017-08-06T11:08:23Z</time>
      </trkpt>
      <trkpt lat="49.13669" lon="3.94757">
        <ele>218.36</ele>
        <time>2017-08-06T11:08:34Z</time>
      </trkpt>
      <trkpt lat="49.13658" lon="3.94741">
        <ele>218.36</ele>
        <time>2017-08-06T11:08:48Z</time>
      </trkpt>
      <trkpt lat="49.13649" lon="3.94723">
        <ele>218.84</ele>
        <time>2017-08-06T11:09:01Z</time>
      </trkpt>
      <trkpt lat="49.13646" lon="3.94717">
        <ele>218.84</ele>
        <time>2017-08-06T11:09:15Z</time>
      </trkpt>
      <trkpt lat="49.13641" lon="3.94706">
        <ele>219.32</ele>
        <time>2017-08-06T11:09:28Z</time>
      </trkpt>
      <trkpt lat="49.13635" lon="3.94689">
        <ele>219.8</ele>
        <time>2017-08-06T11:09:42Z</time>
      </trkpt>
      <trkpt lat="49.13632" lon="3.94684">
        <ele>219.8</ele>
        <time>2017-08-06T11:09:45Z</time>
      </trkpt>
      <trkpt lat="49.13627" lon="3.94672">
        <ele>219.8</ele>
        <time>2017-08-06T11:09:55Z</time>
      </trkpt>
      <trkpt lat="49.13623" lon="3.94662">
        <ele>219.8</ele>
        <time>2017-08-06T11:10:00Z</time>
      </trkpt>
      <trkpt lat="49.13612" lon="3.94638">
        <ele>220.76</ele>
        <time>2017-08-06T11:10:11Z</time>
      </trkpt>
      <trkpt lat="49.13607" lon="3.94628">
        <ele>220.76</ele>
        <time>2017-08-06T11:10:26Z</time>
      </trkpt>
      <trkpt lat="49.13605" lon="3.94626">
        <ele>220.76</ele>
        <time>2017-08-06T11:10:28Z</time>
      </trkpt>
      <trkpt lat="49.13602" lon="3.94619">
        <ele>220.76</ele>
        <time>2017-08-06T11:10:31Z</time>
      </trkpt>
      <trkpt lat="49.136" lon="3.94617">
        <ele>220.76</ele>
        <time>2017-08-06T11:10:32Z</time>
      </trkpt>
      <trkpt lat="49.13598" lon="3.94616">
        <ele>220.76</ele>
        <time>2017-08-06T11:10:33Z</time>
      </trkpt>
      <trkpt lat="49.13596" lon="3.94613">
        <ele>221.24</ele>
        <time>2017-08-06T11:10:34Z</time>
      </trkpt>
      <trkpt lat="49.13595" lon="3.94611">
        <ele>220.76</ele>
        <time>2017-08-06T11:10:35Z</time>
      </trkpt>
      <trkpt lat="49.13591" lon="3.94608">
        <ele>221.24</ele>
        <time>2017-08-06T11:10:37Z</time>
      </trkpt>
      <trkpt lat="49.1359" lon="3.94607">
        <ele>221.24</ele>
        <time>2017-08-06T11:10:38Z</time>
      </trkpt>
      <trkpt lat="49.13588" lon="3.94605">
        <ele>221.72</ele>
        <time>2017-08-06T11:10:39Z</time>
      </trkpt>
      <trkpt lat="49.13586" lon="3.94603">
        <ele>221.72</ele>
        <time>2017-08-06T11:10:40Z</time>
      </trkpt>
      <trkpt lat="49.13584" lon="3.946">
        <ele>221.72</ele>
        <time>2017-08-06T11:10:41Z</time>
      </trkpt>
      <trkpt lat="49.13582" lon="3.94597">
        <ele>221.72</ele>
        <time>2017-08-06T11:10:42Z</time>
      </trkpt>
      <trkpt lat="49.1358" lon="3.94594">
        <ele>221.72</ele>
        <time>2017-08-06T11:10:43Z</time>
      </trkpt>
      <trkpt lat="49.13577" lon="3.9459">
        <ele>221.72</ele>
        <time>2017-08-06T11:10:44Z</time>
      </trkpt>
      <trkpt lat="49.13575" lon="3.94588">
        <ele>221.72</ele>
        <time>2017-08-06T11:10:45Z</time>
      </trkpt>
      <trkpt lat="49.13574" lon="3.94585">
        <ele>221.72</ele>
        <time>2017-08-06T11:10:46Z</time>
      </trkpt>
      <trkpt lat="49.13572" lon="3.94583">
        <ele>221.72</ele>
        <time>2017-08-06T11:10:47Z</time>
      </trkpt>
      <trkpt lat="49.13571" lon="3.9458">
        <ele>221.72</ele>
        <time>2017-08-06T11:10:48Z</time>
      </trkpt>
      <trkpt lat="49.13554" lon="3.94555">
        <ele>222.68</ele>
        <time>2017-08-06T11:10:58Z</time>
      </trkpt>
      <trkpt lat="49.13552" lon="3.94552">
        <ele>222.68</ele>
        <time>2017-08-06T11:10:59Z</time>
      </trkpt>
      <trkpt lat="49.13551" lon="3.9455">
        <ele>223.16</ele>
        <time>2017-08-06T11:11:00Z</time>
      </trkpt>
      <trkpt lat="49.13549" lon="3.94548">
        <ele>223.16</ele>
        <time>2017-08-06T11:11:01Z</time>
      </trkpt>
      <trkpt lat="49.13548" lon="3.94545">
        <ele>223.16</ele>
        <time>2017-08-06T11:11:02Z</time>
      </trkpt>
      <trkpt lat="49.13547" lon="3.94543">
        <ele>223.16</ele>
        <time>2017-08-06T11:11:03Z</time>
      </trkpt>
      <trkpt lat="49.13546" lon="3.9454">
        <ele>223.64</ele>
        <time>2017-08-06T11:11:04Z</time>
      </trkpt>
      <trkpt lat="49.13545" lon="3.94538">
        <ele>224.12</ele>
        <time>2017-08-06T11:11:05Z</time>
      </trkpt>
      <trkpt lat="49.13543" lon="3.94536">
        <ele>223.64</ele>
        <time>2017-08-06T11:11:06Z</time>
      </trkpt>
      <trkpt lat="49.13542" lon="3.94532">
        <ele>223.64</ele>
        <time>2017-08-06T11:11:07Z</time>
      </trkpt>
      <trkpt lat="49.1354" lon="3.94529">
        <ele>223.64</ele>
        <time>2017-08-06T11:11:08Z</time>
      </trkpt>
      <trkpt lat="49.13526" lon="3.94501">
        <ele>223.64</ele>
        <time>2017-08-06T11:11:17Z</time>
      </trkpt>
      <trkpt lat="49.13523" lon="3.94494">
        <ele>223.64</ele>
        <time>2017-08-06T11:11:19Z</time>
      </trkpt>
      <trkpt lat="49.13505" lon="3.9446">
        <ele>224.12</ele>
        <time>2017-08-06T11:11:29Z</time>
      </trkpt>
      <trkpt lat="49.13492" lon="3.94434">
        <ele>224.12</ele>
        <time>2017-08-06T11:11:37Z</time>
      </trkpt>
      <trkpt lat="49.13474" lon="3.94396">
        <ele>224.12</ele>
        <time>2017-08-06T11:11:47Z</time>
      </trkpt>
      <trkpt lat="49.13472" lon="3.94393">
        <ele>224.12</ele>
        <time>2017-08-06T11:11:48Z</time>
      </trkpt>
      <trkpt lat="49.1347" lon="3.9439">
        <ele>224.12</ele>
        <time>2017-08-06T11:11:49Z</time>
      </trkpt>
      <trkpt lat="49.13469" lon="3.94386">
        <ele>224.12</ele>
        <time>2017-08-06T11:11:50Z</time>
      </trkpt>
      <trkpt lat="49.13468" lon="3.94382">
        <ele>224.12</ele>
        <time>2017-08-06T11:11:51Z</time>
      </trkpt>
      <trkpt lat="49.13467" lon="3.94378">
        <ele>224.12</ele>
        <time>2017-08-06T11:11:52Z</time>
      </trkpt>
      <trkpt lat="49.13466" lon="3.94374">
        <ele>224.12</ele>
        <time>2017-08-06T11:11:53Z</time>
      </trkpt>
      <trkpt lat="49.13463" lon="3.94369">
        <ele>222.68</ele>
        <time>2017-08-06T11:11:54Z</time>
      </trkpt>
      <trkpt lat="49.13436" lon="3.94337">
        <ele>221.72</ele>
        <time>2017-08-06T11:12:03Z</time>
      </trkpt>
      <trkpt lat="49.13411" lon="3.94306">
        <ele>220.28</ele>
        <time>2017-08-06T11:12:12Z</time>
      </trkpt>
      <trkpt lat="49.13403" lon="3.94296">
        <ele>218.84</ele>
        <time>2017-08-06T11:12:16Z</time>
      </trkpt>
      <trkpt lat="49.13387" lon="3.94278">
        <ele>217.88</ele>
        <time>2017-08-06T11:12:25Z</time>
      </trkpt>
      <trkpt lat="49.13369" lon="3.94262">
        <ele>215.47</ele>
        <time>2017-08-06T11:12:34Z</time>
      </trkpt>
      <trkpt lat="49.13353" lon="3.94242">
        <ele>212.11</ele>
        <time>2017-08-06T11:12:42Z</time>
      </trkpt>
      <trkpt lat="49.13333" lon="3.94228">
        <ele>208.74</ele>
        <time>2017-08-06T11:12:47Z</time>
      </trkpt>
      <trkpt lat="49.1333" lon="3.94226">
        <ele>208.26</ele>
        <time>2017-08-06T11:12:48Z</time>
      </trkpt>
      <trkpt lat="49.13317" lon="3.94223">
        <ele>207.3</ele>
        <time>2017-08-06T11:12:52Z</time>
      </trkpt>
      <trkpt lat="49.13305" lon="3.9423">
        <ele>207.3</ele>
        <time>2017-08-06T11:12:59Z</time>
      </trkpt>
      <trkpt lat="49.13291" lon="3.94234">
        <ele>208.26</ele>
        <time>2017-08-06T11:13:05Z</time>
      </trkpt>
      <trkpt lat="49.13251" lon="3.94249">
        <ele>209.7</ele>
        <time>2017-08-06T11:13:19Z</time>
      </trkpt>
      <trkpt lat="49.13223" lon="3.94258">
        <ele>210.19</ele>
        <time>2017-08-06T11:13:30Z</time>
      </trkpt>
      <trkpt lat="49.13217" lon="3.94261">
        <ele>210.67</ele>
        <time>2017-08-06T11:13:40Z</time>
      </trkpt>
      <trkpt lat="49.13214" lon="3.94261">
        <ele>210.67</ele>
        <time>2017-08-06T11:13:45Z</time>
      </trkpt>
      <trkpt lat="49.13188" lon="3.94278">
        <ele>211.63</ele>
        <time>2017-08-06T11:13:59Z</time>
      </trkpt>
      <trkpt lat="49.1318" lon="3.94286">
        <ele>211.63</ele>
        <time>2017-08-06T11:14:04Z</time>
      </trkpt>
      <trkpt lat="49.13173" lon="3.94297">
        <ele>213.07</ele>
        <time>2017-08-06T11:14:10Z</time>
      </trkpt>
      <trkpt lat="49.13167" lon="3.94303">
        <ele>213.55</ele>
        <time>2017-08-06T11:14:22Z</time>
      </trkpt>
      <trkpt lat="49.1316" lon="3.94316">
        <ele>215.47</ele>
        <time>2017-08-06T11:14:36Z</time>
      </trkpt>
      <trkpt lat="49.13155" lon="3.94325">
        <ele>215.95</ele>
        <time>2017-08-06T11:14:45Z</time>
      </trkpt>
      <trkpt lat="49.13143" lon="3.94345">
        <ele>217.4</ele>
        <time>2017-08-06T11:14:59Z</time>
      </trkpt>
      <trkpt lat="49.1313" lon="3.94366">
        <ele>219.32</ele>
        <time>2017-08-06T11:15:15Z</time>
      </trkpt>
      <trkpt lat="49.13117" lon="3.94387">
        <ele>222.2</ele>
        <time>2017-08-06T11:15:32Z</time>
      </trkpt>
      <trkpt lat="49.13112" lon="3.9439">
        <ele>222.2</ele>
        <time>2017-08-06T11:15:56Z</time>
      </trkpt>
      <trkpt lat="49.13112" lon="3.94389">
        <ele>222.2</ele>
        <time>2017-08-06T11:16:25Z</time>
      </trkpt>
      <trkpt lat="49.13115" lon="3.94396">
        <ele>222.68</ele>
        <time>2017-08-06T11:16:49Z</time>
      </trkpt>
      <trkpt lat="49.13113" lon="3.94396">
        <ele>222.68</ele>
        <time>2017-08-06T11:17:00Z</time>
      </trkpt>
      <trkpt lat="49.13107" lon="3.94408">
        <ele>222.68</ele>
        <time>2017-08-06T11:17:07Z</time>
      </trkpt>
      <trkpt lat="49.13098" lon="3.94422">
        <ele>223.16</ele>
        <time>2017-08-06T11:17:19Z</time>
      </trkpt>
      <trkpt lat="49.13095" lon="3.94425">
        <ele>223.16</ele>
        <time>2017-08-06T11:17:25Z</time>
      </trkpt>
      <trkpt lat="49.13094" lon="3.94427">
        <ele>223.64</ele>
        <time>2017-08-06T11:17:27Z</time>
      </trkpt>
      <trkpt lat="49.13084" lon="3.94446">
        <ele>225.09</ele>
        <time>2017-08-06T11:17:42Z</time>
      </trkpt>
      <trkpt lat="49.13078" lon="3.94455">
        <ele>226.05</ele>
        <time>2017-08-06T11:17:50Z</time>
      </trkpt>
      <trkpt lat="49.13071" lon="3.94466">
        <ele>226.53</ele>
        <time>2017-08-06T11:17:58Z</time>
      </trkpt>
      <trkpt lat="49.13064" lon="3.94473">
        <ele>227.01</ele>
        <time>2017-08-06T11:18:04Z</time>
      </trkpt>
      <trkpt lat="49.13055" lon="3.94494">
        <ele>229.41</ele>
        <time>2017-08-06T11:18:20Z</time>
      </trkpt>
      <trkpt lat="49.13049" lon="3.94505">
        <ele>231.33</ele>
        <time>2017-08-06T11:18:32Z</time>
      </trkpt>
      <trkpt lat="49.13041" lon="3.94521">
        <ele>232.78</ele>
        <time>2017-08-06T11:18:45Z</time>
      </trkpt>
      <trkpt lat="49.13032" lon="3.94535">
        <ele>234.7</ele>
        <time>2017-08-06T11:18:58Z</time>
      </trkpt>
      <trkpt lat="49.13026" lon="3.94544">
        <ele>235.18</ele>
        <time>2017-08-06T11:19:05Z</time>
      </trkpt>
      <trkpt lat="49.13022" lon="3.94552">
        <ele>235.18</ele>
        <time>2017-08-06T11:19:12Z</time>
      </trkpt>
      <trkpt lat="49.13014" lon="3.94565">
        <ele>235.18</ele>
        <time>2017-08-06T11:19:24Z</time>
      </trkpt>
      <trkpt lat="49.13013" lon="3.94566">
        <ele>235.18</ele>
        <time>2017-08-06T11:19:25Z</time>
      </trkpt>
      <trkpt lat="49.13004" lon="3.94583">
        <ele>236.14</ele>
        <time>2017-08-06T11:19:39Z</time>
      </trkpt>
      <trkpt lat="49.12998" lon="3.94594">
        <ele>234.7</ele>
        <time>2017-08-06T11:19:51Z</time>
      </trkpt>
      <trkpt lat="49.12997" lon="3.94595">
        <ele>234.7</ele>
        <time>2017-08-06T11:19:52Z</time>
      </trkpt>
      <trkpt lat="49.12992" lon="3.94607">
        <ele>234.22</ele>
        <time>2017-08-06T11:20:03Z</time>
      </trkpt>
      <trkpt lat="49.12991" lon="3.9461">
        <ele>234.22</ele>
        <time>2017-08-06T11:20:06Z</time>
      </trkpt>
      <trkpt lat="49.12982" lon="3.94625">
        <ele>235.66</ele>
        <time>2017-08-06T11:20:14Z</time>
      </trkpt>
      <trkpt lat="49.12981" lon="3.94634">
        <ele>235.66</ele>
        <time>2017-08-06T11:20:17Z</time>
      </trkpt>
      <trkpt lat="49.12968" lon="3.94665">
        <ele>237.1</ele>
        <time>2017-08-06T11:20:30Z</time>
      </trkpt>
      <trkpt lat="49.12952" lon="3.94696">
        <ele>238.06</ele>
        <time>2017-08-06T11:20:45Z</time>
      </trkpt>
      <trkpt lat="49.12943" lon="3.94709">
        <ele>239.02</ele>
        <time>2017-08-06T11:20:52Z</time>
      </trkpt>
      <trkpt lat="49.12941" lon="3.94711">
        <ele>239.51</ele>
        <time>2017-08-06T11:20:53Z</time>
      </trkpt>
      <trkpt lat="49.1294" lon="3.94713">
        <ele>239.51</ele>
        <time>2017-08-06T11:20:54Z</time>
      </trkpt>
      <trkpt lat="49.12936" lon="3.94723">
        <ele>240.95</ele>
        <time>2017-08-06T11:21:00Z</time>
      </trkpt>
      <trkpt lat="49.12935" lon="3.94726">
        <ele>241.43</ele>
        <time>2017-08-06T11:21:01Z</time>
      </trkpt>
      <trkpt lat="49.12934" lon="3.94728">
        <ele>241.43</ele>
        <time>2017-08-06T11:21:02Z</time>
      </trkpt>
      <trkpt lat="49.12934" lon="3.9473">
        <ele>241.43</ele>
        <time>2017-08-06T11:21:03Z</time>
      </trkpt>
      <trkpt lat="49.12933" lon="3.94731">
        <ele>241.43</ele>
        <time>2017-08-06T11:21:04Z</time>
      </trkpt>
      <trkpt lat="49.12932" lon="3.94733">
        <ele>241.91</ele>
        <time>2017-08-06T11:21:05Z</time>
      </trkpt>
      <trkpt lat="49.12931" lon="3.94735">
        <ele>241.91</ele>
        <time>2017-08-06T11:21:06Z</time>
      </trkpt>
      <trkpt lat="49.12927" lon="3.9474">
        <ele>241.91</ele>
        <time>2017-08-06T11:21:09Z</time>
      </trkpt>
      <trkpt lat="49.12926" lon="3.94742">
        <ele>241.91</ele>
        <time>2017-08-06T11:21:10Z</time>
      </trkpt>
      <trkpt lat="49.12925" lon="3.94744">
        <ele>241.91</ele>
        <time>2017-08-06T11:21:11Z</time>
      </trkpt>
      <trkpt lat="49.1292" lon="3.94754">
        <ele>242.39</ele>
        <time>2017-08-06T11:21:22Z</time>
      </trkpt>
      <trkpt lat="49.12912" lon="3.94768">
        <ele>243.83</ele>
        <time>2017-08-06T11:21:36Z</time>
      </trkpt>
      <trkpt lat="49.12905" lon="3.9478">
        <ele>245.27</ele>
        <time>2017-08-06T11:21:46Z</time>
      </trkpt>
      <trkpt lat="49.12896" lon="3.94797">
        <ele>246.72</ele>
        <time>2017-08-06T11:21:59Z</time>
      </trkpt>
      <trkpt lat="49.12888" lon="3.94811">
        <ele>247.2</ele>
        <time>2017-08-06T11:22:11Z</time>
      </trkpt>
      <trkpt lat="49.12884" lon="3.94827">
        <ele>248.16</ele>
        <time>2017-08-06T11:22:24Z</time>
      </trkpt>
      <trkpt lat="49.1288" lon="3.94835">
        <ele>248.64</ele>
        <time>2017-08-06T11:22:34Z</time>
      </trkpt>
      <trkpt lat="49.12876" lon="3.94841">
        <ele>248.64</ele>
        <time>2017-08-06T11:22:47Z</time>
      </trkpt>
      <trkpt lat="49.12873" lon="3.94846">
        <ele>248.64</ele>
        <time>2017-08-06T11:23:07Z</time>
      </trkpt>
      <trkpt lat="49.12866" lon="3.94859">
        <ele>249.6</ele>
        <time>2017-08-06T11:23:22Z</time>
      </trkpt>
      <trkpt lat="49.12854" lon="3.94875">
        <ele>250.08</ele>
        <time>2017-08-06T11:23:31Z</time>
      </trkpt>
      <trkpt lat="49.12853" lon="3.94878">
        <ele>250.08</ele>
        <time>2017-08-06T11:23:32Z</time>
      </trkpt>
      <trkpt lat="49.12852" lon="3.9488">
        <ele>250.08</ele>
        <time>2017-08-06T11:23:33Z</time>
      </trkpt>
      <trkpt lat="49.1285" lon="3.94882">
        <ele>250.08</ele>
        <time>2017-08-06T11:23:34Z</time>
      </trkpt>
      <trkpt lat="49.12849" lon="3.94884">
        <ele>250.08</ele>
        <time>2017-08-06T11:23:35Z</time>
      </trkpt>
      <trkpt lat="49.12847" lon="3.94886">
        <ele>250.56</ele>
        <time>2017-08-06T11:23:36Z</time>
      </trkpt>
      <trkpt lat="49.12832" lon="3.94911">
        <ele>252</ele>
        <time>2017-08-06T11:23:49Z</time>
      </trkpt>
      <trkpt lat="49.1282" lon="3.94937">
        <ele>253.93</ele>
        <time>2017-08-06T11:24:03Z</time>
      </trkpt>
      <trkpt lat="49.12805" lon="3.94958">
        <ele>253.93</ele>
        <time>2017-08-06T11:24:13Z</time>
      </trkpt>
      <trkpt lat="49.12794" lon="3.94984">
        <ele>255.37</ele>
        <time>2017-08-06T11:24:25Z</time>
      </trkpt>
      <trkpt lat="49.12791" lon="3.94989">
        <ele>255.37</ele>
        <time>2017-08-06T11:24:27Z</time>
      </trkpt>
      <trkpt lat="49.12778" lon="3.95019">
        <ele>255.37</ele>
        <time>2017-08-06T11:24:37Z</time>
      </trkpt>
      <trkpt lat="49.12775" lon="3.95027">
        <ele>255.37</ele>
        <time>2017-08-06T11:24:40Z</time>
      </trkpt>
      <trkpt lat="49.12765" lon="3.95047">
        <ele>256.81</ele>
        <time>2017-08-06T11:24:49Z</time>
      </trkpt>
      <trkpt lat="49.12764" lon="3.95049">
        <ele>256.81</ele>
        <time>2017-08-06T11:24:50Z</time>
      </trkpt>
      <trkpt lat="49.12762" lon="3.95052">
        <ele>257.29</ele>
        <time>2017-08-06T11:24:51Z</time>
      </trkpt>
      <trkpt lat="49.12761" lon="3.95054">
        <ele>257.29</ele>
        <time>2017-08-06T11:24:52Z</time>
      </trkpt>
      <trkpt lat="49.1276" lon="3.95057">
        <ele>257.29</ele>
        <time>2017-08-06T11:24:53Z</time>
      </trkpt>
      <trkpt lat="49.12759" lon="3.9506">
        <ele>257.29</ele>
        <time>2017-08-06T11:24:54Z</time>
      </trkpt>
      <trkpt lat="49.12757" lon="3.95063">
        <ele>257.29</ele>
        <time>2017-08-06T11:24:55Z</time>
      </trkpt>
      <trkpt lat="49.12757" lon="3.95066">
        <ele>257.29</ele>
        <time>2017-08-06T11:24:56Z</time>
      </trkpt>
      <trkpt lat="49.12756" lon="3.9507">
        <ele>257.29</ele>
        <time>2017-08-06T11:24:57Z</time>
      </trkpt>
      <trkpt lat="49.12755" lon="3.95074">
        <ele>257.29</ele>
        <time>2017-08-06T11:24:58Z</time>
      </trkpt>
      <trkpt lat="49.12754" lon="3.95077">
        <ele>257.29</ele>
        <time>2017-08-06T11:24:59Z</time>
      </trkpt>
      <trkpt lat="49.12752" lon="3.9508">
        <ele>257.29</ele>
        <time>2017-08-06T11:25:00Z</time>
      </trkpt>
      <trkpt lat="49.1275" lon="3.95082">
        <ele>257.29</ele>
        <time>2017-08-06T11:25:01Z</time>
      </trkpt>
      <trkpt lat="49.12748" lon="3.95085">
        <ele>257.29</ele>
        <time>2017-08-06T11:25:02Z</time>
      </trkpt>
      <trkpt lat="49.12746" lon="3.95088">
        <ele>257.29</ele>
        <time>2017-08-06T11:25:03Z</time>
      </trkpt>
      <trkpt lat="49.12746" lon="3.9509">
        <ele>257.29</ele>
        <time>2017-08-06T11:25:04Z</time>
      </trkpt>
      <trkpt lat="49.12745" lon="3.95093">
        <ele>257.77</ele>
        <time>2017-08-06T11:25:05Z</time>
      </trkpt>
      <trkpt lat="49.12744" lon="3.95095">
        <ele>257.77</ele>
        <time>2017-08-06T11:25:06Z</time>
      </trkpt>
      <trkpt lat="49.12742" lon="3.95097">
        <ele>257.77</ele>
        <time>2017-08-06T11:25:07Z</time>
      </trkpt>
      <trkpt lat="49.12741" lon="3.951">
        <ele>257.77</ele>
        <time>2017-08-06T11:25:08Z</time>
      </trkpt>
      <trkpt lat="49.12739" lon="3.95103">
        <ele>257.77</ele>
        <time>2017-08-06T11:25:09Z</time>
      </trkpt>
      <trkpt lat="49.12738" lon="3.95107">
        <ele>257.77</ele>
        <time>2017-08-06T11:25:10Z</time>
      </trkpt>
      <trkpt lat="49.12736" lon="3.95111">
        <ele>257.77</ele>
        <time>2017-08-06T11:25:11Z</time>
      </trkpt>
      <trkpt lat="49.12734" lon="3.95116">
        <ele>257.77</ele>
        <time>2017-08-06T11:25:12Z</time>
      </trkpt>
      <trkpt lat="49.12733" lon="3.9512">
        <ele>257.77</ele>
        <time>2017-08-06T11:25:13Z</time>
      </trkpt>
      <trkpt lat="49.12718" lon="3.95161">
        <ele>259.69</ele>
        <time>2017-08-06T11:25:26Z</time>
      </trkpt>
      <trkpt lat="49.12708" lon="3.95203">
        <ele>261.62</ele>
        <time>2017-08-06T11:25:40Z</time>
      </trkpt>
      <trkpt lat="49.12703" lon="3.95221">
        <ele>263.54</ele>
        <time>2017-08-06T11:25:50Z</time>
      </trkpt>
      <trkpt lat="49.12701" lon="3.95234">
        <ele>264.02</ele>
        <time>2017-08-06T11:26:05Z</time>
      </trkpt>
      <trkpt lat="49.12701" lon="3.95235">
        <ele>264.02</ele>
        <time>2017-08-06T11:26:06Z</time>
      </trkpt>
      <trkpt lat="49.12702" lon="3.95237">
        <ele>264.02</ele>
        <time>2017-08-06T11:26:07Z</time>
      </trkpt>
      <trkpt lat="49.12701" lon="3.9524">
        <ele>264.02</ele>
        <time>2017-08-06T11:26:08Z</time>
      </trkpt>
      <trkpt lat="49.12701" lon="3.95242">
        <ele>264.02</ele>
        <time>2017-08-06T11:26:09Z</time>
      </trkpt>
      <trkpt lat="49.127" lon="3.95244">
        <ele>264.02</ele>
        <time>2017-08-06T11:26:10Z</time>
      </trkpt>
      <trkpt lat="49.12699" lon="3.95247">
        <ele>264.02</ele>
        <time>2017-08-06T11:26:11Z</time>
      </trkpt>
      <trkpt lat="49.12698" lon="3.95249">
        <ele>264.02</ele>
        <time>2017-08-06T11:26:12Z</time>
      </trkpt>
      <trkpt lat="49.12698" lon="3.95251">
        <ele>264.5</ele>
        <time>2017-08-06T11:26:13Z</time>
      </trkpt>
      <trkpt lat="49.12696" lon="3.95259">
        <ele>264.98</ele>
        <time>2017-08-06T11:26:16Z</time>
      </trkpt>
      <trkpt lat="49.12696" lon="3.95261">
        <ele>264.98</ele>
        <time>2017-08-06T11:26:17Z</time>
      </trkpt>
      <trkpt lat="49.12695" lon="3.95263">
        <ele>265.46</ele>
        <time>2017-08-06T11:26:18Z</time>
      </trkpt>
      <trkpt lat="49.12694" lon="3.95269">
        <ele>265.46</ele>
        <time>2017-08-06T11:26:21Z</time>
      </trkpt>
      <trkpt lat="49.12694" lon="3.95272">
        <ele>265.46</ele>
        <time>2017-08-06T11:26:22Z</time>
      </trkpt>
      <trkpt lat="49.12693" lon="3.95275">
        <ele>265.46</ele>
        <time>2017-08-06T11:26:23Z</time>
      </trkpt>
      <trkpt lat="49.12693" lon="3.95278">
        <ele>265.46</ele>
        <time>2017-08-06T11:26:24Z</time>
      </trkpt>
      <trkpt lat="49.12692" lon="3.95281">
        <ele>265.46</ele>
        <time>2017-08-06T11:26:25Z</time>
      </trkpt>
      <trkpt lat="49.12691" lon="3.95284">
        <ele>265.46</ele>
        <time>2017-08-06T11:26:26Z</time>
      </trkpt>
      <trkpt lat="49.12691" lon="3.95287">
        <ele>265.94</ele>
        <time>2017-08-06T11:26:27Z</time>
      </trkpt>
      <trkpt lat="49.12691" lon="3.95289">
        <ele>265.94</ele>
        <time>2017-08-06T11:26:28Z</time>
      </trkpt>
      <trkpt lat="49.12691" lon="3.95292">
        <ele>265.94</ele>
        <time>2017-08-06T11:26:29Z</time>
      </trkpt>
      <trkpt lat="49.12691" lon="3.95295">
        <ele>265.94</ele>
        <time>2017-08-06T11:26:30Z</time>
      </trkpt>
      <trkpt lat="49.12691" lon="3.95298">
        <ele>266.42</ele>
        <time>2017-08-06T11:26:31Z</time>
      </trkpt>
      <trkpt lat="49.12691" lon="3.95301">
        <ele>266.42</ele>
        <time>2017-08-06T11:26:32Z</time>
      </trkpt>
      <trkpt lat="49.12691" lon="3.95304">
        <ele>266.9</ele>
        <time>2017-08-06T11:26:33Z</time>
      </trkpt>
      <trkpt lat="49.12692" lon="3.95307">
        <ele>267.38</ele>
        <time>2017-08-06T11:26:34Z</time>
      </trkpt>
      <trkpt lat="49.12691" lon="3.9531">
        <ele>267.38</ele>
        <time>2017-08-06T11:26:35Z</time>
      </trkpt>
      <trkpt lat="49.12691" lon="3.95312">
        <ele>267.38</ele>
        <time>2017-08-06T11:26:36Z</time>
      </trkpt>
      <trkpt lat="49.12687" lon="3.9533">
        <ele>267.38</ele>
        <time>2017-08-06T11:26:44Z</time>
      </trkpt>
      <trkpt lat="49.12686" lon="3.95333">
        <ele>267.38</ele>
        <time>2017-08-06T11:26:45Z</time>
      </trkpt>
      <trkpt lat="49.12684" lon="3.95335">
        <ele>267.38</ele>
        <time>2017-08-06T11:26:46Z</time>
      </trkpt>
      <trkpt lat="49.12683" lon="3.95337">
        <ele>267.38</ele>
        <time>2017-08-06T11:26:47Z</time>
      </trkpt>
      <trkpt lat="49.12682" lon="3.9534">
        <ele>267.38</ele>
        <time>2017-08-06T11:26:48Z</time>
      </trkpt>
      <trkpt lat="49.12681" lon="3.95344">
        <ele>267.38</ele>
        <time>2017-08-06T11:26:49Z</time>
      </trkpt>
      <trkpt lat="49.12681" lon="3.95346">
        <ele>267.38</ele>
        <time>2017-08-06T11:26:50Z</time>
      </trkpt>
      <trkpt lat="49.1268" lon="3.95349">
        <ele>267.38</ele>
        <time>2017-08-06T11:26:51Z</time>
      </trkpt>
      <trkpt lat="49.1268" lon="3.95353">
        <ele>267.38</ele>
        <time>2017-08-06T11:26:52Z</time>
      </trkpt>
      <trkpt lat="49.12673" lon="3.95388">
        <ele>266.42</ele>
        <time>2017-08-06T11:27:02Z</time>
      </trkpt>
      <trkpt lat="49.1267" lon="3.95413">
        <ele>267.86</ele>
        <time>2017-08-06T11:27:09Z</time>
      </trkpt>
      <trkpt lat="49.12664" lon="3.95444">
        <ele>268.35</ele>
        <time>2017-08-06T11:27:20Z</time>
      </trkpt>
      <trkpt lat="49.12657" lon="3.95486">
        <ele>269.31</ele>
        <time>2017-08-06T11:27:31Z</time>
      </trkpt>
      <trkpt lat="49.12657" lon="3.9549">
        <ele>269.31</ele>
        <time>2017-08-06T11:27:32Z</time>
      </trkpt>
      <trkpt lat="49.12657" lon="3.95502">
        <ele>269.31</ele>
        <time>2017-08-06T11:27:35Z</time>
      </trkpt>
      <trkpt lat="49.12656" lon="3.95505">
        <ele>269.79</ele>
        <time>2017-08-06T11:27:36Z</time>
      </trkpt>
      <trkpt lat="49.12655" lon="3.95507">
        <ele>269.79</ele>
        <time>2017-08-06T11:27:37Z</time>
      </trkpt>
      <trkpt lat="49.12645" lon="3.95553">
        <ele>270.27</ele>
        <time>2017-08-06T11:27:48Z</time>
      </trkpt>
      <trkpt lat="49.12645" lon="3.95564">
        <ele>269.79</ele>
        <time>2017-08-06T11:27:50Z</time>
      </trkpt>
      <trkpt lat="49.12644" lon="3.95569">
        <ele>269.79</ele>
        <time>2017-08-06T11:27:51Z</time>
      </trkpt>
      <trkpt lat="49.12642" lon="3.95593">
        <ele>270.27</ele>
        <time>2017-08-06T11:27:57Z</time>
      </trkpt>
      <trkpt lat="49.12642" lon="3.95606">
        <ele>270.27</ele>
        <time>2017-08-06T11:28:00Z</time>
      </trkpt>
      <trkpt lat="49.12641" lon="3.9561">
        <ele>270.27</ele>
        <time>2017-08-06T11:28:01Z</time>
      </trkpt>
      <trkpt lat="49.1264" lon="3.95614">
        <ele>270.27</ele>
        <time>2017-08-06T11:28:02Z</time>
      </trkpt>
      <trkpt lat="49.12637" lon="3.95629">
        <ele>270.27</ele>
        <time>2017-08-06T11:28:05Z</time>
      </trkpt>
      <trkpt lat="49.12637" lon="3.95634">
        <ele>270.75</ele>
        <time>2017-08-06T11:28:06Z</time>
      </trkpt>
      <trkpt lat="49.12639" lon="3.95638">
        <ele>270.75</ele>
        <time>2017-08-06T11:28:07Z</time>
      </trkpt>
      <trkpt lat="49.1264" lon="3.95641">
        <ele>270.75</ele>
        <time>2017-08-06T11:28:08Z</time>
      </trkpt>
      <trkpt lat="49.12641" lon="3.95645">
        <ele>270.75</ele>
        <time>2017-08-06T11:28:09Z</time>
      </trkpt>
      <trkpt lat="49.12642" lon="3.95648">
        <ele>270.75</ele>
        <time>2017-08-06T11:28:10Z</time>
      </trkpt>
      <trkpt lat="49.12641" lon="3.95652">
        <ele>270.75</ele>
        <time>2017-08-06T11:28:11Z</time>
      </trkpt>
      <trkpt lat="49.12638" lon="3.95662">
        <ele>271.71</ele>
        <time>2017-08-06T11:28:21Z</time>
      </trkpt>
      <trkpt lat="49.1263" lon="3.95679">
        <ele>271.71</ele>
        <time>2017-08-06T11:28:30Z</time>
      </trkpt>
      <trkpt lat="49.12629" lon="3.95681">
        <ele>271.71</ele>
        <time>2017-08-06T11:28:31Z</time>
      </trkpt>
      <trkpt lat="49.12627" lon="3.95688">
        <ele>271.71</ele>
        <time>2017-08-06T11:28:41Z</time>
      </trkpt>
      <trkpt lat="49.12627" lon="3.95695">
        <ele>271.71</ele>
        <time>2017-08-06T11:28:53Z</time>
      </trkpt>
      <trkpt lat="49.12623" lon="3.95719">
        <ele>272.19</ele>
        <time>2017-08-06T11:29:06Z</time>
      </trkpt>
      <trkpt lat="49.12619" lon="3.95757">
        <ele>272.19</ele>
        <time>2017-08-06T11:29:17Z</time>
      </trkpt>
      <trkpt lat="49.12614" lon="3.95808">
        <ele>272.67</ele>
        <time>2017-08-06T11:29:30Z</time>
      </trkpt>
      <trkpt lat="49.12599" lon="3.95855">
        <ele>273.15</ele>
        <time>2017-08-06T11:29:43Z</time>
      </trkpt>
      <trkpt lat="49.1258" lon="3.95891">
        <ele>273.63</ele>
        <time>2017-08-06T11:29:54Z</time>
      </trkpt>
      <trkpt lat="49.12568" lon="3.95915">
        <ele>274.11</ele>
        <time>2017-08-06T11:30:01Z</time>
      </trkpt>
      <trkpt lat="49.12548" lon="3.95952">
        <ele>274.59</ele>
        <time>2017-08-06T11:30:13Z</time>
      </trkpt>
      <trkpt lat="49.1253" lon="3.95987">
        <ele>274.59</ele>
        <time>2017-08-06T11:30:24Z</time>
      </trkpt>
      <trkpt lat="49.12512" lon="3.96012">
        <ele>275.07</ele>
        <time>2017-08-06T11:30:33Z</time>
      </trkpt>
      <trkpt lat="49.12502" lon="3.96025">
        <ele>275.07</ele>
        <time>2017-08-06T11:30:44Z</time>
      </trkpt>
      <trkpt lat="49.12496" lon="3.96031">
        <ele>275.56</ele>
        <time>2017-08-06T11:31:18Z</time>
      </trkpt>
      <trkpt lat="49.12488" lon="3.96047">
        <ele>275.56</ele>
        <time>2017-08-06T11:31:35Z</time>
      </trkpt>
      <trkpt lat="49.12461" lon="3.96095">
        <ele>276.04</ele>
        <time>2017-08-06T11:31:51Z</time>
      </trkpt>
      <trkpt lat="49.12438" lon="3.96132">
        <ele>276.52</ele>
        <time>2017-08-06T11:32:05Z</time>
      </trkpt>
      <trkpt lat="49.12413" lon="3.9617">
        <ele>277</ele>
        <time>2017-08-06T11:32:18Z</time>
      </trkpt>
      <trkpt lat="49.124" lon="3.96195">
        <ele>277</ele>
        <time>2017-08-06T11:32:29Z</time>
      </trkpt>
      <trkpt lat="49.12396" lon="3.96201">
        <ele>277</ele>
        <time>2017-08-06T11:32:54Z</time>
      </trkpt>
      <trkpt lat="49.12395" lon="3.96202">
        <ele>277</ele>
        <time>2017-08-06T11:32:56Z</time>
      </trkpt>
      <trkpt lat="49.12391" lon="3.96209">
        <ele>277</ele>
        <time>2017-08-06T11:33:00Z</time>
      </trkpt>
      <trkpt lat="49.12363" lon="3.96245">
        <ele>277</ele>
        <time>2017-08-06T11:33:12Z</time>
      </trkpt>
      <trkpt lat="49.12335" lon="3.96298">
        <ele>277</ele>
        <time>2017-08-06T11:33:24Z</time>
      </trkpt>
      <trkpt lat="49.12321" lon="3.96344">
        <ele>277.48</ele>
        <time>2017-08-06T11:33:34Z</time>
      </trkpt>
      <trkpt lat="49.12299" lon="3.96412">
        <ele>277.96</ele>
        <time>2017-08-06T11:33:46Z</time>
      </trkpt>
      <trkpt lat="49.1229" lon="3.96447">
        <ele>278.44</ele>
        <time>2017-08-06T11:33:52Z</time>
      </trkpt>
      <trkpt lat="49.12275" lon="3.96512">
        <ele>278.92</ele>
        <time>2017-08-06T11:34:03Z</time>
      </trkpt>
      <trkpt lat="49.12259" lon="3.96588">
        <ele>279.4</ele>
        <time>2017-08-06T11:34:16Z</time>
      </trkpt>
      <trkpt lat="49.12246" lon="3.96644">
        <ele>279.4</ele>
        <time>2017-08-06T11:34:26Z</time>
      </trkpt>
      <trkpt lat="49.12235" lon="3.967">
        <ele>279.88</ele>
        <time>2017-08-06T11:34:37Z</time>
      </trkpt>
      <trkpt lat="49.12225" lon="3.9676">
        <ele>280.36</ele>
        <time>2017-08-06T11:34:48Z</time>
      </trkpt>
      <trkpt lat="49.12227" lon="3.96808">
        <ele>281.32</ele>
        <time>2017-08-06T11:34:58Z</time>
      </trkpt>
      <trkpt lat="49.12229" lon="3.96858">
        <ele>282.28</ele>
        <time>2017-08-06T11:35:09Z</time>
      </trkpt>
      <trkpt lat="49.1223" lon="3.96877">
        <ele>282.77</ele>
        <time>2017-08-06T11:35:13Z</time>
      </trkpt>
      <trkpt lat="49.12233" lon="3.96903">
        <ele>282.77</ele>
        <time>2017-08-06T11:35:18Z</time>
      </trkpt>
      <trkpt lat="49.12239" lon="3.96966">
        <ele>282.77</ele>
        <time>2017-08-06T11:35:29Z</time>
      </trkpt>
      <trkpt lat="49.12251" lon="3.97036">
        <ele>282.77</ele>
        <time>2017-08-06T11:35:40Z</time>
      </trkpt>
      <trkpt lat="49.12257" lon="3.97077">
        <ele>281.32</ele>
        <time>2017-08-06T11:35:46Z</time>
      </trkpt>
      <trkpt lat="49.1226" lon="3.97112">
        <ele>280.84</ele>
        <time>2017-08-06T11:35:51Z</time>
      </trkpt>
      <trkpt lat="49.12263" lon="3.97168">
        <ele>279.88</ele>
        <time>2017-08-06T11:36:00Z</time>
      </trkpt>
      <trkpt lat="49.12265" lon="3.97181">
        <ele>279.4</ele>
        <time>2017-08-06T11:36:02Z</time>
      </trkpt>
      <trkpt lat="49.12269" lon="3.97209">
        <ele>278.92</ele>
        <time>2017-08-06T11:36:06Z</time>
      </trkpt>
      <trkpt lat="49.12272" lon="3.97236">
        <ele>278.44</ele>
        <time>2017-08-06T11:36:10Z</time>
      </trkpt>
      <trkpt lat="49.12277" lon="3.9726">
        <ele>277.96</ele>
        <time>2017-08-06T11:36:14Z</time>
      </trkpt>
      <trkpt lat="49.12284" lon="3.97305">
        <ele>276.52</ele>
        <time>2017-08-06T11:36:21Z</time>
      </trkpt>
      <trkpt lat="49.12279" lon="3.97365">
        <ele>275.07</ele>
        <time>2017-08-06T11:36:32Z</time>
      </trkpt>
      <trkpt lat="49.1227" lon="3.97398">
        <ele>274.59</ele>
        <time>2017-08-06T11:36:38Z</time>
      </trkpt>
      <trkpt lat="49.12264" lon="3.97428">
        <ele>274.11</ele>
        <time>2017-08-06T11:36:44Z</time>
      </trkpt>
      <trkpt lat="49.12259" lon="3.97453">
        <ele>273.15</ele>
        <time>2017-08-06T11:36:50Z</time>
      </trkpt>
      <trkpt lat="49.12257" lon="3.97482">
        <ele>272.67</ele>
        <time>2017-08-06T11:37:00Z</time>
      </trkpt>
      <trkpt lat="49.12256" lon="3.97486">
        <ele>272.67</ele>
        <time>2017-08-06T11:37:01Z</time>
      </trkpt>
      <trkpt lat="49.12253" lon="3.97499">
        <ele>272.67</ele>
        <time>2017-08-06T11:37:05Z</time>
      </trkpt>
      <trkpt lat="49.12242" lon="3.97544">
        <ele>272.67</ele>
        <time>2017-08-06T11:37:15Z</time>
      </trkpt>
      <trkpt lat="49.12241" lon="3.97547">
        <ele>272.67</ele>
        <time>2017-08-06T11:37:16Z</time>
      </trkpt>
      <trkpt lat="49.12239" lon="3.97556">
        <ele>274.11</ele>
        <time>2017-08-06T11:37:19Z</time>
      </trkpt>
      <trkpt lat="49.12234" lon="3.97569">
        <ele>274.59</ele>
        <time>2017-08-06T11:37:23Z</time>
      </trkpt>
      <trkpt lat="49.12229" lon="3.97595">
        <ele>275.07</ele>
        <time>2017-08-06T11:37:31Z</time>
      </trkpt>
      <trkpt lat="49.12223" lon="3.97611">
        <ele>275.56</ele>
        <time>2017-08-06T11:37:36Z</time>
      </trkpt>
      <trkpt lat="49.12214" lon="3.97652">
        <ele>275.56</ele>
        <time>2017-08-06T11:37:47Z</time>
      </trkpt>
      <trkpt lat="49.122" lon="3.97714">
        <ele>275.56</ele>
        <time>2017-08-06T11:38:00Z</time>
      </trkpt>
      <trkpt lat="49.12197" lon="3.97729">
        <ele>275.56</ele>
        <time>2017-08-06T11:38:03Z</time>
      </trkpt>
      <trkpt lat="49.12176" lon="3.97808">
        <ele>273.15</ele>
        <time>2017-08-06T11:38:13Z</time>
      </trkpt>
      <trkpt lat="49.12164" lon="3.97853">
        <ele>271.71</ele>
        <time>2017-08-06T11:38:18Z</time>
      </trkpt>
      <trkpt lat="49.1216" lon="3.97867">
        <ele>271.71</ele>
        <time>2017-08-06T11:38:20Z</time>
      </trkpt>
      <trkpt lat="49.12143" lon="3.97936">
        <ele>271.23</ele>
        <time>2017-08-06T11:38:32Z</time>
      </trkpt>
      <trkpt lat="49.12135" lon="3.97954">
        <ele>271.23</ele>
        <time>2017-08-06T11:38:37Z</time>
      </trkpt>
      <trkpt lat="49.12133" lon="3.97962">
        <ele>271.23</ele>
        <time>2017-08-06T11:38:41Z</time>
      </trkpt>
      <trkpt lat="49.12127" lon="3.97974">
        <ele>273.15</ele>
        <time>2017-08-06T11:38:45Z</time>
      </trkpt>
      <trkpt lat="49.12115" lon="3.98012">
        <ele>273.63</ele>
        <time>2017-08-06T11:38:54Z</time>
      </trkpt>
      <trkpt lat="49.12107" lon="3.9804">
        <ele>274.11</ele>
        <time>2017-08-06T11:39:02Z</time>
      </trkpt>
      <trkpt lat="49.12104" lon="3.98052">
        <ele>274.59</ele>
        <time>2017-08-06T11:39:06Z</time>
      </trkpt>
      <trkpt lat="49.12103" lon="3.9806">
        <ele>275.07</ele>
        <time>2017-08-06T11:39:09Z</time>
      </trkpt>
      <trkpt lat="49.12099" lon="3.98077">
        <ele>276.04</ele>
        <time>2017-08-06T11:39:16Z</time>
      </trkpt>
      <trkpt lat="49.12091" lon="3.98101">
        <ele>277.48</ele>
        <time>2017-08-06T11:39:26Z</time>
      </trkpt>
      <trkpt lat="49.12077" lon="3.98129">
        <ele>277.48</ele>
        <time>2017-08-06T11:39:37Z</time>
      </trkpt>
      <trkpt lat="49.12059" lon="3.98162">
        <ele>278.92</ele>
        <time>2017-08-06T11:39:50Z</time>
      </trkpt>
      <trkpt lat="49.12042" lon="3.98196">
        <ele>279.88</ele>
        <time>2017-08-06T11:40:03Z</time>
      </trkpt>
      <trkpt lat="49.12034" lon="3.98222">
        <ele>280.84</ele>
        <time>2017-08-06T11:40:11Z</time>
      </trkpt>
      <trkpt lat="49.1204" lon="3.98235">
        <ele>280.84</ele>
        <time>2017-08-06T11:40:16Z</time>
      </trkpt>
      <trkpt lat="49.12035" lon="3.98257">
        <ele>281.32</ele>
        <time>2017-08-06T11:40:26Z</time>
      </trkpt>
      <trkpt lat="49.12029" lon="3.98274">
        <ele>280.84</ele>
        <time>2017-08-06T11:40:32Z</time>
      </trkpt>
      <trkpt lat="49.12019" lon="3.98307">
        <ele>281.8</ele>
        <time>2017-08-06T11:40:41Z</time>
      </trkpt>
      <trkpt lat="49.12024" lon="3.98319">
        <ele>281.8</ele>
        <time>2017-08-06T11:40:45Z</time>
      </trkpt>
      <trkpt lat="49.12034" lon="3.98323">
        <ele>281.8</ele>
        <time>2017-08-06T11:40:56Z</time>
      </trkpt>
      <trkpt lat="49.1203" lon="3.98325">
        <ele>281.8</ele>
        <time>2017-08-06T11:41:07Z</time>
      </trkpt>
      <trkpt lat="49.12016" lon="3.98323">
        <ele>281.8</ele>
        <time>2017-08-06T11:41:20Z</time>
      </trkpt>
      <trkpt lat="49.1201" lon="3.98324">
        <ele>281.8</ele>
        <time>2017-08-06T11:41:32Z</time>
      </trkpt>
      <trkpt lat="49.12007" lon="3.98326">
        <ele>281.8</ele>
        <time>2017-08-06T11:41:49Z</time>
      </trkpt>
      <trkpt lat="49.12009" lon="3.98325">
        <ele>281.8</ele>
        <time>2017-08-06T11:42:04Z</time>
      </trkpt>
      <trkpt lat="49.12009" lon="3.98324">
        <ele>281.8</ele>
        <time>2017-08-06T11:42:15Z</time>
      </trkpt>
      <trkpt lat="49.12005" lon="3.98334">
        <ele>282.28</ele>
        <time>2017-08-06T11:42:27Z</time>
      </trkpt>
      <trkpt lat="49.12003" lon="3.9834">
        <ele>282.28</ele>
        <time>2017-08-06T11:43:03Z</time>
      </trkpt>
      <trkpt lat="49.12003" lon="3.98336">
        <ele>282.28</ele>
        <time>2017-08-06T11:43:36Z</time>
      </trkpt>
      <trkpt lat="49.12002" lon="3.98338">
        <ele>282.28</ele>
        <time>2017-08-06T11:44:02Z</time>
      </trkpt>
      <trkpt lat="49.12003" lon="3.98336">
        <ele>282.77</ele>
        <time>2017-08-06T11:44:34Z</time>
      </trkpt>
      <trkpt lat="49.12" lon="3.98341">
        <ele>282.77</ele>
        <time>2017-08-06T11:45:02Z</time>
      </trkpt>
      <trkpt lat="49.12003" lon="3.98339">
        <ele>282.77</ele>
        <time>2017-08-06T11:45:31Z</time>
      </trkpt>
      <trkpt lat="49.12005" lon="3.98342">
        <ele>283.25</ele>
        <time>2017-08-06T11:46:06Z</time>
      </trkpt>
      <trkpt lat="49.12008" lon="3.98336">
        <ele>283.25</ele>
        <time>2017-08-06T11:46:34Z</time>
      </trkpt>
      <trkpt lat="49.12007" lon="3.98342">
        <ele>283.73</ele>
        <time>2017-08-06T11:47:07Z</time>
      </trkpt>
      <trkpt lat="49.12004" lon="3.98347">
        <ele>284.21</ele>
        <time>2017-08-06T11:47:39Z</time>
      </trkpt>
      <trkpt lat="49.12003" lon="3.98343">
        <ele>284.21</ele>
        <time>2017-08-06T11:48:02Z</time>
      </trkpt>
      <trkpt lat="49.12004" lon="3.9834">
        <ele>284.21</ele>
        <time>2017-08-06T11:48:31Z</time>
      </trkpt>
      <trkpt lat="49.12004" lon="3.98337">
        <ele>284.21</ele>
        <time>2017-08-06T11:48:57Z</time>
      </trkpt>
      <trkpt lat="49.12005" lon="3.98337">
        <ele>284.69</ele>
        <time>2017-08-06T11:49:22Z</time>
      </trkpt>
      <trkpt lat="49.12004" lon="3.9834">
        <ele>284.69</ele>
        <time>2017-08-06T11:49:51Z</time>
      </trkpt>
      <trkpt lat="49.12005" lon="3.98341">
        <ele>284.69</ele>
        <time>2017-08-06T11:50:27Z</time>
      </trkpt>
      <trkpt lat="49.12007" lon="3.98345">
        <ele>284.69</ele>
        <time>2017-08-06T11:50:55Z</time>
      </trkpt>
      <trkpt lat="49.12007" lon="3.98341">
        <ele>284.69</ele>
        <time>2017-08-06T11:51:32Z</time>
      </trkpt>
      <trkpt lat="49.12009" lon="3.98345">
        <ele>285.17</ele>
        <time>2017-08-06T11:51:59Z</time>
      </trkpt>
      <trkpt lat="49.1201" lon="3.98343">
        <ele>285.17</ele>
        <time>2017-08-06T11:52:31Z</time>
      </trkpt>
      <trkpt lat="49.12008" lon="3.98344">
        <ele>285.17</ele>
        <time>2017-08-06T11:53:06Z</time>
      </trkpt>
      <trkpt lat="49.12005" lon="3.98344">
        <ele>285.65</ele>
        <time>2017-08-06T11:53:47Z</time>
      </trkpt>
      <trkpt lat="49.12004" lon="3.98349">
        <ele>285.65</ele>
        <time>2017-08-06T11:54:30Z</time>
      </trkpt>
      <trkpt lat="49.12003" lon="3.98343">
        <ele>285.65</ele>
        <time>2017-08-06T11:55:00Z</time>
      </trkpt>
      <trkpt lat="49.12002" lon="3.98345">
        <ele>286.13</ele>
        <time>2017-08-06T11:55:38Z</time>
      </trkpt>
      <trkpt lat="49.12005" lon="3.98348">
        <ele>286.13</ele>
        <time>2017-08-06T11:56:12Z</time>
      </trkpt>
      <trkpt lat="49.12005" lon="3.98342">
        <ele>286.13</ele>
        <time>2017-08-06T11:56:51Z</time>
      </trkpt>
      <trkpt lat="49.12001" lon="3.98347">
        <ele>286.13</ele>
        <time>2017-08-06T11:57:19Z</time>
      </trkpt>
      <trkpt lat="49.12006" lon="3.98339">
        <ele>286.13</ele>
        <time>2017-08-06T11:57:56Z</time>
      </trkpt>
      <trkpt lat="49.12005" lon="3.98341">
        <ele>286.13</ele>
        <time>2017-08-06T11:58:36Z</time>
      </trkpt>
      <trkpt lat="49.12006" lon="3.98336">
        <ele>286.13</ele>
        <time>2017-08-06T11:59:16Z</time>
      </trkpt>
      <trkpt lat="49.12008" lon="3.98342">
        <ele>286.13</ele>
        <time>2017-08-06T11:59:59Z</time>
      </trkpt>
      <trkpt lat="49.12004" lon="3.98346">
        <ele>286.13</ele>
        <time>2017-08-06T12:00:38Z</time>
      </trkpt>
      <trkpt lat="49.12004" lon="3.98345">
        <ele>285.65</ele>
        <time>2017-08-06T12:01:14Z</time>
      </trkpt>
      <trkpt lat="49.12005" lon="3.98351">
        <ele>286.13</ele>
        <time>2017-08-06T12:01:32Z</time>
      </trkpt>
      <trkpt lat="49.12007" lon="3.98348">
        <ele>286.13</ele>
        <time>2017-08-06T12:01:41Z</time>
      </trkpt>
      <trkpt lat="49.12005" lon="3.9839">
        <ele>286.61</ele>
        <time>2017-08-06T12:01:54Z</time>
      </trkpt>
      <trkpt lat="49.11999" lon="3.98441">
        <ele>287.09</ele>
        <time>2017-08-06T12:02:07Z</time>
      </trkpt>
      <trkpt lat="49.11995" lon="3.985">
        <ele>288.53</ele>
        <time>2017-08-06T12:02:23Z</time>
      </trkpt>
      <trkpt lat="49.12003" lon="3.98553">
        <ele>289.01</ele>
        <time>2017-08-06T12:02:37Z</time>
      </trkpt>
      <trkpt lat="49.12002" lon="3.98566">
        <ele>289.97</ele>
        <time>2017-08-06T12:02:41Z</time>
      </trkpt>
      <trkpt lat="49.11978" lon="3.98587">
        <ele>289.97</ele>
        <time>2017-08-06T12:02:53Z</time>
      </trkpt>
      <trkpt lat="49.11943" lon="3.98602">
        <ele>290.46</ele>
        <time>2017-08-06T12:03:04Z</time>
      </trkpt>
      <trkpt lat="49.11904" lon="3.98606">
        <ele>289.97</ele>
        <time>2017-08-06T12:03:16Z</time>
      </trkpt>
      <trkpt lat="49.11885" lon="3.98613">
        <ele>289.97</ele>
        <time>2017-08-06T12:03:22Z</time>
      </trkpt>
      <trkpt lat="49.11875" lon="3.98597">
        <ele>289.97</ele>
        <time>2017-08-06T12:03:30Z</time>
      </trkpt>
      <trkpt lat="49.11874" lon="3.98553">
        <ele>289.97</ele>
        <time>2017-08-06T12:03:39Z</time>
      </trkpt>
      <trkpt lat="49.11855" lon="3.98535">
        <ele>289.97</ele>
        <time>2017-08-06T12:03:47Z</time>
      </trkpt>
      <trkpt lat="49.11851" lon="3.98524">
        <ele>289.97</ele>
        <time>2017-08-06T12:03:51Z</time>
      </trkpt>
      <trkpt lat="49.1185" lon="3.98508">
        <ele>289.97</ele>
        <time>2017-08-06T12:03:55Z</time>
      </trkpt>
      <trkpt lat="49.11849" lon="3.98499">
        <ele>289.97</ele>
        <time>2017-08-06T12:03:59Z</time>
      </trkpt>
      <trkpt lat="49.11849" lon="3.9849">
        <ele>289.97</ele>
        <time>2017-08-06T12:04:02Z</time>
      </trkpt>
      <trkpt lat="49.11848" lon="3.98475">
        <ele>289.01</ele>
        <time>2017-08-06T12:04:06Z</time>
      </trkpt>
      <trkpt lat="49.11847" lon="3.98437">
        <ele>288.05</ele>
        <time>2017-08-06T12:04:16Z</time>
      </trkpt>
      <trkpt lat="49.11847" lon="3.98425">
        <ele>288.05</ele>
        <time>2017-08-06T12:04:29Z</time>
      </trkpt>
      <trkpt lat="49.11847" lon="3.98412">
        <ele>288.05</ele>
        <time>2017-08-06T12:04:37Z</time>
      </trkpt>
      <trkpt lat="49.11833" lon="3.98392">
        <ele>288.05</ele>
        <time>2017-08-06T12:04:44Z</time>
      </trkpt>
      <trkpt lat="49.11803" lon="3.98354">
        <ele>287.57</ele>
        <time>2017-08-06T12:04:57Z</time>
      </trkpt>
      <trkpt lat="49.1178" lon="3.98327">
        <ele>287.57</ele>
        <time>2017-08-06T12:05:06Z</time>
      </trkpt>
      <trkpt lat="49.11773" lon="3.98322">
        <ele>287.57</ele>
        <time>2017-08-06T12:05:17Z</time>
      </trkpt>
      <trkpt lat="49.11761" lon="3.98306">
        <ele>287.57</ele>
        <time>2017-08-06T12:05:32Z</time>
      </trkpt>
      <trkpt lat="49.11747" lon="3.98288">
        <ele>287.09</ele>
        <time>2017-08-06T12:05:44Z</time>
      </trkpt>
      <trkpt lat="49.1172" lon="3.98259">
        <ele>287.09</ele>
        <time>2017-08-06T12:05:54Z</time>
      </trkpt>
      <trkpt lat="49.11692" lon="3.98221">
        <ele>287.09</ele>
        <time>2017-08-06T12:06:05Z</time>
      </trkpt>
      <trkpt lat="49.11684" lon="3.982">
        <ele>286.61</ele>
        <time>2017-08-06T12:06:09Z</time>
      </trkpt>
      <trkpt lat="49.11675" lon="3.98189">
        <ele>286.61</ele>
        <time>2017-08-06T12:06:13Z</time>
      </trkpt>
      <trkpt lat="49.11657" lon="3.98166">
        <ele>286.61</ele>
        <time>2017-08-06T12:06:25Z</time>
      </trkpt>
      <trkpt lat="49.11658" lon="3.98157">
        <ele>286.61</ele>
        <time>2017-08-06T12:06:37Z</time>
      </trkpt>
      <trkpt lat="49.11663" lon="3.98161">
        <ele>286.61</ele>
        <time>2017-08-06T12:06:44Z</time>
      </trkpt>
      <trkpt lat="49.11667" lon="3.98157">
        <ele>286.61</ele>
        <time>2017-08-06T12:06:49Z</time>
      </trkpt>
      <trkpt lat="49.11674" lon="3.98143">
        <ele>286.61</ele>
        <time>2017-08-06T12:07:02Z</time>
      </trkpt>
      <trkpt lat="49.11674" lon="3.98142">
        <ele>286.61</ele>
        <time>2017-08-06T12:07:06Z</time>
      </trkpt>
      <trkpt lat="49.11675" lon="3.98133">
        <ele>286.61</ele>
        <time>2017-08-06T12:07:10Z</time>
      </trkpt>
      <trkpt lat="49.11681" lon="3.98114">
        <ele>286.61</ele>
        <time>2017-08-06T12:07:18Z</time>
      </trkpt>
      <trkpt lat="49.1169" lon="3.98081">
        <ele>286.13</ele>
        <time>2017-08-06T12:07:31Z</time>
      </trkpt>
      <trkpt lat="49.11694" lon="3.98072">
        <ele>286.13</ele>
        <time>2017-08-06T12:07:40Z</time>
      </trkpt>
      <trkpt lat="49.11698" lon="3.98061">
        <ele>285.65</ele>
        <time>2017-08-06T12:07:48Z</time>
      </trkpt>
      <trkpt lat="49.11703" lon="3.98048">
        <ele>285.65</ele>
        <time>2017-08-06T12:08:02Z</time>
      </trkpt>
      <trkpt lat="49.11708" lon="3.98036">
        <ele>285.17</ele>
        <time>2017-08-06T12:08:14Z</time>
      </trkpt>
      <trkpt lat="49.11712" lon="3.98002">
        <ele>284.69</ele>
        <time>2017-08-06T12:08:25Z</time>
      </trkpt>
      <trkpt lat="49.11723" lon="3.97957">
        <ele>284.21</ele>
        <time>2017-08-06T12:08:39Z</time>
      </trkpt>
      <trkpt lat="49.11731" lon="3.97911">
        <ele>283.73</ele>
        <time>2017-08-06T12:08:52Z</time>
      </trkpt>
      <trkpt lat="49.11741" lon="3.97857">
        <ele>283.73</ele>
        <time>2017-08-06T12:09:06Z</time>
      </trkpt>
      <trkpt lat="49.11748" lon="3.97809">
        <ele>283.73</ele>
        <time>2017-08-06T12:09:18Z</time>
      </trkpt>
      <trkpt lat="49.11756" lon="3.9779">
        <ele>283.73</ele>
        <time>2017-08-06T12:09:24Z</time>
      </trkpt>
      <trkpt lat="49.11773" lon="3.97697">
        <ele>283.25</ele>
        <time>2017-08-06T12:09:42Z</time>
      </trkpt>
      <trkpt lat="49.11787" lon="3.97628">
        <ele>283.25</ele>
        <time>2017-08-06T12:09:55Z</time>
      </trkpt>
      <trkpt lat="49.118" lon="3.97559">
        <ele>284.69</ele>
        <time>2017-08-06T12:10:11Z</time>
      </trkpt>
      <trkpt lat="49.11812" lon="3.97493">
        <ele>286.13</ele>
        <time>2017-08-06T12:10:26Z</time>
      </trkpt>
      <trkpt lat="49.11826" lon="3.97417">
        <ele>286.61</ele>
        <time>2017-08-06T12:10:44Z</time>
      </trkpt>
      <trkpt lat="49.11837" lon="3.97354">
        <ele>287.57</ele>
        <time>2017-08-06T12:10:59Z</time>
      </trkpt>
      <trkpt lat="49.11836" lon="3.97286">
        <ele>288.53</ele>
        <time>2017-08-06T12:11:13Z</time>
      </trkpt>
      <trkpt lat="49.11807" lon="3.97221">
        <ele>288.53</ele>
        <time>2017-08-06T12:11:27Z</time>
      </trkpt>
      <trkpt lat="49.1177" lon="3.97145">
        <ele>289.01</ele>
        <time>2017-08-06T12:11:43Z</time>
      </trkpt>
      <trkpt lat="49.11755" lon="3.97114">
        <ele>289.49</ele>
        <time>2017-08-06T12:11:49Z</time>
      </trkpt>
      <trkpt lat="49.11739" lon="3.9708">
        <ele>289.49</ele>
        <time>2017-08-06T12:11:55Z</time>
      </trkpt>
      <trkpt lat="49.11717" lon="3.97001">
        <ele>289.01</ele>
        <time>2017-08-06T12:12:09Z</time>
      </trkpt>
      <trkpt lat="49.11694" lon="3.96935">
        <ele>289.01</ele>
        <time>2017-08-06T12:12:22Z</time>
      </trkpt>
      <trkpt lat="49.11679" lon="3.96932">
        <ele>289.01</ele>
        <time>2017-08-06T12:12:26Z</time>
      </trkpt>
      <trkpt lat="49.11617" lon="3.96923">
        <ele>289.97</ele>
        <time>2017-08-06T12:12:42Z</time>
      </trkpt>
      <trkpt lat="49.11586" lon="3.96917">
        <ele>289.97</ele>
        <time>2017-08-06T12:12:50Z</time>
      </trkpt>
      <trkpt lat="49.11504" lon="3.96902">
        <ele>288.05</ele>
        <time>2017-08-06T12:13:07Z</time>
      </trkpt>
      <trkpt lat="49.11414" lon="3.96886">
        <ele>286.61</ele>
        <time>2017-08-06T12:13:23Z</time>
      </trkpt>
      <trkpt lat="49.1132" lon="3.9687">
        <ele>285.65</ele>
        <time>2017-08-06T12:13:40Z</time>
      </trkpt>
      <trkpt lat="49.11236" lon="3.96855">
        <ele>285.17</ele>
        <time>2017-08-06T12:13:55Z</time>
      </trkpt>
      <trkpt lat="49.11152" lon="3.96842">
        <ele>284.21</ele>
        <time>2017-08-06T12:14:10Z</time>
      </trkpt>
      <trkpt lat="49.11114" lon="3.96835">
        <ele>283.73</ele>
        <time>2017-08-06T12:14:17Z</time>
      </trkpt>
      <trkpt lat="49.1103" lon="3.96819">
        <ele>283.73</ele>
        <time>2017-08-06T12:14:33Z</time>
      </trkpt>
      <trkpt lat="49.10953" lon="3.96807">
        <ele>283.25</ele>
        <time>2017-08-06T12:14:50Z</time>
      </trkpt>
      <trkpt lat="49.10898" lon="3.96801">
        <ele>285.17</ele>
        <time>2017-08-06T12:15:05Z</time>
      </trkpt>
      <trkpt lat="49.1084" lon="3.96796">
        <ele>286.61</ele>
        <time>2017-08-06T12:15:23Z</time>
      </trkpt>
      <trkpt lat="49.10784" lon="3.96791">
        <ele>287.09</ele>
        <time>2017-08-06T12:15:40Z</time>
      </trkpt>
      <trkpt lat="49.10778" lon="3.96789">
        <ele>287.57</ele>
        <time>2017-08-06T12:15:42Z</time>
      </trkpt>
      <trkpt lat="49.10777" lon="3.96772">
        <ele>287.57</ele>
        <time>2017-08-06T12:15:49Z</time>
      </trkpt>
      <trkpt lat="49.10789" lon="3.96751">
        <ele>287.57</ele>
        <time>2017-08-06T12:15:58Z</time>
      </trkpt>
      <trkpt lat="49.10791" lon="3.96747">
        <ele>287.57</ele>
        <time>2017-08-06T12:16:09Z</time>
      </trkpt>
      <trkpt lat="49.1079" lon="3.96748">
        <ele>287.57</ele>
        <time>2017-08-06T12:16:12Z</time>
      </trkpt>
      <trkpt lat="49.10784" lon="3.96756">
        <ele>287.57</ele>
        <time>2017-08-06T12:16:16Z</time>
      </trkpt>
      <trkpt lat="49.10776" lon="3.9677">
        <ele>287.57</ele>
        <time>2017-08-06T12:16:20Z</time>
      </trkpt>
      <trkpt lat="49.10766" lon="3.96766">
        <ele>287.57</ele>
        <time>2017-08-06T12:16:26Z</time>
      </trkpt>
      <trkpt lat="49.1077" lon="3.96722">
        <ele>287.57</ele>
        <time>2017-08-06T12:16:39Z</time>
      </trkpt>
      <trkpt lat="49.10771" lon="3.96716">
        <ele>287.09</ele>
        <time>2017-08-06T12:16:48Z</time>
      </trkpt>
      <trkpt lat="49.1077" lon="3.96716">
        <ele>287.09</ele>
        <time>2017-08-06T12:16:51Z</time>
      </trkpt>
      <trkpt lat="49.1077" lon="3.96718">
        <ele>287.09</ele>
        <time>2017-08-06T12:16:52Z</time>
      </trkpt>
      <trkpt lat="49.1077" lon="3.96721">
        <ele>286.13</ele>
        <time>2017-08-06T12:16:59Z</time>
      </trkpt>
      <trkpt lat="49.10769" lon="3.9672">
        <ele>285.65</ele>
        <time>2017-08-06T12:17:37Z</time>
      </trkpt>
      <trkpt lat="49.10769" lon="3.96717">
        <ele>285.17</ele>
        <time>2017-08-06T12:18:12Z</time>
      </trkpt>
      <trkpt lat="49.10766" lon="3.96719">
        <ele>285.17</ele>
        <time>2017-08-06T12:18:49Z</time>
      </trkpt>
      <trkpt lat="49.10769" lon="3.9672">
        <ele>285.17</ele>
        <time>2017-08-06T12:19:30Z</time>
      </trkpt>
      <trkpt lat="49.10769" lon="3.96721">
        <ele>284.69</ele>
        <time>2017-08-06T12:20:19Z</time>
      </trkpt>
      <trkpt lat="49.1077" lon="3.96723">
        <ele>284.69</ele>
        <time>2017-08-06T12:20:56Z</time>
      </trkpt>
      <trkpt lat="49.1077" lon="3.96725">
        <ele>286.13</ele>
        <time>2017-08-06T12:21:09Z</time>
      </trkpt>
      <trkpt lat="49.1077" lon="3.96727">
        <ele>286.13</ele>
        <time>2017-08-06T12:21:14Z</time>
      </trkpt>
      <trkpt lat="49.1077" lon="3.9673">
        <ele>286.13</ele>
        <time>2017-08-06T12:21:15Z</time>
      </trkpt>
      <trkpt lat="49.1077" lon="3.96733">
        <ele>286.13</ele>
        <time>2017-08-06T12:21:16Z</time>
      </trkpt>
      <trkpt lat="49.10769" lon="3.96736">
        <ele>286.13</ele>
        <time>2017-08-06T12:21:17Z</time>
      </trkpt>
      <trkpt lat="49.10769" lon="3.96739">
        <ele>286.13</ele>
        <time>2017-08-06T12:21:18Z</time>
      </trkpt>
      <trkpt lat="49.10769" lon="3.96741">
        <ele>286.61</ele>
        <time>2017-08-06T12:21:19Z</time>
      </trkpt>
      <trkpt lat="49.10769" lon="3.96744">
        <ele>286.61</ele>
        <time>2017-08-06T12:21:20Z</time>
      </trkpt>
      <trkpt lat="49.10768" lon="3.96746">
        <ele>286.61</ele>
        <time>2017-08-06T12:21:21Z</time>
      </trkpt>
      <trkpt lat="49.10768" lon="3.96749">
        <ele>286.61</ele>
        <time>2017-08-06T12:21:22Z</time>
      </trkpt>
      <trkpt lat="49.10767" lon="3.96751">
        <ele>286.61</ele>
        <time>2017-08-06T12:21:23Z</time>
      </trkpt>
      <trkpt lat="49.10767" lon="3.96753">
        <ele>286.61</ele>
        <time>2017-08-06T12:21:24Z</time>
      </trkpt>
      <trkpt lat="49.10767" lon="3.96756">
        <ele>286.61</ele>
        <time>2017-08-06T12:21:25Z</time>
      </trkpt>
      <trkpt lat="49.10767" lon="3.96758">
        <ele>286.61</ele>
        <time>2017-08-06T12:21:26Z</time>
      </trkpt>
      <trkpt lat="49.10768" lon="3.9676">
        <ele>286.61</ele>
        <time>2017-08-06T12:21:27Z</time>
      </trkpt>
      <trkpt lat="49.10768" lon="3.96762">
        <ele>286.61</ele>
        <time>2017-08-06T12:21:28Z</time>
      </trkpt>
      <trkpt lat="49.10767" lon="3.96768">
        <ele>286.61</ele>
        <time>2017-08-06T12:21:30Z</time>
      </trkpt>
      <trkpt lat="49.10769" lon="3.9677">
        <ele>286.61</ele>
        <time>2017-08-06T12:21:31Z</time>
      </trkpt>
      <trkpt lat="49.1077" lon="3.96773">
        <ele>286.61</ele>
        <time>2017-08-06T12:21:32Z</time>
      </trkpt>
      <trkpt lat="49.10771" lon="3.96776">
        <ele>286.61</ele>
        <time>2017-08-06T12:21:33Z</time>
      </trkpt>
      <trkpt lat="49.10771" lon="3.96779">
        <ele>286.61</ele>
        <time>2017-08-06T12:21:34Z</time>
      </trkpt>
      <trkpt lat="49.10771" lon="3.96783">
        <ele>286.61</ele>
        <time>2017-08-06T12:21:35Z</time>
      </trkpt>
      <trkpt lat="49.10771" lon="3.96786">
        <ele>286.61</ele>
        <time>2017-08-06T12:21:36Z</time>
      </trkpt>
      <trkpt lat="49.10766" lon="3.96791">
        <ele>287.09</ele>
        <time>2017-08-06T12:21:45Z</time>
      </trkpt>
      <trkpt lat="49.10765" lon="3.96791">
        <ele>287.09</ele>
        <time>2017-08-06T12:21:58Z</time>
      </trkpt>
      <trkpt lat="49.10765" lon="3.96788">
        <ele>287.09</ele>
        <time>2017-08-06T12:22:11Z</time>
      </trkpt>
      <trkpt lat="49.1076" lon="3.96784">
        <ele>287.09</ele>
        <time>2017-08-06T12:22:22Z</time>
      </trkpt>
      <trkpt lat="49.10753" lon="3.96784">
        <ele>287.09</ele>
        <time>2017-08-06T12:22:27Z</time>
      </trkpt>
      <trkpt lat="49.1075" lon="3.96779">
        <ele>287.09</ele>
        <time>2017-08-06T12:22:29Z</time>
      </trkpt>
      <trkpt lat="49.10752" lon="3.96734">
        <ele>285.65</ele>
        <time>2017-08-06T12:22:39Z</time>
      </trkpt>
      <trkpt lat="49.10752" lon="3.96605">
        <ele>283.73</ele>
        <time>2017-08-06T12:22:55Z</time>
      </trkpt>
      <trkpt lat="49.10753" lon="3.96428">
        <ele>280.84</ele>
        <time>2017-08-06T12:23:13Z</time>
      </trkpt>
      <trkpt lat="49.10756" lon="3.96279">
        <ele>280.84</ele>
        <time>2017-08-06T12:23:28Z</time>
      </trkpt>
      <trkpt lat="49.10758" lon="3.96234">
        <ele>280.84</ele>
        <time>2017-08-06T12:23:33Z</time>
      </trkpt>
      <trkpt lat="49.10757" lon="3.96108">
        <ele>280.84</ele>
        <time>2017-08-06T12:23:47Z</time>
      </trkpt>
      <trkpt lat="49.10756" lon="3.96063">
        <ele>280.84</ele>
        <time>2017-08-06T12:23:53Z</time>
      </trkpt>
      <trkpt lat="49.10758" lon="3.9597">
        <ele>280.84</ele>
        <time>2017-08-06T12:24:04Z</time>
      </trkpt>
      <trkpt lat="49.10762" lon="3.95872">
        <ele>281.8</ele>
        <time>2017-08-06T12:24:16Z</time>
      </trkpt>
      <trkpt lat="49.10763" lon="3.95726">
        <ele>282.77</ele>
        <time>2017-08-06T12:24:34Z</time>
      </trkpt>
      <trkpt lat="49.10761" lon="3.95603">
        <ele>283.25</ele>
        <time>2017-08-06T12:24:49Z</time>
      </trkpt>
      <trkpt lat="49.10761" lon="3.95469">
        <ele>283.25</ele>
        <time>2017-08-06T12:25:07Z</time>
      </trkpt>
      <trkpt lat="49.10761" lon="3.9537">
        <ele>281.8</ele>
        <time>2017-08-06T12:25:19Z</time>
      </trkpt>
      <trkpt lat="49.10761" lon="3.9524">
        <ele>278.92</ele>
        <time>2017-08-06T12:25:32Z</time>
      </trkpt>
      <trkpt lat="49.10764" lon="3.9506">
        <ele>276.52</ele>
        <time>2017-08-06T12:25:46Z</time>
      </trkpt>
      <trkpt lat="49.10767" lon="3.94915">
        <ele>276.52</ele>
        <time>2017-08-06T12:25:59Z</time>
      </trkpt>
      <trkpt lat="49.1077" lon="3.94847">
        <ele>276.52</ele>
        <time>2017-08-06T12:26:06Z</time>
      </trkpt>
      <trkpt lat="49.10769" lon="3.94829">
        <ele>277.96</ele>
        <time>2017-08-06T12:26:08Z</time>
      </trkpt>
      <trkpt lat="49.10768" lon="3.94722">
        <ele>277.96</ele>
        <time>2017-08-06T12:26:22Z</time>
      </trkpt>
      <trkpt lat="49.10769" lon="3.94634">
        <ele>278.44</ele>
        <time>2017-08-06T12:26:36Z</time>
      </trkpt>
      <trkpt lat="49.1077" lon="3.94505">
        <ele>277.48</ele>
        <time>2017-08-06T12:26:54Z</time>
      </trkpt>
      <trkpt lat="49.10771" lon="3.94368">
        <ele>277.48</ele>
        <time>2017-08-06T12:27:12Z</time>
      </trkpt>
      <trkpt lat="49.10771" lon="3.94332">
        <ele>278.44</ele>
        <time>2017-08-06T12:27:18Z</time>
      </trkpt>
      <trkpt lat="49.10772" lon="3.94224">
        <ele>279.88</ele>
        <time>2017-08-06T12:27:37Z</time>
      </trkpt>
      <trkpt lat="49.10772" lon="3.94122">
        <ele>280.36</ele>
        <time>2017-08-06T12:27:55Z</time>
      </trkpt>
      <trkpt lat="49.10773" lon="3.94019">
        <ele>280.84</ele>
        <time>2017-08-06T12:28:12Z</time>
      </trkpt>
      <trkpt lat="49.10775" lon="3.93886">
        <ele>280.84</ele>
        <time>2017-08-06T12:28:32Z</time>
      </trkpt>
      <trkpt lat="49.10775" lon="3.93866">
        <ele>280.84</ele>
        <time>2017-08-06T12:28:35Z</time>
      </trkpt>
      <trkpt lat="49.10775" lon="3.93859">
        <ele>280.84</ele>
        <time>2017-08-06T12:28:36Z</time>
      </trkpt>
      <trkpt lat="49.10774" lon="3.93853">
        <ele>280.84</ele>
        <time>2017-08-06T12:28:37Z</time>
      </trkpt>
      <trkpt lat="49.10775" lon="3.93751">
        <ele>281.32</ele>
        <time>2017-08-06T12:28:53Z</time>
      </trkpt>
      <trkpt lat="49.10777" lon="3.93654">
        <ele>281.32</ele>
        <time>2017-08-06T12:29:07Z</time>
      </trkpt>
      <trkpt lat="49.10777" lon="3.93487">
        <ele>281.32</ele>
        <time>2017-08-06T12:29:30Z</time>
      </trkpt>
      <trkpt lat="49.10778" lon="3.9348">
        <ele>281.32</ele>
        <time>2017-08-06T12:29:31Z</time>
      </trkpt>
      <trkpt lat="49.10778" lon="3.93473">
        <ele>281.32</ele>
        <time>2017-08-06T12:29:32Z</time>
      </trkpt>
      <trkpt lat="49.10778" lon="3.93352">
        <ele>281.32</ele>
        <time>2017-08-06T12:29:49Z</time>
      </trkpt>
      <trkpt lat="49.10779" lon="3.93269">
        <ele>281.32</ele>
        <time>2017-08-06T12:30:01Z</time>
      </trkpt>
      <trkpt lat="49.10778" lon="3.93212">
        <ele>281.32</ele>
        <time>2017-08-06T12:30:13Z</time>
      </trkpt>
      <trkpt lat="49.1078" lon="3.9321">
        <ele>281.32</ele>
        <time>2017-08-06T12:30:16Z</time>
      </trkpt>
      <trkpt lat="49.10782" lon="3.9321">
        <ele>281.32</ele>
        <time>2017-08-06T12:30:17Z</time>
      </trkpt>
      <trkpt lat="49.10783" lon="3.93208">
        <ele>281.32</ele>
        <time>2017-08-06T12:30:18Z</time>
      </trkpt>
      <trkpt lat="49.10784" lon="3.93205">
        <ele>279.88</ele>
        <time>2017-08-06T12:30:19Z</time>
      </trkpt>
      <trkpt lat="49.10784" lon="3.93202">
        <ele>279.88</ele>
        <time>2017-08-06T12:30:20Z</time>
      </trkpt>
      <trkpt lat="49.10783" lon="3.93199">
        <ele>279.88</ele>
        <time>2017-08-06T12:30:21Z</time>
      </trkpt>
      <trkpt lat="49.1078" lon="3.93199">
        <ele>279.88</ele>
        <time>2017-08-06T12:30:22Z</time>
      </trkpt>
      <trkpt lat="49.10778" lon="3.932">
        <ele>279.88</ele>
        <time>2017-08-06T12:30:23Z</time>
      </trkpt>
      <trkpt lat="49.10775" lon="3.93201">
        <ele>279.88</ele>
        <time>2017-08-06T12:30:24Z</time>
      </trkpt>
      <trkpt lat="49.10773" lon="3.93204">
        <ele>279.88</ele>
        <time>2017-08-06T12:30:25Z</time>
      </trkpt>
      <trkpt lat="49.10711" lon="3.93245">
        <ele>278.44</ele>
        <time>2017-08-06T12:30:38Z</time>
      </trkpt>
      <trkpt lat="49.10614" lon="3.933">
        <ele>276.52</ele>
        <time>2017-08-06T12:30:54Z</time>
      </trkpt>
      <trkpt lat="49.10514" lon="3.93355">
        <ele>274.59</ele>
        <time>2017-08-06T12:31:09Z</time>
      </trkpt>
      <trkpt lat="49.10431" lon="3.934">
        <ele>272.67</ele>
        <time>2017-08-06T12:31:21Z</time>
      </trkpt>
      <trkpt lat="49.10326" lon="3.93459">
        <ele>271.71</ele>
        <time>2017-08-06T12:31:37Z</time>
      </trkpt>
      <trkpt lat="49.10276" lon="3.93488">
        <ele>271.71</ele>
        <time>2017-08-06T12:31:46Z</time>
      </trkpt>
      <trkpt lat="49.10271" lon="3.93491">
        <ele>271.71</ele>
        <time>2017-08-06T12:31:47Z</time>
      </trkpt>
      <trkpt lat="49.10252" lon="3.93502">
        <ele>272.67</ele>
        <time>2017-08-06T12:31:51Z</time>
      </trkpt>
      <trkpt lat="49.10175" lon="3.93544">
        <ele>274.59</ele>
        <time>2017-08-06T12:32:10Z</time>
      </trkpt>
      <trkpt lat="49.10105" lon="3.93582">
        <ele>275.56</ele>
        <time>2017-08-06T12:32:27Z</time>
      </trkpt>
      <trkpt lat="49.10041" lon="3.93622">
        <ele>276.52</ele>
        <time>2017-08-06T12:32:43Z</time>
      </trkpt>
      <trkpt lat="49.09977" lon="3.93657">
        <ele>277</ele>
        <time>2017-08-06T12:32:59Z</time>
      </trkpt>
      <trkpt lat="49.09958" lon="3.93668">
        <ele>277.48</ele>
        <time>2017-08-06T12:33:04Z</time>
      </trkpt>
      <trkpt lat="49.09954" lon="3.9367">
        <ele>277.48</ele>
        <time>2017-08-06T12:33:05Z</time>
      </trkpt>
      <trkpt lat="49.09883" lon="3.9371">
        <ele>277.96</ele>
        <time>2017-08-06T12:33:22Z</time>
      </trkpt>
      <trkpt lat="49.09813" lon="3.93751">
        <ele>278.92</ele>
        <time>2017-08-06T12:33:39Z</time>
      </trkpt>
      <trkpt lat="49.09768" lon="3.93778">
        <ele>279.4</ele>
        <time>2017-08-06T12:33:50Z</time>
      </trkpt>
      <trkpt lat="49.09759" lon="3.93783">
        <ele>279.4</ele>
        <time>2017-08-06T12:33:52Z</time>
      </trkpt>
      <trkpt lat="49.09674" lon="3.93831">
        <ele>279.4</ele>
        <time>2017-08-06T12:34:09Z</time>
      </trkpt>
      <trkpt lat="49.09588" lon="3.9388">
        <ele>277.96</ele>
        <time>2017-08-06T12:34:26Z</time>
      </trkpt>
      <trkpt lat="49.09495" lon="3.93934">
        <ele>277.48</ele>
        <time>2017-08-06T12:34:45Z</time>
      </trkpt>
      <trkpt lat="49.09418" lon="3.9398">
        <ele>278.92</ele>
        <time>2017-08-06T12:35:02Z</time>
      </trkpt>
      <trkpt lat="49.09353" lon="3.94017">
        <ele>280.36</ele>
        <time>2017-08-06T12:35:19Z</time>
      </trkpt>
      <trkpt lat="49.09279" lon="3.94054">
        <ele>280.84</ele>
        <time>2017-08-06T12:35:38Z</time>
      </trkpt>
      <trkpt lat="49.09192" lon="3.94086">
        <ele>279.4</ele>
        <time>2017-08-06T12:35:54Z</time>
      </trkpt>
      <trkpt lat="49.09103" lon="3.94106">
        <ele>276.04</ele>
        <time>2017-08-06T12:36:06Z</time>
      </trkpt>
      <trkpt lat="49.08994" lon="3.94132">
        <ele>272.67</ele>
        <time>2017-08-06T12:36:19Z</time>
      </trkpt>
      <trkpt lat="49.08894" lon="3.94157">
        <ele>269.79</ele>
        <time>2017-08-06T12:36:30Z</time>
      </trkpt>
      <trkpt lat="49.08824" lon="3.94174">
        <ele>266.42</ele>
        <time>2017-08-06T12:36:38Z</time>
      </trkpt>
      <trkpt lat="49.08783" lon="3.94181">
        <ele>262.58</ele>
        <time>2017-08-06T12:36:42Z</time>
      </trkpt>
      <trkpt lat="49.08748" lon="3.94183">
        <ele>259.21</ele>
        <time>2017-08-06T12:36:45Z</time>
      </trkpt>
      <trkpt lat="49.08712" lon="3.94179">
        <ele>255.37</ele>
        <time>2017-08-06T12:36:48Z</time>
      </trkpt>
      <trkpt lat="49.08672" lon="3.9417">
        <ele>251.04</ele>
        <time>2017-08-06T12:36:51Z</time>
      </trkpt>
      <trkpt lat="49.08645" lon="3.94167">
        <ele>247.2</ele>
        <time>2017-08-06T12:36:53Z</time>
      </trkpt>
      <trkpt lat="49.08613" lon="3.94168">
        <ele>243.35</ele>
        <time>2017-08-06T12:36:55Z</time>
      </trkpt>
      <trkpt lat="49.08571" lon="3.94175">
        <ele>239.02</ele>
        <time>2017-08-06T12:36:58Z</time>
      </trkpt>
      <trkpt lat="49.08527" lon="3.94181">
        <ele>235.18</ele>
        <time>2017-08-06T12:37:01Z</time>
      </trkpt>
      <trkpt lat="49.08486" lon="3.94184">
        <ele>230.85</ele>
        <time>2017-08-06T12:37:04Z</time>
      </trkpt>
      <trkpt lat="49.08451" lon="3.94187">
        <ele>227.97</ele>
        <time>2017-08-06T12:37:07Z</time>
      </trkpt>
      <trkpt lat="49.08439" lon="3.94186">
        <ele>227.49</ele>
        <time>2017-08-06T12:37:08Z</time>
      </trkpt>
      <trkpt lat="49.0843" lon="3.94184">
        <ele>226.53</ele>
        <time>2017-08-06T12:37:09Z</time>
      </trkpt>
      <trkpt lat="49.084" lon="3.9417">
        <ele>223.64</ele>
        <time>2017-08-06T12:37:12Z</time>
      </trkpt>
      <trkpt lat="49.08391" lon="3.94163">
        <ele>222.2</ele>
        <time>2017-08-06T12:37:13Z</time>
      </trkpt>
      <trkpt lat="49.08366" lon="3.94141">
        <ele>217.88</ele>
        <time>2017-08-06T12:37:16Z</time>
      </trkpt>
      <trkpt lat="49.08338" lon="3.94117">
        <ele>214.99</ele>
        <time>2017-08-06T12:37:20Z</time>
      </trkpt>
      <trkpt lat="49.08332" lon="3.94113">
        <ele>214.03</ele>
        <time>2017-08-06T12:37:21Z</time>
      </trkpt>
      <trkpt lat="49.08326" lon="3.94113">
        <ele>213.55</ele>
        <time>2017-08-06T12:37:22Z</time>
      </trkpt>
      <trkpt lat="49.08322" lon="3.94116">
        <ele>213.55</ele>
        <time>2017-08-06T12:37:23Z</time>
      </trkpt>
      <trkpt lat="49.08319" lon="3.94125">
        <ele>212.59</ele>
        <time>2017-08-06T12:37:24Z</time>
      </trkpt>
      <trkpt lat="49.08317" lon="3.94133">
        <ele>211.63</ele>
        <time>2017-08-06T12:37:25Z</time>
      </trkpt>
      <trkpt lat="49.08315" lon="3.94146">
        <ele>210.19</ele>
        <time>2017-08-06T12:37:26Z</time>
      </trkpt>
      <trkpt lat="49.08309" lon="3.94192">
        <ele>206.82</ele>
        <time>2017-08-06T12:37:30Z</time>
      </trkpt>
      <trkpt lat="49.08304" lon="3.94223">
        <ele>204.42</ele>
        <time>2017-08-06T12:37:34Z</time>
      </trkpt>
      <trkpt lat="49.08301" lon="3.94228">
        <ele>203.46</ele>
        <time>2017-08-06T12:37:35Z</time>
      </trkpt>
      <trkpt lat="49.08295" lon="3.94232">
        <ele>203.94</ele>
        <time>2017-08-06T12:37:36Z</time>
      </trkpt>
      <trkpt lat="49.08268" lon="3.94244">
        <ele>200.57</ele>
        <time>2017-08-06T12:37:40Z</time>
      </trkpt>
      <trkpt lat="49.08241" lon="3.94251">
        <ele>198.17</ele>
        <time>2017-08-06T12:37:44Z</time>
      </trkpt>
      <trkpt lat="49.08233" lon="3.94249">
        <ele>198.17</ele>
        <time>2017-08-06T12:37:45Z</time>
      </trkpt>
      <trkpt lat="49.08228" lon="3.94247">
        <ele>198.17</ele>
        <time>2017-08-06T12:37:46Z</time>
      </trkpt>
      <trkpt lat="49.08207" lon="3.94232">
        <ele>198.17</ele>
        <time>2017-08-06T12:37:50Z</time>
      </trkpt>
      <trkpt lat="49.08147" lon="3.94205">
        <ele>195.77</ele>
        <time>2017-08-06T12:38:00Z</time>
      </trkpt>
      <trkpt lat="49.08105" lon="3.94183">
        <ele>192.88</ele>
        <time>2017-08-06T12:38:06Z</time>
      </trkpt>
      <trkpt lat="49.08007" lon="3.9411">
        <ele>192.4</ele>
        <time>2017-08-06T12:38:20Z</time>
      </trkpt>
      <trkpt lat="49.07974" lon="3.94091">
        <ele>195.28</ele>
        <time>2017-08-06T12:38:29Z</time>
      </trkpt>
      <trkpt lat="49.07955" lon="3.94084">
        <ele>196.25</ele>
        <time>2017-08-06T12:38:39Z</time>
      </trkpt>
      <trkpt lat="49.07954" lon="3.94086">
        <ele>196.25</ele>
        <time>2017-08-06T12:38:40Z</time>
      </trkpt>
      <trkpt lat="49.07953" lon="3.94087">
        <ele>196.25</ele>
        <time>2017-08-06T12:38:41Z</time>
      </trkpt>
      <trkpt lat="49.0795" lon="3.94088">
        <ele>196.73</ele>
        <time>2017-08-06T12:38:53Z</time>
      </trkpt>
      <trkpt lat="49.0795" lon="3.94088">
        <ele>196.25</ele>
        <time>2017-08-06T12:39:18Z</time>
      </trkpt>
      <trkpt lat="49.07949" lon="3.94088">
        <ele>196.25</ele>
        <time>2017-08-06T12:39:42Z</time>
      </trkpt>
      <trkpt lat="49.07945" lon="3.94088">
        <ele>196.25</ele>
        <time>2017-08-06T12:39:51Z</time>
      </trkpt>
      <trkpt lat="49.07944" lon="3.94087">
        <ele>196.25</ele>
        <time>2017-08-06T12:39:52Z</time>
      </trkpt>
      <trkpt lat="49.07942" lon="3.94086">
        <ele>196.25</ele>
        <time>2017-08-06T12:39:53Z</time>
      </trkpt>
      <trkpt lat="49.07939" lon="3.94084">
        <ele>196.25</ele>
        <time>2017-08-06T12:39:54Z</time>
      </trkpt>
      <trkpt lat="49.07937" lon="3.94082">
        <ele>196.25</ele>
        <time>2017-08-06T12:39:55Z</time>
      </trkpt>
      <trkpt lat="49.07934" lon="3.94081">
        <ele>196.25</ele>
        <time>2017-08-06T12:39:56Z</time>
      </trkpt>
      <trkpt lat="49.07931" lon="3.9408">
        <ele>196.25</ele>
        <time>2017-08-06T12:39:57Z</time>
      </trkpt>
      <trkpt lat="49.07927" lon="3.9408">
        <ele>196.25</ele>
        <time>2017-08-06T12:39:58Z</time>
      </trkpt>
      <trkpt lat="49.07877" lon="3.94071">
        <ele>193.84</ele>
        <time>2017-08-06T12:40:09Z</time>
      </trkpt>
      <trkpt lat="49.07873" lon="3.94071">
        <ele>193.84</ele>
        <time>2017-08-06T12:40:10Z</time>
      </trkpt>
      <trkpt lat="49.0782" lon="3.9406">
        <ele>190.48</ele>
        <time>2017-08-06T12:40:19Z</time>
      </trkpt>
      <trkpt lat="49.0779" lon="3.94053">
        <ele>187.11</ele>
        <time>2017-08-06T12:40:23Z</time>
      </trkpt>
      <trkpt lat="49.07763" lon="3.94043">
        <ele>183.27</ele>
        <time>2017-08-06T12:40:26Z</time>
      </trkpt>
      <trkpt lat="49.07737" lon="3.94031">
        <ele>179.42</ele>
        <time>2017-08-06T12:40:29Z</time>
      </trkpt>
      <trkpt lat="49.0772" lon="3.94021">
        <ele>176.06</ele>
        <time>2017-08-06T12:40:31Z</time>
      </trkpt>
      <trkpt lat="49.07704" lon="3.94009">
        <ele>173.17</ele>
        <time>2017-08-06T12:40:33Z</time>
      </trkpt>
      <trkpt lat="49.07697" lon="3.94001">
        <ele>171.25</ele>
        <time>2017-08-06T12:40:34Z</time>
      </trkpt>
      <trkpt lat="49.07689" lon="3.9399">
        <ele>169.81</ele>
        <time>2017-08-06T12:40:35Z</time>
      </trkpt>
      <trkpt lat="49.07683" lon="3.93978">
        <ele>167.89</ele>
        <time>2017-08-06T12:40:36Z</time>
      </trkpt>
      <trkpt lat="49.07676" lon="3.93963">
        <ele>166.45</ele>
        <time>2017-08-06T12:40:37Z</time>
      </trkpt>
      <trkpt lat="49.0767" lon="3.93947">
        <ele>164.52</ele>
        <time>2017-08-06T12:40:38Z</time>
      </trkpt>
      <trkpt lat="49.07656" lon="3.93917">
        <ele>161.64</ele>
        <time>2017-08-06T12:40:40Z</time>
      </trkpt>
      <trkpt lat="49.07641" lon="3.93884">
        <ele>158.27</ele>
        <time>2017-08-06T12:40:42Z</time>
      </trkpt>
      <trkpt lat="49.07623" lon="3.93842">
        <ele>154.91</ele>
        <time>2017-08-06T12:40:45Z</time>
      </trkpt>
      <trkpt lat="49.07614" lon="3.93817">
        <ele>152.51</ele>
        <time>2017-08-06T12:40:47Z</time>
      </trkpt>
      <trkpt lat="49.07612" lon="3.93802">
        <ele>151.54</ele>
        <time>2017-08-06T12:40:48Z</time>
      </trkpt>
      <trkpt lat="49.07607" lon="3.93759">
        <ele>148.66</ele>
        <time>2017-08-06T12:40:51Z</time>
      </trkpt>
      <trkpt lat="49.07602" lon="3.937">
        <ele>145.3</ele>
        <time>2017-08-06T12:40:55Z</time>
      </trkpt>
      <trkpt lat="49.07599" lon="3.93686">
        <ele>144.34</ele>
        <time>2017-08-06T12:40:56Z</time>
      </trkpt>
      <trkpt lat="49.07596" lon="3.93672">
        <ele>142.89</ele>
        <time>2017-08-06T12:40:57Z</time>
      </trkpt>
      <trkpt lat="49.0758" lon="3.93626">
        <ele>138.57</ele>
        <time>2017-08-06T12:41:00Z</time>
      </trkpt>
      <trkpt lat="49.07567" lon="3.93595">
        <ele>134.72</ele>
        <time>2017-08-06T12:41:02Z</time>
      </trkpt>
      <trkpt lat="49.07549" lon="3.93562">
        <ele>131.84</ele>
        <time>2017-08-06T12:41:04Z</time>
      </trkpt>
      <trkpt lat="49.07532" lon="3.93534">
        <ele>128.47</ele>
        <time>2017-08-06T12:41:06Z</time>
      </trkpt>
      <trkpt lat="49.07501" lon="3.93487">
        <ele>125.59</ele>
        <time>2017-08-06T12:41:10Z</time>
      </trkpt>
      <trkpt lat="49.07493" lon="3.93479">
        <ele>124.63</ele>
        <time>2017-08-06T12:41:11Z</time>
      </trkpt>
      <trkpt lat="49.0748" lon="3.9347">
        <ele>123.67</ele>
        <time>2017-08-06T12:41:12Z</time>
      </trkpt>
      <trkpt lat="49.0744" lon="3.93446">
        <ele>120.3</ele>
        <time>2017-08-06T12:41:16Z</time>
      </trkpt>
      <trkpt lat="49.07419" lon="3.9343">
        <ele>118.38</ele>
        <time>2017-08-06T12:41:18Z</time>
      </trkpt>
      <trkpt lat="49.0741" lon="3.9342">
        <ele>116.94</ele>
        <time>2017-08-06T12:41:19Z</time>
      </trkpt>
      <trkpt lat="49.07401" lon="3.93408">
        <ele>115.98</ele>
        <time>2017-08-06T12:41:20Z</time>
      </trkpt>
      <trkpt lat="49.07393" lon="3.93396">
        <ele>115.01</ele>
        <time>2017-08-06T12:41:21Z</time>
      </trkpt>
      <trkpt lat="49.07386" lon="3.93384">
        <ele>114.05</ele>
        <time>2017-08-06T12:41:22Z</time>
      </trkpt>
      <trkpt lat="49.07379" lon="3.93372">
        <ele>113.09</ele>
        <time>2017-08-06T12:41:23Z</time>
      </trkpt>
      <trkpt lat="49.07359" lon="3.93339">
        <ele>110.21</ele>
        <time>2017-08-06T12:41:26Z</time>
      </trkpt>
      <trkpt lat="49.07352" lon="3.9333">
        <ele>109.25</ele>
        <time>2017-08-06T12:41:27Z</time>
      </trkpt>
      <trkpt lat="49.07344" lon="3.93322">
        <ele>108.29</ele>
        <time>2017-08-06T12:41:28Z</time>
      </trkpt>
      <trkpt lat="49.07322" lon="3.93302">
        <ele>104.44</ele>
        <time>2017-08-06T12:41:31Z</time>
      </trkpt>
      <trkpt lat="49.07316" lon="3.93294">
        <ele>103</ele>
        <time>2017-08-06T12:41:32Z</time>
      </trkpt>
      <trkpt lat="49.0731" lon="3.93285">
        <ele>102.04</ele>
        <time>2017-08-06T12:41:33Z</time>
      </trkpt>
      <trkpt lat="49.07306" lon="3.93276">
        <ele>100.6</ele>
        <time>2017-08-06T12:41:34Z</time>
      </trkpt>
      <trkpt lat="49.07302" lon="3.93266">
        <ele>99.63</ele>
        <time>2017-08-06T12:41:35Z</time>
      </trkpt>
      <trkpt lat="49.07298" lon="3.93258">
        <ele>99.15</ele>
        <time>2017-08-06T12:41:36Z</time>
      </trkpt>
      <trkpt lat="49.07285" lon="3.93232">
        <ele>95.79</ele>
        <time>2017-08-06T12:41:40Z</time>
      </trkpt>
      <trkpt lat="49.07279" lon="3.93217">
        <ele>94.35</ele>
        <time>2017-08-06T12:41:43Z</time>
      </trkpt>
      <trkpt lat="49.07278" lon="3.93211">
        <ele>93.39</ele>
        <time>2017-08-06T12:41:44Z</time>
      </trkpt>
      <trkpt lat="49.07279" lon="3.93204">
        <ele>93.39</ele>
        <time>2017-08-06T12:41:45Z</time>
      </trkpt>
      <trkpt lat="49.07281" lon="3.93198">
        <ele>92.9</ele>
        <time>2017-08-06T12:41:46Z</time>
      </trkpt>
      <trkpt lat="49.07283" lon="3.9319">
        <ele>92.42</ele>
        <time>2017-08-06T12:41:47Z</time>
      </trkpt>
      <trkpt lat="49.07285" lon="3.93181">
        <ele>92.42</ele>
        <time>2017-08-06T12:41:48Z</time>
      </trkpt>
      <trkpt lat="49.07287" lon="3.93172">
        <ele>92.42</ele>
        <time>2017-08-06T12:41:49Z</time>
      </trkpt>
      <trkpt lat="49.0731" lon="3.93073">
        <ele>90.02</ele>
        <time>2017-08-06T12:42:00Z</time>
      </trkpt>
      <trkpt lat="49.0731" lon="3.93065">
        <ele>90.02</ele>
        <time>2017-08-06T12:42:01Z</time>
      </trkpt>
      <trkpt lat="49.07307" lon="3.93059">
        <ele>89.54</ele>
        <time>2017-08-06T12:42:02Z</time>
      </trkpt>
      <trkpt lat="49.07302" lon="3.93056">
        <ele>89.54</ele>
        <time>2017-08-06T12:42:03Z</time>
      </trkpt>
      <trkpt lat="49.07296" lon="3.93056">
        <ele>89.54</ele>
        <time>2017-08-06T12:42:04Z</time>
      </trkpt>
      <trkpt lat="49.07291" lon="3.93058">
        <ele>89.54</ele>
        <time>2017-08-06T12:42:05Z</time>
      </trkpt>
      <trkpt lat="49.07286" lon="3.9306">
        <ele>89.54</ele>
        <time>2017-08-06T12:42:06Z</time>
      </trkpt>
      <trkpt lat="49.07229" lon="3.93081">
        <ele>86.18</ele>
        <time>2017-08-06T12:42:15Z</time>
      </trkpt>
      <trkpt lat="49.07159" lon="3.93105">
        <ele>88.1</ele>
        <time>2017-08-06T12:42:28Z</time>
      </trkpt>
      <trkpt lat="49.07079" lon="3.93133">
        <ele>86.18</ele>
        <time>2017-08-06T12:42:44Z</time>
      </trkpt>
      <trkpt lat="49.06962" lon="3.93173">
        <ele>82.81</ele>
        <time>2017-08-06T12:43:01Z</time>
      </trkpt>
      <trkpt lat="49.06931" lon="3.93183">
        <ele>82.81</ele>
        <time>2017-08-06T12:43:06Z</time>
      </trkpt>
      <trkpt lat="49.06925" lon="3.93183">
        <ele>82.81</ele>
        <time>2017-08-06T12:43:07Z</time>
      </trkpt>
      <trkpt lat="49.06918" lon="3.93181">
        <ele>82.81</ele>
        <time>2017-08-06T12:43:08Z</time>
      </trkpt>
      <trkpt lat="49.06912" lon="3.93177">
        <ele>82.81</ele>
        <time>2017-08-06T12:43:09Z</time>
      </trkpt>
      <trkpt lat="49.06906" lon="3.93174">
        <ele>82.33</ele>
        <time>2017-08-06T12:43:10Z</time>
      </trkpt>
      <trkpt lat="49.069" lon="3.93172">
        <ele>82.33</ele>
        <time>2017-08-06T12:43:11Z</time>
      </trkpt>
      <trkpt lat="49.06894" lon="3.9317">
        <ele>82.33</ele>
        <time>2017-08-06T12:43:12Z</time>
      </trkpt>
      <trkpt lat="49.06785" lon="3.93138">
        <ele>81.85</ele>
        <time>2017-08-06T12:43:29Z</time>
      </trkpt>
      <trkpt lat="49.06663" lon="3.93103">
        <ele>81.85</ele>
        <time>2017-08-06T12:43:49Z</time>
      </trkpt>
      <trkpt lat="49.0662" lon="3.93092">
        <ele>81.85</ele>
        <time>2017-08-06T12:43:57Z</time>
      </trkpt>
      <trkpt lat="49.06609" lon="3.9309">
        <ele>81.85</ele>
        <time>2017-08-06T12:43:59Z</time>
      </trkpt>
      <trkpt lat="49.06599" lon="3.93086">
        <ele>81.85</ele>
        <time>2017-08-06T12:44:01Z</time>
      </trkpt>
      <trkpt lat="49.06509" lon="3.9306">
        <ele>81.37</ele>
        <time>2017-08-06T12:44:20Z</time>
      </trkpt>
      <trkpt lat="49.06419" lon="3.93035">
        <ele>81.37</ele>
        <time>2017-08-06T12:44:38Z</time>
      </trkpt>
      <trkpt lat="49.06324" lon="3.93032">
        <ele>81.37</ele>
        <time>2017-08-06T12:44:57Z</time>
      </trkpt>
      <trkpt lat="49.06232" lon="3.93031">
        <ele>81.37</ele>
        <time>2017-08-06T12:45:16Z</time>
      </trkpt>
      <trkpt lat="49.06134" lon="3.93028">
        <ele>81.37</ele>
        <time>2017-08-06T12:45:35Z</time>
      </trkpt>
      <trkpt lat="49.06021" lon="3.93028">
        <ele>80.89</ele>
        <time>2017-08-06T12:45:58Z</time>
      </trkpt>
      <trkpt lat="49.05932" lon="3.93029">
        <ele>81.85</ele>
        <time>2017-08-06T12:46:17Z</time>
      </trkpt>
      <trkpt lat="49.05884" lon="3.93037">
        <ele>84.25</ele>
        <time>2017-08-06T12:46:33Z</time>
      </trkpt>
      <trkpt lat="49.05844" lon="3.93045">
        <ele>87.14</ele>
        <time>2017-08-06T12:46:50Z</time>
      </trkpt>
      <trkpt lat="49.05802" lon="3.93053">
        <ele>89.54</ele>
        <time>2017-08-06T12:47:10Z</time>
      </trkpt>
      <trkpt lat="49.05758" lon="3.93061">
        <ele>88.1</ele>
        <time>2017-08-06T12:47:23Z</time>
      </trkpt>
      <trkpt lat="49.05713" lon="3.93071">
        <ele>85.21</ele>
        <time>2017-08-06T12:47:30Z</time>
      </trkpt>
      <trkpt lat="49.05667" lon="3.93081">
        <ele>82.33</ele>
        <time>2017-08-06T12:47:36Z</time>
      </trkpt>
      <trkpt lat="49.0558" lon="3.93098">
        <ele>80.89</ele>
        <time>2017-08-06T12:47:48Z</time>
      </trkpt>
      <trkpt lat="49.0554" lon="3.93116">
        <ele>82.33</ele>
        <time>2017-08-06T12:47:56Z</time>
      </trkpt>
      <trkpt lat="49.05536" lon="3.93119">
        <ele>82.33</ele>
        <time>2017-08-06T12:47:57Z</time>
      </trkpt>
      <trkpt lat="49.05512" lon="3.93139">
        <ele>83.29</ele>
        <time>2017-08-06T12:48:07Z</time>
      </trkpt>
      <trkpt lat="49.05512" lon="3.93141">
        <ele>83.29</ele>
        <time>2017-08-06T12:48:08Z</time>
      </trkpt>
      <trkpt lat="49.05512" lon="3.93144">
        <ele>83.29</ele>
        <time>2017-08-06T12:48:09Z</time>
      </trkpt>
      <trkpt lat="49.05513" lon="3.93148">
        <ele>83.29</ele>
        <time>2017-08-06T12:48:10Z</time>
      </trkpt>
      <trkpt lat="49.05536" lon="3.93215">
        <ele>83.29</ele>
        <time>2017-08-06T12:48:25Z</time>
      </trkpt>
      <trkpt lat="49.05559" lon="3.93301">
        <ele>84.73</ele>
        <time>2017-08-06T12:48:42Z</time>
      </trkpt>
      <trkpt lat="49.05574" lon="3.93412">
        <ele>84.25</ele>
        <time>2017-08-06T12:48:59Z</time>
      </trkpt>
      <trkpt lat="49.0558" lon="3.93476">
        <ele>84.25</ele>
        <time>2017-08-06T12:49:11Z</time>
      </trkpt>
      <trkpt lat="49.05584" lon="3.93516">
        <ele>84.25</ele>
        <time>2017-08-06T12:49:18Z</time>
      </trkpt>
      <trkpt lat="49.05591" lon="3.93576">
        <ele>84.25</ele>
        <time>2017-08-06T12:49:27Z</time>
      </trkpt>
      <trkpt lat="49.05591" lon="3.93581">
        <ele>84.25</ele>
        <time>2017-08-06T12:49:28Z</time>
      </trkpt>
      <trkpt lat="49.05589" lon="3.93585">
        <ele>84.25</ele>
        <time>2017-08-06T12:49:29Z</time>
      </trkpt>
      <trkpt lat="49.05587" lon="3.93587">
        <ele>84.25</ele>
        <time>2017-08-06T12:49:30Z</time>
      </trkpt>
      <trkpt lat="49.05586" lon="3.93586">
        <ele>84.73</ele>
        <time>2017-08-06T12:49:39Z</time>
      </trkpt>
      <trkpt lat="49.05586" lon="3.93593">
        <ele>84.73</ele>
        <time>2017-08-06T12:49:51Z</time>
      </trkpt>
      <trkpt lat="49.05585" lon="3.93594">
        <ele>85.21</ele>
        <time>2017-08-06T12:50:06Z</time>
      </trkpt>
      <trkpt lat="49.05584" lon="3.93597">
        <ele>85.21</ele>
        <time>2017-08-06T12:50:40Z</time>
      </trkpt>
      <trkpt lat="49.05583" lon="3.93593">
        <ele>83.77</ele>
        <time>2017-08-06T12:51:02Z</time>
      </trkpt>
      <trkpt lat="49.05581" lon="3.93588">
        <ele>83.77</ele>
        <time>2017-08-06T12:51:24Z</time>
      </trkpt>
      <trkpt lat="49.0558" lon="3.93584">
        <ele>83.77</ele>
        <time>2017-08-06T12:51:53Z</time>
      </trkpt>
      <trkpt lat="49.05584" lon="3.93592">
        <ele>83.29</ele>
        <time>2017-08-06T12:52:13Z</time>
      </trkpt>
      <trkpt lat="49.05585" lon="3.93593">
        <ele>83.29</ele>
        <time>2017-08-06T12:52:41Z</time>
      </trkpt>
      <trkpt lat="49.05585" lon="3.9359">
        <ele>83.29</ele>
        <time>2017-08-06T12:52:44Z</time>
      </trkpt>
      <trkpt lat="49.05585" lon="3.93589">
        <ele>83.29</ele>
        <time>2017-08-06T12:52:45Z</time>
      </trkpt>
      <trkpt lat="49.05586" lon="3.93588">
        <ele>83.29</ele>
        <time>2017-08-06T12:52:46Z</time>
      </trkpt>
      <trkpt lat="49.05587" lon="3.93587">
        <ele>83.29</ele>
        <time>2017-08-06T12:52:59Z</time>
      </trkpt>
      <trkpt lat="49.05589" lon="3.93589">
        <ele>83.29</ele>
        <time>2017-08-06T12:53:12Z</time>
      </trkpt>
      <trkpt lat="49.05591" lon="3.93591">
        <ele>83.29</ele>
        <time>2017-08-06T12:53:13Z</time>
      </trkpt>
      <trkpt lat="49.05592" lon="3.93593">
        <ele>83.29</ele>
        <time>2017-08-06T12:53:14Z</time>
      </trkpt>
      <trkpt lat="49.05601" lon="3.93645">
        <ele>83.29</ele>
        <time>2017-08-06T12:53:26Z</time>
      </trkpt>
      <trkpt lat="49.05613" lon="3.93747">
        <ele>83.29</ele>
        <time>2017-08-06T12:53:43Z</time>
      </trkpt>
      <trkpt lat="49.05623" lon="3.93856">
        <ele>84.25</ele>
        <time>2017-08-06T12:54:01Z</time>
      </trkpt>
      <trkpt lat="49.05636" lon="3.93963">
        <ele>84.73</ele>
        <time>2017-08-06T12:54:19Z</time>
      </trkpt>
      <trkpt lat="49.05641" lon="3.94004">
        <ele>85.21</ele>
        <time>2017-08-06T12:54:25Z</time>
      </trkpt>
      <trkpt lat="49.05652" lon="3.94102">
        <ele>85.21</ele>
        <time>2017-08-06T12:54:41Z</time>
      </trkpt>
      <trkpt lat="49.05655" lon="3.94121">
        <ele>85.21</ele>
        <time>2017-08-06T12:54:44Z</time>
      </trkpt>
      <trkpt lat="49.05656" lon="3.94127">
        <ele>85.21</ele>
        <time>2017-08-06T12:54:45Z</time>
      </trkpt>
      <trkpt lat="49.05657" lon="3.94133">
        <ele>85.21</ele>
        <time>2017-08-06T12:54:46Z</time>
      </trkpt>
      <trkpt lat="49.05669" lon="3.94234">
        <ele>86.66</ele>
        <time>2017-08-06T12:55:04Z</time>
      </trkpt>
      <trkpt lat="49.0568" lon="3.94318">
        <ele>87.62</ele>
        <time>2017-08-06T12:55:21Z</time>
      </trkpt>
      <trkpt lat="49.05693" lon="3.94428">
        <ele>88.1</ele>
        <time>2017-08-06T12:55:41Z</time>
      </trkpt>
      <trkpt lat="49.05701" lon="3.94505">
        <ele>88.1</ele>
        <time>2017-08-06T12:55:55Z</time>
      </trkpt>
      <trkpt lat="49.05708" lon="3.9459">
        <ele>86.66</ele>
        <time>2017-08-06T12:56:09Z</time>
      </trkpt>
      <trkpt lat="49.05687" lon="3.94701">
        <ele>86.18</ele>
        <time>2017-08-06T12:56:25Z</time>
      </trkpt>
      <trkpt lat="49.05642" lon="3.94794">
        <ele>86.18</ele>
        <time>2017-08-06T12:56:41Z</time>
      </trkpt>
      <trkpt lat="49.05592" lon="3.94884">
        <ele>87.14</ele>
        <time>2017-08-06T12:56:59Z</time>
      </trkpt>
      <trkpt lat="49.05567" lon="3.94926">
        <ele>87.14</ele>
        <time>2017-08-06T12:57:08Z</time>
      </trkpt>
      <trkpt lat="49.05564" lon="3.9493">
        <ele>87.62</ele>
        <time>2017-08-06T12:57:09Z</time>
      </trkpt>
      <trkpt lat="49.05514" lon="3.94993">
        <ele>87.62</ele>
        <time>2017-08-06T12:57:24Z</time>
      </trkpt>
      <trkpt lat="49.05451" lon="3.9506">
        <ele>89.06</ele>
        <time>2017-08-06T12:57:43Z</time>
      </trkpt>
      <trkpt lat="49.05387" lon="3.95063">
        <ele>90.02</ele>
        <time>2017-08-06T12:58:00Z</time>
      </trkpt>
      <trkpt lat="49.05321" lon="3.95054">
        <ele>90.02</ele>
        <time>2017-08-06T12:58:16Z</time>
      </trkpt>
      <trkpt lat="49.05249" lon="3.95044">
        <ele>90.02</ele>
        <time>2017-08-06T12:58:31Z</time>
      </trkpt>
      <trkpt lat="49.05203" lon="3.95038">
        <ele>89.06</ele>
        <time>2017-08-06T12:58:40Z</time>
      </trkpt>
      <trkpt lat="49.05166" lon="3.95032">
        <ele>89.06</ele>
        <time>2017-08-06T12:58:52Z</time>
      </trkpt>
      <trkpt lat="49.05161" lon="3.9503">
        <ele>88.58</ele>
        <time>2017-08-06T12:59:15Z</time>
      </trkpt>
      <trkpt lat="49.05115" lon="3.95027">
        <ele>88.58</ele>
        <time>2017-08-06T12:59:26Z</time>
      </trkpt>
      <trkpt lat="49.05026" lon="3.95015">
        <ele>90.02</ele>
        <time>2017-08-06T12:59:46Z</time>
      </trkpt>
      <trkpt lat="49.04974" lon="3.95011">
        <ele>91.46</ele>
        <time>2017-08-06T13:00:00Z</time>
      </trkpt>
      <trkpt lat="49.04936" lon="3.94997">
        <ele>92.42</ele>
        <time>2017-08-06T13:00:12Z</time>
      </trkpt>
      <trkpt lat="49.04901" lon="3.94966">
        <ele>93.39</ele>
        <time>2017-08-06T13:00:23Z</time>
      </trkpt>
      <trkpt lat="49.04898" lon="3.94964">
        <ele>93.39</ele>
        <time>2017-08-06T13:00:24Z</time>
      </trkpt>
      <trkpt lat="49.04894" lon="3.9496">
        <ele>93.39</ele>
        <time>2017-08-06T13:00:25Z</time>
      </trkpt>
      <trkpt lat="49.04838" lon="3.94912">
        <ele>93.87</ele>
        <time>2017-08-06T13:00:41Z</time>
      </trkpt>
      <trkpt lat="49.04802" lon="3.94884">
        <ele>93.87</ele>
        <time>2017-08-06T13:00:50Z</time>
      </trkpt>
      <trkpt lat="49.04798" lon="3.94881">
        <ele>93.87</ele>
        <time>2017-08-06T13:00:51Z</time>
      </trkpt>
      <trkpt lat="49.04753" lon="3.9484">
        <ele>93.87</ele>
        <time>2017-08-06T13:01:06Z</time>
      </trkpt>
      <trkpt lat="49.04749" lon="3.94835">
        <ele>94.35</ele>
        <time>2017-08-06T13:01:11Z</time>
      </trkpt>
      <trkpt lat="49.04747" lon="3.94834">
        <ele>94.35</ele>
        <time>2017-08-06T13:01:13Z</time>
      </trkpt>
      <trkpt lat="49.04742" lon="3.94835">
        <ele>94.35</ele>
        <time>2017-08-06T13:01:15Z</time>
      </trkpt>
      <trkpt lat="49.04739" lon="3.94839">
        <ele>94.35</ele>
        <time>2017-08-06T13:01:16Z</time>
      </trkpt>
      <trkpt lat="49.04737" lon="3.94844">
        <ele>94.35</ele>
        <time>2017-08-06T13:01:17Z</time>
      </trkpt>
      <trkpt lat="49.04735" lon="3.9485">
        <ele>93.39</ele>
        <time>2017-08-06T13:01:18Z</time>
      </trkpt>
      <trkpt lat="49.04732" lon="3.94855">
        <ele>93.39</ele>
        <time>2017-08-06T13:01:19Z</time>
      </trkpt>
      <trkpt lat="49.0473" lon="3.94862">
        <ele>92.42</ele>
        <time>2017-08-06T13:01:20Z</time>
      </trkpt>
      <trkpt lat="49.04709" lon="3.94922">
        <ele>89.54</ele>
        <time>2017-08-06T13:01:27Z</time>
      </trkpt>
      <trkpt lat="49.04698" lon="3.94954">
        <ele>87.62</ele>
        <time>2017-08-06T13:01:30Z</time>
      </trkpt>
      <trkpt lat="49.0466" lon="3.95038">
        <ele>85.69</ele>
        <time>2017-08-06T13:01:41Z</time>
      </trkpt>
      <trkpt lat="49.0466" lon="3.9504">
        <ele>85.69</ele>
        <time>2017-08-06T13:01:51Z</time>
      </trkpt>
      <trkpt lat="49.04656" lon="3.95056">
        <ele>85.69</ele>
        <time>2017-08-06T13:02:07Z</time>
      </trkpt>
      <trkpt lat="49.04631" lon="3.95101">
        <ele>84.25</ele>
        <time>2017-08-06T13:02:19Z</time>
      </trkpt>
      <trkpt lat="49.046" lon="3.9512">
        <ele>84.25</ele>
        <time>2017-08-06T13:02:29Z</time>
      </trkpt>
      <trkpt lat="49.0457" lon="3.95108">
        <ele>84.25</ele>
        <time>2017-08-06T13:02:40Z</time>
      </trkpt>
      <trkpt lat="49.04567" lon="3.95111">
        <ele>84.25</ele>
        <time>2017-08-06T13:02:59Z</time>
      </trkpt>
      <trkpt lat="49.04568" lon="3.95113">
        <ele>84.25</ele>
        <time>2017-08-06T13:03:04Z</time>
      </trkpt>
      <trkpt lat="49.04569" lon="3.95114">
        <ele>84.25</ele>
        <time>2017-08-06T13:03:06Z</time>
      </trkpt>
      <trkpt lat="49.04597" lon="3.95121">
        <ele>84.25</ele>
        <time>2017-08-06T13:03:16Z</time>
      </trkpt>
      <trkpt lat="49.04599" lon="3.95122">
        <ele>84.25</ele>
        <time>2017-08-06T13:03:17Z</time>
      </trkpt>
      <trkpt lat="49.046" lon="3.95125">
        <ele>84.25</ele>
        <time>2017-08-06T13:03:18Z</time>
      </trkpt>
      <trkpt lat="49.046" lon="3.95128">
        <ele>84.25</ele>
        <time>2017-08-06T13:03:19Z</time>
      </trkpt>
      <trkpt lat="49.04599" lon="3.95131">
        <ele>84.25</ele>
        <time>2017-08-06T13:03:20Z</time>
      </trkpt>
      <trkpt lat="49.04597" lon="3.95135">
        <ele>84.25</ele>
        <time>2017-08-06T13:03:21Z</time>
      </trkpt>
      <trkpt lat="49.04595" lon="3.95139">
        <ele>84.25</ele>
        <time>2017-08-06T13:03:22Z</time>
      </trkpt>
      <trkpt lat="49.04593" lon="3.95142">
        <ele>84.25</ele>
        <time>2017-08-06T13:03:23Z</time>
      </trkpt>
      <trkpt lat="49.04559" lon="3.95206">
        <ele>83.29</ele>
        <time>2017-08-06T13:03:37Z</time>
      </trkpt>
      <trkpt lat="49.04539" lon="3.95243">
        <ele>82.33</ele>
        <time>2017-08-06T13:03:47Z</time>
      </trkpt>
      <trkpt lat="49.04537" lon="3.95245">
        <ele>82.33</ele>
        <time>2017-08-06T13:03:48Z</time>
      </trkpt>
      <trkpt lat="49.04517" lon="3.95274">
        <ele>81.37</ele>
        <time>2017-08-06T13:03:56Z</time>
      </trkpt>
      <trkpt lat="49.04515" lon="3.9528">
        <ele>81.37</ele>
        <time>2017-08-06T13:03:57Z</time>
      </trkpt>
      <trkpt lat="49.04513" lon="3.95287">
        <ele>81.37</ele>
        <time>2017-08-06T13:03:58Z</time>
      </trkpt>
      <trkpt lat="49.04493" lon="3.95384">
        <ele>81.37</ele>
        <time>2017-08-06T13:04:14Z</time>
      </trkpt>
      <trkpt lat="49.04486" lon="3.95417">
        <ele>82.33</ele>
        <time>2017-08-06T13:04:21Z</time>
      </trkpt>
      <trkpt lat="49.04484" lon="3.95424">
        <ele>82.33</ele>
        <time>2017-08-06T13:04:23Z</time>
      </trkpt>
      <trkpt lat="49.04482" lon="3.95425">
        <ele>82.33</ele>
        <time>2017-08-06T13:04:24Z</time>
      </trkpt>
      <trkpt lat="49.04479" lon="3.95424">
        <ele>82.33</ele>
        <time>2017-08-06T13:04:25Z</time>
      </trkpt>
      <trkpt lat="49.04478" lon="3.95423">
        <ele>82.33</ele>
        <time>2017-08-06T13:04:26Z</time>
      </trkpt>
      <trkpt lat="49.04475" lon="3.95421">
        <ele>82.33</ele>
        <time>2017-08-06T13:04:27Z</time>
      </trkpt>
      <trkpt lat="49.04453" lon="3.95393">
        <ele>83.77</ele>
        <time>2017-08-06T13:04:38Z</time>
      </trkpt>
      <trkpt lat="49.04421" lon="3.95362">
        <ele>84.25</ele>
        <time>2017-08-06T13:04:51Z</time>
      </trkpt>
      <trkpt lat="49.04381" lon="3.95355">
        <ele>85.21</ele>
        <time>2017-08-06T13:05:07Z</time>
      </trkpt>
      <trkpt lat="49.0434" lon="3.95353">
        <ele>85.21</ele>
        <time>2017-08-06T13:05:20Z</time>
      </trkpt>
      <trkpt lat="49.04338" lon="3.95356">
        <ele>85.21</ele>
        <time>2017-08-06T13:05:21Z</time>
      </trkpt>
      <trkpt lat="49.04336" lon="3.95359">
        <ele>85.21</ele>
        <time>2017-08-06T13:05:22Z</time>
      </trkpt>
      <trkpt lat="49.04336" lon="3.95363">
        <ele>85.21</ele>
        <time>2017-08-06T13:05:23Z</time>
      </trkpt>
      <trkpt lat="49.04335" lon="3.95367">
        <ele>85.21</ele>
        <time>2017-08-06T13:05:24Z</time>
      </trkpt>
      <trkpt lat="49.04325" lon="3.95407">
        <ele>85.69</ele>
        <time>2017-08-06T13:05:34Z</time>
      </trkpt>
      <trkpt lat="49.04323" lon="3.95409">
        <ele>85.69</ele>
        <time>2017-08-06T13:05:35Z</time>
      </trkpt>
      <trkpt lat="49.04316" lon="3.95415">
        <ele>85.69</ele>
        <time>2017-08-06T13:05:38Z</time>
      </trkpt>
      <trkpt lat="49.04313" lon="3.95415">
        <ele>85.69</ele>
        <time>2017-08-06T13:05:39Z</time>
      </trkpt>
      <trkpt lat="49.0431" lon="3.95415">
        <ele>85.69</ele>
        <time>2017-08-06T13:05:40Z</time>
      </trkpt>
      <trkpt lat="49.04272" lon="3.95403">
        <ele>85.69</ele>
        <time>2017-08-06T13:05:52Z</time>
      </trkpt>
      <trkpt lat="49.04219" lon="3.9539">
        <ele>85.69</ele>
        <time>2017-08-06T13:06:06Z</time>
      </trkpt>
      <trkpt lat="49.04192" lon="3.95378">
        <ele>85.21</ele>
        <time>2017-08-06T13:06:14Z</time>
      </trkpt>
      <trkpt lat="49.04191" lon="3.95375">
        <ele>85.21</ele>
        <time>2017-08-06T13:06:15Z</time>
      </trkpt>
      <trkpt lat="49.04188" lon="3.95362">
        <ele>85.21</ele>
        <time>2017-08-06T13:06:20Z</time>
      </trkpt>
      <trkpt lat="49.04187" lon="3.95361">
        <ele>85.21</ele>
        <time>2017-08-06T13:06:21Z</time>
      </trkpt>
      <trkpt lat="49.04184" lon="3.9536">
        <ele>85.21</ele>
        <time>2017-08-06T13:06:22Z</time>
      </trkpt>
      <trkpt lat="49.04182" lon="3.9536">
        <ele>85.21</ele>
        <time>2017-08-06T13:06:23Z</time>
      </trkpt>
      <trkpt lat="49.0418" lon="3.95359">
        <ele>85.21</ele>
        <time>2017-08-06T13:06:24Z</time>
      </trkpt>
      <trkpt lat="49.04156" lon="3.95355">
        <ele>85.21</ele>
        <time>2017-08-06T13:06:32Z</time>
      </trkpt>
      <trkpt lat="49.04153" lon="3.95302">
        <ele>85.21</ele>
        <time>2017-08-06T13:06:45Z</time>
      </trkpt>
      <trkpt lat="49.04158" lon="3.95234">
        <ele>85.21</ele>
        <time>2017-08-06T13:06:58Z</time>
      </trkpt>
      <trkpt lat="49.04156" lon="3.95229">
        <ele>85.21</ele>
        <time>2017-08-06T13:06:59Z</time>
      </trkpt>
      <trkpt lat="49.04146" lon="3.95225">
        <ele>85.21</ele>
        <time>2017-08-06T13:07:02Z</time>
      </trkpt>
      <trkpt lat="49.0414" lon="3.95224">
        <ele>83.77</ele>
        <time>2017-08-06T13:07:04Z</time>
      </trkpt>
      <trkpt lat="49.04136" lon="3.95219">
        <ele>83.77</ele>
        <time>2017-08-06T13:07:06Z</time>
      </trkpt>
      <trkpt lat="49.04136" lon="3.95216">
        <ele>83.77</ele>
        <time>2017-08-06T13:07:07Z</time>
      </trkpt>
      <trkpt lat="49.04136" lon="3.95212">
        <ele>83.77</ele>
        <time>2017-08-06T13:07:08Z</time>
      </trkpt>
      <trkpt lat="49.04136" lon="3.95209">
        <ele>83.77</ele>
        <time>2017-08-06T13:07:09Z</time>
      </trkpt>
      <trkpt lat="49.04146" lon="3.95157">
        <ele>83.29</ele>
        <time>2017-08-06T13:07:22Z</time>
      </trkpt>
      <trkpt lat="49.04163" lon="3.95146">
        <ele>83.29</ele>
        <time>2017-08-06T13:07:30Z</time>
      </trkpt>
      <trkpt lat="49.04167" lon="3.95133">
        <ele>83.29</ele>
        <time>2017-08-06T13:07:34Z</time>
      </trkpt>
      <trkpt lat="49.04165" lon="3.95126">
        <ele>84.73</ele>
        <time>2017-08-06T13:07:47Z</time>
      </trkpt>
      <trkpt lat="49.04165" lon="3.95126">
        <ele>84.73</ele>
        <time>2017-08-06T13:08:06Z</time>
      </trkpt>
      <trkpt lat="49.04168" lon="3.95128">
        <ele>84.73</ele>
        <time>2017-08-06T13:08:37Z</time>
      </trkpt>
      <trkpt lat="49.04166" lon="3.95121">
        <ele>84.73</ele>
        <time>2017-08-06T13:08:58Z</time>
      </trkpt>
      <trkpt lat="49.0417" lon="3.95125">
        <ele>84.73</ele>
        <time>2017-08-06T13:09:20Z</time>
      </trkpt>
      <trkpt lat="49.04166" lon="3.95125">
        <ele>84.73</ele>
        <time>2017-08-06T13:09:56Z</time>
      </trkpt>
      <trkpt lat="49.04168" lon="3.95124">
        <ele>84.73</ele>
        <time>2017-08-06T13:10:21Z</time>
      </trkpt>
      <trkpt lat="49.04171" lon="3.95126">
        <ele>84.73</ele>
        <time>2017-08-06T13:10:32Z</time>
      </trkpt>
      <trkpt lat="49.04167" lon="3.95131">
        <ele>84.73</ele>
        <time>2017-08-06T13:10:35Z</time>
      </trkpt>
      <trkpt lat="49.04172" lon="3.95142">
        <ele>85.21</ele>
        <time>2017-08-06T13:10:44Z</time>
      </trkpt>
      <trkpt lat="49.04179" lon="3.95141">
        <ele>85.21</ele>
        <time>2017-08-06T13:10:47Z</time>
      </trkpt>
      <trkpt lat="49.04193" lon="3.95136">
        <ele>85.21</ele>
        <time>2017-08-06T13:10:52Z</time>
      </trkpt>
      <trkpt lat="49.04235" lon="3.95128">
        <ele>85.21</ele>
        <time>2017-08-06T13:11:04Z</time>
      </trkpt>
      <trkpt lat="49.04278" lon="3.95121">
        <ele>85.21</ele>
        <time>2017-08-06T13:11:16Z</time>
      </trkpt>
      <trkpt lat="49.04311" lon="3.95118">
        <ele>85.21</ele>
        <time>2017-08-06T13:11:24Z</time>
      </trkpt>
      <trkpt lat="49.04351" lon="3.95115">
        <ele>85.21</ele>
        <time>2017-08-06T13:11:34Z</time>
      </trkpt>
      <trkpt lat="49.04355" lon="3.95116">
        <ele>85.21</ele>
        <time>2017-08-06T13:11:35Z</time>
      </trkpt>
      <trkpt lat="49.04363" lon="3.95118">
        <ele>83.77</ele>
        <time>2017-08-06T13:11:37Z</time>
      </trkpt>
      <trkpt lat="49.04379" lon="3.95123">
        <ele>83.77</ele>
        <time>2017-08-06T13:11:41Z</time>
      </trkpt>
      <trkpt lat="49.04424" lon="3.95137">
        <ele>83.29</ele>
        <time>2017-08-06T13:11:54Z</time>
      </trkpt>
      <trkpt lat="49.04463" lon="3.95151">
        <ele>83.77</ele>
        <time>2017-08-06T13:12:06Z</time>
      </trkpt>
      <trkpt lat="49.04495" lon="3.95178">
        <ele>83.29</ele>
        <time>2017-08-06T13:12:15Z</time>
      </trkpt>
      <trkpt lat="49.04528" lon="3.95246">
        <ele>82.81</ele>
        <time>2017-08-06T13:12:28Z</time>
      </trkpt>
      <trkpt lat="49.04526" lon="3.95251">
        <ele>82.81</ele>
        <time>2017-08-06T13:12:29Z</time>
      </trkpt>
      <trkpt lat="49.04524" lon="3.95256">
        <ele>82.81</ele>
        <time>2017-08-06T13:12:30Z</time>
      </trkpt>
      <trkpt lat="49.04512" lon="3.95276">
        <ele>82.33</ele>
        <time>2017-08-06T13:12:34Z</time>
      </trkpt>
      <trkpt lat="49.0451" lon="3.95283">
        <ele>82.33</ele>
        <time>2017-08-06T13:12:35Z</time>
      </trkpt>
      <trkpt lat="49.04492" lon="3.95381">
        <ele>81.85</ele>
        <time>2017-08-06T13:12:51Z</time>
      </trkpt>
      <trkpt lat="49.04486" lon="3.9542">
        <ele>83.29</ele>
        <time>2017-08-06T13:12:59Z</time>
      </trkpt>
      <trkpt lat="49.04483" lon="3.95422">
        <ele>83.29</ele>
        <time>2017-08-06T13:13:00Z</time>
      </trkpt>
      <trkpt lat="49.04481" lon="3.95422">
        <ele>83.29</ele>
        <time>2017-08-06T13:13:01Z</time>
      </trkpt>
      <trkpt lat="49.04479" lon="3.95421">
        <ele>83.29</ele>
        <time>2017-08-06T13:13:02Z</time>
      </trkpt>
      <trkpt lat="49.04477" lon="3.95419">
        <ele>83.29</ele>
        <time>2017-08-06T13:13:03Z</time>
      </trkpt>
      <trkpt lat="49.04476" lon="3.95418">
        <ele>83.29</ele>
        <time>2017-08-06T13:13:04Z</time>
      </trkpt>
      <trkpt lat="49.04475" lon="3.95416">
        <ele>83.29</ele>
        <time>2017-08-06T13:13:05Z</time>
      </trkpt>
      <trkpt lat="49.04473" lon="3.95414">
        <ele>83.29</ele>
        <time>2017-08-06T13:13:06Z</time>
      </trkpt>
      <trkpt lat="49.04471" lon="3.95412">
        <ele>83.29</ele>
        <time>2017-08-06T13:13:07Z</time>
      </trkpt>
      <trkpt lat="49.04451" lon="3.95385">
        <ele>84.25</ele>
        <time>2017-08-06T13:13:19Z</time>
      </trkpt>
      <trkpt lat="49.04443" lon="3.95375">
        <ele>84.73</ele>
        <time>2017-08-06T13:13:23Z</time>
      </trkpt>
      <trkpt lat="49.04432" lon="3.95366">
        <ele>84.73</ele>
        <time>2017-08-06T13:13:36Z</time>
      </trkpt>
      <trkpt lat="49.0443" lon="3.95362">
        <ele>85.21</ele>
        <time>2017-08-06T13:14:09Z</time>
      </trkpt>
      <trkpt lat="49.04428" lon="3.95357">
        <ele>85.21</ele>
        <time>2017-08-06T13:14:21Z</time>
      </trkpt>
      <trkpt lat="49.04425" lon="3.9536">
        <ele>85.21</ele>
        <time>2017-08-06T13:14:26Z</time>
      </trkpt>
      <trkpt lat="49.04422" lon="3.95376">
        <ele>85.21</ele>
        <time>2017-08-06T13:14:39Z</time>
      </trkpt>
      <trkpt lat="49.04425" lon="3.95385">
        <ele>85.69</ele>
        <time>2017-08-06T13:14:57Z</time>
      </trkpt>
      <trkpt lat="49.04426" lon="3.95388">
        <ele>85.69</ele>
        <time>2017-08-06T13:15:35Z</time>
      </trkpt>
      <trkpt lat="49.04431" lon="3.95391">
        <ele>85.69</ele>
        <time>2017-08-06T13:15:48Z</time>
      </trkpt>
      <trkpt lat="49.04435" lon="3.95391">
        <ele>85.69</ele>
        <time>2017-08-06T13:16:06Z</time>
      </trkpt>
      <trkpt lat="49.04429" lon="3.95386">
        <ele>85.69</ele>
        <time>2017-08-06T13:16:48Z</time>
      </trkpt>
      <trkpt lat="49.04431" lon="3.95385">
        <ele>86.18</ele>
        <time>2017-08-06T13:17:18Z</time>
      </trkpt>
      <trkpt lat="49.0443" lon="3.95383">
        <ele>86.18</ele>
        <time>2017-08-06T13:17:43Z</time>
      </trkpt>
      <trkpt lat="49.04434" lon="3.95383">
        <ele>86.18</ele>
        <time>2017-08-06T13:18:14Z</time>
      </trkpt>
      <trkpt lat="49.04432" lon="3.95384">
        <ele>86.18</ele>
        <time>2017-08-06T13:18:39Z</time>
      </trkpt>
      <trkpt lat="49.04432" lon="3.95387">
        <ele>86.66</ele>
        <time>2017-08-06T13:19:01Z</time>
      </trkpt>
      <trkpt lat="49.04432" lon="3.95388">
        <ele>86.66</ele>
        <time>2017-08-06T13:19:24Z</time>
      </trkpt>
      <trkpt lat="49.04431" lon="3.95386">
        <ele>86.66</ele>
        <time>2017-08-06T13:19:52Z</time>
      </trkpt>
      <trkpt lat="49.04426" lon="3.95382">
        <ele>87.14</ele>
        <time>2017-08-06T13:20:19Z</time>
      </trkpt>
      <trkpt lat="49.04424" lon="3.95378">
        <ele>87.14</ele>
        <time>2017-08-06T13:20:40Z</time>
      </trkpt>
      <trkpt lat="49.04424" lon="3.9538">
        <ele>87.14</ele>
        <time>2017-08-06T13:20:56Z</time>
      </trkpt>
      <trkpt lat="49.04425" lon="3.95378">
        <ele>87.14</ele>
        <time>2017-08-06T13:21:13Z</time>
      </trkpt>
      <trkpt lat="49.04426" lon="3.95379">
        <ele>87.14</ele>
        <time>2017-08-06T13:21:39Z</time>
      </trkpt>
      <trkpt lat="49.04429" lon="3.95381">
        <ele>87.14</ele>
        <time>2017-08-06T13:21:54Z</time>
      </trkpt>
      <trkpt lat="49.04431" lon="3.95381">
        <ele>87.62</ele>
        <time>2017-08-06T13:22:11Z</time>
      </trkpt>
      <trkpt lat="49.04431" lon="3.95381">
        <ele>87.62</ele>
        <time>2017-08-06T13:22:26Z</time>
      </trkpt>
      <trkpt lat="49.0443" lon="3.95379">
        <ele>87.62</ele>
        <time>2017-08-06T13:22:40Z</time>
      </trkpt>
      <trkpt lat="49.04429" lon="3.9538">
        <ele>87.62</ele>
        <time>2017-08-06T13:22:54Z</time>
      </trkpt>
      <trkpt lat="49.04427" lon="3.9538">
        <ele>87.62</ele>
        <time>2017-08-06T13:23:12Z</time>
      </trkpt>
      <trkpt lat="49.04426" lon="3.95382">
        <ele>87.62</ele>
        <time>2017-08-06T13:23:29Z</time>
      </trkpt>
      <trkpt lat="49.04427" lon="3.95383">
        <ele>87.62</ele>
        <time>2017-08-06T13:23:46Z</time>
      </trkpt>
      <trkpt lat="49.04429" lon="3.95383">
        <ele>87.62</ele>
        <time>2017-08-06T13:24:04Z</time>
      </trkpt>
      <trkpt lat="49.04429" lon="3.95383">
        <ele>87.62</ele>
        <time>2017-08-06T13:24:20Z</time>
      </trkpt>
      <trkpt lat="49.04429" lon="3.95385">
        <ele>88.1</ele>
        <time>2017-08-06T13:24:36Z</time>
      </trkpt>
      <trkpt lat="49.04428" lon="3.95384">
        <ele>88.1</ele>
        <time>2017-08-06T13:24:55Z</time>
      </trkpt>
      <trkpt lat="49.04428" lon="3.95385">
        <ele>88.1</ele>
        <time>2017-08-06T13:25:15Z</time>
      </trkpt>
      <trkpt lat="49.04426" lon="3.95384">
        <ele>88.1</ele>
        <time>2017-08-06T13:25:33Z</time>
      </trkpt>
      <trkpt lat="49.04421" lon="3.95379">
        <ele>88.1</ele>
        <time>2017-08-06T13:25:52Z</time>
      </trkpt>
      <trkpt lat="49.04417" lon="3.95376">
        <ele>88.1</ele>
        <time>2017-08-06T13:26:08Z</time>
      </trkpt>
      <trkpt lat="49.04415" lon="3.95373">
        <ele>88.1</ele>
        <time>2017-08-06T13:26:33Z</time>
      </trkpt>
      <trkpt lat="49.04413" lon="3.95373">
        <ele>88.58</ele>
        <time>2017-08-06T13:26:57Z</time>
      </trkpt>
      <trkpt lat="49.04414" lon="3.95373">
        <ele>88.58</ele>
        <time>2017-08-06T13:27:18Z</time>
      </trkpt>
      <trkpt lat="49.04417" lon="3.95376">
        <ele>88.58</ele>
        <time>2017-08-06T13:27:40Z</time>
      </trkpt>
      <trkpt lat="49.04418" lon="3.95377">
        <ele>88.58</ele>
        <time>2017-08-06T13:27:59Z</time>
      </trkpt>
      <trkpt lat="49.0442" lon="3.95378">
        <ele>88.58</ele>
        <time>2017-08-06T13:28:18Z</time>
      </trkpt>
      <trkpt lat="49.04426" lon="3.95386">
        <ele>88.58</ele>
        <time>2017-08-06T13:28:49Z</time>
      </trkpt>
      <trkpt lat="49.04429" lon="3.95388">
        <ele>88.58</ele>
        <time>2017-08-06T13:29:19Z</time>
      </trkpt>
      <trkpt lat="49.04429" lon="3.95385">
        <ele>88.58</ele>
        <time>2017-08-06T13:29:43Z</time>
      </trkpt>
      <trkpt lat="49.04429" lon="3.95385">
        <ele>88.58</ele>
        <time>2017-08-06T13:30:10Z</time>
      </trkpt>
      <trkpt lat="49.04433" lon="3.95385">
        <ele>87.14</ele>
        <time>2017-08-06T13:30:37Z</time>
      </trkpt>
      <trkpt lat="49.04439" lon="3.95382">
        <ele>87.14</ele>
        <time>2017-08-06T13:31:09Z</time>
      </trkpt>
      <trkpt lat="49.04438" lon="3.95386">
        <ele>87.14</ele>
        <time>2017-08-06T13:31:38Z</time>
      </trkpt>
      <trkpt lat="49.04437" lon="3.95385">
        <ele>87.14</ele>
        <time>2017-08-06T13:32:01Z</time>
      </trkpt>
      <trkpt lat="49.04434" lon="3.95384">
        <ele>87.14</ele>
        <time>2017-08-06T13:32:23Z</time>
      </trkpt>
      <trkpt lat="49.04432" lon="3.95383">
        <ele>87.14</ele>
        <time>2017-08-06T13:32:52Z</time>
      </trkpt>
      <trkpt lat="49.0443" lon="3.9538">
        <ele>87.14</ele>
        <time>2017-08-06T13:33:23Z</time>
      </trkpt>
      <trkpt lat="49.04432" lon="3.9538">
        <ele>87.14</ele>
        <time>2017-08-06T13:33:48Z</time>
      </trkpt>
      <trkpt lat="49.04433" lon="3.95384">
        <ele>87.14</ele>
        <time>2017-08-06T13:34:15Z</time>
      </trkpt>
      <trkpt lat="49.04434" lon="3.95387">
        <ele>87.14</ele>
        <time>2017-08-06T13:34:40Z</time>
      </trkpt>
      <trkpt lat="49.04429" lon="3.95384">
        <ele>87.14</ele>
        <time>2017-08-06T13:35:03Z</time>
      </trkpt>
      <trkpt lat="49.04428" lon="3.95384">
        <ele>87.14</ele>
        <time>2017-08-06T13:35:32Z</time>
      </trkpt>
      <trkpt lat="49.04428" lon="3.95381">
        <ele>87.14</ele>
        <time>2017-08-06T13:36:02Z</time>
      </trkpt>
      <trkpt lat="49.0442" lon="3.9538">
        <ele>87.14</ele>
        <time>2017-08-06T13:36:36Z</time>
      </trkpt>
      <trkpt lat="49.04423" lon="3.95383">
        <ele>86.66</ele>
        <time>2017-08-06T13:37:05Z</time>
      </trkpt>
      <trkpt lat="49.04423" lon="3.95381">
        <ele>86.66</ele>
        <time>2017-08-06T13:37:39Z</time>
      </trkpt>
      <trkpt lat="49.04427" lon="3.9538">
        <ele>86.66</ele>
        <time>2017-08-06T13:38:02Z</time>
      </trkpt>
      <trkpt lat="49.04428" lon="3.95383">
        <ele>86.66</ele>
        <time>2017-08-06T13:38:38Z</time>
      </trkpt>
      <trkpt lat="49.04421" lon="3.9538">
        <ele>86.66</ele>
        <time>2017-08-06T13:39:14Z</time>
      </trkpt>
      <trkpt lat="49.04419" lon="3.9538">
        <ele>86.66</ele>
        <time>2017-08-06T13:39:44Z</time>
      </trkpt>
      <trkpt lat="49.0442" lon="3.95378">
        <ele>86.66</ele>
        <time>2017-08-06T13:39:46Z</time>
      </trkpt>
      <trkpt lat="49.04421" lon="3.95376">
        <ele>86.66</ele>
        <time>2017-08-06T13:39:47Z</time>
      </trkpt>
      <trkpt lat="49.04422" lon="3.95373">
        <ele>86.66</ele>
        <time>2017-08-06T13:39:48Z</time>
      </trkpt>
      <trkpt lat="49.04422" lon="3.95369">
        <ele>86.66</ele>
        <time>2017-08-06T13:39:49Z</time>
      </trkpt>
      <trkpt lat="49.04422" lon="3.95367">
        <ele>86.66</ele>
        <time>2017-08-06T13:39:50Z</time>
      </trkpt>
      <trkpt lat="49.04421" lon="3.95364">
        <ele>86.66</ele>
        <time>2017-08-06T13:39:51Z</time>
      </trkpt>
      <trkpt lat="49.04419" lon="3.95361">
        <ele>86.66</ele>
        <time>2017-08-06T13:39:52Z</time>
      </trkpt>
      <trkpt lat="49.04417" lon="3.95361">
        <ele>86.66</ele>
        <time>2017-08-06T13:39:53Z</time>
      </trkpt>
      <trkpt lat="49.04415" lon="3.95361">
        <ele>86.66</ele>
        <time>2017-08-06T13:39:54Z</time>
      </trkpt>
      <trkpt lat="49.04384" lon="3.95357">
        <ele>86.66</ele>
        <time>2017-08-06T13:40:06Z</time>
      </trkpt>
      <trkpt lat="49.04344" lon="3.95346">
        <ele>86.66</ele>
        <time>2017-08-06T13:40:20Z</time>
      </trkpt>
      <trkpt lat="49.04343" lon="3.95341">
        <ele>86.66</ele>
        <time>2017-08-06T13:40:21Z</time>
      </trkpt>
      <trkpt lat="49.04343" lon="3.95336">
        <ele>86.66</ele>
        <time>2017-08-06T13:40:22Z</time>
      </trkpt>
      <trkpt lat="49.04344" lon="3.95333">
        <ele>86.66</ele>
        <time>2017-08-06T13:40:23Z</time>
      </trkpt>
      <trkpt lat="49.04345" lon="3.95329">
        <ele>86.66</ele>
        <time>2017-08-06T13:40:24Z</time>
      </trkpt>
      <trkpt lat="49.04345" lon="3.95324">
        <ele>86.66</ele>
        <time>2017-08-06T13:40:25Z</time>
      </trkpt>
      <trkpt lat="49.04346" lon="3.953">
        <ele>86.66</ele>
        <time>2017-08-06T13:40:31Z</time>
      </trkpt>
      <trkpt lat="49.04344" lon="3.953">
        <ele>86.66</ele>
        <time>2017-08-06T13:40:32Z</time>
      </trkpt>
      <trkpt lat="49.04342" lon="3.95302">
        <ele>86.66</ele>
        <time>2017-08-06T13:40:33Z</time>
      </trkpt>
      <trkpt lat="49.04341" lon="3.95305">
        <ele>86.66</ele>
        <time>2017-08-06T13:40:34Z</time>
      </trkpt>
      <trkpt lat="49.04341" lon="3.95308">
        <ele>86.66</ele>
        <time>2017-08-06T13:40:35Z</time>
      </trkpt>
      <trkpt lat="49.0434" lon="3.95311">
        <ele>86.66</ele>
        <time>2017-08-06T13:40:36Z</time>
      </trkpt>
      <trkpt lat="49.0434" lon="3.95315">
        <ele>86.66</ele>
        <time>2017-08-06T13:40:37Z</time>
      </trkpt>
      <trkpt lat="49.0434" lon="3.95319">
        <ele>86.66</ele>
        <time>2017-08-06T13:40:38Z</time>
      </trkpt>
      <trkpt lat="49.0434" lon="3.95322">
        <ele>86.66</ele>
        <time>2017-08-06T13:40:39Z</time>
      </trkpt>
      <trkpt lat="49.04339" lon="3.95325">
        <ele>86.66</ele>
        <time>2017-08-06T13:40:40Z</time>
      </trkpt>
      <trkpt lat="49.04338" lon="3.95329">
        <ele>86.66</ele>
        <time>2017-08-06T13:40:41Z</time>
      </trkpt>
      <trkpt lat="49.04338" lon="3.95333">
        <ele>86.66</ele>
        <time>2017-08-06T13:40:42Z</time>
      </trkpt>
      <trkpt lat="49.04335" lon="3.95339">
        <ele>87.62</ele>
        <time>2017-08-06T13:40:44Z</time>
      </trkpt>
      <trkpt lat="49.04332" lon="3.95342">
        <ele>87.62</ele>
        <time>2017-08-06T13:40:46Z</time>
      </trkpt>
      <trkpt lat="49.04331" lon="3.95344">
        <ele>87.62</ele>
        <time>2017-08-06T13:40:47Z</time>
      </trkpt>
      <trkpt lat="49.0433" lon="3.95347">
        <ele>87.62</ele>
        <time>2017-08-06T13:40:48Z</time>
      </trkpt>
      <trkpt lat="49.0433" lon="3.95349">
        <ele>87.62</ele>
        <time>2017-08-06T13:40:49Z</time>
      </trkpt>
      <trkpt lat="49.04329" lon="3.95351">
        <ele>87.62</ele>
        <time>2017-08-06T13:40:50Z</time>
      </trkpt>
      <trkpt lat="49.04325" lon="3.95384">
        <ele>88.1</ele>
        <time>2017-08-06T13:41:03Z</time>
      </trkpt>
      <trkpt lat="49.04321" lon="3.95403">
        <ele>88.1</ele>
        <time>2017-08-06T13:41:10Z</time>
      </trkpt>
      <trkpt lat="49.04322" lon="3.95405">
        <ele>88.1</ele>
        <time>2017-08-06T13:41:11Z</time>
      </trkpt>
      <trkpt lat="49.04323" lon="3.95408">
        <ele>88.1</ele>
        <time>2017-08-06T13:41:12Z</time>
      </trkpt>
      <trkpt lat="49.04323" lon="3.9541">
        <ele>88.1</ele>
        <time>2017-08-06T13:41:13Z</time>
      </trkpt>
      <trkpt lat="49.04324" lon="3.95412">
        <ele>88.1</ele>
        <time>2017-08-06T13:41:14Z</time>
      </trkpt>
      <trkpt lat="49.04326" lon="3.95412">
        <ele>88.1</ele>
        <time>2017-08-06T13:41:15Z</time>
      </trkpt>
      <trkpt lat="49.04326" lon="3.95411">
        <ele>88.1</ele>
        <time>2017-08-06T13:41:16Z</time>
      </trkpt>
      <trkpt lat="49.04327" lon="3.95409">
        <ele>88.1</ele>
        <time>2017-08-06T13:41:17Z</time>
      </trkpt>
      <trkpt lat="49.0433" lon="3.95398">
        <ele>88.1</ele>
        <time>2017-08-06T13:41:24Z</time>
      </trkpt>
      <trkpt lat="49.0433" lon="3.95396">
        <ele>88.1</ele>
        <time>2017-08-06T13:41:25Z</time>
      </trkpt>
      <trkpt lat="49.0433" lon="3.95394">
        <ele>88.1</ele>
        <time>2017-08-06T13:41:26Z</time>
      </trkpt>
      <trkpt lat="49.04333" lon="3.95374">
        <ele>88.1</ele>
        <time>2017-08-06T13:41:35Z</time>
      </trkpt>
      <trkpt lat="49.04334" lon="3.95374">
        <ele>88.1</ele>
        <time>2017-08-06T13:41:36Z</time>
      </trkpt>
      <trkpt lat="49.04335" lon="3.95376">
        <ele>88.1</ele>
        <time>2017-08-06T13:41:37Z</time>
      </trkpt>
      <trkpt lat="49.04335" lon="3.95379">
        <ele>88.1</ele>
        <time>2017-08-06T13:41:38Z</time>
      </trkpt>
      <trkpt lat="49.04334" lon="3.95383">
        <ele>88.1</ele>
        <time>2017-08-06T13:41:39Z</time>
      </trkpt>
      <trkpt lat="49.04333" lon="3.95386">
        <ele>88.1</ele>
        <time>2017-08-06T13:41:40Z</time>
      </trkpt>
      <trkpt lat="49.04311" lon="3.95417">
        <ele>88.1</ele>
        <time>2017-08-06T13:41:52Z</time>
      </trkpt>
      <trkpt lat="49.04269" lon="3.95406">
        <ele>88.58</ele>
        <time>2017-08-06T13:42:04Z</time>
      </trkpt>
      <trkpt lat="49.0423" lon="3.95395">
        <ele>88.58</ele>
        <time>2017-08-06T13:42:14Z</time>
      </trkpt>
      <trkpt lat="49.04226" lon="3.95394">
        <ele>88.58</ele>
        <time>2017-08-06T13:42:15Z</time>
      </trkpt>
      <trkpt lat="49.04189" lon="3.95382">
        <ele>88.1</ele>
        <time>2017-08-06T13:42:24Z</time>
      </trkpt>
      <trkpt lat="49.04168" lon="3.95376">
        <ele>87.14</ele>
        <time>2017-08-06T13:42:29Z</time>
      </trkpt>
      <trkpt lat="49.04164" lon="3.95374">
        <ele>87.14</ele>
        <time>2017-08-06T13:42:30Z</time>
      </trkpt>
      <trkpt lat="49.04124" lon="3.95354">
        <ele>87.14</ele>
        <time>2017-08-06T13:42:41Z</time>
      </trkpt>
      <trkpt lat="49.04123" lon="3.95349">
        <ele>87.14</ele>
        <time>2017-08-06T13:42:42Z</time>
      </trkpt>
      <trkpt lat="49.04123" lon="3.95343">
        <ele>87.14</ele>
        <time>2017-08-06T13:42:43Z</time>
      </trkpt>
      <trkpt lat="49.04124" lon="3.95338">
        <ele>87.14</ele>
        <time>2017-08-06T13:42:44Z</time>
      </trkpt>
      <trkpt lat="49.04124" lon="3.95333">
        <ele>87.14</ele>
        <time>2017-08-06T13:42:45Z</time>
      </trkpt>
      <trkpt lat="49.04134" lon="3.95227">
        <ele>87.14</ele>
        <time>2017-08-06T13:43:02Z</time>
      </trkpt>
      <trkpt lat="49.04144" lon="3.95158">
        <ele>87.14</ele>
        <time>2017-08-06T13:43:15Z</time>
      </trkpt>
      <trkpt lat="49.04145" lon="3.95157">
        <ele>87.14</ele>
        <time>2017-08-06T13:43:30Z</time>
      </trkpt>
      <trkpt lat="49.04163" lon="3.95141">
        <ele>87.14</ele>
        <time>2017-08-06T13:43:46Z</time>
      </trkpt>
      <trkpt lat="49.0417" lon="3.95114">
        <ele>88.1</ele>
        <time>2017-08-06T13:43:52Z</time>
      </trkpt>
      <trkpt lat="49.04177" lon="3.95051">
        <ele>90.5</ele>
        <time>2017-08-06T13:44:09Z</time>
      </trkpt>
      <trkpt lat="49.04179" lon="3.95008">
        <ele>91.94</ele>
        <time>2017-08-06T13:44:23Z</time>
      </trkpt>
      <trkpt lat="49.04183" lon="3.94961">
        <ele>94.35</ele>
        <time>2017-08-06T13:44:41Z</time>
      </trkpt>
      <trkpt lat="49.04186" lon="3.94919">
        <ele>96.75</ele>
        <time>2017-08-06T13:44:59Z</time>
      </trkpt>
      <trkpt lat="49.04187" lon="3.94875">
        <ele>99.63</ele>
        <time>2017-08-06T13:45:16Z</time>
      </trkpt>
      <trkpt lat="49.0419" lon="3.94827">
        <ele>102.04</ele>
        <time>2017-08-06T13:45:34Z</time>
      </trkpt>
      <trkpt lat="49.04191" lon="3.94805">
        <ele>103.48</ele>
        <time>2017-08-06T13:45:43Z</time>
      </trkpt>
      <trkpt lat="49.04191" lon="3.94802">
        <ele>103.48</ele>
        <time>2017-08-06T13:45:44Z</time>
      </trkpt>
      <trkpt lat="49.04191" lon="3.948">
        <ele>103.48</ele>
        <time>2017-08-06T13:45:45Z</time>
      </trkpt>
      <trkpt lat="49.04192" lon="3.94757">
        <ele>106.36</ele>
        <time>2017-08-06T13:46:02Z</time>
      </trkpt>
      <trkpt lat="49.04196" lon="3.94722">
        <ele>107.81</ele>
        <time>2017-08-06T13:46:18Z</time>
      </trkpt>
      <trkpt lat="49.04198" lon="3.94689">
        <ele>109.73</ele>
        <time>2017-08-06T13:46:33Z</time>
      </trkpt>
      <trkpt lat="49.04197" lon="3.94676">
        <ele>110.69</ele>
        <time>2017-08-06T13:46:39Z</time>
      </trkpt>
      <trkpt lat="49.04197" lon="3.94673">
        <ele>110.69</ele>
        <time>2017-08-06T13:46:40Z</time>
      </trkpt>
      <trkpt lat="49.04196" lon="3.94671">
        <ele>110.69</ele>
        <time>2017-08-06T13:46:41Z</time>
      </trkpt>
      <trkpt lat="49.04195" lon="3.94669">
        <ele>111.17</ele>
        <time>2017-08-06T13:46:42Z</time>
      </trkpt>
      <trkpt lat="49.04193" lon="3.94667">
        <ele>111.17</ele>
        <time>2017-08-06T13:46:43Z</time>
      </trkpt>
      <trkpt lat="49.04192" lon="3.94666">
        <ele>111.17</ele>
        <time>2017-08-06T13:46:44Z</time>
      </trkpt>
      <trkpt lat="49.04158" lon="3.94663">
        <ele>111.17</ele>
        <time>2017-08-06T13:46:56Z</time>
      </trkpt>
      <trkpt lat="49.04154" lon="3.94663">
        <ele>111.17</ele>
        <time>2017-08-06T13:46:57Z</time>
      </trkpt>
      <trkpt lat="49.04113" lon="3.94667">
        <ele>109.73</ele>
        <time>2017-08-06T13:47:07Z</time>
      </trkpt>
      <trkpt lat="49.04089" lon="3.94655">
        <ele>109.25</ele>
        <time>2017-08-06T13:47:18Z</time>
      </trkpt>
      <trkpt lat="49.04089" lon="3.94646">
        <ele>110.69</ele>
        <time>2017-08-06T13:47:23Z</time>
      </trkpt>
      <trkpt lat="49.04088" lon="3.94647">
        <ele>110.69</ele>
        <time>2017-08-06T13:47:26Z</time>
      </trkpt>
      <trkpt lat="49.04086" lon="3.94649">
        <ele>110.69</ele>
        <time>2017-08-06T13:47:27Z</time>
      </trkpt>
      <trkpt lat="49.04085" lon="3.9465">
        <ele>110.69</ele>
        <time>2017-08-06T13:47:28Z</time>
      </trkpt>
      <trkpt lat="49.04083" lon="3.9465">
        <ele>110.69</ele>
        <time>2017-08-06T13:47:29Z</time>
      </trkpt>
      <trkpt lat="49.04082" lon="3.94648">
        <ele>110.69</ele>
        <time>2017-08-06T13:47:30Z</time>
      </trkpt>
      <trkpt lat="49.04081" lon="3.94646">
        <ele>110.69</ele>
        <time>2017-08-06T13:47:31Z</time>
      </trkpt>
      <trkpt lat="49.04071" lon="3.9463">
        <ele>112.13</ele>
        <time>2017-08-06T13:47:41Z</time>
      </trkpt>
      <trkpt lat="49.0407" lon="3.94627">
        <ele>112.13</ele>
        <time>2017-08-06T13:47:42Z</time>
      </trkpt>
      <trkpt lat="49.0407" lon="3.94626">
        <ele>112.61</ele>
        <time>2017-08-06T13:47:43Z</time>
      </trkpt>
      <trkpt lat="49.04069" lon="3.94625">
        <ele>112.61</ele>
        <time>2017-08-06T13:47:44Z</time>
      </trkpt>
      <trkpt lat="49.04068" lon="3.94623">
        <ele>112.61</ele>
        <time>2017-08-06T13:47:45Z</time>
      </trkpt>
      <trkpt lat="49.04068" lon="3.94621">
        <ele>113.09</ele>
        <time>2017-08-06T13:47:46Z</time>
      </trkpt>
      <trkpt lat="49.04067" lon="3.94619">
        <ele>113.09</ele>
        <time>2017-08-06T13:47:47Z</time>
      </trkpt>
      <trkpt lat="49.04065" lon="3.94618">
        <ele>113.09</ele>
        <time>2017-08-06T13:47:48Z</time>
      </trkpt>
      <trkpt lat="49.04064" lon="3.94616">
        <ele>113.09</ele>
        <time>2017-08-06T13:47:49Z</time>
      </trkpt>
      <trkpt lat="49.04064" lon="3.94614">
        <ele>113.57</ele>
        <time>2017-08-06T13:47:50Z</time>
      </trkpt>
      <trkpt lat="49.04064" lon="3.94612">
        <ele>113.57</ele>
        <time>2017-08-06T13:47:51Z</time>
      </trkpt>
      <trkpt lat="49.04063" lon="3.9461">
        <ele>113.57</ele>
        <time>2017-08-06T13:47:52Z</time>
      </trkpt>
      <trkpt lat="49.04062" lon="3.94609">
        <ele>114.05</ele>
        <time>2017-08-06T13:47:53Z</time>
      </trkpt>
      <trkpt lat="49.04062" lon="3.94607">
        <ele>114.05</ele>
        <time>2017-08-06T13:47:54Z</time>
      </trkpt>
      <trkpt lat="49.04061" lon="3.94604">
        <ele>114.53</ele>
        <time>2017-08-06T13:47:55Z</time>
      </trkpt>
      <trkpt lat="49.04061" lon="3.94602">
        <ele>114.53</ele>
        <time>2017-08-06T13:47:56Z</time>
      </trkpt>
      <trkpt lat="49.0406" lon="3.946">
        <ele>114.53</ele>
        <time>2017-08-06T13:47:57Z</time>
      </trkpt>
      <trkpt lat="49.04059" lon="3.94598">
        <ele>115.01</ele>
        <time>2017-08-06T13:47:58Z</time>
      </trkpt>
      <trkpt lat="49.04057" lon="3.94592">
        <ele>115.98</ele>
        <time>2017-08-06T13:48:01Z</time>
      </trkpt>
      <trkpt lat="49.04056" lon="3.9459">
        <ele>115.98</ele>
        <time>2017-08-06T13:48:02Z</time>
      </trkpt>
      <trkpt lat="49.04056" lon="3.94589">
        <ele>115.98</ele>
        <time>2017-08-06T13:48:03Z</time>
      </trkpt>
      <trkpt lat="49.04055" lon="3.94586">
        <ele>115.98</ele>
        <time>2017-08-06T13:48:04Z</time>
      </trkpt>
      <trkpt lat="49.04055" lon="3.94584">
        <ele>116.46</ele>
        <time>2017-08-06T13:48:05Z</time>
      </trkpt>
      <trkpt lat="49.04055" lon="3.94582">
        <ele>116.46</ele>
        <time>2017-08-06T13:48:06Z</time>
      </trkpt>
      <trkpt lat="49.04055" lon="3.94579">
        <ele>116.46</ele>
        <time>2017-08-06T13:48:07Z</time>
      </trkpt>
      <trkpt lat="49.04055" lon="3.94577">
        <ele>116.94</ele>
        <time>2017-08-06T13:48:08Z</time>
      </trkpt>
      <trkpt lat="49.04054" lon="3.9457">
        <ele>117.42</ele>
        <time>2017-08-06T13:48:11Z</time>
      </trkpt>
      <trkpt lat="49.04054" lon="3.94569">
        <ele>117.42</ele>
        <time>2017-08-06T13:48:12Z</time>
      </trkpt>
      <trkpt lat="49.04053" lon="3.94567">
        <ele>117.42</ele>
        <time>2017-08-06T13:48:13Z</time>
      </trkpt>
      <trkpt lat="49.04052" lon="3.94565">
        <ele>117.42</ele>
        <time>2017-08-06T13:48:14Z</time>
      </trkpt>
      <trkpt lat="49.04053" lon="3.94563">
        <ele>117.9</ele>
        <time>2017-08-06T13:48:15Z</time>
      </trkpt>
      <trkpt lat="49.04053" lon="3.94561">
        <ele>117.9</ele>
        <time>2017-08-06T13:48:16Z</time>
      </trkpt>
      <trkpt lat="49.04052" lon="3.94559">
        <ele>118.38</ele>
        <time>2017-08-06T13:48:17Z</time>
      </trkpt>
      <trkpt lat="49.04051" lon="3.94557">
        <ele>118.38</ele>
        <time>2017-08-06T13:48:18Z</time>
      </trkpt>
      <trkpt lat="49.0405" lon="3.94557">
        <ele>118.38</ele>
        <time>2017-08-06T13:48:19Z</time>
      </trkpt>
      <trkpt lat="49.04049" lon="3.94556">
        <ele>118.38</ele>
        <time>2017-08-06T13:48:20Z</time>
      </trkpt>
      <trkpt lat="49.04048" lon="3.94555">
        <ele>118.86</ele>
        <time>2017-08-06T13:48:21Z</time>
      </trkpt>
      <trkpt lat="49.04048" lon="3.94552">
        <ele>118.86</ele>
        <time>2017-08-06T13:48:22Z</time>
      </trkpt>
      <trkpt lat="49.04048" lon="3.9455">
        <ele>119.34</ele>
        <time>2017-08-06T13:48:23Z</time>
      </trkpt>
      <trkpt lat="49.04049" lon="3.94548">
        <ele>119.34</ele>
        <time>2017-08-06T13:48:24Z</time>
      </trkpt>
      <trkpt lat="49.04049" lon="3.94546">
        <ele>119.82</ele>
        <time>2017-08-06T13:48:25Z</time>
      </trkpt>
      <trkpt lat="49.04048" lon="3.94544">
        <ele>119.82</ele>
        <time>2017-08-06T13:48:26Z</time>
      </trkpt>
      <trkpt lat="49.04047" lon="3.94543">
        <ele>119.82</ele>
        <time>2017-08-06T13:48:27Z</time>
      </trkpt>
      <trkpt lat="49.04046" lon="3.94542">
        <ele>120.3</ele>
        <time>2017-08-06T13:48:28Z</time>
      </trkpt>
      <trkpt lat="49.04046" lon="3.9454">
        <ele>120.3</ele>
        <time>2017-08-06T13:48:29Z</time>
      </trkpt>
      <trkpt lat="49.04046" lon="3.94538">
        <ele>120.78</ele>
        <time>2017-08-06T13:48:30Z</time>
      </trkpt>
      <trkpt lat="49.04046" lon="3.94536">
        <ele>120.78</ele>
        <time>2017-08-06T13:48:31Z</time>
      </trkpt>
      <trkpt lat="49.04045" lon="3.94524">
        <ele>122.22</ele>
        <time>2017-08-06T13:48:36Z</time>
      </trkpt>
      <trkpt lat="49.04044" lon="3.94523">
        <ele>122.22</ele>
        <time>2017-08-06T13:48:37Z</time>
      </trkpt>
      <trkpt lat="49.04043" lon="3.94522">
        <ele>122.71</ele>
        <time>2017-08-06T13:48:38Z</time>
      </trkpt>
      <trkpt lat="49.04042" lon="3.94521">
        <ele>122.71</ele>
        <time>2017-08-06T13:48:39Z</time>
      </trkpt>
      <trkpt lat="49.04042" lon="3.94519">
        <ele>122.22</ele>
        <time>2017-08-06T13:48:40Z</time>
      </trkpt>
      <trkpt lat="49.04041" lon="3.94517">
        <ele>122.71</ele>
        <time>2017-08-06T13:48:41Z</time>
      </trkpt>
      <trkpt lat="49.04041" lon="3.94515">
        <ele>122.71</ele>
        <time>2017-08-06T13:48:42Z</time>
      </trkpt>
      <trkpt lat="49.04041" lon="3.94513">
        <ele>122.71</ele>
        <time>2017-08-06T13:48:43Z</time>
      </trkpt>
      <trkpt lat="49.04041" lon="3.9451">
        <ele>122.71</ele>
        <time>2017-08-06T13:48:44Z</time>
      </trkpt>
      <trkpt lat="49.04041" lon="3.94509">
        <ele>123.67</ele>
        <time>2017-08-06T13:48:45Z</time>
      </trkpt>
      <trkpt lat="49.0404" lon="3.94507">
        <ele>123.67</ele>
        <time>2017-08-06T13:48:46Z</time>
      </trkpt>
      <trkpt lat="49.04039" lon="3.94505">
        <ele>123.67</ele>
        <time>2017-08-06T13:48:47Z</time>
      </trkpt>
      <trkpt lat="49.0404" lon="3.94503">
        <ele>124.15</ele>
        <time>2017-08-06T13:48:48Z</time>
      </trkpt>
      <trkpt lat="49.0404" lon="3.945">
        <ele>124.15</ele>
        <time>2017-08-06T13:48:49Z</time>
      </trkpt>
      <trkpt lat="49.0404" lon="3.94498">
        <ele>124.63</ele>
        <time>2017-08-06T13:48:50Z</time>
      </trkpt>
      <trkpt lat="49.04039" lon="3.94496">
        <ele>124.63</ele>
        <time>2017-08-06T13:48:51Z</time>
      </trkpt>
      <trkpt lat="49.04038" lon="3.94494">
        <ele>125.11</ele>
        <time>2017-08-06T13:48:52Z</time>
      </trkpt>
      <trkpt lat="49.04038" lon="3.94492">
        <ele>125.11</ele>
        <time>2017-08-06T13:48:53Z</time>
      </trkpt>
      <trkpt lat="49.04039" lon="3.94489">
        <ele>125.11</ele>
        <time>2017-08-06T13:48:54Z</time>
      </trkpt>
      <trkpt lat="49.04039" lon="3.94487">
        <ele>125.59</ele>
        <time>2017-08-06T13:48:55Z</time>
      </trkpt>
      <trkpt lat="49.04039" lon="3.94485">
        <ele>125.59</ele>
        <time>2017-08-06T13:48:56Z</time>
      </trkpt>
      <trkpt lat="49.04038" lon="3.94483">
        <ele>126.07</ele>
        <time>2017-08-06T13:48:57Z</time>
      </trkpt>
      <trkpt lat="49.04038" lon="3.9448">
        <ele>126.07</ele>
        <time>2017-08-06T13:48:58Z</time>
      </trkpt>
      <trkpt lat="49.04038" lon="3.94478">
        <ele>126.55</ele>
        <time>2017-08-06T13:48:59Z</time>
      </trkpt>
      <trkpt lat="49.04037" lon="3.94477">
        <ele>126.55</ele>
        <time>2017-08-06T13:49:00Z</time>
      </trkpt>
      <trkpt lat="49.04037" lon="3.94475">
        <ele>126.55</ele>
        <time>2017-08-06T13:49:01Z</time>
      </trkpt>
      <trkpt lat="49.04037" lon="3.94473">
        <ele>127.03</ele>
        <time>2017-08-06T13:49:02Z</time>
      </trkpt>
      <trkpt lat="49.04038" lon="3.94471">
        <ele>127.03</ele>
        <time>2017-08-06T13:49:03Z</time>
      </trkpt>
      <trkpt lat="49.04037" lon="3.94469">
        <ele>127.99</ele>
        <time>2017-08-06T13:49:04Z</time>
      </trkpt>
      <trkpt lat="49.04036" lon="3.94467">
        <ele>127.99</ele>
        <time>2017-08-06T13:49:05Z</time>
      </trkpt>
      <trkpt lat="49.04036" lon="3.94465">
        <ele>127.99</ele>
        <time>2017-08-06T13:49:06Z</time>
      </trkpt>
      <trkpt lat="49.04036" lon="3.94463">
        <ele>127.99</ele>
        <time>2017-08-06T13:49:07Z</time>
      </trkpt>
      <trkpt lat="49.04037" lon="3.94461">
        <ele>128.47</ele>
        <time>2017-08-06T13:49:08Z</time>
      </trkpt>
      <trkpt lat="49.04037" lon="3.94459">
        <ele>128.95</ele>
        <time>2017-08-06T13:49:09Z</time>
      </trkpt>
      <trkpt lat="49.04037" lon="3.94457">
        <ele>128.95</ele>
        <time>2017-08-06T13:49:10Z</time>
      </trkpt>
      <trkpt lat="49.04036" lon="3.94451">
        <ele>128.95</ele>
        <time>2017-08-06T13:49:13Z</time>
      </trkpt>
      <trkpt lat="49.04036" lon="3.94449">
        <ele>128.95</ele>
        <time>2017-08-06T13:49:14Z</time>
      </trkpt>
      <trkpt lat="49.04037" lon="3.94447">
        <ele>129.43</ele>
        <time>2017-08-06T13:49:15Z</time>
      </trkpt>
      <trkpt lat="49.04036" lon="3.94445">
        <ele>129.92</ele>
        <time>2017-08-06T13:49:16Z</time>
      </trkpt>
      <trkpt lat="49.04036" lon="3.94443">
        <ele>129.92</ele>
        <time>2017-08-06T13:49:17Z</time>
      </trkpt>
      <trkpt lat="49.04035" lon="3.94442">
        <ele>129.92</ele>
        <time>2017-08-06T13:49:18Z</time>
      </trkpt>
      <trkpt lat="49.04034" lon="3.94441">
        <ele>129.92</ele>
        <time>2017-08-06T13:49:19Z</time>
      </trkpt>
      <trkpt lat="49.04034" lon="3.94439">
        <ele>130.4</ele>
        <time>2017-08-06T13:49:20Z</time>
      </trkpt>
      <trkpt lat="49.04034" lon="3.94437">
        <ele>130.4</ele>
        <time>2017-08-06T13:49:21Z</time>
      </trkpt>
      <trkpt lat="49.04035" lon="3.94435">
        <ele>130.88</ele>
        <time>2017-08-06T13:49:22Z</time>
      </trkpt>
      <trkpt lat="49.04034" lon="3.94433">
        <ele>130.88</ele>
        <time>2017-08-06T13:49:23Z</time>
      </trkpt>
      <trkpt lat="49.04033" lon="3.94432">
        <ele>130.88</ele>
        <time>2017-08-06T13:49:24Z</time>
      </trkpt>
      <trkpt lat="49.04032" lon="3.94429">
        <ele>131.36</ele>
        <time>2017-08-06T13:49:26Z</time>
      </trkpt>
      <trkpt lat="49.04032" lon="3.94427">
        <ele>131.84</ele>
        <time>2017-08-06T13:49:27Z</time>
      </trkpt>
      <trkpt lat="49.04033" lon="3.94425">
        <ele>131.84</ele>
        <time>2017-08-06T13:49:28Z</time>
      </trkpt>
      <trkpt lat="49.04033" lon="3.94423">
        <ele>132.32</ele>
        <time>2017-08-06T13:49:29Z</time>
      </trkpt>
      <trkpt lat="49.04032" lon="3.94422">
        <ele>132.32</ele>
        <time>2017-08-06T13:49:30Z</time>
      </trkpt>
      <trkpt lat="49.04031" lon="3.9442">
        <ele>132.32</ele>
        <time>2017-08-06T13:49:31Z</time>
      </trkpt>
      <trkpt lat="49.04031" lon="3.94419">
        <ele>132.32</ele>
        <time>2017-08-06T13:49:32Z</time>
      </trkpt>
      <trkpt lat="49.04031" lon="3.94418">
        <ele>132.8</ele>
        <time>2017-08-06T13:49:33Z</time>
      </trkpt>
      <trkpt lat="49.04031" lon="3.94416">
        <ele>132.8</ele>
        <time>2017-08-06T13:49:34Z</time>
      </trkpt>
      <trkpt lat="49.04031" lon="3.94414">
        <ele>133.28</ele>
        <time>2017-08-06T13:49:35Z</time>
      </trkpt>
      <trkpt lat="49.0403" lon="3.94414">
        <ele>133.28</ele>
        <time>2017-08-06T13:49:36Z</time>
      </trkpt>
      <trkpt lat="49.04029" lon="3.94412">
        <ele>133.28</ele>
        <time>2017-08-06T13:49:37Z</time>
      </trkpt>
      <trkpt lat="49.04028" lon="3.94411">
        <ele>133.76</ele>
        <time>2017-08-06T13:49:38Z</time>
      </trkpt>
      <trkpt lat="49.04028" lon="3.94408">
        <ele>133.76</ele>
        <time>2017-08-06T13:49:39Z</time>
      </trkpt>
      <trkpt lat="49.04029" lon="3.94407">
        <ele>134.24</ele>
        <time>2017-08-06T13:49:40Z</time>
      </trkpt>
      <trkpt lat="49.0403" lon="3.94406">
        <ele>134.24</ele>
        <time>2017-08-06T13:49:41Z</time>
      </trkpt>
      <trkpt lat="49.04031" lon="3.94405">
        <ele>134.24</ele>
        <time>2017-08-06T13:49:42Z</time>
      </trkpt>
      <trkpt lat="49.04033" lon="3.94404">
        <ele>134.72</ele>
        <time>2017-08-06T13:49:43Z</time>
      </trkpt>
      <trkpt lat="49.04034" lon="3.94403">
        <ele>134.72</ele>
        <time>2017-08-06T13:49:44Z</time>
      </trkpt>
      <trkpt lat="49.04035" lon="3.94403">
        <ele>135.2</ele>
        <time>2017-08-06T13:49:45Z</time>
      </trkpt>
      <trkpt lat="49.04037" lon="3.94403">
        <ele>135.2</ele>
        <time>2017-08-06T13:49:46Z</time>
      </trkpt>
      <trkpt lat="49.04038" lon="3.94402">
        <ele>135.68</ele>
        <time>2017-08-06T13:49:47Z</time>
      </trkpt>
      <trkpt lat="49.0406" lon="3.94394">
        <ele>137.13</ele>
        <time>2017-08-06T13:50:02Z</time>
      </trkpt>
      <trkpt lat="49.0409" lon="3.94382">
        <ele>137.61</ele>
        <time>2017-08-06T13:50:17Z</time>
      </trkpt>
      <trkpt lat="49.04127" lon="3.94382">
        <ele>139.05</ele>
        <time>2017-08-06T13:50:33Z</time>
      </trkpt>
      <trkpt lat="49.04152" lon="3.94387">
        <ele>140.49</ele>
        <time>2017-08-06T13:50:47Z</time>
      </trkpt>
      <trkpt lat="49.04157" lon="3.94391">
        <ele>140.49</ele>
        <time>2017-08-06T13:50:58Z</time>
      </trkpt>
      <trkpt lat="49.04156" lon="3.94393">
        <ele>140.49</ele>
        <time>2017-08-06T13:51:33Z</time>
      </trkpt>
      <trkpt lat="49.04156" lon="3.94393">
        <ele>140.01</ele>
        <time>2017-08-06T13:51:44Z</time>
      </trkpt>
      <trkpt lat="49.04185" lon="3.94398">
        <ele>139.05</ele>
        <time>2017-08-06T13:51:55Z</time>
      </trkpt>
      <trkpt lat="49.04187" lon="3.94399">
        <ele>138.57</ele>
        <time>2017-08-06T13:51:56Z</time>
      </trkpt>
      <trkpt lat="49.04206" lon="3.9443">
        <ele>134.72</ele>
        <time>2017-08-06T13:52:03Z</time>
      </trkpt>
      <trkpt lat="49.04218" lon="3.9445">
        <ele>131.36</ele>
        <time>2017-08-06T13:52:07Z</time>
      </trkpt>
      <trkpt lat="49.04221" lon="3.94455">
        <ele>130.4</ele>
        <time>2017-08-06T13:52:08Z</time>
      </trkpt>
      <trkpt lat="49.04231" lon="3.94471">
        <ele>127.51</ele>
        <time>2017-08-06T13:52:12Z</time>
      </trkpt>
      <trkpt lat="49.04246" lon="3.94494">
        <ele>123.67</ele>
        <time>2017-08-06T13:52:17Z</time>
      </trkpt>
      <trkpt lat="49.04255" lon="3.94507">
        <ele>122.22</ele>
        <time>2017-08-06T13:52:20Z</time>
      </trkpt>
      <trkpt lat="49.04267" lon="3.94529">
        <ele>118.38</ele>
        <time>2017-08-06T13:52:24Z</time>
      </trkpt>
      <trkpt lat="49.04281" lon="3.94561">
        <ele>115.01</ele>
        <time>2017-08-06T13:52:28Z</time>
      </trkpt>
      <trkpt lat="49.04291" lon="3.94581">
        <ele>113.09</ele>
        <time>2017-08-06T13:52:31Z</time>
      </trkpt>
      <trkpt lat="49.043" lon="3.94612">
        <ele>109.25</ele>
        <time>2017-08-06T13:52:36Z</time>
      </trkpt>
      <trkpt lat="49.043" lon="3.9462">
        <ele>108.29</ele>
        <time>2017-08-06T13:52:37Z</time>
      </trkpt>
      <trkpt lat="49.04297" lon="3.94644">
        <ele>104.92</ele>
        <time>2017-08-06T13:52:41Z</time>
      </trkpt>
      <trkpt lat="49.04296" lon="3.94649">
        <ele>104.92</ele>
        <time>2017-08-06T13:52:42Z</time>
      </trkpt>
      <trkpt lat="49.04295" lon="3.94656">
        <ele>103.96</ele>
        <time>2017-08-06T13:52:44Z</time>
      </trkpt>
      <trkpt lat="49.04296" lon="3.94659">
        <ele>103.48</ele>
        <time>2017-08-06T13:52:45Z</time>
      </trkpt>
      <trkpt lat="49.04299" lon="3.94661">
        <ele>103.48</ele>
        <time>2017-08-06T13:52:46Z</time>
      </trkpt>
      <trkpt lat="49.04302" lon="3.9466">
        <ele>102.52</ele>
        <time>2017-08-06T13:52:47Z</time>
      </trkpt>
      <trkpt lat="49.04306" lon="3.94659">
        <ele>102.04</ele>
        <time>2017-08-06T13:52:48Z</time>
      </trkpt>
      <trkpt lat="49.04311" lon="3.94659">
        <ele>101.56</ele>
        <time>2017-08-06T13:52:49Z</time>
      </trkpt>
      <trkpt lat="49.04316" lon="3.94659">
        <ele>100.6</ele>
        <time>2017-08-06T13:52:50Z</time>
      </trkpt>
      <trkpt lat="49.04321" lon="3.94658">
        <ele>100.11</ele>
        <time>2017-08-06T13:52:51Z</time>
      </trkpt>
      <trkpt lat="49.04353" lon="3.94656">
        <ele>97.23</ele>
        <time>2017-08-06T13:52:56Z</time>
      </trkpt>
      <trkpt lat="49.04423" lon="3.94654">
        <ele>95.79</ele>
        <time>2017-08-06T13:53:06Z</time>
      </trkpt>
      <trkpt lat="49.04428" lon="3.94655">
        <ele>95.79</ele>
        <time>2017-08-06T13:53:07Z</time>
      </trkpt>
      <trkpt lat="49.04431" lon="3.94655">
        <ele>95.79</ele>
        <time>2017-08-06T13:53:08Z</time>
      </trkpt>
      <trkpt lat="49.04434" lon="3.94653">
        <ele>95.79</ele>
        <time>2017-08-06T13:53:09Z</time>
      </trkpt>
      <trkpt lat="49.04436" lon="3.9465">
        <ele>95.79</ele>
        <time>2017-08-06T13:53:10Z</time>
      </trkpt>
      <trkpt lat="49.04437" lon="3.94645">
        <ele>95.79</ele>
        <time>2017-08-06T13:53:11Z</time>
      </trkpt>
      <trkpt lat="49.04437" lon="3.94643">
        <ele>95.79</ele>
        <time>2017-08-06T13:53:12Z</time>
      </trkpt>
      <trkpt lat="49.0444" lon="3.94589">
        <ele>99.15</ele>
        <time>2017-08-06T13:53:28Z</time>
      </trkpt>
      <trkpt lat="49.04441" lon="3.94527">
        <ele>101.08</ele>
        <time>2017-08-06T13:53:45Z</time>
      </trkpt>
      <trkpt lat="49.04443" lon="3.94465">
        <ele>103.48</ele>
        <time>2017-08-06T13:54:03Z</time>
      </trkpt>
      <trkpt lat="49.04462" lon="3.94419">
        <ele>105.88</ele>
        <time>2017-08-06T13:54:21Z</time>
      </trkpt>
      <trkpt lat="49.04481" lon="3.94391">
        <ele>107.81</ele>
        <time>2017-08-06T13:54:34Z</time>
      </trkpt>
      <trkpt lat="49.04499" lon="3.9435">
        <ele>110.21</ele>
        <time>2017-08-06T13:54:52Z</time>
      </trkpt>
      <trkpt lat="49.04513" lon="3.94301">
        <ele>113.09</ele>
        <time>2017-08-06T13:55:12Z</time>
      </trkpt>
      <trkpt lat="49.04519" lon="3.94265">
        <ele>115.01</ele>
        <time>2017-08-06T13:55:27Z</time>
      </trkpt>
      <trkpt lat="49.0452" lon="3.94249">
        <ele>116.46</ele>
        <time>2017-08-06T13:55:34Z</time>
      </trkpt>
      <trkpt lat="49.04519" lon="3.94247">
        <ele>116.46</ele>
        <time>2017-08-06T13:55:35Z</time>
      </trkpt>
      <trkpt lat="49.04519" lon="3.94245">
        <ele>116.46</ele>
        <time>2017-08-06T13:55:36Z</time>
      </trkpt>
      <trkpt lat="49.04519" lon="3.94243">
        <ele>116.94</ele>
        <time>2017-08-06T13:55:37Z</time>
      </trkpt>
      <trkpt lat="49.04519" lon="3.94241">
        <ele>116.94</ele>
        <time>2017-08-06T13:55:38Z</time>
      </trkpt>
      <trkpt lat="49.04518" lon="3.94234">
        <ele>117.42</ele>
        <time>2017-08-06T13:55:41Z</time>
      </trkpt>
      <trkpt lat="49.04517" lon="3.9423">
        <ele>117.42</ele>
        <time>2017-08-06T13:55:43Z</time>
      </trkpt>
      <trkpt lat="49.04517" lon="3.94228">
        <ele>117.9</ele>
        <time>2017-08-06T13:55:44Z</time>
      </trkpt>
      <trkpt lat="49.04518" lon="3.94225">
        <ele>117.9</ele>
        <time>2017-08-06T13:55:45Z</time>
      </trkpt>
      <trkpt lat="49.04518" lon="3.94223">
        <ele>117.9</ele>
        <time>2017-08-06T13:55:46Z</time>
      </trkpt>
      <trkpt lat="49.04518" lon="3.9422">
        <ele>118.38</ele>
        <time>2017-08-06T13:55:47Z</time>
      </trkpt>
      <trkpt lat="49.04517" lon="3.94218">
        <ele>118.38</ele>
        <time>2017-08-06T13:55:48Z</time>
      </trkpt>
      <trkpt lat="49.04517" lon="3.94216">
        <ele>118.38</ele>
        <time>2017-08-06T13:55:49Z</time>
      </trkpt>
      <trkpt lat="49.04517" lon="3.94214">
        <ele>118.86</ele>
        <time>2017-08-06T13:55:50Z</time>
      </trkpt>
      <trkpt lat="49.04516" lon="3.94211">
        <ele>118.86</ele>
        <time>2017-08-06T13:55:51Z</time>
      </trkpt>
      <trkpt lat="49.04512" lon="3.9418">
        <ele>121.26</ele>
        <time>2017-08-06T13:56:04Z</time>
      </trkpt>
      <trkpt lat="49.04511" lon="3.94179">
        <ele>121.26</ele>
        <time>2017-08-06T13:56:05Z</time>
      </trkpt>
      <trkpt lat="49.04511" lon="3.94177">
        <ele>121.26</ele>
        <time>2017-08-06T13:56:06Z</time>
      </trkpt>
      <trkpt lat="49.04511" lon="3.94175">
        <ele>121.74</ele>
        <time>2017-08-06T13:56:07Z</time>
      </trkpt>
      <trkpt lat="49.04512" lon="3.94174">
        <ele>121.74</ele>
        <time>2017-08-06T13:56:08Z</time>
      </trkpt>
      <trkpt lat="49.04512" lon="3.94172">
        <ele>121.74</ele>
        <time>2017-08-06T13:56:09Z</time>
      </trkpt>
      <trkpt lat="49.04512" lon="3.9417">
        <ele>121.74</ele>
        <time>2017-08-06T13:56:10Z</time>
      </trkpt>
      <trkpt lat="49.04512" lon="3.94168">
        <ele>121.74</ele>
        <time>2017-08-06T13:56:11Z</time>
      </trkpt>
      <trkpt lat="49.04511" lon="3.94166">
        <ele>121.74</ele>
        <time>2017-08-06T13:56:12Z</time>
      </trkpt>
      <trkpt lat="49.04511" lon="3.94164">
        <ele>121.74</ele>
        <time>2017-08-06T13:56:13Z</time>
      </trkpt>
      <trkpt lat="49.04511" lon="3.94162">
        <ele>122.22</ele>
        <time>2017-08-06T13:56:14Z</time>
      </trkpt>
      <trkpt lat="49.04512" lon="3.94161">
        <ele>122.71</ele>
        <time>2017-08-06T13:56:15Z</time>
      </trkpt>
      <trkpt lat="49.04513" lon="3.94159">
        <ele>122.71</ele>
        <time>2017-08-06T13:56:16Z</time>
      </trkpt>
      <trkpt lat="49.04513" lon="3.94157">
        <ele>122.71</ele>
        <time>2017-08-06T13:56:17Z</time>
      </trkpt>
      <trkpt lat="49.04513" lon="3.94154">
        <ele>122.71</ele>
        <time>2017-08-06T13:56:18Z</time>
      </trkpt>
      <trkpt lat="49.04512" lon="3.94152">
        <ele>123.19</ele>
        <time>2017-08-06T13:56:19Z</time>
      </trkpt>
      <trkpt lat="49.04511" lon="3.9415">
        <ele>123.19</ele>
        <time>2017-08-06T13:56:20Z</time>
      </trkpt>
      <trkpt lat="49.04511" lon="3.94149">
        <ele>123.67</ele>
        <time>2017-08-06T13:56:21Z</time>
      </trkpt>
      <trkpt lat="49.04511" lon="3.94146">
        <ele>123.67</ele>
        <time>2017-08-06T13:56:22Z</time>
      </trkpt>
      <trkpt lat="49.04511" lon="3.94145">
        <ele>123.67</ele>
        <time>2017-08-06T13:56:23Z</time>
      </trkpt>
      <trkpt lat="49.04512" lon="3.94143">
        <ele>124.15</ele>
        <time>2017-08-06T13:56:24Z</time>
      </trkpt>
      <trkpt lat="49.04513" lon="3.94141">
        <ele>124.15</ele>
        <time>2017-08-06T13:56:25Z</time>
      </trkpt>
      <trkpt lat="49.04513" lon="3.94139">
        <ele>124.15</ele>
        <time>2017-08-06T13:56:26Z</time>
      </trkpt>
      <trkpt lat="49.04514" lon="3.94137">
        <ele>124.63</ele>
        <time>2017-08-06T13:56:27Z</time>
      </trkpt>
      <trkpt lat="49.04513" lon="3.9411">
        <ele>126.07</ele>
        <time>2017-08-06T13:56:38Z</time>
      </trkpt>
      <trkpt lat="49.04512" lon="3.94106">
        <ele>126.07</ele>
        <time>2017-08-06T13:56:40Z</time>
      </trkpt>
      <trkpt lat="49.04512" lon="3.94104">
        <ele>126.55</ele>
        <time>2017-08-06T13:56:41Z</time>
      </trkpt>
      <trkpt lat="49.04513" lon="3.94098">
        <ele>126.55</ele>
        <time>2017-08-06T13:56:44Z</time>
      </trkpt>
      <trkpt lat="49.04513" lon="3.94097">
        <ele>127.03</ele>
        <time>2017-08-06T13:56:45Z</time>
      </trkpt>
      <trkpt lat="49.04512" lon="3.94095">
        <ele>127.03</ele>
        <time>2017-08-06T13:56:46Z</time>
      </trkpt>
      <trkpt lat="49.04511" lon="3.94094">
        <ele>127.03</ele>
        <time>2017-08-06T13:56:47Z</time>
      </trkpt>
      <trkpt lat="49.04511" lon="3.94092">
        <ele>127.51</ele>
        <time>2017-08-06T13:56:48Z</time>
      </trkpt>
      <trkpt lat="49.04511" lon="3.9409">
        <ele>127.51</ele>
        <time>2017-08-06T13:56:49Z</time>
      </trkpt>
      <trkpt lat="49.04512" lon="3.94087">
        <ele>127.99</ele>
        <time>2017-08-06T13:56:50Z</time>
      </trkpt>
      <trkpt lat="49.04512" lon="3.94085">
        <ele>127.99</ele>
        <time>2017-08-06T13:56:51Z</time>
      </trkpt>
      <trkpt lat="49.04511" lon="3.94083">
        <ele>127.99</ele>
        <time>2017-08-06T13:56:52Z</time>
      </trkpt>
      <trkpt lat="49.04509" lon="3.94082">
        <ele>127.99</ele>
        <time>2017-08-06T13:56:53Z</time>
      </trkpt>
      <trkpt lat="49.04508" lon="3.9408">
        <ele>128.47</ele>
        <time>2017-08-06T13:56:54Z</time>
      </trkpt>
      <trkpt lat="49.04507" lon="3.94079">
        <ele>128.47</ele>
        <time>2017-08-06T13:56:55Z</time>
      </trkpt>
      <trkpt lat="49.04507" lon="3.94077">
        <ele>128.47</ele>
        <time>2017-08-06T13:56:56Z</time>
      </trkpt>
      <trkpt lat="49.04507" lon="3.94075">
        <ele>128.47</ele>
        <time>2017-08-06T13:56:57Z</time>
      </trkpt>
      <trkpt lat="49.04508" lon="3.94072">
        <ele>128.95</ele>
        <time>2017-08-06T13:56:58Z</time>
      </trkpt>
      <trkpt lat="49.04508" lon="3.9407">
        <ele>128.95</ele>
        <time>2017-08-06T13:56:59Z</time>
      </trkpt>
      <trkpt lat="49.04508" lon="3.94068">
        <ele>128.95</ele>
        <time>2017-08-06T13:57:00Z</time>
      </trkpt>
      <trkpt lat="49.04507" lon="3.94065">
        <ele>129.43</ele>
        <time>2017-08-06T13:57:01Z</time>
      </trkpt>
      <trkpt lat="49.04506" lon="3.94064">
        <ele>129.43</ele>
        <time>2017-08-06T13:57:02Z</time>
      </trkpt>
      <trkpt lat="49.04504" lon="3.94062">
        <ele>129.43</ele>
        <time>2017-08-06T13:57:03Z</time>
      </trkpt>
      <trkpt lat="49.04504" lon="3.94059">
        <ele>129.43</ele>
        <time>2017-08-06T13:57:05Z</time>
      </trkpt>
      <trkpt lat="49.04504" lon="3.94056">
        <ele>130.4</ele>
        <time>2017-08-06T13:57:06Z</time>
      </trkpt>
      <trkpt lat="49.04504" lon="3.94055">
        <ele>130.4</ele>
        <time>2017-08-06T13:57:07Z</time>
      </trkpt>
      <trkpt lat="49.04504" lon="3.94052">
        <ele>130.4</ele>
        <time>2017-08-06T13:57:08Z</time>
      </trkpt>
      <trkpt lat="49.04503" lon="3.9405">
        <ele>130.4</ele>
        <time>2017-08-06T13:57:09Z</time>
      </trkpt>
      <trkpt lat="49.04502" lon="3.94049">
        <ele>130.4</ele>
        <time>2017-08-06T13:57:10Z</time>
      </trkpt>
      <trkpt lat="49.04501" lon="3.94047">
        <ele>130.4</ele>
        <time>2017-08-06T13:57:11Z</time>
      </trkpt>
      <trkpt lat="49.045" lon="3.94045">
        <ele>130.4</ele>
        <time>2017-08-06T13:57:12Z</time>
      </trkpt>
      <trkpt lat="49.04499" lon="3.94044">
        <ele>130.88</ele>
        <time>2017-08-06T13:57:13Z</time>
      </trkpt>
      <trkpt lat="49.04499" lon="3.94041">
        <ele>130.88</ele>
        <time>2017-08-06T13:57:14Z</time>
      </trkpt>
      <trkpt lat="49.04499" lon="3.94039">
        <ele>130.88</ele>
        <time>2017-08-06T13:57:15Z</time>
      </trkpt>
      <trkpt lat="49.04498" lon="3.94036">
        <ele>131.36</ele>
        <time>2017-08-06T13:57:16Z</time>
      </trkpt>
      <trkpt lat="49.04497" lon="3.94034">
        <ele>131.84</ele>
        <time>2017-08-06T13:57:17Z</time>
      </trkpt>
      <trkpt lat="49.04496" lon="3.94033">
        <ele>131.36</ele>
        <time>2017-08-06T13:57:18Z</time>
      </trkpt>
      <trkpt lat="49.04495" lon="3.94032">
        <ele>131.84</ele>
        <time>2017-08-06T13:57:19Z</time>
      </trkpt>
      <trkpt lat="49.04494" lon="3.94031">
        <ele>131.84</ele>
        <time>2017-08-06T13:57:20Z</time>
      </trkpt>
      <trkpt lat="49.04494" lon="3.94029">
        <ele>132.32</ele>
        <time>2017-08-06T13:57:21Z</time>
      </trkpt>
      <trkpt lat="49.04494" lon="3.94027">
        <ele>132.32</ele>
        <time>2017-08-06T13:57:22Z</time>
      </trkpt>
      <trkpt lat="49.04494" lon="3.94025">
        <ele>132.32</ele>
        <time>2017-08-06T13:57:23Z</time>
      </trkpt>
      <trkpt lat="49.04493" lon="3.94023">
        <ele>132.32</ele>
        <time>2017-08-06T13:57:24Z</time>
      </trkpt>
      <trkpt lat="49.04492" lon="3.94021">
        <ele>132.8</ele>
        <time>2017-08-06T13:57:25Z</time>
      </trkpt>
      <trkpt lat="49.04491" lon="3.9402">
        <ele>132.8</ele>
        <time>2017-08-06T13:57:26Z</time>
      </trkpt>
      <trkpt lat="49.0449" lon="3.94019">
        <ele>132.8</ele>
        <time>2017-08-06T13:57:27Z</time>
      </trkpt>
      <trkpt lat="49.04489" lon="3.94018">
        <ele>133.28</ele>
        <time>2017-08-06T13:57:28Z</time>
      </trkpt>
      <trkpt lat="49.04489" lon="3.94016">
        <ele>133.28</ele>
        <time>2017-08-06T13:57:29Z</time>
      </trkpt>
      <trkpt lat="49.0449" lon="3.94015">
        <ele>133.28</ele>
        <time>2017-08-06T13:57:30Z</time>
      </trkpt>
      <trkpt lat="49.0449" lon="3.94012">
        <ele>133.28</ele>
        <time>2017-08-06T13:57:31Z</time>
      </trkpt>
      <trkpt lat="49.0449" lon="3.9401">
        <ele>133.76</ele>
        <time>2017-08-06T13:57:32Z</time>
      </trkpt>
      <trkpt lat="49.04489" lon="3.94008">
        <ele>133.76</ele>
        <time>2017-08-06T13:57:33Z</time>
      </trkpt>
      <trkpt lat="49.04488" lon="3.94007">
        <ele>133.76</ele>
        <time>2017-08-06T13:57:34Z</time>
      </trkpt>
      <trkpt lat="49.04487" lon="3.94005">
        <ele>133.76</ele>
        <time>2017-08-06T13:57:35Z</time>
      </trkpt>
      <trkpt lat="49.04487" lon="3.94003">
        <ele>134.24</ele>
        <time>2017-08-06T13:57:36Z</time>
      </trkpt>
      <trkpt lat="49.04487" lon="3.94001">
        <ele>134.24</ele>
        <time>2017-08-06T13:57:37Z</time>
      </trkpt>
      <trkpt lat="49.04488" lon="3.93999">
        <ele>134.24</ele>
        <time>2017-08-06T13:57:38Z</time>
      </trkpt>
      <trkpt lat="49.04488" lon="3.93997">
        <ele>134.72</ele>
        <time>2017-08-06T13:57:39Z</time>
      </trkpt>
      <trkpt lat="49.04487" lon="3.93995">
        <ele>134.72</ele>
        <time>2017-08-06T13:57:40Z</time>
      </trkpt>
      <trkpt lat="49.04486" lon="3.93994">
        <ele>135.2</ele>
        <time>2017-08-06T13:57:41Z</time>
      </trkpt>
      <trkpt lat="49.04485" lon="3.93993">
        <ele>135.2</ele>
        <time>2017-08-06T13:57:42Z</time>
      </trkpt>
      <trkpt lat="49.04484" lon="3.93991">
        <ele>135.2</ele>
        <time>2017-08-06T13:57:43Z</time>
      </trkpt>
      <trkpt lat="49.04485" lon="3.93989">
        <ele>135.2</ele>
        <time>2017-08-06T13:57:44Z</time>
      </trkpt>
      <trkpt lat="49.04485" lon="3.93988">
        <ele>135.68</ele>
        <time>2017-08-06T13:57:45Z</time>
      </trkpt>
      <trkpt lat="49.04486" lon="3.93985">
        <ele>135.68</ele>
        <time>2017-08-06T13:57:46Z</time>
      </trkpt>
      <trkpt lat="49.04486" lon="3.93983">
        <ele>135.68</ele>
        <time>2017-08-06T13:57:47Z</time>
      </trkpt>
      <trkpt lat="49.04485" lon="3.93981">
        <ele>136.64</ele>
        <time>2017-08-06T13:57:48Z</time>
      </trkpt>
      <trkpt lat="49.04484" lon="3.93979">
        <ele>136.64</ele>
        <time>2017-08-06T13:57:49Z</time>
      </trkpt>
      <trkpt lat="49.04483" lon="3.93977">
        <ele>136.64</ele>
        <time>2017-08-06T13:57:50Z</time>
      </trkpt>
      <trkpt lat="49.04482" lon="3.93976">
        <ele>137.13</ele>
        <time>2017-08-06T13:57:51Z</time>
      </trkpt>
      <trkpt lat="49.04482" lon="3.93974">
        <ele>137.13</ele>
        <time>2017-08-06T13:57:52Z</time>
      </trkpt>
      <trkpt lat="49.04483" lon="3.93972">
        <ele>137.13</ele>
        <time>2017-08-06T13:57:53Z</time>
      </trkpt>
      <trkpt lat="49.04483" lon="3.93969">
        <ele>137.61</ele>
        <time>2017-08-06T13:57:54Z</time>
      </trkpt>
      <trkpt lat="49.04482" lon="3.93967">
        <ele>137.61</ele>
        <time>2017-08-06T13:57:55Z</time>
      </trkpt>
      <trkpt lat="49.04481" lon="3.93966">
        <ele>138.09</ele>
        <time>2017-08-06T13:57:56Z</time>
      </trkpt>
      <trkpt lat="49.0448" lon="3.93965">
        <ele>138.09</ele>
        <time>2017-08-06T13:57:57Z</time>
      </trkpt>
      <trkpt lat="49.0448" lon="3.93963">
        <ele>138.09</ele>
        <time>2017-08-06T13:57:58Z</time>
      </trkpt>
      <trkpt lat="49.04481" lon="3.93961">
        <ele>138.57</ele>
        <time>2017-08-06T13:57:59Z</time>
      </trkpt>
      <trkpt lat="49.04481" lon="3.93959">
        <ele>138.57</ele>
        <time>2017-08-06T13:58:00Z</time>
      </trkpt>
      <trkpt lat="49.0448" lon="3.93956">
        <ele>139.05</ele>
        <time>2017-08-06T13:58:01Z</time>
      </trkpt>
      <trkpt lat="49.0448" lon="3.93955">
        <ele>139.05</ele>
        <time>2017-08-06T13:58:02Z</time>
      </trkpt>
      <trkpt lat="49.04479" lon="3.93953">
        <ele>139.05</ele>
        <time>2017-08-06T13:58:03Z</time>
      </trkpt>
      <trkpt lat="49.04478" lon="3.93951">
        <ele>139.05</ele>
        <time>2017-08-06T13:58:04Z</time>
      </trkpt>
      <trkpt lat="49.04477" lon="3.93949">
        <ele>139.53</ele>
        <time>2017-08-06T13:58:05Z</time>
      </trkpt>
      <trkpt lat="49.04477" lon="3.93948">
        <ele>139.53</ele>
        <time>2017-08-06T13:58:06Z</time>
      </trkpt>
      <trkpt lat="49.04477" lon="3.93946">
        <ele>140.01</ele>
        <time>2017-08-06T13:58:07Z</time>
      </trkpt>
      <trkpt lat="49.04477" lon="3.93941">
        <ele>140.49</ele>
        <time>2017-08-06T13:58:09Z</time>
      </trkpt>
      <trkpt lat="49.04477" lon="3.93939">
        <ele>140.49</ele>
        <time>2017-08-06T13:58:10Z</time>
      </trkpt>
      <trkpt lat="49.04476" lon="3.93937">
        <ele>140.49</ele>
        <time>2017-08-06T13:58:11Z</time>
      </trkpt>
      <trkpt lat="49.04475" lon="3.93935">
        <ele>140.97</ele>
        <time>2017-08-06T13:58:12Z</time>
      </trkpt>
      <trkpt lat="49.04474" lon="3.93934">
        <ele>140.97</ele>
        <time>2017-08-06T13:58:13Z</time>
      </trkpt>
      <trkpt lat="49.04474" lon="3.93931">
        <ele>140.97</ele>
        <time>2017-08-06T13:58:14Z</time>
      </trkpt>
      <trkpt lat="49.04474" lon="3.93929">
        <ele>141.45</ele>
        <time>2017-08-06T13:58:15Z</time>
      </trkpt>
      <trkpt lat="49.04474" lon="3.93927">
        <ele>141.45</ele>
        <time>2017-08-06T13:58:16Z</time>
      </trkpt>
      <trkpt lat="49.04473" lon="3.93925">
        <ele>141.93</ele>
        <time>2017-08-06T13:58:17Z</time>
      </trkpt>
      <trkpt lat="49.04473" lon="3.93923">
        <ele>141.93</ele>
        <time>2017-08-06T13:58:18Z</time>
      </trkpt>
      <trkpt lat="49.04473" lon="3.93921">
        <ele>141.93</ele>
        <time>2017-08-06T13:58:19Z</time>
      </trkpt>
      <trkpt lat="49.04473" lon="3.93919">
        <ele>141.93</ele>
        <time>2017-08-06T13:58:20Z</time>
      </trkpt>
      <trkpt lat="49.04473" lon="3.93917">
        <ele>142.41</ele>
        <time>2017-08-06T13:58:21Z</time>
      </trkpt>
      <trkpt lat="49.04472" lon="3.93915">
        <ele>142.41</ele>
        <time>2017-08-06T13:58:22Z</time>
      </trkpt>
      <trkpt lat="49.04471" lon="3.93914">
        <ele>142.41</ele>
        <time>2017-08-06T13:58:23Z</time>
      </trkpt>
      <trkpt lat="49.0447" lon="3.93912">
        <ele>142.41</ele>
        <time>2017-08-06T13:58:24Z</time>
      </trkpt>
      <trkpt lat="49.04471" lon="3.9391">
        <ele>142.41</ele>
        <time>2017-08-06T13:58:25Z</time>
      </trkpt>
      <trkpt lat="49.04471" lon="3.93908">
        <ele>142.41</ele>
        <time>2017-08-06T13:58:26Z</time>
      </trkpt>
      <trkpt lat="49.0447" lon="3.93905">
        <ele>142.41</ele>
        <time>2017-08-06T13:58:27Z</time>
      </trkpt>
      <trkpt lat="49.04468" lon="3.93891">
        <ele>143.37</ele>
        <time>2017-08-06T13:58:33Z</time>
      </trkpt>
      <trkpt lat="49.04468" lon="3.9389">
        <ele>143.37</ele>
        <time>2017-08-06T13:58:34Z</time>
      </trkpt>
      <trkpt lat="49.04467" lon="3.93888">
        <ele>143.37</ele>
        <time>2017-08-06T13:58:35Z</time>
      </trkpt>
      <trkpt lat="49.04468" lon="3.93885">
        <ele>143.37</ele>
        <time>2017-08-06T13:58:36Z</time>
      </trkpt>
      <trkpt lat="49.04468" lon="3.93883">
        <ele>143.85</ele>
        <time>2017-08-06T13:58:37Z</time>
      </trkpt>
      <trkpt lat="49.04468" lon="3.9388">
        <ele>143.85</ele>
        <time>2017-08-06T13:58:38Z</time>
      </trkpt>
      <trkpt lat="49.04468" lon="3.93878">
        <ele>143.85</ele>
        <time>2017-08-06T13:58:39Z</time>
      </trkpt>
      <trkpt lat="49.04469" lon="3.93876">
        <ele>143.85</ele>
        <time>2017-08-06T13:58:40Z</time>
      </trkpt>
      <trkpt lat="49.04468" lon="3.93874">
        <ele>143.85</ele>
        <time>2017-08-06T13:58:41Z</time>
      </trkpt>
      <trkpt lat="49.04468" lon="3.93871">
        <ele>144.34</ele>
        <time>2017-08-06T13:58:42Z</time>
      </trkpt>
      <trkpt lat="49.04467" lon="3.9387">
        <ele>144.34</ele>
        <time>2017-08-06T13:58:43Z</time>
      </trkpt>
      <trkpt lat="49.04468" lon="3.93867">
        <ele>144.34</ele>
        <time>2017-08-06T13:58:44Z</time>
      </trkpt>
      <trkpt lat="49.04468" lon="3.93865">
        <ele>144.34</ele>
        <time>2017-08-06T13:58:45Z</time>
      </trkpt>
      <trkpt lat="49.04468" lon="3.93863">
        <ele>144.34</ele>
        <time>2017-08-06T13:58:46Z</time>
      </trkpt>
      <trkpt lat="49.04468" lon="3.93861">
        <ele>144.82</ele>
        <time>2017-08-06T13:58:47Z</time>
      </trkpt>
      <trkpt lat="49.04468" lon="3.93858">
        <ele>144.82</ele>
        <time>2017-08-06T13:58:48Z</time>
      </trkpt>
      <trkpt lat="49.04474" lon="3.93806">
        <ele>147.22</ele>
        <time>2017-08-06T13:59:07Z</time>
      </trkpt>
      <trkpt lat="49.04481" lon="3.9375">
        <ele>149.14</ele>
        <time>2017-08-06T13:59:27Z</time>
      </trkpt>
      <trkpt lat="49.04483" lon="3.93737">
        <ele>149.62</ele>
        <time>2017-08-06T13:59:32Z</time>
      </trkpt>
      <trkpt lat="49.04482" lon="3.93734">
        <ele>149.62</ele>
        <time>2017-08-06T13:59:33Z</time>
      </trkpt>
      <trkpt lat="49.04482" lon="3.93731">
        <ele>150.1</ele>
        <time>2017-08-06T13:59:34Z</time>
      </trkpt>
      <trkpt lat="49.04483" lon="3.93729">
        <ele>150.1</ele>
        <time>2017-08-06T13:59:35Z</time>
      </trkpt>
      <trkpt lat="49.04484" lon="3.93727">
        <ele>150.1</ele>
        <time>2017-08-06T13:59:36Z</time>
      </trkpt>
      <trkpt lat="49.04485" lon="3.93725">
        <ele>150.1</ele>
        <time>2017-08-06T13:59:37Z</time>
      </trkpt>
      <trkpt lat="49.04484" lon="3.93722">
        <ele>150.58</ele>
        <time>2017-08-06T13:59:38Z</time>
      </trkpt>
      <trkpt lat="49.04484" lon="3.93719">
        <ele>150.58</ele>
        <time>2017-08-06T13:59:39Z</time>
      </trkpt>
      <trkpt lat="49.04484" lon="3.93717">
        <ele>150.58</ele>
        <time>2017-08-06T13:59:40Z</time>
      </trkpt>
      <trkpt lat="49.04485" lon="3.93715">
        <ele>150.58</ele>
        <time>2017-08-06T13:59:41Z</time>
      </trkpt>
      <trkpt lat="49.04486" lon="3.93712">
        <ele>150.58</ele>
        <time>2017-08-06T13:59:42Z</time>
      </trkpt>
      <trkpt lat="49.04486" lon="3.9371">
        <ele>150.58</ele>
        <time>2017-08-06T13:59:43Z</time>
      </trkpt>
      <trkpt lat="49.04486" lon="3.93707">
        <ele>151.06</ele>
        <time>2017-08-06T13:59:44Z</time>
      </trkpt>
      <trkpt lat="49.04486" lon="3.93705">
        <ele>151.06</ele>
        <time>2017-08-06T13:59:45Z</time>
      </trkpt>
      <trkpt lat="49.04488" lon="3.93702">
        <ele>151.06</ele>
        <time>2017-08-06T13:59:46Z</time>
      </trkpt>
      <trkpt lat="49.04488" lon="3.937">
        <ele>151.06</ele>
        <time>2017-08-06T13:59:47Z</time>
      </trkpt>
      <trkpt lat="49.04488" lon="3.93697">
        <ele>152.03</ele>
        <time>2017-08-06T13:59:48Z</time>
      </trkpt>
      <trkpt lat="49.04488" lon="3.93695">
        <ele>152.03</ele>
        <time>2017-08-06T13:59:49Z</time>
      </trkpt>
      <trkpt lat="49.04489" lon="3.93693">
        <ele>152.03</ele>
        <time>2017-08-06T13:59:50Z</time>
      </trkpt>
      <trkpt lat="49.0449" lon="3.93691">
        <ele>152.03</ele>
        <time>2017-08-06T13:59:51Z</time>
      </trkpt>
      <trkpt lat="49.04491" lon="3.93686">
        <ele>152.51</ele>
        <time>2017-08-06T13:59:53Z</time>
      </trkpt>
      <trkpt lat="49.04491" lon="3.93683">
        <ele>152.51</ele>
        <time>2017-08-06T13:59:54Z</time>
      </trkpt>
      <trkpt lat="49.0449" lon="3.93681">
        <ele>152.51</ele>
        <time>2017-08-06T13:59:55Z</time>
      </trkpt>
      <trkpt lat="49.0449" lon="3.93678">
        <ele>152.51</ele>
        <time>2017-08-06T13:59:56Z</time>
      </trkpt>
      <trkpt lat="49.0449" lon="3.93676">
        <ele>152.51</ele>
        <time>2017-08-06T13:59:57Z</time>
      </trkpt>
      <trkpt lat="49.04491" lon="3.93673">
        <ele>152.51</ele>
        <time>2017-08-06T13:59:58Z</time>
      </trkpt>
      <trkpt lat="49.04492" lon="3.93672">
        <ele>152.99</ele>
        <time>2017-08-06T13:59:59Z</time>
      </trkpt>
      <trkpt lat="49.04493" lon="3.93669">
        <ele>152.99</ele>
        <time>2017-08-06T14:00:00Z</time>
      </trkpt>
      <trkpt lat="49.04494" lon="3.93667">
        <ele>152.99</ele>
        <time>2017-08-06T14:00:01Z</time>
      </trkpt>
      <trkpt lat="49.04495" lon="3.93664">
        <ele>153.47</ele>
        <time>2017-08-06T14:00:02Z</time>
      </trkpt>
      <trkpt lat="49.04495" lon="3.93662">
        <ele>153.47</ele>
        <time>2017-08-06T14:00:03Z</time>
      </trkpt>
      <trkpt lat="49.04496" lon="3.93659">
        <ele>153.47</ele>
        <time>2017-08-06T14:00:04Z</time>
      </trkpt>
      <trkpt lat="49.04496" lon="3.93656">
        <ele>153.47</ele>
        <time>2017-08-06T14:00:05Z</time>
      </trkpt>
      <trkpt lat="49.04495" lon="3.93654">
        <ele>153.47</ele>
        <time>2017-08-06T14:00:06Z</time>
      </trkpt>
      <trkpt lat="49.04496" lon="3.93646">
        <ele>153.47</ele>
        <time>2017-08-06T14:00:09Z</time>
      </trkpt>
      <trkpt lat="49.04497" lon="3.93644">
        <ele>153.47</ele>
        <time>2017-08-06T14:00:10Z</time>
      </trkpt>
      <trkpt lat="49.04498" lon="3.93642">
        <ele>153.47</ele>
        <time>2017-08-06T14:00:11Z</time>
      </trkpt>
      <trkpt lat="49.04499" lon="3.9364">
        <ele>153.47</ele>
        <time>2017-08-06T14:00:12Z</time>
      </trkpt>
      <trkpt lat="49.04499" lon="3.93637">
        <ele>154.43</ele>
        <time>2017-08-06T14:00:13Z</time>
      </trkpt>
      <trkpt lat="49.04499" lon="3.93634">
        <ele>154.43</ele>
        <time>2017-08-06T14:00:14Z</time>
      </trkpt>
      <trkpt lat="49.04498" lon="3.93632">
        <ele>154.43</ele>
        <time>2017-08-06T14:00:15Z</time>
      </trkpt>
      <trkpt lat="49.04498" lon="3.93629">
        <ele>154.43</ele>
        <time>2017-08-06T14:00:16Z</time>
      </trkpt>
      <trkpt lat="49.04499" lon="3.93627">
        <ele>154.43</ele>
        <time>2017-08-06T14:00:17Z</time>
      </trkpt>
      <trkpt lat="49.045" lon="3.93624">
        <ele>154.43</ele>
        <time>2017-08-06T14:00:18Z</time>
      </trkpt>
      <trkpt lat="49.04501" lon="3.93623">
        <ele>154.91</ele>
        <time>2017-08-06T14:00:19Z</time>
      </trkpt>
      <trkpt lat="49.04502" lon="3.9362">
        <ele>154.91</ele>
        <time>2017-08-06T14:00:20Z</time>
      </trkpt>
      <trkpt lat="49.04502" lon="3.93615">
        <ele>154.91</ele>
        <time>2017-08-06T14:00:22Z</time>
      </trkpt>
      <trkpt lat="49.04502" lon="3.93612">
        <ele>155.39</ele>
        <time>2017-08-06T14:00:23Z</time>
      </trkpt>
      <trkpt lat="49.04501" lon="3.93605">
        <ele>155.39</ele>
        <time>2017-08-06T14:00:26Z</time>
      </trkpt>
      <trkpt lat="49.04502" lon="3.93603">
        <ele>155.87</ele>
        <time>2017-08-06T14:00:27Z</time>
      </trkpt>
      <trkpt lat="49.04504" lon="3.93598">
        <ele>155.87</ele>
        <time>2017-08-06T14:00:29Z</time>
      </trkpt>
      <trkpt lat="49.04504" lon="3.93596">
        <ele>155.87</ele>
        <time>2017-08-06T14:00:30Z</time>
      </trkpt>
      <trkpt lat="49.04503" lon="3.93587">
        <ele>156.35</ele>
        <time>2017-08-06T14:00:33Z</time>
      </trkpt>
      <trkpt lat="49.04504" lon="3.93584">
        <ele>156.83</ele>
        <time>2017-08-06T14:00:35Z</time>
      </trkpt>
      <trkpt lat="49.04505" lon="3.93582">
        <ele>156.83</ele>
        <time>2017-08-06T14:00:36Z</time>
      </trkpt>
      <trkpt lat="49.04506" lon="3.93576">
        <ele>157.31</ele>
        <time>2017-08-06T14:00:38Z</time>
      </trkpt>
      <trkpt lat="49.04506" lon="3.9357">
        <ele>157.31</ele>
        <time>2017-08-06T14:00:40Z</time>
      </trkpt>
      <trkpt lat="49.04506" lon="3.93568">
        <ele>157.31</ele>
        <time>2017-08-06T14:00:41Z</time>
      </trkpt>
      <trkpt lat="49.04507" lon="3.9353">
        <ele>159.72</ele>
        <time>2017-08-06T14:00:56Z</time>
      </trkpt>
      <trkpt lat="49.04508" lon="3.93528">
        <ele>159.72</ele>
        <time>2017-08-06T14:00:57Z</time>
      </trkpt>
      <trkpt lat="49.04509" lon="3.93522">
        <ele>160.2</ele>
        <time>2017-08-06T14:01:00Z</time>
      </trkpt>
      <trkpt lat="49.04511" lon="3.93499">
        <ele>161.64</ele>
        <time>2017-08-06T14:01:10Z</time>
      </trkpt>
      <trkpt lat="49.0451" lon="3.93495">
        <ele>162.12</ele>
        <time>2017-08-06T14:01:12Z</time>
      </trkpt>
      <trkpt lat="49.04511" lon="3.93492">
        <ele>162.6</ele>
        <time>2017-08-06T14:01:14Z</time>
      </trkpt>
      <trkpt lat="49.04512" lon="3.93488">
        <ele>162.6</ele>
        <time>2017-08-06T14:01:16Z</time>
      </trkpt>
      <trkpt lat="49.04512" lon="3.93484">
        <ele>162.6</ele>
        <time>2017-08-06T14:01:18Z</time>
      </trkpt>
      <trkpt lat="49.04512" lon="3.93482">
        <ele>165</ele>
        <time>2017-08-06T14:01:19Z</time>
      </trkpt>
      <trkpt lat="49.04513" lon="3.93478">
        <ele>164.52</ele>
        <time>2017-08-06T14:01:21Z</time>
      </trkpt>
      <trkpt lat="49.04514" lon="3.93474">
        <ele>165</ele>
        <time>2017-08-06T14:01:23Z</time>
      </trkpt>
      <trkpt lat="49.04514" lon="3.93472">
        <ele>165</ele>
        <time>2017-08-06T14:01:24Z</time>
      </trkpt>
      <trkpt lat="49.04514" lon="3.93467">
        <ele>164.52</ele>
        <time>2017-08-06T14:01:26Z</time>
      </trkpt>
      <trkpt lat="49.04515" lon="3.93463">
        <ele>164.52</ele>
        <time>2017-08-06T14:01:28Z</time>
      </trkpt>
      <trkpt lat="49.04517" lon="3.93457">
        <ele>165.48</ele>
        <time>2017-08-06T14:01:31Z</time>
      </trkpt>
      <trkpt lat="49.04516" lon="3.93456">
        <ele>165.48</ele>
        <time>2017-08-06T14:01:32Z</time>
      </trkpt>
      <trkpt lat="49.04516" lon="3.93454">
        <ele>165.48</ele>
        <time>2017-08-06T14:01:33Z</time>
      </trkpt>
      <trkpt lat="49.04516" lon="3.93451">
        <ele>165.96</ele>
        <time>2017-08-06T14:01:34Z</time>
      </trkpt>
      <trkpt lat="49.04517" lon="3.93449">
        <ele>165.96</ele>
        <time>2017-08-06T14:01:35Z</time>
      </trkpt>
      <trkpt lat="49.04519" lon="3.93445">
        <ele>165.96</ele>
        <time>2017-08-06T14:01:37Z</time>
      </trkpt>
      <trkpt lat="49.04518" lon="3.93443">
        <ele>166.45</ele>
        <time>2017-08-06T14:01:38Z</time>
      </trkpt>
      <trkpt lat="49.04518" lon="3.93441">
        <ele>166.45</ele>
        <time>2017-08-06T14:01:39Z</time>
      </trkpt>
      <trkpt lat="49.04518" lon="3.93439">
        <ele>166.45</ele>
        <time>2017-08-06T14:01:40Z</time>
      </trkpt>
      <trkpt lat="49.0452" lon="3.93433">
        <ele>166.93</ele>
        <time>2017-08-06T14:01:43Z</time>
      </trkpt>
      <trkpt lat="49.04521" lon="3.93432">
        <ele>166.93</ele>
        <time>2017-08-06T14:01:44Z</time>
      </trkpt>
      <trkpt lat="49.04522" lon="3.9343">
        <ele>167.41</ele>
        <time>2017-08-06T14:01:45Z</time>
      </trkpt>
      <trkpt lat="49.04522" lon="3.93423">
        <ele>167.41</ele>
        <time>2017-08-06T14:01:48Z</time>
      </trkpt>
      <trkpt lat="49.04521" lon="3.93421">
        <ele>167.89</ele>
        <time>2017-08-06T14:01:49Z</time>
      </trkpt>
      <trkpt lat="49.04521" lon="3.93418">
        <ele>167.89</ele>
        <time>2017-08-06T14:01:50Z</time>
      </trkpt>
      <trkpt lat="49.04521" lon="3.93416">
        <ele>167.89</ele>
        <time>2017-08-06T14:01:51Z</time>
      </trkpt>
      <trkpt lat="49.0452" lon="3.93413">
        <ele>167.89</ele>
        <time>2017-08-06T14:01:52Z</time>
      </trkpt>
      <trkpt lat="49.04518" lon="3.93409">
        <ele>168.85</ele>
        <time>2017-08-06T14:01:55Z</time>
      </trkpt>
      <trkpt lat="49.04516" lon="3.93408">
        <ele>168.85</ele>
        <time>2017-08-06T14:01:56Z</time>
      </trkpt>
      <trkpt lat="49.04515" lon="3.93408">
        <ele>168.85</ele>
        <time>2017-08-06T14:01:57Z</time>
      </trkpt>
      <trkpt lat="49.04514" lon="3.93407">
        <ele>168.85</ele>
        <time>2017-08-06T14:01:58Z</time>
      </trkpt>
      <trkpt lat="49.04513" lon="3.93406">
        <ele>168.85</ele>
        <time>2017-08-06T14:01:59Z</time>
      </trkpt>
      <trkpt lat="49.04512" lon="3.93404">
        <ele>169.81</ele>
        <time>2017-08-06T14:02:00Z</time>
      </trkpt>
      <trkpt lat="49.0451" lon="3.93403">
        <ele>169.81</ele>
        <time>2017-08-06T14:02:01Z</time>
      </trkpt>
      <trkpt lat="49.04509" lon="3.93402">
        <ele>169.81</ele>
        <time>2017-08-06T14:02:02Z</time>
      </trkpt>
      <trkpt lat="49.04498" lon="3.93397">
        <ele>171.25</ele>
        <time>2017-08-06T14:02:10Z</time>
      </trkpt>
      <trkpt lat="49.04496" lon="3.93398">
        <ele>171.25</ele>
        <time>2017-08-06T14:02:11Z</time>
      </trkpt>
      <trkpt lat="49.04495" lon="3.93398">
        <ele>171.25</ele>
        <time>2017-08-06T14:02:12Z</time>
      </trkpt>
      <trkpt lat="49.04494" lon="3.93396">
        <ele>171.25</ele>
        <time>2017-08-06T14:02:13Z</time>
      </trkpt>
      <trkpt lat="49.04493" lon="3.93394">
        <ele>171.25</ele>
        <time>2017-08-06T14:02:14Z</time>
      </trkpt>
      <trkpt lat="49.04492" lon="3.93392">
        <ele>171.73</ele>
        <time>2017-08-06T14:02:15Z</time>
      </trkpt>
      <trkpt lat="49.04491" lon="3.9339">
        <ele>171.73</ele>
        <time>2017-08-06T14:02:16Z</time>
      </trkpt>
      <trkpt lat="49.0449" lon="3.93389">
        <ele>171.73</ele>
        <time>2017-08-06T14:02:17Z</time>
      </trkpt>
      <trkpt lat="49.04488" lon="3.93389">
        <ele>172.21</ele>
        <time>2017-08-06T14:02:18Z</time>
      </trkpt>
      <trkpt lat="49.04487" lon="3.93389">
        <ele>171.73</ele>
        <time>2017-08-06T14:02:19Z</time>
      </trkpt>
      <trkpt lat="49.04484" lon="3.93389">
        <ele>171.73</ele>
        <time>2017-08-06T14:02:21Z</time>
      </trkpt>
      <trkpt lat="49.04483" lon="3.93388">
        <ele>172.69</ele>
        <time>2017-08-06T14:02:22Z</time>
      </trkpt>
      <trkpt lat="49.04482" lon="3.93386">
        <ele>172.69</ele>
        <time>2017-08-06T14:02:23Z</time>
      </trkpt>
      <trkpt lat="49.04482" lon="3.93384">
        <ele>172.69</ele>
        <time>2017-08-06T14:02:24Z</time>
      </trkpt>
      <trkpt lat="49.04481" lon="3.93382">
        <ele>172.69</ele>
        <time>2017-08-06T14:02:25Z</time>
      </trkpt>
      <trkpt lat="49.04479" lon="3.93381">
        <ele>172.69</ele>
        <time>2017-08-06T14:02:26Z</time>
      </trkpt>
      <trkpt lat="49.04478" lon="3.93381">
        <ele>173.17</ele>
        <time>2017-08-06T14:02:27Z</time>
      </trkpt>
      <trkpt lat="49.04476" lon="3.93381">
        <ele>173.17</ele>
        <time>2017-08-06T14:02:28Z</time>
      </trkpt>
      <trkpt lat="49.04475" lon="3.93381">
        <ele>173.17</ele>
        <time>2017-08-06T14:02:29Z</time>
      </trkpt>
      <trkpt lat="49.04473" lon="3.93381">
        <ele>173.17</ele>
        <time>2017-08-06T14:02:30Z</time>
      </trkpt>
      <trkpt lat="49.04472" lon="3.9338">
        <ele>173.17</ele>
        <time>2017-08-06T14:02:31Z</time>
      </trkpt>
      <trkpt lat="49.04471" lon="3.93378">
        <ele>173.66</ele>
        <time>2017-08-06T14:02:32Z</time>
      </trkpt>
      <trkpt lat="49.0447" lon="3.93377">
        <ele>173.66</ele>
        <time>2017-08-06T14:02:33Z</time>
      </trkpt>
      <trkpt lat="49.04469" lon="3.93375">
        <ele>173.66</ele>
        <time>2017-08-06T14:02:34Z</time>
      </trkpt>
      <trkpt lat="49.04468" lon="3.93373">
        <ele>173.66</ele>
        <time>2017-08-06T14:02:35Z</time>
      </trkpt>
      <trkpt lat="49.04466" lon="3.93373">
        <ele>174.14</ele>
        <time>2017-08-06T14:02:36Z</time>
      </trkpt>
      <trkpt lat="49.04465" lon="3.93373">
        <ele>174.14</ele>
        <time>2017-08-06T14:02:37Z</time>
      </trkpt>
      <trkpt lat="49.04463" lon="3.93373">
        <ele>174.14</ele>
        <time>2017-08-06T14:02:38Z</time>
      </trkpt>
      <trkpt lat="49.04462" lon="3.93373">
        <ele>174.62</ele>
        <time>2017-08-06T14:02:39Z</time>
      </trkpt>
      <trkpt lat="49.0446" lon="3.93372">
        <ele>174.62</ele>
        <time>2017-08-06T14:02:40Z</time>
      </trkpt>
      <trkpt lat="49.0446" lon="3.9337">
        <ele>174.62</ele>
        <time>2017-08-06T14:02:41Z</time>
      </trkpt>
      <trkpt lat="49.04459" lon="3.93369">
        <ele>174.62</ele>
        <time>2017-08-06T14:02:42Z</time>
      </trkpt>
      <trkpt lat="49.04457" lon="3.93367">
        <ele>175.1</ele>
        <time>2017-08-06T14:02:43Z</time>
      </trkpt>
      <trkpt lat="49.04456" lon="3.93367">
        <ele>175.1</ele>
        <time>2017-08-06T14:02:44Z</time>
      </trkpt>
      <trkpt lat="49.04454" lon="3.93367">
        <ele>175.1</ele>
        <time>2017-08-06T14:02:45Z</time>
      </trkpt>
      <trkpt lat="49.04453" lon="3.93367">
        <ele>175.1</ele>
        <time>2017-08-06T14:02:46Z</time>
      </trkpt>
      <trkpt lat="49.04452" lon="3.93365">
        <ele>175.1</ele>
        <time>2017-08-06T14:02:47Z</time>
      </trkpt>
      <trkpt lat="49.04452" lon="3.93363">
        <ele>175.1</ele>
        <time>2017-08-06T14:02:48Z</time>
      </trkpt>
      <trkpt lat="49.0445" lon="3.93361">
        <ele>175.58</ele>
        <time>2017-08-06T14:02:49Z</time>
      </trkpt>
      <trkpt lat="49.04449" lon="3.9336">
        <ele>175.58</ele>
        <time>2017-08-06T14:02:50Z</time>
      </trkpt>
      <trkpt lat="49.04431" lon="3.93347">
        <ele>177.02</ele>
        <time>2017-08-06T14:03:03Z</time>
      </trkpt>
      <trkpt lat="49.04425" lon="3.93344">
        <ele>177.5</ele>
        <time>2017-08-06T14:03:07Z</time>
      </trkpt>
      <trkpt lat="49.04424" lon="3.93344">
        <ele>177.98</ele>
        <time>2017-08-06T14:03:08Z</time>
      </trkpt>
      <trkpt lat="49.04422" lon="3.93345">
        <ele>177.98</ele>
        <time>2017-08-06T14:03:09Z</time>
      </trkpt>
      <trkpt lat="49.04419" lon="3.93345">
        <ele>177.98</ele>
        <time>2017-08-06T14:03:11Z</time>
      </trkpt>
      <trkpt lat="49.04417" lon="3.93346">
        <ele>178.46</ele>
        <time>2017-08-06T14:03:12Z</time>
      </trkpt>
      <trkpt lat="49.04416" lon="3.93347">
        <ele>178.46</ele>
        <time>2017-08-06T14:03:13Z</time>
      </trkpt>
      <trkpt lat="49.04414" lon="3.93348">
        <ele>178.46</ele>
        <time>2017-08-06T14:03:14Z</time>
      </trkpt>
      <trkpt lat="49.04412" lon="3.93349">
        <ele>178.46</ele>
        <time>2017-08-06T14:03:15Z</time>
      </trkpt>
      <trkpt lat="49.04411" lon="3.9335">
        <ele>178.46</ele>
        <time>2017-08-06T14:03:16Z</time>
      </trkpt>
      <trkpt lat="49.04397" lon="3.93365">
        <ele>179.42</ele>
        <time>2017-08-06T14:03:25Z</time>
      </trkpt>
      <trkpt lat="49.04396" lon="3.93368">
        <ele>179.42</ele>
        <time>2017-08-06T14:03:26Z</time>
      </trkpt>
      <trkpt lat="49.04395" lon="3.93369">
        <ele>179.9</ele>
        <time>2017-08-06T14:03:27Z</time>
      </trkpt>
      <trkpt lat="49.04393" lon="3.9337">
        <ele>179.9</ele>
        <time>2017-08-06T14:03:28Z</time>
      </trkpt>
      <trkpt lat="49.04391" lon="3.93371">
        <ele>179.9</ele>
        <time>2017-08-06T14:03:29Z</time>
      </trkpt>
      <trkpt lat="49.0439" lon="3.93372">
        <ele>180.38</ele>
        <time>2017-08-06T14:03:30Z</time>
      </trkpt>
      <trkpt lat="49.04388" lon="3.93373">
        <ele>180.38</ele>
        <time>2017-08-06T14:03:31Z</time>
      </trkpt>
      <trkpt lat="49.04386" lon="3.93375">
        <ele>180.38</ele>
        <time>2017-08-06T14:03:32Z</time>
      </trkpt>
      <trkpt lat="49.04385" lon="3.93376">
        <ele>180.38</ele>
        <time>2017-08-06T14:03:33Z</time>
      </trkpt>
      <trkpt lat="49.04355" lon="3.93404">
        <ele>182.31</ele>
        <time>2017-08-06T14:03:51Z</time>
      </trkpt>
      <trkpt lat="49.04334" lon="3.93428">
        <ele>182.79</ele>
        <time>2017-08-06T14:04:03Z</time>
      </trkpt>
      <trkpt lat="49.04312" lon="3.93452">
        <ele>183.27</ele>
        <time>2017-08-06T14:04:15Z</time>
      </trkpt>
      <trkpt lat="49.04264" lon="3.93498">
        <ele>183.27</ele>
        <time>2017-08-06T14:04:32Z</time>
      </trkpt>
      <trkpt lat="49.04247" lon="3.93513">
        <ele>183.27</ele>
        <time>2017-08-06T14:04:39Z</time>
      </trkpt>
      <trkpt lat="49.04245" lon="3.93515">
        <ele>183.27</ele>
        <time>2017-08-06T14:04:40Z</time>
      </trkpt>
      <trkpt lat="49.04242" lon="3.93517">
        <ele>183.27</ele>
        <time>2017-08-06T14:04:41Z</time>
      </trkpt>
      <trkpt lat="49.04215" lon="3.93551">
        <ele>183.75</ele>
        <time>2017-08-06T14:04:53Z</time>
      </trkpt>
      <trkpt lat="49.04211" lon="3.93556">
        <ele>183.75</ele>
        <time>2017-08-06T14:04:54Z</time>
      </trkpt>
      <trkpt lat="49.04202" lon="3.93569">
        <ele>182.79</ele>
        <time>2017-08-06T14:04:57Z</time>
      </trkpt>
      <trkpt lat="49.04165" lon="3.93618">
        <ele>182.79</ele>
        <time>2017-08-06T14:05:10Z</time>
      </trkpt>
      <trkpt lat="49.04162" lon="3.93622">
        <ele>182.79</ele>
        <time>2017-08-06T14:05:11Z</time>
      </trkpt>
      <trkpt lat="49.04158" lon="3.93627">
        <ele>182.79</ele>
        <time>2017-08-06T14:05:12Z</time>
      </trkpt>
      <trkpt lat="49.04156" lon="3.93631">
        <ele>182.79</ele>
        <time>2017-08-06T14:05:13Z</time>
      </trkpt>
      <trkpt lat="49.04153" lon="3.93637">
        <ele>182.79</ele>
        <time>2017-08-06T14:05:14Z</time>
      </trkpt>
      <trkpt lat="49.04151" lon="3.93642">
        <ele>182.79</ele>
        <time>2017-08-06T14:05:15Z</time>
      </trkpt>
      <trkpt lat="49.04148" lon="3.93648">
        <ele>182.79</ele>
        <time>2017-08-06T14:05:16Z</time>
      </trkpt>
      <trkpt lat="49.04139" lon="3.93674">
        <ele>182.31</ele>
        <time>2017-08-06T14:05:20Z</time>
      </trkpt>
      <trkpt lat="49.04136" lon="3.93679">
        <ele>181.83</ele>
        <time>2017-08-06T14:05:21Z</time>
      </trkpt>
      <trkpt lat="49.04132" lon="3.93685">
        <ele>181.83</ele>
        <time>2017-08-06T14:05:22Z</time>
      </trkpt>
      <trkpt lat="49.0412" lon="3.937">
        <ele>181.35</ele>
        <time>2017-08-06T14:05:25Z</time>
      </trkpt>
      <trkpt lat="49.04115" lon="3.93706">
        <ele>181.35</ele>
        <time>2017-08-06T14:05:26Z</time>
      </trkpt>
      <trkpt lat="49.04082" lon="3.93733">
        <ele>177.98</ele>
        <time>2017-08-06T14:05:31Z</time>
      </trkpt>
      <trkpt lat="49.04032" lon="3.93785">
        <ele>176.06</ele>
        <time>2017-08-06T14:05:38Z</time>
      </trkpt>
      <trkpt lat="49.04026" lon="3.9379">
        <ele>176.06</ele>
        <time>2017-08-06T14:05:39Z</time>
      </trkpt>
      <trkpt lat="49.04018" lon="3.93795">
        <ele>176.06</ele>
        <time>2017-08-06T14:05:40Z</time>
      </trkpt>
      <trkpt lat="49.04012" lon="3.93797">
        <ele>177.5</ele>
        <time>2017-08-06T14:05:41Z</time>
      </trkpt>
      <trkpt lat="49.04005" lon="3.93797">
        <ele>177.5</ele>
        <time>2017-08-06T14:05:42Z</time>
      </trkpt>
      <trkpt lat="49.04" lon="3.93796">
        <ele>177.98</ele>
        <time>2017-08-06T14:05:43Z</time>
      </trkpt>
      <trkpt lat="49.03995" lon="3.93793">
        <ele>177.98</ele>
        <time>2017-08-06T14:05:44Z</time>
      </trkpt>
      <trkpt lat="49.03922" lon="3.93752">
        <ele>177.02</ele>
        <time>2017-08-06T14:05:57Z</time>
      </trkpt>
      <trkpt lat="49.03899" lon="3.93738">
        <ele>178.46</ele>
        <time>2017-08-06T14:06:02Z</time>
      </trkpt>
      <trkpt lat="49.03867" lon="3.93724">
        <ele>180.87</ele>
        <time>2017-08-06T14:06:15Z</time>
      </trkpt>
      <trkpt lat="49.03836" lon="3.93716">
        <ele>182.79</ele>
        <time>2017-08-06T14:06:30Z</time>
      </trkpt>
      <trkpt lat="49.0381" lon="3.93706">
        <ele>184.23</ele>
        <time>2017-08-06T14:06:43Z</time>
      </trkpt>
      <trkpt lat="49.03778" lon="3.93694">
        <ele>185.67</ele>
        <time>2017-08-06T14:06:59Z</time>
      </trkpt>
      <trkpt lat="49.03738" lon="3.93685">
        <ele>187.11</ele>
        <time>2017-08-06T14:07:18Z</time>
      </trkpt>
      <trkpt lat="49.03699" lon="3.93678">
        <ele>189.04</ele>
        <time>2017-08-06T14:07:35Z</time>
      </trkpt>
      <trkpt lat="49.03658" lon="3.93671">
        <ele>190</ele>
        <time>2017-08-06T14:07:50Z</time>
      </trkpt>
      <trkpt lat="49.03654" lon="3.93672">
        <ele>190</ele>
        <time>2017-08-06T14:07:51Z</time>
      </trkpt>
      <trkpt lat="49.03646" lon="3.93676">
        <ele>190</ele>
        <time>2017-08-06T14:07:53Z</time>
      </trkpt>
      <trkpt lat="49.03642" lon="3.93679">
        <ele>190</ele>
        <time>2017-08-06T14:07:54Z</time>
      </trkpt>
      <trkpt lat="49.03622" lon="3.93695">
        <ele>190</ele>
        <time>2017-08-06T14:07:59Z</time>
      </trkpt>
      <trkpt lat="49.03618" lon="3.93697">
        <ele>190</ele>
        <time>2017-08-06T14:08:00Z</time>
      </trkpt>
      <trkpt lat="49.03614" lon="3.93699">
        <ele>190</ele>
        <time>2017-08-06T14:08:01Z</time>
      </trkpt>
      <trkpt lat="49.0361" lon="3.93702">
        <ele>190</ele>
        <time>2017-08-06T14:08:02Z</time>
      </trkpt>
      <trkpt lat="49.03606" lon="3.93704">
        <ele>190</ele>
        <time>2017-08-06T14:08:03Z</time>
      </trkpt>
      <trkpt lat="49.03598" lon="3.93708">
        <ele>190</ele>
        <time>2017-08-06T14:08:05Z</time>
      </trkpt>
      <trkpt lat="49.03582" lon="3.93717">
        <ele>190</ele>
        <time>2017-08-06T14:08:09Z</time>
      </trkpt>
      <trkpt lat="49.03574" lon="3.93723">
        <ele>190</ele>
        <time>2017-08-06T14:08:11Z</time>
      </trkpt>
      <trkpt lat="49.03558" lon="3.93737">
        <ele>190</ele>
        <time>2017-08-06T14:08:15Z</time>
      </trkpt>
      <trkpt lat="49.03554" lon="3.9374">
        <ele>190</ele>
        <time>2017-08-06T14:08:16Z</time>
      </trkpt>
      <trkpt lat="49.03542" lon="3.9375">
        <ele>190</ele>
        <time>2017-08-06T14:08:19Z</time>
      </trkpt>
      <trkpt lat="49.03538" lon="3.93754">
        <ele>190</ele>
        <time>2017-08-06T14:08:20Z</time>
      </trkpt>
      <trkpt lat="49.03534" lon="3.93756">
        <ele>190</ele>
        <time>2017-08-06T14:08:21Z</time>
      </trkpt>
      <trkpt lat="49.0353" lon="3.93759">
        <ele>190</ele>
        <time>2017-08-06T14:08:22Z</time>
      </trkpt>
      <trkpt lat="49.03526" lon="3.93761">
        <ele>190</ele>
        <time>2017-08-06T14:08:23Z</time>
      </trkpt>
      <trkpt lat="49.03522" lon="3.93764">
        <ele>190</ele>
        <time>2017-08-06T14:08:24Z</time>
      </trkpt>
      <trkpt lat="49.03502" lon="3.93774">
        <ele>189.52</ele>
        <time>2017-08-06T14:08:30Z</time>
      </trkpt>
      <trkpt lat="49.03497" lon="3.93775">
        <ele>189.52</ele>
        <time>2017-08-06T14:08:31Z</time>
      </trkpt>
      <trkpt lat="49.03424" lon="3.93765">
        <ele>187.11</ele>
        <time>2017-08-06T14:08:43Z</time>
      </trkpt>
      <trkpt lat="49.03372" lon="3.93756">
        <ele>187.11</ele>
        <time>2017-08-06T14:08:52Z</time>
      </trkpt>
      <trkpt lat="49.03292" lon="3.93713">
        <ele>185.19</ele>
        <time>2017-08-06T14:09:07Z</time>
      </trkpt>
      <trkpt lat="49.03263" lon="3.93689">
        <ele>184.71</ele>
        <time>2017-08-06T14:09:12Z</time>
      </trkpt>
      <trkpt lat="49.03256" lon="3.93688">
        <ele>184.71</ele>
        <time>2017-08-06T14:09:13Z</time>
      </trkpt>
      <trkpt lat="49.0325" lon="3.9369">
        <ele>184.71</ele>
        <time>2017-08-06T14:09:14Z</time>
      </trkpt>
      <trkpt lat="49.0322" lon="3.93703">
        <ele>182.79</ele>
        <time>2017-08-06T14:09:18Z</time>
      </trkpt>
      <trkpt lat="49.03212" lon="3.93706">
        <ele>182.31</ele>
        <time>2017-08-06T14:09:19Z</time>
      </trkpt>
      <trkpt lat="49.03125" lon="3.93724">
        <ele>183.75</ele>
        <time>2017-08-06T14:09:32Z</time>
      </trkpt>
      <trkpt lat="49.03121" lon="3.93723">
        <ele>184.23</ele>
        <time>2017-08-06T14:09:33Z</time>
      </trkpt>
      <trkpt lat="49.03116" lon="3.93721">
        <ele>184.23</ele>
        <time>2017-08-06T14:09:34Z</time>
      </trkpt>
      <trkpt lat="49.03112" lon="3.93718">
        <ele>184.23</ele>
        <time>2017-08-06T14:09:35Z</time>
      </trkpt>
      <trkpt lat="49.03109" lon="3.93716">
        <ele>184.23</ele>
        <time>2017-08-06T14:09:36Z</time>
      </trkpt>
      <trkpt lat="49.03106" lon="3.93713">
        <ele>185.19</ele>
        <time>2017-08-06T14:09:37Z</time>
      </trkpt>
      <trkpt lat="49.03058" lon="3.93664">
        <ele>185.67</ele>
        <time>2017-08-06T14:09:52Z</time>
      </trkpt>
      <trkpt lat="49.03054" lon="3.93661">
        <ele>185.67</ele>
        <time>2017-08-06T14:09:53Z</time>
      </trkpt>
      <trkpt lat="49.0305" lon="3.93659">
        <ele>185.67</ele>
        <time>2017-08-06T14:09:54Z</time>
      </trkpt>
      <trkpt lat="49.03045" lon="3.93657">
        <ele>185.67</ele>
        <time>2017-08-06T14:09:55Z</time>
      </trkpt>
      <trkpt lat="49.0304" lon="3.93656">
        <ele>185.67</ele>
        <time>2017-08-06T14:09:56Z</time>
      </trkpt>
      <trkpt lat="49.03035" lon="3.93656">
        <ele>185.67</ele>
        <time>2017-08-06T14:09:57Z</time>
      </trkpt>
      <trkpt lat="49.0303" lon="3.93656">
        <ele>185.67</ele>
        <time>2017-08-06T14:09:58Z</time>
      </trkpt>
      <trkpt lat="49.03024" lon="3.93658">
        <ele>185.67</ele>
        <time>2017-08-06T14:09:59Z</time>
      </trkpt>
      <trkpt lat="49.03012" lon="3.9366">
        <ele>184.23</ele>
        <time>2017-08-06T14:10:01Z</time>
      </trkpt>
      <trkpt lat="49.03006" lon="3.93659">
        <ele>184.23</ele>
        <time>2017-08-06T14:10:02Z</time>
      </trkpt>
      <trkpt lat="49.02937" lon="3.9363">
        <ele>186.15</ele>
        <time>2017-08-06T14:10:16Z</time>
      </trkpt>
      <trkpt lat="49.02889" lon="3.93605">
        <ele>187.11</ele>
        <time>2017-08-06T14:10:30Z</time>
      </trkpt>
      <trkpt lat="49.02854" lon="3.93585">
        <ele>187.11</ele>
        <time>2017-08-06T14:10:40Z</time>
      </trkpt>
      <trkpt lat="49.02849" lon="3.93586">
        <ele>187.11</ele>
        <time>2017-08-06T14:10:41Z</time>
      </trkpt>
      <trkpt lat="49.02844" lon="3.93587">
        <ele>187.11</ele>
        <time>2017-08-06T14:10:42Z</time>
      </trkpt>
      <trkpt lat="49.02839" lon="3.93591">
        <ele>185.67</ele>
        <time>2017-08-06T14:10:43Z</time>
      </trkpt>
      <trkpt lat="49.02834" lon="3.93596">
        <ele>185.19</ele>
        <time>2017-08-06T14:10:44Z</time>
      </trkpt>
      <trkpt lat="49.02827" lon="3.93601">
        <ele>185.19</ele>
        <time>2017-08-06T14:10:45Z</time>
      </trkpt>
      <trkpt lat="49.02821" lon="3.93605">
        <ele>184.23</ele>
        <time>2017-08-06T14:10:46Z</time>
      </trkpt>
      <trkpt lat="49.02814" lon="3.93607">
        <ele>184.23</ele>
        <time>2017-08-06T14:10:47Z</time>
      </trkpt>
      <trkpt lat="49.02806" lon="3.93606">
        <ele>184.23</ele>
        <time>2017-08-06T14:10:48Z</time>
      </trkpt>
      <trkpt lat="49.028" lon="3.93605">
        <ele>183.75</ele>
        <time>2017-08-06T14:10:49Z</time>
      </trkpt>
      <trkpt lat="49.02792" lon="3.93602">
        <ele>183.75</ele>
        <time>2017-08-06T14:10:50Z</time>
      </trkpt>
      <trkpt lat="49.02737" lon="3.93579">
        <ele>185.19</ele>
        <time>2017-08-06T14:11:00Z</time>
      </trkpt>
      <trkpt lat="49.02702" lon="3.93557">
        <ele>187.59</ele>
        <time>2017-08-06T14:11:13Z</time>
      </trkpt>
      <trkpt lat="49.0266" lon="3.93505">
        <ele>187.59</ele>
        <time>2017-08-06T14:11:29Z</time>
      </trkpt>
      <trkpt lat="49.02633" lon="3.93448">
        <ele>187.59</ele>
        <time>2017-08-06T14:11:43Z</time>
      </trkpt>
      <trkpt lat="49.02628" lon="3.93408">
        <ele>188.08</ele>
        <time>2017-08-06T14:11:54Z</time>
      </trkpt>
      <trkpt lat="49.02613" lon="3.93372">
        <ele>188.08</ele>
        <time>2017-08-06T14:12:04Z</time>
      </trkpt>
      <trkpt lat="49.0261" lon="3.93371">
        <ele>188.08</ele>
        <time>2017-08-06T14:12:05Z</time>
      </trkpt>
      <trkpt lat="49.02606" lon="3.93372">
        <ele>188.08</ele>
        <time>2017-08-06T14:12:06Z</time>
      </trkpt>
      <trkpt lat="49.02603" lon="3.93375">
        <ele>187.11</ele>
        <time>2017-08-06T14:12:07Z</time>
      </trkpt>
      <trkpt lat="49.02599" lon="3.93379">
        <ele>186.15</ele>
        <time>2017-08-06T14:12:08Z</time>
      </trkpt>
      <trkpt lat="49.02595" lon="3.93384">
        <ele>186.15</ele>
        <time>2017-08-06T14:12:09Z</time>
      </trkpt>
      <trkpt lat="49.02579" lon="3.93405">
        <ele>184.71</ele>
        <time>2017-08-06T14:12:13Z</time>
      </trkpt>
      <trkpt lat="49.02567" lon="3.93416">
        <ele>183.27</ele>
        <time>2017-08-06T14:12:16Z</time>
      </trkpt>
      <trkpt lat="49.02564" lon="3.93419">
        <ele>182.79</ele>
        <time>2017-08-06T14:12:17Z</time>
      </trkpt>
      <trkpt lat="49.0256" lon="3.93423">
        <ele>182.31</ele>
        <time>2017-08-06T14:12:18Z</time>
      </trkpt>
      <trkpt lat="49.02554" lon="3.93431">
        <ele>181.83</ele>
        <time>2017-08-06T14:12:20Z</time>
      </trkpt>
      <trkpt lat="49.02542" lon="3.93443">
        <ele>180.87</ele>
        <time>2017-08-06T14:12:24Z</time>
      </trkpt>
      <trkpt lat="49.0254" lon="3.93443">
        <ele>179.9</ele>
        <time>2017-08-06T14:12:25Z</time>
      </trkpt>
      <trkpt lat="49.02537" lon="3.9344">
        <ele>179.9</ele>
        <time>2017-08-06T14:12:26Z</time>
      </trkpt>
      <trkpt lat="49.02536" lon="3.93436">
        <ele>179.9</ele>
        <time>2017-08-06T14:12:27Z</time>
      </trkpt>
      <trkpt lat="49.02534" lon="3.93431">
        <ele>179.9</ele>
        <time>2017-08-06T14:12:28Z</time>
      </trkpt>
      <trkpt lat="49.02522" lon="3.93388">
        <ele>177.02</ele>
        <time>2017-08-06T14:12:35Z</time>
      </trkpt>
      <trkpt lat="49.02512" lon="3.93353">
        <ele>173.66</ele>
        <time>2017-08-06T14:12:38Z</time>
      </trkpt>
      <trkpt lat="49.02505" lon="3.93327">
        <ele>172.21</ele>
        <time>2017-08-06T14:12:40Z</time>
      </trkpt>
      <trkpt lat="49.02479" lon="3.93207">
        <ele>171.25</ele>
        <time>2017-08-06T14:12:50Z</time>
      </trkpt>
      <trkpt lat="49.02477" lon="3.93198">
        <ele>171.25</ele>
        <time>2017-08-06T14:12:51Z</time>
      </trkpt>
      <trkpt lat="49.02474" lon="3.93189">
        <ele>171.25</ele>
        <time>2017-08-06T14:12:52Z</time>
      </trkpt>
      <trkpt lat="49.02461" lon="3.93155">
        <ele>170.77</ele>
        <time>2017-08-06T14:12:56Z</time>
      </trkpt>
      <trkpt lat="49.02437" lon="3.93109">
        <ele>172.21</ele>
        <time>2017-08-06T14:13:05Z</time>
      </trkpt>
      <trkpt lat="49.02429" lon="3.93075">
        <ele>174.62</ele>
        <time>2017-08-06T14:13:18Z</time>
      </trkpt>
      <trkpt lat="49.02444" lon="3.93052">
        <ele>175.58</ele>
        <time>2017-08-06T14:13:32Z</time>
      </trkpt>
      <trkpt lat="49.02448" lon="3.93039">
        <ele>176.54</ele>
        <time>2017-08-06T14:13:38Z</time>
      </trkpt>
      <trkpt lat="49.02448" lon="3.93036">
        <ele>176.54</ele>
        <time>2017-08-06T14:13:39Z</time>
      </trkpt>
      <trkpt lat="49.02447" lon="3.93034">
        <ele>177.02</ele>
        <time>2017-08-06T14:13:40Z</time>
      </trkpt>
      <trkpt lat="49.02445" lon="3.93025">
        <ele>177.02</ele>
        <time>2017-08-06T14:13:44Z</time>
      </trkpt>
      <trkpt lat="49.02443" lon="3.93024">
        <ele>177.02</ele>
        <time>2017-08-06T14:13:45Z</time>
      </trkpt>
      <trkpt lat="49.02442" lon="3.93022">
        <ele>177.02</ele>
        <time>2017-08-06T14:13:46Z</time>
      </trkpt>
      <trkpt lat="49.02441" lon="3.9302">
        <ele>177.02</ele>
        <time>2017-08-06T14:13:47Z</time>
      </trkpt>
      <trkpt lat="49.0244" lon="3.93018">
        <ele>177.02</ele>
        <time>2017-08-06T14:13:48Z</time>
      </trkpt>
      <trkpt lat="49.0244" lon="3.93016">
        <ele>177.98</ele>
        <time>2017-08-06T14:13:49Z</time>
      </trkpt>
      <trkpt lat="49.02437" lon="3.93008">
        <ele>178.46</ele>
        <time>2017-08-06T14:13:53Z</time>
      </trkpt>
      <trkpt lat="49.02437" lon="3.93005">
        <ele>178.46</ele>
        <time>2017-08-06T14:13:54Z</time>
      </trkpt>
      <trkpt lat="49.02436" lon="3.93004">
        <ele>178.46</ele>
        <time>2017-08-06T14:13:55Z</time>
      </trkpt>
      <trkpt lat="49.02435" lon="3.93002">
        <ele>178.46</ele>
        <time>2017-08-06T14:13:56Z</time>
      </trkpt>
      <trkpt lat="49.02434" lon="3.93">
        <ele>178.46</ele>
        <time>2017-08-06T14:13:57Z</time>
      </trkpt>
      <trkpt lat="49.02434" lon="3.92998">
        <ele>178.46</ele>
        <time>2017-08-06T14:13:58Z</time>
      </trkpt>
      <trkpt lat="49.02434" lon="3.92995">
        <ele>178.94</ele>
        <time>2017-08-06T14:13:59Z</time>
      </trkpt>
      <trkpt lat="49.02433" lon="3.92993">
        <ele>178.94</ele>
        <time>2017-08-06T14:14:00Z</time>
      </trkpt>
      <trkpt lat="49.02432" lon="3.92972">
        <ele>180.38</ele>
        <time>2017-08-06T14:14:09Z</time>
      </trkpt>
      <trkpt lat="49.02431" lon="3.92969">
        <ele>180.38</ele>
        <time>2017-08-06T14:14:10Z</time>
      </trkpt>
      <trkpt lat="49.02431" lon="3.92967">
        <ele>180.38</ele>
        <time>2017-08-06T14:14:11Z</time>
      </trkpt>
      <trkpt lat="49.0243" lon="3.92946">
        <ele>181.35</ele>
        <time>2017-08-06T14:14:20Z</time>
      </trkpt>
      <trkpt lat="49.0243" lon="3.92944">
        <ele>181.83</ele>
        <time>2017-08-06T14:14:21Z</time>
      </trkpt>
      <trkpt lat="49.02428" lon="3.92931">
        <ele>182.31</ele>
        <time>2017-08-06T14:14:27Z</time>
      </trkpt>
      <trkpt lat="49.02429" lon="3.92928">
        <ele>182.79</ele>
        <time>2017-08-06T14:14:28Z</time>
      </trkpt>
      <trkpt lat="49.02429" lon="3.92926">
        <ele>182.79</ele>
        <time>2017-08-06T14:14:29Z</time>
      </trkpt>
      <trkpt lat="49.02429" lon="3.92924">
        <ele>183.27</ele>
        <time>2017-08-06T14:14:30Z</time>
      </trkpt>
      <trkpt lat="49.02428" lon="3.92921">
        <ele>183.27</ele>
        <time>2017-08-06T14:14:31Z</time>
      </trkpt>
      <trkpt lat="49.02427" lon="3.92919">
        <ele>183.27</ele>
        <time>2017-08-06T14:14:32Z</time>
      </trkpt>
      <trkpt lat="49.02427" lon="3.92917">
        <ele>183.27</ele>
        <time>2017-08-06T14:14:33Z</time>
      </trkpt>
      <trkpt lat="49.02426" lon="3.92915">
        <ele>183.27</ele>
        <time>2017-08-06T14:14:34Z</time>
      </trkpt>
      <trkpt lat="49.02426" lon="3.92913">
        <ele>183.27</ele>
        <time>2017-08-06T14:14:35Z</time>
      </trkpt>
      <trkpt lat="49.02426" lon="3.92911">
        <ele>183.75</ele>
        <time>2017-08-06T14:14:36Z</time>
      </trkpt>
      <trkpt lat="49.02425" lon="3.92909">
        <ele>183.75</ele>
        <time>2017-08-06T14:14:37Z</time>
      </trkpt>
      <trkpt lat="49.02425" lon="3.92907">
        <ele>183.75</ele>
        <time>2017-08-06T14:14:38Z</time>
      </trkpt>
      <trkpt lat="49.02424" lon="3.92905">
        <ele>184.23</ele>
        <time>2017-08-06T14:14:39Z</time>
      </trkpt>
      <trkpt lat="49.02424" lon="3.92902">
        <ele>184.23</ele>
        <time>2017-08-06T14:14:40Z</time>
      </trkpt>
      <trkpt lat="49.02424" lon="3.929">
        <ele>184.71</ele>
        <time>2017-08-06T14:14:41Z</time>
      </trkpt>
      <trkpt lat="49.02423" lon="3.92898">
        <ele>184.71</ele>
        <time>2017-08-06T14:14:42Z</time>
      </trkpt>
      <trkpt lat="49.02423" lon="3.92895">
        <ele>184.71</ele>
        <time>2017-08-06T14:14:43Z</time>
      </trkpt>
      <trkpt lat="49.02422" lon="3.92893">
        <ele>185.19</ele>
        <time>2017-08-06T14:14:44Z</time>
      </trkpt>
      <trkpt lat="49.02422" lon="3.92891">
        <ele>185.19</ele>
        <time>2017-08-06T14:14:45Z</time>
      </trkpt>
      <trkpt lat="49.02416" lon="3.92859">
        <ele>186.63</ele>
        <time>2017-08-06T14:14:59Z</time>
      </trkpt>
      <trkpt lat="49.02406" lon="3.92819">
        <ele>188.08</ele>
        <time>2017-08-06T14:15:14Z</time>
      </trkpt>
      <trkpt lat="49.02396" lon="3.92769">
        <ele>189.04</ele>
        <time>2017-08-06T14:15:29Z</time>
      </trkpt>
      <trkpt lat="49.02383" lon="3.92699">
        <ele>190</ele>
        <time>2017-08-06T14:15:47Z</time>
      </trkpt>
      <trkpt lat="49.02369" lon="3.92634">
        <ele>191.44</ele>
        <time>2017-08-06T14:16:05Z</time>
      </trkpt>
      <trkpt lat="49.02346" lon="3.92594">
        <ele>191.44</ele>
        <time>2017-08-06T14:16:17Z</time>
      </trkpt>
      <trkpt lat="49.02339" lon="3.92576">
        <ele>191.44</ele>
        <time>2017-08-06T14:16:20Z</time>
      </trkpt>
      <trkpt lat="49.02333" lon="3.92557">
        <ele>190</ele>
        <time>2017-08-06T14:16:23Z</time>
      </trkpt>
      <trkpt lat="49.02315" lon="3.92504">
        <ele>189.04</ele>
        <time>2017-08-06T14:16:32Z</time>
      </trkpt>
      <trkpt lat="49.02296" lon="3.92421">
        <ele>188.56</ele>
        <time>2017-08-06T14:16:45Z</time>
      </trkpt>
      <trkpt lat="49.02292" lon="3.92396">
        <ele>188.56</ele>
        <time>2017-08-06T14:16:49Z</time>
      </trkpt>
      <trkpt lat="49.02285" lon="3.92291">
        <ele>187.59</ele>
        <time>2017-08-06T14:17:05Z</time>
      </trkpt>
      <trkpt lat="49.02285" lon="3.92271">
        <ele>187.11</ele>
        <time>2017-08-06T14:17:08Z</time>
      </trkpt>
      <trkpt lat="49.02285" lon="3.92257">
        <ele>187.11</ele>
        <time>2017-08-06T14:17:10Z</time>
      </trkpt>
      <trkpt lat="49.02285" lon="3.92249">
        <ele>187.11</ele>
        <time>2017-08-06T14:17:11Z</time>
      </trkpt>
      <trkpt lat="49.02286" lon="3.92242">
        <ele>186.63</ele>
        <time>2017-08-06T14:17:12Z</time>
      </trkpt>
      <trkpt lat="49.02289" lon="3.9222">
        <ele>185.67</ele>
        <time>2017-08-06T14:17:15Z</time>
      </trkpt>
      <trkpt lat="49.0229" lon="3.92213">
        <ele>185.67</ele>
        <time>2017-08-06T14:17:16Z</time>
      </trkpt>
      <trkpt lat="49.02291" lon="3.92206">
        <ele>185.19</ele>
        <time>2017-08-06T14:17:17Z</time>
      </trkpt>
      <trkpt lat="49.0229" lon="3.922">
        <ele>185.19</ele>
        <time>2017-08-06T14:17:18Z</time>
      </trkpt>
      <trkpt lat="49.02287" lon="3.92195">
        <ele>184.71</ele>
        <time>2017-08-06T14:17:19Z</time>
      </trkpt>
      <trkpt lat="49.02284" lon="3.92192">
        <ele>184.23</ele>
        <time>2017-08-06T14:17:20Z</time>
      </trkpt>
      <trkpt lat="49.02279" lon="3.92191">
        <ele>183.75</ele>
        <time>2017-08-06T14:17:21Z</time>
      </trkpt>
      <trkpt lat="49.02274" lon="3.92191">
        <ele>182.79</ele>
        <time>2017-08-06T14:17:22Z</time>
      </trkpt>
      <trkpt lat="49.02268" lon="3.9219">
        <ele>182.31</ele>
        <time>2017-08-06T14:17:23Z</time>
      </trkpt>
      <trkpt lat="49.02262" lon="3.92189">
        <ele>181.83</ele>
        <time>2017-08-06T14:17:24Z</time>
      </trkpt>
      <trkpt lat="49.02242" lon="3.92187">
        <ele>180.38</ele>
        <time>2017-08-06T14:17:27Z</time>
      </trkpt>
      <trkpt lat="49.02209" lon="3.92194">
        <ele>177.02</ele>
        <time>2017-08-06T14:17:31Z</time>
      </trkpt>
      <trkpt lat="49.0218" lon="3.92204">
        <ele>173.17</ele>
        <time>2017-08-06T14:17:34Z</time>
      </trkpt>
      <trkpt lat="49.02138" lon="3.92217">
        <ele>169.81</ele>
        <time>2017-08-06T14:17:38Z</time>
      </trkpt>
      <trkpt lat="49.02083" lon="3.92234">
        <ele>168.85</ele>
        <time>2017-08-06T14:17:45Z</time>
      </trkpt>
      <trkpt lat="49.02082" lon="3.92235">
        <ele>168.85</ele>
        <time>2017-08-06T14:17:46Z</time>
      </trkpt>
      <trkpt lat="49.02081" lon="3.92237">
        <ele>168.85</ele>
        <time>2017-08-06T14:17:47Z</time>
      </trkpt>
      <trkpt lat="49.02081" lon="3.92239">
        <ele>168.85</ele>
        <time>2017-08-06T14:17:48Z</time>
      </trkpt>
      <trkpt lat="49.02082" lon="3.92242">
        <ele>168.85</ele>
        <time>2017-08-06T14:17:49Z</time>
      </trkpt>
      <trkpt lat="49.02083" lon="3.92243">
        <ele>168.37</ele>
        <time>2017-08-06T14:17:50Z</time>
      </trkpt>
      <trkpt lat="49.02083" lon="3.92245">
        <ele>168.37</ele>
        <time>2017-08-06T14:17:51Z</time>
      </trkpt>
      <trkpt lat="49.02081" lon="3.92245">
        <ele>168.37</ele>
        <time>2017-08-06T14:17:56Z</time>
      </trkpt>
      <trkpt lat="49.02081" lon="3.92244">
        <ele>168.37</ele>
        <time>2017-08-06T14:17:57Z</time>
      </trkpt>
      <trkpt lat="49.02082" lon="3.92241">
        <ele>168.37</ele>
        <time>2017-08-06T14:17:58Z</time>
      </trkpt>
      <trkpt lat="49.02086" lon="3.92235">
        <ele>168.37</ele>
        <time>2017-08-06T14:18:01Z</time>
      </trkpt>
      <trkpt lat="49.02088" lon="3.92235">
        <ele>168.37</ele>
        <time>2017-08-06T14:18:02Z</time>
      </trkpt>
      <trkpt lat="49.02109" lon="3.92229">
        <ele>169.81</ele>
        <time>2017-08-06T14:18:11Z</time>
      </trkpt>
      <trkpt lat="49.02132" lon="3.92216">
        <ele>171.73</ele>
        <time>2017-08-06T14:18:23Z</time>
      </trkpt>
      <trkpt lat="49.02133" lon="3.92214">
        <ele>171.73</ele>
        <time>2017-08-06T14:18:24Z</time>
      </trkpt>
      <trkpt lat="49.02133" lon="3.92211">
        <ele>172.21</ele>
        <time>2017-08-06T14:18:25Z</time>
      </trkpt>
      <trkpt lat="49.02133" lon="3.92175">
        <ele>171.73</ele>
        <time>2017-08-06T14:18:32Z</time>
      </trkpt>
      <trkpt lat="49.02132" lon="3.92155">
        <ele>171.73</ele>
        <time>2017-08-06T14:18:35Z</time>
      </trkpt>
      <trkpt lat="49.02133" lon="3.92148">
        <ele>171.73</ele>
        <time>2017-08-06T14:18:36Z</time>
      </trkpt>
      <trkpt lat="49.02135" lon="3.92143">
        <ele>170.77</ele>
        <time>2017-08-06T14:18:37Z</time>
      </trkpt>
      <trkpt lat="49.02138" lon="3.9214">
        <ele>170.77</ele>
        <time>2017-08-06T14:18:38Z</time>
      </trkpt>
      <trkpt lat="49.02142" lon="3.92138">
        <ele>170.77</ele>
        <time>2017-08-06T14:18:39Z</time>
      </trkpt>
      <trkpt lat="49.02146" lon="3.92136">
        <ele>170.77</ele>
        <time>2017-08-06T14:18:40Z</time>
      </trkpt>
      <trkpt lat="49.02149" lon="3.92133">
        <ele>170.77</ele>
        <time>2017-08-06T14:18:41Z</time>
      </trkpt>
      <trkpt lat="49.02152" lon="3.92128">
        <ele>170.77</ele>
        <time>2017-08-06T14:18:42Z</time>
      </trkpt>
      <trkpt lat="49.02154" lon="3.92122">
        <ele>170.77</ele>
        <time>2017-08-06T14:18:43Z</time>
      </trkpt>
      <trkpt lat="49.02155" lon="3.92115">
        <ele>169.81</ele>
        <time>2017-08-06T14:18:44Z</time>
      </trkpt>
      <trkpt lat="49.02156" lon="3.92108">
        <ele>169.81</ele>
        <time>2017-08-06T14:18:45Z</time>
      </trkpt>
      <trkpt lat="49.02165" lon="3.92055">
        <ele>167.41</ele>
        <time>2017-08-06T14:18:51Z</time>
      </trkpt>
      <trkpt lat="49.02169" lon="3.92048">
        <ele>167.41</ele>
        <time>2017-08-06T14:18:52Z</time>
      </trkpt>
      <trkpt lat="49.02173" lon="3.92045">
        <ele>167.41</ele>
        <time>2017-08-06T14:18:53Z</time>
      </trkpt>
      <trkpt lat="49.02177" lon="3.92045">
        <ele>167.41</ele>
        <time>2017-08-06T14:18:54Z</time>
      </trkpt>
      <trkpt lat="49.02181" lon="3.92046">
        <ele>168.37</ele>
        <time>2017-08-06T14:18:55Z</time>
      </trkpt>
      <trkpt lat="49.02184" lon="3.92047">
        <ele>168.85</ele>
        <time>2017-08-06T14:18:56Z</time>
      </trkpt>
      <trkpt lat="49.02187" lon="3.92047">
        <ele>168.85</ele>
        <time>2017-08-06T14:18:57Z</time>
      </trkpt>
      <trkpt lat="49.0219" lon="3.92046">
        <ele>169.81</ele>
        <time>2017-08-06T14:18:58Z</time>
      </trkpt>
      <trkpt lat="49.02192" lon="3.92044">
        <ele>169.81</ele>
        <time>2017-08-06T14:18:59Z</time>
      </trkpt>
      <trkpt lat="49.02193" lon="3.9204">
        <ele>170.29</ele>
        <time>2017-08-06T14:19:00Z</time>
      </trkpt>
      <trkpt lat="49.02194" lon="3.92036">
        <ele>170.29</ele>
        <time>2017-08-06T14:19:01Z</time>
      </trkpt>
      <trkpt lat="49.02195" lon="3.92032">
        <ele>170.29</ele>
        <time>2017-08-06T14:19:02Z</time>
      </trkpt>
      <trkpt lat="49.02196" lon="3.92027">
        <ele>170.29</ele>
        <time>2017-08-06T14:19:03Z</time>
      </trkpt>
      <trkpt lat="49.02197" lon="3.92022">
        <ele>170.29</ele>
        <time>2017-08-06T14:19:04Z</time>
      </trkpt>
      <trkpt lat="49.02198" lon="3.9201">
        <ele>170.29</ele>
        <time>2017-08-06T14:19:06Z</time>
      </trkpt>
      <trkpt lat="49.02202" lon="3.91948">
        <ele>170.29</ele>
        <time>2017-08-06T14:19:15Z</time>
      </trkpt>
      <trkpt lat="49.02202" lon="3.9191">
        <ele>168.85</ele>
        <time>2017-08-06T14:19:20Z</time>
      </trkpt>
      <trkpt lat="49.02203" lon="3.91894">
        <ele>168.85</ele>
        <time>2017-08-06T14:19:22Z</time>
      </trkpt>
      <trkpt lat="49.02209" lon="3.91846">
        <ele>167.89</ele>
        <time>2017-08-06T14:19:28Z</time>
      </trkpt>
      <trkpt lat="49.0221" lon="3.91837">
        <ele>167.89</ele>
        <time>2017-08-06T14:19:29Z</time>
      </trkpt>
      <trkpt lat="49.02211" lon="3.91736">
        <ele>169.33</ele>
        <time>2017-08-06T14:19:44Z</time>
      </trkpt>
      <trkpt lat="49.02212" lon="3.91688">
        <ele>167.41</ele>
        <time>2017-08-06T14:19:51Z</time>
      </trkpt>
      <trkpt lat="49.02211" lon="3.91671">
        <ele>166.93</ele>
        <time>2017-08-06T14:19:53Z</time>
      </trkpt>
      <trkpt lat="49.02209" lon="3.91663">
        <ele>166.93</ele>
        <time>2017-08-06T14:19:54Z</time>
      </trkpt>
      <trkpt lat="49.02207" lon="3.91659">
        <ele>166.93</ele>
        <time>2017-08-06T14:19:55Z</time>
      </trkpt>
      <trkpt lat="49.02203" lon="3.91655">
        <ele>166.45</ele>
        <time>2017-08-06T14:19:56Z</time>
      </trkpt>
      <trkpt lat="49.02198" lon="3.91653">
        <ele>166.45</ele>
        <time>2017-08-06T14:19:57Z</time>
      </trkpt>
      <trkpt lat="49.02193" lon="3.91653">
        <ele>165.48</ele>
        <time>2017-08-06T14:19:58Z</time>
      </trkpt>
      <trkpt lat="49.02187" lon="3.91655">
        <ele>165</ele>
        <time>2017-08-06T14:19:59Z</time>
      </trkpt>
      <trkpt lat="49.02157" lon="3.91665">
        <ele>161.16</ele>
        <time>2017-08-06T14:20:03Z</time>
      </trkpt>
      <trkpt lat="49.02129" lon="3.91678">
        <ele>157.79</ele>
        <time>2017-08-06T14:20:06Z</time>
      </trkpt>
      <trkpt lat="49.02107" lon="3.91687">
        <ele>154.91</ele>
        <time>2017-08-06T14:20:08Z</time>
      </trkpt>
      <trkpt lat="49.02085" lon="3.91696">
        <ele>151.06</ele>
        <time>2017-08-06T14:20:10Z</time>
      </trkpt>
      <trkpt lat="49.02064" lon="3.91707">
        <ele>147.7</ele>
        <time>2017-08-06T14:20:12Z</time>
      </trkpt>
      <trkpt lat="49.02055" lon="3.91714">
        <ele>146.26</ele>
        <time>2017-08-06T14:20:13Z</time>
      </trkpt>
      <trkpt lat="49.02044" lon="3.91724">
        <ele>144.34</ele>
        <time>2017-08-06T14:20:14Z</time>
      </trkpt>
      <trkpt lat="49.02015" lon="3.91758">
        <ele>140.49</ele>
        <time>2017-08-06T14:20:17Z</time>
      </trkpt>
      <trkpt lat="49.01992" lon="3.91776">
        <ele>138.09</ele>
        <time>2017-08-06T14:20:19Z</time>
      </trkpt>
      <trkpt lat="49.01944" lon="3.91808">
        <ele>134.24</ele>
        <time>2017-08-06T14:20:23Z</time>
      </trkpt>
      <trkpt lat="49.0192" lon="3.91824">
        <ele>133.76</ele>
        <time>2017-08-06T14:20:25Z</time>
      </trkpt>
      <trkpt lat="49.01886" lon="3.91849">
        <ele>130.4</ele>
        <time>2017-08-06T14:20:28Z</time>
      </trkpt>
      <trkpt lat="49.01842" lon="3.91888">
        <ele>126.07</ele>
        <time>2017-08-06T14:20:32Z</time>
      </trkpt>
      <trkpt lat="49.01798" lon="3.91927">
        <ele>123.19</ele>
        <time>2017-08-06T14:20:36Z</time>
      </trkpt>
      <trkpt lat="49.01765" lon="3.91954">
        <ele>121.74</ele>
        <time>2017-08-06T14:20:39Z</time>
      </trkpt>
      <trkpt lat="49.01714" lon="3.91991">
        <ele>118.38</ele>
        <time>2017-08-06T14:20:44Z</time>
      </trkpt>
      <trkpt lat="49.01674" lon="3.92011">
        <ele>114.53</ele>
        <time>2017-08-06T14:20:48Z</time>
      </trkpt>
      <trkpt lat="49.01644" lon="3.92026">
        <ele>111.65</ele>
        <time>2017-08-06T14:20:52Z</time>
      </trkpt>
      <trkpt lat="49.01618" lon="3.92039">
        <ele>109.25</ele>
        <time>2017-08-06T14:20:56Z</time>
      </trkpt>
      <trkpt lat="49.01587" lon="3.92047">
        <ele>106.36</ele>
        <time>2017-08-06T14:21:00Z</time>
      </trkpt>
      <trkpt lat="49.01556" lon="3.9205">
        <ele>103</ele>
        <time>2017-08-06T14:21:04Z</time>
      </trkpt>
      <trkpt lat="49.0151" lon="3.92057">
        <ele>100.11</ele>
        <time>2017-08-06T14:21:12Z</time>
      </trkpt>
      <trkpt lat="49.01487" lon="3.92088">
        <ele>99.63</ele>
        <time>2017-08-06T14:21:21Z</time>
      </trkpt>
      <trkpt lat="49.01486" lon="3.92094">
        <ele>99.15</ele>
        <time>2017-08-06T14:21:22Z</time>
      </trkpt>
      <trkpt lat="49.01455" lon="3.92179">
        <ele>97.71</ele>
        <time>2017-08-06T14:21:34Z</time>
      </trkpt>
      <trkpt lat="49.01451" lon="3.92184">
        <ele>97.23</ele>
        <time>2017-08-06T14:21:35Z</time>
      </trkpt>
      <trkpt lat="49.01446" lon="3.92187">
        <ele>97.23</ele>
        <time>2017-08-06T14:21:36Z</time>
      </trkpt>
      <trkpt lat="49.0144" lon="3.92188">
        <ele>97.23</ele>
        <time>2017-08-06T14:21:37Z</time>
      </trkpt>
      <trkpt lat="49.01435" lon="3.92187">
        <ele>97.23</ele>
        <time>2017-08-06T14:21:38Z</time>
      </trkpt>
      <trkpt lat="49.01429" lon="3.92187">
        <ele>96.75</ele>
        <time>2017-08-06T14:21:39Z</time>
      </trkpt>
      <trkpt lat="49.01372" lon="3.92189">
        <ele>96.27</ele>
        <time>2017-08-06T14:21:50Z</time>
      </trkpt>
      <trkpt lat="49.01304" lon="3.92197">
        <ele>96.75</ele>
        <time>2017-08-06T14:22:06Z</time>
      </trkpt>
      <trkpt lat="49.01253" lon="3.92194">
        <ele>97.71</ele>
        <time>2017-08-06T14:22:20Z</time>
      </trkpt>
      <trkpt lat="49.01251" lon="3.92195">
        <ele>97.71</ele>
        <time>2017-08-06T14:22:21Z</time>
      </trkpt>
      <trkpt lat="49.01249" lon="3.92197">
        <ele>97.71</ele>
        <time>2017-08-06T14:22:22Z</time>
      </trkpt>
      <trkpt lat="49.01246" lon="3.92199">
        <ele>97.71</ele>
        <time>2017-08-06T14:22:23Z</time>
      </trkpt>
      <trkpt lat="49.01215" lon="3.92214">
        <ele>98.67</ele>
        <time>2017-08-06T14:22:34Z</time>
      </trkpt>
      <trkpt lat="49.01176" lon="3.9222">
        <ele>100.11</ele>
        <time>2017-08-06T14:22:51Z</time>
      </trkpt>
      <trkpt lat="49.01142" lon="3.92226">
        <ele>102.04</ele>
        <time>2017-08-06T14:23:06Z</time>
      </trkpt>
      <trkpt lat="49.01108" lon="3.9223">
        <ele>103.96</ele>
        <time>2017-08-06T14:23:22Z</time>
      </trkpt>
      <trkpt lat="49.01084" lon="3.92235">
        <ele>104.92</ele>
        <time>2017-08-06T14:23:35Z</time>
      </trkpt>
      <trkpt lat="49.01053" lon="3.92238">
        <ele>107.32</ele>
        <time>2017-08-06T14:23:52Z</time>
      </trkpt>
      <trkpt lat="49.01028" lon="3.92243">
        <ele>109.25</ele>
        <time>2017-08-06T14:24:08Z</time>
      </trkpt>
      <trkpt lat="49.01014" lon="3.92244">
        <ele>110.21</ele>
        <time>2017-08-06T14:24:17Z</time>
      </trkpt>
      <trkpt lat="49.01012" lon="3.92243">
        <ele>110.69</ele>
        <time>2017-08-06T14:24:18Z</time>
      </trkpt>
      <trkpt lat="49.01011" lon="3.92242">
        <ele>110.69</ele>
        <time>2017-08-06T14:24:19Z</time>
      </trkpt>
      <trkpt lat="49.0101" lon="3.9224">
        <ele>110.69</ele>
        <time>2017-08-06T14:24:20Z</time>
      </trkpt>
      <trkpt lat="49.01009" lon="3.92238">
        <ele>110.69</ele>
        <time>2017-08-06T14:24:21Z</time>
      </trkpt>
      <trkpt lat="49.01008" lon="3.92236">
        <ele>111.17</ele>
        <time>2017-08-06T14:24:22Z</time>
      </trkpt>
      <trkpt lat="49.01008" lon="3.92234">
        <ele>111.17</ele>
        <time>2017-08-06T14:24:23Z</time>
      </trkpt>
      <trkpt lat="49.01008" lon="3.92232">
        <ele>111.17</ele>
        <time>2017-08-06T14:24:24Z</time>
      </trkpt>
      <trkpt lat="49.01008" lon="3.9223">
        <ele>111.65</ele>
        <time>2017-08-06T14:24:25Z</time>
      </trkpt>
      <trkpt lat="49.01007" lon="3.92228">
        <ele>111.65</ele>
        <time>2017-08-06T14:24:39Z</time>
      </trkpt>
      <trkpt lat="49.01006" lon="3.92227">
        <ele>111.65</ele>
        <time>2017-08-06T14:25:02Z</time>
      </trkpt>
      <trkpt lat="49.01006" lon="3.92229">
        <ele>111.65</ele>
        <time>2017-08-06T14:25:32Z</time>
      </trkpt>
      <trkpt lat="49.01006" lon="3.92228">
        <ele>111.65</ele>
        <time>2017-08-06T14:25:57Z</time>
      </trkpt>
      <trkpt lat="49.01004" lon="3.92208">
        <ele>111.17</ele>
        <time>2017-08-06T14:26:11Z</time>
      </trkpt>
      <trkpt lat="49.01002" lon="3.92163">
        <ele>111.17</ele>
        <time>2017-08-06T14:26:24Z</time>
      </trkpt>
      <trkpt lat="49.00999" lon="3.9215">
        <ele>111.17</ele>
        <time>2017-08-06T14:26:28Z</time>
      </trkpt>
      <trkpt lat="49.00985" lon="3.92153">
        <ele>112.13</ele>
        <time>2017-08-06T14:26:39Z</time>
      </trkpt>
      <trkpt lat="49.00986" lon="3.92152">
        <ele>112.13</ele>
        <time>2017-08-06T14:27:01Z</time>
      </trkpt>
      <trkpt lat="49.00988" lon="3.92152">
        <ele>112.13</ele>
        <time>2017-08-06T14:27:28Z</time>
      </trkpt>
      <trkpt lat="49.00989" lon="3.92155">
        <ele>112.13</ele>
        <time>2017-08-06T14:27:51Z</time>
      </trkpt>
      <trkpt lat="49.00994" lon="3.92166">
        <ele>112.13</ele>
        <time>2017-08-06T14:28:01Z</time>
      </trkpt>
      <trkpt lat="49.01004" lon="3.92188">
        <ele>110.69</ele>
        <time>2017-08-06T14:28:09Z</time>
      </trkpt>
      <trkpt lat="49.01006" lon="3.92213">
        <ele>110.69</ele>
        <time>2017-08-06T14:28:17Z</time>
      </trkpt>
      <trkpt lat="49.01007" lon="3.92213">
        <ele>110.21</ele>
        <time>2017-08-06T14:28:35Z</time>
      </trkpt>
      <trkpt lat="49.01006" lon="3.92214">
        <ele>109.73</ele>
        <time>2017-08-06T14:28:54Z</time>
      </trkpt>
      <trkpt lat="49.01007" lon="3.92214">
        <ele>109.73</ele>
        <time>2017-08-06T14:29:18Z</time>
      </trkpt>
      <trkpt lat="49.01006" lon="3.92212">
        <ele>109.73</ele>
        <time>2017-08-06T14:29:38Z</time>
      </trkpt>
      <trkpt lat="49.01006" lon="3.92213">
        <ele>109.73</ele>
        <time>2017-08-06T14:30:00Z</time>
      </trkpt>
      <trkpt lat="49.01006" lon="3.92213">
        <ele>109.25</ele>
        <time>2017-08-06T14:30:24Z</time>
      </trkpt>
      <trkpt lat="49.01008" lon="3.92213">
        <ele>109.25</ele>
        <time>2017-08-06T14:30:49Z</time>
      </trkpt>
      <trkpt lat="49.01006" lon="3.92214">
        <ele>108.29</ele>
        <time>2017-08-06T14:31:11Z</time>
      </trkpt>
      <trkpt lat="49.01006" lon="3.92213">
        <ele>108.29</ele>
        <time>2017-08-06T14:31:35Z</time>
      </trkpt>
      <trkpt lat="49.01006" lon="3.92214">
        <ele>107.81</ele>
        <time>2017-08-06T14:32:04Z</time>
      </trkpt>
      <trkpt lat="49.01006" lon="3.92215">
        <ele>108.77</ele>
        <time>2017-08-06T14:32:17Z</time>
      </trkpt>
      <trkpt lat="49.01005" lon="3.92215">
        <ele>108.77</ele>
        <time>2017-08-06T14:32:39Z</time>
      </trkpt>
      <trkpt lat="49.01008" lon="3.92216">
        <ele>108.77</ele>
        <time>2017-08-06T14:33:03Z</time>
      </trkpt>
      <trkpt lat="49.01008" lon="3.92215">
        <ele>108.77</ele>
        <time>2017-08-06T14:33:24Z</time>
      </trkpt>
      <trkpt lat="49.01007" lon="3.92217">
        <ele>108.77</ele>
        <time>2017-08-06T14:33:51Z</time>
      </trkpt>
      <trkpt lat="49.01007" lon="3.92216">
        <ele>108.77</ele>
        <time>2017-08-06T14:34:09Z</time>
      </trkpt>
      <trkpt lat="49.01008" lon="3.92216">
        <ele>108.77</ele>
        <time>2017-08-06T14:34:39Z</time>
      </trkpt>
      <trkpt lat="49.01006" lon="3.92218">
        <ele>108.29</ele>
        <time>2017-08-06T14:34:52Z</time>
      </trkpt>
      <trkpt lat="49.01005" lon="3.92231">
        <ele>108.29</ele>
        <time>2017-08-06T14:34:58Z</time>
      </trkpt>
      <trkpt lat="49.01002" lon="3.92241">
        <ele>108.29</ele>
        <time>2017-08-06T14:35:02Z</time>
      </trkpt>
      <trkpt lat="49.01" lon="3.92241">
        <ele>108.29</ele>
        <time>2017-08-06T14:35:03Z</time>
      </trkpt>
      <trkpt lat="49.00998" lon="3.92241">
        <ele>108.29</ele>
        <time>2017-08-06T14:35:04Z</time>
      </trkpt>
      <trkpt lat="49.00991" lon="3.92233">
        <ele>109.73</ele>
        <time>2017-08-06T14:35:12Z</time>
      </trkpt>
      <trkpt lat="49.0099" lon="3.92232">
        <ele>109.25</ele>
        <time>2017-08-06T14:35:13Z</time>
      </trkpt>
      <trkpt lat="49.00989" lon="3.92231">
        <ele>109.25</ele>
        <time>2017-08-06T14:35:14Z</time>
      </trkpt>
      <trkpt lat="49.00987" lon="3.92231">
        <ele>109.25</ele>
        <time>2017-08-06T14:35:15Z</time>
      </trkpt>
      <trkpt lat="49.00986" lon="3.92231">
        <ele>109.25</ele>
        <time>2017-08-06T14:35:16Z</time>
      </trkpt>
      <trkpt lat="49.00984" lon="3.92232">
        <ele>109.73</ele>
        <time>2017-08-06T14:35:17Z</time>
      </trkpt>
      <trkpt lat="49.00983" lon="3.92234">
        <ele>109.73</ele>
        <time>2017-08-06T14:35:18Z</time>
      </trkpt>
      <trkpt lat="49.00962" lon="3.92244">
        <ele>111.17</ele>
        <time>2017-08-06T14:35:31Z</time>
      </trkpt>
      <trkpt lat="49.00961" lon="3.92246">
        <ele>111.17</ele>
        <time>2017-08-06T14:35:32Z</time>
      </trkpt>
      <trkpt lat="49.00959" lon="3.92249">
        <ele>111.65</ele>
        <time>2017-08-06T14:35:34Z</time>
      </trkpt>
      <trkpt lat="49.00958" lon="3.9225">
        <ele>111.65</ele>
        <time>2017-08-06T14:35:35Z</time>
      </trkpt>
      <trkpt lat="49.00946" lon="3.92251">
        <ele>112.61</ele>
        <time>2017-08-06T14:35:44Z</time>
      </trkpt>
      <trkpt lat="49.00945" lon="3.92251">
        <ele>113.09</ele>
        <time>2017-08-06T14:35:45Z</time>
      </trkpt>
      <trkpt lat="49.00943" lon="3.9225">
        <ele>113.09</ele>
        <time>2017-08-06T14:35:46Z</time>
      </trkpt>
      <trkpt lat="49.00942" lon="3.9225">
        <ele>113.09</ele>
        <time>2017-08-06T14:35:47Z</time>
      </trkpt>
      <trkpt lat="49.00941" lon="3.92249">
        <ele>113.57</ele>
        <time>2017-08-06T14:35:48Z</time>
      </trkpt>
      <trkpt lat="49.00939" lon="3.9225">
        <ele>113.57</ele>
        <time>2017-08-06T14:35:49Z</time>
      </trkpt>
      <trkpt lat="49.00938" lon="3.92251">
        <ele>114.05</ele>
        <time>2017-08-06T14:35:50Z</time>
      </trkpt>
      <trkpt lat="49.00937" lon="3.92252">
        <ele>114.05</ele>
        <time>2017-08-06T14:35:51Z</time>
      </trkpt>
      <trkpt lat="49.00936" lon="3.92253">
        <ele>114.05</ele>
        <time>2017-08-06T14:35:52Z</time>
      </trkpt>
      <trkpt lat="49.00934" lon="3.92254">
        <ele>114.05</ele>
        <time>2017-08-06T14:35:53Z</time>
      </trkpt>
      <trkpt lat="49.00933" lon="3.92254">
        <ele>114.05</ele>
        <time>2017-08-06T14:35:54Z</time>
      </trkpt>
      <trkpt lat="49.00931" lon="3.92252">
        <ele>114.05</ele>
        <time>2017-08-06T14:35:55Z</time>
      </trkpt>
      <trkpt lat="49.0093" lon="3.92252">
        <ele>115.01</ele>
        <time>2017-08-06T14:35:56Z</time>
      </trkpt>
      <trkpt lat="49.00929" lon="3.92252">
        <ele>115.01</ele>
        <time>2017-08-06T14:35:57Z</time>
      </trkpt>
      <trkpt lat="49.00927" lon="3.92253">
        <ele>115.01</ele>
        <time>2017-08-06T14:35:58Z</time>
      </trkpt>
      <trkpt lat="49.00926" lon="3.92255">
        <ele>115.5</ele>
        <time>2017-08-06T14:35:59Z</time>
      </trkpt>
      <trkpt lat="49.00925" lon="3.92256">
        <ele>115.01</ele>
        <time>2017-08-06T14:36:00Z</time>
      </trkpt>
      <trkpt lat="49.00924" lon="3.92257">
        <ele>115.5</ele>
        <time>2017-08-06T14:36:01Z</time>
      </trkpt>
      <trkpt lat="49.00923" lon="3.92256">
        <ele>115.01</ele>
        <time>2017-08-06T14:36:02Z</time>
      </trkpt>
      <trkpt lat="49.00922" lon="3.92255">
        <ele>115.5</ele>
        <time>2017-08-06T14:36:03Z</time>
      </trkpt>
      <trkpt lat="49.00919" lon="3.92254">
        <ele>115.98</ele>
        <time>2017-08-06T14:36:05Z</time>
      </trkpt>
      <trkpt lat="49.00918" lon="3.92255">
        <ele>116.46</ele>
        <time>2017-08-06T14:36:06Z</time>
      </trkpt>
      <trkpt lat="49.00914" lon="3.92258">
        <ele>116.46</ele>
        <time>2017-08-06T14:36:10Z</time>
      </trkpt>
      <trkpt lat="49.00912" lon="3.92256">
        <ele>116.46</ele>
        <time>2017-08-06T14:36:11Z</time>
      </trkpt>
      <trkpt lat="49.00911" lon="3.92255">
        <ele>116.46</ele>
        <time>2017-08-06T14:36:12Z</time>
      </trkpt>
      <trkpt lat="49.0091" lon="3.92255">
        <ele>117.42</ele>
        <time>2017-08-06T14:36:13Z</time>
      </trkpt>
      <trkpt lat="49.00908" lon="3.92255">
        <ele>117.42</ele>
        <time>2017-08-06T14:36:14Z</time>
      </trkpt>
      <trkpt lat="49.00907" lon="3.92257">
        <ele>117.42</ele>
        <time>2017-08-06T14:36:15Z</time>
      </trkpt>
      <trkpt lat="49.00906" lon="3.92258">
        <ele>117.42</ele>
        <time>2017-08-06T14:36:16Z</time>
      </trkpt>
      <trkpt lat="49.00905" lon="3.92258">
        <ele>117.42</ele>
        <time>2017-08-06T14:36:17Z</time>
      </trkpt>
      <trkpt lat="49.00904" lon="3.92257">
        <ele>117.42</ele>
        <time>2017-08-06T14:36:18Z</time>
      </trkpt>
      <trkpt lat="49.00903" lon="3.92256">
        <ele>117.42</ele>
        <time>2017-08-06T14:36:19Z</time>
      </trkpt>
      <trkpt lat="49.00901" lon="3.92255">
        <ele>117.42</ele>
        <time>2017-08-06T14:36:20Z</time>
      </trkpt>
      <trkpt lat="49.009" lon="3.92255">
        <ele>117.9</ele>
        <time>2017-08-06T14:36:21Z</time>
      </trkpt>
      <trkpt lat="49.00899" lon="3.92255">
        <ele>117.9</ele>
        <time>2017-08-06T14:36:22Z</time>
      </trkpt>
      <trkpt lat="49.00898" lon="3.92256">
        <ele>117.9</ele>
        <time>2017-08-06T14:36:23Z</time>
      </trkpt>
      <trkpt lat="49.00897" lon="3.92258">
        <ele>117.9</ele>
        <time>2017-08-06T14:36:24Z</time>
      </trkpt>
      <trkpt lat="49.00895" lon="3.92259">
        <ele>118.86</ele>
        <time>2017-08-06T14:36:25Z</time>
      </trkpt>
      <trkpt lat="49.00894" lon="3.9226">
        <ele>118.38</ele>
        <time>2017-08-06T14:36:26Z</time>
      </trkpt>
      <trkpt lat="49.00894" lon="3.92259">
        <ele>118.38</ele>
        <time>2017-08-06T14:36:27Z</time>
      </trkpt>
      <trkpt lat="49.00893" lon="3.92257">
        <ele>118.38</ele>
        <time>2017-08-06T14:36:28Z</time>
      </trkpt>
      <trkpt lat="49.00891" lon="3.92256">
        <ele>118.86</ele>
        <time>2017-08-06T14:36:29Z</time>
      </trkpt>
      <trkpt lat="49.0089" lon="3.92257">
        <ele>118.86</ele>
        <time>2017-08-06T14:36:30Z</time>
      </trkpt>
      <trkpt lat="49.00889" lon="3.92258">
        <ele>119.34</ele>
        <time>2017-08-06T14:36:31Z</time>
      </trkpt>
      <trkpt lat="49.00888" lon="3.9226">
        <ele>119.34</ele>
        <time>2017-08-06T14:36:32Z</time>
      </trkpt>
      <trkpt lat="49.00887" lon="3.92262">
        <ele>119.34</ele>
        <time>2017-08-06T14:36:33Z</time>
      </trkpt>
      <trkpt lat="49.00886" lon="3.92262">
        <ele>119.34</ele>
        <time>2017-08-06T14:36:34Z</time>
      </trkpt>
      <trkpt lat="49.00884" lon="3.92262">
        <ele>119.34</ele>
        <time>2017-08-06T14:36:35Z</time>
      </trkpt>
      <trkpt lat="49.00883" lon="3.92261">
        <ele>119.34</ele>
        <time>2017-08-06T14:36:36Z</time>
      </trkpt>
      <trkpt lat="49.00883" lon="3.92259">
        <ele>119.82</ele>
        <time>2017-08-06T14:36:37Z</time>
      </trkpt>
      <trkpt lat="49.00881" lon="3.92258">
        <ele>119.82</ele>
        <time>2017-08-06T14:36:38Z</time>
      </trkpt>
      <trkpt lat="49.0088" lon="3.92257">
        <ele>120.3</ele>
        <time>2017-08-06T14:36:39Z</time>
      </trkpt>
      <trkpt lat="49.00879" lon="3.92258">
        <ele>120.3</ele>
        <time>2017-08-06T14:36:40Z</time>
      </trkpt>
      <trkpt lat="49.00878" lon="3.92259">
        <ele>120.78</ele>
        <time>2017-08-06T14:36:41Z</time>
      </trkpt>
      <trkpt lat="49.00877" lon="3.92261">
        <ele>120.78</ele>
        <time>2017-08-06T14:36:42Z</time>
      </trkpt>
      <trkpt lat="49.00875" lon="3.92262">
        <ele>120.78</ele>
        <time>2017-08-06T14:36:43Z</time>
      </trkpt>
      <trkpt lat="49.00874" lon="3.92262">
        <ele>120.78</ele>
        <time>2017-08-06T14:36:44Z</time>
      </trkpt>
      <trkpt lat="49.00874" lon="3.92261">
        <ele>120.78</ele>
        <time>2017-08-06T14:36:45Z</time>
      </trkpt>
      <trkpt lat="49.00872" lon="3.92259">
        <ele>121.26</ele>
        <time>2017-08-06T14:36:46Z</time>
      </trkpt>
      <trkpt lat="49.00871" lon="3.92259">
        <ele>121.26</ele>
        <time>2017-08-06T14:36:47Z</time>
      </trkpt>
      <trkpt lat="49.0087" lon="3.92259">
        <ele>121.74</ele>
        <time>2017-08-06T14:36:48Z</time>
      </trkpt>
      <trkpt lat="49.00869" lon="3.92261">
        <ele>121.74</ele>
        <time>2017-08-06T14:36:49Z</time>
      </trkpt>
      <trkpt lat="49.00868" lon="3.92262">
        <ele>122.22</ele>
        <time>2017-08-06T14:36:50Z</time>
      </trkpt>
      <trkpt lat="49.00867" lon="3.92261">
        <ele>122.22</ele>
        <time>2017-08-06T14:36:51Z</time>
      </trkpt>
      <trkpt lat="49.00865" lon="3.9226">
        <ele>122.22</ele>
        <time>2017-08-06T14:36:52Z</time>
      </trkpt>
      <trkpt lat="49.00864" lon="3.9226">
        <ele>122.71</ele>
        <time>2017-08-06T14:36:53Z</time>
      </trkpt>
      <trkpt lat="49.00863" lon="3.92261">
        <ele>122.22</ele>
        <time>2017-08-06T14:36:54Z</time>
      </trkpt>
      <trkpt lat="49.00862" lon="3.92262">
        <ele>122.22</ele>
        <time>2017-08-06T14:36:55Z</time>
      </trkpt>
      <trkpt lat="49.00861" lon="3.92263">
        <ele>122.22</ele>
        <time>2017-08-06T14:36:56Z</time>
      </trkpt>
      <trkpt lat="49.00859" lon="3.92263">
        <ele>122.71</ele>
        <time>2017-08-06T14:36:57Z</time>
      </trkpt>
      <trkpt lat="49.00858" lon="3.92262">
        <ele>122.71</ele>
        <time>2017-08-06T14:36:58Z</time>
      </trkpt>
      <trkpt lat="49.00857" lon="3.92261">
        <ele>123.19</ele>
        <time>2017-08-06T14:36:59Z</time>
      </trkpt>
      <trkpt lat="49.00855" lon="3.9226">
        <ele>123.19</ele>
        <time>2017-08-06T14:37:00Z</time>
      </trkpt>
      <trkpt lat="49.00854" lon="3.92261">
        <ele>123.67</ele>
        <time>2017-08-06T14:37:01Z</time>
      </trkpt>
      <trkpt lat="49.00853" lon="3.92262">
        <ele>123.67</ele>
        <time>2017-08-06T14:37:02Z</time>
      </trkpt>
      <trkpt lat="49.00852" lon="3.92264">
        <ele>123.67</ele>
        <time>2017-08-06T14:37:03Z</time>
      </trkpt>
      <trkpt lat="49.00851" lon="3.92265">
        <ele>124.15</ele>
        <time>2017-08-06T14:37:04Z</time>
      </trkpt>
      <trkpt lat="49.00849" lon="3.92264">
        <ele>124.15</ele>
        <time>2017-08-06T14:37:05Z</time>
      </trkpt>
      <trkpt lat="49.00848" lon="3.92263">
        <ele>124.63</ele>
        <time>2017-08-06T14:37:06Z</time>
      </trkpt>
      <trkpt lat="49.00847" lon="3.92261">
        <ele>124.63</ele>
        <time>2017-08-06T14:37:07Z</time>
      </trkpt>
      <trkpt lat="49.00846" lon="3.92261">
        <ele>125.11</ele>
        <time>2017-08-06T14:37:08Z</time>
      </trkpt>
      <trkpt lat="49.00844" lon="3.92262">
        <ele>125.11</ele>
        <time>2017-08-06T14:37:09Z</time>
      </trkpt>
      <trkpt lat="49.00843" lon="3.92263">
        <ele>125.11</ele>
        <time>2017-08-06T14:37:10Z</time>
      </trkpt>
      <trkpt lat="49.00842" lon="3.92264">
        <ele>125.59</ele>
        <time>2017-08-06T14:37:11Z</time>
      </trkpt>
      <trkpt lat="49.00841" lon="3.92265">
        <ele>125.59</ele>
        <time>2017-08-06T14:37:12Z</time>
      </trkpt>
      <trkpt lat="49.0084" lon="3.92264">
        <ele>125.59</ele>
        <time>2017-08-06T14:37:13Z</time>
      </trkpt>
      <trkpt lat="49.00839" lon="3.92262">
        <ele>125.59</ele>
        <time>2017-08-06T14:37:14Z</time>
      </trkpt>
      <trkpt lat="49.00838" lon="3.92261">
        <ele>126.07</ele>
        <time>2017-08-06T14:37:15Z</time>
      </trkpt>
      <trkpt lat="49.00836" lon="3.92261">
        <ele>126.07</ele>
        <time>2017-08-06T14:37:16Z</time>
      </trkpt>
      <trkpt lat="49.00835" lon="3.92261">
        <ele>126.55</ele>
        <time>2017-08-06T14:37:17Z</time>
      </trkpt>
      <trkpt lat="49.00833" lon="3.92262">
        <ele>126.55</ele>
        <time>2017-08-06T14:37:18Z</time>
      </trkpt>
      <trkpt lat="49.00832" lon="3.92263">
        <ele>126.55</ele>
        <time>2017-08-06T14:37:19Z</time>
      </trkpt>
      <trkpt lat="49.00831" lon="3.92264">
        <ele>126.55</ele>
        <time>2017-08-06T14:37:20Z</time>
      </trkpt>
      <trkpt lat="49.00829" lon="3.92264">
        <ele>126.55</ele>
        <time>2017-08-06T14:37:21Z</time>
      </trkpt>
      <trkpt lat="49.00828" lon="3.92262">
        <ele>127.51</ele>
        <time>2017-08-06T14:37:22Z</time>
      </trkpt>
      <trkpt lat="49.00827" lon="3.9226">
        <ele>127.51</ele>
        <time>2017-08-06T14:37:23Z</time>
      </trkpt>
      <trkpt lat="49.00826" lon="3.92259">
        <ele>127.51</ele>
        <time>2017-08-06T14:37:24Z</time>
      </trkpt>
      <trkpt lat="49.00825" lon="3.92259">
        <ele>127.99</ele>
        <time>2017-08-06T14:37:25Z</time>
      </trkpt>
      <trkpt lat="49.00824" lon="3.9226">
        <ele>127.99</ele>
        <time>2017-08-06T14:37:26Z</time>
      </trkpt>
      <trkpt lat="49.00823" lon="3.92261">
        <ele>127.99</ele>
        <time>2017-08-06T14:37:27Z</time>
      </trkpt>
      <trkpt lat="49.00822" lon="3.92263">
        <ele>128.47</ele>
        <time>2017-08-06T14:37:28Z</time>
      </trkpt>
      <trkpt lat="49.0082" lon="3.92263">
        <ele>128.47</ele>
        <time>2017-08-06T14:37:29Z</time>
      </trkpt>
      <trkpt lat="49.0082" lon="3.92261">
        <ele>128.47</ele>
        <time>2017-08-06T14:37:30Z</time>
      </trkpt>
      <trkpt lat="49.00819" lon="3.92259">
        <ele>128.47</ele>
        <time>2017-08-06T14:37:31Z</time>
      </trkpt>
      <trkpt lat="49.00818" lon="3.92257">
        <ele>128.47</ele>
        <time>2017-08-06T14:37:32Z</time>
      </trkpt>
      <trkpt lat="49.00817" lon="3.92255">
        <ele>128.47</ele>
        <time>2017-08-06T14:37:33Z</time>
      </trkpt>
      <trkpt lat="49.00816" lon="3.92255">
        <ele>128.95</ele>
        <time>2017-08-06T14:37:34Z</time>
      </trkpt>
      <trkpt lat="49.00815" lon="3.92256">
        <ele>128.95</ele>
        <time>2017-08-06T14:37:35Z</time>
      </trkpt>
      <trkpt lat="49.00814" lon="3.92257">
        <ele>128.95</ele>
        <time>2017-08-06T14:37:36Z</time>
      </trkpt>
      <trkpt lat="49.00813" lon="3.92256">
        <ele>129.43</ele>
        <time>2017-08-06T14:37:37Z</time>
      </trkpt>
      <trkpt lat="49.00812" lon="3.92255">
        <ele>129.43</ele>
        <time>2017-08-06T14:37:38Z</time>
      </trkpt>
      <trkpt lat="49.00812" lon="3.92253">
        <ele>129.43</ele>
        <time>2017-08-06T14:37:39Z</time>
      </trkpt>
      <trkpt lat="49.00811" lon="3.92251">
        <ele>129.43</ele>
        <time>2017-08-06T14:37:40Z</time>
      </trkpt>
      <trkpt lat="49.0081" lon="3.9225">
        <ele>130.4</ele>
        <time>2017-08-06T14:37:41Z</time>
      </trkpt>
      <trkpt lat="49.00809" lon="3.9225">
        <ele>130.4</ele>
        <time>2017-08-06T14:37:42Z</time>
      </trkpt>
      <trkpt lat="49.00807" lon="3.9225">
        <ele>130.4</ele>
        <time>2017-08-06T14:37:43Z</time>
      </trkpt>
      <trkpt lat="49.00806" lon="3.9225">
        <ele>130.4</ele>
        <time>2017-08-06T14:37:44Z</time>
      </trkpt>
      <trkpt lat="49.00806" lon="3.92249">
        <ele>130.4</ele>
        <time>2017-08-06T14:37:45Z</time>
      </trkpt>
      <trkpt lat="49.00806" lon="3.92247">
        <ele>130.4</ele>
        <time>2017-08-06T14:37:46Z</time>
      </trkpt>
      <trkpt lat="49.00805" lon="3.92245">
        <ele>130.88</ele>
        <time>2017-08-06T14:37:47Z</time>
      </trkpt>
      <trkpt lat="49.00804" lon="3.92244">
        <ele>130.88</ele>
        <time>2017-08-06T14:37:48Z</time>
      </trkpt>
      <trkpt lat="49.00803" lon="3.92243">
        <ele>131.36</ele>
        <time>2017-08-06T14:37:49Z</time>
      </trkpt>
      <trkpt lat="49.00802" lon="3.92244">
        <ele>131.36</ele>
        <time>2017-08-06T14:37:50Z</time>
      </trkpt>
      <trkpt lat="49.008" lon="3.92244">
        <ele>131.36</ele>
        <time>2017-08-06T14:37:51Z</time>
      </trkpt>
      <trkpt lat="49.00799" lon="3.92244">
        <ele>131.36</ele>
        <time>2017-08-06T14:37:52Z</time>
      </trkpt>
      <trkpt lat="49.00799" lon="3.92242">
        <ele>131.36</ele>
        <time>2017-08-06T14:37:53Z</time>
      </trkpt>
      <trkpt lat="49.00798" lon="3.9224">
        <ele>131.84</ele>
        <time>2017-08-06T14:37:54Z</time>
      </trkpt>
      <trkpt lat="49.00798" lon="3.92238">
        <ele>131.84</ele>
        <time>2017-08-06T14:37:55Z</time>
      </trkpt>
      <trkpt lat="49.00797" lon="3.92236">
        <ele>131.84</ele>
        <time>2017-08-06T14:37:56Z</time>
      </trkpt>
      <trkpt lat="49.00796" lon="3.92235">
        <ele>132.32</ele>
        <time>2017-08-06T14:37:57Z</time>
      </trkpt>
      <trkpt lat="49.00794" lon="3.92235">
        <ele>132.32</ele>
        <time>2017-08-06T14:37:58Z</time>
      </trkpt>
      <trkpt lat="49.00793" lon="3.92235">
        <ele>132.32</ele>
        <time>2017-08-06T14:37:59Z</time>
      </trkpt>
      <trkpt lat="49.00792" lon="3.92235">
        <ele>132.8</ele>
        <time>2017-08-06T14:38:00Z</time>
      </trkpt>
      <trkpt lat="49.00791" lon="3.92235">
        <ele>132.8</ele>
        <time>2017-08-06T14:38:01Z</time>
      </trkpt>
      <trkpt lat="49.0079" lon="3.92233">
        <ele>132.8</ele>
        <time>2017-08-06T14:38:02Z</time>
      </trkpt>
      <trkpt lat="49.0079" lon="3.92231">
        <ele>132.8</ele>
        <time>2017-08-06T14:38:03Z</time>
      </trkpt>
      <trkpt lat="49.0079" lon="3.92228">
        <ele>133.28</ele>
        <time>2017-08-06T14:38:04Z</time>
      </trkpt>
      <trkpt lat="49.00789" lon="3.92227">
        <ele>133.28</ele>
        <time>2017-08-06T14:38:05Z</time>
      </trkpt>
      <trkpt lat="49.00787" lon="3.92226">
        <ele>133.76</ele>
        <time>2017-08-06T14:38:06Z</time>
      </trkpt>
      <trkpt lat="49.00786" lon="3.92226">
        <ele>134.24</ele>
        <time>2017-08-06T14:38:07Z</time>
      </trkpt>
      <trkpt lat="49.00785" lon="3.92226">
        <ele>134.24</ele>
        <time>2017-08-06T14:38:08Z</time>
      </trkpt>
      <trkpt lat="49.00784" lon="3.92226">
        <ele>134.24</ele>
        <time>2017-08-06T14:38:09Z</time>
      </trkpt>
      <trkpt lat="49.00783" lon="3.92224">
        <ele>134.24</ele>
        <time>2017-08-06T14:38:10Z</time>
      </trkpt>
      <trkpt lat="49.00783" lon="3.92222">
        <ele>134.24</ele>
        <time>2017-08-06T14:38:11Z</time>
      </trkpt>
      <trkpt lat="49.00782" lon="3.9222">
        <ele>134.24</ele>
        <time>2017-08-06T14:38:12Z</time>
      </trkpt>
      <trkpt lat="49.00782" lon="3.92218">
        <ele>134.72</ele>
        <time>2017-08-06T14:38:26Z</time>
      </trkpt>
      <trkpt lat="49.00781" lon="3.92218">
        <ele>134.72</ele>
        <time>2017-08-06T14:38:47Z</time>
      </trkpt>
      <trkpt lat="49.00774" lon="3.92211">
        <ele>136.16</ele>
        <time>2017-08-06T14:39:01Z</time>
      </trkpt>
      <trkpt lat="49.00757" lon="3.92197">
        <ele>139.53</ele>
        <time>2017-08-06T14:39:21Z</time>
      </trkpt>
      <trkpt lat="49.00737" lon="3.92187">
        <ele>141.93</ele>
        <time>2017-08-06T14:39:42Z</time>
      </trkpt>
      <trkpt lat="49.00728" lon="3.92188">
        <ele>143.37</ele>
        <time>2017-08-06T14:39:52Z</time>
      </trkpt>
      <trkpt lat="49.00713" lon="3.92204">
        <ele>146.26</ele>
        <time>2017-08-06T14:40:11Z</time>
      </trkpt>
      <trkpt lat="49.007" lon="3.92227">
        <ele>148.66</ele>
        <time>2017-08-06T14:40:31Z</time>
      </trkpt>
      <trkpt lat="49.00683" lon="3.92244">
        <ele>151.54</ele>
        <time>2017-08-06T14:40:51Z</time>
      </trkpt>
      <trkpt lat="49.00667" lon="3.92257">
        <ele>154.91</ele>
        <time>2017-08-06T14:41:10Z</time>
      </trkpt>
      <trkpt lat="49.00652" lon="3.92266">
        <ele>156.35</ele>
        <time>2017-08-06T14:41:26Z</time>
      </trkpt>
      <trkpt lat="49.00635" lon="3.92274">
        <ele>158.27</ele>
        <time>2017-08-06T14:41:43Z</time>
      </trkpt>
      <trkpt lat="49.00628" lon="3.92278">
        <ele>159.24</ele>
        <time>2017-08-06T14:41:56Z</time>
      </trkpt>
      <trkpt lat="49.00634" lon="3.92282">
        <ele>159.24</ele>
        <time>2017-08-06T14:42:08Z</time>
      </trkpt>
      <trkpt lat="49.00633" lon="3.92283">
        <ele>159.24</ele>
        <time>2017-08-06T14:42:24Z</time>
      </trkpt>
      <trkpt lat="49.00631" lon="3.92281">
        <ele>159.24</ele>
        <time>2017-08-06T14:42:58Z</time>
      </trkpt>
      <trkpt lat="49.00632" lon="3.92284">
        <ele>159.24</ele>
        <time>2017-08-06T14:43:37Z</time>
      </trkpt>
      <trkpt lat="49.00631" lon="3.92283">
        <ele>158.75</ele>
        <time>2017-08-06T14:44:14Z</time>
      </trkpt>
      <trkpt lat="49.00631" lon="3.92282">
        <ele>158.75</ele>
        <time>2017-08-06T14:45:04Z</time>
      </trkpt>
      <trkpt lat="49.00632" lon="3.92283">
        <ele>158.75</ele>
        <time>2017-08-06T14:45:37Z</time>
      </trkpt>
      <trkpt lat="49.00633" lon="3.92284">
        <ele>159.24</ele>
        <time>2017-08-06T14:46:00Z</time>
      </trkpt>
      <trkpt lat="49.00629" lon="3.92278">
        <ele>159.24</ele>
        <time>2017-08-06T14:46:15Z</time>
      </trkpt>
      <trkpt lat="49.00626" lon="3.92278">
        <ele>159.24</ele>
        <time>2017-08-06T14:46:32Z</time>
      </trkpt>
      <trkpt lat="49.00623" lon="3.92279">
        <ele>159.24</ele>
        <time>2017-08-06T14:46:53Z</time>
      </trkpt>
      <trkpt lat="49.00621" lon="3.9228">
        <ele>159.24</ele>
        <time>2017-08-06T14:46:55Z</time>
      </trkpt>
      <trkpt lat="49.0062" lon="3.92281">
        <ele>159.24</ele>
        <time>2017-08-06T14:46:56Z</time>
      </trkpt>
      <trkpt lat="49.00619" lon="3.92281">
        <ele>159.24</ele>
        <time>2017-08-06T14:46:57Z</time>
      </trkpt>
      <trkpt lat="49.00617" lon="3.92282">
        <ele>159.24</ele>
        <time>2017-08-06T14:46:58Z</time>
      </trkpt>
      <trkpt lat="49.00616" lon="3.92283">
        <ele>159.24</ele>
        <time>2017-08-06T14:46:59Z</time>
      </trkpt>
      <trkpt lat="49.00588" lon="3.92309">
        <ele>159.72</ele>
        <time>2017-08-06T14:47:14Z</time>
      </trkpt>
      <trkpt lat="49.00558" lon="3.92336">
        <ele>160.68</ele>
        <time>2017-08-06T14:47:29Z</time>
      </trkpt>
      <trkpt lat="49.00536" lon="3.92341">
        <ele>162.6</ele>
        <time>2017-08-06T14:47:42Z</time>
      </trkpt>
      <trkpt lat="49.00517" lon="3.92322">
        <ele>163.56</ele>
        <time>2017-08-06T14:47:56Z</time>
      </trkpt>
      <trkpt lat="49.00499" lon="3.92295">
        <ele>165</ele>
        <time>2017-08-06T14:48:10Z</time>
      </trkpt>
      <trkpt lat="49.00472" lon="3.92271">
        <ele>165.96</ele>
        <time>2017-08-06T14:48:26Z</time>
      </trkpt>
      <trkpt lat="49.00446" lon="3.92255">
        <ele>168.37</ele>
        <time>2017-08-06T14:48:42Z</time>
      </trkpt>
      <trkpt lat="49.00438" lon="3.92253">
        <ele>169.33</ele>
        <time>2017-08-06T14:48:48Z</time>
      </trkpt>
      <trkpt lat="49.00437" lon="3.92251">
        <ele>169.33</ele>
        <time>2017-08-06T14:48:49Z</time>
      </trkpt>
      <trkpt lat="49.00435" lon="3.9225">
        <ele>169.81</ele>
        <time>2017-08-06T14:48:50Z</time>
      </trkpt>
      <trkpt lat="49.00434" lon="3.92249">
        <ele>169.81</ele>
        <time>2017-08-06T14:48:51Z</time>
      </trkpt>
      <trkpt lat="49.00433" lon="3.92248">
        <ele>170.29</ele>
        <time>2017-08-06T14:48:52Z</time>
      </trkpt>
      <trkpt lat="49.00431" lon="3.92248">
        <ele>170.29</ele>
        <time>2017-08-06T14:48:53Z</time>
      </trkpt>
      <trkpt lat="49.0043" lon="3.92248">
        <ele>170.29</ele>
        <time>2017-08-06T14:48:54Z</time>
      </trkpt>
      <trkpt lat="49.00429" lon="3.92247">
        <ele>170.77</ele>
        <time>2017-08-06T14:48:55Z</time>
      </trkpt>
      <trkpt lat="49.00403" lon="3.92239">
        <ele>172.21</ele>
        <time>2017-08-06T14:49:11Z</time>
      </trkpt>
      <trkpt lat="49.00364" lon="3.92246">
        <ele>173.66</ele>
        <time>2017-08-06T14:49:29Z</time>
      </trkpt>
      <trkpt lat="49.0032" lon="3.92266">
        <ele>173.66</ele>
        <time>2017-08-06T14:49:43Z</time>
      </trkpt>
      <trkpt lat="49.00275" lon="3.9228">
        <ele>173.66</ele>
        <time>2017-08-06T14:49:57Z</time>
      </trkpt>
      <trkpt lat="49.0025" lon="3.92281">
        <ele>174.62</ele>
        <time>2017-08-06T14:50:10Z</time>
      </trkpt>
      <trkpt lat="49.00222" lon="3.92279">
        <ele>175.1</ele>
        <time>2017-08-06T14:50:21Z</time>
      </trkpt>
      <trkpt lat="49.00173" lon="3.92288">
        <ele>175.1</ele>
        <time>2017-08-06T14:50:33Z</time>
      </trkpt>
      <trkpt lat="49.00135" lon="3.92296">
        <ele>176.54</ele>
        <time>2017-08-06T14:50:44Z</time>
      </trkpt>
      <trkpt lat="49.00102" lon="3.923">
        <ele>179.42</ele>
        <time>2017-08-06T14:50:58Z</time>
      </trkpt>
      <trkpt lat="49.0007" lon="3.92303">
        <ele>180.87</ele>
        <time>2017-08-06T14:51:12Z</time>
      </trkpt>
      <trkpt lat="49.00049" lon="3.92304">
        <ele>179.9</ele>
        <time>2017-08-06T14:51:18Z</time>
      </trkpt>
      <trkpt lat="49.00006" lon="3.92296">
        <ele>176.54</ele>
        <time>2017-08-06T14:51:28Z</time>
      </trkpt>
      <trkpt lat="48.99958" lon="3.92278">
        <ele>176.54</ele>
        <time>2017-08-06T14:51:39Z</time>
      </trkpt>
      <trkpt lat="48.99915" lon="3.92272">
        <ele>176.54</ele>
        <time>2017-08-06T14:51:51Z</time>
      </trkpt>
      <trkpt lat="48.99898" lon="3.92274">
        <ele>177.98</ele>
        <time>2017-08-06T14:51:56Z</time>
      </trkpt>
      <trkpt lat="48.99869" lon="3.92279">
        <ele>179.42</ele>
        <time>2017-08-06T14:52:10Z</time>
      </trkpt>
      <trkpt lat="48.99849" lon="3.9229">
        <ele>181.35</ele>
        <time>2017-08-06T14:52:23Z</time>
      </trkpt>
      <trkpt lat="48.99833" lon="3.92305">
        <ele>183.27</ele>
        <time>2017-08-06T14:52:37Z</time>
      </trkpt>
      <trkpt lat="48.99811" lon="3.92319">
        <ele>186.15</ele>
        <time>2017-08-06T14:52:53Z</time>
      </trkpt>
      <trkpt lat="48.99788" lon="3.92328">
        <ele>187.59</ele>
        <time>2017-08-06T14:53:08Z</time>
      </trkpt>
      <trkpt lat="48.99766" lon="3.92336">
        <ele>189.52</ele>
        <time>2017-08-06T14:53:22Z</time>
      </trkpt>
      <trkpt lat="48.99755" lon="3.92336">
        <ele>190.48</ele>
        <time>2017-08-06T14:53:29Z</time>
      </trkpt>
      <trkpt lat="48.99754" lon="3.92335">
        <ele>190.48</ele>
        <time>2017-08-06T14:53:30Z</time>
      </trkpt>
      <trkpt lat="48.99752" lon="3.92335">
        <ele>190.48</ele>
        <time>2017-08-06T14:53:31Z</time>
      </trkpt>
      <trkpt lat="48.99747" lon="3.92334">
        <ele>190.48</ele>
        <time>2017-08-06T14:53:35Z</time>
      </trkpt>
      <trkpt lat="48.99729" lon="3.92329">
        <ele>192.4</ele>
        <time>2017-08-06T14:53:47Z</time>
      </trkpt>
      <trkpt lat="48.99712" lon="3.92325">
        <ele>194.32</ele>
        <time>2017-08-06T14:53:59Z</time>
      </trkpt>
      <trkpt lat="48.99691" lon="3.92321">
        <ele>195.77</ele>
        <time>2017-08-06T14:54:12Z</time>
      </trkpt>
      <trkpt lat="48.99666" lon="3.92317">
        <ele>197.69</ele>
        <time>2017-08-06T14:54:26Z</time>
      </trkpt>
      <trkpt lat="48.99638" lon="3.92313">
        <ele>199.13</ele>
        <time>2017-08-06T14:54:43Z</time>
      </trkpt>
      <trkpt lat="48.99613" lon="3.92308">
        <ele>201.53</ele>
        <time>2017-08-06T14:54:59Z</time>
      </trkpt>
      <trkpt lat="48.99593" lon="3.92302">
        <ele>203.94</ele>
        <time>2017-08-06T14:55:13Z</time>
      </trkpt>
      <trkpt lat="48.99587" lon="3.923">
        <ele>204.42</ele>
        <time>2017-08-06T14:55:17Z</time>
      </trkpt>
      <trkpt lat="48.99586" lon="3.92299">
        <ele>204.42</ele>
        <time>2017-08-06T14:55:18Z</time>
      </trkpt>
      <trkpt lat="48.99585" lon="3.92297">
        <ele>204.42</ele>
        <time>2017-08-06T14:55:19Z</time>
      </trkpt>
      <trkpt lat="48.99584" lon="3.92297">
        <ele>204.42</ele>
        <time>2017-08-06T14:55:20Z</time>
      </trkpt>
      <trkpt lat="48.99582" lon="3.92296">
        <ele>205.38</ele>
        <time>2017-08-06T14:55:21Z</time>
      </trkpt>
      <trkpt lat="48.99581" lon="3.92296">
        <ele>205.38</ele>
        <time>2017-08-06T14:55:22Z</time>
      </trkpt>
      <trkpt lat="48.99579" lon="3.92295">
        <ele>205.86</ele>
        <time>2017-08-06T14:55:23Z</time>
      </trkpt>
      <trkpt lat="48.99578" lon="3.92294">
        <ele>205.86</ele>
        <time>2017-08-06T14:55:24Z</time>
      </trkpt>
      <trkpt lat="48.9956" lon="3.92289">
        <ele>207.78</ele>
        <time>2017-08-06T14:55:36Z</time>
      </trkpt>
      <trkpt lat="48.99533" lon="3.92288">
        <ele>210.19</ele>
        <time>2017-08-06T14:55:53Z</time>
      </trkpt>
      <trkpt lat="48.99515" lon="3.92294">
        <ele>212.11</ele>
        <time>2017-08-06T14:56:07Z</time>
      </trkpt>
      <trkpt lat="48.99507" lon="3.92298">
        <ele>213.07</ele>
        <time>2017-08-06T14:56:13Z</time>
      </trkpt>
      <trkpt lat="48.99506" lon="3.92298">
        <ele>213.07</ele>
        <time>2017-08-06T14:56:14Z</time>
      </trkpt>
      <trkpt lat="48.99485" lon="3.923">
        <ele>215.95</ele>
        <time>2017-08-06T14:56:29Z</time>
      </trkpt>
      <trkpt lat="48.99462" lon="3.92303">
        <ele>218.36</ele>
        <time>2017-08-06T14:56:45Z</time>
      </trkpt>
      <trkpt lat="48.99443" lon="3.92303">
        <ele>220.28</ele>
        <time>2017-08-06T14:56:58Z</time>
      </trkpt>
      <trkpt lat="48.99419" lon="3.92287">
        <ele>221.24</ele>
        <time>2017-08-06T14:57:12Z</time>
      </trkpt>
      <trkpt lat="48.99401" lon="3.9225">
        <ele>221.72</ele>
        <time>2017-08-06T14:57:25Z</time>
      </trkpt>
      <trkpt lat="48.99384" lon="3.92229">
        <ele>222.68</ele>
        <time>2017-08-06T14:57:36Z</time>
      </trkpt>
      <trkpt lat="48.99355" lon="3.92206">
        <ele>224.12</ele>
        <time>2017-08-06T14:57:50Z</time>
      </trkpt>
      <trkpt lat="48.99333" lon="3.9221">
        <ele>225.57</ele>
        <time>2017-08-06T14:58:04Z</time>
      </trkpt>
      <trkpt lat="48.99319" lon="3.92255">
        <ele>227.01</ele>
        <time>2017-08-06T14:58:20Z</time>
      </trkpt>
      <trkpt lat="48.99301" lon="3.92321">
        <ele>228.45</ele>
        <time>2017-08-06T14:58:39Z</time>
      </trkpt>
      <trkpt lat="48.99284" lon="3.92393">
        <ele>228.93</ele>
        <time>2017-08-06T14:58:55Z</time>
      </trkpt>
      <trkpt lat="48.99269" lon="3.92451">
        <ele>229.41</ele>
        <time>2017-08-06T14:59:09Z</time>
      </trkpt>
      <trkpt lat="48.99268" lon="3.9245">
        <ele>229.41</ele>
        <time>2017-08-06T14:59:10Z</time>
      </trkpt>
      <trkpt lat="48.99266" lon="3.92448">
        <ele>229.41</ele>
        <time>2017-08-06T14:59:11Z</time>
      </trkpt>
      <trkpt lat="48.99264" lon="3.92446">
        <ele>229.41</ele>
        <time>2017-08-06T14:59:12Z</time>
      </trkpt>
      <trkpt lat="48.99262" lon="3.92445">
        <ele>229.41</ele>
        <time>2017-08-06T14:59:13Z</time>
      </trkpt>
      <trkpt lat="48.9926" lon="3.92442">
        <ele>229.41</ele>
        <time>2017-08-06T14:59:14Z</time>
      </trkpt>
      <trkpt lat="48.99224" lon="3.92395">
        <ele>230.37</ele>
        <time>2017-08-06T14:59:30Z</time>
      </trkpt>
      <trkpt lat="48.99191" lon="3.9235">
        <ele>230.85</ele>
        <time>2017-08-06T14:59:43Z</time>
      </trkpt>
      <trkpt lat="48.9914" lon="3.92281">
        <ele>232.3</ele>
        <time>2017-08-06T15:00:01Z</time>
      </trkpt>
      <trkpt lat="48.99097" lon="3.92224">
        <ele>233.26</ele>
        <time>2017-08-06T15:00:18Z</time>
      </trkpt>
      <trkpt lat="48.99058" lon="3.92168">
        <ele>233.74</ele>
        <time>2017-08-06T15:00:34Z</time>
      </trkpt>
      <trkpt lat="48.99026" lon="3.92123">
        <ele>233.74</ele>
        <time>2017-08-06T15:00:47Z</time>
      </trkpt>
      <trkpt lat="48.98992" lon="3.92075">
        <ele>235.18</ele>
        <time>2017-08-06T15:01:03Z</time>
      </trkpt>
      <trkpt lat="48.98963" lon="3.92037">
        <ele>235.18</ele>
        <time>2017-08-06T15:01:15Z</time>
      </trkpt>
      <trkpt lat="48.98927" lon="3.91988">
        <ele>235.18</ele>
        <time>2017-08-06T15:01:29Z</time>
      </trkpt>
      <trkpt lat="48.98886" lon="3.91931">
        <ele>235.66</ele>
        <time>2017-08-06T15:01:44Z</time>
      </trkpt>
      <trkpt lat="48.98838" lon="3.91869">
        <ele>235.66</ele>
        <time>2017-08-06T15:01:59Z</time>
      </trkpt>
      <trkpt lat="48.98796" lon="3.91825">
        <ele>235.66</ele>
        <time>2017-08-06T15:02:12Z</time>
      </trkpt>
      <trkpt lat="48.98744" lon="3.91772">
        <ele>236.14</ele>
        <time>2017-08-06T15:02:29Z</time>
      </trkpt>
      <trkpt lat="48.98713" lon="3.91738">
        <ele>236.62</ele>
        <time>2017-08-06T15:02:43Z</time>
      </trkpt>
      <trkpt lat="48.98684" lon="3.9171">
        <ele>236.62</ele>
        <time>2017-08-06T15:02:55Z</time>
      </trkpt>
      <trkpt lat="48.9866" lon="3.9175">
        <ele>237.1</ele>
        <time>2017-08-06T15:03:07Z</time>
      </trkpt>
      <trkpt lat="48.98634" lon="3.9181">
        <ele>237.58</ele>
        <time>2017-08-06T15:03:20Z</time>
      </trkpt>
      <trkpt lat="48.98611" lon="3.91878">
        <ele>235.18</ele>
        <time>2017-08-06T15:03:31Z</time>
      </trkpt>
      <trkpt lat="48.98604" lon="3.91913">
        <ele>235.18</ele>
        <time>2017-08-06T15:03:37Z</time>
      </trkpt>
      <trkpt lat="48.98581" lon="3.92017">
        <ele>233.26</ele>
        <time>2017-08-06T15:03:52Z</time>
      </trkpt>
      <trkpt lat="48.98573" lon="3.92039">
        <ele>232.78</ele>
        <time>2017-08-06T15:03:55Z</time>
      </trkpt>
      <trkpt lat="48.98563" lon="3.9206">
        <ele>230.85</ele>
        <time>2017-08-06T15:03:58Z</time>
      </trkpt>
      <trkpt lat="48.98559" lon="3.92065">
        <ele>230.37</ele>
        <time>2017-08-06T15:03:59Z</time>
      </trkpt>
      <trkpt lat="48.98532" lon="3.92061">
        <ele>229.89</ele>
        <time>2017-08-06T15:04:07Z</time>
      </trkpt>
      <trkpt lat="48.98485" lon="3.92015">
        <ele>228.93</ele>
        <time>2017-08-06T15:04:20Z</time>
      </trkpt>
      <trkpt lat="48.98443" lon="3.91966">
        <ele>228.45</ele>
        <time>2017-08-06T15:04:34Z</time>
      </trkpt>
      <trkpt lat="48.98402" lon="3.9191">
        <ele>228.45</ele>
        <time>2017-08-06T15:04:49Z</time>
      </trkpt>
      <trkpt lat="48.98363" lon="3.91873">
        <ele>230.37</ele>
        <time>2017-08-06T15:05:02Z</time>
      </trkpt>
      <trkpt lat="48.98327" lon="3.91844">
        <ele>230.85</ele>
        <time>2017-08-06T15:05:14Z</time>
      </trkpt>
      <trkpt lat="48.98289" lon="3.9182">
        <ele>231.33</ele>
        <time>2017-08-06T15:05:27Z</time>
      </trkpt>
      <trkpt lat="48.98256" lon="3.91805">
        <ele>232.78</ele>
        <time>2017-08-06T15:05:39Z</time>
      </trkpt>
      <trkpt lat="48.98215" lon="3.91808">
        <ele>233.26</ele>
        <time>2017-08-06T15:05:53Z</time>
      </trkpt>
      <trkpt lat="48.98184" lon="3.91801">
        <ele>234.22</ele>
        <time>2017-08-06T15:06:05Z</time>
      </trkpt>
      <trkpt lat="48.98153" lon="3.9177">
        <ele>235.66</ele>
        <time>2017-08-06T15:06:19Z</time>
      </trkpt>
      <trkpt lat="48.98109" lon="3.91756">
        <ele>236.62</ele>
        <time>2017-08-06T15:06:33Z</time>
      </trkpt>
      <trkpt lat="48.98086" lon="3.91756">
        <ele>236.62</ele>
        <time>2017-08-06T15:06:39Z</time>
      </trkpt>
      <trkpt lat="48.98049" lon="3.9176">
        <ele>235.66</ele>
        <time>2017-08-06T15:06:47Z</time>
      </trkpt>
      <trkpt lat="48.98029" lon="3.91764">
        <ele>234.7</ele>
        <time>2017-08-06T15:06:51Z</time>
      </trkpt>
      <trkpt lat="48.98024" lon="3.91765">
        <ele>235.18</ele>
        <time>2017-08-06T15:06:52Z</time>
      </trkpt>
      <trkpt lat="48.9802" lon="3.91768">
        <ele>235.18</ele>
        <time>2017-08-06T15:06:53Z</time>
      </trkpt>
      <trkpt lat="48.98016" lon="3.91772">
        <ele>235.18</ele>
        <time>2017-08-06T15:06:54Z</time>
      </trkpt>
      <trkpt lat="48.98013" lon="3.91777">
        <ele>234.22</ele>
        <time>2017-08-06T15:06:55Z</time>
      </trkpt>
      <trkpt lat="48.97989" lon="3.91811">
        <ele>233.74</ele>
        <time>2017-08-06T15:07:01Z</time>
      </trkpt>
      <trkpt lat="48.97984" lon="3.91815">
        <ele>232.78</ele>
        <time>2017-08-06T15:07:02Z</time>
      </trkpt>
      <trkpt lat="48.97979" lon="3.9182">
        <ele>232.78</ele>
        <time>2017-08-06T15:07:03Z</time>
      </trkpt>
      <trkpt lat="48.97908" lon="3.9185">
        <ele>231.33</ele>
        <time>2017-08-06T15:07:16Z</time>
      </trkpt>
      <trkpt lat="48.97875" lon="3.91854">
        <ele>232.78</ele>
        <time>2017-08-06T15:07:24Z</time>
      </trkpt>
      <trkpt lat="48.97811" lon="3.91869">
        <ele>233.74</ele>
        <time>2017-08-06T15:07:42Z</time>
      </trkpt>
      <trkpt lat="48.97727" lon="3.91852">
        <ele>233.26</ele>
        <time>2017-08-06T15:08:02Z</time>
      </trkpt>
      <trkpt lat="48.97668" lon="3.91838">
        <ele>231.33</ele>
        <time>2017-08-06T15:08:17Z</time>
      </trkpt>
      <trkpt lat="48.97664" lon="3.91838">
        <ele>231.33</ele>
        <time>2017-08-06T15:08:18Z</time>
      </trkpt>
      <trkpt lat="48.9766" lon="3.91838">
        <ele>231.33</ele>
        <time>2017-08-06T15:08:19Z</time>
      </trkpt>
      <trkpt lat="48.97656" lon="3.91837">
        <ele>230.85</ele>
        <time>2017-08-06T15:08:20Z</time>
      </trkpt>
      <trkpt lat="48.97652" lon="3.91836">
        <ele>230.85</ele>
        <time>2017-08-06T15:08:21Z</time>
      </trkpt>
      <trkpt lat="48.97648" lon="3.91833">
        <ele>230.85</ele>
        <time>2017-08-06T15:08:22Z</time>
      </trkpt>
      <trkpt lat="48.97645" lon="3.9183">
        <ele>230.85</ele>
        <time>2017-08-06T15:08:23Z</time>
      </trkpt>
      <trkpt lat="48.97642" lon="3.91826">
        <ele>230.85</ele>
        <time>2017-08-06T15:08:24Z</time>
      </trkpt>
      <trkpt lat="48.9764" lon="3.91821">
        <ele>230.85</ele>
        <time>2017-08-06T15:08:25Z</time>
      </trkpt>
      <trkpt lat="48.97639" lon="3.91817">
        <ele>230.85</ele>
        <time>2017-08-06T15:08:26Z</time>
      </trkpt>
      <trkpt lat="48.97639" lon="3.91812">
        <ele>230.85</ele>
        <time>2017-08-06T15:08:27Z</time>
      </trkpt>
      <trkpt lat="48.97635" lon="3.91762">
        <ele>231.81</ele>
        <time>2017-08-06T15:08:39Z</time>
      </trkpt>
      <trkpt lat="48.9763" lon="3.91711">
        <ele>233.74</ele>
        <time>2017-08-06T15:08:53Z</time>
      </trkpt>
      <trkpt lat="48.97618" lon="3.91647">
        <ele>233.74</ele>
        <time>2017-08-06T15:09:07Z</time>
      </trkpt>
      <trkpt lat="48.97597" lon="3.9156">
        <ele>234.22</ele>
        <time>2017-08-06T15:09:24Z</time>
      </trkpt>
      <trkpt lat="48.97579" lon="3.91486">
        <ele>234.22</ele>
        <time>2017-08-06T15:09:38Z</time>
      </trkpt>
      <trkpt lat="48.97555" lon="3.9142">
        <ele>234.22</ele>
        <time>2017-08-06T15:09:51Z</time>
      </trkpt>
      <trkpt lat="48.9751" lon="3.91349">
        <ele>234.7</ele>
        <time>2017-08-06T15:10:09Z</time>
      </trkpt>
      <trkpt lat="48.97479" lon="3.91301">
        <ele>235.18</ele>
        <time>2017-08-06T15:10:22Z</time>
      </trkpt>
      <trkpt lat="48.97474" lon="3.91302">
        <ele>235.18</ele>
        <time>2017-08-06T15:10:23Z</time>
      </trkpt>
      <trkpt lat="48.97471" lon="3.91304">
        <ele>235.18</ele>
        <time>2017-08-06T15:10:24Z</time>
      </trkpt>
      <trkpt lat="48.97468" lon="3.91308">
        <ele>235.18</ele>
        <time>2017-08-06T15:10:25Z</time>
      </trkpt>
      <trkpt lat="48.97464" lon="3.91313">
        <ele>235.18</ele>
        <time>2017-08-06T15:10:26Z</time>
      </trkpt>
      <trkpt lat="48.97443" lon="3.91345">
        <ele>233.74</ele>
        <time>2017-08-06T15:10:32Z</time>
      </trkpt>
      <trkpt lat="48.97391" lon="3.91402">
        <ele>230.85</ele>
        <time>2017-08-06T15:10:44Z</time>
      </trkpt>
      <trkpt lat="48.97382" lon="3.91407">
        <ele>230.37</ele>
        <time>2017-08-06T15:10:48Z</time>
      </trkpt>
      <trkpt lat="48.97382" lon="3.91411">
        <ele>229.89</ele>
        <time>2017-08-06T15:10:49Z</time>
      </trkpt>
      <trkpt lat="48.97382" lon="3.91417">
        <ele>229.41</ele>
        <time>2017-08-06T15:10:50Z</time>
      </trkpt>
      <trkpt lat="48.97383" lon="3.91421">
        <ele>229.41</ele>
        <time>2017-08-06T15:10:51Z</time>
      </trkpt>
      <trkpt lat="48.97384" lon="3.91427">
        <ele>228.93</ele>
        <time>2017-08-06T15:10:52Z</time>
      </trkpt>
      <trkpt lat="48.97386" lon="3.91433">
        <ele>228.45</ele>
        <time>2017-08-06T15:10:53Z</time>
      </trkpt>
      <trkpt lat="48.97387" lon="3.91441">
        <ele>227.97</ele>
        <time>2017-08-06T15:10:54Z</time>
      </trkpt>
      <trkpt lat="48.97394" lon="3.91487">
        <ele>225.09</ele>
        <time>2017-08-06T15:10:59Z</time>
      </trkpt>
      <trkpt lat="48.974" lon="3.91508">
        <ele>223.64</ele>
        <time>2017-08-06T15:11:01Z</time>
      </trkpt>
      <trkpt lat="48.97408" lon="3.91532">
        <ele>222.2</ele>
        <time>2017-08-06T15:11:03Z</time>
      </trkpt>
      <trkpt lat="48.97414" lon="3.91557">
        <ele>220.76</ele>
        <time>2017-08-06T15:11:05Z</time>
      </trkpt>
      <trkpt lat="48.97429" lon="3.91612">
        <ele>218.36</ele>
        <time>2017-08-06T15:11:11Z</time>
      </trkpt>
      <trkpt lat="48.97431" lon="3.91626">
        <ele>218.36</ele>
        <time>2017-08-06T15:11:13Z</time>
      </trkpt>
      <trkpt lat="48.97433" lon="3.91638">
        <ele>217.4</ele>
        <time>2017-08-06T15:11:15Z</time>
      </trkpt>
      <trkpt lat="48.97432" lon="3.91643">
        <ele>217.4</ele>
        <time>2017-08-06T15:11:16Z</time>
      </trkpt>
      <trkpt lat="48.97429" lon="3.91648">
        <ele>216.43</ele>
        <time>2017-08-06T15:11:17Z</time>
      </trkpt>
      <trkpt lat="48.97425" lon="3.91653">
        <ele>215.95</ele>
        <time>2017-08-06T15:11:18Z</time>
      </trkpt>
      <trkpt lat="48.97421" lon="3.91656">
        <ele>214.99</ele>
        <time>2017-08-06T15:11:19Z</time>
      </trkpt>
      <trkpt lat="48.97415" lon="3.91659">
        <ele>214.51</ele>
        <time>2017-08-06T15:11:20Z</time>
      </trkpt>
      <trkpt lat="48.97394" lon="3.91672">
        <ele>210.67</ele>
        <time>2017-08-06T15:11:24Z</time>
      </trkpt>
      <trkpt lat="48.9738" lon="3.91681">
        <ele>208.26</ele>
        <time>2017-08-06T15:11:27Z</time>
      </trkpt>
      <trkpt lat="48.97376" lon="3.91681">
        <ele>207.78</ele>
        <time>2017-08-06T15:11:28Z</time>
      </trkpt>
      <trkpt lat="48.97373" lon="3.91679">
        <ele>207.3</ele>
        <time>2017-08-06T15:11:29Z</time>
      </trkpt>
      <trkpt lat="48.97361" lon="3.91662">
        <ele>204.9</ele>
        <time>2017-08-06T15:11:32Z</time>
      </trkpt>
      <trkpt lat="48.97357" lon="3.91655">
        <ele>204.9</ele>
        <time>2017-08-06T15:11:33Z</time>
      </trkpt>
      <trkpt lat="48.9732" lon="3.91585">
        <ele>204.9</ele>
        <time>2017-08-06T15:11:46Z</time>
      </trkpt>
      <trkpt lat="48.97316" lon="3.91579">
        <ele>205.38</ele>
        <time>2017-08-06T15:11:48Z</time>
      </trkpt>
      <trkpt lat="48.97314" lon="3.91579">
        <ele>205.38</ele>
        <time>2017-08-06T15:11:49Z</time>
      </trkpt>
      <trkpt lat="48.97317" lon="3.91588">
        <ele>205.38</ele>
        <time>2017-08-06T15:11:53Z</time>
      </trkpt>
      <trkpt lat="48.97319" lon="3.91592">
        <ele>205.38</ele>
        <time>2017-08-06T15:11:54Z</time>
      </trkpt>
      <trkpt lat="48.9732" lon="3.91594">
        <ele>205.38</ele>
        <time>2017-08-06T15:11:55Z</time>
      </trkpt>
      <trkpt lat="48.97351" lon="3.91647">
        <ele>204.9</ele>
        <time>2017-08-06T15:12:10Z</time>
      </trkpt>
      <trkpt lat="48.97356" lon="3.91658">
        <ele>204.9</ele>
        <time>2017-08-06T15:12:13Z</time>
      </trkpt>
      <trkpt lat="48.97356" lon="3.91661">
        <ele>204.9</ele>
        <time>2017-08-06T15:12:14Z</time>
      </trkpt>
      <trkpt lat="48.97355" lon="3.91665">
        <ele>204.9</ele>
        <time>2017-08-06T15:12:15Z</time>
      </trkpt>
      <trkpt lat="48.97354" lon="3.91668">
        <ele>204.42</ele>
        <time>2017-08-06T15:12:16Z</time>
      </trkpt>
      <trkpt lat="48.97352" lon="3.91671">
        <ele>203.94</ele>
        <time>2017-08-06T15:12:17Z</time>
      </trkpt>
      <trkpt lat="48.97336" lon="3.91696">
        <ele>200.09</ele>
        <time>2017-08-06T15:12:21Z</time>
      </trkpt>
      <trkpt lat="48.97322" lon="3.91719">
        <ele>196.73</ele>
        <time>2017-08-06T15:12:24Z</time>
      </trkpt>
      <trkpt lat="48.97304" lon="3.91749">
        <ele>193.36</ele>
        <time>2017-08-06T15:12:27Z</time>
      </trkpt>
      <trkpt lat="48.97283" lon="3.91782">
        <ele>190</ele>
        <time>2017-08-06T15:12:30Z</time>
      </trkpt>
      <trkpt lat="48.97251" lon="3.91827">
        <ele>186.63</ele>
        <time>2017-08-06T15:12:35Z</time>
      </trkpt>
      <trkpt lat="48.97242" lon="3.91839">
        <ele>186.15</ele>
        <time>2017-08-06T15:12:37Z</time>
      </trkpt>
      <trkpt lat="48.97239" lon="3.91846">
        <ele>186.15</ele>
        <time>2017-08-06T15:12:38Z</time>
      </trkpt>
      <trkpt lat="48.9724" lon="3.91853">
        <ele>186.15</ele>
        <time>2017-08-06T15:12:39Z</time>
      </trkpt>
      <trkpt lat="48.97242" lon="3.9186">
        <ele>185.67</ele>
        <time>2017-08-06T15:12:40Z</time>
      </trkpt>
      <trkpt lat="48.97245" lon="3.91868">
        <ele>185.19</ele>
        <time>2017-08-06T15:12:41Z</time>
      </trkpt>
      <trkpt lat="48.97248" lon="3.91877">
        <ele>184.23</ele>
        <time>2017-08-06T15:12:42Z</time>
      </trkpt>
      <trkpt lat="48.97254" lon="3.91895">
        <ele>183.75</ele>
        <time>2017-08-06T15:12:44Z</time>
      </trkpt>
      <trkpt lat="48.97257" lon="3.91905">
        <ele>182.31</ele>
        <time>2017-08-06T15:12:45Z</time>
      </trkpt>
      <trkpt lat="48.97257" lon="3.91916">
        <ele>181.83</ele>
        <time>2017-08-06T15:12:46Z</time>
      </trkpt>
      <trkpt lat="48.97255" lon="3.91926">
        <ele>180.87</ele>
        <time>2017-08-06T15:12:47Z</time>
      </trkpt>
      <trkpt lat="48.9725" lon="3.91935">
        <ele>180.38</ele>
        <time>2017-08-06T15:12:48Z</time>
      </trkpt>
      <trkpt lat="48.97245" lon="3.91945">
        <ele>179.42</ele>
        <time>2017-08-06T15:12:49Z</time>
      </trkpt>
      <trkpt lat="48.97232" lon="3.91962">
        <ele>177.98</ele>
        <time>2017-08-06T15:12:51Z</time>
      </trkpt>
      <trkpt lat="48.97214" lon="3.91979">
        <ele>174.62</ele>
        <time>2017-08-06T15:12:53Z</time>
      </trkpt>
      <trkpt lat="48.97196" lon="3.91996">
        <ele>171.25</ele>
        <time>2017-08-06T15:12:55Z</time>
      </trkpt>
      <trkpt lat="48.97183" lon="3.92003">
        <ele>169.33</ele>
        <time>2017-08-06T15:12:56Z</time>
      </trkpt>
      <trkpt lat="48.97172" lon="3.92007">
        <ele>166.93</ele>
        <time>2017-08-06T15:12:57Z</time>
      </trkpt>
      <trkpt lat="48.97132" lon="3.92021">
        <ele>162.6</ele>
        <time>2017-08-06T15:13:00Z</time>
      </trkpt>
      <trkpt lat="48.97107" lon="3.92034">
        <ele>161.64</ele>
        <time>2017-08-06T15:13:02Z</time>
      </trkpt>
      <trkpt lat="48.97086" lon="3.92048">
        <ele>163.08</ele>
        <time>2017-08-06T15:13:04Z</time>
      </trkpt>
      <trkpt lat="48.97077" lon="3.92057">
        <ele>163.56</ele>
        <time>2017-08-06T15:13:05Z</time>
      </trkpt>
      <trkpt lat="48.97063" lon="3.92073">
        <ele>167.41</ele>
        <time>2017-08-06T15:13:07Z</time>
      </trkpt>
      <trkpt lat="48.9704" lon="3.92102">
        <ele>170.77</ele>
        <time>2017-08-06T15:13:12Z</time>
      </trkpt>
      <trkpt lat="48.97019" lon="3.92122">
        <ele>173.66</ele>
        <time>2017-08-06T15:13:21Z</time>
      </trkpt>
      <trkpt lat="48.96987" lon="3.92135">
        <ele>174.14</ele>
        <time>2017-08-06T15:13:35Z</time>
      </trkpt>
      <trkpt lat="48.96967" lon="3.92146">
        <ele>174.14</ele>
        <time>2017-08-06T15:13:40Z</time>
      </trkpt>
      <trkpt lat="48.96955" lon="3.92157">
        <ele>173.17</ele>
        <time>2017-08-06T15:13:43Z</time>
      </trkpt>
      <trkpt lat="48.96951" lon="3.92162">
        <ele>173.17</ele>
        <time>2017-08-06T15:13:44Z</time>
      </trkpt>
      <trkpt lat="48.96948" lon="3.92168">
        <ele>173.17</ele>
        <time>2017-08-06T15:13:45Z</time>
      </trkpt>
      <trkpt lat="48.96944" lon="3.92175">
        <ele>172.21</ele>
        <time>2017-08-06T15:13:46Z</time>
      </trkpt>
      <trkpt lat="48.96941" lon="3.92182">
        <ele>171.73</ele>
        <time>2017-08-06T15:13:47Z</time>
      </trkpt>
      <trkpt lat="48.96939" lon="3.9219">
        <ele>171.73</ele>
        <time>2017-08-06T15:13:48Z</time>
      </trkpt>
      <trkpt lat="48.96937" lon="3.92199">
        <ele>171.25</ele>
        <time>2017-08-06T15:13:49Z</time>
      </trkpt>
      <trkpt lat="48.96935" lon="3.92207">
        <ele>171.25</ele>
        <time>2017-08-06T15:13:50Z</time>
      </trkpt>
      <trkpt lat="48.96934" lon="3.92216">
        <ele>171.25</ele>
        <time>2017-08-06T15:13:51Z</time>
      </trkpt>
      <trkpt lat="48.96932" lon="3.92233">
        <ele>171.25</ele>
        <time>2017-08-06T15:13:53Z</time>
      </trkpt>
      <trkpt lat="48.96931" lon="3.92299">
        <ele>169.81</ele>
        <time>2017-08-06T15:14:00Z</time>
      </trkpt>
      <trkpt lat="48.96932" lon="3.92306">
        <ele>168.85</ele>
        <time>2017-08-06T15:14:01Z</time>
      </trkpt>
      <trkpt lat="48.96938" lon="3.92354">
        <ele>166.45</ele>
        <time>2017-08-06T15:14:05Z</time>
      </trkpt>
      <trkpt lat="48.96938" lon="3.92366">
        <ele>165.48</ele>
        <time>2017-08-06T15:14:06Z</time>
      </trkpt>
      <trkpt lat="48.96937" lon="3.92379">
        <ele>165</ele>
        <time>2017-08-06T15:14:07Z</time>
      </trkpt>
      <trkpt lat="48.96934" lon="3.92391">
        <ele>164.52</ele>
        <time>2017-08-06T15:14:08Z</time>
      </trkpt>
      <trkpt lat="48.9693" lon="3.92402">
        <ele>164.04</ele>
        <time>2017-08-06T15:14:09Z</time>
      </trkpt>
      <trkpt lat="48.96925" lon="3.92412">
        <ele>164.04</ele>
        <time>2017-08-06T15:14:10Z</time>
      </trkpt>
      <trkpt lat="48.96918" lon="3.9242">
        <ele>164.04</ele>
        <time>2017-08-06T15:14:11Z</time>
      </trkpt>
      <trkpt lat="48.96912" lon="3.92427">
        <ele>164.04</ele>
        <time>2017-08-06T15:14:12Z</time>
      </trkpt>
      <trkpt lat="48.96905" lon="3.92432">
        <ele>164.04</ele>
        <time>2017-08-06T15:14:13Z</time>
      </trkpt>
      <trkpt lat="48.96898" lon="3.92437">
        <ele>163.56</ele>
        <time>2017-08-06T15:14:14Z</time>
      </trkpt>
      <trkpt lat="48.96827" lon="3.92486">
        <ele>162.6</ele>
        <time>2017-08-06T15:14:26Z</time>
      </trkpt>
      <trkpt lat="48.96807" lon="3.92519">
        <ele>161.16</ele>
        <time>2017-08-06T15:14:35Z</time>
      </trkpt>
      <trkpt lat="48.96751" lon="3.92596">
        <ele>158.75</ele>
        <time>2017-08-06T15:14:49Z</time>
      </trkpt>
      <trkpt lat="48.96701" lon="3.92637">
        <ele>158.75</ele>
        <time>2017-08-06T15:15:01Z</time>
      </trkpt>
      <trkpt lat="48.96697" lon="3.92642">
        <ele>158.75</ele>
        <time>2017-08-06T15:15:02Z</time>
      </trkpt>
      <trkpt lat="48.96694" lon="3.92646">
        <ele>158.75</ele>
        <time>2017-08-06T15:15:03Z</time>
      </trkpt>
      <trkpt lat="48.96688" lon="3.92656">
        <ele>158.75</ele>
        <time>2017-08-06T15:15:05Z</time>
      </trkpt>
      <trkpt lat="48.96685" lon="3.92661">
        <ele>158.75</ele>
        <time>2017-08-06T15:15:06Z</time>
      </trkpt>
      <trkpt lat="48.96673" lon="3.92707">
        <ele>158.75</ele>
        <time>2017-08-06T15:15:14Z</time>
      </trkpt>
      <trkpt lat="48.96666" lon="3.92804">
        <ele>159.72</ele>
        <time>2017-08-06T15:15:29Z</time>
      </trkpt>
      <trkpt lat="48.96663" lon="3.92861">
        <ele>161.64</ele>
        <time>2017-08-06T15:15:42Z</time>
      </trkpt>
      <trkpt lat="48.96657" lon="3.92919">
        <ele>162.6</ele>
        <time>2017-08-06T15:15:58Z</time>
      </trkpt>
      <trkpt lat="48.96656" lon="3.92984">
        <ele>162.6</ele>
        <time>2017-08-06T15:16:10Z</time>
      </trkpt>
      <trkpt lat="48.96659" lon="3.93029">
        <ele>160.68</ele>
        <time>2017-08-06T15:16:16Z</time>
      </trkpt>
      <trkpt lat="48.96658" lon="3.93037">
        <ele>160.2</ele>
        <time>2017-08-06T15:16:17Z</time>
      </trkpt>
      <trkpt lat="48.96657" lon="3.93044">
        <ele>160.2</ele>
        <time>2017-08-06T15:16:18Z</time>
      </trkpt>
      <trkpt lat="48.96655" lon="3.93052">
        <ele>160.2</ele>
        <time>2017-08-06T15:16:19Z</time>
      </trkpt>
      <trkpt lat="48.96653" lon="3.93057">
        <ele>160.2</ele>
        <time>2017-08-06T15:16:20Z</time>
      </trkpt>
      <trkpt lat="48.9665" lon="3.93063">
        <ele>160.2</ele>
        <time>2017-08-06T15:16:21Z</time>
      </trkpt>
      <trkpt lat="48.96647" lon="3.93067">
        <ele>160.2</ele>
        <time>2017-08-06T15:16:22Z</time>
      </trkpt>
      <trkpt lat="48.96644" lon="3.9307">
        <ele>160.2</ele>
        <time>2017-08-06T15:16:23Z</time>
      </trkpt>
      <trkpt lat="48.9664" lon="3.93074">
        <ele>160.2</ele>
        <time>2017-08-06T15:16:24Z</time>
      </trkpt>
      <trkpt lat="48.9663" lon="3.93081">
        <ele>161.64</ele>
        <time>2017-08-06T15:16:27Z</time>
      </trkpt>
      <trkpt lat="48.96585" lon="3.9311">
        <ele>162.6</ele>
        <time>2017-08-06T15:16:42Z</time>
      </trkpt>
      <trkpt lat="48.96527" lon="3.9315">
        <ele>163.56</ele>
        <time>2017-08-06T15:17:01Z</time>
      </trkpt>
      <trkpt lat="48.96462" lon="3.93199">
        <ele>165</ele>
        <time>2017-08-06T15:17:23Z</time>
      </trkpt>
      <trkpt lat="48.96417" lon="3.93235">
        <ele>166.93</ele>
        <time>2017-08-06T15:17:42Z</time>
      </trkpt>
      <trkpt lat="48.96389" lon="3.93254">
        <ele>167.89</ele>
        <time>2017-08-06T15:17:55Z</time>
      </trkpt>
      <trkpt lat="48.96355" lon="3.93268">
        <ele>169.33</ele>
        <time>2017-08-06T15:18:12Z</time>
      </trkpt>
      <trkpt lat="48.96336" lon="3.93259">
        <ele>170.77</ele>
        <time>2017-08-06T15:18:26Z</time>
      </trkpt>
      <trkpt lat="48.9631" lon="3.93239">
        <ele>172.69</ele>
        <time>2017-08-06T15:18:44Z</time>
      </trkpt>
      <trkpt lat="48.96288" lon="3.93221">
        <ele>174.62</ele>
        <time>2017-08-06T15:18:58Z</time>
      </trkpt>
      <trkpt lat="48.96262" lon="3.932">
        <ele>177.02</ele>
        <time>2017-08-06T15:19:17Z</time>
      </trkpt>
      <trkpt lat="48.96238" lon="3.9318">
        <ele>179.9</ele>
        <time>2017-08-06T15:19:35Z</time>
      </trkpt>
      <trkpt lat="48.96217" lon="3.93171">
        <ele>182.79</ele>
        <time>2017-08-06T15:19:50Z</time>
      </trkpt>
      <trkpt lat="48.96212" lon="3.93171">
        <ele>183.75</ele>
        <time>2017-08-06T15:19:54Z</time>
      </trkpt>
      <trkpt lat="48.96211" lon="3.93171">
        <ele>183.75</ele>
        <time>2017-08-06T15:19:55Z</time>
      </trkpt>
      <trkpt lat="48.96209" lon="3.93171">
        <ele>183.75</ele>
        <time>2017-08-06T15:19:56Z</time>
      </trkpt>
      <trkpt lat="48.96208" lon="3.93172">
        <ele>183.75</ele>
        <time>2017-08-06T15:19:57Z</time>
      </trkpt>
      <trkpt lat="48.96207" lon="3.93172">
        <ele>183.75</ele>
        <time>2017-08-06T15:19:58Z</time>
      </trkpt>
      <trkpt lat="48.96205" lon="3.93172">
        <ele>183.75</ele>
        <time>2017-08-06T15:19:59Z</time>
      </trkpt>
      <trkpt lat="48.96183" lon="3.93185">
        <ele>185.19</ele>
        <time>2017-08-06T15:20:14Z</time>
      </trkpt>
      <trkpt lat="48.96154" lon="3.9321">
        <ele>186.15</ele>
        <time>2017-08-06T15:20:30Z</time>
      </trkpt>
      <trkpt lat="48.96117" lon="3.93239">
        <ele>187.11</ele>
        <time>2017-08-06T15:20:48Z</time>
      </trkpt>
      <trkpt lat="48.9609" lon="3.93247">
        <ele>188.08</ele>
        <time>2017-08-06T15:21:03Z</time>
      </trkpt>
      <trkpt lat="48.9609" lon="3.93247">
        <ele>188.08</ele>
        <time>2017-08-06T15:21:23Z</time>
      </trkpt>
      <trkpt lat="48.96087" lon="3.93245">
        <ele>188.08</ele>
        <time>2017-08-06T15:21:42Z</time>
      </trkpt>
      <trkpt lat="48.96088" lon="3.93247">
        <ele>188.08</ele>
        <time>2017-08-06T15:22:20Z</time>
      </trkpt>
      <trkpt lat="48.96086" lon="3.93245">
        <ele>188.08</ele>
        <time>2017-08-06T15:22:56Z</time>
      </trkpt>
      <trkpt lat="48.96087" lon="3.93245">
        <ele>188.08</ele>
        <time>2017-08-06T15:23:34Z</time>
      </trkpt>
      <trkpt lat="48.96087" lon="3.93245">
        <ele>187.59</ele>
        <time>2017-08-06T15:24:07Z</time>
      </trkpt>
      <trkpt lat="48.96089" lon="3.93246">
        <ele>187.59</ele>
        <time>2017-08-06T15:24:39Z</time>
      </trkpt>
      <trkpt lat="48.96086" lon="3.93246">
        <ele>187.59</ele>
        <time>2017-08-06T15:25:08Z</time>
      </trkpt>
      <trkpt lat="48.96087" lon="3.93246">
        <ele>187.59</ele>
        <time>2017-08-06T15:25:38Z</time>
      </trkpt>
      <trkpt lat="48.96088" lon="3.93245">
        <ele>187.59</ele>
        <time>2017-08-06T15:26:10Z</time>
      </trkpt>
      <trkpt lat="48.96087" lon="3.93246">
        <ele>187.59</ele>
        <time>2017-08-06T15:26:40Z</time>
      </trkpt>
      <trkpt lat="48.96088" lon="3.93246">
        <ele>187.59</ele>
        <time>2017-08-06T15:27:18Z</time>
      </trkpt>
      <trkpt lat="48.96089" lon="3.93247">
        <ele>187.59</ele>
        <time>2017-08-06T15:27:48Z</time>
      </trkpt>
      <trkpt lat="48.96085" lon="3.93246">
        <ele>187.59</ele>
        <time>2017-08-06T15:28:16Z</time>
      </trkpt>
      <trkpt lat="48.96084" lon="3.93248">
        <ele>187.59</ele>
        <time>2017-08-06T15:28:31Z</time>
      </trkpt>
      <trkpt lat="48.96061" lon="3.93251">
        <ele>188.56</ele>
        <time>2017-08-06T15:28:44Z</time>
      </trkpt>
      <trkpt lat="48.96026" lon="3.93252">
        <ele>190.48</ele>
        <time>2017-08-06T15:29:02Z</time>
      </trkpt>
      <trkpt lat="48.9599" lon="3.93251">
        <ele>192.4</ele>
        <time>2017-08-06T15:29:20Z</time>
      </trkpt>
      <trkpt lat="48.95953" lon="3.93252">
        <ele>193.84</ele>
        <time>2017-08-06T15:29:39Z</time>
      </trkpt>
      <trkpt lat="48.95925" lon="3.93245">
        <ele>194.32</ele>
        <time>2017-08-06T15:29:52Z</time>
      </trkpt>
      <trkpt lat="48.95895" lon="3.93221">
        <ele>195.77</ele>
        <time>2017-08-06T15:30:07Z</time>
      </trkpt>
      <trkpt lat="48.95857" lon="3.93178">
        <ele>196.25</ele>
        <time>2017-08-06T15:30:23Z</time>
      </trkpt>
      <trkpt lat="48.95827" lon="3.93121">
        <ele>197.21</ele>
        <time>2017-08-06T15:30:38Z</time>
      </trkpt>
      <trkpt lat="48.95792" lon="3.93087">
        <ele>198.17</ele>
        <time>2017-08-06T15:30:52Z</time>
      </trkpt>
      <trkpt lat="48.95756" lon="3.93078">
        <ele>200.09</ele>
        <time>2017-08-06T15:31:09Z</time>
      </trkpt>
      <trkpt lat="48.95723" lon="3.93071">
        <ele>201.53</ele>
        <time>2017-08-06T15:31:27Z</time>
      </trkpt>
      <trkpt lat="48.95689" lon="3.93061">
        <ele>202.98</ele>
        <time>2017-08-06T15:31:44Z</time>
      </trkpt>
      <trkpt lat="48.95651" lon="3.93055">
        <ele>205.38</ele>
        <time>2017-08-06T15:32:03Z</time>
      </trkpt>
      <trkpt lat="48.95615" lon="3.93054">
        <ele>206.82</ele>
        <time>2017-08-06T15:32:19Z</time>
      </trkpt>
      <trkpt lat="48.95565" lon="3.93059">
        <ele>207.3</ele>
        <time>2017-08-06T15:32:36Z</time>
      </trkpt>
      <trkpt lat="48.9551" lon="3.93068">
        <ele>208.74</ele>
        <time>2017-08-06T15:32:54Z</time>
      </trkpt>
      <trkpt lat="48.95475" lon="3.93077">
        <ele>209.22</ele>
        <time>2017-08-06T15:33:08Z</time>
      </trkpt>
      <trkpt lat="48.95429" lon="3.93092">
        <ele>210.67</ele>
        <time>2017-08-06T15:33:24Z</time>
      </trkpt>
      <trkpt lat="48.95395" lon="3.93102">
        <ele>211.15</ele>
        <time>2017-08-06T15:33:36Z</time>
      </trkpt>
      <trkpt lat="48.95353" lon="3.93117">
        <ele>211.63</ele>
        <time>2017-08-06T15:33:49Z</time>
      </trkpt>
      <trkpt lat="48.95289" lon="3.93149">
        <ele>212.11</ele>
        <time>2017-08-06T15:34:06Z</time>
      </trkpt>
      <trkpt lat="48.95237" lon="3.93175">
        <ele>212.11</ele>
        <time>2017-08-06T15:34:21Z</time>
      </trkpt>
      <trkpt lat="48.95168" lon="3.93209">
        <ele>212.59</ele>
        <time>2017-08-06T15:34:40Z</time>
      </trkpt>
      <trkpt lat="48.95102" lon="3.93243">
        <ele>213.07</ele>
        <time>2017-08-06T15:34:58Z</time>
      </trkpt>
      <trkpt lat="48.95065" lon="3.9326">
        <ele>214.03</ele>
        <time>2017-08-06T15:35:11Z</time>
      </trkpt>
      <trkpt lat="48.95032" lon="3.93279">
        <ele>214.99</ele>
        <time>2017-08-06T15:35:23Z</time>
      </trkpt>
      <trkpt lat="48.94993" lon="3.93327">
        <ele>214.99</ele>
        <time>2017-08-06T15:35:37Z</time>
      </trkpt>
      <trkpt lat="48.94975" lon="3.93385">
        <ele>214.99</ele>
        <time>2017-08-06T15:35:47Z</time>
      </trkpt>
      <trkpt lat="48.94976" lon="3.93494">
        <ele>214.99</ele>
        <time>2017-08-06T15:36:02Z</time>
      </trkpt>
      <trkpt lat="48.94981" lon="3.93572">
        <ele>213.55</ele>
        <time>2017-08-06T15:36:13Z</time>
      </trkpt>
      <trkpt lat="48.94981" lon="3.93581">
        <ele>214.03</ele>
        <time>2017-08-06T15:36:14Z</time>
      </trkpt>
      <trkpt lat="48.94982" lon="3.93595">
        <ele>214.03</ele>
        <time>2017-08-06T15:36:16Z</time>
      </trkpt>
      <trkpt lat="48.94985" lon="3.9367">
        <ele>214.03</ele>
        <time>2017-08-06T15:36:27Z</time>
      </trkpt>
      <trkpt lat="48.94989" lon="3.93775">
        <ele>214.99</ele>
        <time>2017-08-06T15:36:44Z</time>
      </trkpt>
      <trkpt lat="48.94994" lon="3.9387">
        <ele>215.47</ele>
        <time>2017-08-06T15:37:00Z</time>
      </trkpt>
      <trkpt lat="48.94988" lon="3.93967">
        <ele>215.95</ele>
        <time>2017-08-06T15:37:16Z</time>
      </trkpt>
      <trkpt lat="48.94981" lon="3.94022">
        <ele>216.91</ele>
        <time>2017-08-06T15:37:30Z</time>
      </trkpt>
      <trkpt lat="48.94972" lon="3.94095">
        <ele>217.88</ele>
        <time>2017-08-06T15:37:46Z</time>
      </trkpt>
      <trkpt lat="48.94961" lon="3.94141">
        <ele>219.8</ele>
        <time>2017-08-06T15:38:02Z</time>
      </trkpt>
      <trkpt lat="48.94948" lon="3.94189">
        <ele>222.2</ele>
        <time>2017-08-06T15:38:21Z</time>
      </trkpt>
      <trkpt lat="48.94933" lon="3.94222">
        <ele>223.16</ele>
        <time>2017-08-06T15:38:36Z</time>
      </trkpt>
      <trkpt lat="48.94932" lon="3.94224">
        <ele>223.16</ele>
        <time>2017-08-06T15:38:37Z</time>
      </trkpt>
      <trkpt lat="48.9493" lon="3.94226">
        <ele>223.64</ele>
        <time>2017-08-06T15:38:38Z</time>
      </trkpt>
      <trkpt lat="48.94929" lon="3.94228">
        <ele>223.64</ele>
        <time>2017-08-06T15:38:39Z</time>
      </trkpt>
      <trkpt lat="48.94928" lon="3.94229">
        <ele>223.64</ele>
        <time>2017-08-06T15:38:40Z</time>
      </trkpt>
      <trkpt lat="48.94927" lon="3.94231">
        <ele>223.64</ele>
        <time>2017-08-06T15:38:41Z</time>
      </trkpt>
      <trkpt lat="48.94926" lon="3.94233">
        <ele>223.64</ele>
        <time>2017-08-06T15:38:42Z</time>
      </trkpt>
      <trkpt lat="48.94924" lon="3.94234">
        <ele>223.64</ele>
        <time>2017-08-06T15:38:43Z</time>
      </trkpt>
      <trkpt lat="48.94922" lon="3.94236">
        <ele>224.12</ele>
        <time>2017-08-06T15:38:44Z</time>
      </trkpt>
      <trkpt lat="48.94921" lon="3.94238">
        <ele>224.12</ele>
        <time>2017-08-06T15:38:45Z</time>
      </trkpt>
      <trkpt lat="48.94897" lon="3.94269">
        <ele>226.05</ele>
        <time>2017-08-06T15:39:03Z</time>
      </trkpt>
      <trkpt lat="48.9487" lon="3.94305">
        <ele>227.97</ele>
        <time>2017-08-06T15:39:23Z</time>
      </trkpt>
      <trkpt lat="48.94843" lon="3.9434">
        <ele>230.37</ele>
        <time>2017-08-06T15:39:43Z</time>
      </trkpt>
      <trkpt lat="48.94823" lon="3.94365">
        <ele>231.33</ele>
        <time>2017-08-06T15:39:57Z</time>
      </trkpt>
      <trkpt lat="48.94793" lon="3.94407">
        <ele>231.81</ele>
        <time>2017-08-06T15:40:13Z</time>
      </trkpt>
      <trkpt lat="48.9476" lon="3.94448">
        <ele>232.3</ele>
        <time>2017-08-06T15:40:28Z</time>
      </trkpt>
      <trkpt lat="48.94712" lon="3.9451">
        <ele>232.78</ele>
        <time>2017-08-06T15:40:46Z</time>
      </trkpt>
      <trkpt lat="48.94662" lon="3.94575">
        <ele>233.26</ele>
        <time>2017-08-06T15:41:03Z</time>
      </trkpt>
      <trkpt lat="48.94599" lon="3.94657">
        <ele>234.22</ele>
        <time>2017-08-06T15:41:23Z</time>
      </trkpt>
      <trkpt lat="48.94535" lon="3.94738">
        <ele>235.18</ele>
        <time>2017-08-06T15:41:43Z</time>
      </trkpt>
      <trkpt lat="48.94475" lon="3.94816">
        <ele>236.62</ele>
        <time>2017-08-06T15:42:04Z</time>
      </trkpt>
      <trkpt lat="48.94435" lon="3.94868">
        <ele>238.06</ele>
        <time>2017-08-06T15:42:23Z</time>
      </trkpt>
      <trkpt lat="48.94401" lon="3.94913">
        <ele>239.51</ele>
        <time>2017-08-06T15:42:42Z</time>
      </trkpt>
      <trkpt lat="48.94369" lon="3.94955">
        <ele>241.43</ele>
        <time>2017-08-06T15:43:00Z</time>
      </trkpt>
      <trkpt lat="48.94331" lon="3.95004">
        <ele>241.91</ele>
        <time>2017-08-06T15:43:17Z</time>
      </trkpt>
      <trkpt lat="48.9428" lon="3.9507">
        <ele>242.39</ele>
        <time>2017-08-06T15:43:37Z</time>
      </trkpt>
      <trkpt lat="48.94254" lon="3.95106">
        <ele>242.39</ele>
        <time>2017-08-06T15:43:48Z</time>
      </trkpt>
      <trkpt lat="48.9424" lon="3.95125">
        <ele>242.39</ele>
        <time>2017-08-06T15:43:53Z</time>
      </trkpt>
      <trkpt lat="48.94237" lon="3.95129">
        <ele>242.39</ele>
        <time>2017-08-06T15:43:54Z</time>
      </trkpt>
      <trkpt lat="48.94184" lon="3.95197">
        <ele>243.35</ele>
        <time>2017-08-06T15:44:10Z</time>
      </trkpt>
      <trkpt lat="48.94133" lon="3.95262">
        <ele>243.83</ele>
        <time>2017-08-06T15:44:26Z</time>
      </trkpt>
      <trkpt lat="48.94062" lon="3.95342">
        <ele>243.83</ele>
        <time>2017-08-06T15:44:44Z</time>
      </trkpt>
      <trkpt lat="48.94049" lon="3.95356">
        <ele>242.39</ele>
        <time>2017-08-06T15:44:47Z</time>
      </trkpt>
      <trkpt lat="48.93977" lon="3.95434">
        <ele>241.43</ele>
        <time>2017-08-06T15:45:03Z</time>
      </trkpt>
      <trkpt lat="48.93901" lon="3.95483">
        <ele>240.95</ele>
        <time>2017-08-06T15:45:18Z</time>
      </trkpt>
      <trkpt lat="48.93804" lon="3.95497">
        <ele>238.06</ele>
        <time>2017-08-06T15:45:33Z</time>
      </trkpt>
      <trkpt lat="48.93704" lon="3.95507">
        <ele>234.7</ele>
        <time>2017-08-06T15:45:45Z</time>
      </trkpt>
      <trkpt lat="48.93608" lon="3.95518">
        <ele>231.81</ele>
        <time>2017-08-06T15:45:58Z</time>
      </trkpt>
      <trkpt lat="48.93583" lon="3.9552">
        <ele>231.33</ele>
        <time>2017-08-06T15:46:05Z</time>
      </trkpt>
      <trkpt lat="48.93581" lon="3.95524">
        <ele>231.33</ele>
        <time>2017-08-06T15:46:06Z</time>
      </trkpt>
      <trkpt lat="48.9358" lon="3.95529">
        <ele>231.33</ele>
        <time>2017-08-06T15:46:07Z</time>
      </trkpt>
      <trkpt lat="48.93579" lon="3.95533">
        <ele>231.33</ele>
        <time>2017-08-06T15:46:08Z</time>
      </trkpt>
      <trkpt lat="48.93579" lon="3.95538">
        <ele>231.33</ele>
        <time>2017-08-06T15:46:09Z</time>
      </trkpt>
      <trkpt lat="48.93579" lon="3.95543">
        <ele>231.33</ele>
        <time>2017-08-06T15:46:10Z</time>
      </trkpt>
      <trkpt lat="48.93579" lon="3.95547">
        <ele>231.33</ele>
        <time>2017-08-06T15:46:11Z</time>
      </trkpt>
      <trkpt lat="48.93579" lon="3.95552">
        <ele>231.33</ele>
        <time>2017-08-06T15:46:12Z</time>
      </trkpt>
      <trkpt lat="48.93578" lon="3.95575">
        <ele>232.3</ele>
        <time>2017-08-06T15:46:17Z</time>
      </trkpt>
      <trkpt lat="48.93577" lon="3.95621">
        <ele>233.74</ele>
        <time>2017-08-06T15:46:32Z</time>
      </trkpt>
      <trkpt lat="48.93577" lon="3.95631">
        <ele>233.74</ele>
        <time>2017-08-06T15:46:45Z</time>
      </trkpt>
      <trkpt lat="48.93575" lon="3.95696">
        <ele>233.26</ele>
        <time>2017-08-06T15:46:58Z</time>
      </trkpt>
      <trkpt lat="48.93573" lon="3.95818">
        <ele>233.26</ele>
        <time>2017-08-06T15:47:16Z</time>
      </trkpt>
      <trkpt lat="48.9357" lon="3.9596">
        <ele>231.81</ele>
        <time>2017-08-06T15:47:35Z</time>
      </trkpt>
      <trkpt lat="48.93566" lon="3.96123">
        <ele>230.85</ele>
        <time>2017-08-06T15:47:55Z</time>
      </trkpt>
      <trkpt lat="48.93565" lon="3.9619">
        <ele>230.85</ele>
        <time>2017-08-06T15:48:04Z</time>
      </trkpt>
      <trkpt lat="48.93564" lon="3.96252">
        <ele>231.81</ele>
        <time>2017-08-06T15:48:14Z</time>
      </trkpt>
      <trkpt lat="48.93562" lon="3.9636">
        <ele>233.74</ele>
        <time>2017-08-06T15:48:33Z</time>
      </trkpt>
      <trkpt lat="48.93559" lon="3.96482">
        <ele>233.74</ele>
        <time>2017-08-06T15:48:53Z</time>
      </trkpt>
      <trkpt lat="48.93556" lon="3.96656">
        <ele>231.81</ele>
        <time>2017-08-06T15:49:15Z</time>
      </trkpt>
      <trkpt lat="48.93556" lon="3.96774">
        <ele>229.89</ele>
        <time>2017-08-06T15:49:28Z</time>
      </trkpt>
      <trkpt lat="48.93554" lon="3.9694">
        <ele>228.45</ele>
        <time>2017-08-06T15:49:45Z</time>
      </trkpt>
      <trkpt lat="48.93551" lon="3.97133">
        <ele>228.45</ele>
        <time>2017-08-06T15:50:08Z</time>
      </trkpt>
      <trkpt lat="48.9355" lon="3.97267">
        <ele>227.97</ele>
        <time>2017-08-06T15:50:27Z</time>
      </trkpt>
      <trkpt lat="48.93548" lon="3.97371">
        <ele>224.61</ele>
        <time>2017-08-06T15:50:39Z</time>
      </trkpt>
      <trkpt lat="48.93546" lon="3.97443">
        <ele>220.76</ele>
        <time>2017-08-06T15:50:45Z</time>
      </trkpt>
      <trkpt lat="48.93545" lon="3.97499">
        <ele>217.88</ele>
        <time>2017-08-06T15:50:49Z</time>
      </trkpt>
      <trkpt lat="48.93544" lon="3.97593">
        <ele>214.51</ele>
        <time>2017-08-06T15:50:55Z</time>
      </trkpt>
      <trkpt lat="48.93542" lon="3.9782">
        <ele>212.59</ele>
        <time>2017-08-06T15:51:11Z</time>
      </trkpt>
      <trkpt lat="48.93543" lon="3.97833">
        <ele>212.59</ele>
        <time>2017-08-06T15:51:12Z</time>
      </trkpt>
      <trkpt lat="48.93558" lon="3.97937">
        <ele>211.15</ele>
        <time>2017-08-06T15:51:21Z</time>
      </trkpt>
      <trkpt lat="48.93558" lon="3.97949">
        <ele>210.67</ele>
        <time>2017-08-06T15:51:22Z</time>
      </trkpt>
      <trkpt lat="48.93557" lon="3.9796">
        <ele>210.67</ele>
        <time>2017-08-06T15:51:23Z</time>
      </trkpt>
      <trkpt lat="48.93556" lon="3.97973">
        <ele>210.67</ele>
        <time>2017-08-06T15:51:24Z</time>
      </trkpt>
      <trkpt lat="48.93555" lon="3.97985">
        <ele>209.7</ele>
        <time>2017-08-06T15:51:25Z</time>
      </trkpt>
      <trkpt lat="48.93553" lon="3.97995">
        <ele>209.7</ele>
        <time>2017-08-06T15:51:26Z</time>
      </trkpt>
      <trkpt lat="48.93534" lon="3.98088">
        <ele>206.82</ele>
        <time>2017-08-06T15:51:34Z</time>
      </trkpt>
      <trkpt lat="48.93529" lon="3.98111">
        <ele>206.82</ele>
        <time>2017-08-06T15:51:36Z</time>
      </trkpt>
      <trkpt lat="48.93528" lon="3.98123">
        <ele>206.82</ele>
        <time>2017-08-06T15:51:37Z</time>
      </trkpt>
      <trkpt lat="48.93527" lon="3.98135">
        <ele>206.82</ele>
        <time>2017-08-06T15:51:38Z</time>
      </trkpt>
      <trkpt lat="48.93528" lon="3.98158">
        <ele>206.82</ele>
        <time>2017-08-06T15:51:40Z</time>
      </trkpt>
      <trkpt lat="48.93529" lon="3.9817">
        <ele>206.82</ele>
        <time>2017-08-06T15:51:41Z</time>
      </trkpt>
      <trkpt lat="48.93531" lon="3.9818">
        <ele>206.34</ele>
        <time>2017-08-06T15:51:42Z</time>
      </trkpt>
      <trkpt lat="48.93534" lon="3.982">
        <ele>206.34</ele>
        <time>2017-08-06T15:51:44Z</time>
      </trkpt>
      <trkpt lat="48.93563" lon="3.98311">
        <ele>206.34</ele>
        <time>2017-08-06T15:51:57Z</time>
      </trkpt>
      <trkpt lat="48.93593" lon="3.98397">
        <ele>206.34</ele>
        <time>2017-08-06T15:52:08Z</time>
      </trkpt>
      <trkpt lat="48.93604" lon="3.98436">
        <ele>206.34</ele>
        <time>2017-08-06T15:52:13Z</time>
      </trkpt>
      <trkpt lat="48.93605" lon="3.98444">
        <ele>205.86</ele>
        <time>2017-08-06T15:52:14Z</time>
      </trkpt>
      <trkpt lat="48.93613" lon="3.98561">
        <ele>202.49</ele>
        <time>2017-08-06T15:52:26Z</time>
      </trkpt>
      <trkpt lat="48.93624" lon="3.98718">
        <ele>199.13</ele>
        <time>2017-08-06T15:52:40Z</time>
      </trkpt>
      <trkpt lat="48.93634" lon="3.98876">
        <ele>198.65</ele>
        <time>2017-08-06T15:52:58Z</time>
      </trkpt>
      <trkpt lat="48.93636" lon="3.98911">
        <ele>200.09</ele>
        <time>2017-08-06T15:53:04Z</time>
      </trkpt>
      <trkpt lat="48.93641" lon="3.98979">
        <ele>201.53</ele>
        <time>2017-08-06T15:53:19Z</time>
      </trkpt>
      <trkpt lat="48.93645" lon="3.99035">
        <ele>203.46</ele>
        <time>2017-08-06T15:53:39Z</time>
      </trkpt>
      <trkpt lat="48.93648" lon="3.99092">
        <ele>205.38</ele>
        <time>2017-08-06T15:54:00Z</time>
      </trkpt>
      <trkpt lat="48.93651" lon="3.99141">
        <ele>207.3</ele>
        <time>2017-08-06T15:54:18Z</time>
      </trkpt>
      <trkpt lat="48.93654" lon="3.99197">
        <ele>208.74</ele>
        <time>2017-08-06T15:54:39Z</time>
      </trkpt>
      <trkpt lat="48.93658" lon="3.99251">
        <ele>210.67</ele>
        <time>2017-08-06T15:54:59Z</time>
      </trkpt>
      <trkpt lat="48.93661" lon="3.99306">
        <ele>213.07</ele>
        <time>2017-08-06T15:55:20Z</time>
      </trkpt>
      <trkpt lat="48.93664" lon="3.99356">
        <ele>214.99</ele>
        <time>2017-08-06T15:55:38Z</time>
      </trkpt>
      <trkpt lat="48.93668" lon="3.99408">
        <ele>216.43</ele>
        <time>2017-08-06T15:55:57Z</time>
      </trkpt>
      <trkpt lat="48.9367" lon="3.99451">
        <ele>218.36</ele>
        <time>2017-08-06T15:56:14Z</time>
      </trkpt>
      <trkpt lat="48.93673" lon="3.9949">
        <ele>219.32</ele>
        <time>2017-08-06T15:56:29Z</time>
      </trkpt>
      <trkpt lat="48.93677" lon="3.99543">
        <ele>222.2</ele>
        <time>2017-08-06T15:56:49Z</time>
      </trkpt>
      <trkpt lat="48.9368" lon="3.9959">
        <ele>224.12</ele>
        <time>2017-08-06T15:57:07Z</time>
      </trkpt>
      <trkpt lat="48.9368" lon="3.99619">
        <ele>225.57</ele>
        <time>2017-08-06T15:57:20Z</time>
      </trkpt>
      <trkpt lat="48.93679" lon="3.9962">
        <ele>225.57</ele>
        <time>2017-08-06T15:57:21Z</time>
      </trkpt>
      <trkpt lat="48.93674" lon="3.99621">
        <ele>225.57</ele>
        <time>2017-08-06T15:57:34Z</time>
      </trkpt>
      <trkpt lat="48.93673" lon="3.9962">
        <ele>226.05</ele>
        <time>2017-08-06T15:57:56Z</time>
      </trkpt>
      <trkpt lat="48.93675" lon="3.99615">
        <ele>226.05</ele>
        <time>2017-08-06T15:58:08Z</time>
      </trkpt>
      <trkpt lat="48.93684" lon="3.99614">
        <ele>225.57</ele>
        <time>2017-08-06T15:58:48Z</time>
      </trkpt>
      <trkpt lat="48.93684" lon="3.99618">
        <ele>225.57</ele>
        <time>2017-08-06T15:59:24Z</time>
      </trkpt>
      <trkpt lat="48.93687" lon="3.99624">
        <ele>224.61</ele>
        <time>2017-08-06T15:59:57Z</time>
      </trkpt>
      <trkpt lat="48.93687" lon="3.9962">
        <ele>224.61</ele>
        <time>2017-08-06T16:00:30Z</time>
      </trkpt>
      <trkpt lat="48.93701" lon="3.99621">
        <ele>224.61</ele>
        <time>2017-08-06T16:01:12Z</time>
      </trkpt>
      <trkpt lat="48.93705" lon="3.99626">
        <ele>224.61</ele>
        <time>2017-08-06T16:01:44Z</time>
      </trkpt>
      <trkpt lat="48.93698" lon="3.99632">
        <ele>225.09</ele>
        <time>2017-08-06T16:02:18Z</time>
      </trkpt>
      <trkpt lat="48.93694" lon="3.99628">
        <ele>225.57</ele>
        <time>2017-08-06T16:02:54Z</time>
      </trkpt>
      <trkpt lat="48.93696" lon="3.99631">
        <ele>226.05</ele>
        <time>2017-08-06T16:03:25Z</time>
      </trkpt>
      <trkpt lat="48.93692" lon="3.99616">
        <ele>226.53</ele>
        <time>2017-08-06T16:04:02Z</time>
      </trkpt>
      <trkpt lat="48.93686" lon="3.99619">
        <ele>227.01</ele>
        <time>2017-08-06T16:04:36Z</time>
      </trkpt>
      <trkpt lat="48.93692" lon="3.99624">
        <ele>227.01</ele>
        <time>2017-08-06T16:05:11Z</time>
      </trkpt>
      <trkpt lat="48.9369" lon="3.99624">
        <ele>227.49</ele>
        <time>2017-08-06T16:05:44Z</time>
      </trkpt>
      <trkpt lat="48.93687" lon="3.99624">
        <ele>227.97</ele>
        <time>2017-08-06T16:06:16Z</time>
      </trkpt>
      <trkpt lat="48.93686" lon="3.99626">
        <ele>228.45</ele>
        <time>2017-08-06T16:06:45Z</time>
      </trkpt>
      <trkpt lat="48.9369" lon="3.99628">
        <ele>228.45</ele>
        <time>2017-08-06T16:07:17Z</time>
      </trkpt>
      <trkpt lat="48.93685" lon="3.99628">
        <ele>228.93</ele>
        <time>2017-08-06T16:07:48Z</time>
      </trkpt>
      <trkpt lat="48.93687" lon="3.99632">
        <ele>229.41</ele>
        <time>2017-08-06T16:08:24Z</time>
      </trkpt>
      <trkpt lat="48.93684" lon="3.99629">
        <ele>229.41</ele>
        <time>2017-08-06T16:08:55Z</time>
      </trkpt>
      <trkpt lat="48.93688" lon="3.99625">
        <ele>229.89</ele>
        <time>2017-08-06T16:09:29Z</time>
      </trkpt>
      <trkpt lat="48.93686" lon="3.99622">
        <ele>230.37</ele>
        <time>2017-08-06T16:10:01Z</time>
      </trkpt>
      <trkpt lat="48.93685" lon="3.99623">
        <ele>230.37</ele>
        <time>2017-08-06T16:10:29Z</time>
      </trkpt>
      <trkpt lat="48.93691" lon="3.99624">
        <ele>230.37</ele>
        <time>2017-08-06T16:11:01Z</time>
      </trkpt>
      <trkpt lat="48.9369" lon="3.99619">
        <ele>230.85</ele>
        <time>2017-08-06T16:11:36Z</time>
      </trkpt>
      <trkpt lat="48.93694" lon="3.9962">
        <ele>231.33</ele>
        <time>2017-08-06T16:12:09Z</time>
      </trkpt>
      <trkpt lat="48.93688" lon="3.99619">
        <ele>231.33</ele>
        <time>2017-08-06T16:12:39Z</time>
      </trkpt>
      <trkpt lat="48.93685" lon="3.99628">
        <ele>231.81</ele>
        <time>2017-08-06T16:13:12Z</time>
      </trkpt>
      <trkpt lat="48.93688" lon="3.99632">
        <ele>231.81</ele>
        <time>2017-08-06T16:13:45Z</time>
      </trkpt>
      <trkpt lat="48.93686" lon="3.99626">
        <ele>231.81</ele>
        <time>2017-08-06T16:14:16Z</time>
      </trkpt>
      <trkpt lat="48.93684" lon="3.99629">
        <ele>231.81</ele>
        <time>2017-08-06T16:14:40Z</time>
      </trkpt>
      <trkpt lat="48.93686" lon="3.99626">
        <ele>232.3</ele>
        <time>2017-08-06T16:15:11Z</time>
      </trkpt>
      <trkpt lat="48.93687" lon="3.99625">
        <ele>232.3</ele>
        <time>2017-08-06T16:15:41Z</time>
      </trkpt>
      <trkpt lat="48.93688" lon="3.99624">
        <ele>232.78</ele>
        <time>2017-08-06T16:16:17Z</time>
      </trkpt>
      <trkpt lat="48.93688" lon="3.99623">
        <ele>232.78</ele>
        <time>2017-08-06T16:16:48Z</time>
      </trkpt>
      <trkpt lat="48.93691" lon="3.99623">
        <ele>233.26</ele>
        <time>2017-08-06T16:17:24Z</time>
      </trkpt>
      <trkpt lat="48.93692" lon="3.99628">
        <ele>233.26</ele>
        <time>2017-08-06T16:17:58Z</time>
      </trkpt>
      <trkpt lat="48.93695" lon="3.99624">
        <ele>233.26</ele>
        <time>2017-08-06T16:18:30Z</time>
      </trkpt>
      <trkpt lat="48.93694" lon="3.99628">
        <ele>233.74</ele>
        <time>2017-08-06T16:18:58Z</time>
      </trkpt>
      <trkpt lat="48.93686" lon="3.99626">
        <ele>233.74</ele>
        <time>2017-08-06T16:19:27Z</time>
      </trkpt>
      <trkpt lat="48.93679" lon="3.9961">
        <ele>234.22</ele>
        <time>2017-08-06T16:19:49Z</time>
      </trkpt>
      <trkpt lat="48.93676" lon="3.99605">
        <ele>234.22</ele>
        <time>2017-08-06T16:20:12Z</time>
      </trkpt>
      <trkpt lat="48.93676" lon="3.99602">
        <ele>234.22</ele>
        <time>2017-08-06T16:20:43Z</time>
      </trkpt>
      <trkpt lat="48.93678" lon="3.99612">
        <ele>233.74</ele>
        <time>2017-08-06T16:21:13Z</time>
      </trkpt>
      <trkpt lat="48.93678" lon="3.99616">
        <ele>233.74</ele>
        <time>2017-08-06T16:21:36Z</time>
      </trkpt>
      <trkpt lat="48.9368" lon="3.99616">
        <ele>233.74</ele>
        <time>2017-08-06T16:21:54Z</time>
      </trkpt>
      <trkpt lat="48.93678" lon="3.99618">
        <ele>235.66</ele>
        <time>2017-08-06T16:22:17Z</time>
      </trkpt>
      <trkpt lat="48.93677" lon="3.99617">
        <ele>235.18</ele>
        <time>2017-08-06T16:22:36Z</time>
      </trkpt>
      <trkpt lat="48.93675" lon="3.99618">
        <ele>235.18</ele>
        <time>2017-08-06T16:22:56Z</time>
      </trkpt>
      <trkpt lat="48.93676" lon="3.99618">
        <ele>235.18</ele>
        <time>2017-08-06T16:23:22Z</time>
      </trkpt>
      <trkpt lat="48.93678" lon="3.99622">
        <ele>235.18</ele>
        <time>2017-08-06T16:23:38Z</time>
      </trkpt>
      <trkpt lat="48.93677" lon="3.99625">
        <ele>235.18</ele>
        <time>2017-08-06T16:23:48Z</time>
      </trkpt>
      <trkpt lat="48.93684" lon="3.99646">
        <ele>235.66</ele>
        <time>2017-08-06T16:23:58Z</time>
      </trkpt>
      <trkpt lat="48.93688" lon="3.99694">
        <ele>237.1</ele>
        <time>2017-08-06T16:24:15Z</time>
      </trkpt>
      <trkpt lat="48.9369" lon="3.99727">
        <ele>238.54</ele>
        <time>2017-08-06T16:24:27Z</time>
      </trkpt>
      <trkpt lat="48.9369" lon="3.9973">
        <ele>238.54</ele>
        <time>2017-08-06T16:24:28Z</time>
      </trkpt>
      <trkpt lat="48.93694" lon="3.99771">
        <ele>240.47</ele>
        <time>2017-08-06T16:24:43Z</time>
      </trkpt>
      <trkpt lat="48.93694" lon="3.99776">
        <ele>240.47</ele>
        <time>2017-08-06T16:24:45Z</time>
      </trkpt>
      <trkpt lat="48.93695" lon="3.99779">
        <ele>240.47</ele>
        <time>2017-08-06T16:24:46Z</time>
      </trkpt>
      <trkpt lat="48.937" lon="3.99819">
        <ele>242.39</ele>
        <time>2017-08-06T16:25:02Z</time>
      </trkpt>
      <trkpt lat="48.93709" lon="3.99852">
        <ele>243.35</ele>
        <time>2017-08-06T16:25:15Z</time>
      </trkpt>
      <trkpt lat="48.93709" lon="3.99854">
        <ele>243.35</ele>
        <time>2017-08-06T16:25:16Z</time>
      </trkpt>
      <trkpt lat="48.9371" lon="3.99857">
        <ele>243.35</ele>
        <time>2017-08-06T16:25:17Z</time>
      </trkpt>
      <trkpt lat="48.93724" lon="3.99894">
        <ele>245.27</ele>
        <time>2017-08-06T16:25:32Z</time>
      </trkpt>
      <trkpt lat="48.93741" lon="3.99923">
        <ele>246.72</ele>
        <time>2017-08-06T16:25:47Z</time>
      </trkpt>
      <trkpt lat="48.9376" lon="3.99954">
        <ele>248.16</ele>
        <time>2017-08-06T16:26:01Z</time>
      </trkpt>
      <trkpt lat="48.93778" lon="3.99982">
        <ele>249.12</ele>
        <time>2017-08-06T16:26:14Z</time>
      </trkpt>
      <trkpt lat="48.93805" lon="4.00023">
        <ele>250.56</ele>
        <time>2017-08-06T16:26:30Z</time>
      </trkpt>
      <trkpt lat="48.9384" lon="4.00081">
        <ele>251.04</ele>
        <time>2017-08-06T16:26:47Z</time>
      </trkpt>
      <trkpt lat="48.93874" lon="4.00133">
        <ele>251.04</ele>
        <time>2017-08-06T16:27:02Z</time>
      </trkpt>
      <trkpt lat="48.93911" lon="4.00194">
        <ele>249.6</ele>
        <time>2017-08-06T16:27:17Z</time>
      </trkpt>
      <trkpt lat="48.93923" lon="4.00215">
        <ele>249.12</ele>
        <time>2017-08-06T16:27:21Z</time>
      </trkpt>
      <trkpt lat="48.93936" lon="4.00237">
        <ele>249.12</ele>
        <time>2017-08-06T16:27:25Z</time>
      </trkpt>
      <trkpt lat="48.93939" lon="4.00242">
        <ele>249.12</ele>
        <time>2017-08-06T16:27:26Z</time>
      </trkpt>
      <trkpt lat="48.93978" lon="4.00304">
        <ele>248.64</ele>
        <time>2017-08-06T16:27:39Z</time>
      </trkpt>
      <trkpt lat="48.94026" lon="4.00379">
        <ele>248.16</ele>
        <time>2017-08-06T16:27:54Z</time>
      </trkpt>
      <trkpt lat="48.94083" lon="4.00467">
        <ele>248.16</ele>
        <time>2017-08-06T16:28:13Z</time>
      </trkpt>
      <trkpt lat="48.94132" lon="4.00545">
        <ele>249.6</ele>
        <time>2017-08-06T16:28:31Z</time>
      </trkpt>
      <trkpt lat="48.94159" lon="4.00588">
        <ele>250.08</ele>
        <time>2017-08-06T16:28:41Z</time>
      </trkpt>
      <trkpt lat="48.94203" lon="4.00661">
        <ele>249.12</ele>
        <time>2017-08-06T16:28:56Z</time>
      </trkpt>
      <trkpt lat="48.94256" lon="4.00752">
        <ele>247.68</ele>
        <time>2017-08-06T16:29:11Z</time>
      </trkpt>
      <trkpt lat="48.9431" lon="4.00846">
        <ele>246.23</ele>
        <time>2017-08-06T16:29:26Z</time>
      </trkpt>
      <trkpt lat="48.94327" lon="4.00874">
        <ele>244.79</ele>
        <time>2017-08-06T16:29:30Z</time>
      </trkpt>
      <trkpt lat="48.94332" lon="4.0088">
        <ele>244.31</ele>
        <time>2017-08-06T16:29:31Z</time>
      </trkpt>
      <trkpt lat="48.94339" lon="4.00885">
        <ele>243.83</ele>
        <time>2017-08-06T16:29:32Z</time>
      </trkpt>
      <trkpt lat="48.94345" lon="4.00889">
        <ele>243.35</ele>
        <time>2017-08-06T16:29:33Z</time>
      </trkpt>
      <trkpt lat="48.94353" lon="4.0089">
        <ele>242.39</ele>
        <time>2017-08-06T16:29:34Z</time>
      </trkpt>
      <trkpt lat="48.94361" lon="4.00889">
        <ele>241.91</ele>
        <time>2017-08-06T16:29:35Z</time>
      </trkpt>
      <trkpt lat="48.9437" lon="4.00888">
        <ele>241.43</ele>
        <time>2017-08-06T16:29:36Z</time>
      </trkpt>
      <trkpt lat="48.94414" lon="4.00877">
        <ele>238.54</ele>
        <time>2017-08-06T16:29:41Z</time>
      </trkpt>
      <trkpt lat="48.9446" lon="4.0087">
        <ele>234.7</ele>
        <time>2017-08-06T16:29:46Z</time>
      </trkpt>
      <trkpt lat="48.94471" lon="4.00873">
        <ele>233.74</ele>
        <time>2017-08-06T16:29:47Z</time>
      </trkpt>
      <trkpt lat="48.9448" lon="4.00877">
        <ele>233.26</ele>
        <time>2017-08-06T16:29:48Z</time>
      </trkpt>
      <trkpt lat="48.94529" lon="4.00906">
        <ele>229.89</ele>
        <time>2017-08-06T16:29:53Z</time>
      </trkpt>
      <trkpt lat="48.94558" lon="4.00925">
        <ele>228.45</ele>
        <time>2017-08-06T16:29:56Z</time>
      </trkpt>
      <trkpt lat="48.94588" lon="4.00943">
        <ele>226.53</ele>
        <time>2017-08-06T16:30:00Z</time>
      </trkpt>
      <trkpt lat="48.94594" lon="4.00949">
        <ele>226.53</ele>
        <time>2017-08-06T16:30:01Z</time>
      </trkpt>
      <trkpt lat="48.94598" lon="4.00956">
        <ele>225.57</ele>
        <time>2017-08-06T16:30:02Z</time>
      </trkpt>
      <trkpt lat="48.946" lon="4.00965">
        <ele>225.09</ele>
        <time>2017-08-06T16:30:03Z</time>
      </trkpt>
      <trkpt lat="48.946" lon="4.00975">
        <ele>224.12</ele>
        <time>2017-08-06T16:30:04Z</time>
      </trkpt>
      <trkpt lat="48.94597" lon="4.00985">
        <ele>223.64</ele>
        <time>2017-08-06T16:30:05Z</time>
      </trkpt>
      <trkpt lat="48.94592" lon="4.00994">
        <ele>222.68</ele>
        <time>2017-08-06T16:30:06Z</time>
      </trkpt>
      <trkpt lat="48.94587" lon="4.01003">
        <ele>222.2</ele>
        <time>2017-08-06T16:30:07Z</time>
      </trkpt>
      <trkpt lat="48.9458" lon="4.01011">
        <ele>221.72</ele>
        <time>2017-08-06T16:30:08Z</time>
      </trkpt>
      <trkpt lat="48.9456" lon="4.01039">
        <ele>220.28</ele>
        <time>2017-08-06T16:30:11Z</time>
      </trkpt>
      <trkpt lat="48.94531" lon="4.01077">
        <ele>216.91</ele>
        <time>2017-08-06T16:30:15Z</time>
      </trkpt>
      <trkpt lat="48.94503" lon="4.01118">
        <ele>214.51</ele>
        <time>2017-08-06T16:30:20Z</time>
      </trkpt>
      <trkpt lat="48.94501" lon="4.01129">
        <ele>213.55</ele>
        <time>2017-08-06T16:30:21Z</time>
      </trkpt>
      <trkpt lat="48.94502" lon="4.01137">
        <ele>213.07</ele>
        <time>2017-08-06T16:30:22Z</time>
      </trkpt>
      <trkpt lat="48.94505" lon="4.01144">
        <ele>212.59</ele>
        <time>2017-08-06T16:30:23Z</time>
      </trkpt>
      <trkpt lat="48.94511" lon="4.01151">
        <ele>211.63</ele>
        <time>2017-08-06T16:30:24Z</time>
      </trkpt>
      <trkpt lat="48.94518" lon="4.01154">
        <ele>210.67</ele>
        <time>2017-08-06T16:30:25Z</time>
      </trkpt>
      <trkpt lat="48.94525" lon="4.01153">
        <ele>210.19</ele>
        <time>2017-08-06T16:30:26Z</time>
      </trkpt>
      <trkpt lat="48.94533" lon="4.01152">
        <ele>209.7</ele>
        <time>2017-08-06T16:30:27Z</time>
      </trkpt>
      <trkpt lat="48.94572" lon="4.01143">
        <ele>206.82</ele>
        <time>2017-08-06T16:30:32Z</time>
      </trkpt>
      <trkpt lat="48.9458" lon="4.01143">
        <ele>206.34</ele>
        <time>2017-08-06T16:30:33Z</time>
      </trkpt>
      <trkpt lat="48.94589" lon="4.01146">
        <ele>205.38</ele>
        <time>2017-08-06T16:30:34Z</time>
      </trkpt>
      <trkpt lat="48.94597" lon="4.0115">
        <ele>204.9</ele>
        <time>2017-08-06T16:30:35Z</time>
      </trkpt>
      <trkpt lat="48.94605" lon="4.01157">
        <ele>204.42</ele>
        <time>2017-08-06T16:30:36Z</time>
      </trkpt>
      <trkpt lat="48.94613" lon="4.01165">
        <ele>203.94</ele>
        <time>2017-08-06T16:30:37Z</time>
      </trkpt>
      <trkpt lat="48.94653" lon="4.01199">
        <ele>201.05</ele>
        <time>2017-08-06T16:30:42Z</time>
      </trkpt>
      <trkpt lat="48.94663" lon="4.01203">
        <ele>200.09</ele>
        <time>2017-08-06T16:30:43Z</time>
      </trkpt>
      <trkpt lat="48.94672" lon="4.01205">
        <ele>199.13</ele>
        <time>2017-08-06T16:30:44Z</time>
      </trkpt>
      <trkpt lat="48.94683" lon="4.01206">
        <ele>198.17</ele>
        <time>2017-08-06T16:30:45Z</time>
      </trkpt>
      <trkpt lat="48.94694" lon="4.01206">
        <ele>197.69</ele>
        <time>2017-08-06T16:30:46Z</time>
      </trkpt>
      <trkpt lat="48.94729" lon="4.01209">
        <ele>196.25</ele>
        <time>2017-08-06T16:30:50Z</time>
      </trkpt>
      <trkpt lat="48.94736" lon="4.01213">
        <ele>195.28</ele>
        <time>2017-08-06T16:30:51Z</time>
      </trkpt>
      <trkpt lat="48.94743" lon="4.01222">
        <ele>194.8</ele>
        <time>2017-08-06T16:30:52Z</time>
      </trkpt>
      <trkpt lat="48.9475" lon="4.01233">
        <ele>193.84</ele>
        <time>2017-08-06T16:30:53Z</time>
      </trkpt>
      <trkpt lat="48.94754" lon="4.01242">
        <ele>192.88</ele>
        <time>2017-08-06T16:30:54Z</time>
      </trkpt>
      <trkpt lat="48.94781" lon="4.01293">
        <ele>189.04</ele>
        <time>2017-08-06T16:30:58Z</time>
      </trkpt>
      <trkpt lat="48.94792" lon="4.01319">
        <ele>187.11</ele>
        <time>2017-08-06T16:31:00Z</time>
      </trkpt>
      <trkpt lat="48.94795" lon="4.01332">
        <ele>186.63</ele>
        <time>2017-08-06T16:31:01Z</time>
      </trkpt>
      <trkpt lat="48.94797" lon="4.01344">
        <ele>185.19</ele>
        <time>2017-08-06T16:31:02Z</time>
      </trkpt>
      <trkpt lat="48.94798" lon="4.0136">
        <ele>184.23</ele>
        <time>2017-08-06T16:31:03Z</time>
      </trkpt>
      <trkpt lat="48.94797" lon="4.01375">
        <ele>182.79</ele>
        <time>2017-08-06T16:31:04Z</time>
      </trkpt>
      <trkpt lat="48.94794" lon="4.01389">
        <ele>181.83</ele>
        <time>2017-08-06T16:31:05Z</time>
      </trkpt>
      <trkpt lat="48.94789" lon="4.01403">
        <ele>180.87</ele>
        <time>2017-08-06T16:31:06Z</time>
      </trkpt>
      <trkpt lat="48.94783" lon="4.01417">
        <ele>179.9</ele>
        <time>2017-08-06T16:31:07Z</time>
      </trkpt>
      <trkpt lat="48.94775" lon="4.01429">
        <ele>178.94</ele>
        <time>2017-08-06T16:31:08Z</time>
      </trkpt>
      <trkpt lat="48.94767" lon="4.01441">
        <ele>177.98</ele>
        <time>2017-08-06T16:31:09Z</time>
      </trkpt>
      <trkpt lat="48.94732" lon="4.01491">
        <ele>174.14</ele>
        <time>2017-08-06T16:31:13Z</time>
      </trkpt>
      <trkpt lat="48.94693" lon="4.01548">
        <ele>170.29</ele>
        <time>2017-08-06T16:31:18Z</time>
      </trkpt>
      <trkpt lat="48.94659" lon="4.01598">
        <ele>166.93</ele>
        <time>2017-08-06T16:31:22Z</time>
      </trkpt>
      <trkpt lat="48.9461" lon="4.01663">
        <ele>165</ele>
        <time>2017-08-06T16:31:29Z</time>
      </trkpt>
      <trkpt lat="48.94603" lon="4.01667">
        <ele>164.04</ele>
        <time>2017-08-06T16:31:30Z</time>
      </trkpt>
      <trkpt lat="48.94595" lon="4.0167">
        <ele>164.04</ele>
        <time>2017-08-06T16:31:31Z</time>
      </trkpt>
      <trkpt lat="48.94556" lon="4.01683">
        <ele>162.6</ele>
        <time>2017-08-06T16:31:37Z</time>
      </trkpt>
      <trkpt lat="48.94551" lon="4.01687">
        <ele>162.6</ele>
        <time>2017-08-06T16:31:38Z</time>
      </trkpt>
      <trkpt lat="48.94549" lon="4.01693">
        <ele>162.12</ele>
        <time>2017-08-06T16:31:39Z</time>
      </trkpt>
      <trkpt lat="48.94549" lon="4.01697">
        <ele>161.64</ele>
        <time>2017-08-06T16:31:40Z</time>
      </trkpt>
      <trkpt lat="48.94549" lon="4.01703">
        <ele>161.64</ele>
        <time>2017-08-06T16:31:41Z</time>
      </trkpt>
      <trkpt lat="48.9455" lon="4.01709">
        <ele>160.68</ele>
        <time>2017-08-06T16:31:42Z</time>
      </trkpt>
      <trkpt lat="48.94555" lon="4.01756">
        <ele>157.31</ele>
        <time>2017-08-06T16:31:47Z</time>
      </trkpt>
      <trkpt lat="48.94562" lon="4.018">
        <ele>153.95</ele>
        <time>2017-08-06T16:31:51Z</time>
      </trkpt>
      <trkpt lat="48.94565" lon="4.01809">
        <ele>153.47</ele>
        <time>2017-08-06T16:31:52Z</time>
      </trkpt>
      <trkpt lat="48.94568" lon="4.01816">
        <ele>152.99</ele>
        <time>2017-08-06T16:31:53Z</time>
      </trkpt>
      <trkpt lat="48.94571" lon="4.01822">
        <ele>152.99</ele>
        <time>2017-08-06T16:31:54Z</time>
      </trkpt>
      <trkpt lat="48.94574" lon="4.01827">
        <ele>152.51</ele>
        <time>2017-08-06T16:31:55Z</time>
      </trkpt>
      <trkpt lat="48.94575" lon="4.01831">
        <ele>152.51</ele>
        <time>2017-08-06T16:31:56Z</time>
      </trkpt>
      <trkpt lat="48.94576" lon="4.01834">
        <ele>152.51</ele>
        <time>2017-08-06T16:31:57Z</time>
      </trkpt>
      <trkpt lat="48.94578" lon="4.01838">
        <ele>152.03</ele>
        <time>2017-08-06T16:31:58Z</time>
      </trkpt>
      <trkpt lat="48.94581" lon="4.0184">
        <ele>151.54</ele>
        <time>2017-08-06T16:31:59Z</time>
      </trkpt>
      <trkpt lat="48.94584" lon="4.01842">
        <ele>152.03</ele>
        <time>2017-08-06T16:32:00Z</time>
      </trkpt>
      <trkpt lat="48.94587" lon="4.01845">
        <ele>151.54</ele>
        <time>2017-08-06T16:32:01Z</time>
      </trkpt>
      <trkpt lat="48.94589" lon="4.0185">
        <ele>151.06</ele>
        <time>2017-08-06T16:32:02Z</time>
      </trkpt>
      <trkpt lat="48.94591" lon="4.01856">
        <ele>151.06</ele>
        <time>2017-08-06T16:32:03Z</time>
      </trkpt>
      <trkpt lat="48.94592" lon="4.01865">
        <ele>150.1</ele>
        <time>2017-08-06T16:32:04Z</time>
      </trkpt>
      <trkpt lat="48.94601" lon="4.01922">
        <ele>146.74</ele>
        <time>2017-08-06T16:32:10Z</time>
      </trkpt>
      <trkpt lat="48.94604" lon="4.01931">
        <ele>146.26</ele>
        <time>2017-08-06T16:32:11Z</time>
      </trkpt>
      <trkpt lat="48.94607" lon="4.0194">
        <ele>146.26</ele>
        <time>2017-08-06T16:32:12Z</time>
      </trkpt>
      <trkpt lat="48.94629" lon="4.01989">
        <ele>142.89</ele>
        <time>2017-08-06T16:32:20Z</time>
      </trkpt>
      <trkpt lat="48.94632" lon="4.01997">
        <ele>142.89</ele>
        <time>2017-08-06T16:32:21Z</time>
      </trkpt>
      <trkpt lat="48.94661" lon="4.02053">
        <ele>139.53</ele>
        <time>2017-08-06T16:32:28Z</time>
      </trkpt>
      <trkpt lat="48.94674" lon="4.02074">
        <ele>139.05</ele>
        <time>2017-08-06T16:32:31Z</time>
      </trkpt>
      <trkpt lat="48.94677" lon="4.02081">
        <ele>138.09</ele>
        <time>2017-08-06T16:32:32Z</time>
      </trkpt>
      <trkpt lat="48.94678" lon="4.02093">
        <ele>138.09</ele>
        <time>2017-08-06T16:32:33Z</time>
      </trkpt>
      <trkpt lat="48.94678" lon="4.02103">
        <ele>137.13</ele>
        <time>2017-08-06T16:32:34Z</time>
      </trkpt>
      <trkpt lat="48.94676" lon="4.02111">
        <ele>136.16</ele>
        <time>2017-08-06T16:32:35Z</time>
      </trkpt>
      <trkpt lat="48.94673" lon="4.02119">
        <ele>136.16</ele>
        <time>2017-08-06T16:32:36Z</time>
      </trkpt>
      <trkpt lat="48.94668" lon="4.02128">
        <ele>136.16</ele>
        <time>2017-08-06T16:32:37Z</time>
      </trkpt>
      <trkpt lat="48.94658" lon="4.02146">
        <ele>135.68</ele>
        <time>2017-08-06T16:32:41Z</time>
      </trkpt>
      <trkpt lat="48.94659" lon="4.02148">
        <ele>135.68</ele>
        <time>2017-08-06T16:32:42Z</time>
      </trkpt>
      <trkpt lat="48.94661" lon="4.02148">
        <ele>135.2</ele>
        <time>2017-08-06T16:32:43Z</time>
      </trkpt>
      <trkpt lat="48.94662" lon="4.02148">
        <ele>135.68</ele>
        <time>2017-08-06T16:32:44Z</time>
      </trkpt>
      <trkpt lat="48.94663" lon="4.02147">
        <ele>135.68</ele>
        <time>2017-08-06T16:32:45Z</time>
      </trkpt>
      <trkpt lat="48.94665" lon="4.02148">
        <ele>135.68</ele>
        <time>2017-08-06T16:32:46Z</time>
      </trkpt>
      <trkpt lat="48.94667" lon="4.02148">
        <ele>135.68</ele>
        <time>2017-08-06T16:32:47Z</time>
      </trkpt>
      <trkpt lat="48.94668" lon="4.02149">
        <ele>135.68</ele>
        <time>2017-08-06T16:32:48Z</time>
      </trkpt>
      <trkpt lat="48.94686" lon="4.0217">
        <ele>136.64</ele>
        <time>2017-08-06T16:32:57Z</time>
      </trkpt>
      <trkpt lat="48.94727" lon="4.02231">
        <ele>136.64</ele>
        <time>2017-08-06T16:33:12Z</time>
      </trkpt>
      <trkpt lat="48.94787" lon="4.02315">
        <ele>133.28</ele>
        <time>2017-08-06T16:33:26Z</time>
      </trkpt>
      <trkpt lat="48.94841" lon="4.02395">
        <ele>131.36</ele>
        <time>2017-08-06T16:33:38Z</time>
      </trkpt>
      <trkpt lat="48.94874" lon="4.02444">
        <ele>130.88</ele>
        <time>2017-08-06T16:33:46Z</time>
      </trkpt>
      <trkpt lat="48.94877" lon="4.0245">
        <ele>130.88</ele>
        <time>2017-08-06T16:33:47Z</time>
      </trkpt>
      <trkpt lat="48.94878" lon="4.02456">
        <ele>130.4</ele>
        <time>2017-08-06T16:33:48Z</time>
      </trkpt>
      <trkpt lat="48.94877" lon="4.02462">
        <ele>130.4</ele>
        <time>2017-08-06T16:33:49Z</time>
      </trkpt>
      <trkpt lat="48.94876" lon="4.02467">
        <ele>130.4</ele>
        <time>2017-08-06T16:33:50Z</time>
      </trkpt>
      <trkpt lat="48.94874" lon="4.02469">
        <ele>130.4</ele>
        <time>2017-08-06T16:33:51Z</time>
      </trkpt>
      <trkpt lat="48.94873" lon="4.02469">
        <ele>130.4</ele>
        <time>2017-08-06T16:34:00Z</time>
      </trkpt>
      <trkpt lat="48.94872" lon="4.02472">
        <ele>130.4</ele>
        <time>2017-08-06T16:34:16Z</time>
      </trkpt>
      <trkpt lat="48.94871" lon="4.02475">
        <ele>129.92</ele>
        <time>2017-08-06T16:34:17Z</time>
      </trkpt>
      <trkpt lat="48.9487" lon="4.02477">
        <ele>129.92</ele>
        <time>2017-08-06T16:34:18Z</time>
      </trkpt>
      <trkpt lat="48.94868" lon="4.02478">
        <ele>129.92</ele>
        <time>2017-08-06T16:34:19Z</time>
      </trkpt>
      <trkpt lat="48.94865" lon="4.02479">
        <ele>129.43</ele>
        <time>2017-08-06T16:34:20Z</time>
      </trkpt>
      <trkpt lat="48.9482" lon="4.02508">
        <ele>127.99</ele>
        <time>2017-08-06T16:34:31Z</time>
      </trkpt>
      <trkpt lat="48.9477" lon="4.02546">
        <ele>128.47</ele>
        <time>2017-08-06T16:34:43Z</time>
      </trkpt>
      <trkpt lat="48.94767" lon="4.02548">
        <ele>128.47</ele>
        <time>2017-08-06T16:34:44Z</time>
      </trkpt>
      <trkpt lat="48.94732" lon="4.02579">
        <ele>130.88</ele>
        <time>2017-08-06T16:35:00Z</time>
      </trkpt>
      <trkpt lat="48.94697" lon="4.02617">
        <ele>133.76</ele>
        <time>2017-08-06T16:35:19Z</time>
      </trkpt>
      <trkpt lat="48.94669" lon="4.02651">
        <ele>135.68</ele>
        <time>2017-08-06T16:35:35Z</time>
      </trkpt>
      <trkpt lat="48.94637" lon="4.02698">
        <ele>137.61</ele>
        <time>2017-08-06T16:35:56Z</time>
      </trkpt>
      <trkpt lat="48.94637" lon="4.02759">
        <ele>138.09</ele>
        <time>2017-08-06T16:36:10Z</time>
      </trkpt>
      <trkpt lat="48.94625" lon="4.02841">
        <ele>137.61</ele>
        <time>2017-08-06T16:36:25Z</time>
      </trkpt>
      <trkpt lat="48.94617" lon="4.0288">
        <ele>137.61</ele>
        <time>2017-08-06T16:36:32Z</time>
      </trkpt>
      <trkpt lat="48.94605" lon="4.0294">
        <ele>136.64</ele>
        <time>2017-08-06T16:36:41Z</time>
      </trkpt>
      <trkpt lat="48.94595" lon="4.02999">
        <ele>135.68</ele>
        <time>2017-08-06T16:36:52Z</time>
      </trkpt>
      <trkpt lat="48.94588" lon="4.03062">
        <ele>133.28</ele>
        <time>2017-08-06T16:37:02Z</time>
      </trkpt>
      <trkpt lat="48.9459" lon="4.03177">
        <ele>130.88</ele>
        <time>2017-08-06T16:37:15Z</time>
      </trkpt>
      <trkpt lat="48.94592" lon="4.03322">
        <ele>128.47</ele>
        <time>2017-08-06T16:37:29Z</time>
      </trkpt>
      <trkpt lat="48.94584" lon="4.03373">
        <ele>127.51</ele>
        <time>2017-08-06T16:37:34Z</time>
      </trkpt>
      <trkpt lat="48.94569" lon="4.03454">
        <ele>126.55</ele>
        <time>2017-08-06T16:37:45Z</time>
      </trkpt>
      <trkpt lat="48.94553" lon="4.03525">
        <ele>125.11</ele>
        <time>2017-08-06T16:37:56Z</time>
      </trkpt>
      <trkpt lat="48.94539" lon="4.03654">
        <ele>122.22</ele>
        <time>2017-08-06T16:38:10Z</time>
      </trkpt>
      <trkpt lat="48.94509" lon="4.03814">
        <ele>119.82</ele>
        <time>2017-08-06T16:38:27Z</time>
      </trkpt>
      <trkpt lat="48.94469" lon="4.03967">
        <ele>118.38</ele>
        <time>2017-08-06T16:38:45Z</time>
      </trkpt>
      <trkpt lat="48.94452" lon="4.04028">
        <ele>118.38</ele>
        <time>2017-08-06T16:38:54Z</time>
      </trkpt>
      <trkpt lat="48.94451" lon="4.04034">
        <ele>118.38</ele>
        <time>2017-08-06T16:38:55Z</time>
      </trkpt>
      <trkpt lat="48.94426" lon="4.04122">
        <ele>120.78</ele>
        <time>2017-08-06T16:39:12Z</time>
      </trkpt>
      <trkpt lat="48.94403" lon="4.04195">
        <ele>122.22</ele>
        <time>2017-08-06T16:39:29Z</time>
      </trkpt>
      <trkpt lat="48.94392" lon="4.04254">
        <ele>123.19</ele>
        <time>2017-08-06T16:39:43Z</time>
      </trkpt>
      <trkpt lat="48.94415" lon="4.04318">
        <ele>123.19</ele>
        <time>2017-08-06T16:39:55Z</time>
      </trkpt>
      <trkpt lat="48.94434" lon="4.04377">
        <ele>122.71</ele>
        <time>2017-08-06T16:40:06Z</time>
      </trkpt>
      <trkpt lat="48.94446" lon="4.04414">
        <ele>121.74</ele>
        <time>2017-08-06T16:40:12Z</time>
      </trkpt>
      <trkpt lat="48.94448" lon="4.04421">
        <ele>121.74</ele>
        <time>2017-08-06T16:40:13Z</time>
      </trkpt>
      <trkpt lat="48.94449" lon="4.04427">
        <ele>121.74</ele>
        <time>2017-08-06T16:40:14Z</time>
      </trkpt>
      <trkpt lat="48.94448" lon="4.04433">
        <ele>121.74</ele>
        <time>2017-08-06T16:40:15Z</time>
      </trkpt>
      <trkpt lat="48.94447" lon="4.04439">
        <ele>121.74</ele>
        <time>2017-08-06T16:40:16Z</time>
      </trkpt>
      <trkpt lat="48.94444" lon="4.04444">
        <ele>121.74</ele>
        <time>2017-08-06T16:40:17Z</time>
      </trkpt>
      <trkpt lat="48.94442" lon="4.04446">
        <ele>121.74</ele>
        <time>2017-08-06T16:40:18Z</time>
      </trkpt>
      <trkpt lat="48.94415" lon="4.04475">
        <ele>122.71</ele>
        <time>2017-08-06T16:40:28Z</time>
      </trkpt>
      <trkpt lat="48.94401" lon="4.04498">
        <ele>123.19</ele>
        <time>2017-08-06T16:40:35Z</time>
      </trkpt>
      <trkpt lat="48.94401" lon="4.04503">
        <ele>123.67</ele>
        <time>2017-08-06T16:40:36Z</time>
      </trkpt>
      <trkpt lat="48.94402" lon="4.04507">
        <ele>123.67</ele>
        <time>2017-08-06T16:40:37Z</time>
      </trkpt>
      <trkpt lat="48.94402" lon="4.04512">
        <ele>123.67</ele>
        <time>2017-08-06T16:40:38Z</time>
      </trkpt>
      <trkpt lat="48.94403" lon="4.04517">
        <ele>123.67</ele>
        <time>2017-08-06T16:40:39Z</time>
      </trkpt>
      <trkpt lat="48.94404" lon="4.04522">
        <ele>123.67</ele>
        <time>2017-08-06T16:40:40Z</time>
      </trkpt>
      <trkpt lat="48.94404" lon="4.04527">
        <ele>123.67</ele>
        <time>2017-08-06T16:40:41Z</time>
      </trkpt>
      <trkpt lat="48.94411" lon="4.04611">
        <ele>123.67</ele>
        <time>2017-08-06T16:40:55Z</time>
      </trkpt>
      <trkpt lat="48.94413" lon="4.04643">
        <ele>123.67</ele>
        <time>2017-08-06T16:41:00Z</time>
      </trkpt>
      <trkpt lat="48.94413" lon="4.04755">
        <ele>123.67</ele>
        <time>2017-08-06T16:41:15Z</time>
      </trkpt>
      <trkpt lat="48.94417" lon="4.04834">
        <ele>123.67</ele>
        <time>2017-08-06T16:41:25Z</time>
      </trkpt>
      <trkpt lat="48.94418" lon="4.04849">
        <ele>123.67</ele>
        <time>2017-08-06T16:41:27Z</time>
      </trkpt>
      <trkpt lat="48.94424" lon="4.04892">
        <ele>123.67</ele>
        <time>2017-08-06T16:41:33Z</time>
      </trkpt>
      <trkpt lat="48.94424" lon="4.04899">
        <ele>123.19</ele>
        <time>2017-08-06T16:41:34Z</time>
      </trkpt>
      <trkpt lat="48.94434" lon="4.0504">
        <ele>121.74</ele>
        <time>2017-08-06T16:41:53Z</time>
      </trkpt>
      <trkpt lat="48.94446" lon="4.05205">
        <ele>120.78</ele>
        <time>2017-08-06T16:42:14Z</time>
      </trkpt>
      <trkpt lat="48.94458" lon="4.05354">
        <ele>120.78</ele>
        <time>2017-08-06T16:42:35Z</time>
      </trkpt>
      <trkpt lat="48.94469" lon="4.05489">
        <ele>119.82</ele>
        <time>2017-08-06T16:42:53Z</time>
      </trkpt>
      <trkpt lat="48.94485" lon="4.05628">
        <ele>118.38</ele>
        <time>2017-08-06T16:43:12Z</time>
      </trkpt>
      <trkpt lat="48.945" lon="4.05758">
        <ele>118.38</ele>
        <time>2017-08-06T16:43:31Z</time>
      </trkpt>
      <trkpt lat="48.94508" lon="4.05885">
        <ele>117.9</ele>
        <time>2017-08-06T16:43:51Z</time>
      </trkpt>
      <trkpt lat="48.94513" lon="4.05989">
        <ele>117.9</ele>
        <time>2017-08-06T16:44:08Z</time>
      </trkpt>
      <trkpt lat="48.94522" lon="4.06109">
        <ele>117.9</ele>
        <time>2017-08-06T16:44:28Z</time>
      </trkpt>
      <trkpt lat="48.94523" lon="4.06187">
        <ele>117.9</ele>
        <time>2017-08-06T16:44:41Z</time>
      </trkpt>
      <trkpt lat="48.94516" lon="4.06225">
        <ele>117.9</ele>
        <time>2017-08-06T16:44:48Z</time>
      </trkpt>
      <trkpt lat="48.94515" lon="4.06232">
        <ele>117.9</ele>
        <time>2017-08-06T16:44:49Z</time>
      </trkpt>
      <trkpt lat="48.94515" lon="4.06238">
        <ele>117.9</ele>
        <time>2017-08-06T16:44:50Z</time>
      </trkpt>
      <trkpt lat="48.94512" lon="4.06289">
        <ele>117.9</ele>
        <time>2017-08-06T16:44:58Z</time>
      </trkpt>
      <trkpt lat="48.94512" lon="4.06397">
        <ele>117.9</ele>
        <time>2017-08-06T16:45:15Z</time>
      </trkpt>
      <trkpt lat="48.9452" lon="4.06468">
        <ele>117.42</ele>
        <time>2017-08-06T16:45:26Z</time>
      </trkpt>
      <trkpt lat="48.94521" lon="4.06474">
        <ele>117.42</ele>
        <time>2017-08-06T16:45:27Z</time>
      </trkpt>
      <trkpt lat="48.94522" lon="4.06481">
        <ele>117.42</ele>
        <time>2017-08-06T16:45:28Z</time>
      </trkpt>
      <trkpt lat="48.94537" lon="4.06599">
        <ele>117.42</ele>
        <time>2017-08-06T16:45:47Z</time>
      </trkpt>
      <trkpt lat="48.94542" lon="4.06703">
        <ele>116.94</ele>
        <time>2017-08-06T16:46:04Z</time>
      </trkpt>
      <trkpt lat="48.94564" lon="4.06759">
        <ele>116.94</ele>
        <time>2017-08-06T16:46:15Z</time>
      </trkpt>
      <trkpt lat="48.94574" lon="4.06781">
        <ele>116.94</ele>
        <time>2017-08-06T16:46:19Z</time>
      </trkpt>
      <trkpt lat="48.94594" lon="4.06892">
        <ele>116.94</ele>
        <time>2017-08-06T16:46:36Z</time>
      </trkpt>
      <trkpt lat="48.94624" lon="4.07002">
        <ele>116.46</ele>
        <time>2017-08-06T16:46:53Z</time>
      </trkpt>
      <trkpt lat="48.94629" lon="4.07029">
        <ele>116.46</ele>
        <time>2017-08-06T16:46:57Z</time>
      </trkpt>
      <trkpt lat="48.9463" lon="4.07036">
        <ele>116.46</ele>
        <time>2017-08-06T16:46:58Z</time>
      </trkpt>
      <trkpt lat="48.9463" lon="4.07043">
        <ele>116.46</ele>
        <time>2017-08-06T16:46:59Z</time>
      </trkpt>
      <trkpt lat="48.94631" lon="4.0705">
        <ele>116.46</ele>
        <time>2017-08-06T16:47:00Z</time>
      </trkpt>
      <trkpt lat="48.94632" lon="4.07056">
        <ele>116.46</ele>
        <time>2017-08-06T16:47:01Z</time>
      </trkpt>
      <trkpt lat="48.94633" lon="4.07062">
        <ele>116.46</ele>
        <time>2017-08-06T16:47:02Z</time>
      </trkpt>
      <trkpt lat="48.94651" lon="4.07187">
        <ele>115.98</ele>
        <time>2017-08-06T16:47:20Z</time>
      </trkpt>
      <trkpt lat="48.94652" lon="4.07194">
        <ele>115.98</ele>
        <time>2017-08-06T16:47:21Z</time>
      </trkpt>
      <trkpt lat="48.94653" lon="4.072">
        <ele>115.98</ele>
        <time>2017-08-06T16:47:22Z</time>
      </trkpt>
      <trkpt lat="48.9466" lon="4.07231">
        <ele>115.98</ele>
        <time>2017-08-06T16:47:31Z</time>
      </trkpt>
      <trkpt lat="48.94659" lon="4.07231">
        <ele>115.5</ele>
        <time>2017-08-06T16:47:49Z</time>
      </trkpt>
      <trkpt lat="48.9466" lon="4.0723">
        <ele>115.5</ele>
        <time>2017-08-06T16:48:14Z</time>
      </trkpt>
      <trkpt lat="48.9466" lon="4.07232">
        <ele>115.5</ele>
        <time>2017-08-06T16:48:18Z</time>
      </trkpt>
      <trkpt lat="48.9466" lon="4.07234">
        <ele>115.5</ele>
        <time>2017-08-06T16:48:19Z</time>
      </trkpt>
      <trkpt lat="48.9466" lon="4.07236">
        <ele>115.5</ele>
        <time>2017-08-06T16:48:20Z</time>
      </trkpt>
      <trkpt lat="48.94659" lon="4.07238">
        <ele>115.5</ele>
        <time>2017-08-06T16:48:21Z</time>
      </trkpt>
      <trkpt lat="48.94658" lon="4.0724">
        <ele>115.5</ele>
        <time>2017-08-06T16:48:22Z</time>
      </trkpt>
      <trkpt lat="48.94656" lon="4.07242">
        <ele>115.5</ele>
        <time>2017-08-06T16:48:23Z</time>
      </trkpt>
      <trkpt lat="48.94655" lon="4.07245">
        <ele>115.5</ele>
        <time>2017-08-06T16:48:24Z</time>
      </trkpt>
      <trkpt lat="48.94653" lon="4.07247">
        <ele>115.5</ele>
        <time>2017-08-06T16:48:25Z</time>
      </trkpt>
      <trkpt lat="48.9465" lon="4.0725">
        <ele>115.5</ele>
        <time>2017-08-06T16:48:26Z</time>
      </trkpt>
      <trkpt lat="48.94601" lon="4.07298">
        <ele>116.94</ele>
        <time>2017-08-06T16:48:43Z</time>
      </trkpt>
      <trkpt lat="48.9457" lon="4.0733">
        <ele>116.46</ele>
        <time>2017-08-06T16:48:52Z</time>
      </trkpt>
      <trkpt lat="48.94566" lon="4.07332">
        <ele>116.46</ele>
        <time>2017-08-06T16:48:53Z</time>
      </trkpt>
      <trkpt lat="48.94563" lon="4.07335">
        <ele>116.46</ele>
        <time>2017-08-06T16:48:54Z</time>
      </trkpt>
      <trkpt lat="48.94533" lon="4.07362">
        <ele>116.46</ele>
        <time>2017-08-06T16:49:02Z</time>
      </trkpt>
      <trkpt lat="48.9446" lon="4.07433">
        <ele>114.53</ele>
        <time>2017-08-06T16:49:19Z</time>
      </trkpt>
      <trkpt lat="48.94387" lon="4.07504">
        <ele>112.61</ele>
        <time>2017-08-06T16:49:34Z</time>
      </trkpt>
      <trkpt lat="48.94329" lon="4.07557">
        <ele>111.17</ele>
        <time>2017-08-06T16:49:46Z</time>
      </trkpt>
      <trkpt lat="48.94326" lon="4.07562">
        <ele>110.69</ele>
        <time>2017-08-06T16:49:47Z</time>
      </trkpt>
      <trkpt lat="48.94324" lon="4.07567">
        <ele>110.69</ele>
        <time>2017-08-06T16:49:48Z</time>
      </trkpt>
      <trkpt lat="48.94323" lon="4.07573">
        <ele>110.69</ele>
        <time>2017-08-06T16:49:49Z</time>
      </trkpt>
      <trkpt lat="48.94323" lon="4.0758">
        <ele>110.69</ele>
        <time>2017-08-06T16:49:50Z</time>
      </trkpt>
      <trkpt lat="48.94324" lon="4.07585">
        <ele>110.69</ele>
        <time>2017-08-06T16:49:51Z</time>
      </trkpt>
      <trkpt lat="48.94325" lon="4.0759">
        <ele>110.69</ele>
        <time>2017-08-06T16:49:52Z</time>
      </trkpt>
      <trkpt lat="48.94358" lon="4.07702">
        <ele>110.69</ele>
        <time>2017-08-06T16:50:12Z</time>
      </trkpt>
      <trkpt lat="48.94388" lon="4.07805">
        <ele>112.13</ele>
        <time>2017-08-06T16:50:33Z</time>
      </trkpt>
      <trkpt lat="48.94414" lon="4.07893">
        <ele>113.09</ele>
        <time>2017-08-06T16:50:51Z</time>
      </trkpt>
      <trkpt lat="48.94444" lon="4.07995">
        <ele>113.09</ele>
        <time>2017-08-06T16:51:11Z</time>
      </trkpt>
      <trkpt lat="48.94472" lon="4.08089">
        <ele>113.57</ele>
        <time>2017-08-06T16:51:29Z</time>
      </trkpt>
      <trkpt lat="48.94501" lon="4.08185">
        <ele>114.53</ele>
        <time>2017-08-06T16:51:48Z</time>
      </trkpt>
      <trkpt lat="48.94504" lon="4.08196">
        <ele>114.53</ele>
        <time>2017-08-06T16:51:50Z</time>
      </trkpt>
      <trkpt lat="48.94506" lon="4.08202">
        <ele>115.01</ele>
        <time>2017-08-06T16:51:51Z</time>
      </trkpt>
      <trkpt lat="48.94507" lon="4.08207">
        <ele>114.53</ele>
        <time>2017-08-06T16:51:52Z</time>
      </trkpt>
      <trkpt lat="48.94509" lon="4.08213">
        <ele>114.53</ele>
        <time>2017-08-06T16:51:53Z</time>
      </trkpt>
      <trkpt lat="48.9451" lon="4.08218">
        <ele>114.53</ele>
        <time>2017-08-06T16:51:54Z</time>
      </trkpt>
      <trkpt lat="48.94512" lon="4.08223">
        <ele>114.53</ele>
        <time>2017-08-06T16:51:55Z</time>
      </trkpt>
      <trkpt lat="48.94533" lon="4.08296">
        <ele>115.01</ele>
        <time>2017-08-06T16:52:09Z</time>
      </trkpt>
      <trkpt lat="48.94563" lon="4.08402">
        <ele>115.98</ele>
        <time>2017-08-06T16:52:29Z</time>
      </trkpt>
      <trkpt lat="48.94584" lon="4.08474">
        <ele>115.98</ele>
        <time>2017-08-06T16:52:42Z</time>
      </trkpt>
      <trkpt lat="48.9459" lon="4.08497">
        <ele>115.98</ele>
        <time>2017-08-06T16:52:46Z</time>
      </trkpt>
      <trkpt lat="48.94592" lon="4.08503">
        <ele>115.98</ele>
        <time>2017-08-06T16:52:47Z</time>
      </trkpt>
      <trkpt lat="48.94623" lon="4.08608">
        <ele>116.46</ele>
        <time>2017-08-06T16:53:06Z</time>
      </trkpt>
      <trkpt lat="48.94644" lon="4.08685">
        <ele>115.98</ele>
        <time>2017-08-06T16:53:20Z</time>
      </trkpt>
      <trkpt lat="48.94669" lon="4.08766">
        <ele>115.98</ele>
        <time>2017-08-06T16:53:36Z</time>
      </trkpt>
      <trkpt lat="48.94677" lon="4.0878">
        <ele>115.98</ele>
        <time>2017-08-06T16:53:46Z</time>
      </trkpt>
      <trkpt lat="48.94678" lon="4.08776">
        <ele>116.46</ele>
        <time>2017-08-06T16:54:16Z</time>
      </trkpt>
      <trkpt lat="48.94678" lon="4.08778">
        <ele>116.46</ele>
        <time>2017-08-06T16:54:26Z</time>
      </trkpt>
      <trkpt lat="48.94678" lon="4.08781">
        <ele>116.46</ele>
        <time>2017-08-06T16:54:30Z</time>
      </trkpt>
      <trkpt lat="48.94678" lon="4.08782">
        <ele>116.46</ele>
        <time>2017-08-06T16:54:31Z</time>
      </trkpt>
      <trkpt lat="48.94679" lon="4.08785">
        <ele>116.46</ele>
        <time>2017-08-06T16:54:32Z</time>
      </trkpt>
      <trkpt lat="48.94679" lon="4.08788">
        <ele>116.46</ele>
        <time>2017-08-06T16:54:33Z</time>
      </trkpt>
      <trkpt lat="48.9468" lon="4.08792">
        <ele>116.46</ele>
        <time>2017-08-06T16:54:34Z</time>
      </trkpt>
      <trkpt lat="48.9468" lon="4.08796">
        <ele>116.46</ele>
        <time>2017-08-06T16:54:35Z</time>
      </trkpt>
      <trkpt lat="48.9468" lon="4.08802">
        <ele>116.46</ele>
        <time>2017-08-06T16:54:36Z</time>
      </trkpt>
      <trkpt lat="48.9468" lon="4.08808">
        <ele>116.46</ele>
        <time>2017-08-06T16:54:37Z</time>
      </trkpt>
      <trkpt lat="48.94681" lon="4.08815">
        <ele>116.46</ele>
        <time>2017-08-06T16:54:38Z</time>
      </trkpt>
      <trkpt lat="48.94688" lon="4.08864">
        <ele>115.98</ele>
        <time>2017-08-06T16:54:46Z</time>
      </trkpt>
      <trkpt lat="48.94689" lon="4.08872">
        <ele>115.98</ele>
        <time>2017-08-06T16:54:47Z</time>
      </trkpt>
      <trkpt lat="48.94708" lon="4.09002">
        <ele>115.98</ele>
        <time>2017-08-06T16:55:05Z</time>
      </trkpt>
      <trkpt lat="48.94733" lon="4.0915">
        <ele>115.98</ele>
        <time>2017-08-06T16:55:26Z</time>
      </trkpt>
      <trkpt lat="48.9474" lon="4.09199">
        <ele>115.98</ele>
        <time>2017-08-06T16:55:33Z</time>
      </trkpt>
      <trkpt lat="48.94761" lon="4.09327">
        <ele>115.98</ele>
        <time>2017-08-06T16:55:51Z</time>
      </trkpt>
      <trkpt lat="48.94764" lon="4.09349">
        <ele>114.53</ele>
        <time>2017-08-06T16:55:54Z</time>
      </trkpt>
      <trkpt lat="48.94787" lon="4.09496">
        <ele>114.05</ele>
        <time>2017-08-06T16:56:13Z</time>
      </trkpt>
      <trkpt lat="48.9481" lon="4.09645">
        <ele>113.57</ele>
        <time>2017-08-06T16:56:34Z</time>
      </trkpt>
      <trkpt lat="48.94822" lon="4.09721">
        <ele>113.57</ele>
        <time>2017-08-06T16:56:45Z</time>
      </trkpt>
      <trkpt lat="48.94839" lon="4.09826">
        <ele>113.09</ele>
        <time>2017-08-06T16:57:01Z</time>
      </trkpt>
      <trkpt lat="48.94859" lon="4.09958">
        <ele>113.09</ele>
        <time>2017-08-06T16:57:22Z</time>
      </trkpt>
      <trkpt lat="48.94862" lon="4.09985">
        <ele>112.61</ele>
        <time>2017-08-06T16:57:26Z</time>
      </trkpt>
      <trkpt lat="48.94863" lon="4.09989">
        <ele>112.61</ele>
        <time>2017-08-06T16:57:27Z</time>
      </trkpt>
      <trkpt lat="48.9488" lon="4.10082">
        <ele>112.13</ele>
        <time>2017-08-06T16:57:42Z</time>
      </trkpt>
      <trkpt lat="48.94929" lon="4.10198">
        <ele>110.69</ele>
        <time>2017-08-06T16:58:01Z</time>
      </trkpt>
      <trkpt lat="48.94985" lon="4.10325">
        <ele>109.73</ele>
        <time>2017-08-06T16:58:20Z</time>
      </trkpt>
      <trkpt lat="48.95041" lon="4.10454">
        <ele>109.25</ele>
        <time>2017-08-06T16:58:38Z</time>
      </trkpt>
      <trkpt lat="48.95093" lon="4.10574">
        <ele>108.29</ele>
        <time>2017-08-06T16:58:55Z</time>
      </trkpt>
      <trkpt lat="48.95154" lon="4.10713">
        <ele>107.32</ele>
        <time>2017-08-06T16:59:15Z</time>
      </trkpt>
      <trkpt lat="48.95209" lon="4.10841">
        <ele>106.36</ele>
        <time>2017-08-06T16:59:33Z</time>
      </trkpt>
      <trkpt lat="48.95249" lon="4.10928">
        <ele>105.88</ele>
        <time>2017-08-06T16:59:46Z</time>
      </trkpt>
      <trkpt lat="48.95251" lon="4.10934">
        <ele>105.88</ele>
        <time>2017-08-06T16:59:47Z</time>
      </trkpt>
      <trkpt lat="48.95289" lon="4.11024">
        <ele>104.92</ele>
        <time>2017-08-06T17:00:00Z</time>
      </trkpt>
      <trkpt lat="48.95311" lon="4.11075">
        <ele>104.44</ele>
        <time>2017-08-06T17:00:07Z</time>
      </trkpt>
      <trkpt lat="48.95351" lon="4.11167">
        <ele>103.48</ele>
        <time>2017-08-06T17:00:20Z</time>
      </trkpt>
      <trkpt lat="48.95389" lon="4.11256">
        <ele>103</ele>
        <time>2017-08-06T17:00:33Z</time>
      </trkpt>
      <trkpt lat="48.95433" lon="4.1136">
        <ele>101.56</ele>
        <time>2017-08-06T17:00:48Z</time>
      </trkpt>
      <trkpt lat="48.95436" lon="4.11366">
        <ele>101.56</ele>
        <time>2017-08-06T17:00:49Z</time>
      </trkpt>
      <trkpt lat="48.95463" lon="4.1143">
        <ele>100.6</ele>
        <time>2017-08-06T17:00:59Z</time>
      </trkpt>
      <trkpt lat="48.95463" lon="4.11438">
        <ele>100.6</ele>
        <time>2017-08-06T17:01:00Z</time>
      </trkpt>
      <trkpt lat="48.95462" lon="4.11444">
        <ele>100.6</ele>
        <time>2017-08-06T17:01:01Z</time>
      </trkpt>
      <trkpt lat="48.9546" lon="4.1145">
        <ele>100.6</ele>
        <time>2017-08-06T17:01:02Z</time>
      </trkpt>
      <trkpt lat="48.95457" lon="4.11454">
        <ele>100.6</ele>
        <time>2017-08-06T17:01:03Z</time>
      </trkpt>
      <trkpt lat="48.95454" lon="4.11457">
        <ele>101.08</ele>
        <time>2017-08-06T17:01:04Z</time>
      </trkpt>
      <trkpt lat="48.95451" lon="4.1146">
        <ele>101.08</ele>
        <time>2017-08-06T17:01:05Z</time>
      </trkpt>
      <trkpt lat="48.95447" lon="4.11462">
        <ele>101.08</ele>
        <time>2017-08-06T17:01:06Z</time>
      </trkpt>
      <trkpt lat="48.95393" lon="4.11505">
        <ele>102.52</ele>
        <time>2017-08-06T17:01:24Z</time>
      </trkpt>
      <trkpt lat="48.95355" lon="4.11536">
        <ele>103.96</ele>
        <time>2017-08-06T17:01:39Z</time>
      </trkpt>
      <trkpt lat="48.95313" lon="4.11569">
        <ele>104.92</ele>
        <time>2017-08-06T17:01:56Z</time>
      </trkpt>
      <trkpt lat="48.95272" lon="4.11603">
        <ele>106.36</ele>
        <time>2017-08-06T17:02:13Z</time>
      </trkpt>
      <trkpt lat="48.9523" lon="4.11638">
        <ele>107.81</ele>
        <time>2017-08-06T17:02:31Z</time>
      </trkpt>
      <trkpt lat="48.95185" lon="4.11671">
        <ele>107.81</ele>
        <time>2017-08-06T17:02:46Z</time>
      </trkpt>
      <trkpt lat="48.95127" lon="4.11718">
        <ele>107.81</ele>
        <time>2017-08-06T17:03:03Z</time>
      </trkpt>
      <trkpt lat="48.9508" lon="4.11756">
        <ele>106.36</ele>
        <time>2017-08-06T17:03:14Z</time>
      </trkpt>
      <trkpt lat="48.95071" lon="4.11762">
        <ele>105.88</ele>
        <time>2017-08-06T17:03:16Z</time>
      </trkpt>
      <trkpt lat="48.95066" lon="4.11766">
        <ele>105.88</ele>
        <time>2017-08-06T17:03:17Z</time>
      </trkpt>
      <trkpt lat="48.95061" lon="4.1177">
        <ele>105.88</ele>
        <time>2017-08-06T17:03:18Z</time>
      </trkpt>
      <trkpt lat="48.94996" lon="4.11819">
        <ele>103.48</ele>
        <time>2017-08-06T17:03:30Z</time>
      </trkpt>
      <trkpt lat="48.9499" lon="4.11825">
        <ele>103</ele>
        <time>2017-08-06T17:03:31Z</time>
      </trkpt>
      <trkpt lat="48.94903" lon="4.11903">
        <ele>99.63</ele>
        <time>2017-08-06T17:03:45Z</time>
      </trkpt>
      <trkpt lat="48.9482" lon="4.11975">
        <ele>97.23</ele>
        <time>2017-08-06T17:03:59Z</time>
      </trkpt>
      <trkpt lat="48.94804" lon="4.1199">
        <ele>96.75</ele>
        <time>2017-08-06T17:04:02Z</time>
      </trkpt>
      <trkpt lat="48.94712" lon="4.12074">
        <ele>94.35</ele>
        <time>2017-08-06T17:04:18Z</time>
      </trkpt>
      <trkpt lat="48.94653" lon="4.12127">
        <ele>92.9</ele>
        <time>2017-08-06T17:04:28Z</time>
      </trkpt>
      <trkpt lat="48.94647" lon="4.12132">
        <ele>91.94</ele>
        <time>2017-08-06T17:04:29Z</time>
      </trkpt>
      <trkpt lat="48.94565" lon="4.12204">
        <ele>90.5</ele>
        <time>2017-08-06T17:04:44Z</time>
      </trkpt>
      <trkpt lat="48.9454" lon="4.12228">
        <ele>90.98</ele>
        <time>2017-08-06T17:04:50Z</time>
      </trkpt>
      <trkpt lat="48.94537" lon="4.12235">
        <ele>90.98</ele>
        <time>2017-08-06T17:04:51Z</time>
      </trkpt>
      <trkpt lat="48.94536" lon="4.12241">
        <ele>90.98</ele>
        <time>2017-08-06T17:04:52Z</time>
      </trkpt>
      <trkpt lat="48.94537" lon="4.12247">
        <ele>90.98</ele>
        <time>2017-08-06T17:04:53Z</time>
      </trkpt>
      <trkpt lat="48.94538" lon="4.12253">
        <ele>90.98</ele>
        <time>2017-08-06T17:04:54Z</time>
      </trkpt>
      <trkpt lat="48.9454" lon="4.12258">
        <ele>90.98</ele>
        <time>2017-08-06T17:04:55Z</time>
      </trkpt>
      <trkpt lat="48.94542" lon="4.12264">
        <ele>90.98</ele>
        <time>2017-08-06T17:04:56Z</time>
      </trkpt>
      <trkpt lat="48.94578" lon="4.12371">
        <ele>90.5</ele>
        <time>2017-08-06T17:05:12Z</time>
      </trkpt>
      <trkpt lat="48.94624" lon="4.12517">
        <ele>90.02</ele>
        <time>2017-08-06T17:05:33Z</time>
      </trkpt>
      <trkpt lat="48.94664" lon="4.12638">
        <ele>90.02</ele>
        <time>2017-08-06T17:05:51Z</time>
      </trkpt>
      <trkpt lat="48.94708" lon="4.12774">
        <ele>89.54</ele>
        <time>2017-08-06T17:06:12Z</time>
      </trkpt>
      <trkpt lat="48.94761" lon="4.12939">
        <ele>89.54</ele>
        <time>2017-08-06T17:06:36Z</time>
      </trkpt>
      <trkpt lat="48.9481" lon="4.13092">
        <ele>89.06</ele>
        <time>2017-08-06T17:06:59Z</time>
      </trkpt>
      <trkpt lat="48.94846" lon="4.13215">
        <ele>88.58</ele>
        <time>2017-08-06T17:07:17Z</time>
      </trkpt>
      <trkpt lat="48.94867" lon="4.13332">
        <ele>88.1</ele>
        <time>2017-08-06T17:07:34Z</time>
      </trkpt>
      <trkpt lat="48.94886" lon="4.13451">
        <ele>87.62</ele>
        <time>2017-08-06T17:07:50Z</time>
      </trkpt>
      <trkpt lat="48.94906" lon="4.1357">
        <ele>87.14</ele>
        <time>2017-08-06T17:08:06Z</time>
      </trkpt>
      <trkpt lat="48.94921" lon="4.13661">
        <ele>87.14</ele>
        <time>2017-08-06T17:08:21Z</time>
      </trkpt>
      <trkpt lat="48.94931" lon="4.13717">
        <ele>88.58</ele>
        <time>2017-08-06T17:08:33Z</time>
      </trkpt>
      <trkpt lat="48.94909" lon="4.13779">
        <ele>88.58</ele>
        <time>2017-08-06T17:08:45Z</time>
      </trkpt>
      <trkpt lat="48.9487" lon="4.13885">
        <ele>88.1</ele>
        <time>2017-08-06T17:09:02Z</time>
      </trkpt>
      <trkpt lat="48.94834" lon="4.13986">
        <ele>88.1</ele>
        <time>2017-08-06T17:09:18Z</time>
      </trkpt>
      <trkpt lat="48.94795" lon="4.14096">
        <ele>88.1</ele>
        <time>2017-08-06T17:09:35Z</time>
      </trkpt>
      <trkpt lat="48.94754" lon="4.1421">
        <ele>88.1</ele>
        <time>2017-08-06T17:09:53Z</time>
      </trkpt>
      <trkpt lat="48.94749" lon="4.14227">
        <ele>88.1</ele>
        <time>2017-08-06T17:09:56Z</time>
      </trkpt>
      <trkpt lat="48.94748" lon="4.14233">
        <ele>88.1</ele>
        <time>2017-08-06T17:09:57Z</time>
      </trkpt>
      <trkpt lat="48.94748" lon="4.1424">
        <ele>88.1</ele>
        <time>2017-08-06T17:09:58Z</time>
      </trkpt>
      <trkpt lat="48.94748" lon="4.14246">
        <ele>88.1</ele>
        <time>2017-08-06T17:09:59Z</time>
      </trkpt>
      <trkpt lat="48.94749" lon="4.14253">
        <ele>88.1</ele>
        <time>2017-08-06T17:10:00Z</time>
      </trkpt>
      <trkpt lat="48.94763" lon="4.14357">
        <ele>88.1</ele>
        <time>2017-08-06T17:10:15Z</time>
      </trkpt>
      <trkpt lat="48.94769" lon="4.14398">
        <ele>88.1</ele>
        <time>2017-08-06T17:10:21Z</time>
      </trkpt>
      <trkpt lat="48.94757" lon="4.14453">
        <ele>88.1</ele>
        <time>2017-08-06T17:10:31Z</time>
      </trkpt>
      <trkpt lat="48.94729" lon="4.1451">
        <ele>86.66</ele>
        <time>2017-08-06T17:10:40Z</time>
      </trkpt>
      <trkpt lat="48.94717" lon="4.14535">
        <ele>86.66</ele>
        <time>2017-08-06T17:10:44Z</time>
      </trkpt>
      <trkpt lat="48.94714" lon="4.14542">
        <ele>86.66</ele>
        <time>2017-08-06T17:10:45Z</time>
      </trkpt>
      <trkpt lat="48.94713" lon="4.14549">
        <ele>86.66</ele>
        <time>2017-08-06T17:10:46Z</time>
      </trkpt>
      <trkpt lat="48.94712" lon="4.14556">
        <ele>86.66</ele>
        <time>2017-08-06T17:10:47Z</time>
      </trkpt>
      <trkpt lat="48.94713" lon="4.14564">
        <ele>86.66</ele>
        <time>2017-08-06T17:10:48Z</time>
      </trkpt>
      <trkpt lat="48.94714" lon="4.1457">
        <ele>86.66</ele>
        <time>2017-08-06T17:10:49Z</time>
      </trkpt>
      <trkpt lat="48.94718" lon="4.14589">
        <ele>86.66</ele>
        <time>2017-08-06T17:10:52Z</time>
      </trkpt>
      <trkpt lat="48.94721" lon="4.14603">
        <ele>86.18</ele>
        <time>2017-08-06T17:10:54Z</time>
      </trkpt>
      <trkpt lat="48.94723" lon="4.14609">
        <ele>86.18</ele>
        <time>2017-08-06T17:10:55Z</time>
      </trkpt>
      <trkpt lat="48.94726" lon="4.14615">
        <ele>86.18</ele>
        <time>2017-08-06T17:10:56Z</time>
      </trkpt>
      <trkpt lat="48.94729" lon="4.14621">
        <ele>86.18</ele>
        <time>2017-08-06T17:10:57Z</time>
      </trkpt>
      <trkpt lat="48.94732" lon="4.14627">
        <ele>86.18</ele>
        <time>2017-08-06T17:10:58Z</time>
      </trkpt>
      <trkpt lat="48.94768" lon="4.14679">
        <ele>85.69</ele>
        <time>2017-08-06T17:11:08Z</time>
      </trkpt>
      <trkpt lat="48.9481" lon="4.14779">
        <ele>85.69</ele>
        <time>2017-08-06T17:11:24Z</time>
      </trkpt>
      <trkpt lat="48.94815" lon="4.14801">
        <ele>85.69</ele>
        <time>2017-08-06T17:11:27Z</time>
      </trkpt>
      <trkpt lat="48.94815" lon="4.14809">
        <ele>85.69</ele>
        <time>2017-08-06T17:11:28Z</time>
      </trkpt>
      <trkpt lat="48.94813" lon="4.14815">
        <ele>85.69</ele>
        <time>2017-08-06T17:11:29Z</time>
      </trkpt>
      <trkpt lat="48.9481" lon="4.14821">
        <ele>85.69</ele>
        <time>2017-08-06T17:11:30Z</time>
      </trkpt>
      <trkpt lat="48.94806" lon="4.14826">
        <ele>85.69</ele>
        <time>2017-08-06T17:11:31Z</time>
      </trkpt>
      <trkpt lat="48.94802" lon="4.1483">
        <ele>85.69</ele>
        <time>2017-08-06T17:11:32Z</time>
      </trkpt>
      <trkpt lat="48.94799" lon="4.14833">
        <ele>85.69</ele>
        <time>2017-08-06T17:11:33Z</time>
      </trkpt>
      <trkpt lat="48.94743" lon="4.149">
        <ele>85.69</ele>
        <time>2017-08-06T17:11:50Z</time>
      </trkpt>
      <trkpt lat="48.94697" lon="4.14976">
        <ele>87.14</ele>
        <time>2017-08-06T17:12:07Z</time>
      </trkpt>
      <trkpt lat="48.94657" lon="4.1504">
        <ele>88.1</ele>
        <time>2017-08-06T17:12:23Z</time>
      </trkpt>
      <trkpt lat="48.94649" lon="4.15051">
        <ele>88.1</ele>
        <time>2017-08-06T17:12:33Z</time>
      </trkpt>
      <trkpt lat="48.94649" lon="4.15051">
        <ele>88.1</ele>
        <time>2017-08-06T17:12:54Z</time>
      </trkpt>
      <trkpt lat="48.94649" lon="4.15052">
        <ele>88.1</ele>
        <time>2017-08-06T17:13:27Z</time>
      </trkpt>
      <trkpt lat="48.94649" lon="4.15051">
        <ele>88.1</ele>
        <time>2017-08-06T17:13:56Z</time>
      </trkpt>
      <trkpt lat="48.94648" lon="4.1505">
        <ele>88.1</ele>
        <time>2017-08-06T17:14:18Z</time>
      </trkpt>
      <trkpt lat="48.94648" lon="4.15052">
        <ele>88.1</ele>
        <time>2017-08-06T17:14:42Z</time>
      </trkpt>
      <trkpt lat="48.94648" lon="4.15053">
        <ele>88.1</ele>
        <time>2017-08-06T17:14:47Z</time>
      </trkpt>
      <trkpt lat="48.9463" lon="4.15085">
        <ele>88.1</ele>
        <time>2017-08-06T17:14:58Z</time>
      </trkpt>
      <trkpt lat="48.9458" lon="4.15169">
        <ele>88.1</ele>
        <time>2017-08-06T17:15:19Z</time>
      </trkpt>
      <trkpt lat="48.94533" lon="4.15246">
        <ele>88.1</ele>
        <time>2017-08-06T17:15:37Z</time>
      </trkpt>
      <trkpt lat="48.94475" lon="4.15342">
        <ele>88.58</ele>
        <time>2017-08-06T17:15:58Z</time>
      </trkpt>
      <trkpt lat="48.94411" lon="4.15449">
        <ele>89.54</ele>
        <time>2017-08-06T17:16:22Z</time>
      </trkpt>
      <trkpt lat="48.94353" lon="4.15543">
        <ele>90.5</ele>
        <time>2017-08-06T17:16:43Z</time>
      </trkpt>
      <trkpt lat="48.94297" lon="4.15635">
        <ele>91.46</ele>
        <time>2017-08-06T17:17:05Z</time>
      </trkpt>
      <trkpt lat="48.94245" lon="4.15721">
        <ele>92.42</ele>
        <time>2017-08-06T17:17:27Z</time>
      </trkpt>
      <trkpt lat="48.94193" lon="4.15807">
        <ele>93.87</ele>
        <time>2017-08-06T17:17:51Z</time>
      </trkpt>
      <trkpt lat="48.94159" lon="4.1588">
        <ele>94.35</ele>
        <time>2017-08-06T17:18:11Z</time>
      </trkpt>
      <trkpt lat="48.94136" lon="4.15966">
        <ele>95.31</ele>
        <time>2017-08-06T17:18:29Z</time>
      </trkpt>
      <trkpt lat="48.9411" lon="4.16067">
        <ele>96.27</ele>
        <time>2017-08-06T17:18:50Z</time>
      </trkpt>
      <trkpt lat="48.9409" lon="4.16157">
        <ele>97.23</ele>
        <time>2017-08-06T17:19:10Z</time>
      </trkpt>
      <trkpt lat="48.94078" lon="4.16235">
        <ele>98.19</ele>
        <time>2017-08-06T17:19:27Z</time>
      </trkpt>
      <trkpt lat="48.94066" lon="4.16328">
        <ele>99.15</ele>
        <time>2017-08-06T17:19:47Z</time>
      </trkpt>
      <trkpt lat="48.94055" lon="4.16415">
        <ele>100.11</ele>
        <time>2017-08-06T17:20:06Z</time>
      </trkpt>
      <trkpt lat="48.94041" lon="4.16521">
        <ele>101.08</ele>
        <time>2017-08-06T17:20:29Z</time>
      </trkpt>
      <trkpt lat="48.94027" lon="4.16603">
        <ele>102.52</ele>
        <time>2017-08-06T17:20:47Z</time>
      </trkpt>
      <trkpt lat="48.9401" lon="4.16685">
        <ele>103.48</ele>
        <time>2017-08-06T17:21:05Z</time>
      </trkpt>
      <trkpt lat="48.93991" lon="4.16782">
        <ele>103.96</ele>
        <time>2017-08-06T17:21:26Z</time>
      </trkpt>
      <trkpt lat="48.93973" lon="4.16872">
        <ele>104.92</ele>
        <time>2017-08-06T17:21:43Z</time>
      </trkpt>
      <trkpt lat="48.9395" lon="4.16989">
        <ele>106.84</ele>
        <time>2017-08-06T17:22:05Z</time>
      </trkpt>
      <trkpt lat="48.93933" lon="4.17074">
        <ele>107.81</ele>
        <time>2017-08-06T17:22:23Z</time>
      </trkpt>
      <trkpt lat="48.93916" lon="4.17162">
        <ele>109.25</ele>
        <time>2017-08-06T17:22:43Z</time>
      </trkpt>
      <trkpt lat="48.93901" lon="4.17242">
        <ele>110.21</ele>
        <time>2017-08-06T17:23:03Z</time>
      </trkpt>
      <trkpt lat="48.93886" lon="4.17316">
        <ele>111.17</ele>
        <time>2017-08-06T17:23:22Z</time>
      </trkpt>
      <trkpt lat="48.93873" lon="4.17385">
        <ele>112.13</ele>
        <time>2017-08-06T17:23:39Z</time>
      </trkpt>
      <trkpt lat="48.93859" lon="4.17456">
        <ele>112.61</ele>
        <time>2017-08-06T17:23:56Z</time>
      </trkpt>
      <trkpt lat="48.93843" lon="4.17538">
        <ele>113.57</ele>
        <time>2017-08-06T17:24:14Z</time>
      </trkpt>
      <trkpt lat="48.93828" lon="4.1761">
        <ele>113.57</ele>
        <time>2017-08-06T17:24:30Z</time>
      </trkpt>
      <trkpt lat="48.93811" lon="4.17696">
        <ele>114.53</ele>
        <time>2017-08-06T17:24:49Z</time>
      </trkpt>
      <trkpt lat="48.93799" lon="4.17761">
        <ele>115.5</ele>
        <time>2017-08-06T17:25:03Z</time>
      </trkpt>
      <trkpt lat="48.9378" lon="4.17852">
        <ele>116.94</ele>
        <time>2017-08-06T17:25:19Z</time>
      </trkpt>
      <trkpt lat="48.93766" lon="4.17926">
        <ele>118.86</ele>
        <time>2017-08-06T17:25:36Z</time>
      </trkpt>
      <trkpt lat="48.93755" lon="4.17987">
        <ele>119.34</ele>
        <time>2017-08-06T17:25:52Z</time>
      </trkpt>
      <trkpt lat="48.93743" lon="4.18042">
        <ele>120.78</ele>
        <time>2017-08-06T17:26:08Z</time>
      </trkpt>
      <trkpt lat="48.93733" lon="4.18097">
        <ele>121.74</ele>
        <time>2017-08-06T17:26:24Z</time>
      </trkpt>
      <trkpt lat="48.9372" lon="4.18159">
        <ele>123.19</ele>
        <time>2017-08-06T17:26:42Z</time>
      </trkpt>
      <trkpt lat="48.9371" lon="4.18213">
        <ele>124.15</ele>
        <time>2017-08-06T17:26:58Z</time>
      </trkpt>
      <trkpt lat="48.93697" lon="4.18282">
        <ele>125.59</ele>
        <time>2017-08-06T17:27:18Z</time>
      </trkpt>
      <trkpt lat="48.93681" lon="4.18364">
        <ele>126.55</ele>
        <time>2017-08-06T17:27:38Z</time>
      </trkpt>
      <trkpt lat="48.93662" lon="4.18457">
        <ele>127.51</ele>
        <time>2017-08-06T17:27:57Z</time>
      </trkpt>
      <trkpt lat="48.93638" lon="4.18573">
        <ele>127.03</ele>
        <time>2017-08-06T17:28:16Z</time>
      </trkpt>
      <trkpt lat="48.93601" lon="4.18716">
        <ele>125.11</ele>
        <time>2017-08-06T17:28:34Z</time>
      </trkpt>
      <trkpt lat="48.93566" lon="4.18857">
        <ele>123.67</ele>
        <time>2017-08-06T17:28:51Z</time>
      </trkpt>
      <trkpt lat="48.93535" lon="4.18978">
        <ele>123.19</ele>
        <time>2017-08-06T17:29:06Z</time>
      </trkpt>
      <trkpt lat="48.93515" lon="4.19055">
        <ele>123.19</ele>
        <time>2017-08-06T17:29:16Z</time>
      </trkpt>
      <trkpt lat="48.93483" lon="4.1918">
        <ele>123.19</ele>
        <time>2017-08-06T17:29:33Z</time>
      </trkpt>
      <trkpt lat="48.93442" lon="4.19354">
        <ele>122.71</ele>
        <time>2017-08-06T17:29:56Z</time>
      </trkpt>
      <trkpt lat="48.9341" lon="4.19501">
        <ele>120.78</ele>
        <time>2017-08-06T17:30:13Z</time>
      </trkpt>
      <trkpt lat="48.93381" lon="4.19634">
        <ele>119.34</ele>
        <time>2017-08-06T17:30:28Z</time>
      </trkpt>
      <trkpt lat="48.93346" lon="4.19796">
        <ele>116.46</ele>
        <time>2017-08-06T17:30:46Z</time>
      </trkpt>
      <trkpt lat="48.933" lon="4.20003">
        <ele>113.09</ele>
        <time>2017-08-06T17:31:07Z</time>
      </trkpt>
      <trkpt lat="48.93289" lon="4.20056">
        <ele>113.09</ele>
        <time>2017-08-06T17:31:13Z</time>
      </trkpt>
      <trkpt lat="48.93287" lon="4.20082">
        <ele>113.09</ele>
        <time>2017-08-06T17:31:16Z</time>
      </trkpt>
      <trkpt lat="48.93288" lon="4.20091">
        <ele>112.61</ele>
        <time>2017-08-06T17:31:17Z</time>
      </trkpt>
      <trkpt lat="48.93289" lon="4.201">
        <ele>112.61</ele>
        <time>2017-08-06T17:31:18Z</time>
      </trkpt>
      <trkpt lat="48.93304" lon="4.20166">
        <ele>112.13</ele>
        <time>2017-08-06T17:31:26Z</time>
      </trkpt>
      <trkpt lat="48.93307" lon="4.20193">
        <ele>111.65</ele>
        <time>2017-08-06T17:31:29Z</time>
      </trkpt>
      <trkpt lat="48.93307" lon="4.20202">
        <ele>111.65</ele>
        <time>2017-08-06T17:31:30Z</time>
      </trkpt>
      <trkpt lat="48.93306" lon="4.20211">
        <ele>111.65</ele>
        <time>2017-08-06T17:31:31Z</time>
      </trkpt>
      <trkpt lat="48.93305" lon="4.20219">
        <ele>111.65</ele>
        <time>2017-08-06T17:31:32Z</time>
      </trkpt>
      <trkpt lat="48.93304" lon="4.20228">
        <ele>111.65</ele>
        <time>2017-08-06T17:31:33Z</time>
      </trkpt>
      <trkpt lat="48.93274" lon="4.20403">
        <ele>108.77</ele>
        <time>2017-08-06T17:31:52Z</time>
      </trkpt>
      <trkpt lat="48.93254" lon="4.20473">
        <ele>107.32</ele>
        <time>2017-08-06T17:32:00Z</time>
      </trkpt>
      <trkpt lat="48.93249" lon="4.20481">
        <ele>107.32</ele>
        <time>2017-08-06T17:32:01Z</time>
      </trkpt>
      <trkpt lat="48.93176" lon="4.20598">
        <ele>103.48</ele>
        <time>2017-08-06T17:32:17Z</time>
      </trkpt>
      <trkpt lat="48.93119" lon="4.20701">
        <ele>101.56</ele>
        <time>2017-08-06T17:32:31Z</time>
      </trkpt>
      <trkpt lat="48.93061" lon="4.20837">
        <ele>101.08</ele>
        <time>2017-08-06T17:32:50Z</time>
      </trkpt>
      <trkpt lat="48.93047" lon="4.20932">
        <ele>101.08</ele>
        <time>2017-08-06T17:33:04Z</time>
      </trkpt>
      <trkpt lat="48.93046" lon="4.20938">
        <ele>101.08</ele>
        <time>2017-08-06T17:33:05Z</time>
      </trkpt>
      <trkpt lat="48.93045" lon="4.20943">
        <ele>101.08</ele>
        <time>2017-08-06T17:33:06Z</time>
      </trkpt>
      <trkpt lat="48.93043" lon="4.20951">
        <ele>101.08</ele>
        <time>2017-08-06T17:33:07Z</time>
      </trkpt>
      <trkpt lat="48.93042" lon="4.20955">
        <ele>101.08</ele>
        <time>2017-08-06T17:33:08Z</time>
      </trkpt>
      <trkpt lat="48.93038" lon="4.20968">
        <ele>101.08</ele>
        <time>2017-08-06T17:33:10Z</time>
      </trkpt>
      <trkpt lat="48.93036" lon="4.20972">
        <ele>101.08</ele>
        <time>2017-08-06T17:33:11Z</time>
      </trkpt>
      <trkpt lat="48.93033" lon="4.20977">
        <ele>101.08</ele>
        <time>2017-08-06T17:33:12Z</time>
      </trkpt>
      <trkpt lat="48.93029" lon="4.20981">
        <ele>101.08</ele>
        <time>2017-08-06T17:33:13Z</time>
      </trkpt>
      <trkpt lat="48.93025" lon="4.20985">
        <ele>101.08</ele>
        <time>2017-08-06T17:33:14Z</time>
      </trkpt>
      <trkpt lat="48.93021" lon="4.20987">
        <ele>101.08</ele>
        <time>2017-08-06T17:33:15Z</time>
      </trkpt>
      <trkpt lat="48.93017" lon="4.2099">
        <ele>101.08</ele>
        <time>2017-08-06T17:33:16Z</time>
      </trkpt>
      <trkpt lat="48.92949" lon="4.21023">
        <ele>100.11</ele>
        <time>2017-08-06T17:33:33Z</time>
      </trkpt>
      <trkpt lat="48.92947" lon="4.21025">
        <ele>100.11</ele>
        <time>2017-08-06T17:33:34Z</time>
      </trkpt>
      <trkpt lat="48.92946" lon="4.21027">
        <ele>100.11</ele>
        <time>2017-08-06T17:33:35Z</time>
      </trkpt>
      <trkpt lat="48.92945" lon="4.21031">
        <ele>100.11</ele>
        <time>2017-08-06T17:33:36Z</time>
      </trkpt>
      <trkpt lat="48.92945" lon="4.21034">
        <ele>100.11</ele>
        <time>2017-08-06T17:33:37Z</time>
      </trkpt>
      <trkpt lat="48.92945" lon="4.21038">
        <ele>100.11</ele>
        <time>2017-08-06T17:33:38Z</time>
      </trkpt>
      <trkpt lat="48.92946" lon="4.21043">
        <ele>100.11</ele>
        <time>2017-08-06T17:33:39Z</time>
      </trkpt>
      <trkpt lat="48.92947" lon="4.21048">
        <ele>100.11</ele>
        <time>2017-08-06T17:33:40Z</time>
      </trkpt>
      <trkpt lat="48.92968" lon="4.21135">
        <ele>98.67</ele>
        <time>2017-08-06T17:33:54Z</time>
      </trkpt>
      <trkpt lat="48.93003" lon="4.21275">
        <ele>98.19</ele>
        <time>2017-08-06T17:34:14Z</time>
      </trkpt>
      <trkpt lat="48.93033" lon="4.21391">
        <ele>98.19</ele>
        <time>2017-08-06T17:34:31Z</time>
      </trkpt>
      <trkpt lat="48.93038" lon="4.2141">
        <ele>98.19</ele>
        <time>2017-08-06T17:34:34Z</time>
      </trkpt>
      <trkpt lat="48.9304" lon="4.21416">
        <ele>98.19</ele>
        <time>2017-08-06T17:34:35Z</time>
      </trkpt>
      <trkpt lat="48.93076" lon="4.21561">
        <ele>97.23</ele>
        <time>2017-08-06T17:34:57Z</time>
      </trkpt>
      <trkpt lat="48.93115" lon="4.21717">
        <ele>96.75</ele>
        <time>2017-08-06T17:35:20Z</time>
      </trkpt>
      <trkpt lat="48.93149" lon="4.21854">
        <ele>96.27</ele>
        <time>2017-08-06T17:35:41Z</time>
      </trkpt>
      <trkpt lat="48.93178" lon="4.21968">
        <ele>96.27</ele>
        <time>2017-08-06T17:36:01Z</time>
      </trkpt>
      <trkpt lat="48.93191" lon="4.22024">
        <ele>96.27</ele>
        <time>2017-08-06T17:36:13Z</time>
      </trkpt>
      <trkpt lat="48.93215" lon="4.22124">
        <ele>96.27</ele>
        <time>2017-08-06T17:36:32Z</time>
      </trkpt>
      <trkpt lat="48.93233" lon="4.22208">
        <ele>98.19</ele>
        <time>2017-08-06T17:36:49Z</time>
      </trkpt>
      <trkpt lat="48.93238" lon="4.22218">
        <ele>98.19</ele>
        <time>2017-08-06T17:36:52Z</time>
      </trkpt>
      <trkpt lat="48.9324" lon="4.22219">
        <ele>98.19</ele>
        <time>2017-08-06T17:36:53Z</time>
      </trkpt>
      <trkpt lat="48.93242" lon="4.22219">
        <ele>98.19</ele>
        <time>2017-08-06T17:36:54Z</time>
      </trkpt>
      <trkpt lat="48.93244" lon="4.2222">
        <ele>98.19</ele>
        <time>2017-08-06T17:36:56Z</time>
      </trkpt>
      <trkpt lat="48.93245" lon="4.22222">
        <ele>98.19</ele>
        <time>2017-08-06T17:36:57Z</time>
      </trkpt>
      <trkpt lat="48.93245" lon="4.22225">
        <ele>98.19</ele>
        <time>2017-08-06T17:36:58Z</time>
      </trkpt>
      <trkpt lat="48.93245" lon="4.22228">
        <ele>98.19</ele>
        <time>2017-08-06T17:36:59Z</time>
      </trkpt>
      <trkpt lat="48.93244" lon="4.22232">
        <ele>98.19</ele>
        <time>2017-08-06T17:37:00Z</time>
      </trkpt>
      <trkpt lat="48.93244" lon="4.22236">
        <ele>98.19</ele>
        <time>2017-08-06T17:37:01Z</time>
      </trkpt>
      <trkpt lat="48.93256" lon="4.223">
        <ele>98.19</ele>
        <time>2017-08-06T17:37:14Z</time>
      </trkpt>
      <trkpt lat="48.93281" lon="4.224">
        <ele>98.19</ele>
        <time>2017-08-06T17:37:33Z</time>
      </trkpt>
      <trkpt lat="48.93304" lon="4.22499">
        <ele>98.19</ele>
        <time>2017-08-06T17:37:52Z</time>
      </trkpt>
      <trkpt lat="48.93327" lon="4.22592">
        <ele>99.15</ele>
        <time>2017-08-06T17:38:10Z</time>
      </trkpt>
      <trkpt lat="48.93351" lon="4.2269">
        <ele>99.63</ele>
        <time>2017-08-06T17:38:29Z</time>
      </trkpt>
      <trkpt lat="48.93354" lon="4.22692">
        <ele>99.63</ele>
        <time>2017-08-06T17:38:30Z</time>
      </trkpt>
      <trkpt lat="48.93364" lon="4.227">
        <ele>99.63</ele>
        <time>2017-08-06T17:38:33Z</time>
      </trkpt>
      <trkpt lat="48.93367" lon="4.22704">
        <ele>99.15</ele>
        <time>2017-08-06T17:38:34Z</time>
      </trkpt>
      <trkpt lat="48.93423" lon="4.2279">
        <ele>99.63</ele>
        <time>2017-08-06T17:38:51Z</time>
      </trkpt>
      <trkpt lat="48.93458" lon="4.22846">
        <ele>99.15</ele>
        <time>2017-08-06T17:39:02Z</time>
      </trkpt>
      <trkpt lat="48.93505" lon="4.22917">
        <ele>99.15</ele>
        <time>2017-08-06T17:39:18Z</time>
      </trkpt>
      <trkpt lat="48.93554" lon="4.23007">
        <ele>98.19</ele>
        <time>2017-08-06T17:39:35Z</time>
      </trkpt>
      <trkpt lat="48.93607" lon="4.23135">
        <ele>97.71</ele>
        <time>2017-08-06T17:39:55Z</time>
      </trkpt>
      <trkpt lat="48.9366" lon="4.23248">
        <ele>97.23</ele>
        <time>2017-08-06T17:40:16Z</time>
      </trkpt>
      <trkpt lat="48.93708" lon="4.23343">
        <ele>97.23</ele>
        <time>2017-08-06T17:40:34Z</time>
      </trkpt>
      <trkpt lat="48.93773" lon="4.23426">
        <ele>97.23</ele>
        <time>2017-08-06T17:40:54Z</time>
      </trkpt>
      <trkpt lat="48.93836" lon="4.23497">
        <ele>95.79</ele>
        <time>2017-08-06T17:41:09Z</time>
      </trkpt>
      <trkpt lat="48.93894" lon="4.23566">
        <ele>94.83</ele>
        <time>2017-08-06T17:41:24Z</time>
      </trkpt>
      <trkpt lat="48.93925" lon="4.23608">
        <ele>94.35</ele>
        <time>2017-08-06T17:41:33Z</time>
      </trkpt>
      <trkpt lat="48.93928" lon="4.23612">
        <ele>94.35</ele>
        <time>2017-08-06T17:41:34Z</time>
      </trkpt>
      <trkpt lat="48.93931" lon="4.23616">
        <ele>94.35</ele>
        <time>2017-08-06T17:41:35Z</time>
      </trkpt>
      <trkpt lat="48.93934" lon="4.23621">
        <ele>94.35</ele>
        <time>2017-08-06T17:41:36Z</time>
      </trkpt>
      <trkpt lat="48.93937" lon="4.23626">
        <ele>94.35</ele>
        <time>2017-08-06T17:41:37Z</time>
      </trkpt>
      <trkpt lat="48.9394" lon="4.2363">
        <ele>94.35</ele>
        <time>2017-08-06T17:41:38Z</time>
      </trkpt>
      <trkpt lat="48.93943" lon="4.23634">
        <ele>94.35</ele>
        <time>2017-08-06T17:41:39Z</time>
      </trkpt>
      <trkpt lat="48.93949" lon="4.23638">
        <ele>94.35</ele>
        <time>2017-08-06T17:41:41Z</time>
      </trkpt>
      <trkpt lat="48.93955" lon="4.23624">
        <ele>93.87</ele>
        <time>2017-08-06T17:41:46Z</time>
      </trkpt>
      <trkpt lat="48.93976" lon="4.23575">
        <ele>91.94</ele>
        <time>2017-08-06T17:41:58Z</time>
      </trkpt>
      <trkpt lat="48.93993" lon="4.23585">
        <ele>91.46</ele>
        <time>2017-08-06T17:42:05Z</time>
      </trkpt>
      <trkpt lat="48.9402" lon="4.23605">
        <ele>91.46</ele>
        <time>2017-08-06T17:42:19Z</time>
      </trkpt>
      <trkpt lat="48.9406" lon="4.23614">
        <ele>90.98</ele>
        <time>2017-08-06T17:42:33Z</time>
      </trkpt>
      <trkpt lat="48.94099" lon="4.23616">
        <ele>90.5</ele>
        <time>2017-08-06T17:42:46Z</time>
      </trkpt>
      <trkpt lat="48.94124" lon="4.23615">
        <ele>91.94</ele>
        <time>2017-08-06T17:42:58Z</time>
      </trkpt>
      <trkpt lat="48.94128" lon="4.23617">
        <ele>91.94</ele>
        <time>2017-08-06T17:43:00Z</time>
      </trkpt>
      <trkpt lat="48.9414" lon="4.23641">
        <ele>92.42</ele>
        <time>2017-08-06T17:43:11Z</time>
      </trkpt>
      <trkpt lat="48.94142" lon="4.23644">
        <ele>91.94</ele>
        <time>2017-08-06T17:43:26Z</time>
      </trkpt>
      <trkpt lat="48.94143" lon="4.23646">
        <ele>92.42</ele>
        <time>2017-08-06T17:43:48Z</time>
      </trkpt>
      <trkpt lat="48.94144" lon="4.23646">
        <ele>92.42</ele>
        <time>2017-08-06T17:44:02Z</time>
      </trkpt>
    </trkseg>
  </trk>
</gpx>